<?xml version="1.0" encoding="UTF-8" standalone="no" ?>
<gpx xmlns="http://www.topografix.com/GPX/1/1" xmlns:gpxx="http://www.garmin.com/xmlschemas/GpxExtensions/v3" xmlns:gpxtpx="http://www.garmin.com/xmlschemas/TrackPointExtension/v1" creator="https://www.mapstogpx.com/strava" version="1.1" xmlns:xsi="http://www.w3.org/2001/XMLSchema-instance" xsi:schemaLocation="http://www.topografix.com/GPX/1/1 http://www.topografix.com/GPX/1/1/gpx.xsd http://www.garmin.com/xmlschemas/GpxExtensions/v3 http://www.garmin.com/xmlschemas/GpxExtensionsv3.xsd http://www.garmin.com/xmlschemas/TrackPointExtension/v1 http://www.garmin.com/xmlschemas/TrackPointExtensionv1.xsd" xmlns:gpxdata="http://www.cluetrust.com/XML/GPXDATA/1/0">
 <metadata>
  <name>Arad-DeadSee</name>
  <author>
   <name></name>
   <link href="https://www.strava.com/activities/3061629307"/>
  </author>
  <link href="https://www.mapstogpx.com/strava" />
  <time>2020-02-03T10:37:38Z</time>
 </metadata>
 <trk>
  <name>Arad-DeadSee</name>
  <link href="https://www.strava.com/activities/3061629307"/>
  <number>1</number>
  <trkseg>
   <trkpt lat="31.260758" lon="35.230455"><ele>597.7</ele><name>TP00001</name><time>2020-01-27T10:37:38Z</time></trkpt>
   <trkpt lat="31.260771" lon="35.230432"><ele>597.7</ele><name>TP00002</name><time>2020-01-27T10:37:39Z</time></trkpt>
   <trkpt lat="31.260767" lon="35.23043"><ele>597.7</ele><name>TP00003</name><time>2020-01-27T10:37:40Z</time></trkpt>
   <trkpt lat="31.260767" lon="35.23043"><ele>597.7</ele><name>TP00004</name><time>2020-01-27T10:37:41Z</time></trkpt>
   <trkpt lat="31.260751" lon="35.230449"><ele>597.7</ele><name>TP00005</name><time>2020-01-27T10:37:43Z</time></trkpt>
   <trkpt lat="31.260743" lon="35.230459"><ele>597.7</ele><name>TP00006</name><time>2020-01-27T10:37:45Z</time></trkpt>
   <trkpt lat="31.26074" lon="35.230461"><ele>597.6</ele><name>TP00007</name><time>2020-01-27T10:37:46Z</time></trkpt>
   <trkpt lat="31.26074" lon="35.230462"><ele>597.6</ele><name>TP00008</name><time>2020-01-27T10:37:47Z</time></trkpt>
   <trkpt lat="31.260738" lon="35.230463"><ele>597.6</ele><name>TP00009</name><time>2020-01-27T10:37:48Z</time></trkpt>
   <trkpt lat="31.260737" lon="35.230463"><ele>597.6</ele><name>TP00010</name><time>2020-01-27T10:37:49Z</time></trkpt>
   <trkpt lat="31.26074" lon="35.230463"><ele>597.6</ele><name>TP00011</name><time>2020-01-27T10:37:51Z</time></trkpt>
   <trkpt lat="31.260743" lon="35.230463"><ele>597.6</ele><name>TP00012</name><time>2020-01-27T10:37:53Z</time></trkpt>
   <trkpt lat="31.260743" lon="35.230463"><ele>597.6</ele><name>TP00013</name><time>2020-01-27T10:37:55Z</time></trkpt>
   <trkpt lat="31.260743" lon="35.230463"><ele>597.6</ele><name>TP00014</name><time>2020-01-27T10:37:56Z</time></trkpt>
   <trkpt lat="31.260743" lon="35.230463"><ele>597.6</ele><name>TP00015</name><time>2020-01-27T10:37:57Z</time></trkpt>
   <trkpt lat="31.260743" lon="35.230462"><ele>597.6</ele><name>TP00016</name><time>2020-01-27T10:37:59Z</time></trkpt>
   <trkpt lat="31.260742" lon="35.230462"><ele>597.6</ele><name>TP00017</name><time>2020-01-27T10:38:00Z</time></trkpt>
   <trkpt lat="31.260742" lon="35.230463"><ele>597.6</ele><name>TP00018</name><time>2020-01-27T10:38:02Z</time></trkpt>
   <trkpt lat="31.260741" lon="35.230462"><ele>597.6</ele><name>TP00019</name><time>2020-01-27T10:38:04Z</time></trkpt>
   <trkpt lat="31.260741" lon="35.230463"><ele>597.6</ele><name>TP00020</name><time>2020-01-27T10:38:06Z</time></trkpt>
   <trkpt lat="31.260741" lon="35.230463"><ele>597.6</ele><name>TP00021</name><time>2020-01-27T10:38:08Z</time></trkpt>
   <trkpt lat="31.260741" lon="35.230463"><ele>597.6</ele><name>TP00022</name><time>2020-01-27T10:38:09Z</time></trkpt>
   <trkpt lat="31.260741" lon="35.230463"><ele>597.6</ele><name>TP00023</name><time>2020-01-27T10:38:11Z</time></trkpt>
   <trkpt lat="31.260741" lon="35.230463"><ele>597.6</ele><name>TP00024</name><time>2020-01-27T10:38:12Z</time></trkpt>
   <trkpt lat="31.260741" lon="35.230463"><ele>597.6</ele><name>TP00025</name><time>2020-01-27T10:38:13Z</time></trkpt>
   <trkpt lat="31.260737" lon="35.230462"><ele>597.6</ele><name>TP00026</name><time>2020-01-27T10:38:15Z</time></trkpt>
   <trkpt lat="31.260728" lon="35.230461"><ele>597.6</ele><name>TP00027</name><time>2020-01-27T10:38:16Z</time></trkpt>
   <trkpt lat="31.260726" lon="35.230462"><ele>597.6</ele><name>TP00028</name><time>2020-01-27T10:38:17Z</time></trkpt>
   <trkpt lat="31.260725" lon="35.230462"><ele>597.6</ele><name>TP00029</name><time>2020-01-27T10:38:18Z</time></trkpt>
   <trkpt lat="31.260726" lon="35.230462"><ele>597.6</ele><name>TP00030</name><time>2020-01-27T10:38:19Z</time></trkpt>
   <trkpt lat="31.260726" lon="35.230462"><ele>597.6</ele><name>TP00031</name><time>2020-01-27T10:38:20Z</time></trkpt>
   <trkpt lat="31.260725" lon="35.23046"><ele>597.6</ele><name>TP00032</name><time>2020-01-27T10:38:22Z</time></trkpt>
   <trkpt lat="31.260725" lon="35.230459"><ele>597.6</ele><name>TP00033</name><time>2020-01-27T10:38:24Z</time></trkpt>
   <trkpt lat="31.260725" lon="35.230461"><ele>597.6</ele><name>TP00034</name><time>2020-01-27T10:38:25Z</time></trkpt>
   <trkpt lat="31.260725" lon="35.230461"><ele>597.6</ele><name>TP00035</name><time>2020-01-27T10:38:26Z</time></trkpt>
   <trkpt lat="31.260724" lon="35.230462"><ele>597.6</ele><name>TP00036</name><time>2020-01-27T10:38:28Z</time></trkpt>
   <trkpt lat="31.260725" lon="35.230461"><ele>597.6</ele><name>TP00037</name><time>2020-01-27T10:38:29Z</time></trkpt>
   <trkpt lat="31.260726" lon="35.230461"><ele>597.6</ele><name>TP00038</name><time>2020-01-27T10:38:31Z</time></trkpt>
   <trkpt lat="31.260728" lon="35.23046"><ele>597.6</ele><name>TP00039</name><time>2020-01-27T10:38:32Z</time></trkpt>
   <trkpt lat="31.260728" lon="35.23046"><ele>597.6</ele><name>TP00040</name><time>2020-01-27T10:38:33Z</time></trkpt>
   <trkpt lat="31.263407" lon="35.227828"><ele>601.1</ele><name>TP00041</name><time>2020-01-27T10:38:34Z</time></trkpt>
   <trkpt lat="31.263406" lon="35.227829"><ele>601.1</ele><name>TP00042</name><time>2020-01-27T10:38:36Z</time></trkpt>
   <trkpt lat="31.263406" lon="35.227829"><ele>601.1</ele><name>TP00043</name><time>2020-01-27T10:38:37Z</time></trkpt>
   <trkpt lat="31.263406" lon="35.22783"><ele>601.1</ele><name>TP00044</name><time>2020-01-27T10:38:38Z</time></trkpt>
   <trkpt lat="31.263406" lon="35.22783"><ele>601.1</ele><name>TP00045</name><time>2020-01-27T10:38:40Z</time></trkpt>
   <trkpt lat="31.261377" lon="35.228971"><ele>598.7</ele><name>TP00046</name><time>2020-01-27T10:38:41Z</time></trkpt>
   <trkpt lat="31.261377" lon="35.228971"><ele>598.7</ele><name>TP00047</name><time>2020-01-27T10:38:42Z</time></trkpt>
   <trkpt lat="31.261377" lon="35.22897"><ele>598.7</ele><name>TP00048</name><time>2020-01-27T10:38:44Z</time></trkpt>
   <trkpt lat="31.261372" lon="35.228978"><ele>598.7</ele><name>TP00049</name><time>2020-01-27T10:38:45Z</time></trkpt>
   <trkpt lat="31.26137" lon="35.228982"><ele>598.7</ele><name>TP00050</name><time>2020-01-27T10:38:46Z</time></trkpt>
   <trkpt lat="31.261366" lon="35.228989"><ele>598.7</ele><name>TP00051</name><time>2020-01-27T10:38:48Z</time></trkpt>
   <trkpt lat="31.261364" lon="35.228991"><ele>598.7</ele><name>TP00052</name><time>2020-01-27T10:38:49Z</time></trkpt>
   <trkpt lat="31.261363" lon="35.228993"><ele>598.6</ele><name>TP00053</name><time>2020-01-27T10:38:50Z</time></trkpt>
   <trkpt lat="31.260809" lon="35.230282"><ele>597.9</ele><name>TP00054</name><time>2020-01-27T10:38:52Z</time></trkpt>
   <trkpt lat="31.260768" lon="35.230393"><ele>597.8</ele><name>TP00055</name><time>2020-01-27T10:38:54Z</time></trkpt>
   <trkpt lat="31.260792" lon="35.230343"><ele>597.8</ele><name>TP00056</name><time>2020-01-27T10:38:55Z</time></trkpt>
   <trkpt lat="31.260815" lon="35.230292"><ele>597.7</ele><name>TP00057</name><time>2020-01-27T10:38:56Z</time></trkpt>
   <trkpt lat="31.260839" lon="35.230241"><ele>597.4</ele><name>TP00058</name><time>2020-01-27T10:38:57Z</time></trkpt>
   <trkpt lat="31.260863" lon="35.230191"><ele>597.1</ele><name>TP00059</name><time>2020-01-27T10:38:59Z</time></trkpt>
   <trkpt lat="31.260887" lon="35.23014"><ele>596.8</ele><name>TP00060</name><time>2020-01-27T10:39:00Z</time></trkpt>
   <trkpt lat="31.260911" lon="35.230089"><ele>596.5</ele><name>TP00061</name><time>2020-01-27T10:39:02Z</time></trkpt>
   <trkpt lat="31.260934" lon="35.230039"><ele>596.3</ele><name>TP00062</name><time>2020-01-27T10:39:03Z</time></trkpt>
   <trkpt lat="31.260958" lon="35.229988"><ele>596.1</ele><name>TP00063</name><time>2020-01-27T10:39:05Z</time></trkpt>
   <trkpt lat="31.260982" lon="35.229938"><ele>595.9</ele><name>TP00064</name><time>2020-01-27T10:39:06Z</time></trkpt>
   <trkpt lat="31.261006" lon="35.229887"><ele>595.7</ele><name>TP00065</name><time>2020-01-27T10:39:07Z</time></trkpt>
   <trkpt lat="31.26103" lon="35.229836"><ele>595.7</ele><name>TP00066</name><time>2020-01-27T10:39:09Z</time></trkpt>
   <trkpt lat="31.261053" lon="35.229786"><ele>595.7</ele><name>TP00067</name><time>2020-01-27T10:39:10Z</time></trkpt>
   <trkpt lat="31.261077" lon="35.229735"><ele>595.7</ele><name>TP00068</name><time>2020-01-27T10:39:11Z</time></trkpt>
   <trkpt lat="31.261101" lon="35.229684"><ele>595.9</ele><name>TP00069</name><time>2020-01-27T10:39:13Z</time></trkpt>
   <trkpt lat="31.261125" lon="35.229634"><ele>596.3</ele><name>TP00070</name><time>2020-01-27T10:39:15Z</time></trkpt>
   <trkpt lat="31.261149" lon="35.229583"><ele>596.4</ele><name>TP00071</name><time>2020-01-27T10:39:16Z</time></trkpt>
   <trkpt lat="31.261173" lon="35.229532"><ele>596.6</ele><name>TP00072</name><time>2020-01-27T10:39:18Z</time></trkpt>
   <trkpt lat="31.261196" lon="35.229482"><ele>596.7</ele><name>TP00073</name><time>2020-01-27T10:39:19Z</time></trkpt>
   <trkpt lat="31.26122" lon="35.229431"><ele>596.9</ele><name>TP00074</name><time>2020-01-27T10:39:21Z</time></trkpt>
   <trkpt lat="31.261244" lon="35.22938"><ele>597</ele><name>TP00075</name><time>2020-01-27T10:39:23Z</time></trkpt>
   <trkpt lat="31.261268" lon="35.22933"><ele>597.2</ele><name>TP00076</name><time>2020-01-27T10:39:24Z</time></trkpt>
   <trkpt lat="31.261292" lon="35.229279"><ele>597.3</ele><name>TP00077</name><time>2020-01-27T10:39:25Z</time></trkpt>
   <trkpt lat="31.261315" lon="35.229229"><ele>597.6</ele><name>TP00078</name><time>2020-01-27T10:39:27Z</time></trkpt>
   <trkpt lat="31.261339" lon="35.229178"><ele>597.9</ele><name>TP00079</name><time>2020-01-27T10:39:29Z</time></trkpt>
   <trkpt lat="31.261363" lon="35.229127"><ele>598.2</ele><name>TP00080</name><time>2020-01-27T10:39:30Z</time></trkpt>
   <trkpt lat="31.261387" lon="35.229077"><ele>598.4</ele><name>TP00081</name><time>2020-01-27T10:39:31Z</time></trkpt>
   <trkpt lat="31.261411" lon="35.229026"><ele>598.6</ele><name>TP00082</name><time>2020-01-27T10:39:33Z</time></trkpt>
   <trkpt lat="31.261434" lon="35.228975"><ele>598.8</ele><name>TP00083</name><time>2020-01-27T10:39:34Z</time></trkpt>
   <trkpt lat="31.261458" lon="35.228925"><ele>599</ele><name>TP00084</name><time>2020-01-27T10:39:35Z</time></trkpt>
   <trkpt lat="31.261482" lon="35.228874"><ele>599.2</ele><name>TP00085</name><time>2020-01-27T10:39:37Z</time></trkpt>
   <trkpt lat="31.261613" lon="35.228592"><ele>600.1</ele><name>TP00086</name><time>2020-01-27T10:39:39Z</time></trkpt>
   <trkpt lat="31.261558" lon="35.228693"><ele>599.7</ele><name>TP00087</name><time>2020-01-27T10:39:40Z</time></trkpt>
   <trkpt lat="31.261563" lon="35.228659"><ele>599.7</ele><name>TP00088</name><time>2020-01-27T10:39:41Z</time></trkpt>
   <trkpt lat="31.261507" lon="35.228742"><ele>599.6</ele><name>TP00089</name><time>2020-01-27T10:39:43Z</time></trkpt>
   <trkpt lat="31.261466" lon="35.228823"><ele>599.3</ele><name>TP00090</name><time>2020-01-27T10:39:45Z</time></trkpt>
   <trkpt lat="31.26145" lon="35.228852"><ele>599.3</ele><name>TP00091</name><time>2020-01-27T10:39:46Z</time></trkpt>
   <trkpt lat="31.261444" lon="35.228873"><ele>599.2</ele><name>TP00092</name><time>2020-01-27T10:39:48Z</time></trkpt>
   <trkpt lat="31.261442" lon="35.228884"><ele>599.2</ele><name>TP00093</name><time>2020-01-27T10:39:49Z</time></trkpt>
   <trkpt lat="31.261445" lon="35.228884"><ele>599.2</ele><name>TP00094</name><time>2020-01-27T10:39:51Z</time></trkpt>
   <trkpt lat="31.261447" lon="35.228884"><ele>599.2</ele><name>TP00095</name><time>2020-01-27T10:39:53Z</time></trkpt>
   <trkpt lat="31.261449" lon="35.228879"><ele>599.1</ele><name>TP00096</name><time>2020-01-27T10:39:55Z</time></trkpt>
   <trkpt lat="31.261451" lon="35.228879"><ele>599.1</ele><name>TP00097</name><time>2020-01-27T10:39:57Z</time></trkpt>
   <trkpt lat="31.261451" lon="35.228878"><ele>599.1</ele><name>TP00098</name><time>2020-01-27T10:39:58Z</time></trkpt>
   <trkpt lat="31.26145" lon="35.228878"><ele>599.1</ele><name>TP00099</name><time>2020-01-27T10:40:00Z</time></trkpt>
   <trkpt lat="31.261449" lon="35.228877"><ele>599.1</ele><name>TP00100</name><time>2020-01-27T10:40:01Z</time></trkpt>
   <trkpt lat="31.261448" lon="35.228876"><ele>599.1</ele><name>TP00101</name><time>2020-01-27T10:40:03Z</time></trkpt>
   <trkpt lat="31.261449" lon="35.228876"><ele>599.1</ele><name>TP00102</name><time>2020-01-27T10:40:05Z</time></trkpt>
   <trkpt lat="31.261449" lon="35.228875"><ele>599.1</ele><name>TP00103</name><time>2020-01-27T10:40:07Z</time></trkpt>
   <trkpt lat="31.26145" lon="35.228875"><ele>599.1</ele><name>TP00104</name><time>2020-01-27T10:40:09Z</time></trkpt>
   <trkpt lat="31.260744" lon="35.230457"><ele>597.7</ele><name>TP00105</name><time>2020-01-27T10:40:11Z</time></trkpt>
   <trkpt lat="31.260745" lon="35.230454"><ele>597.7</ele><name>TP00106</name><time>2020-01-27T10:40:12Z</time></trkpt>
   <trkpt lat="31.260746" lon="35.230452"><ele>597.7</ele><name>TP00107</name><time>2020-01-27T10:40:13Z</time></trkpt>
   <trkpt lat="31.260747" lon="35.230449"><ele>597.7</ele><name>TP00108</name><time>2020-01-27T10:40:15Z</time></trkpt>
   <trkpt lat="31.260749" lon="35.230446"><ele>597.7</ele><name>TP00109</name><time>2020-01-27T10:40:17Z</time></trkpt>
   <trkpt lat="31.26075" lon="35.230443"><ele>597.7</ele><name>TP00110</name><time>2020-01-27T10:40:18Z</time></trkpt>
   <trkpt lat="31.260751" lon="35.230441"><ele>597.7</ele><name>TP00111</name><time>2020-01-27T10:40:20Z</time></trkpt>
   <trkpt lat="31.260752" lon="35.230438"><ele>597.7</ele><name>TP00112</name><time>2020-01-27T10:40:21Z</time></trkpt>
   <trkpt lat="31.260753" lon="35.230435"><ele>597.7</ele><name>TP00113</name><time>2020-01-27T10:40:23Z</time></trkpt>
   <trkpt lat="31.260754" lon="35.230433"><ele>597.7</ele><name>TP00114</name><time>2020-01-27T10:40:24Z</time></trkpt>
   <trkpt lat="31.260755" lon="35.23043"><ele>597.7</ele><name>TP00115</name><time>2020-01-27T10:40:26Z</time></trkpt>
   <trkpt lat="31.260757" lon="35.230427"><ele>597.7</ele><name>TP00116</name><time>2020-01-27T10:40:27Z</time></trkpt>
   <trkpt lat="31.260758" lon="35.230425"><ele>597.7</ele><name>TP00117</name><time>2020-01-27T10:40:28Z</time></trkpt>
   <trkpt lat="31.260759" lon="35.230422"><ele>597.7</ele><name>TP00118</name><time>2020-01-27T10:40:29Z</time></trkpt>
   <trkpt lat="31.26076" lon="35.230419"><ele>597.7</ele><name>TP00119</name><time>2020-01-27T10:40:31Z</time></trkpt>
   <trkpt lat="31.260761" lon="35.230416"><ele>597.7</ele><name>TP00120</name><time>2020-01-27T10:40:33Z</time></trkpt>
   <trkpt lat="31.260762" lon="35.230414"><ele>597.7</ele><name>TP00121</name><time>2020-01-27T10:40:35Z</time></trkpt>
   <trkpt lat="31.260764" lon="35.230411"><ele>597.7</ele><name>TP00122</name><time>2020-01-27T10:40:37Z</time></trkpt>
   <trkpt lat="31.260765" lon="35.230408"><ele>597.7</ele><name>TP00123</name><time>2020-01-27T10:40:38Z</time></trkpt>
   <trkpt lat="31.260766" lon="35.230406"><ele>597.7</ele><name>TP00124</name><time>2020-01-27T10:40:40Z</time></trkpt>
   <trkpt lat="31.260767" lon="35.230403"><ele>597.7</ele><name>TP00125</name><time>2020-01-27T10:40:41Z</time></trkpt>
   <trkpt lat="31.260768" lon="35.2304"><ele>597.8</ele><name>TP00126</name><time>2020-01-27T10:40:43Z</time></trkpt>
   <trkpt lat="31.260769" lon="35.230398"><ele>597.8</ele><name>TP00127</name><time>2020-01-27T10:40:44Z</time></trkpt>
   <trkpt lat="31.26077" lon="35.230395"><ele>597.8</ele><name>TP00128</name><time>2020-01-27T10:40:46Z</time></trkpt>
   <trkpt lat="31.260772" lon="35.230392"><ele>597.8</ele><name>TP00129</name><time>2020-01-27T10:40:47Z</time></trkpt>
   <trkpt lat="31.260773" lon="35.230389"><ele>597.8</ele><name>TP00130</name><time>2020-01-27T10:40:49Z</time></trkpt>
   <trkpt lat="31.260774" lon="35.230387"><ele>597.8</ele><name>TP00131</name><time>2020-01-27T10:40:51Z</time></trkpt>
   <trkpt lat="31.260775" lon="35.230384"><ele>597.8</ele><name>TP00132</name><time>2020-01-27T10:40:53Z</time></trkpt>
   <trkpt lat="31.260789" lon="35.230349"><ele>597.8</ele><name>TP00133</name><time>2020-01-27T10:40:55Z</time></trkpt>
   <trkpt lat="31.260792" lon="35.230344"><ele>597.8</ele><name>TP00134</name><time>2020-01-27T10:40:56Z</time></trkpt>
   <trkpt lat="31.260795" lon="35.230345"><ele>597.8</ele><name>TP00135</name><time>2020-01-27T10:40:58Z</time></trkpt>
   <trkpt lat="31.260795" lon="35.230347"><ele>597.9</ele><name>TP00136</name><time>2020-01-27T10:40:59Z</time></trkpt>
   <trkpt lat="31.260811" lon="35.230293"><ele>597.9</ele><name>TP00137</name><time>2020-01-27T10:41:01Z</time></trkpt>
   <trkpt lat="31.26084" lon="35.230204"><ele>597.9</ele><name>TP00138</name><time>2020-01-27T10:41:03Z</time></trkpt>
   <trkpt lat="31.260862" lon="35.230108"><ele>597.8</ele><name>TP00139</name><time>2020-01-27T10:41:04Z</time></trkpt>
   <trkpt lat="31.260885" lon="35.230007"><ele>597.7</ele><name>TP00140</name><time>2020-01-27T10:41:06Z</time></trkpt>
   <trkpt lat="31.260752" lon="35.230431"><ele>597.7</ele><name>TP00141</name><time>2020-01-27T10:41:08Z</time></trkpt>
   <trkpt lat="31.260738" lon="35.230474"><ele>597.7</ele><name>TP00142</name><time>2020-01-27T10:41:09Z</time></trkpt>
   <trkpt lat="31.260738" lon="35.230473"><ele>597.7</ele><name>TP00143</name><time>2020-01-27T10:41:10Z</time></trkpt>
   <trkpt lat="31.260743" lon="35.230459"><ele>597.7</ele><name>TP00144</name><time>2020-01-27T10:41:12Z</time></trkpt>
   <trkpt lat="31.260744" lon="35.230455"><ele>597.7</ele><name>TP00145</name><time>2020-01-27T10:41:14Z</time></trkpt>
   <trkpt lat="31.260744" lon="35.230455"><ele>597.7</ele><name>TP00146</name><time>2020-01-27T10:41:15Z</time></trkpt>
   <trkpt lat="31.260744" lon="35.230455"><ele>597.7</ele><name>TP00147</name><time>2020-01-27T10:41:17Z</time></trkpt>
   <trkpt lat="31.260744" lon="35.230455"><ele>597.7</ele><name>TP00148</name><time>2020-01-27T10:41:19Z</time></trkpt>
   <trkpt lat="31.260744" lon="35.230455"><ele>597.7</ele><name>TP00149</name><time>2020-01-27T10:41:21Z</time></trkpt>
   <trkpt lat="31.260744" lon="35.230455"><ele>597.7</ele><name>TP00150</name><time>2020-01-27T10:41:23Z</time></trkpt>
   <trkpt lat="31.260744" lon="35.230455"><ele>597.7</ele><name>TP00151</name><time>2020-01-27T10:41:24Z</time></trkpt>
   <trkpt lat="31.260744" lon="35.230455"><ele>597.7</ele><name>TP00152</name><time>2020-01-27T10:41:26Z</time></trkpt>
   <trkpt lat="31.260744" lon="35.230455"><ele>597.7</ele><name>TP00153</name><time>2020-01-27T10:41:28Z</time></trkpt>
   <trkpt lat="31.260744" lon="35.230455"><ele>597.7</ele><name>TP00154</name><time>2020-01-27T10:41:30Z</time></trkpt>
   <trkpt lat="31.260744" lon="35.230455"><ele>597.7</ele><name>TP00155</name><time>2020-01-27T10:41:31Z</time></trkpt>
   <trkpt lat="31.260744" lon="35.230455"><ele>597.7</ele><name>TP00156</name><time>2020-01-27T10:41:33Z</time></trkpt>
   <trkpt lat="31.260744" lon="35.230455"><ele>597.7</ele><name>TP00157</name><time>2020-01-27T10:41:34Z</time></trkpt>
   <trkpt lat="31.260744" lon="35.230455"><ele>597.7</ele><name>TP00158</name><time>2020-01-27T10:41:36Z</time></trkpt>
   <trkpt lat="31.260744" lon="35.230455"><ele>597.7</ele><name>TP00159</name><time>2020-01-27T10:41:37Z</time></trkpt>
   <trkpt lat="31.260744" lon="35.230455"><ele>597.7</ele><name>TP00160</name><time>2020-01-27T10:41:38Z</time></trkpt>
   <trkpt lat="31.260744" lon="35.230456"><ele>597.7</ele><name>TP00161</name><time>2020-01-27T10:41:40Z</time></trkpt>
   <trkpt lat="31.260744" lon="35.230456"><ele>597.7</ele><name>TP00162</name><time>2020-01-27T10:41:42Z</time></trkpt>
   <trkpt lat="31.260744" lon="35.230456"><ele>597.7</ele><name>TP00163</name><time>2020-01-27T10:41:44Z</time></trkpt>
   <trkpt lat="31.260744" lon="35.230456"><ele>597.7</ele><name>TP00164</name><time>2020-01-27T10:41:46Z</time></trkpt>
   <trkpt lat="31.260744" lon="35.230456"><ele>597.7</ele><name>TP00165</name><time>2020-01-27T10:41:48Z</time></trkpt>
   <trkpt lat="31.260744" lon="35.230456"><ele>597.7</ele><name>TP00166</name><time>2020-01-27T10:41:49Z</time></trkpt>
   <trkpt lat="31.260744" lon="35.230456"><ele>597.7</ele><name>TP00167</name><time>2020-01-27T10:41:50Z</time></trkpt>
   <trkpt lat="31.260744" lon="35.230456"><ele>597.7</ele><name>TP00168</name><time>2020-01-27T10:41:52Z</time></trkpt>
   <trkpt lat="31.260744" lon="35.230456"><ele>597.7</ele><name>TP00169</name><time>2020-01-27T10:41:54Z</time></trkpt>
   <trkpt lat="31.260744" lon="35.230456"><ele>597.7</ele><name>TP00170</name><time>2020-01-27T10:41:56Z</time></trkpt>
   <trkpt lat="31.260744" lon="35.230456"><ele>597.7</ele><name>TP00171</name><time>2020-01-27T10:41:58Z</time></trkpt>
   <trkpt lat="31.260744" lon="35.230456"><ele>597.7</ele><name>TP00172</name><time>2020-01-27T10:41:59Z</time></trkpt>
   <trkpt lat="31.260744" lon="35.230456"><ele>597.7</ele><name>TP00173</name><time>2020-01-27T10:42:01Z</time></trkpt>
   <trkpt lat="31.260744" lon="35.230456"><ele>597.7</ele><name>TP00174</name><time>2020-01-27T10:42:02Z</time></trkpt>
   <trkpt lat="31.260744" lon="35.230456"><ele>597.7</ele><name>TP00175</name><time>2020-01-27T10:42:03Z</time></trkpt>
   <trkpt lat="31.260744" lon="35.230456"><ele>597.7</ele><name>TP00176</name><time>2020-01-27T10:42:05Z</time></trkpt>
   <trkpt lat="31.260744" lon="35.230456"><ele>597.7</ele><name>TP00177</name><time>2020-01-27T10:42:06Z</time></trkpt>
   <trkpt lat="31.260744" lon="35.230456"><ele>597.7</ele><name>TP00178</name><time>2020-01-27T10:42:08Z</time></trkpt>
   <trkpt lat="31.260744" lon="35.230456"><ele>597.7</ele><name>TP00179</name><time>2020-01-27T10:42:10Z</time></trkpt>
   <trkpt lat="31.260744" lon="35.230456"><ele>597.7</ele><name>TP00180</name><time>2020-01-27T10:42:12Z</time></trkpt>
   <trkpt lat="31.260744" lon="35.230457"><ele>597.7</ele><name>TP00181</name><time>2020-01-27T10:42:14Z</time></trkpt>
   <trkpt lat="31.260744" lon="35.230457"><ele>597.7</ele><name>TP00182</name><time>2020-01-27T10:42:15Z</time></trkpt>
   <trkpt lat="31.260744" lon="35.230457"><ele>597.7</ele><name>TP00183</name><time>2020-01-27T10:42:16Z</time></trkpt>
   <trkpt lat="31.260744" lon="35.230457"><ele>597.7</ele><name>TP00184</name><time>2020-01-27T10:42:17Z</time></trkpt>
   <trkpt lat="31.260744" lon="35.230457"><ele>597.7</ele><name>TP00185</name><time>2020-01-27T10:42:18Z</time></trkpt>
   <trkpt lat="31.260744" lon="35.230457"><ele>597.7</ele><name>TP00186</name><time>2020-01-27T10:42:19Z</time></trkpt>
   <trkpt lat="31.260744" lon="35.230456"><ele>597.7</ele><name>TP00187</name><time>2020-01-27T10:42:21Z</time></trkpt>
   <trkpt lat="31.260744" lon="35.230456"><ele>597.7</ele><name>TP00188</name><time>2020-01-27T10:42:23Z</time></trkpt>
   <trkpt lat="31.260744" lon="35.230456"><ele>597.7</ele><name>TP00189</name><time>2020-01-27T10:42:25Z</time></trkpt>
   <trkpt lat="31.260744" lon="35.230456"><ele>597.7</ele><name>TP00190</name><time>2020-01-27T10:42:26Z</time></trkpt>
   <trkpt lat="31.260743" lon="35.230456"><ele>597.7</ele><name>TP00191</name><time>2020-01-27T10:42:28Z</time></trkpt>
   <trkpt lat="31.260742" lon="35.230456"><ele>597.7</ele><name>TP00192</name><time>2020-01-27T10:42:30Z</time></trkpt>
   <trkpt lat="31.260741" lon="35.230454"><ele>597.7</ele><name>TP00193</name><time>2020-01-27T10:42:31Z</time></trkpt>
   <trkpt lat="31.26074" lon="35.230453"><ele>597.7</ele><name>TP00194</name><time>2020-01-27T10:42:33Z</time></trkpt>
   <trkpt lat="31.260738" lon="35.230452"><ele>597.7</ele><name>TP00195</name><time>2020-01-27T10:42:34Z</time></trkpt>
   <trkpt lat="31.260734" lon="35.23045"><ele>597.7</ele><name>TP00196</name><time>2020-01-27T10:42:35Z</time></trkpt>
   <trkpt lat="31.260735" lon="35.230448"><ele>597.7</ele><name>TP00197</name><time>2020-01-27T10:42:37Z</time></trkpt>
   <trkpt lat="31.260734" lon="35.230447"><ele>597.7</ele><name>TP00198</name><time>2020-01-27T10:42:39Z</time></trkpt>
   <trkpt lat="31.260736" lon="35.230441"><ele>597.7</ele><name>TP00199</name><time>2020-01-27T10:42:40Z</time></trkpt>
   <trkpt lat="31.260742" lon="35.230422"><ele>597.7</ele><name>TP00200</name><time>2020-01-27T10:42:42Z</time></trkpt>
   <trkpt lat="31.260747" lon="35.23041"><ele>597.7</ele><name>TP00201</name><time>2020-01-27T10:42:44Z</time></trkpt>
   <trkpt lat="31.260748" lon="35.230409"><ele>597.7</ele><name>TP00202</name><time>2020-01-27T10:42:46Z</time></trkpt>
   <trkpt lat="31.260748" lon="35.23041"><ele>597.7</ele><name>TP00203</name><time>2020-01-27T10:42:47Z</time></trkpt>
   <trkpt lat="31.260748" lon="35.230412"><ele>597.7</ele><name>TP00204</name><time>2020-01-27T10:42:48Z</time></trkpt>
   <trkpt lat="31.260758" lon="35.230386"><ele>597.7</ele><name>TP00205</name><time>2020-01-27T10:42:50Z</time></trkpt>
   <trkpt lat="31.26077" lon="35.230353"><ele>597.7</ele><name>TP00206</name><time>2020-01-27T10:42:52Z</time></trkpt>
   <trkpt lat="31.260771" lon="35.230349"><ele>597.7</ele><name>TP00207</name><time>2020-01-27T10:42:53Z</time></trkpt>
   <trkpt lat="31.260769" lon="35.23035"><ele>597.7</ele><name>TP00208</name><time>2020-01-27T10:42:55Z</time></trkpt>
   <trkpt lat="31.260734" lon="35.230445"><ele>597.7</ele><name>TP00209</name><time>2020-01-27T10:42:57Z</time></trkpt>
   <trkpt lat="31.26073" lon="35.230458"><ele>597.7</ele><name>TP00210</name><time>2020-01-27T10:42:58Z</time></trkpt>
   <trkpt lat="31.26073" lon="35.230458"><ele>597.7</ele><name>TP00211</name><time>2020-01-27T10:42:59Z</time></trkpt>
   <trkpt lat="31.260731" lon="35.230454"><ele>597.7</ele><name>TP00212</name><time>2020-01-27T10:43:01Z</time></trkpt>
   <trkpt lat="31.260732" lon="35.230453"><ele>597.7</ele><name>TP00213</name><time>2020-01-27T10:43:03Z</time></trkpt>
   <trkpt lat="31.260731" lon="35.230453"><ele>597.7</ele><name>TP00214</name><time>2020-01-27T10:43:05Z</time></trkpt>
   <trkpt lat="31.260731" lon="35.230453"><ele>597.7</ele><name>TP00215</name><time>2020-01-27T10:43:06Z</time></trkpt>
   <trkpt lat="31.260731" lon="35.230453"><ele>597.7</ele><name>TP00216</name><time>2020-01-27T10:43:08Z</time></trkpt>
   <trkpt lat="31.260731" lon="35.230453"><ele>597.7</ele><name>TP00217</name><time>2020-01-27T10:43:09Z</time></trkpt>
   <trkpt lat="31.260731" lon="35.230453"><ele>597.7</ele><name>TP00218</name><time>2020-01-27T10:43:10Z</time></trkpt>
   <trkpt lat="31.260731" lon="35.230454"><ele>597.7</ele><name>TP00219</name><time>2020-01-27T10:43:12Z</time></trkpt>
   <trkpt lat="31.260731" lon="35.230455"><ele>597.7</ele><name>TP00220</name><time>2020-01-27T10:43:14Z</time></trkpt>
   <trkpt lat="31.260731" lon="35.230455"><ele>597.7</ele><name>TP00221</name><time>2020-01-27T10:43:15Z</time></trkpt>
   <trkpt lat="31.260731" lon="35.230455"><ele>597.7</ele><name>TP00222</name><time>2020-01-27T10:43:17Z</time></trkpt>
   <trkpt lat="31.260731" lon="35.230455"><ele>597.7</ele><name>TP00223</name><time>2020-01-27T10:43:19Z</time></trkpt>
   <trkpt lat="31.260731" lon="35.230455"><ele>597.7</ele><name>TP00224</name><time>2020-01-27T10:43:20Z</time></trkpt>
   <trkpt lat="31.260731" lon="35.230455"><ele>597.7</ele><name>TP00225</name><time>2020-01-27T10:43:22Z</time></trkpt>
   <trkpt lat="31.26073" lon="35.230455"><ele>597.7</ele><name>TP00226</name><time>2020-01-27T10:43:23Z</time></trkpt>
   <trkpt lat="31.26073" lon="35.230455"><ele>597.7</ele><name>TP00227</name><time>2020-01-27T10:43:24Z</time></trkpt>
   <trkpt lat="31.26073" lon="35.230455"><ele>597.7</ele><name>TP00228</name><time>2020-01-27T10:43:26Z</time></trkpt>
   <trkpt lat="31.26073" lon="35.230455"><ele>597.7</ele><name>TP00229</name><time>2020-01-27T10:43:27Z</time></trkpt>
   <trkpt lat="31.26073" lon="35.230455"><ele>597.7</ele><name>TP00230</name><time>2020-01-27T10:43:29Z</time></trkpt>
   <trkpt lat="31.26073" lon="35.230455"><ele>597.7</ele><name>TP00231</name><time>2020-01-27T10:43:31Z</time></trkpt>
   <trkpt lat="31.26073" lon="35.230455"><ele>597.7</ele><name>TP00232</name><time>2020-01-27T10:43:32Z</time></trkpt>
   <trkpt lat="31.26073" lon="35.230455"><ele>597.7</ele><name>TP00233</name><time>2020-01-27T10:43:33Z</time></trkpt>
   <trkpt lat="31.26073" lon="35.230455"><ele>597.7</ele><name>TP00234</name><time>2020-01-27T10:43:35Z</time></trkpt>
   <trkpt lat="31.26073" lon="35.230455"><ele>597.7</ele><name>TP00235</name><time>2020-01-27T10:43:36Z</time></trkpt>
   <trkpt lat="31.26073" lon="35.230455"><ele>597.7</ele><name>TP00236</name><time>2020-01-27T10:43:37Z</time></trkpt>
   <trkpt lat="31.26073" lon="35.230455"><ele>597.7</ele><name>TP00237</name><time>2020-01-27T10:43:38Z</time></trkpt>
   <trkpt lat="31.260729" lon="35.230455"><ele>597.7</ele><name>TP00238</name><time>2020-01-27T10:43:40Z</time></trkpt>
   <trkpt lat="31.260729" lon="35.230455"><ele>597.7</ele><name>TP00239</name><time>2020-01-27T10:43:42Z</time></trkpt>
   <trkpt lat="31.260729" lon="35.230455"><ele>597.7</ele><name>TP00240</name><time>2020-01-27T10:43:44Z</time></trkpt>
   <trkpt lat="31.260729" lon="35.230455"><ele>597.7</ele><name>TP00241</name><time>2020-01-27T10:43:45Z</time></trkpt>
   <trkpt lat="31.260729" lon="35.230455"><ele>597.7</ele><name>TP00242</name><time>2020-01-27T10:43:46Z</time></trkpt>
   <trkpt lat="31.260729" lon="35.230455"><ele>597.7</ele><name>TP00243</name><time>2020-01-27T10:43:48Z</time></trkpt>
   <trkpt lat="31.260729" lon="35.230454"><ele>597.7</ele><name>TP00244</name><time>2020-01-27T10:43:49Z</time></trkpt>
   <trkpt lat="31.260729" lon="35.230454"><ele>597.7</ele><name>TP00245</name><time>2020-01-27T10:43:50Z</time></trkpt>
   <trkpt lat="31.260728" lon="35.230454"><ele>597.7</ele><name>TP00246</name><time>2020-01-27T10:43:51Z</time></trkpt>
   <trkpt lat="31.260728" lon="35.230454"><ele>597.7</ele><name>TP00247</name><time>2020-01-27T10:43:53Z</time></trkpt>
   <trkpt lat="31.260728" lon="35.230454"><ele>597.7</ele><name>TP00248</name><time>2020-01-27T10:43:54Z</time></trkpt>
   <trkpt lat="31.260728" lon="35.230453"><ele>597.7</ele><name>TP00249</name><time>2020-01-27T10:43:56Z</time></trkpt>
   <trkpt lat="31.260728" lon="35.230451"><ele>597.7</ele><name>TP00250</name><time>2020-01-27T10:43:58Z</time></trkpt>
   <trkpt lat="31.260728" lon="35.230451"><ele>597.7</ele><name>TP00251</name><time>2020-01-27T10:43:59Z</time></trkpt>
   <trkpt lat="31.260727" lon="35.230449"><ele>597.7</ele><name>TP00252</name><time>2020-01-27T10:44:01Z</time></trkpt>
   <trkpt lat="31.260715" lon="35.230446"><ele>597.7</ele><name>TP00253</name><time>2020-01-27T10:44:02Z</time></trkpt>
   <trkpt lat="31.260686" lon="35.230425"><ele>597.7</ele><name>TP00254</name><time>2020-01-27T10:44:04Z</time></trkpt>
   <trkpt lat="31.260651" lon="35.230409"><ele>597.5</ele><name>TP00255</name><time>2020-01-27T10:44:06Z</time></trkpt>
   <trkpt lat="31.26063" lon="35.230408"><ele>597.6</ele><name>TP00256</name><time>2020-01-27T10:44:07Z</time></trkpt>
   <trkpt lat="31.260595" lon="35.230409"><ele>597.7</ele><name>TP00257</name><time>2020-01-27T10:44:09Z</time></trkpt>
   <trkpt lat="31.260563" lon="35.230395"><ele>597.8</ele><name>TP00258</name><time>2020-01-27T10:44:11Z</time></trkpt>
   <trkpt lat="31.260546" lon="35.230394"><ele>597.8</ele><name>TP00259</name><time>2020-01-27T10:44:12Z</time></trkpt>
   <trkpt lat="31.260503" lon="35.230397"><ele>598</ele><name>TP00260</name><time>2020-01-27T10:44:13Z</time></trkpt>
   <trkpt lat="31.260456" lon="35.230404"><ele>598.1</ele><name>TP00261</name><time>2020-01-27T10:44:15Z</time></trkpt>
   <trkpt lat="31.260412" lon="35.230396"><ele>598.1</ele><name>TP00262</name><time>2020-01-27T10:44:16Z</time></trkpt>
   <trkpt lat="31.260378" lon="35.230396"><ele>598.1</ele><name>TP00263</name><time>2020-01-27T10:44:17Z</time></trkpt>
   <trkpt lat="31.260331" lon="35.230395"><ele>598.2</ele><name>TP00264</name><time>2020-01-27T10:44:18Z</time></trkpt>
   <trkpt lat="31.26028" lon="35.230391"><ele>598.1</ele><name>TP00265</name><time>2020-01-27T10:44:20Z</time></trkpt>
   <trkpt lat="31.260219" lon="35.230379"><ele>598</ele><name>TP00266</name><time>2020-01-27T10:44:21Z</time></trkpt>
   <trkpt lat="31.260184" lon="35.230377"><ele>597.9</ele><name>TP00267</name><time>2020-01-27T10:44:22Z</time></trkpt>
   <trkpt lat="31.260131" lon="35.230375"><ele>597.8</ele><name>TP00268</name><time>2020-01-27T10:44:24Z</time></trkpt>
   <trkpt lat="31.260091" lon="35.230369"><ele>597.6</ele><name>TP00269</name><time>2020-01-27T10:44:25Z</time></trkpt>
   <trkpt lat="31.260044" lon="35.230362"><ele>597.5</ele><name>TP00270</name><time>2020-01-27T10:44:26Z</time></trkpt>
   <trkpt lat="31.25999" lon="35.230355"><ele>597.4</ele><name>TP00271</name><time>2020-01-27T10:44:27Z</time></trkpt>
   <trkpt lat="31.259935" lon="35.230346"><ele>597.2</ele><name>TP00272</name><time>2020-01-27T10:44:29Z</time></trkpt>
   <trkpt lat="31.259888" lon="35.230333"><ele>597.1</ele><name>TP00273</name><time>2020-01-27T10:44:30Z</time></trkpt>
   <trkpt lat="31.259829" lon="35.230314"><ele>597</ele><name>TP00274</name><time>2020-01-27T10:44:31Z</time></trkpt>
   <trkpt lat="31.259768" lon="35.230286"><ele>596.8</ele><name>TP00275</name><time>2020-01-27T10:44:33Z</time></trkpt>
   <trkpt lat="31.259718" lon="35.230269"><ele>596.6</ele><name>TP00276</name><time>2020-01-27T10:44:34Z</time></trkpt>
   <trkpt lat="31.259674" lon="35.230261"><ele>596.4</ele><name>TP00277</name><time>2020-01-27T10:44:35Z</time></trkpt>
   <trkpt lat="31.25961" lon="35.230254"><ele>596.1</ele><name>TP00278</name><time>2020-01-27T10:44:36Z</time></trkpt>
   <trkpt lat="31.259567" lon="35.230252"><ele>595.9</ele><name>TP00279</name><time>2020-01-27T10:44:37Z</time></trkpt>
   <trkpt lat="31.259508" lon="35.230248"><ele>595.7</ele><name>TP00280</name><time>2020-01-27T10:44:39Z</time></trkpt>
   <trkpt lat="31.259456" lon="35.230248"><ele>595.5</ele><name>TP00281</name><time>2020-01-27T10:44:40Z</time></trkpt>
   <trkpt lat="31.259398" lon="35.230247"><ele>595.3</ele><name>TP00282</name><time>2020-01-27T10:44:41Z</time></trkpt>
   <trkpt lat="31.259266" lon="35.230242"><ele>594.8</ele><name>TP00283</name><time>2020-01-27T10:44:43Z</time></trkpt>
   <trkpt lat="31.259168" lon="35.230228"><ele>594.4</ele><name>TP00284</name><time>2020-01-27T10:44:45Z</time></trkpt>
   <trkpt lat="31.259097" lon="35.230222"><ele>594.2</ele><name>TP00285</name><time>2020-01-27T10:44:47Z</time></trkpt>
   <trkpt lat="31.259059" lon="35.230203"><ele>594.1</ele><name>TP00286</name><time>2020-01-27T10:44:48Z</time></trkpt>
   <trkpt lat="31.25899" lon="35.230218"><ele>594.2</ele><name>TP00287</name><time>2020-01-27T10:44:50Z</time></trkpt>
   <trkpt lat="31.258951" lon="35.230214"><ele>594.4</ele><name>TP00288</name><time>2020-01-27T10:44:51Z</time></trkpt>
   <trkpt lat="31.258896" lon="35.2302"><ele>594.6</ele><name>TP00289</name><time>2020-01-27T10:44:53Z</time></trkpt>
   <trkpt lat="31.258846" lon="35.230181"><ele>594.8</ele><name>TP00290</name><time>2020-01-27T10:44:54Z</time></trkpt>
   <trkpt lat="31.258802" lon="35.23017"><ele>595</ele><name>TP00291</name><time>2020-01-27T10:44:55Z</time></trkpt>
   <trkpt lat="31.258764" lon="35.230163"><ele>595.1</ele><name>TP00292</name><time>2020-01-27T10:44:56Z</time></trkpt>
   <trkpt lat="31.258707" lon="35.230161"><ele>595.3</ele><name>TP00293</name><time>2020-01-27T10:44:58Z</time></trkpt>
   <trkpt lat="31.25867" lon="35.230151"><ele>595.5</ele><name>TP00294</name><time>2020-01-27T10:44:59Z</time></trkpt>
   <trkpt lat="31.258623" lon="35.230137"><ele>595.7</ele><name>TP00295</name><time>2020-01-27T10:45:00Z</time></trkpt>
   <trkpt lat="31.25858" lon="35.230129"><ele>596</ele><name>TP00296</name><time>2020-01-27T10:45:02Z</time></trkpt>
   <trkpt lat="31.258551" lon="35.230122"><ele>596.1</ele><name>TP00297</name><time>2020-01-27T10:45:03Z</time></trkpt>
   <trkpt lat="31.258513" lon="35.23011"><ele>596.7</ele><name>TP00298</name><time>2020-01-27T10:45:04Z</time></trkpt>
   <trkpt lat="31.258461" lon="35.230098"><ele>596.9</ele><name>TP00299</name><time>2020-01-27T10:45:05Z</time></trkpt>
   <trkpt lat="31.25842" lon="35.230082"><ele>597</ele><name>TP00300</name><time>2020-01-27T10:45:07Z</time></trkpt>
   <trkpt lat="31.258385" lon="35.230069"><ele>597.1</ele><name>TP00301</name><time>2020-01-27T10:45:08Z</time></trkpt>
   <trkpt lat="31.258345" lon="35.230057"><ele>597.3</ele><name>TP00302</name><time>2020-01-27T10:45:09Z</time></trkpt>
   <trkpt lat="31.25831" lon="35.230051"><ele>597.5</ele><name>TP00303</name><time>2020-01-27T10:45:10Z</time></trkpt>
   <trkpt lat="31.258236" lon="35.230027"><ele>597.7</ele><name>TP00304</name><time>2020-01-27T10:45:12Z</time></trkpt>
   <trkpt lat="31.258187" lon="35.230012"><ele>597.8</ele><name>TP00305</name><time>2020-01-27T10:45:13Z</time></trkpt>
   <trkpt lat="31.258124" lon="35.229998"><ele>597.9</ele><name>TP00306</name><time>2020-01-27T10:45:15Z</time></trkpt>
   <trkpt lat="31.25807" lon="35.22998"><ele>598.1</ele><name>TP00307</name><time>2020-01-27T10:45:17Z</time></trkpt>
   <trkpt lat="31.258032" lon="35.229976"><ele>598.1</ele><name>TP00308</name><time>2020-01-27T10:45:18Z</time></trkpt>
   <trkpt lat="31.257997" lon="35.229972"><ele>598.2</ele><name>TP00309</name><time>2020-01-27T10:45:19Z</time></trkpt>
   <trkpt lat="31.25796" lon="35.229957"><ele>598.3</ele><name>TP00310</name><time>2020-01-27T10:45:20Z</time></trkpt>
   <trkpt lat="31.257913" lon="35.229943"><ele>598.4</ele><name>TP00311</name><time>2020-01-27T10:45:22Z</time></trkpt>
   <trkpt lat="31.25787" lon="35.22993"><ele>598.5</ele><name>TP00312</name><time>2020-01-27T10:45:23Z</time></trkpt>
   <trkpt lat="31.257835" lon="35.229917"><ele>598.5</ele><name>TP00313</name><time>2020-01-27T10:45:24Z</time></trkpt>
   <trkpt lat="31.257775" lon="35.229899"><ele>598.6</ele><name>TP00314</name><time>2020-01-27T10:45:26Z</time></trkpt>
   <trkpt lat="31.257742" lon="35.229885"><ele>598.6</ele><name>TP00315</name><time>2020-01-27T10:45:27Z</time></trkpt>
   <trkpt lat="31.257714" lon="35.229874"><ele>598.6</ele><name>TP00316</name><time>2020-01-27T10:45:28Z</time></trkpt>
   <trkpt lat="31.257666" lon="35.229847"><ele>598.6</ele><name>TP00317</name><time>2020-01-27T10:45:30Z</time></trkpt>
   <trkpt lat="31.257625" lon="35.229828"><ele>598.6</ele><name>TP00318</name><time>2020-01-27T10:45:31Z</time></trkpt>
   <trkpt lat="31.257582" lon="35.229811"><ele>598.6</ele><name>TP00319</name><time>2020-01-27T10:45:33Z</time></trkpt>
   <trkpt lat="31.257551" lon="35.229794"><ele>598.7</ele><name>TP00320</name><time>2020-01-27T10:45:34Z</time></trkpt>
   <trkpt lat="31.257516" lon="35.229775"><ele>598.7</ele><name>TP00321</name><time>2020-01-27T10:45:35Z</time></trkpt>
   <trkpt lat="31.257482" lon="35.22976"><ele>598.7</ele><name>TP00322</name><time>2020-01-27T10:45:36Z</time></trkpt>
   <trkpt lat="31.257435" lon="35.229745"><ele>598.8</ele><name>TP00323</name><time>2020-01-27T10:45:38Z</time></trkpt>
   <trkpt lat="31.257403" lon="35.229728"><ele>598.9</ele><name>TP00324</name><time>2020-01-27T10:45:39Z</time></trkpt>
   <trkpt lat="31.257373" lon="35.229711"><ele>599</ele><name>TP00325</name><time>2020-01-27T10:45:40Z</time></trkpt>
   <trkpt lat="31.257343" lon="35.229692"><ele>599.2</ele><name>TP00326</name><time>2020-01-27T10:45:41Z</time></trkpt>
   <trkpt lat="31.257314" lon="35.229679"><ele>599.4</ele><name>TP00327</name><time>2020-01-27T10:45:42Z</time></trkpt>
   <trkpt lat="31.257288" lon="35.229667"><ele>599.5</ele><name>TP00328</name><time>2020-01-27T10:45:43Z</time></trkpt>
   <trkpt lat="31.257262" lon="35.229649"><ele>599.8</ele><name>TP00329</name><time>2020-01-27T10:45:44Z</time></trkpt>
   <trkpt lat="31.257232" lon="35.229623"><ele>600.1</ele><name>TP00330</name><time>2020-01-27T10:45:46Z</time></trkpt>
   <trkpt lat="31.257206" lon="35.229608"><ele>600.2</ele><name>TP00331</name><time>2020-01-27T10:45:47Z</time></trkpt>
   <trkpt lat="31.257176" lon="35.229585"><ele>600.5</ele><name>TP00332</name><time>2020-01-27T10:45:48Z</time></trkpt>
   <trkpt lat="31.25714" lon="35.229569"><ele>600.7</ele><name>TP00333</name><time>2020-01-27T10:45:50Z</time></trkpt>
   <trkpt lat="31.257102" lon="35.229559"><ele>600.9</ele><name>TP00334</name><time>2020-01-27T10:45:51Z</time></trkpt>
   <trkpt lat="31.257071" lon="35.229545"><ele>601</ele><name>TP00335</name><time>2020-01-27T10:45:52Z</time></trkpt>
   <trkpt lat="31.257047" lon="35.22953"><ele>601.1</ele><name>TP00336</name><time>2020-01-27T10:45:53Z</time></trkpt>
   <trkpt lat="31.256994" lon="35.229507"><ele>601.3</ele><name>TP00337</name><time>2020-01-27T10:45:55Z</time></trkpt>
   <trkpt lat="31.256941" lon="35.229492"><ele>601.4</ele><name>TP00338</name><time>2020-01-27T10:45:57Z</time></trkpt>
   <trkpt lat="31.25692" lon="35.229486"><ele>601.5</ele><name>TP00339</name><time>2020-01-27T10:45:58Z</time></trkpt>
   <trkpt lat="31.2569" lon="35.22948"><ele>601.5</ele><name>TP00340</name><time>2020-01-27T10:45:59Z</time></trkpt>
   <trkpt lat="31.256873" lon="35.229468"><ele>601.6</ele><name>TP00341</name><time>2020-01-27T10:46:00Z</time></trkpt>
   <trkpt lat="31.256843" lon="35.229459"><ele>601.7</ele><name>TP00342</name><time>2020-01-27T10:46:02Z</time></trkpt>
   <trkpt lat="31.256799" lon="35.229446"><ele>601.8</ele><name>TP00343</name><time>2020-01-27T10:46:03Z</time></trkpt>
   <trkpt lat="31.256769" lon="35.229446"><ele>601.8</ele><name>TP00344</name><time>2020-01-27T10:46:04Z</time></trkpt>
   <trkpt lat="31.256739" lon="35.229446"><ele>601.9</ele><name>TP00345</name><time>2020-01-27T10:46:05Z</time></trkpt>
   <trkpt lat="31.256713" lon="35.229438"><ele>601.9</ele><name>TP00346</name><time>2020-01-27T10:46:06Z</time></trkpt>
   <trkpt lat="31.256675" lon="35.229432"><ele>602</ele><name>TP00347</name><time>2020-01-27T10:46:08Z</time></trkpt>
   <trkpt lat="31.256646" lon="35.229427"><ele>602</ele><name>TP00348</name><time>2020-01-27T10:46:09Z</time></trkpt>
   <trkpt lat="31.256618" lon="35.229418"><ele>602.1</ele><name>TP00349</name><time>2020-01-27T10:46:10Z</time></trkpt>
   <trkpt lat="31.25657" lon="35.229416"><ele>602.2</ele><name>TP00350</name><time>2020-01-27T10:46:11Z</time></trkpt>
   <trkpt lat="31.256529" lon="35.229411"><ele>602.3</ele><name>TP00351</name><time>2020-01-27T10:46:13Z</time></trkpt>
   <trkpt lat="31.256488" lon="35.229405"><ele>602.4</ele><name>TP00352</name><time>2020-01-27T10:46:14Z</time></trkpt>
   <trkpt lat="31.256461" lon="35.229402"><ele>602.4</ele><name>TP00353</name><time>2020-01-27T10:46:15Z</time></trkpt>
   <trkpt lat="31.256428" lon="35.229395"><ele>602.5</ele><name>TP00354</name><time>2020-01-27T10:46:16Z</time></trkpt>
   <trkpt lat="31.256381" lon="35.229391"><ele>602.6</ele><name>TP00355</name><time>2020-01-27T10:46:18Z</time></trkpt>
   <trkpt lat="31.256346" lon="35.229391"><ele>602.7</ele><name>TP00356</name><time>2020-01-27T10:46:19Z</time></trkpt>
   <trkpt lat="31.256319" lon="35.229391"><ele>602.8</ele><name>TP00357</name><time>2020-01-27T10:46:20Z</time></trkpt>
   <trkpt lat="31.256262" lon="35.229388"><ele>602.9</ele><name>TP00358</name><time>2020-01-27T10:46:22Z</time></trkpt>
   <trkpt lat="31.256218" lon="35.22939"><ele>603</ele><name>TP00359</name><time>2020-01-27T10:46:24Z</time></trkpt>
   <trkpt lat="31.256177" lon="35.229391"><ele>603</ele><name>TP00360</name><time>2020-01-27T10:46:25Z</time></trkpt>
   <trkpt lat="31.256146" lon="35.229392"><ele>603</ele><name>TP00361</name><time>2020-01-27T10:46:26Z</time></trkpt>
   <trkpt lat="31.256114" lon="35.229392"><ele>603</ele><name>TP00362</name><time>2020-01-27T10:46:27Z</time></trkpt>
   <trkpt lat="31.256076" lon="35.229396"><ele>602.9</ele><name>TP00363</name><time>2020-01-27T10:46:28Z</time></trkpt>
   <trkpt lat="31.256041" lon="35.229397"><ele>602.8</ele><name>TP00364</name><time>2020-01-27T10:46:30Z</time></trkpt>
   <trkpt lat="31.256011" lon="35.229401"><ele>602.8</ele><name>TP00365</name><time>2020-01-27T10:46:31Z</time></trkpt>
   <trkpt lat="31.25598" lon="35.229405"><ele>602.7</ele><name>TP00366</name><time>2020-01-27T10:46:32Z</time></trkpt>
   <trkpt lat="31.255946" lon="35.22941"><ele>602.5</ele><name>TP00367</name><time>2020-01-27T10:46:33Z</time></trkpt>
   <trkpt lat="31.255891" lon="35.22942"><ele>602.3</ele><name>TP00368</name><time>2020-01-27T10:46:35Z</time></trkpt>
   <trkpt lat="31.255856" lon="35.229424"><ele>602.2</ele><name>TP00369</name><time>2020-01-27T10:46:36Z</time></trkpt>
   <trkpt lat="31.255827" lon="35.229419"><ele>602.1</ele><name>TP00370</name><time>2020-01-27T10:46:37Z</time></trkpt>
   <trkpt lat="31.255768" lon="35.229425"><ele>602</ele><name>TP00371</name><time>2020-01-27T10:46:39Z</time></trkpt>
   <trkpt lat="31.255736" lon="35.229436"><ele>602.1</ele><name>TP00372</name><time>2020-01-27T10:46:41Z</time></trkpt>
   <trkpt lat="31.255696" lon="35.229441"><ele>602.1</ele><name>TP00373</name><time>2020-01-27T10:46:42Z</time></trkpt>
   <trkpt lat="31.255658" lon="35.22945"><ele>602.1</ele><name>TP00374</name><time>2020-01-27T10:46:43Z</time></trkpt>
   <trkpt lat="31.255608" lon="35.22947"><ele>602.2</ele><name>TP00375</name><time>2020-01-27T10:46:45Z</time></trkpt>
   <trkpt lat="31.255578" lon="35.229481"><ele>602.3</ele><name>TP00376</name><time>2020-01-27T10:46:46Z</time></trkpt>
   <trkpt lat="31.255549" lon="35.229488"><ele>602.3</ele><name>TP00377</name><time>2020-01-27T10:46:47Z</time></trkpt>
   <trkpt lat="31.255508" lon="35.229504"><ele>602.4</ele><name>TP00378</name><time>2020-01-27T10:46:49Z</time></trkpt>
   <trkpt lat="31.255471" lon="35.229524"><ele>602.4</ele><name>TP00379</name><time>2020-01-27T10:46:50Z</time></trkpt>
   <trkpt lat="31.255436" lon="35.229547"><ele>602.4</ele><name>TP00380</name><time>2020-01-27T10:46:52Z</time></trkpt>
   <trkpt lat="31.255392" lon="35.229569"><ele>602.5</ele><name>TP00381</name><time>2020-01-27T10:46:53Z</time></trkpt>
   <trkpt lat="31.255355" lon="35.229582"><ele>602.5</ele><name>TP00382</name><time>2020-01-27T10:46:54Z</time></trkpt>
   <trkpt lat="31.255317" lon="35.229596"><ele>602.5</ele><name>TP00383</name><time>2020-01-27T10:46:56Z</time></trkpt>
   <trkpt lat="31.255282" lon="35.229608"><ele>602.6</ele><name>TP00384</name><time>2020-01-27T10:46:57Z</time></trkpt>
   <trkpt lat="31.255242" lon="35.229625"><ele>602.6</ele><name>TP00385</name><time>2020-01-27T10:46:58Z</time></trkpt>
   <trkpt lat="31.255213" lon="35.229647"><ele>602.6</ele><name>TP00386</name><time>2020-01-27T10:46:59Z</time></trkpt>
   <trkpt lat="31.255168" lon="35.229674"><ele>602.7</ele><name>TP00387</name><time>2020-01-27T10:47:01Z</time></trkpt>
   <trkpt lat="31.255131" lon="35.229692"><ele>602.7</ele><name>TP00388</name><time>2020-01-27T10:47:02Z</time></trkpt>
   <trkpt lat="31.255102" lon="35.229709"><ele>602.7</ele><name>TP00389</name><time>2020-01-27T10:47:03Z</time></trkpt>
   <trkpt lat="31.255075" lon="35.229726"><ele>602.7</ele><name>TP00390</name><time>2020-01-27T10:47:04Z</time></trkpt>
   <trkpt lat="31.255033" lon="35.229745"><ele>602.8</ele><name>TP00391</name><time>2020-01-27T10:47:06Z</time></trkpt>
   <trkpt lat="31.254984" lon="35.229774"><ele>602.8</ele><name>TP00392</name><time>2020-01-27T10:47:07Z</time></trkpt>
   <trkpt lat="31.254953" lon="35.2298"><ele>602.8</ele><name>TP00393</name><time>2020-01-27T10:47:08Z</time></trkpt>
   <trkpt lat="31.254925" lon="35.229819"><ele>602.8</ele><name>TP00394</name><time>2020-01-27T10:47:09Z</time></trkpt>
   <trkpt lat="31.254875" lon="35.229846"><ele>602.8</ele><name>TP00395</name><time>2020-01-27T10:47:11Z</time></trkpt>
   <trkpt lat="31.254837" lon="35.229878"><ele>602.8</ele><name>TP00396</name><time>2020-01-27T10:47:12Z</time></trkpt>
   <trkpt lat="31.254781" lon="35.229935"><ele>602.8</ele><name>TP00397</name><time>2020-01-27T10:47:14Z</time></trkpt>
   <trkpt lat="31.254753" lon="35.22996"><ele>602.8</ele><name>TP00398</name><time>2020-01-27T10:47:15Z</time></trkpt>
   <trkpt lat="31.254721" lon="35.22999"><ele>602.8</ele><name>TP00399</name><time>2020-01-27T10:47:16Z</time></trkpt>
   <trkpt lat="31.254672" lon="35.230038"><ele>602.8</ele><name>TP00400</name><time>2020-01-27T10:47:18Z</time></trkpt>
   <trkpt lat="31.25464" lon="35.230069"><ele>602.7</ele><name>TP00401</name><time>2020-01-27T10:47:19Z</time></trkpt>
   <trkpt lat="31.254599" lon="35.230111"><ele>602.7</ele><name>TP00402</name><time>2020-01-27T10:47:20Z</time></trkpt>
   <trkpt lat="31.254572" lon="35.230135"><ele>602.7</ele><name>TP00403</name><time>2020-01-27T10:47:21Z</time></trkpt>
   <trkpt lat="31.254548" lon="35.230167"><ele>602.7</ele><name>TP00404</name><time>2020-01-27T10:47:22Z</time></trkpt>
   <trkpt lat="31.254522" lon="35.230223"><ele>602.6</ele><name>TP00405</name><time>2020-01-27T10:47:24Z</time></trkpt>
   <trkpt lat="31.254511" lon="35.230256"><ele>602.6</ele><name>TP00406</name><time>2020-01-27T10:47:25Z</time></trkpt>
   <trkpt lat="31.25451" lon="35.230295"><ele>602.6</ele><name>TP00407</name><time>2020-01-27T10:47:27Z</time></trkpt>
   <trkpt lat="31.254507" lon="35.23033"><ele>602.3</ele><name>TP00408</name><time>2020-01-27T10:47:28Z</time></trkpt>
   <trkpt lat="31.254511" lon="35.230369"><ele>602</ele><name>TP00409</name><time>2020-01-27T10:47:29Z</time></trkpt>
   <trkpt lat="31.254516" lon="35.230379"><ele>601.9</ele><name>TP00410</name><time>2020-01-27T10:47:30Z</time></trkpt>
   <trkpt lat="31.254521" lon="35.230392"><ele>601.8</ele><name>TP00411</name><time>2020-01-27T10:47:32Z</time></trkpt>
   <trkpt lat="31.254528" lon="35.230412"><ele>601.7</ele><name>TP00412</name><time>2020-01-27T10:47:33Z</time></trkpt>
   <trkpt lat="31.254527" lon="35.230419"><ele>601.6</ele><name>TP00413</name><time>2020-01-27T10:47:34Z</time></trkpt>
   <trkpt lat="31.254529" lon="35.230426"><ele>601.6</ele><name>TP00414</name><time>2020-01-27T10:47:36Z</time></trkpt>
   <trkpt lat="31.25453" lon="35.23043"><ele>601.5</ele><name>TP00415</name><time>2020-01-27T10:47:37Z</time></trkpt>
   <trkpt lat="31.254529" lon="35.23043"><ele>601.5</ele><name>TP00416</name><time>2020-01-27T10:47:39Z</time></trkpt>
   <trkpt lat="31.254518" lon="35.230412"><ele>601.4</ele><name>TP00417</name><time>2020-01-27T10:47:40Z</time></trkpt>
   <trkpt lat="31.254513" lon="35.230413"><ele>601.4</ele><name>TP00418</name><time>2020-01-27T10:47:41Z</time></trkpt>
   <trkpt lat="31.254508" lon="35.230414"><ele>601.3</ele><name>TP00419</name><time>2020-01-27T10:47:42Z</time></trkpt>
   <trkpt lat="31.254499" lon="35.230415"><ele>601.3</ele><name>TP00420</name><time>2020-01-27T10:47:44Z</time></trkpt>
   <trkpt lat="31.254483" lon="35.230405"><ele>601.1</ele><name>TP00421</name><time>2020-01-27T10:47:45Z</time></trkpt>
   <trkpt lat="31.254455" lon="35.230379"><ele>600.9</ele><name>TP00422</name><time>2020-01-27T10:47:47Z</time></trkpt>
   <trkpt lat="31.254428" lon="35.230363"><ele>600.6</ele><name>TP00423</name><time>2020-01-27T10:47:48Z</time></trkpt>
   <trkpt lat="31.254419" lon="35.230359"><ele>600.6</ele><name>TP00424</name><time>2020-01-27T10:47:49Z</time></trkpt>
   <trkpt lat="31.254404" lon="35.230348"><ele>600.4</ele><name>TP00425</name><time>2020-01-27T10:47:50Z</time></trkpt>
   <trkpt lat="31.254394" lon="35.230342"><ele>600.3</ele><name>TP00426</name><time>2020-01-27T10:47:51Z</time></trkpt>
   <trkpt lat="31.254385" lon="35.230336"><ele>600.2</ele><name>TP00427</name><time>2020-01-27T10:47:52Z</time></trkpt>
   <trkpt lat="31.254357" lon="35.230354"><ele>599.9</ele><name>TP00428</name><time>2020-01-27T10:47:54Z</time></trkpt>
   <trkpt lat="31.254353" lon="35.230368"><ele>599.8</ele><name>TP00429</name><time>2020-01-27T10:47:55Z</time></trkpt>
   <trkpt lat="31.25435" lon="35.230381"><ele>599.7</ele><name>TP00430</name><time>2020-01-27T10:47:57Z</time></trkpt>
   <trkpt lat="31.25435" lon="35.230385"><ele>599.7</ele><name>TP00431</name><time>2020-01-27T10:47:58Z</time></trkpt>
   <trkpt lat="31.254349" lon="35.23039"><ele>599.6</ele><name>TP00432</name><time>2020-01-27T10:48:00Z</time></trkpt>
   <trkpt lat="31.254349" lon="35.230393"><ele>599.6</ele><name>TP00433</name><time>2020-01-27T10:48:01Z</time></trkpt>
   <trkpt lat="31.254349" lon="35.230394"><ele>599.6</ele><name>TP00434</name><time>2020-01-27T10:48:02Z</time></trkpt>
   <trkpt lat="31.25435" lon="35.230394"><ele>599.6</ele><name>TP00435</name><time>2020-01-27T10:48:04Z</time></trkpt>
   <trkpt lat="31.254351" lon="35.230397"><ele>599.6</ele><name>TP00436</name><time>2020-01-27T10:48:06Z</time></trkpt>
   <trkpt lat="31.254352" lon="35.230393"><ele>599.6</ele><name>TP00437</name><time>2020-01-27T10:48:07Z</time></trkpt>
   <trkpt lat="31.254351" lon="35.230395"><ele>599.6</ele><name>TP00438</name><time>2020-01-27T10:48:08Z</time></trkpt>
   <trkpt lat="31.254344" lon="35.230384"><ele>599.5</ele><name>TP00439</name><time>2020-01-27T10:48:10Z</time></trkpt>
   <trkpt lat="31.254329" lon="35.230421"><ele>599.3</ele><name>TP00440</name><time>2020-01-27T10:48:12Z</time></trkpt>
   <trkpt lat="31.254321" lon="35.23045"><ele>599.2</ele><name>TP00441</name><time>2020-01-27T10:48:13Z</time></trkpt>
   <trkpt lat="31.254308" lon="35.230512"><ele>598.9</ele><name>TP00442</name><time>2020-01-27T10:48:15Z</time></trkpt>
   <trkpt lat="31.254304" lon="35.230555"><ele>598.5</ele><name>TP00443</name><time>2020-01-27T10:48:16Z</time></trkpt>
   <trkpt lat="31.254294" lon="35.230575"><ele>598.3</ele><name>TP00444</name><time>2020-01-27T10:48:17Z</time></trkpt>
   <trkpt lat="31.254233" lon="35.230668"><ele>597.5</ele><name>TP00445</name><time>2020-01-27T10:48:19Z</time></trkpt>
   <trkpt lat="31.254205" lon="35.230722"><ele>597</ele><name>TP00446</name><time>2020-01-27T10:48:20Z</time></trkpt>
   <trkpt lat="31.254188" lon="35.230763"><ele>596.5</ele><name>TP00447</name><time>2020-01-27T10:48:21Z</time></trkpt>
   <trkpt lat="31.254172" lon="35.230833"><ele>595.8</ele><name>TP00448</name><time>2020-01-27T10:48:23Z</time></trkpt>
   <trkpt lat="31.254159" lon="35.230889"><ele>595.3</ele><name>TP00449</name><time>2020-01-27T10:48:24Z</time></trkpt>
   <trkpt lat="31.254147" lon="35.230932"><ele>594.9</ele><name>TP00450</name><time>2020-01-27T10:48:25Z</time></trkpt>
   <trkpt lat="31.254134" lon="35.231019"><ele>594</ele><name>TP00451</name><time>2020-01-27T10:48:27Z</time></trkpt>
   <trkpt lat="31.254056" lon="35.231137"><ele>592.5</ele><name>TP00452</name><time>2020-01-27T10:48:29Z</time></trkpt>
   <trkpt lat="31.253987" lon="35.23121"><ele>591.2</ele><name>TP00453</name><time>2020-01-27T10:48:31Z</time></trkpt>
   <trkpt lat="31.253882" lon="35.231281"><ele>589.3</ele><name>TP00454</name><time>2020-01-27T10:48:32Z</time></trkpt>
   <trkpt lat="31.253757" lon="35.231368"><ele>587</ele><name>TP00455</name><time>2020-01-27T10:48:34Z</time></trkpt>
   <trkpt lat="31.2537" lon="35.231415"><ele>585.9</ele><name>TP00456</name><time>2020-01-27T10:48:35Z</time></trkpt>
   <trkpt lat="31.253643" lon="35.231458"><ele>584.9</ele><name>TP00457</name><time>2020-01-27T10:48:36Z</time></trkpt>
   <trkpt lat="31.253523" lon="35.231528"><ele>583.7</ele><name>TP00458</name><time>2020-01-27T10:48:38Z</time></trkpt>
   <trkpt lat="31.253462" lon="35.231553"><ele>583.6</ele><name>TP00459</name><time>2020-01-27T10:48:39Z</time></trkpt>
   <trkpt lat="31.253398" lon="35.231573"><ele>583.5</ele><name>TP00460</name><time>2020-01-27T10:48:40Z</time></trkpt>
   <trkpt lat="31.253339" lon="35.231595"><ele>583.5</ele><name>TP00461</name><time>2020-01-27T10:48:41Z</time></trkpt>
   <trkpt lat="31.253235" lon="35.231579"><ele>583.3</ele><name>TP00462</name><time>2020-01-27T10:48:43Z</time></trkpt>
   <trkpt lat="31.253154" lon="35.231568"><ele>583.1</ele><name>TP00463</name><time>2020-01-27T10:48:45Z</time></trkpt>
   <trkpt lat="31.253091" lon="35.231571"><ele>583</ele><name>TP00464</name><time>2020-01-27T10:48:47Z</time></trkpt>
   <trkpt lat="31.253054" lon="35.231572"><ele>582.8</ele><name>TP00465</name><time>2020-01-27T10:48:48Z</time></trkpt>
   <trkpt lat="31.253018" lon="35.231568"><ele>582.7</ele><name>TP00466</name><time>2020-01-27T10:48:49Z</time></trkpt>
   <trkpt lat="31.252947" lon="35.231555"><ele>582.4</ele><name>TP00467</name><time>2020-01-27T10:48:51Z</time></trkpt>
   <trkpt lat="31.252907" lon="35.231558"><ele>582.1</ele><name>TP00468</name><time>2020-01-27T10:48:52Z</time></trkpt>
   <trkpt lat="31.252782" lon="35.231575"><ele>581.4</ele><name>TP00469</name><time>2020-01-27T10:48:54Z</time></trkpt>
   <trkpt lat="31.252729" lon="35.23158"><ele>581.1</ele><name>TP00470</name><time>2020-01-27T10:48:55Z</time></trkpt>
   <trkpt lat="31.252685" lon="35.231591"><ele>580.9</ele><name>TP00471</name><time>2020-01-27T10:48:56Z</time></trkpt>
   <trkpt lat="31.252613" lon="35.231607"><ele>580.6</ele><name>TP00472</name><time>2020-01-27T10:48:58Z</time></trkpt>
   <trkpt lat="31.252574" lon="35.231609"><ele>580.3</ele><name>TP00473</name><time>2020-01-27T10:48:59Z</time></trkpt>
   <trkpt lat="31.252472" lon="35.231647"><ele>579.9</ele><name>TP00474</name><time>2020-01-27T10:49:01Z</time></trkpt>
   <trkpt lat="31.252445" lon="35.231679"><ele>579.8</ele><name>TP00475</name><time>2020-01-27T10:49:03Z</time></trkpt>
   <trkpt lat="31.252367" lon="35.231734"><ele>578.9</ele><name>TP00476</name><time>2020-01-27T10:49:04Z</time></trkpt>
   <trkpt lat="31.252333" lon="35.231779"><ele>578.3</ele><name>TP00477</name><time>2020-01-27T10:49:05Z</time></trkpt>
   <trkpt lat="31.252267" lon="35.231889"><ele>577.1</ele><name>TP00478</name><time>2020-01-27T10:49:07Z</time></trkpt>
   <trkpt lat="31.252231" lon="35.231937"><ele>576.6</ele><name>TP00479</name><time>2020-01-27T10:49:08Z</time></trkpt>
   <trkpt lat="31.252186" lon="35.231977"><ele>575.9</ele><name>TP00480</name><time>2020-01-27T10:49:09Z</time></trkpt>
   <trkpt lat="31.252129" lon="35.232006"><ele>575.3</ele><name>TP00481</name><time>2020-01-27T10:49:10Z</time></trkpt>
   <trkpt lat="31.252007" lon="35.232067"><ele>574.6</ele><name>TP00482</name><time>2020-01-27T10:49:12Z</time></trkpt>
   <trkpt lat="31.251951" lon="35.232102"><ele>574.2</ele><name>TP00483</name><time>2020-01-27T10:49:13Z</time></trkpt>
   <trkpt lat="31.251902" lon="35.232133"><ele>573.9</ele><name>TP00484</name><time>2020-01-27T10:49:14Z</time></trkpt>
   <trkpt lat="31.251863" lon="35.232158"><ele>573.8</ele><name>TP00485</name><time>2020-01-27T10:49:15Z</time></trkpt>
   <trkpt lat="31.251825" lon="35.232181"><ele>573.7</ele><name>TP00486</name><time>2020-01-27T10:49:17Z</time></trkpt>
   <trkpt lat="31.251822" lon="35.232182"><ele>573.6</ele><name>TP00487</name><time>2020-01-27T10:49:18Z</time></trkpt>
   <trkpt lat="31.251828" lon="35.232178"><ele>573.6</ele><name>TP00488</name><time>2020-01-27T10:49:20Z</time></trkpt>
   <trkpt lat="31.251831" lon="35.232177"><ele>573.6</ele><name>TP00489</name><time>2020-01-27T10:49:22Z</time></trkpt>
   <trkpt lat="31.251832" lon="35.232188"><ele>573.6</ele><name>TP00490</name><time>2020-01-27T10:49:23Z</time></trkpt>
   <trkpt lat="31.251835" lon="35.232203"><ele>573.6</ele><name>TP00491</name><time>2020-01-27T10:49:25Z</time></trkpt>
   <trkpt lat="31.251837" lon="35.232209"><ele>573.5</ele><name>TP00492</name><time>2020-01-27T10:49:26Z</time></trkpt>
   <trkpt lat="31.251838" lon="35.232216"><ele>573.5</ele><name>TP00493</name><time>2020-01-27T10:49:28Z</time></trkpt>
   <trkpt lat="31.251835" lon="35.232174"><ele>573.4</ele><name>TP00494</name><time>2020-01-27T10:49:29Z</time></trkpt>
   <trkpt lat="31.251834" lon="35.232181"><ele>573.4</ele><name>TP00495</name><time>2020-01-27T10:49:30Z</time></trkpt>
   <trkpt lat="31.251832" lon="35.232189"><ele>573.4</ele><name>TP00496</name><time>2020-01-27T10:49:31Z</time></trkpt>
   <trkpt lat="31.251831" lon="35.232187"><ele>573.4</ele><name>TP00497</name><time>2020-01-27T10:49:33Z</time></trkpt>
   <trkpt lat="31.251831" lon="35.232179"><ele>573.4</ele><name>TP00498</name><time>2020-01-27T10:49:35Z</time></trkpt>
   <trkpt lat="31.251831" lon="35.232178"><ele>573.3</ele><name>TP00499</name><time>2020-01-27T10:49:36Z</time></trkpt>
   <trkpt lat="31.251831" lon="35.232177"><ele>573.3</ele><name>TP00500</name><time>2020-01-27T10:49:38Z</time></trkpt>
   <trkpt lat="31.251831" lon="35.232176"><ele>573.3</ele><name>TP00501</name><time>2020-01-27T10:49:40Z</time></trkpt>
   <trkpt lat="31.251831" lon="35.232176"><ele>573.3</ele><name>TP00502</name><time>2020-01-27T10:49:41Z</time></trkpt>
   <trkpt lat="31.251831" lon="35.232176"><ele>573.3</ele><name>TP00503</name><time>2020-01-27T10:49:43Z</time></trkpt>
   <trkpt lat="31.251831" lon="35.232176"><ele>573.3</ele><name>TP00504</name><time>2020-01-27T10:49:45Z</time></trkpt>
   <trkpt lat="31.251831" lon="35.232176"><ele>573.3</ele><name>TP00505</name><time>2020-01-27T10:49:46Z</time></trkpt>
   <trkpt lat="31.251831" lon="35.232176"><ele>573.3</ele><name>TP00506</name><time>2020-01-27T10:49:48Z</time></trkpt>
   <trkpt lat="31.251831" lon="35.232176"><ele>573.3</ele><name>TP00507</name><time>2020-01-27T10:49:49Z</time></trkpt>
   <trkpt lat="31.251831" lon="35.232176"><ele>573.3</ele><name>TP00508</name><time>2020-01-27T10:49:51Z</time></trkpt>
   <trkpt lat="31.251831" lon="35.232176"><ele>573.3</ele><name>TP00509</name><time>2020-01-27T10:49:52Z</time></trkpt>
   <trkpt lat="31.251831" lon="35.232176"><ele>573.3</ele><name>TP00510</name><time>2020-01-27T10:49:54Z</time></trkpt>
   <trkpt lat="31.251831" lon="35.232176"><ele>573.3</ele><name>TP00511</name><time>2020-01-27T10:49:56Z</time></trkpt>
   <trkpt lat="31.251831" lon="35.232176"><ele>573.3</ele><name>TP00512</name><time>2020-01-27T10:49:58Z</time></trkpt>
   <trkpt lat="31.251831" lon="35.232176"><ele>573.3</ele><name>TP00513</name><time>2020-01-27T10:50:00Z</time></trkpt>
   <trkpt lat="31.251831" lon="35.232176"><ele>573.3</ele><name>TP00514</name><time>2020-01-27T10:50:02Z</time></trkpt>
   <trkpt lat="31.251831" lon="35.232176"><ele>573.3</ele><name>TP00515</name><time>2020-01-27T10:50:04Z</time></trkpt>
   <trkpt lat="31.251831" lon="35.232176"><ele>573.3</ele><name>TP00516</name><time>2020-01-27T10:50:06Z</time></trkpt>
   <trkpt lat="31.251831" lon="35.232176"><ele>573.3</ele><name>TP00517</name><time>2020-01-27T10:50:07Z</time></trkpt>
   <trkpt lat="31.251831" lon="35.232176"><ele>573.3</ele><name>TP00518</name><time>2020-01-27T10:50:09Z</time></trkpt>
   <trkpt lat="31.251831" lon="35.232176"><ele>573.3</ele><name>TP00519</name><time>2020-01-27T10:50:10Z</time></trkpt>
   <trkpt lat="31.251831" lon="35.232176"><ele>573.3</ele><name>TP00520</name><time>2020-01-27T10:50:12Z</time></trkpt>
   <trkpt lat="31.251831" lon="35.232176"><ele>573.3</ele><name>TP00521</name><time>2020-01-27T10:50:13Z</time></trkpt>
   <trkpt lat="31.251831" lon="35.232176"><ele>573.3</ele><name>TP00522</name><time>2020-01-27T10:50:15Z</time></trkpt>
   <trkpt lat="31.251831" lon="35.232176"><ele>573.3</ele><name>TP00523</name><time>2020-01-27T10:50:16Z</time></trkpt>
   <trkpt lat="31.251831" lon="35.232176"><ele>573.3</ele><name>TP00524</name><time>2020-01-27T10:50:18Z</time></trkpt>
   <trkpt lat="31.251831" lon="35.232176"><ele>573.3</ele><name>TP00525</name><time>2020-01-27T10:50:19Z</time></trkpt>
   <trkpt lat="31.251831" lon="35.232176"><ele>573.3</ele><name>TP00526</name><time>2020-01-27T10:50:20Z</time></trkpt>
   <trkpt lat="31.251831" lon="35.232176"><ele>573.3</ele><name>TP00527</name><time>2020-01-27T10:50:22Z</time></trkpt>
   <trkpt lat="31.251831" lon="35.232176"><ele>573.3</ele><name>TP00528</name><time>2020-01-27T10:50:23Z</time></trkpt>
   <trkpt lat="31.251831" lon="35.232176"><ele>573.3</ele><name>TP00529</name><time>2020-01-27T10:50:24Z</time></trkpt>
   <trkpt lat="31.251831" lon="35.232176"><ele>573.3</ele><name>TP00530</name><time>2020-01-27T10:50:25Z</time></trkpt>
   <trkpt lat="31.251831" lon="35.232176"><ele>573.3</ele><name>TP00531</name><time>2020-01-27T10:50:27Z</time></trkpt>
   <trkpt lat="31.251831" lon="35.232176"><ele>573.3</ele><name>TP00532</name><time>2020-01-27T10:50:29Z</time></trkpt>
   <trkpt lat="31.251831" lon="35.232176"><ele>573.3</ele><name>TP00533</name><time>2020-01-27T10:50:31Z</time></trkpt>
   <trkpt lat="31.251831" lon="35.232176"><ele>573.3</ele><name>TP00534</name><time>2020-01-27T10:50:32Z</time></trkpt>
   <trkpt lat="31.251831" lon="35.232176"><ele>573.3</ele><name>TP00535</name><time>2020-01-27T10:50:33Z</time></trkpt>
   <trkpt lat="31.251831" lon="35.232176"><ele>573.3</ele><name>TP00536</name><time>2020-01-27T10:50:34Z</time></trkpt>
   <trkpt lat="31.251831" lon="35.232176"><ele>573.3</ele><name>TP00537</name><time>2020-01-27T10:50:35Z</time></trkpt>
   <trkpt lat="31.251831" lon="35.232176"><ele>573.3</ele><name>TP00538</name><time>2020-01-27T10:50:37Z</time></trkpt>
   <trkpt lat="31.251831" lon="35.232176"><ele>573.3</ele><name>TP00539</name><time>2020-01-27T10:50:38Z</time></trkpt>
   <trkpt lat="31.251831" lon="35.232176"><ele>573.3</ele><name>TP00540</name><time>2020-01-27T10:50:40Z</time></trkpt>
   <trkpt lat="31.251831" lon="35.232176"><ele>573.3</ele><name>TP00541</name><time>2020-01-27T10:50:41Z</time></trkpt>
   <trkpt lat="31.251831" lon="35.232176"><ele>573.3</ele><name>TP00542</name><time>2020-01-27T10:50:42Z</time></trkpt>
   <trkpt lat="31.251831" lon="35.232176"><ele>573.3</ele><name>TP00543</name><time>2020-01-27T10:50:44Z</time></trkpt>
   <trkpt lat="31.251831" lon="35.232176"><ele>573.3</ele><name>TP00544</name><time>2020-01-27T10:50:46Z</time></trkpt>
   <trkpt lat="31.251831" lon="35.232176"><ele>573.3</ele><name>TP00545</name><time>2020-01-27T10:50:48Z</time></trkpt>
   <trkpt lat="31.251831" lon="35.232176"><ele>573.3</ele><name>TP00546</name><time>2020-01-27T10:50:49Z</time></trkpt>
   <trkpt lat="31.251831" lon="35.232176"><ele>573.3</ele><name>TP00547</name><time>2020-01-27T10:50:50Z</time></trkpt>
   <trkpt lat="31.251831" lon="35.232176"><ele>573.3</ele><name>TP00548</name><time>2020-01-27T10:50:51Z</time></trkpt>
   <trkpt lat="31.251831" lon="35.232176"><ele>573.3</ele><name>TP00549</name><time>2020-01-27T10:50:53Z</time></trkpt>
   <trkpt lat="31.251831" lon="35.232176"><ele>573.3</ele><name>TP00550</name><time>2020-01-27T10:50:54Z</time></trkpt>
   <trkpt lat="31.251831" lon="35.232176"><ele>573.3</ele><name>TP00551</name><time>2020-01-27T10:50:56Z</time></trkpt>
   <trkpt lat="31.251831" lon="35.232176"><ele>573.3</ele><name>TP00552</name><time>2020-01-27T10:50:57Z</time></trkpt>
   <trkpt lat="31.251831" lon="35.232176"><ele>573.3</ele><name>TP00553</name><time>2020-01-27T10:50:58Z</time></trkpt>
   <trkpt lat="31.251831" lon="35.232176"><ele>573.3</ele><name>TP00554</name><time>2020-01-27T10:51:00Z</time></trkpt>
   <trkpt lat="31.251831" lon="35.232176"><ele>573.3</ele><name>TP00555</name><time>2020-01-27T10:51:01Z</time></trkpt>
   <trkpt lat="31.251831" lon="35.232176"><ele>573.3</ele><name>TP00556</name><time>2020-01-27T10:51:03Z</time></trkpt>
   <trkpt lat="31.251831" lon="35.232176"><ele>573.3</ele><name>TP00557</name><time>2020-01-27T10:51:05Z</time></trkpt>
   <trkpt lat="31.251831" lon="35.232176"><ele>573.3</ele><name>TP00558</name><time>2020-01-27T10:51:07Z</time></trkpt>
   <trkpt lat="31.251831" lon="35.232176"><ele>573.3</ele><name>TP00559</name><time>2020-01-27T10:51:08Z</time></trkpt>
   <trkpt lat="31.251831" lon="35.232176"><ele>573.3</ele><name>TP00560</name><time>2020-01-27T10:51:10Z</time></trkpt>
   <trkpt lat="31.251831" lon="35.232176"><ele>573.3</ele><name>TP00561</name><time>2020-01-27T10:51:12Z</time></trkpt>
   <trkpt lat="31.251831" lon="35.232176"><ele>573.3</ele><name>TP00562</name><time>2020-01-27T10:51:13Z</time></trkpt>
   <trkpt lat="31.251831" lon="35.232176"><ele>573.3</ele><name>TP00563</name><time>2020-01-27T10:51:15Z</time></trkpt>
   <trkpt lat="31.251831" lon="35.232176"><ele>573.3</ele><name>TP00564</name><time>2020-01-27T10:51:16Z</time></trkpt>
   <trkpt lat="31.251831" lon="35.232176"><ele>573.3</ele><name>TP00565</name><time>2020-01-27T10:51:17Z</time></trkpt>
   <trkpt lat="31.251831" lon="35.232176"><ele>573.3</ele><name>TP00566</name><time>2020-01-27T10:51:18Z</time></trkpt>
   <trkpt lat="31.251831" lon="35.232176"><ele>573.3</ele><name>TP00567</name><time>2020-01-27T10:51:20Z</time></trkpt>
   <trkpt lat="31.251831" lon="35.232176"><ele>573.3</ele><name>TP00568</name><time>2020-01-27T10:51:21Z</time></trkpt>
   <trkpt lat="31.251831" lon="35.232176"><ele>573.3</ele><name>TP00569</name><time>2020-01-27T10:51:22Z</time></trkpt>
   <trkpt lat="31.251831" lon="35.232176"><ele>573.3</ele><name>TP00570</name><time>2020-01-27T10:51:24Z</time></trkpt>
   <trkpt lat="31.251831" lon="35.232176"><ele>573.3</ele><name>TP00571</name><time>2020-01-27T10:51:26Z</time></trkpt>
   <trkpt lat="31.251831" lon="35.232176"><ele>573.3</ele><name>TP00572</name><time>2020-01-27T10:51:28Z</time></trkpt>
   <trkpt lat="31.251831" lon="35.232176"><ele>573.3</ele><name>TP00573</name><time>2020-01-27T10:51:29Z</time></trkpt>
   <trkpt lat="31.251831" lon="35.232176"><ele>573.3</ele><name>TP00574</name><time>2020-01-27T10:51:31Z</time></trkpt>
   <trkpt lat="31.251831" lon="35.232176"><ele>573.3</ele><name>TP00575</name><time>2020-01-27T10:51:33Z</time></trkpt>
   <trkpt lat="31.251831" lon="35.232176"><ele>573.3</ele><name>TP00576</name><time>2020-01-27T10:51:34Z</time></trkpt>
   <trkpt lat="31.251831" lon="35.232176"><ele>573.3</ele><name>TP00577</name><time>2020-01-27T10:51:36Z</time></trkpt>
   <trkpt lat="31.251831" lon="35.232176"><ele>573.3</ele><name>TP00578</name><time>2020-01-27T10:51:38Z</time></trkpt>
   <trkpt lat="31.251831" lon="35.232176"><ele>573.3</ele><name>TP00579</name><time>2020-01-27T10:51:39Z</time></trkpt>
   <trkpt lat="31.251831" lon="35.232176"><ele>573.3</ele><name>TP00580</name><time>2020-01-27T10:51:41Z</time></trkpt>
   <trkpt lat="31.251831" lon="35.232176"><ele>573.3</ele><name>TP00581</name><time>2020-01-27T10:51:42Z</time></trkpt>
   <trkpt lat="31.251831" lon="35.232176"><ele>573.3</ele><name>TP00582</name><time>2020-01-27T10:51:44Z</time></trkpt>
   <trkpt lat="31.251831" lon="35.232176"><ele>573.3</ele><name>TP00583</name><time>2020-01-27T10:51:46Z</time></trkpt>
   <trkpt lat="31.251831" lon="35.232176"><ele>573.3</ele><name>TP00584</name><time>2020-01-27T10:51:47Z</time></trkpt>
   <trkpt lat="31.251831" lon="35.232176"><ele>573.3</ele><name>TP00585</name><time>2020-01-27T10:51:49Z</time></trkpt>
   <trkpt lat="31.251831" lon="35.232176"><ele>573.3</ele><name>TP00586</name><time>2020-01-27T10:51:50Z</time></trkpt>
   <trkpt lat="31.251831" lon="35.232176"><ele>573.3</ele><name>TP00587</name><time>2020-01-27T10:51:52Z</time></trkpt>
   <trkpt lat="31.251831" lon="35.232176"><ele>573.3</ele><name>TP00588</name><time>2020-01-27T10:51:53Z</time></trkpt>
   <trkpt lat="31.251831" lon="35.232176"><ele>573.3</ele><name>TP00589</name><time>2020-01-27T10:51:55Z</time></trkpt>
   <trkpt lat="31.251831" lon="35.232176"><ele>573.3</ele><name>TP00590</name><time>2020-01-27T10:51:56Z</time></trkpt>
   <trkpt lat="31.251831" lon="35.232176"><ele>573.3</ele><name>TP00591</name><time>2020-01-27T10:51:58Z</time></trkpt>
   <trkpt lat="31.251831" lon="35.232176"><ele>573.3</ele><name>TP00592</name><time>2020-01-27T10:51:59Z</time></trkpt>
   <trkpt lat="31.251831" lon="35.232176"><ele>573.3</ele><name>TP00593</name><time>2020-01-27T10:52:00Z</time></trkpt>
   <trkpt lat="31.251831" lon="35.232176"><ele>573.3</ele><name>TP00594</name><time>2020-01-27T10:52:02Z</time></trkpt>
   <trkpt lat="31.251831" lon="35.232176"><ele>573.3</ele><name>TP00595</name><time>2020-01-27T10:52:04Z</time></trkpt>
   <trkpt lat="31.251831" lon="35.232176"><ele>573.3</ele><name>TP00596</name><time>2020-01-27T10:52:06Z</time></trkpt>
   <trkpt lat="31.251831" lon="35.232176"><ele>573.3</ele><name>TP00597</name><time>2020-01-27T10:52:08Z</time></trkpt>
   <trkpt lat="31.251831" lon="35.232176"><ele>573.3</ele><name>TP00598</name><time>2020-01-27T10:52:10Z</time></trkpt>
   <trkpt lat="31.251831" lon="35.232176"><ele>573.3</ele><name>TP00599</name><time>2020-01-27T10:52:11Z</time></trkpt>
   <trkpt lat="31.251831" lon="35.232176"><ele>573.3</ele><name>TP00600</name><time>2020-01-27T10:52:13Z</time></trkpt>
   <trkpt lat="31.251831" lon="35.232176"><ele>573.3</ele><name>TP00601</name><time>2020-01-27T10:52:15Z</time></trkpt>
   <trkpt lat="31.251831" lon="35.232176"><ele>573.3</ele><name>TP00602</name><time>2020-01-27T10:52:16Z</time></trkpt>
   <trkpt lat="31.251831" lon="35.232176"><ele>573.3</ele><name>TP00603</name><time>2020-01-27T10:52:17Z</time></trkpt>
   <trkpt lat="31.251831" lon="35.232176"><ele>573.3</ele><name>TP00604</name><time>2020-01-27T10:52:19Z</time></trkpt>
   <trkpt lat="31.251831" lon="35.232176"><ele>573.3</ele><name>TP00605</name><time>2020-01-27T10:52:20Z</time></trkpt>
   <trkpt lat="31.251831" lon="35.232176"><ele>573.3</ele><name>TP00606</name><time>2020-01-27T10:52:21Z</time></trkpt>
   <trkpt lat="31.251831" lon="35.232176"><ele>573.3</ele><name>TP00607</name><time>2020-01-27T10:52:22Z</time></trkpt>
   <trkpt lat="31.251831" lon="35.232176"><ele>573.3</ele><name>TP00608</name><time>2020-01-27T10:52:24Z</time></trkpt>
   <trkpt lat="31.251831" lon="35.232176"><ele>573.3</ele><name>TP00609</name><time>2020-01-27T10:52:26Z</time></trkpt>
   <trkpt lat="31.251831" lon="35.232176"><ele>573.3</ele><name>TP00610</name><time>2020-01-27T10:52:27Z</time></trkpt>
   <trkpt lat="31.251831" lon="35.232176"><ele>573.3</ele><name>TP00611</name><time>2020-01-27T10:52:29Z</time></trkpt>
   <trkpt lat="31.251831" lon="35.232176"><ele>573.3</ele><name>TP00612</name><time>2020-01-27T10:52:30Z</time></trkpt>
   <trkpt lat="31.251831" lon="35.232176"><ele>573.3</ele><name>TP00613</name><time>2020-01-27T10:52:31Z</time></trkpt>
   <trkpt lat="31.251831" lon="35.232176"><ele>573.3</ele><name>TP00614</name><time>2020-01-27T10:52:33Z</time></trkpt>
   <trkpt lat="31.251831" lon="35.232176"><ele>573.3</ele><name>TP00615</name><time>2020-01-27T10:52:34Z</time></trkpt>
   <trkpt lat="31.251831" lon="35.232176"><ele>573.3</ele><name>TP00616</name><time>2020-01-27T10:52:36Z</time></trkpt>
   <trkpt lat="31.251831" lon="35.232176"><ele>573.3</ele><name>TP00617</name><time>2020-01-27T10:52:38Z</time></trkpt>
   <trkpt lat="31.251831" lon="35.232176"><ele>573.3</ele><name>TP00618</name><time>2020-01-27T10:52:40Z</time></trkpt>
   <trkpt lat="31.251831" lon="35.232176"><ele>573.3</ele><name>TP00619</name><time>2020-01-27T10:52:41Z</time></trkpt>
   <trkpt lat="31.251831" lon="35.232176"><ele>573.3</ele><name>TP00620</name><time>2020-01-27T10:52:43Z</time></trkpt>
   <trkpt lat="31.251831" lon="35.232176"><ele>573.3</ele><name>TP00621</name><time>2020-01-27T10:52:44Z</time></trkpt>
   <trkpt lat="31.251831" lon="35.232176"><ele>573.3</ele><name>TP00622</name><time>2020-01-27T10:52:45Z</time></trkpt>
   <trkpt lat="31.251831" lon="35.232176"><ele>573.3</ele><name>TP00623</name><time>2020-01-27T10:52:47Z</time></trkpt>
   <trkpt lat="31.251831" lon="35.232176"><ele>573.3</ele><name>TP00624</name><time>2020-01-27T10:52:48Z</time></trkpt>
   <trkpt lat="31.251831" lon="35.232176"><ele>573.3</ele><name>TP00625</name><time>2020-01-27T10:52:49Z</time></trkpt>
   <trkpt lat="31.251831" lon="35.232176"><ele>573.3</ele><name>TP00626</name><time>2020-01-27T10:52:50Z</time></trkpt>
   <trkpt lat="31.251831" lon="35.232176"><ele>573.3</ele><name>TP00627</name><time>2020-01-27T10:52:52Z</time></trkpt>
   <trkpt lat="31.251831" lon="35.232176"><ele>573.3</ele><name>TP00628</name><time>2020-01-27T10:52:54Z</time></trkpt>
   <trkpt lat="31.251831" lon="35.232176"><ele>573.3</ele><name>TP00629</name><time>2020-01-27T10:52:55Z</time></trkpt>
   <trkpt lat="31.251831" lon="35.232176"><ele>573.3</ele><name>TP00630</name><time>2020-01-27T10:52:57Z</time></trkpt>
   <trkpt lat="31.251831" lon="35.232176"><ele>573.3</ele><name>TP00631</name><time>2020-01-27T10:52:58Z</time></trkpt>
   <trkpt lat="31.251831" lon="35.232176"><ele>573.3</ele><name>TP00632</name><time>2020-01-27T10:53:00Z</time></trkpt>
   <trkpt lat="31.251831" lon="35.232176"><ele>573.3</ele><name>TP00633</name><time>2020-01-27T10:53:01Z</time></trkpt>
   <trkpt lat="31.251831" lon="35.232176"><ele>573.3</ele><name>TP00634</name><time>2020-01-27T10:53:03Z</time></trkpt>
   <trkpt lat="31.251831" lon="35.232176"><ele>573.3</ele><name>TP00635</name><time>2020-01-27T10:53:05Z</time></trkpt>
   <trkpt lat="31.251831" lon="35.232176"><ele>573.3</ele><name>TP00636</name><time>2020-01-27T10:53:06Z</time></trkpt>
   <trkpt lat="31.251831" lon="35.232176"><ele>573.3</ele><name>TP00637</name><time>2020-01-27T10:53:07Z</time></trkpt>
   <trkpt lat="31.25178" lon="35.232188"><ele>573.1</ele><name>TP00638</name><time>2020-01-27T10:53:09Z</time></trkpt>
   <trkpt lat="31.251751" lon="35.232187"><ele>573</ele><name>TP00639</name><time>2020-01-27T10:53:11Z</time></trkpt>
   <trkpt lat="31.25172" lon="35.232189"><ele>572.9</ele><name>TP00640</name><time>2020-01-27T10:53:12Z</time></trkpt>
   <trkpt lat="31.251679" lon="35.232214"><ele>572.7</ele><name>TP00641</name><time>2020-01-27T10:53:14Z</time></trkpt>
   <trkpt lat="31.251666" lon="35.232226"><ele>572.6</ele><name>TP00642</name><time>2020-01-27T10:53:15Z</time></trkpt>
   <trkpt lat="31.251654" lon="35.232237"><ele>572.5</ele><name>TP00643</name><time>2020-01-27T10:53:16Z</time></trkpt>
   <trkpt lat="31.251613" lon="35.232247"><ele>572.2</ele><name>TP00644</name><time>2020-01-27T10:53:17Z</time></trkpt>
   <trkpt lat="31.251561" lon="35.232255"><ele>571.8</ele><name>TP00645</name><time>2020-01-27T10:53:19Z</time></trkpt>
   <trkpt lat="31.251518" lon="35.23227"><ele>571.5</ele><name>TP00646</name><time>2020-01-27T10:53:20Z</time></trkpt>
   <trkpt lat="31.251464" lon="35.232289"><ele>571.2</ele><name>TP00647</name><time>2020-01-27T10:53:21Z</time></trkpt>
   <trkpt lat="31.251417" lon="35.232286"><ele>570.8</ele><name>TP00648</name><time>2020-01-27T10:53:22Z</time></trkpt>
   <trkpt lat="31.251359" lon="35.232291"><ele>570.2</ele><name>TP00649</name><time>2020-01-27T10:53:24Z</time></trkpt>
   <trkpt lat="31.2513" lon="35.232309"><ele>569.6</ele><name>TP00650</name><time>2020-01-27T10:53:25Z</time></trkpt>
   <trkpt lat="31.251269" lon="35.232318"><ele>569.2</ele><name>TP00651</name><time>2020-01-27T10:53:26Z</time></trkpt>
   <trkpt lat="31.251214" lon="35.232322"><ele>568.7</ele><name>TP00652</name><time>2020-01-27T10:53:28Z</time></trkpt>
   <trkpt lat="31.251155" lon="35.232318"><ele>568.1</ele><name>TP00653</name><time>2020-01-27T10:53:30Z</time></trkpt>
   <trkpt lat="31.251115" lon="35.232308"><ele>567.6</ele><name>TP00654</name><time>2020-01-27T10:53:31Z</time></trkpt>
   <trkpt lat="31.251069" lon="35.23228"><ele>567.1</ele><name>TP00655</name><time>2020-01-27T10:53:33Z</time></trkpt>
   <trkpt lat="31.251008" lon="35.232241"><ele>566.5</ele><name>TP00656</name><time>2020-01-27T10:53:34Z</time></trkpt>
   <trkpt lat="31.250951" lon="35.232205"><ele>565.8</ele><name>TP00657</name><time>2020-01-27T10:53:36Z</time></trkpt>
   <trkpt lat="31.250899" lon="35.232192"><ele>565.4</ele><name>TP00658</name><time>2020-01-27T10:53:38Z</time></trkpt>
   <trkpt lat="31.250861" lon="35.232182"><ele>565.1</ele><name>TP00659</name><time>2020-01-27T10:53:39Z</time></trkpt>
   <trkpt lat="31.250825" lon="35.232169"><ele>564.8</ele><name>TP00660</name><time>2020-01-27T10:53:40Z</time></trkpt>
   <trkpt lat="31.250799" lon="35.232159"><ele>564.5</ele><name>TP00661</name><time>2020-01-27T10:53:41Z</time></trkpt>
   <trkpt lat="31.250773" lon="35.232147"><ele>564.2</ele><name>TP00662</name><time>2020-01-27T10:53:43Z</time></trkpt>
   <trkpt lat="31.250748" lon="35.232131"><ele>563.8</ele><name>TP00663</name><time>2020-01-27T10:53:44Z</time></trkpt>
   <trkpt lat="31.250718" lon="35.232119"><ele>563.5</ele><name>TP00664</name><time>2020-01-27T10:53:45Z</time></trkpt>
   <trkpt lat="31.250682" lon="35.232118"><ele>563.1</ele><name>TP00665</name><time>2020-01-27T10:53:46Z</time></trkpt>
   <trkpt lat="31.250627" lon="35.232111"><ele>562.5</ele><name>TP00666</name><time>2020-01-27T10:53:48Z</time></trkpt>
   <trkpt lat="31.250591" lon="35.232099"><ele>562.1</ele><name>TP00667</name><time>2020-01-27T10:53:49Z</time></trkpt>
   <trkpt lat="31.25058" lon="35.232095"><ele>562</ele><name>TP00668</name><time>2020-01-27T10:53:50Z</time></trkpt>
   <trkpt lat="31.25055" lon="35.232093"><ele>561.7</ele><name>TP00669</name><time>2020-01-27T10:53:52Z</time></trkpt>
   <trkpt lat="31.250512" lon="35.232101"><ele>561.4</ele><name>TP00670</name><time>2020-01-27T10:53:53Z</time></trkpt>
   <trkpt lat="31.250481" lon="35.232114"><ele>561.2</ele><name>TP00671</name><time>2020-01-27T10:53:54Z</time></trkpt>
   <trkpt lat="31.25047" lon="35.23212"><ele>561.1</ele><name>TP00672</name><time>2020-01-27T10:53:55Z</time></trkpt>
   <trkpt lat="31.250441" lon="35.232152"><ele>560.8</ele><name>TP00673</name><time>2020-01-27T10:53:56Z</time></trkpt>
   <trkpt lat="31.250429" lon="35.232161"><ele>560.7</ele><name>TP00674</name><time>2020-01-27T10:53:57Z</time></trkpt>
   <trkpt lat="31.250408" lon="35.232192"><ele>560.4</ele><name>TP00675</name><time>2020-01-27T10:53:58Z</time></trkpt>
   <trkpt lat="31.250393" lon="35.232228"><ele>560.2</ele><name>TP00676</name><time>2020-01-27T10:53:59Z</time></trkpt>
   <trkpt lat="31.250368" lon="35.23227"><ele>559.8</ele><name>TP00677</name><time>2020-01-27T10:54:01Z</time></trkpt>
   <trkpt lat="31.250344" lon="35.232302"><ele>559.5</ele><name>TP00678</name><time>2020-01-27T10:54:02Z</time></trkpt>
   <trkpt lat="31.250323" lon="35.232311"><ele>559.3</ele><name>TP00679</name><time>2020-01-27T10:54:03Z</time></trkpt>
   <trkpt lat="31.250278" lon="35.232336"><ele>558.9</ele><name>TP00680</name><time>2020-01-27T10:54:05Z</time></trkpt>
   <trkpt lat="31.250234" lon="35.232373"><ele>558.5</ele><name>TP00681</name><time>2020-01-27T10:54:06Z</time></trkpt>
   <trkpt lat="31.250179" lon="35.232397"><ele>558</ele><name>TP00682</name><time>2020-01-27T10:54:08Z</time></trkpt>
   <trkpt lat="31.250134" lon="35.232424"><ele>557.6</ele><name>TP00683</name><time>2020-01-27T10:54:09Z</time></trkpt>
   <trkpt lat="31.250079" lon="35.232455"><ele>557.1</ele><name>TP00684</name><time>2020-01-27T10:54:10Z</time></trkpt>
   <trkpt lat="31.250034" lon="35.232502"><ele>556.6</ele><name>TP00685</name><time>2020-01-27T10:54:12Z</time></trkpt>
   <trkpt lat="31.249962" lon="35.232573"><ele>555.6</ele><name>TP00686</name><time>2020-01-27T10:54:13Z</time></trkpt>
   <trkpt lat="31.249911" lon="35.232608"><ele>554.9</ele><name>TP00687</name><time>2020-01-27T10:54:14Z</time></trkpt>
   <trkpt lat="31.2498" lon="35.232661"><ele>553.7</ele><name>TP00688</name><time>2020-01-27T10:54:16Z</time></trkpt>
   <trkpt lat="31.249706" lon="35.232713"><ele>552.4</ele><name>TP00689</name><time>2020-01-27T10:54:18Z</time></trkpt>
   <trkpt lat="31.24967" lon="35.23273"><ele>551.8</ele><name>TP00690</name><time>2020-01-27T10:54:20Z</time></trkpt>
   <trkpt lat="31.249653" lon="35.232756"><ele>551.3</ele><name>TP00691</name><time>2020-01-27T10:54:21Z</time></trkpt>
   <trkpt lat="31.24961" lon="35.232809"><ele>550.5</ele><name>TP00692</name><time>2020-01-27T10:54:22Z</time></trkpt>
   <trkpt lat="31.249591" lon="35.23285"><ele>549.9</ele><name>TP00693</name><time>2020-01-27T10:54:23Z</time></trkpt>
   <trkpt lat="31.24956" lon="35.23288"><ele>549.2</ele><name>TP00694</name><time>2020-01-27T10:54:25Z</time></trkpt>
   <trkpt lat="31.249551" lon="35.232886"><ele>549</ele><name>TP00695</name><time>2020-01-27T10:54:26Z</time></trkpt>
   <trkpt lat="31.249543" lon="35.232892"><ele>548.9</ele><name>TP00696</name><time>2020-01-27T10:54:27Z</time></trkpt>
   <trkpt lat="31.249535" lon="35.232899"><ele>548.7</ele><name>TP00697</name><time>2020-01-27T10:54:29Z</time></trkpt>
   <trkpt lat="31.249526" lon="35.232905"><ele>548.5</ele><name>TP00698</name><time>2020-01-27T10:54:31Z</time></trkpt>
   <trkpt lat="31.249518" lon="35.232911"><ele>548.4</ele><name>TP00699</name><time>2020-01-27T10:54:33Z</time></trkpt>
   <trkpt lat="31.249509" lon="35.232917"><ele>548.2</ele><name>TP00700</name><time>2020-01-27T10:54:34Z</time></trkpt>
   <trkpt lat="31.249501" lon="35.232923"><ele>548</ele><name>TP00701</name><time>2020-01-27T10:54:35Z</time></trkpt>
   <trkpt lat="31.249475" lon="35.232945"><ele>547.5</ele><name>TP00702</name><time>2020-01-27T10:54:36Z</time></trkpt>
   <trkpt lat="31.249423" lon="35.232968"><ele>546.5</ele><name>TP00703</name><time>2020-01-27T10:54:37Z</time></trkpt>
   <trkpt lat="31.249317" lon="35.233024"><ele>544.2</ele><name>TP00704</name><time>2020-01-27T10:54:39Z</time></trkpt>
   <trkpt lat="31.249282" lon="35.233053"><ele>543.4</ele><name>TP00705</name><time>2020-01-27T10:54:40Z</time></trkpt>
   <trkpt lat="31.249261" lon="35.233097"><ele>542.5</ele><name>TP00706</name><time>2020-01-27T10:54:42Z</time></trkpt>
   <trkpt lat="31.249291" lon="35.233138"><ele>541.7</ele><name>TP00707</name><time>2020-01-27T10:54:43Z</time></trkpt>
   <trkpt lat="31.249326" lon="35.233195"><ele>540.6</ele><name>TP00708</name><time>2020-01-27T10:54:44Z</time></trkpt>
   <trkpt lat="31.249349" lon="35.233258"><ele>539.6</ele><name>TP00709</name><time>2020-01-27T10:54:45Z</time></trkpt>
   <trkpt lat="31.24936" lon="35.233378"><ele>537.6</ele><name>TP00710</name><time>2020-01-27T10:54:47Z</time></trkpt>
   <trkpt lat="31.249347" lon="35.233454"><ele>536.4</ele><name>TP00711</name><time>2020-01-27T10:54:49Z</time></trkpt>
   <trkpt lat="31.249315" lon="35.233474"><ele>535.8</ele><name>TP00712</name><time>2020-01-27T10:54:51Z</time></trkpt>
   <trkpt lat="31.249298" lon="35.233473"><ele>535.5</ele><name>TP00713</name><time>2020-01-27T10:54:52Z</time></trkpt>
   <trkpt lat="31.249265" lon="35.233441"><ele>534.8</ele><name>TP00714</name><time>2020-01-27T10:54:54Z</time></trkpt>
   <trkpt lat="31.249245" lon="35.233405"><ele>534.3</ele><name>TP00715</name><time>2020-01-27T10:54:55Z</time></trkpt>
   <trkpt lat="31.249231" lon="35.233361"><ele>533.7</ele><name>TP00716</name><time>2020-01-27T10:54:56Z</time></trkpt>
   <trkpt lat="31.249212" lon="35.23334"><ele>533.4</ele><name>TP00717</name><time>2020-01-27T10:54:57Z</time></trkpt>
   <trkpt lat="31.249188" lon="35.233297"><ele>532.7</ele><name>TP00718</name><time>2020-01-27T10:54:59Z</time></trkpt>
   <trkpt lat="31.249159" lon="35.233259"><ele>532.1</ele><name>TP00719</name><time>2020-01-27T10:55:00Z</time></trkpt>
   <trkpt lat="31.249096" lon="35.233215"><ele>531.2</ele><name>TP00720</name><time>2020-01-27T10:55:01Z</time></trkpt>
   <trkpt lat="31.248996" lon="35.233155"><ele>529.7</ele><name>TP00721</name><time>2020-01-27T10:55:03Z</time></trkpt>
   <trkpt lat="31.248955" lon="35.233145"><ele>529.1</ele><name>TP00722</name><time>2020-01-27T10:55:04Z</time></trkpt>
   <trkpt lat="31.248899" lon="35.233134"><ele>528.3</ele><name>TP00723</name><time>2020-01-27T10:55:06Z</time></trkpt>
   <trkpt lat="31.248849" lon="35.233126"><ele>527.6</ele><name>TP00724</name><time>2020-01-27T10:55:07Z</time></trkpt>
   <trkpt lat="31.248774" lon="35.233127"><ele>526.5</ele><name>TP00725</name><time>2020-01-27T10:55:08Z</time></trkpt>
   <trkpt lat="31.248714" lon="35.233127"><ele>525.5</ele><name>TP00726</name><time>2020-01-27T10:55:09Z</time></trkpt>
   <trkpt lat="31.248584" lon="35.233167"><ele>523.7</ele><name>TP00727</name><time>2020-01-27T10:55:11Z</time></trkpt>
   <trkpt lat="31.248441" lon="35.233247"><ele>521.9</ele><name>TP00728</name><time>2020-01-27T10:55:13Z</time></trkpt>
   <trkpt lat="31.248362" lon="35.233287"><ele>520.7</ele><name>TP00729</name><time>2020-01-27T10:55:14Z</time></trkpt>
   <trkpt lat="31.248194" lon="35.233348"><ele>518.2</ele><name>TP00730</name><time>2020-01-27T10:55:16Z</time></trkpt>
   <trkpt lat="31.248049" lon="35.233437"><ele>515.2</ele><name>TP00731</name><time>2020-01-27T10:55:18Z</time></trkpt>
   <trkpt lat="31.247994" lon="35.233494"><ele>513.7</ele><name>TP00732</name><time>2020-01-27T10:55:19Z</time></trkpt>
   <trkpt lat="31.247946" lon="35.233556"><ele>512.8</ele><name>TP00733</name><time>2020-01-27T10:55:20Z</time></trkpt>
   <trkpt lat="31.247848" lon="35.233695"><ele>511</ele><name>TP00734</name><time>2020-01-27T10:55:22Z</time></trkpt>
   <trkpt lat="31.24773" lon="35.233851"><ele>508.5</ele><name>TP00735</name><time>2020-01-27T10:55:24Z</time></trkpt>
   <trkpt lat="31.247679" lon="35.233941"><ele>507</ele><name>TP00736</name><time>2020-01-27T10:55:25Z</time></trkpt>
   <trkpt lat="31.247572" lon="35.234117"><ele>503.7</ele><name>TP00737</name><time>2020-01-27T10:55:27Z</time></trkpt>
   <trkpt lat="31.24748" lon="35.234305"><ele>501.4</ele><name>TP00738</name><time>2020-01-27T10:55:29Z</time></trkpt>
   <trkpt lat="31.247426" lon="35.234378"><ele>500.6</ele><name>TP00739</name><time>2020-01-27T10:55:30Z</time></trkpt>
   <trkpt lat="31.247316" lon="35.23447"><ele>499.1</ele><name>TP00740</name><time>2020-01-27T10:55:32Z</time></trkpt>
   <trkpt lat="31.247258" lon="35.2345"><ele>498.6</ele><name>TP00741</name><time>2020-01-27T10:55:33Z</time></trkpt>
   <trkpt lat="31.247205" lon="35.234535"><ele>498.1</ele><name>TP00742</name><time>2020-01-27T10:55:34Z</time></trkpt>
   <trkpt lat="31.2471" lon="35.234635"><ele>496.7</ele><name>TP00743</name><time>2020-01-27T10:55:36Z</time></trkpt>
   <trkpt lat="31.247052" lon="35.234696"><ele>495.8</ele><name>TP00744</name><time>2020-01-27T10:55:37Z</time></trkpt>
   <trkpt lat="31.246953" lon="35.234793"><ele>493.7</ele><name>TP00745</name><time>2020-01-27T10:55:39Z</time></trkpt>
   <trkpt lat="31.246899" lon="35.234838"><ele>492.3</ele><name>TP00746</name><time>2020-01-27T10:55:40Z</time></trkpt>
   <trkpt lat="31.246844" lon="35.234887"><ele>490.8</ele><name>TP00747</name><time>2020-01-27T10:55:41Z</time></trkpt>
   <trkpt lat="31.246762" lon="35.234973"><ele>488.8</ele><name>TP00748</name><time>2020-01-27T10:55:43Z</time></trkpt>
   <trkpt lat="31.246742" lon="35.235001"><ele>488.2</ele><name>TP00749</name><time>2020-01-27T10:55:44Z</time></trkpt>
   <trkpt lat="31.246734" lon="35.235005"><ele>488</ele><name>TP00750</name><time>2020-01-27T10:55:45Z</time></trkpt>
   <trkpt lat="31.246695" lon="35.235017"><ele>487.2</ele><name>TP00751</name><time>2020-01-27T10:55:47Z</time></trkpt>
   <trkpt lat="31.246675" lon="35.235024"><ele>486.7</ele><name>TP00752</name><time>2020-01-27T10:55:48Z</time></trkpt>
   <trkpt lat="31.246652" lon="35.23504"><ele>486.3</ele><name>TP00753</name><time>2020-01-27T10:55:50Z</time></trkpt>
   <trkpt lat="31.246653" lon="35.235039"><ele>486.2</ele><name>TP00754</name><time>2020-01-27T10:55:51Z</time></trkpt>
   <trkpt lat="31.246658" lon="35.235032"><ele>486.1</ele><name>TP00755</name><time>2020-01-27T10:55:53Z</time></trkpt>
   <trkpt lat="31.246663" lon="35.235041"><ele>486</ele><name>TP00756</name><time>2020-01-27T10:55:55Z</time></trkpt>
   <trkpt lat="31.246664" lon="35.235053"><ele>485.8</ele><name>TP00757</name><time>2020-01-27T10:55:56Z</time></trkpt>
   <trkpt lat="31.246662" lon="35.23506"><ele>485.7</ele><name>TP00758</name><time>2020-01-27T10:55:57Z</time></trkpt>
   <trkpt lat="31.246663" lon="35.235073"><ele>485.5</ele><name>TP00759</name><time>2020-01-27T10:55:59Z</time></trkpt>
   <trkpt lat="31.246662" lon="35.235078"><ele>485.4</ele><name>TP00760</name><time>2020-01-27T10:56:00Z</time></trkpt>
   <trkpt lat="31.246665" lon="35.235085"><ele>485.3</ele><name>TP00761</name><time>2020-01-27T10:56:02Z</time></trkpt>
   <trkpt lat="31.246659" lon="35.235037"><ele>484.7</ele><name>TP00762</name><time>2020-01-27T10:56:04Z</time></trkpt>
   <trkpt lat="31.24666" lon="35.235036"><ele>484.6</ele><name>TP00763</name><time>2020-01-27T10:56:06Z</time></trkpt>
   <trkpt lat="31.24666" lon="35.235035"><ele>484.6</ele><name>TP00764</name><time>2020-01-27T10:56:07Z</time></trkpt>
   <trkpt lat="31.24666" lon="35.235035"><ele>484.6</ele><name>TP00765</name><time>2020-01-27T10:56:09Z</time></trkpt>
   <trkpt lat="31.24666" lon="35.235035"><ele>484.6</ele><name>TP00766</name><time>2020-01-27T10:56:10Z</time></trkpt>
   <trkpt lat="31.24666" lon="35.235035"><ele>484.6</ele><name>TP00767</name><time>2020-01-27T10:56:11Z</time></trkpt>
   <trkpt lat="31.24666" lon="35.235035"><ele>484.6</ele><name>TP00768</name><time>2020-01-27T10:56:13Z</time></trkpt>
   <trkpt lat="31.246648" lon="35.235061"><ele>484.2</ele><name>TP00769</name><time>2020-01-27T10:56:15Z</time></trkpt>
   <trkpt lat="31.246612" lon="35.23512"><ele>483.3</ele><name>TP00770</name><time>2020-01-27T10:56:17Z</time></trkpt>
   <trkpt lat="31.246591" lon="35.235139"><ele>482.9</ele><name>TP00771</name><time>2020-01-27T10:56:18Z</time></trkpt>
   <trkpt lat="31.246557" lon="35.235167"><ele>482.4</ele><name>TP00772</name><time>2020-01-27T10:56:20Z</time></trkpt>
   <trkpt lat="31.246532" lon="35.23519"><ele>482</ele><name>TP00773</name><time>2020-01-27T10:56:22Z</time></trkpt>
   <trkpt lat="31.246501" lon="35.23523"><ele>481.2</ele><name>TP00774</name><time>2020-01-27T10:56:23Z</time></trkpt>
   <trkpt lat="31.246474" lon="35.235266"><ele>480.4</ele><name>TP00775</name><time>2020-01-27T10:56:24Z</time></trkpt>
   <trkpt lat="31.246438" lon="35.235295"><ele>479.6</ele><name>TP00776</name><time>2020-01-27T10:56:25Z</time></trkpt>
   <trkpt lat="31.246402" lon="35.235318"><ele>478.8</ele><name>TP00777</name><time>2020-01-27T10:56:26Z</time></trkpt>
   <trkpt lat="31.246354" lon="35.235354"><ele>477.8</ele><name>TP00778</name><time>2020-01-27T10:56:28Z</time></trkpt>
   <trkpt lat="31.246316" lon="35.235383"><ele>477.1</ele><name>TP00779</name><time>2020-01-27T10:56:29Z</time></trkpt>
   <trkpt lat="31.246284" lon="35.235406"><ele>476.6</ele><name>TP00780</name><time>2020-01-27T10:56:30Z</time></trkpt>
   <trkpt lat="31.246252" lon="35.23545"><ele>476</ele><name>TP00781</name><time>2020-01-27T10:56:31Z</time></trkpt>
   <trkpt lat="31.246192" lon="35.235547"><ele>474.7</ele><name>TP00782</name><time>2020-01-27T10:56:33Z</time></trkpt>
   <trkpt lat="31.246176" lon="35.235583"><ele>474.2</ele><name>TP00783</name><time>2020-01-27T10:56:35Z</time></trkpt>
   <trkpt lat="31.246164" lon="35.235598"><ele>474</ele><name>TP00784</name><time>2020-01-27T10:56:36Z</time></trkpt>
   <trkpt lat="31.246095" lon="35.235701"><ele>472.2</ele><name>TP00785</name><time>2020-01-27T10:56:37Z</time></trkpt>
   <trkpt lat="31.246068" lon="35.235769"><ele>471.2</ele><name>TP00786</name><time>2020-01-27T10:56:38Z</time></trkpt>
   <trkpt lat="31.246015" lon="35.235903"><ele>469</ele><name>TP00787</name><time>2020-01-27T10:56:40Z</time></trkpt>
   <trkpt lat="31.245922" lon="35.235998"><ele>467</ele><name>TP00788</name><time>2020-01-27T10:56:42Z</time></trkpt>
   <trkpt lat="31.245829" lon="35.236058"><ele>465.2</ele><name>TP00789</name><time>2020-01-27T10:56:44Z</time></trkpt>
   <trkpt lat="31.24579" lon="35.236087"><ele>464.3</ele><name>TP00790</name><time>2020-01-27T10:56:46Z</time></trkpt>
   <trkpt lat="31.245762" lon="35.236107"><ele>463.7</ele><name>TP00791</name><time>2020-01-27T10:56:47Z</time></trkpt>
   <trkpt lat="31.245745" lon="35.236133"><ele>463.3</ele><name>TP00792</name><time>2020-01-27T10:56:48Z</time></trkpt>
   <trkpt lat="31.245744" lon="35.236137"><ele>463.2</ele><name>TP00793</name><time>2020-01-27T10:56:49Z</time></trkpt>
   <trkpt lat="31.245743" lon="35.236142"><ele>463.1</ele><name>TP00794</name><time>2020-01-27T10:56:50Z</time></trkpt>
   <trkpt lat="31.245743" lon="35.236146"><ele>463.1</ele><name>TP00795</name><time>2020-01-27T10:56:52Z</time></trkpt>
   <trkpt lat="31.245742" lon="35.23615"><ele>463</ele><name>TP00796</name><time>2020-01-27T10:56:53Z</time></trkpt>
   <trkpt lat="31.245741" lon="35.236154"><ele>463</ele><name>TP00797</name><time>2020-01-27T10:56:54Z</time></trkpt>
   <trkpt lat="31.24574" lon="35.236159"><ele>462.9</ele><name>TP00798</name><time>2020-01-27T10:56:56Z</time></trkpt>
   <trkpt lat="31.245739" lon="35.236163"><ele>462.8</ele><name>TP00799</name><time>2020-01-27T10:56:58Z</time></trkpt>
   <trkpt lat="31.245738" lon="35.236167"><ele>462.8</ele><name>TP00800</name><time>2020-01-27T10:56:59Z</time></trkpt>
   <trkpt lat="31.245737" lon="35.236171"><ele>462.7</ele><name>TP00801</name><time>2020-01-27T10:57:00Z</time></trkpt>
   <trkpt lat="31.245737" lon="35.236175"><ele>462.7</ele><name>TP00802</name><time>2020-01-27T10:57:02Z</time></trkpt>
   <trkpt lat="31.245736" lon="35.23618"><ele>462.6</ele><name>TP00803</name><time>2020-01-27T10:57:03Z</time></trkpt>
   <trkpt lat="31.245735" lon="35.236184"><ele>462.6</ele><name>TP00804</name><time>2020-01-27T10:57:05Z</time></trkpt>
   <trkpt lat="31.245734" lon="35.236188"><ele>462.5</ele><name>TP00805</name><time>2020-01-27T10:57:06Z</time></trkpt>
   <trkpt lat="31.245706" lon="35.236209"><ele>462</ele><name>TP00806</name><time>2020-01-27T10:57:08Z</time></trkpt>
   <trkpt lat="31.24568" lon="35.236245"><ele>461.4</ele><name>TP00807</name><time>2020-01-27T10:57:09Z</time></trkpt>
   <trkpt lat="31.24566" lon="35.236287"><ele>460.8</ele><name>TP00808</name><time>2020-01-27T10:57:10Z</time></trkpt>
   <trkpt lat="31.245628" lon="35.236327"><ele>460.1</ele><name>TP00809</name><time>2020-01-27T10:57:11Z</time></trkpt>
   <trkpt lat="31.245592" lon="35.236361"><ele>459.5</ele><name>TP00810</name><time>2020-01-27T10:57:12Z</time></trkpt>
   <trkpt lat="31.245527" lon="35.236399"><ele>458.5</ele><name>TP00811</name><time>2020-01-27T10:57:13Z</time></trkpt>
   <trkpt lat="31.24548" lon="35.236428"><ele>457.7</ele><name>TP00812</name><time>2020-01-27T10:57:14Z</time></trkpt>
   <trkpt lat="31.245426" lon="35.236465"><ele>456.9</ele><name>TP00813</name><time>2020-01-27T10:57:16Z</time></trkpt>
   <trkpt lat="31.24541" lon="35.236473"><ele>456.7</ele><name>TP00814</name><time>2020-01-27T10:57:17Z</time></trkpt>
   <trkpt lat="31.245358" lon="35.236462"><ele>456.1</ele><name>TP00815</name><time>2020-01-27T10:57:19Z</time></trkpt>
   <trkpt lat="31.245319" lon="35.236468"><ele>455.8</ele><name>TP00816</name><time>2020-01-27T10:57:20Z</time></trkpt>
   <trkpt lat="31.24527" lon="35.236488"><ele>455.4</ele><name>TP00817</name><time>2020-01-27T10:57:22Z</time></trkpt>
   <trkpt lat="31.245227" lon="35.236506"><ele>455</ele><name>TP00818</name><time>2020-01-27T10:57:23Z</time></trkpt>
   <trkpt lat="31.245131" lon="35.236536"><ele>453.8</ele><name>TP00819</name><time>2020-01-27T10:57:24Z</time></trkpt>
   <trkpt lat="31.245021" lon="35.236574"><ele>452.2</ele><name>TP00820</name><time>2020-01-27T10:57:26Z</time></trkpt>
   <trkpt lat="31.244894" lon="35.236627"><ele>451.1</ele><name>TP00821</name><time>2020-01-27T10:57:28Z</time></trkpt>
   <trkpt lat="31.244824" lon="35.236653"><ele>450.6</ele><name>TP00822</name><time>2020-01-27T10:57:29Z</time></trkpt>
   <trkpt lat="31.244679" lon="35.236695"><ele>449.7</ele><name>TP00823</name><time>2020-01-27T10:57:31Z</time></trkpt>
   <trkpt lat="31.244613" lon="35.236719"><ele>449.1</ele><name>TP00824</name><time>2020-01-27T10:57:32Z</time></trkpt>
   <trkpt lat="31.244554" lon="35.236748"><ele>448.4</ele><name>TP00825</name><time>2020-01-27T10:57:33Z</time></trkpt>
   <trkpt lat="31.24452" lon="35.236783"><ele>447.8</ele><name>TP00826</name><time>2020-01-27T10:57:34Z</time></trkpt>
   <trkpt lat="31.244451" lon="35.236846"><ele>446.5</ele><name>TP00827</name><time>2020-01-27T10:57:36Z</time></trkpt>
   <trkpt lat="31.244362" lon="35.236921"><ele>444.6</ele><name>TP00828</name><time>2020-01-27T10:57:38Z</time></trkpt>
   <trkpt lat="31.244311" lon="35.236967"><ele>443.9</ele><name>TP00829</name><time>2020-01-27T10:57:39Z</time></trkpt>
   <trkpt lat="31.244195" lon="35.237051"><ele>442.3</ele><name>TP00830</name><time>2020-01-27T10:57:41Z</time></trkpt>
   <trkpt lat="31.244084" lon="35.237119"><ele>440.9</ele><name>TP00831</name><time>2020-01-27T10:57:43Z</time></trkpt>
   <trkpt lat="31.243985" lon="35.237177"><ele>440</ele><name>TP00832</name><time>2020-01-27T10:57:45Z</time></trkpt>
   <trkpt lat="31.243912" lon="35.237258"><ele>439.1</ele><name>TP00833</name><time>2020-01-27T10:57:47Z</time></trkpt>
   <trkpt lat="31.243876" lon="35.2373"><ele>438.5</ele><name>TP00834</name><time>2020-01-27T10:57:48Z</time></trkpt>
   <trkpt lat="31.243849" lon="35.23735"><ele>438.1</ele><name>TP00835</name><time>2020-01-27T10:57:49Z</time></trkpt>
   <trkpt lat="31.243812" lon="35.23746"><ele>437.3</ele><name>TP00836</name><time>2020-01-27T10:57:51Z</time></trkpt>
   <trkpt lat="31.2438" lon="35.237516"><ele>436.9</ele><name>TP00837</name><time>2020-01-27T10:57:52Z</time></trkpt>
   <trkpt lat="31.243789" lon="35.237573"><ele>436.6</ele><name>TP00838</name><time>2020-01-27T10:57:53Z</time></trkpt>
   <trkpt lat="31.243774" lon="35.237625"><ele>436.3</ele><name>TP00839</name><time>2020-01-27T10:57:54Z</time></trkpt>
   <trkpt lat="31.243731" lon="35.237683"><ele>435.9</ele><name>TP00840</name><time>2020-01-27T10:57:56Z</time></trkpt>
   <trkpt lat="31.243675" lon="35.237731"><ele>435.6</ele><name>TP00841</name><time>2020-01-27T10:57:58Z</time></trkpt>
   <trkpt lat="31.243645" lon="35.237752"><ele>435.5</ele><name>TP00842</name><time>2020-01-27T10:57:59Z</time></trkpt>
   <trkpt lat="31.243581" lon="35.237784"><ele>435.2</ele><name>TP00843</name><time>2020-01-27T10:58:01Z</time></trkpt>
   <trkpt lat="31.24354" lon="35.23779"><ele>435</ele><name>TP00844</name><time>2020-01-27T10:58:03Z</time></trkpt>
   <trkpt lat="31.243498" lon="35.237796"><ele>434.8</ele><name>TP00845</name><time>2020-01-27T10:58:04Z</time></trkpt>
   <trkpt lat="31.243422" lon="35.237798"><ele>434.5</ele><name>TP00846</name><time>2020-01-27T10:58:05Z</time></trkpt>
   <trkpt lat="31.243363" lon="35.237793"><ele>434</ele><name>TP00847</name><time>2020-01-27T10:58:06Z</time></trkpt>
   <trkpt lat="31.243191" lon="35.237758"><ele>432.7</ele><name>TP00848</name><time>2020-01-27T10:58:08Z</time></trkpt>
   <trkpt lat="31.24315" lon="35.237784"><ele>432.3</ele><name>TP00849</name><time>2020-01-27T10:58:10Z</time></trkpt>
   <trkpt lat="31.24312" lon="35.237798"><ele>431.9</ele><name>TP00850</name><time>2020-01-27T10:58:11Z</time></trkpt>
   <trkpt lat="31.243071" lon="35.237811"><ele>431.4</ele><name>TP00851</name><time>2020-01-27T10:58:12Z</time></trkpt>
   <trkpt lat="31.242997" lon="35.237868"><ele>430.7</ele><name>TP00852</name><time>2020-01-27T10:58:14Z</time></trkpt>
   <trkpt lat="31.242932" lon="35.237951"><ele>429.8</ele><name>TP00853</name><time>2020-01-27T10:58:16Z</time></trkpt>
   <trkpt lat="31.242917" lon="35.237982"><ele>429.5</ele><name>TP00854</name><time>2020-01-27T10:58:17Z</time></trkpt>
   <trkpt lat="31.24287" lon="35.238054"><ele>428.7</ele><name>TP00855</name><time>2020-01-27T10:58:19Z</time></trkpt>
   <trkpt lat="31.242821" lon="35.23817"><ele>427.7</ele><name>TP00856</name><time>2020-01-27T10:58:21Z</time></trkpt>
   <trkpt lat="31.242809" lon="35.238235"><ele>427.3</ele><name>TP00857</name><time>2020-01-27T10:58:23Z</time></trkpt>
   <trkpt lat="31.242798" lon="35.238255"><ele>427.2</ele><name>TP00858</name><time>2020-01-27T10:58:25Z</time></trkpt>
   <trkpt lat="31.242789" lon="35.238264"><ele>427.2</ele><name>TP00859</name><time>2020-01-27T10:58:27Z</time></trkpt>
   <trkpt lat="31.24278" lon="35.238261"><ele>427.1</ele><name>TP00860</name><time>2020-01-27T10:58:28Z</time></trkpt>
   <trkpt lat="31.242767" lon="35.238257"><ele>427.1</ele><name>TP00861</name><time>2020-01-27T10:58:30Z</time></trkpt>
   <trkpt lat="31.242766" lon="35.23826"><ele>427.1</ele><name>TP00862</name><time>2020-01-27T10:58:31Z</time></trkpt>
   <trkpt lat="31.242812" lon="35.238206"><ele>426.8</ele><name>TP00863</name><time>2020-01-27T10:58:33Z</time></trkpt>
   <trkpt lat="31.242807" lon="35.238216"><ele>426.8</ele><name>TP00864</name><time>2020-01-27T10:58:34Z</time></trkpt>
   <trkpt lat="31.242802" lon="35.238224"><ele>426.7</ele><name>TP00865</name><time>2020-01-27T10:58:35Z</time></trkpt>
   <trkpt lat="31.242801" lon="35.238218"><ele>426.7</ele><name>TP00866</name><time>2020-01-27T10:58:37Z</time></trkpt>
   <trkpt lat="31.242807" lon="35.238207"><ele>426.7</ele><name>TP00867</name><time>2020-01-27T10:58:39Z</time></trkpt>
   <trkpt lat="31.242808" lon="35.238205"><ele>426.7</ele><name>TP00868</name><time>2020-01-27T10:58:40Z</time></trkpt>
   <trkpt lat="31.242812" lon="35.238213"><ele>426.6</ele><name>TP00869</name><time>2020-01-27T10:58:41Z</time></trkpt>
   <trkpt lat="31.242817" lon="35.238246"><ele>426.5</ele><name>TP00870</name><time>2020-01-27T10:58:43Z</time></trkpt>
   <trkpt lat="31.242818" lon="35.238255"><ele>426.5</ele><name>TP00871</name><time>2020-01-27T10:58:44Z</time></trkpt>
   <trkpt lat="31.242828" lon="35.238286"><ele>426.4</ele><name>TP00872</name><time>2020-01-27T10:58:46Z</time></trkpt>
   <trkpt lat="31.242833" lon="35.238324"><ele>426.2</ele><name>TP00873</name><time>2020-01-27T10:58:47Z</time></trkpt>
   <trkpt lat="31.242833" lon="35.238393"><ele>426</ele><name>TP00874</name><time>2020-01-27T10:58:48Z</time></trkpt>
   <trkpt lat="31.24282" lon="35.238482"><ele>425.6</ele><name>TP00875</name><time>2020-01-27T10:58:50Z</time></trkpt>
   <trkpt lat="31.24281" lon="35.238495"><ele>425.6</ele><name>TP00876</name><time>2020-01-27T10:58:51Z</time></trkpt>
   <trkpt lat="31.242807" lon="35.238559"><ele>425.4</ele><name>TP00877</name><time>2020-01-27T10:58:53Z</time></trkpt>
   <trkpt lat="31.242808" lon="35.238601"><ele>425.3</ele><name>TP00878</name><time>2020-01-27T10:58:54Z</time></trkpt>
   <trkpt lat="31.242812" lon="35.238668"><ele>425.1</ele><name>TP00879</name><time>2020-01-27T10:58:56Z</time></trkpt>
   <trkpt lat="31.242819" lon="35.238732"><ele>424.8</ele><name>TP00880</name><time>2020-01-27T10:58:57Z</time></trkpt>
   <trkpt lat="31.242823" lon="35.238784"><ele>424.6</ele><name>TP00881</name><time>2020-01-27T10:58:58Z</time></trkpt>
   <trkpt lat="31.242809" lon="35.238857"><ele>424.3</ele><name>TP00882</name><time>2020-01-27T10:59:00Z</time></trkpt>
   <trkpt lat="31.242781" lon="35.238881"><ele>424.1</ele><name>TP00883</name><time>2020-01-27T10:59:01Z</time></trkpt>
   <trkpt lat="31.242768" lon="35.238883"><ele>424.1</ele><name>TP00884</name><time>2020-01-27T10:59:02Z</time></trkpt>
   <trkpt lat="31.242743" lon="35.238877"><ele>423.9</ele><name>TP00885</name><time>2020-01-27T10:59:03Z</time></trkpt>
   <trkpt lat="31.24272" lon="35.238874"><ele>423.8</ele><name>TP00886</name><time>2020-01-27T10:59:05Z</time></trkpt>
   <trkpt lat="31.24269" lon="35.23888"><ele>423.7</ele><name>TP00887</name><time>2020-01-27T10:59:06Z</time></trkpt>
   <trkpt lat="31.242658" lon="35.23889"><ele>423.6</ele><name>TP00888</name><time>2020-01-27T10:59:08Z</time></trkpt>
   <trkpt lat="31.24263" lon="35.23891"><ele>423.4</ele><name>TP00889</name><time>2020-01-27T10:59:09Z</time></trkpt>
   <trkpt lat="31.2426" lon="35.238931"><ele>423.2</ele><name>TP00890</name><time>2020-01-27T10:59:11Z</time></trkpt>
   <trkpt lat="31.242586" lon="35.238942"><ele>423.1</ele><name>TP00891</name><time>2020-01-27T10:59:12Z</time></trkpt>
   <trkpt lat="31.242561" lon="35.238952"><ele>423</ele><name>TP00892</name><time>2020-01-27T10:59:14Z</time></trkpt>
   <trkpt lat="31.242539" lon="35.23898"><ele>422.8</ele><name>TP00893</name><time>2020-01-27T10:59:15Z</time></trkpt>
   <trkpt lat="31.242536" lon="35.238989"><ele>422.8</ele><name>TP00894</name><time>2020-01-27T10:59:16Z</time></trkpt>
   <trkpt lat="31.242507" lon="35.239013"><ele>422.6</ele><name>TP00895</name><time>2020-01-27T10:59:18Z</time></trkpt>
   <trkpt lat="31.242494" lon="35.239026"><ele>422.5</ele><name>TP00896</name><time>2020-01-27T10:59:19Z</time></trkpt>
   <trkpt lat="31.242487" lon="35.239039"><ele>422.4</ele><name>TP00897</name><time>2020-01-27T10:59:21Z</time></trkpt>
   <trkpt lat="31.242485" lon="35.239041"><ele>422.4</ele><name>TP00898</name><time>2020-01-27T10:59:23Z</time></trkpt>
   <trkpt lat="31.242483" lon="35.23904"><ele>422.4</ele><name>TP00899</name><time>2020-01-27T10:59:24Z</time></trkpt>
   <trkpt lat="31.242481" lon="35.23904"><ele>422.4</ele><name>TP00900</name><time>2020-01-27T10:59:25Z</time></trkpt>
   <trkpt lat="31.242482" lon="35.23904"><ele>422.4</ele><name>TP00901</name><time>2020-01-27T10:59:26Z</time></trkpt>
   <trkpt lat="31.242474" lon="35.239042"><ele>422.3</ele><name>TP00902</name><time>2020-01-27T10:59:28Z</time></trkpt>
   <trkpt lat="31.242467" lon="35.239039"><ele>422.3</ele><name>TP00903</name><time>2020-01-27T10:59:29Z</time></trkpt>
   <trkpt lat="31.242462" lon="35.23904"><ele>422.2</ele><name>TP00904</name><time>2020-01-27T10:59:31Z</time></trkpt>
   <trkpt lat="31.242445" lon="35.239043"><ele>422.1</ele><name>TP00905</name><time>2020-01-27T10:59:32Z</time></trkpt>
   <trkpt lat="31.242438" lon="35.239043"><ele>422.1</ele><name>TP00906</name><time>2020-01-27T10:59:33Z</time></trkpt>
   <trkpt lat="31.242432" lon="35.239041"><ele>422.1</ele><name>TP00907</name><time>2020-01-27T10:59:34Z</time></trkpt>
   <trkpt lat="31.242429" lon="35.239038"><ele>422.1</ele><name>TP00908</name><time>2020-01-27T10:59:36Z</time></trkpt>
   <trkpt lat="31.24242" lon="35.239041"><ele>422</ele><name>TP00909</name><time>2020-01-27T10:59:37Z</time></trkpt>
   <trkpt lat="31.242416" lon="35.239043"><ele>422</ele><name>TP00910</name><time>2020-01-27T10:59:38Z</time></trkpt>
   <trkpt lat="31.242431" lon="35.239046"><ele>421.8</ele><name>TP00911</name><time>2020-01-27T10:59:40Z</time></trkpt>
   <trkpt lat="31.242417" lon="35.23905"><ele>421.7</ele><name>TP00912</name><time>2020-01-27T10:59:42Z</time></trkpt>
   <trkpt lat="31.242421" lon="35.239052"><ele>421.6</ele><name>TP00913</name><time>2020-01-27T10:59:44Z</time></trkpt>
   <trkpt lat="31.242414" lon="35.239055"><ele>421.5</ele><name>TP00914</name><time>2020-01-27T10:59:45Z</time></trkpt>
   <trkpt lat="31.242411" lon="35.239054"><ele>421.5</ele><name>TP00915</name><time>2020-01-27T10:59:46Z</time></trkpt>
   <trkpt lat="31.242408" lon="35.239056"><ele>421.5</ele><name>TP00916</name><time>2020-01-27T10:59:47Z</time></trkpt>
   <trkpt lat="31.242407" lon="35.239057"><ele>421.4</ele><name>TP00917</name><time>2020-01-27T10:59:49Z</time></trkpt>
   <trkpt lat="31.242404" lon="35.239059"><ele>421.4</ele><name>TP00918</name><time>2020-01-27T10:59:50Z</time></trkpt>
   <trkpt lat="31.242403" lon="35.239061"><ele>421.4</ele><name>TP00919</name><time>2020-01-27T10:59:51Z</time></trkpt>
   <trkpt lat="31.242402" lon="35.239063"><ele>421.4</ele><name>TP00920</name><time>2020-01-27T10:59:52Z</time></trkpt>
   <trkpt lat="31.242397" lon="35.239068"><ele>421.3</ele><name>TP00921</name><time>2020-01-27T10:59:54Z</time></trkpt>
   <trkpt lat="31.242398" lon="35.239067"><ele>421.3</ele><name>TP00922</name><time>2020-01-27T10:59:56Z</time></trkpt>
   <trkpt lat="31.242398" lon="35.239067"><ele>421.3</ele><name>TP00923</name><time>2020-01-27T10:59:58Z</time></trkpt>
   <trkpt lat="31.242397" lon="35.239067"><ele>421.3</ele><name>TP00924</name><time>2020-01-27T10:59:59Z</time></trkpt>
   <trkpt lat="31.242397" lon="35.239066"><ele>421.3</ele><name>TP00925</name><time>2020-01-27T11:00:00Z</time></trkpt>
   <trkpt lat="31.242397" lon="35.239066"><ele>421.3</ele><name>TP00926</name><time>2020-01-27T11:00:01Z</time></trkpt>
   <trkpt lat="31.242397" lon="35.239066"><ele>421.3</ele><name>TP00927</name><time>2020-01-27T11:00:02Z</time></trkpt>
   <trkpt lat="31.242393" lon="35.239061"><ele>421.2</ele><name>TP00928</name><time>2020-01-27T11:00:03Z</time></trkpt>
   <trkpt lat="31.242392" lon="35.239059"><ele>421.2</ele><name>TP00929</name><time>2020-01-27T11:00:05Z</time></trkpt>
   <trkpt lat="31.242392" lon="35.239059"><ele>421.2</ele><name>TP00930</name><time>2020-01-27T11:00:06Z</time></trkpt>
   <trkpt lat="31.242392" lon="35.239059"><ele>421.2</ele><name>TP00931</name><time>2020-01-27T11:00:07Z</time></trkpt>
   <trkpt lat="31.242392" lon="35.239059"><ele>421.2</ele><name>TP00932</name><time>2020-01-27T11:00:09Z</time></trkpt>
   <trkpt lat="31.242392" lon="35.239059"><ele>421.2</ele><name>TP00933</name><time>2020-01-27T11:00:11Z</time></trkpt>
   <trkpt lat="31.242392" lon="35.239059"><ele>421.2</ele><name>TP00934</name><time>2020-01-27T11:00:13Z</time></trkpt>
   <trkpt lat="31.242392" lon="35.239059"><ele>421.2</ele><name>TP00935</name><time>2020-01-27T11:00:15Z</time></trkpt>
   <trkpt lat="31.242392" lon="35.239059"><ele>421.2</ele><name>TP00936</name><time>2020-01-27T11:00:16Z</time></trkpt>
   <trkpt lat="31.242379" lon="35.239075"><ele>420.9</ele><name>TP00937</name><time>2020-01-27T11:00:18Z</time></trkpt>
   <trkpt lat="31.242358" lon="35.239105"><ele>420.5</ele><name>TP00938</name><time>2020-01-27T11:00:19Z</time></trkpt>
   <trkpt lat="31.242335" lon="35.239138"><ele>420.1</ele><name>TP00939</name><time>2020-01-27T11:00:21Z</time></trkpt>
   <trkpt lat="31.242319" lon="35.23917"><ele>419.8</ele><name>TP00940</name><time>2020-01-27T11:00:22Z</time></trkpt>
   <trkpt lat="31.242288" lon="35.23922"><ele>419.5</ele><name>TP00941</name><time>2020-01-27T11:00:23Z</time></trkpt>
   <trkpt lat="31.242263" lon="35.239274"><ele>419.1</ele><name>TP00942</name><time>2020-01-27T11:00:25Z</time></trkpt>
   <trkpt lat="31.242249" lon="35.239325"><ele>418.8</ele><name>TP00943</name><time>2020-01-27T11:00:26Z</time></trkpt>
   <trkpt lat="31.242249" lon="35.239387"><ele>418.4</ele><name>TP00944</name><time>2020-01-27T11:00:27Z</time></trkpt>
   <trkpt lat="31.242222" lon="35.239468"><ele>417.8</ele><name>TP00945</name><time>2020-01-27T11:00:28Z</time></trkpt>
   <trkpt lat="31.242205" lon="35.239521"><ele>417.4</ele><name>TP00946</name><time>2020-01-27T11:00:29Z</time></trkpt>
   <trkpt lat="31.242185" lon="35.239618"><ele>416.8</ele><name>TP00947</name><time>2020-01-27T11:00:31Z</time></trkpt>
   <trkpt lat="31.242168" lon="35.239683"><ele>416.4</ele><name>TP00948</name><time>2020-01-27T11:00:32Z</time></trkpt>
   <trkpt lat="31.24215" lon="35.239822"><ele>415.3</ele><name>TP00949</name><time>2020-01-27T11:00:34Z</time></trkpt>
   <trkpt lat="31.242131" lon="35.23993"><ele>414.3</ele><name>TP00950</name><time>2020-01-27T11:00:36Z</time></trkpt>
   <trkpt lat="31.242122" lon="35.239971"><ele>413.9</ele><name>TP00951</name><time>2020-01-27T11:00:37Z</time></trkpt>
   <trkpt lat="31.242101" lon="35.240028"><ele>413.3</ele><name>TP00952</name><time>2020-01-27T11:00:38Z</time></trkpt>
   <trkpt lat="31.242048" lon="35.240158"><ele>412.1</ele><name>TP00953</name><time>2020-01-27T11:00:40Z</time></trkpt>
   <trkpt lat="31.242016" lon="35.240225"><ele>411.5</ele><name>TP00954</name><time>2020-01-27T11:00:41Z</time></trkpt>
   <trkpt lat="31.241979" lon="35.240284"><ele>410.9</ele><name>TP00955</name><time>2020-01-27T11:00:42Z</time></trkpt>
   <trkpt lat="31.241924" lon="35.240399"><ele>409.7</ele><name>TP00956</name><time>2020-01-27T11:00:44Z</time></trkpt>
   <trkpt lat="31.241904" lon="35.240463"><ele>408.7</ele><name>TP00957</name><time>2020-01-27T11:00:45Z</time></trkpt>
   <trkpt lat="31.241886" lon="35.240526"><ele>407.7</ele><name>TP00958</name><time>2020-01-27T11:00:46Z</time></trkpt>
   <trkpt lat="31.241852" lon="35.240635"><ele>406.3</ele><name>TP00959</name><time>2020-01-27T11:00:48Z</time></trkpt>
   <trkpt lat="31.2418" lon="35.240733"><ele>404.9</ele><name>TP00960</name><time>2020-01-27T11:00:50Z</time></trkpt>
   <trkpt lat="31.241778" lon="35.240793"><ele>404.1</ele><name>TP00961</name><time>2020-01-27T11:00:52Z</time></trkpt>
   <trkpt lat="31.24173" lon="35.240862"><ele>403</ele><name>TP00962</name><time>2020-01-27T11:00:54Z</time></trkpt>
   <trkpt lat="31.241699" lon="35.240884"><ele>402.4</ele><name>TP00963</name><time>2020-01-27T11:00:55Z</time></trkpt>
   <trkpt lat="31.241689" lon="35.240889"><ele>402.2</ele><name>TP00964</name><time>2020-01-27T11:00:56Z</time></trkpt>
   <trkpt lat="31.241655" lon="35.240927"><ele>401.4</ele><name>TP00965</name><time>2020-01-27T11:00:58Z</time></trkpt>
   <trkpt lat="31.241628" lon="35.240933"><ele>400.9</ele><name>TP00966</name><time>2020-01-27T11:00:59Z</time></trkpt>
   <trkpt lat="31.241589" lon="35.240989"><ele>399.8</ele><name>TP00967</name><time>2020-01-27T11:01:01Z</time></trkpt>
   <trkpt lat="31.241564" lon="35.241041"><ele>399</ele><name>TP00968</name><time>2020-01-27T11:01:02Z</time></trkpt>
   <trkpt lat="31.241551" lon="35.241082"><ele>398.4</ele><name>TP00969</name><time>2020-01-27T11:01:04Z</time></trkpt>
   <trkpt lat="31.24154" lon="35.241102"><ele>398.1</ele><name>TP00970</name><time>2020-01-27T11:01:05Z</time></trkpt>
   <trkpt lat="31.241535" lon="35.241107"><ele>398</ele><name>TP00971</name><time>2020-01-27T11:01:06Z</time></trkpt>
   <trkpt lat="31.241525" lon="35.241112"><ele>397.8</ele><name>TP00972</name><time>2020-01-27T11:01:08Z</time></trkpt>
   <trkpt lat="31.241518" lon="35.241112"><ele>397.7</ele><name>TP00973</name><time>2020-01-27T11:01:10Z</time></trkpt>
   <trkpt lat="31.241514" lon="35.241111"><ele>397.6</ele><name>TP00974</name><time>2020-01-27T11:01:11Z</time></trkpt>
   <trkpt lat="31.241515" lon="35.241106"><ele>397.6</ele><name>TP00975</name><time>2020-01-27T11:01:12Z</time></trkpt>
   <trkpt lat="31.241507" lon="35.241107"><ele>397.4</ele><name>TP00976</name><time>2020-01-27T11:01:14Z</time></trkpt>
   <trkpt lat="31.241503" lon="35.241108"><ele>397.4</ele><name>TP00977</name><time>2020-01-27T11:01:16Z</time></trkpt>
   <trkpt lat="31.241538" lon="35.24109"><ele>396.7</ele><name>TP00978</name><time>2020-01-27T11:01:18Z</time></trkpt>
   <trkpt lat="31.241546" lon="35.241086"><ele>396.5</ele><name>TP00979</name><time>2020-01-27T11:01:20Z</time></trkpt>
   <trkpt lat="31.241547" lon="35.241085"><ele>396.5</ele><name>TP00980</name><time>2020-01-27T11:01:21Z</time></trkpt>
   <trkpt lat="31.241547" lon="35.241085"><ele>396.5</ele><name>TP00981</name><time>2020-01-27T11:01:22Z</time></trkpt>
   <trkpt lat="31.241547" lon="35.241085"><ele>396.5</ele><name>TP00982</name><time>2020-01-27T11:01:23Z</time></trkpt>
   <trkpt lat="31.241548" lon="35.241085"><ele>396.5</ele><name>TP00983</name><time>2020-01-27T11:01:25Z</time></trkpt>
   <trkpt lat="31.241548" lon="35.241085"><ele>396.5</ele><name>TP00984</name><time>2020-01-27T11:01:26Z</time></trkpt>
   <trkpt lat="31.241548" lon="35.241085"><ele>396.5</ele><name>TP00985</name><time>2020-01-27T11:01:28Z</time></trkpt>
   <trkpt lat="31.241548" lon="35.241085"><ele>396.5</ele><name>TP00986</name><time>2020-01-27T11:01:30Z</time></trkpt>
   <trkpt lat="31.241548" lon="35.241085"><ele>396.5</ele><name>TP00987</name><time>2020-01-27T11:01:32Z</time></trkpt>
   <trkpt lat="31.241548" lon="35.241085"><ele>396.5</ele><name>TP00988</name><time>2020-01-27T11:01:33Z</time></trkpt>
   <trkpt lat="31.241548" lon="35.241085"><ele>396.5</ele><name>TP00989</name><time>2020-01-27T11:01:34Z</time></trkpt>
   <trkpt lat="31.241548" lon="35.241085"><ele>396.5</ele><name>TP00990</name><time>2020-01-27T11:01:35Z</time></trkpt>
   <trkpt lat="31.241548" lon="35.241085"><ele>396.5</ele><name>TP00991</name><time>2020-01-27T11:01:37Z</time></trkpt>
   <trkpt lat="31.241548" lon="35.241085"><ele>396.5</ele><name>TP00992</name><time>2020-01-27T11:01:38Z</time></trkpt>
   <trkpt lat="31.241548" lon="35.241085"><ele>396.5</ele><name>TP00993</name><time>2020-01-27T11:01:39Z</time></trkpt>
   <trkpt lat="31.241548" lon="35.241085"><ele>396.5</ele><name>TP00994</name><time>2020-01-27T11:01:41Z</time></trkpt>
   <trkpt lat="31.241548" lon="35.241085"><ele>396.5</ele><name>TP00995</name><time>2020-01-27T11:01:43Z</time></trkpt>
   <trkpt lat="31.241548" lon="35.241085"><ele>396.5</ele><name>TP00996</name><time>2020-01-27T11:01:45Z</time></trkpt>
   <trkpt lat="31.241548" lon="35.241085"><ele>396.5</ele><name>TP00997</name><time>2020-01-27T11:01:46Z</time></trkpt>
   <trkpt lat="31.241548" lon="35.241085"><ele>396.5</ele><name>TP00998</name><time>2020-01-27T11:01:48Z</time></trkpt>
   <trkpt lat="31.241548" lon="35.241085"><ele>396.5</ele><name>TP00999</name><time>2020-01-27T11:01:49Z</time></trkpt>
   <trkpt lat="31.241548" lon="35.241085"><ele>396.5</ele><name>TP01000</name><time>2020-01-27T11:01:51Z</time></trkpt>
   <trkpt lat="31.241548" lon="35.241085"><ele>396.5</ele><name>TP01001</name><time>2020-01-27T11:01:53Z</time></trkpt>
   <trkpt lat="31.241548" lon="35.241085"><ele>396.5</ele><name>TP01002</name><time>2020-01-27T11:01:55Z</time></trkpt>
   <trkpt lat="31.241548" lon="35.241085"><ele>396.5</ele><name>TP01003</name><time>2020-01-27T11:01:57Z</time></trkpt>
   <trkpt lat="31.241548" lon="35.241085"><ele>396.5</ele><name>TP01004</name><time>2020-01-27T11:01:58Z</time></trkpt>
   <trkpt lat="31.241548" lon="35.241085"><ele>396.5</ele><name>TP01005</name><time>2020-01-27T11:01:59Z</time></trkpt>
   <trkpt lat="31.241548" lon="35.241085"><ele>396.5</ele><name>TP01006</name><time>2020-01-27T11:02:00Z</time></trkpt>
   <trkpt lat="31.241548" lon="35.241085"><ele>396.5</ele><name>TP01007</name><time>2020-01-27T11:02:02Z</time></trkpt>
   <trkpt lat="31.241548" lon="35.241085"><ele>396.5</ele><name>TP01008</name><time>2020-01-27T11:02:03Z</time></trkpt>
   <trkpt lat="31.241548" lon="35.241085"><ele>396.5</ele><name>TP01009</name><time>2020-01-27T11:02:05Z</time></trkpt>
   <trkpt lat="31.241548" lon="35.241085"><ele>396.5</ele><name>TP01010</name><time>2020-01-27T11:02:07Z</time></trkpt>
   <trkpt lat="31.241548" lon="35.241085"><ele>396.5</ele><name>TP01011</name><time>2020-01-27T11:02:09Z</time></trkpt>
   <trkpt lat="31.241548" lon="35.241085"><ele>396.5</ele><name>TP01012</name><time>2020-01-27T11:02:10Z</time></trkpt>
   <trkpt lat="31.241548" lon="35.241085"><ele>396.5</ele><name>TP01013</name><time>2020-01-27T11:02:12Z</time></trkpt>
   <trkpt lat="31.241548" lon="35.241085"><ele>396.5</ele><name>TP01014</name><time>2020-01-27T11:02:14Z</time></trkpt>
   <trkpt lat="31.241548" lon="35.241085"><ele>396.5</ele><name>TP01015</name><time>2020-01-27T11:02:16Z</time></trkpt>
   <trkpt lat="31.241548" lon="35.241085"><ele>396.5</ele><name>TP01016</name><time>2020-01-27T11:02:17Z</time></trkpt>
   <trkpt lat="31.241548" lon="35.241085"><ele>396.5</ele><name>TP01017</name><time>2020-01-27T11:02:18Z</time></trkpt>
   <trkpt lat="31.241548" lon="35.241085"><ele>396.5</ele><name>TP01018</name><time>2020-01-27T11:02:20Z</time></trkpt>
   <trkpt lat="31.241548" lon="35.241085"><ele>396.5</ele><name>TP01019</name><time>2020-01-27T11:02:22Z</time></trkpt>
   <trkpt lat="31.241548" lon="35.241085"><ele>396.5</ele><name>TP01020</name><time>2020-01-27T11:02:24Z</time></trkpt>
   <trkpt lat="31.241548" lon="35.241085"><ele>396.5</ele><name>TP01021</name><time>2020-01-27T11:02:26Z</time></trkpt>
   <trkpt lat="31.241548" lon="35.241085"><ele>396.5</ele><name>TP01022</name><time>2020-01-27T11:02:27Z</time></trkpt>
   <trkpt lat="31.241548" lon="35.241085"><ele>396.5</ele><name>TP01023</name><time>2020-01-27T11:02:29Z</time></trkpt>
   <trkpt lat="31.241548" lon="35.241085"><ele>396.5</ele><name>TP01024</name><time>2020-01-27T11:02:30Z</time></trkpt>
   <trkpt lat="31.241548" lon="35.241085"><ele>396.5</ele><name>TP01025</name><time>2020-01-27T11:02:31Z</time></trkpt>
   <trkpt lat="31.241548" lon="35.241085"><ele>396.5</ele><name>TP01026</name><time>2020-01-27T11:02:32Z</time></trkpt>
   <trkpt lat="31.241548" lon="35.241085"><ele>396.5</ele><name>TP01027</name><time>2020-01-27T11:02:34Z</time></trkpt>
   <trkpt lat="31.241548" lon="35.241085"><ele>396.5</ele><name>TP01028</name><time>2020-01-27T11:02:36Z</time></trkpt>
   <trkpt lat="31.241548" lon="35.241085"><ele>396.5</ele><name>TP01029</name><time>2020-01-27T11:02:37Z</time></trkpt>
   <trkpt lat="31.241548" lon="35.241085"><ele>396.5</ele><name>TP01030</name><time>2020-01-27T11:02:38Z</time></trkpt>
   <trkpt lat="31.241548" lon="35.241085"><ele>396.5</ele><name>TP01031</name><time>2020-01-27T11:02:40Z</time></trkpt>
   <trkpt lat="31.241548" lon="35.241085"><ele>396.5</ele><name>TP01032</name><time>2020-01-27T11:02:41Z</time></trkpt>
   <trkpt lat="31.241548" lon="35.241085"><ele>396.5</ele><name>TP01033</name><time>2020-01-27T11:02:42Z</time></trkpt>
   <trkpt lat="31.241548" lon="35.241085"><ele>396.5</ele><name>TP01034</name><time>2020-01-27T11:02:43Z</time></trkpt>
   <trkpt lat="31.241548" lon="35.241085"><ele>396.5</ele><name>TP01035</name><time>2020-01-27T11:02:45Z</time></trkpt>
   <trkpt lat="31.241548" lon="35.241085"><ele>396.5</ele><name>TP01036</name><time>2020-01-27T11:02:47Z</time></trkpt>
   <trkpt lat="31.241548" lon="35.241085"><ele>396.5</ele><name>TP01037</name><time>2020-01-27T11:02:48Z</time></trkpt>
   <trkpt lat="31.241542" lon="35.241089"><ele>396.4</ele><name>TP01038</name><time>2020-01-27T11:02:49Z</time></trkpt>
   <trkpt lat="31.241526" lon="35.241129"><ele>395.7</ele><name>TP01039</name><time>2020-01-27T11:02:51Z</time></trkpt>
   <trkpt lat="31.2415" lon="35.241213"><ele>394.3</ele><name>TP01040</name><time>2020-01-27T11:02:53Z</time></trkpt>
   <trkpt lat="31.241491" lon="35.241366"><ele>391.3</ele><name>TP01041</name><time>2020-01-27T11:02:55Z</time></trkpt>
   <trkpt lat="31.241488" lon="35.241415"><ele>390.1</ele><name>TP01042</name><time>2020-01-27T11:02:56Z</time></trkpt>
   <trkpt lat="31.241481" lon="35.241479"><ele>388.5</ele><name>TP01043</name><time>2020-01-27T11:02:58Z</time></trkpt>
   <trkpt lat="31.241461" lon="35.241526"><ele>387.3</ele><name>TP01044</name><time>2020-01-27T11:02:59Z</time></trkpt>
   <trkpt lat="31.241455" lon="35.241549"><ele>386.7</ele><name>TP01045</name><time>2020-01-27T11:03:00Z</time></trkpt>
   <trkpt lat="31.241455" lon="35.241689"><ele>384</ele><name>TP01046</name><time>2020-01-27T11:03:02Z</time></trkpt>
   <trkpt lat="31.241478" lon="35.241828"><ele>381.3</ele><name>TP01047</name><time>2020-01-27T11:03:04Z</time></trkpt>
   <trkpt lat="31.241494" lon="35.241895"><ele>380.3</ele><name>TP01048</name><time>2020-01-27T11:03:05Z</time></trkpt>
   <trkpt lat="31.24149" lon="35.242031"><ele>377.8</ele><name>TP01049</name><time>2020-01-27T11:03:07Z</time></trkpt>
   <trkpt lat="31.241496" lon="35.242093"><ele>376.6</ele><name>TP01050</name><time>2020-01-27T11:03:08Z</time></trkpt>
   <trkpt lat="31.241527" lon="35.242227"><ele>374.1</ele><name>TP01051</name><time>2020-01-27T11:03:10Z</time></trkpt>
   <trkpt lat="31.241537" lon="35.242292"><ele>373</ele><name>TP01052</name><time>2020-01-27T11:03:11Z</time></trkpt>
   <trkpt lat="31.241543" lon="35.242358"><ele>371.8</ele><name>TP01053</name><time>2020-01-27T11:03:12Z</time></trkpt>
   <trkpt lat="31.241551" lon="35.242503"><ele>369.2</ele><name>TP01054</name><time>2020-01-27T11:03:14Z</time></trkpt>
   <trkpt lat="31.24155" lon="35.242582"><ele>367.8</ele><name>TP01055</name><time>2020-01-27T11:03:16Z</time></trkpt>
   <trkpt lat="31.241546" lon="35.242599"><ele>367.5</ele><name>TP01056</name><time>2020-01-27T11:03:17Z</time></trkpt>
   <trkpt lat="31.241544" lon="35.24261"><ele>367.3</ele><name>TP01057</name><time>2020-01-27T11:03:18Z</time></trkpt>
   <trkpt lat="31.24155" lon="35.242677"><ele>365.9</ele><name>TP01058</name><time>2020-01-27T11:03:20Z</time></trkpt>
   <trkpt lat="31.241567" lon="35.242721"><ele>365</ele><name>TP01059</name><time>2020-01-27T11:03:21Z</time></trkpt>
   <trkpt lat="31.241586" lon="35.242735"><ele>364.5</ele><name>TP01060</name><time>2020-01-27T11:03:23Z</time></trkpt>
   <trkpt lat="31.241593" lon="35.242771"><ele>363.9</ele><name>TP01061</name><time>2020-01-27T11:03:24Z</time></trkpt>
   <trkpt lat="31.241591" lon="35.24284"><ele>362.6</ele><name>TP01062</name><time>2020-01-27T11:03:25Z</time></trkpt>
   <trkpt lat="31.241586" lon="35.242895"><ele>361.7</ele><name>TP01063</name><time>2020-01-27T11:03:26Z</time></trkpt>
   <trkpt lat="31.241593" lon="35.242972"><ele>360.3</ele><name>TP01064</name><time>2020-01-27T11:03:28Z</time></trkpt>
   <trkpt lat="31.241584" lon="35.243082"><ele>357.9</ele><name>TP01065</name><time>2020-01-27T11:03:29Z</time></trkpt>
   <trkpt lat="31.241561" lon="35.243157"><ele>356.2</ele><name>TP01066</name><time>2020-01-27T11:03:31Z</time></trkpt>
   <trkpt lat="31.241549" lon="35.243246"><ele>354.5</ele><name>TP01067</name><time>2020-01-27T11:03:33Z</time></trkpt>
   <trkpt lat="31.24154" lon="35.243312"><ele>353.4</ele><name>TP01068</name><time>2020-01-27T11:03:34Z</time></trkpt>
   <trkpt lat="31.241525" lon="35.243395"><ele>351.5</ele><name>TP01069</name><time>2020-01-27T11:03:36Z</time></trkpt>
   <trkpt lat="31.241502" lon="35.24343"><ele>350.3</ele><name>TP01070</name><time>2020-01-27T11:03:37Z</time></trkpt>
   <trkpt lat="31.241511" lon="35.243473"><ele>349</ele><name>TP01071</name><time>2020-01-27T11:03:38Z</time></trkpt>
   <trkpt lat="31.241495" lon="35.24354"><ele>346.9</ele><name>TP01072</name><time>2020-01-27T11:03:40Z</time></trkpt>
   <trkpt lat="31.241459" lon="35.243586"><ele>345.2</ele><name>TP01073</name><time>2020-01-27T11:03:41Z</time></trkpt>
   <trkpt lat="31.241432" lon="35.24362"><ele>344.8</ele><name>TP01074</name><time>2020-01-27T11:03:43Z</time></trkpt>
   <trkpt lat="31.241423" lon="35.243647"><ele>344.6</ele><name>TP01075</name><time>2020-01-27T11:03:44Z</time></trkpt>
   <trkpt lat="31.241423" lon="35.243654"><ele>344.6</ele><name>TP01076</name><time>2020-01-27T11:03:45Z</time></trkpt>
   <trkpt lat="31.241413" lon="35.24367"><ele>344.4</ele><name>TP01077</name><time>2020-01-27T11:03:47Z</time></trkpt>
   <trkpt lat="31.241421" lon="35.243686"><ele>344.3</ele><name>TP01078</name><time>2020-01-27T11:03:49Z</time></trkpt>
   <trkpt lat="31.241425" lon="35.243691"><ele>344.2</ele><name>TP01079</name><time>2020-01-27T11:03:50Z</time></trkpt>
   <trkpt lat="31.241427" lon="35.243696"><ele>344.2</ele><name>TP01080</name><time>2020-01-27T11:03:51Z</time></trkpt>
   <trkpt lat="31.241432" lon="35.243703"><ele>344.1</ele><name>TP01081</name><time>2020-01-27T11:03:53Z</time></trkpt>
   <trkpt lat="31.241437" lon="35.243643"><ele>343.8</ele><name>TP01082</name><time>2020-01-27T11:03:55Z</time></trkpt>
   <trkpt lat="31.241441" lon="35.243652"><ele>343.7</ele><name>TP01083</name><time>2020-01-27T11:03:56Z</time></trkpt>
   <trkpt lat="31.241442" lon="35.243636"><ele>343.6</ele><name>TP01084</name><time>2020-01-27T11:03:58Z</time></trkpt>
   <trkpt lat="31.24144" lon="35.243626"><ele>343.6</ele><name>TP01085</name><time>2020-01-27T11:03:59Z</time></trkpt>
   <trkpt lat="31.241438" lon="35.24362"><ele>343.6</ele><name>TP01086</name><time>2020-01-27T11:04:01Z</time></trkpt>
   <trkpt lat="31.241437" lon="35.243618"><ele>343.5</ele><name>TP01087</name><time>2020-01-27T11:04:03Z</time></trkpt>
   <trkpt lat="31.241437" lon="35.243617"><ele>343.5</ele><name>TP01088</name><time>2020-01-27T11:04:04Z</time></trkpt>
   <trkpt lat="31.241437" lon="35.243617"><ele>343.5</ele><name>TP01089</name><time>2020-01-27T11:04:06Z</time></trkpt>
   <trkpt lat="31.241437" lon="35.243617"><ele>343.5</ele><name>TP01090</name><time>2020-01-27T11:04:07Z</time></trkpt>
   <trkpt lat="31.241423" lon="35.243648"><ele>343.4</ele><name>TP01091</name><time>2020-01-27T11:04:09Z</time></trkpt>
   <trkpt lat="31.241414" lon="35.243675"><ele>343.2</ele><name>TP01092</name><time>2020-01-27T11:04:11Z</time></trkpt>
   <trkpt lat="31.241412" lon="35.243673"><ele>343.2</ele><name>TP01093</name><time>2020-01-27T11:04:13Z</time></trkpt>
   <trkpt lat="31.241413" lon="35.24367"><ele>343.2</ele><name>TP01094</name><time>2020-01-27T11:04:14Z</time></trkpt>
   <trkpt lat="31.241411" lon="35.243661"><ele>343.1</ele><name>TP01095</name><time>2020-01-27T11:04:16Z</time></trkpt>
   <trkpt lat="31.241411" lon="35.243652"><ele>343.1</ele><name>TP01096</name><time>2020-01-27T11:04:18Z</time></trkpt>
   <trkpt lat="31.241415" lon="35.243649"><ele>343</ele><name>TP01097</name><time>2020-01-27T11:04:20Z</time></trkpt>
   <trkpt lat="31.241409" lon="35.24366"><ele>343</ele><name>TP01098</name><time>2020-01-27T11:04:22Z</time></trkpt>
   <trkpt lat="31.241401" lon="35.243695"><ele>342.8</ele><name>TP01099</name><time>2020-01-27T11:04:24Z</time></trkpt>
   <trkpt lat="31.241397" lon="35.2437"><ele>342.8</ele><name>TP01100</name><time>2020-01-27T11:04:26Z</time></trkpt>
   <trkpt lat="31.241396" lon="35.243706"><ele>342.7</ele><name>TP01101</name><time>2020-01-27T11:04:27Z</time></trkpt>
   <trkpt lat="31.241402" lon="35.24372"><ele>342.6</ele><name>TP01102</name><time>2020-01-27T11:04:29Z</time></trkpt>
   <trkpt lat="31.241404" lon="35.24373"><ele>342.6</ele><name>TP01103</name><time>2020-01-27T11:04:30Z</time></trkpt>
   <trkpt lat="31.241408" lon="35.24374"><ele>342.6</ele><name>TP01104</name><time>2020-01-27T11:04:32Z</time></trkpt>
   <trkpt lat="31.241409" lon="35.243743"><ele>342.7</ele><name>TP01105</name><time>2020-01-27T11:04:33Z</time></trkpt>
   <trkpt lat="31.241404" lon="35.243723"><ele>342.7</ele><name>TP01106</name><time>2020-01-27T11:04:35Z</time></trkpt>
   <trkpt lat="31.241405" lon="35.24373"><ele>342.6</ele><name>TP01107</name><time>2020-01-27T11:04:36Z</time></trkpt>
   <trkpt lat="31.241407" lon="35.243748"><ele>342.7</ele><name>TP01108</name><time>2020-01-27T11:04:38Z</time></trkpt>
   <trkpt lat="31.241411" lon="35.24377"><ele>342.5</ele><name>TP01109</name><time>2020-01-27T11:04:39Z</time></trkpt>
   <trkpt lat="31.241412" lon="35.243786"><ele>342.5</ele><name>TP01110</name><time>2020-01-27T11:04:41Z</time></trkpt>
   <trkpt lat="31.241414" lon="35.243797"><ele>342.6</ele><name>TP01111</name><time>2020-01-27T11:04:43Z</time></trkpt>
   <trkpt lat="31.24141" lon="35.243785"><ele>342.7</ele><name>TP01112</name><time>2020-01-27T11:04:45Z</time></trkpt>
   <trkpt lat="31.241412" lon="35.243788"><ele>342.8</ele><name>TP01113</name><time>2020-01-27T11:04:46Z</time></trkpt>
   <trkpt lat="31.241415" lon="35.243796"><ele>342.9</ele><name>TP01114</name><time>2020-01-27T11:04:48Z</time></trkpt>
   <trkpt lat="31.241413" lon="35.243804"><ele>342.7</ele><name>TP01115</name><time>2020-01-27T11:04:50Z</time></trkpt>
   <trkpt lat="31.241407" lon="35.243823"><ele>342.7</ele><name>TP01116</name><time>2020-01-27T11:04:51Z</time></trkpt>
   <trkpt lat="31.241393" lon="35.243834"><ele>342.8</ele><name>TP01117</name><time>2020-01-27T11:04:53Z</time></trkpt>
   <trkpt lat="31.241396" lon="35.243834"><ele>342.9</ele><name>TP01118</name><time>2020-01-27T11:04:55Z</time></trkpt>
   <trkpt lat="31.24139" lon="35.243838"><ele>343</ele><name>TP01119</name><time>2020-01-27T11:04:57Z</time></trkpt>
   <trkpt lat="31.241381" lon="35.243849"><ele>342.8</ele><name>TP01120</name><time>2020-01-27T11:04:58Z</time></trkpt>
   <trkpt lat="31.241369" lon="35.243854"><ele>342.9</ele><name>TP01121</name><time>2020-01-27T11:04:59Z</time></trkpt>
   <trkpt lat="31.241358" lon="35.243864"><ele>343</ele><name>TP01122</name><time>2020-01-27T11:05:01Z</time></trkpt>
   <trkpt lat="31.241356" lon="35.243873"><ele>343.1</ele><name>TP01123</name><time>2020-01-27T11:05:02Z</time></trkpt>
   <trkpt lat="31.241356" lon="35.24388"><ele>343.2</ele><name>TP01124</name><time>2020-01-27T11:05:03Z</time></trkpt>
   <trkpt lat="31.241363" lon="35.243874"><ele>343.3</ele><name>TP01125</name><time>2020-01-27T11:05:04Z</time></trkpt>
   <trkpt lat="31.241362" lon="35.243878"><ele>343.3</ele><name>TP01126</name><time>2020-01-27T11:05:05Z</time></trkpt>
   <trkpt lat="31.241359" lon="35.243881"><ele>343.4</ele><name>TP01127</name><time>2020-01-27T11:05:06Z</time></trkpt>
   <trkpt lat="31.241351" lon="35.243884"><ele>343.4</ele><name>TP01128</name><time>2020-01-27T11:05:08Z</time></trkpt>
   <trkpt lat="31.241347" lon="35.243883"><ele>343.7</ele><name>TP01129</name><time>2020-01-27T11:05:10Z</time></trkpt>
   <trkpt lat="31.241342" lon="35.243878"><ele>343.8</ele><name>TP01130</name><time>2020-01-27T11:05:11Z</time></trkpt>
   <trkpt lat="31.241338" lon="35.24388"><ele>343.9</ele><name>TP01131</name><time>2020-01-27T11:05:12Z</time></trkpt>
   <trkpt lat="31.241334" lon="35.243903"><ele>343.8</ele><name>TP01132</name><time>2020-01-27T11:05:14Z</time></trkpt>
   <trkpt lat="31.241327" lon="35.243904"><ele>343.9</ele><name>TP01133</name><time>2020-01-27T11:05:16Z</time></trkpt>
   <trkpt lat="31.241321" lon="35.243905"><ele>344</ele><name>TP01134</name><time>2020-01-27T11:05:17Z</time></trkpt>
   <trkpt lat="31.241313" lon="35.243913"><ele>344.2</ele><name>TP01135</name><time>2020-01-27T11:05:19Z</time></trkpt>
   <trkpt lat="31.241306" lon="35.243922"><ele>344.3</ele><name>TP01136</name><time>2020-01-27T11:05:20Z</time></trkpt>
   <trkpt lat="31.2413" lon="35.243933"><ele>344.3</ele><name>TP01137</name><time>2020-01-27T11:05:21Z</time></trkpt>
   <trkpt lat="31.241293" lon="35.243957"><ele>344.4</ele><name>TP01138</name><time>2020-01-27T11:05:23Z</time></trkpt>
   <trkpt lat="31.241292" lon="35.243973"><ele>344.6</ele><name>TP01139</name><time>2020-01-27T11:05:24Z</time></trkpt>
   <trkpt lat="31.241288" lon="35.243977"><ele>344.7</ele><name>TP01140</name><time>2020-01-27T11:05:26Z</time></trkpt>
   <trkpt lat="31.241282" lon="35.243983"><ele>344.7</ele><name>TP01141</name><time>2020-01-27T11:05:27Z</time></trkpt>
   <trkpt lat="31.241279" lon="35.243987"><ele>344.8</ele><name>TP01142</name><time>2020-01-27T11:05:28Z</time></trkpt>
   <trkpt lat="31.241276" lon="35.243989"><ele>345.1</ele><name>TP01143</name><time>2020-01-27T11:05:29Z</time></trkpt>
   <trkpt lat="31.241272" lon="35.24399"><ele>345.2</ele><name>TP01144</name><time>2020-01-27T11:05:31Z</time></trkpt>
   <trkpt lat="31.241267" lon="35.243989"><ele>345.3</ele><name>TP01145</name><time>2020-01-27T11:05:33Z</time></trkpt>
   <trkpt lat="31.241281" lon="35.243983"><ele>345.2</ele><name>TP01146</name><time>2020-01-27T11:05:35Z</time></trkpt>
   <trkpt lat="31.241278" lon="35.243984"><ele>345.4</ele><name>TP01147</name><time>2020-01-27T11:05:36Z</time></trkpt>
   <trkpt lat="31.241248" lon="35.244014"><ele>345.6</ele><name>TP01148</name><time>2020-01-27T11:05:38Z</time></trkpt>
   <trkpt lat="31.241234" lon="35.244014"><ele>345.9</ele><name>TP01149</name><time>2020-01-27T11:05:39Z</time></trkpt>
   <trkpt lat="31.241222" lon="35.244019"><ele>346</ele><name>TP01150</name><time>2020-01-27T11:05:40Z</time></trkpt>
   <trkpt lat="31.241211" lon="35.244023"><ele>346.1</ele><name>TP01151</name><time>2020-01-27T11:05:41Z</time></trkpt>
   <trkpt lat="31.241186" lon="35.244037"><ele>346.5</ele><name>TP01152</name><time>2020-01-27T11:05:43Z</time></trkpt>
   <trkpt lat="31.24117" lon="35.244046"><ele>346.6</ele><name>TP01153</name><time>2020-01-27T11:05:44Z</time></trkpt>
   <trkpt lat="31.241163" lon="35.244055"><ele>346.6</ele><name>TP01154</name><time>2020-01-27T11:05:45Z</time></trkpt>
   <trkpt lat="31.241142" lon="35.244078"><ele>346.6</ele><name>TP01155</name><time>2020-01-27T11:05:47Z</time></trkpt>
   <trkpt lat="31.241136" lon="35.244092"><ele>346.6</ele><name>TP01156</name><time>2020-01-27T11:05:48Z</time></trkpt>
   <trkpt lat="31.241134" lon="35.244104"><ele>346.6</ele><name>TP01157</name><time>2020-01-27T11:05:49Z</time></trkpt>
   <trkpt lat="31.241135" lon="35.244118"><ele>346.6</ele><name>TP01158</name><time>2020-01-27T11:05:51Z</time></trkpt>
   <trkpt lat="31.241139" lon="35.244124"><ele>346.7</ele><name>TP01159</name><time>2020-01-27T11:05:53Z</time></trkpt>
   <trkpt lat="31.241149" lon="35.244139"><ele>346.7</ele><name>TP01160</name><time>2020-01-27T11:05:55Z</time></trkpt>
   <trkpt lat="31.24115" lon="35.244138"><ele>346.7</ele><name>TP01161</name><time>2020-01-27T11:05:56Z</time></trkpt>
   <trkpt lat="31.241151" lon="35.244139"><ele>346.7</ele><name>TP01162</name><time>2020-01-27T11:05:58Z</time></trkpt>
   <trkpt lat="31.241152" lon="35.244139"><ele>346.7</ele><name>TP01163</name><time>2020-01-27T11:06:00Z</time></trkpt>
   <trkpt lat="31.241153" lon="35.244139"><ele>346.7</ele><name>TP01164</name><time>2020-01-27T11:06:01Z</time></trkpt>
   <trkpt lat="31.241154" lon="35.244139"><ele>346.7</ele><name>TP01165</name><time>2020-01-27T11:06:02Z</time></trkpt>
   <trkpt lat="31.24114" lon="35.244098"><ele>346.7</ele><name>TP01166</name><time>2020-01-27T11:06:04Z</time></trkpt>
   <trkpt lat="31.241138" lon="35.244093"><ele>346.7</ele><name>TP01167</name><time>2020-01-27T11:06:05Z</time></trkpt>
   <trkpt lat="31.241137" lon="35.244089"><ele>346.7</ele><name>TP01168</name><time>2020-01-27T11:06:07Z</time></trkpt>
   <trkpt lat="31.241137" lon="35.244088"><ele>346.7</ele><name>TP01169</name><time>2020-01-27T11:06:09Z</time></trkpt>
   <trkpt lat="31.241136" lon="35.244088"><ele>346.7</ele><name>TP01170</name><time>2020-01-27T11:06:10Z</time></trkpt>
   <trkpt lat="31.241136" lon="35.244088"><ele>346.7</ele><name>TP01171</name><time>2020-01-27T11:06:12Z</time></trkpt>
   <trkpt lat="31.241136" lon="35.244087"><ele>346.7</ele><name>TP01172</name><time>2020-01-27T11:06:14Z</time></trkpt>
   <trkpt lat="31.24114" lon="35.244121"><ele>346.7</ele><name>TP01173</name><time>2020-01-27T11:06:16Z</time></trkpt>
   <trkpt lat="31.241149" lon="35.244167"><ele>346.8</ele><name>TP01174</name><time>2020-01-27T11:06:18Z</time></trkpt>
   <trkpt lat="31.241156" lon="35.244206"><ele>346.8</ele><name>TP01175</name><time>2020-01-27T11:06:19Z</time></trkpt>
   <trkpt lat="31.241158" lon="35.244221"><ele>346.8</ele><name>TP01176</name><time>2020-01-27T11:06:20Z</time></trkpt>
   <trkpt lat="31.241161" lon="35.244252"><ele>346.8</ele><name>TP01177</name><time>2020-01-27T11:06:21Z</time></trkpt>
   <trkpt lat="31.241152" lon="35.244301"><ele>346.8</ele><name>TP01178</name><time>2020-01-27T11:06:23Z</time></trkpt>
   <trkpt lat="31.241152" lon="35.244337"><ele>346.8</ele><name>TP01179</name><time>2020-01-27T11:06:24Z</time></trkpt>
   <trkpt lat="31.241152" lon="35.244404"><ele>346.8</ele><name>TP01180</name><time>2020-01-27T11:06:26Z</time></trkpt>
   <trkpt lat="31.241154" lon="35.244447"><ele>346.8</ele><name>TP01181</name><time>2020-01-27T11:06:27Z</time></trkpt>
   <trkpt lat="31.24115" lon="35.24452"><ele>346.8</ele><name>TP01182</name><time>2020-01-27T11:06:29Z</time></trkpt>
   <trkpt lat="31.241144" lon="35.244562"><ele>346.8</ele><name>TP01183</name><time>2020-01-27T11:06:30Z</time></trkpt>
   <trkpt lat="31.241133" lon="35.244622"><ele>346.8</ele><name>TP01184</name><time>2020-01-27T11:06:32Z</time></trkpt>
   <trkpt lat="31.241132" lon="35.244741"><ele>346.8</ele><name>TP01185</name><time>2020-01-27T11:06:33Z</time></trkpt>
   <trkpt lat="31.241163" lon="35.244823"><ele>346.8</ele><name>TP01186</name><time>2020-01-27T11:06:35Z</time></trkpt>
   <trkpt lat="31.241193" lon="35.244874"><ele>346.8</ele><name>TP01187</name><time>2020-01-27T11:06:37Z</time></trkpt>
   <trkpt lat="31.24121" lon="35.244941"><ele>346.8</ele><name>TP01188</name><time>2020-01-27T11:06:39Z</time></trkpt>
   <trkpt lat="31.241226" lon="35.244993"><ele>346.8</ele><name>TP01189</name><time>2020-01-27T11:06:40Z</time></trkpt>
   <trkpt lat="31.241236" lon="35.245038"><ele>346.8</ele><name>TP01190</name><time>2020-01-27T11:06:41Z</time></trkpt>
   <trkpt lat="31.241243" lon="35.245117"><ele>346.8</ele><name>TP01191</name><time>2020-01-27T11:06:43Z</time></trkpt>
   <trkpt lat="31.24125" lon="35.245175"><ele>346.8</ele><name>TP01192</name><time>2020-01-27T11:06:44Z</time></trkpt>
   <trkpt lat="31.241267" lon="35.24523"><ele>346.8</ele><name>TP01193</name><time>2020-01-27T11:06:45Z</time></trkpt>
   <trkpt lat="31.241291" lon="35.245317"><ele>346.8</ele><name>TP01194</name><time>2020-01-27T11:06:47Z</time></trkpt>
   <trkpt lat="31.241305" lon="35.245362"><ele>346.8</ele><name>TP01195</name><time>2020-01-27T11:06:48Z</time></trkpt>
   <trkpt lat="31.241331" lon="35.245447"><ele>346.8</ele><name>TP01196</name><time>2020-01-27T11:06:50Z</time></trkpt>
   <trkpt lat="31.24135" lon="35.24552"><ele>346.8</ele><name>TP01197</name><time>2020-01-27T11:06:51Z</time></trkpt>
   <trkpt lat="31.241367" lon="35.245582"><ele>346.8</ele><name>TP01198</name><time>2020-01-27T11:06:52Z</time></trkpt>
   <trkpt lat="31.241412" lon="35.245662"><ele>346.7</ele><name>TP01199</name><time>2020-01-27T11:06:54Z</time></trkpt>
   <trkpt lat="31.241436" lon="35.245698"><ele>346.7</ele><name>TP01200</name><time>2020-01-27T11:06:56Z</time></trkpt>
   <trkpt lat="31.241449" lon="35.24574"><ele>346.7</ele><name>TP01201</name><time>2020-01-27T11:06:57Z</time></trkpt>
   <trkpt lat="31.241462" lon="35.245781"><ele>346.6</ele><name>TP01202</name><time>2020-01-27T11:06:58Z</time></trkpt>
   <trkpt lat="31.241466" lon="35.245794"><ele>346.6</ele><name>TP01203</name><time>2020-01-27T11:06:59Z</time></trkpt>
   <trkpt lat="31.241478" lon="35.245828"><ele>346.5</ele><name>TP01204</name><time>2020-01-27T11:07:01Z</time></trkpt>
   <trkpt lat="31.241489" lon="35.245869"><ele>346.4</ele><name>TP01205</name><time>2020-01-27T11:07:02Z</time></trkpt>
   <trkpt lat="31.241489" lon="35.245896"><ele>346.4</ele><name>TP01206</name><time>2020-01-27T11:07:03Z</time></trkpt>
   <trkpt lat="31.241483" lon="35.245909"><ele>346.3</ele><name>TP01207</name><time>2020-01-27T11:07:04Z</time></trkpt>
   <trkpt lat="31.241475" lon="35.245924"><ele>346.3</ele><name>TP01208</name><time>2020-01-27T11:07:06Z</time></trkpt>
   <trkpt lat="31.241471" lon="35.245928"><ele>346.3</ele><name>TP01209</name><time>2020-01-27T11:07:07Z</time></trkpt>
   <trkpt lat="31.241466" lon="35.24593"><ele>346.3</ele><name>TP01210</name><time>2020-01-27T11:07:08Z</time></trkpt>
   <trkpt lat="31.241481" lon="35.245895"><ele>346.1</ele><name>TP01211</name><time>2020-01-27T11:07:10Z</time></trkpt>
   <trkpt lat="31.241475" lon="35.245899"><ele>346.1</ele><name>TP01212</name><time>2020-01-27T11:07:11Z</time></trkpt>
   <trkpt lat="31.241469" lon="35.245902"><ele>346.1</ele><name>TP01213</name><time>2020-01-27T11:07:12Z</time></trkpt>
   <trkpt lat="31.241458" lon="35.245906"><ele>346.1</ele><name>TP01214</name><time>2020-01-27T11:07:14Z</time></trkpt>
   <trkpt lat="31.241454" lon="35.245907"><ele>346.1</ele><name>TP01215</name><time>2020-01-27T11:07:15Z</time></trkpt>
   <trkpt lat="31.241447" lon="35.245908"><ele>346</ele><name>TP01216</name><time>2020-01-27T11:07:17Z</time></trkpt>
   <trkpt lat="31.241443" lon="35.245909"><ele>346</ele><name>TP01217</name><time>2020-01-27T11:07:18Z</time></trkpt>
   <trkpt lat="31.241482" lon="35.245887"><ele>345.9</ele><name>TP01218</name><time>2020-01-27T11:07:20Z</time></trkpt>
   <trkpt lat="31.241487" lon="35.245885"><ele>345.9</ele><name>TP01219</name><time>2020-01-27T11:07:21Z</time></trkpt>
   <trkpt lat="31.24149" lon="35.245883"><ele>345.9</ele><name>TP01220</name><time>2020-01-27T11:07:23Z</time></trkpt>
   <trkpt lat="31.241491" lon="35.245882"><ele>345.9</ele><name>TP01221</name><time>2020-01-27T11:07:24Z</time></trkpt>
   <trkpt lat="31.241492" lon="35.245882"><ele>345.9</ele><name>TP01222</name><time>2020-01-27T11:07:25Z</time></trkpt>
   <trkpt lat="31.241492" lon="35.245882"><ele>345.9</ele><name>TP01223</name><time>2020-01-27T11:07:27Z</time></trkpt>
   <trkpt lat="31.241492" lon="35.245882"><ele>345.9</ele><name>TP01224</name><time>2020-01-27T11:07:29Z</time></trkpt>
   <trkpt lat="31.241492" lon="35.245882"><ele>345.9</ele><name>TP01225</name><time>2020-01-27T11:07:30Z</time></trkpt>
   <trkpt lat="31.241492" lon="35.245882"><ele>345.9</ele><name>TP01226</name><time>2020-01-27T11:07:31Z</time></trkpt>
   <trkpt lat="31.241492" lon="35.245882"><ele>345.9</ele><name>TP01227</name><time>2020-01-27T11:07:33Z</time></trkpt>
   <trkpt lat="31.241492" lon="35.245882"><ele>345.9</ele><name>TP01228</name><time>2020-01-27T11:07:34Z</time></trkpt>
   <trkpt lat="31.241492" lon="35.245882"><ele>345.9</ele><name>TP01229</name><time>2020-01-27T11:07:35Z</time></trkpt>
   <trkpt lat="31.241492" lon="35.245882"><ele>345.9</ele><name>TP01230</name><time>2020-01-27T11:07:36Z</time></trkpt>
   <trkpt lat="31.241492" lon="35.245882"><ele>345.9</ele><name>TP01231</name><time>2020-01-27T11:07:37Z</time></trkpt>
   <trkpt lat="31.241492" lon="35.245882"><ele>345.9</ele><name>TP01232</name><time>2020-01-27T11:07:38Z</time></trkpt>
   <trkpt lat="31.241492" lon="35.245882"><ele>345.9</ele><name>TP01233</name><time>2020-01-27T11:07:40Z</time></trkpt>
   <trkpt lat="31.241492" lon="35.245882"><ele>345.9</ele><name>TP01234</name><time>2020-01-27T11:07:41Z</time></trkpt>
   <trkpt lat="31.241492" lon="35.245882"><ele>345.9</ele><name>TP01235</name><time>2020-01-27T11:07:43Z</time></trkpt>
   <trkpt lat="31.241492" lon="35.245882"><ele>345.9</ele><name>TP01236</name><time>2020-01-27T11:07:45Z</time></trkpt>
   <trkpt lat="31.241492" lon="35.245882"><ele>345.9</ele><name>TP01237</name><time>2020-01-27T11:07:47Z</time></trkpt>
   <trkpt lat="31.241492" lon="35.245882"><ele>345.9</ele><name>TP01238</name><time>2020-01-27T11:07:49Z</time></trkpt>
   <trkpt lat="31.241492" lon="35.245882"><ele>345.9</ele><name>TP01239</name><time>2020-01-27T11:07:51Z</time></trkpt>
   <trkpt lat="31.241492" lon="35.245882"><ele>345.9</ele><name>TP01240</name><time>2020-01-27T11:07:53Z</time></trkpt>
   <trkpt lat="31.241492" lon="35.245882"><ele>345.9</ele><name>TP01241</name><time>2020-01-27T11:07:54Z</time></trkpt>
   <trkpt lat="31.241492" lon="35.245882"><ele>345.9</ele><name>TP01242</name><time>2020-01-27T11:07:55Z</time></trkpt>
   <trkpt lat="31.241492" lon="35.245882"><ele>345.9</ele><name>TP01243</name><time>2020-01-27T11:07:57Z</time></trkpt>
   <trkpt lat="31.241492" lon="35.245882"><ele>345.8</ele><name>TP01244</name><time>2020-01-27T11:07:58Z</time></trkpt>
   <trkpt lat="31.241492" lon="35.245882"><ele>345.8</ele><name>TP01245</name><time>2020-01-27T11:07:59Z</time></trkpt>
   <trkpt lat="31.241492" lon="35.245882"><ele>345.8</ele><name>TP01246</name><time>2020-01-27T11:08:00Z</time></trkpt>
   <trkpt lat="31.241492" lon="35.245882"><ele>345.8</ele><name>TP01247</name><time>2020-01-27T11:08:02Z</time></trkpt>
   <trkpt lat="31.241492" lon="35.245882"><ele>345.8</ele><name>TP01248</name><time>2020-01-27T11:08:04Z</time></trkpt>
   <trkpt lat="31.241492" lon="35.245882"><ele>345.8</ele><name>TP01249</name><time>2020-01-27T11:08:06Z</time></trkpt>
   <trkpt lat="31.241492" lon="35.245882"><ele>345.8</ele><name>TP01250</name><time>2020-01-27T11:08:08Z</time></trkpt>
   <trkpt lat="31.241492" lon="35.245882"><ele>345.8</ele><name>TP01251</name><time>2020-01-27T11:08:09Z</time></trkpt>
   <trkpt lat="31.241492" lon="35.245882"><ele>345.8</ele><name>TP01252</name><time>2020-01-27T11:08:10Z</time></trkpt>
   <trkpt lat="31.241492" lon="35.245882"><ele>345.8</ele><name>TP01253</name><time>2020-01-27T11:08:11Z</time></trkpt>
   <trkpt lat="31.241492" lon="35.245882"><ele>345.8</ele><name>TP01254</name><time>2020-01-27T11:08:13Z</time></trkpt>
   <trkpt lat="31.241492" lon="35.245882"><ele>345.8</ele><name>TP01255</name><time>2020-01-27T11:08:14Z</time></trkpt>
   <trkpt lat="31.241492" lon="35.245882"><ele>345.8</ele><name>TP01256</name><time>2020-01-27T11:08:16Z</time></trkpt>
   <trkpt lat="31.241492" lon="35.245882"><ele>345.8</ele><name>TP01257</name><time>2020-01-27T11:08:17Z</time></trkpt>
   <trkpt lat="31.241492" lon="35.245882"><ele>345.8</ele><name>TP01258</name><time>2020-01-27T11:08:18Z</time></trkpt>
   <trkpt lat="31.241492" lon="35.245882"><ele>345.8</ele><name>TP01259</name><time>2020-01-27T11:08:20Z</time></trkpt>
   <trkpt lat="31.241492" lon="35.245882"><ele>345.8</ele><name>TP01260</name><time>2020-01-27T11:08:22Z</time></trkpt>
   <trkpt lat="31.241492" lon="35.245882"><ele>345.8</ele><name>TP01261</name><time>2020-01-27T11:08:24Z</time></trkpt>
   <trkpt lat="31.241492" lon="35.245882"><ele>345.8</ele><name>TP01262</name><time>2020-01-27T11:08:25Z</time></trkpt>
   <trkpt lat="31.241492" lon="35.245882"><ele>345.8</ele><name>TP01263</name><time>2020-01-27T11:08:27Z</time></trkpt>
   <trkpt lat="31.241492" lon="35.245882"><ele>345.8</ele><name>TP01264</name><time>2020-01-27T11:08:28Z</time></trkpt>
   <trkpt lat="31.241492" lon="35.245882"><ele>345.8</ele><name>TP01265</name><time>2020-01-27T11:08:30Z</time></trkpt>
   <trkpt lat="31.241492" lon="35.245882"><ele>345.8</ele><name>TP01266</name><time>2020-01-27T11:08:31Z</time></trkpt>
   <trkpt lat="31.241492" lon="35.245882"><ele>345.8</ele><name>TP01267</name><time>2020-01-27T11:08:33Z</time></trkpt>
   <trkpt lat="31.241492" lon="35.245882"><ele>345.8</ele><name>TP01268</name><time>2020-01-27T11:08:34Z</time></trkpt>
   <trkpt lat="31.241492" lon="35.245882"><ele>345.8</ele><name>TP01269</name><time>2020-01-27T11:08:36Z</time></trkpt>
   <trkpt lat="31.241492" lon="35.245882"><ele>345.8</ele><name>TP01270</name><time>2020-01-27T11:08:37Z</time></trkpt>
   <trkpt lat="31.241491" lon="35.245896"><ele>345.8</ele><name>TP01271</name><time>2020-01-27T11:08:38Z</time></trkpt>
   <trkpt lat="31.241488" lon="35.245925"><ele>345.7</ele><name>TP01272</name><time>2020-01-27T11:08:39Z</time></trkpt>
   <trkpt lat="31.24148" lon="35.245994"><ele>345.6</ele><name>TP01273</name><time>2020-01-27T11:08:41Z</time></trkpt>
   <trkpt lat="31.2415" lon="35.246076"><ele>345.5</ele><name>TP01274</name><time>2020-01-27T11:08:43Z</time></trkpt>
   <trkpt lat="31.241522" lon="35.24613"><ele>345.5</ele><name>TP01275</name><time>2020-01-27T11:08:45Z</time></trkpt>
   <trkpt lat="31.241525" lon="35.246157"><ele>345.5</ele><name>TP01276</name><time>2020-01-27T11:08:47Z</time></trkpt>
   <trkpt lat="31.241534" lon="35.246173"><ele>345.5</ele><name>TP01277</name><time>2020-01-27T11:08:48Z</time></trkpt>
   <trkpt lat="31.241571" lon="35.246246"><ele>345.5</ele><name>TP01278</name><time>2020-01-27T11:08:50Z</time></trkpt>
   <trkpt lat="31.241579" lon="35.246278"><ele>345.5</ele><name>TP01279</name><time>2020-01-27T11:08:51Z</time></trkpt>
   <trkpt lat="31.241592" lon="35.246309"><ele>345.5</ele><name>TP01280</name><time>2020-01-27T11:08:52Z</time></trkpt>
   <trkpt lat="31.24161" lon="35.246349"><ele>345.5</ele><name>TP01281</name><time>2020-01-27T11:08:53Z</time></trkpt>
   <trkpt lat="31.241616" lon="35.246363"><ele>345.5</ele><name>TP01282</name><time>2020-01-27T11:08:54Z</time></trkpt>
   <trkpt lat="31.241633" lon="35.246414"><ele>345.4</ele><name>TP01283</name><time>2020-01-27T11:08:56Z</time></trkpt>
   <trkpt lat="31.241656" lon="35.24646"><ele>345.4</ele><name>TP01284</name><time>2020-01-27T11:08:58Z</time></trkpt>
   <trkpt lat="31.241671" lon="35.246495"><ele>345.3</ele><name>TP01285</name><time>2020-01-27T11:08:59Z</time></trkpt>
   <trkpt lat="31.241684" lon="35.24654"><ele>345.3</ele><name>TP01286</name><time>2020-01-27T11:09:00Z</time></trkpt>
   <trkpt lat="31.241697" lon="35.246577"><ele>345.3</ele><name>TP01287</name><time>2020-01-27T11:09:01Z</time></trkpt>
   <trkpt lat="31.241715" lon="35.246618"><ele>345.2</ele><name>TP01288</name><time>2020-01-27T11:09:03Z</time></trkpt>
   <trkpt lat="31.241737" lon="35.246651"><ele>345.1</ele><name>TP01289</name><time>2020-01-27T11:09:04Z</time></trkpt>
   <trkpt lat="31.241766" lon="35.246689"><ele>345</ele><name>TP01290</name><time>2020-01-27T11:09:05Z</time></trkpt>
   <trkpt lat="31.241813" lon="35.246731"><ele>344.9</ele><name>TP01291</name><time>2020-01-27T11:09:07Z</time></trkpt>
   <trkpt lat="31.241842" lon="35.246765"><ele>344.8</ele><name>TP01292</name><time>2020-01-27T11:09:08Z</time></trkpt>
   <trkpt lat="31.241858" lon="35.246784"><ele>344.7</ele><name>TP01293</name><time>2020-01-27T11:09:10Z</time></trkpt>
   <trkpt lat="31.241864" lon="35.246789"><ele>344.7</ele><name>TP01294</name><time>2020-01-27T11:09:12Z</time></trkpt>
   <trkpt lat="31.241866" lon="35.24679"><ele>344.7</ele><name>TP01295</name><time>2020-01-27T11:09:13Z</time></trkpt>
   <trkpt lat="31.241867" lon="35.246793"><ele>344.7</ele><name>TP01296</name><time>2020-01-27T11:09:15Z</time></trkpt>
   <trkpt lat="31.241869" lon="35.246796"><ele>344.7</ele><name>TP01297</name><time>2020-01-27T11:09:17Z</time></trkpt>
   <trkpt lat="31.24187" lon="35.246799"><ele>344.7</ele><name>TP01298</name><time>2020-01-27T11:09:19Z</time></trkpt>
   <trkpt lat="31.241871" lon="35.2468"><ele>344.7</ele><name>TP01299</name><time>2020-01-27T11:09:20Z</time></trkpt>
   <trkpt lat="31.241872" lon="35.246801"><ele>344.7</ele><name>TP01300</name><time>2020-01-27T11:09:21Z</time></trkpt>
   <trkpt lat="31.241872" lon="35.246802"><ele>344.7</ele><name>TP01301</name><time>2020-01-27T11:09:22Z</time></trkpt>
   <trkpt lat="31.241847" lon="35.246774"><ele>344.6</ele><name>TP01302</name><time>2020-01-27T11:09:24Z</time></trkpt>
   <trkpt lat="31.241843" lon="35.24677"><ele>344.5</ele><name>TP01303</name><time>2020-01-27T11:09:25Z</time></trkpt>
   <trkpt lat="31.24184" lon="35.246766"><ele>344.5</ele><name>TP01304</name><time>2020-01-27T11:09:26Z</time></trkpt>
   <trkpt lat="31.24184" lon="35.246766"><ele>344.5</ele><name>TP01305</name><time>2020-01-27T11:09:28Z</time></trkpt>
   <trkpt lat="31.24184" lon="35.246766"><ele>344.5</ele><name>TP01306</name><time>2020-01-27T11:09:29Z</time></trkpt>
   <trkpt lat="31.24184" lon="35.246766"><ele>344.5</ele><name>TP01307</name><time>2020-01-27T11:09:30Z</time></trkpt>
   <trkpt lat="31.24184" lon="35.246766"><ele>344.5</ele><name>TP01308</name><time>2020-01-27T11:09:32Z</time></trkpt>
   <trkpt lat="31.24184" lon="35.246766"><ele>344.5</ele><name>TP01309</name><time>2020-01-27T11:09:34Z</time></trkpt>
   <trkpt lat="31.24184" lon="35.246766"><ele>344.5</ele><name>TP01310</name><time>2020-01-27T11:09:36Z</time></trkpt>
   <trkpt lat="31.24184" lon="35.246766"><ele>344.5</ele><name>TP01311</name><time>2020-01-27T11:09:38Z</time></trkpt>
   <trkpt lat="31.24184" lon="35.246766"><ele>344.5</ele><name>TP01312</name><time>2020-01-27T11:09:40Z</time></trkpt>
   <trkpt lat="31.24184" lon="35.246766"><ele>344.5</ele><name>TP01313</name><time>2020-01-27T11:09:41Z</time></trkpt>
   <trkpt lat="31.24184" lon="35.246766"><ele>344.5</ele><name>TP01314</name><time>2020-01-27T11:09:43Z</time></trkpt>
   <trkpt lat="31.24184" lon="35.246766"><ele>344.5</ele><name>TP01315</name><time>2020-01-27T11:09:44Z</time></trkpt>
   <trkpt lat="31.24184" lon="35.246766"><ele>344.5</ele><name>TP01316</name><time>2020-01-27T11:09:46Z</time></trkpt>
   <trkpt lat="31.24184" lon="35.246766"><ele>344.5</ele><name>TP01317</name><time>2020-01-27T11:09:48Z</time></trkpt>
   <trkpt lat="31.24184" lon="35.246766"><ele>344.5</ele><name>TP01318</name><time>2020-01-27T11:09:50Z</time></trkpt>
   <trkpt lat="31.24184" lon="35.246766"><ele>344.5</ele><name>TP01319</name><time>2020-01-27T11:09:51Z</time></trkpt>
   <trkpt lat="31.24184" lon="35.246766"><ele>344.5</ele><name>TP01320</name><time>2020-01-27T11:09:52Z</time></trkpt>
   <trkpt lat="31.24184" lon="35.246766"><ele>344.5</ele><name>TP01321</name><time>2020-01-27T11:09:54Z</time></trkpt>
   <trkpt lat="31.24184" lon="35.246766"><ele>344.5</ele><name>TP01322</name><time>2020-01-27T11:09:56Z</time></trkpt>
   <trkpt lat="31.24184" lon="35.246766"><ele>344.5</ele><name>TP01323</name><time>2020-01-27T11:09:57Z</time></trkpt>
   <trkpt lat="31.24184" lon="35.246766"><ele>344.5</ele><name>TP01324</name><time>2020-01-27T11:09:58Z</time></trkpt>
   <trkpt lat="31.24184" lon="35.246766"><ele>344.5</ele><name>TP01325</name><time>2020-01-27T11:10:00Z</time></trkpt>
   <trkpt lat="31.24184" lon="35.246766"><ele>344.5</ele><name>TP01326</name><time>2020-01-27T11:10:02Z</time></trkpt>
   <trkpt lat="31.24184" lon="35.246766"><ele>344.5</ele><name>TP01327</name><time>2020-01-27T11:10:03Z</time></trkpt>
   <trkpt lat="31.24184" lon="35.246766"><ele>344.5</ele><name>TP01328</name><time>2020-01-27T11:10:04Z</time></trkpt>
   <trkpt lat="31.24184" lon="35.246766"><ele>344.5</ele><name>TP01329</name><time>2020-01-27T11:10:06Z</time></trkpt>
   <trkpt lat="31.24184" lon="35.246766"><ele>344.5</ele><name>TP01330</name><time>2020-01-27T11:10:07Z</time></trkpt>
   <trkpt lat="31.24184" lon="35.246766"><ele>344.5</ele><name>TP01331</name><time>2020-01-27T11:10:09Z</time></trkpt>
   <trkpt lat="31.24184" lon="35.246766"><ele>344.5</ele><name>TP01332</name><time>2020-01-27T11:10:11Z</time></trkpt>
   <trkpt lat="31.24184" lon="35.246766"><ele>344.5</ele><name>TP01333</name><time>2020-01-27T11:10:13Z</time></trkpt>
   <trkpt lat="31.24184" lon="35.246766"><ele>344.5</ele><name>TP01334</name><time>2020-01-27T11:10:14Z</time></trkpt>
   <trkpt lat="31.24184" lon="35.246766"><ele>344.5</ele><name>TP01335</name><time>2020-01-27T11:10:16Z</time></trkpt>
   <trkpt lat="31.24184" lon="35.246766"><ele>344.5</ele><name>TP01336</name><time>2020-01-27T11:10:17Z</time></trkpt>
   <trkpt lat="31.24184" lon="35.246766"><ele>344.5</ele><name>TP01337</name><time>2020-01-27T11:10:19Z</time></trkpt>
   <trkpt lat="31.24184" lon="35.246766"><ele>344.5</ele><name>TP01338</name><time>2020-01-27T11:10:21Z</time></trkpt>
   <trkpt lat="31.24184" lon="35.246766"><ele>344.5</ele><name>TP01339</name><time>2020-01-27T11:10:23Z</time></trkpt>
   <trkpt lat="31.24184" lon="35.246766"><ele>344.5</ele><name>TP01340</name><time>2020-01-27T11:10:25Z</time></trkpt>
   <trkpt lat="31.24184" lon="35.246766"><ele>344.5</ele><name>TP01341</name><time>2020-01-27T11:10:27Z</time></trkpt>
   <trkpt lat="31.24184" lon="35.246766"><ele>344.5</ele><name>TP01342</name><time>2020-01-27T11:10:28Z</time></trkpt>
   <trkpt lat="31.24184" lon="35.246766"><ele>344.5</ele><name>TP01343</name><time>2020-01-27T11:10:30Z</time></trkpt>
   <trkpt lat="31.24184" lon="35.246766"><ele>344.5</ele><name>TP01344</name><time>2020-01-27T11:10:31Z</time></trkpt>
   <trkpt lat="31.24184" lon="35.246766"><ele>344.5</ele><name>TP01345</name><time>2020-01-27T11:10:32Z</time></trkpt>
   <trkpt lat="31.24184" lon="35.246766"><ele>344.5</ele><name>TP01346</name><time>2020-01-27T11:10:34Z</time></trkpt>
   <trkpt lat="31.24184" lon="35.246766"><ele>344.5</ele><name>TP01347</name><time>2020-01-27T11:10:35Z</time></trkpt>
   <trkpt lat="31.24184" lon="35.246766"><ele>344.5</ele><name>TP01348</name><time>2020-01-27T11:10:36Z</time></trkpt>
   <trkpt lat="31.24184" lon="35.246766"><ele>344.5</ele><name>TP01349</name><time>2020-01-27T11:10:38Z</time></trkpt>
   <trkpt lat="31.24184" lon="35.246766"><ele>344.5</ele><name>TP01350</name><time>2020-01-27T11:10:39Z</time></trkpt>
   <trkpt lat="31.24184" lon="35.246766"><ele>344.5</ele><name>TP01351</name><time>2020-01-27T11:10:41Z</time></trkpt>
   <trkpt lat="31.24184" lon="35.246766"><ele>344.5</ele><name>TP01352</name><time>2020-01-27T11:10:42Z</time></trkpt>
   <trkpt lat="31.24184" lon="35.246766"><ele>344.5</ele><name>TP01353</name><time>2020-01-27T11:10:44Z</time></trkpt>
   <trkpt lat="31.24184" lon="35.246766"><ele>344.5</ele><name>TP01354</name><time>2020-01-27T11:10:45Z</time></trkpt>
   <trkpt lat="31.24184" lon="35.246766"><ele>344.5</ele><name>TP01355</name><time>2020-01-27T11:10:47Z</time></trkpt>
   <trkpt lat="31.24184" lon="35.246766"><ele>344.5</ele><name>TP01356</name><time>2020-01-27T11:10:48Z</time></trkpt>
   <trkpt lat="31.24184" lon="35.246766"><ele>344.5</ele><name>TP01357</name><time>2020-01-27T11:10:50Z</time></trkpt>
   <trkpt lat="31.24184" lon="35.246766"><ele>344.5</ele><name>TP01358</name><time>2020-01-27T11:10:51Z</time></trkpt>
   <trkpt lat="31.24184" lon="35.246766"><ele>344.5</ele><name>TP01359</name><time>2020-01-27T11:10:53Z</time></trkpt>
   <trkpt lat="31.24184" lon="35.246766"><ele>344.5</ele><name>TP01360</name><time>2020-01-27T11:10:54Z</time></trkpt>
   <trkpt lat="31.24184" lon="35.246766"><ele>344.5</ele><name>TP01361</name><time>2020-01-27T11:10:56Z</time></trkpt>
   <trkpt lat="31.24184" lon="35.246766"><ele>344.5</ele><name>TP01362</name><time>2020-01-27T11:10:57Z</time></trkpt>
   <trkpt lat="31.24184" lon="35.246766"><ele>344.5</ele><name>TP01363</name><time>2020-01-27T11:10:58Z</time></trkpt>
   <trkpt lat="31.24184" lon="35.246766"><ele>344.5</ele><name>TP01364</name><time>2020-01-27T11:10:59Z</time></trkpt>
   <trkpt lat="31.24184" lon="35.246766"><ele>344.5</ele><name>TP01365</name><time>2020-01-27T11:11:01Z</time></trkpt>
   <trkpt lat="31.24184" lon="35.246766"><ele>344.5</ele><name>TP01366</name><time>2020-01-27T11:11:03Z</time></trkpt>
   <trkpt lat="31.24184" lon="35.246766"><ele>344.5</ele><name>TP01367</name><time>2020-01-27T11:11:04Z</time></trkpt>
   <trkpt lat="31.24184" lon="35.246766"><ele>344.5</ele><name>TP01368</name><time>2020-01-27T11:11:06Z</time></trkpt>
   <trkpt lat="31.24184" lon="35.246766"><ele>344.5</ele><name>TP01369</name><time>2020-01-27T11:11:08Z</time></trkpt>
   <trkpt lat="31.24184" lon="35.246766"><ele>344.5</ele><name>TP01370</name><time>2020-01-27T11:11:09Z</time></trkpt>
   <trkpt lat="31.24184" lon="35.246766"><ele>344.5</ele><name>TP01371</name><time>2020-01-27T11:11:11Z</time></trkpt>
   <trkpt lat="31.24184" lon="35.246766"><ele>344.5</ele><name>TP01372</name><time>2020-01-27T11:11:12Z</time></trkpt>
   <trkpt lat="31.24184" lon="35.246766"><ele>344.5</ele><name>TP01373</name><time>2020-01-27T11:11:14Z</time></trkpt>
   <trkpt lat="31.24184" lon="35.246766"><ele>344.5</ele><name>TP01374</name><time>2020-01-27T11:11:15Z</time></trkpt>
   <trkpt lat="31.24184" lon="35.246766"><ele>344.5</ele><name>TP01375</name><time>2020-01-27T11:11:16Z</time></trkpt>
   <trkpt lat="31.24184" lon="35.246766"><ele>344.5</ele><name>TP01376</name><time>2020-01-27T11:11:18Z</time></trkpt>
   <trkpt lat="31.24184" lon="35.246766"><ele>344.5</ele><name>TP01377</name><time>2020-01-27T11:11:19Z</time></trkpt>
   <trkpt lat="31.24184" lon="35.246766"><ele>344.5</ele><name>TP01378</name><time>2020-01-27T11:11:21Z</time></trkpt>
   <trkpt lat="31.24184" lon="35.246766"><ele>344.5</ele><name>TP01379</name><time>2020-01-27T11:11:22Z</time></trkpt>
   <trkpt lat="31.24184" lon="35.246766"><ele>344.5</ele><name>TP01380</name><time>2020-01-27T11:11:23Z</time></trkpt>
   <trkpt lat="31.24184" lon="35.246766"><ele>344.5</ele><name>TP01381</name><time>2020-01-27T11:11:25Z</time></trkpt>
   <trkpt lat="31.24184" lon="35.246766"><ele>344.5</ele><name>TP01382</name><time>2020-01-27T11:11:27Z</time></trkpt>
   <trkpt lat="31.24184" lon="35.246766"><ele>344.5</ele><name>TP01383</name><time>2020-01-27T11:11:28Z</time></trkpt>
   <trkpt lat="31.24184" lon="35.246766"><ele>344.5</ele><name>TP01384</name><time>2020-01-27T11:11:29Z</time></trkpt>
   <trkpt lat="31.24184" lon="35.246766"><ele>344.5</ele><name>TP01385</name><time>2020-01-27T11:11:30Z</time></trkpt>
   <trkpt lat="31.24184" lon="35.246766"><ele>344.5</ele><name>TP01386</name><time>2020-01-27T11:11:31Z</time></trkpt>
   <trkpt lat="31.24184" lon="35.246766"><ele>344.5</ele><name>TP01387</name><time>2020-01-27T11:11:33Z</time></trkpt>
   <trkpt lat="31.24184" lon="35.246766"><ele>344.5</ele><name>TP01388</name><time>2020-01-27T11:11:35Z</time></trkpt>
   <trkpt lat="31.24184" lon="35.246766"><ele>344.5</ele><name>TP01389</name><time>2020-01-27T11:11:37Z</time></trkpt>
   <trkpt lat="31.24184" lon="35.246766"><ele>344.5</ele><name>TP01390</name><time>2020-01-27T11:11:39Z</time></trkpt>
   <trkpt lat="31.24184" lon="35.246766"><ele>344.5</ele><name>TP01391</name><time>2020-01-27T11:11:41Z</time></trkpt>
   <trkpt lat="31.24184" lon="35.246766"><ele>344.5</ele><name>TP01392</name><time>2020-01-27T11:11:42Z</time></trkpt>
   <trkpt lat="31.24184" lon="35.246766"><ele>344.5</ele><name>TP01393</name><time>2020-01-27T11:11:43Z</time></trkpt>
   <trkpt lat="31.24184" lon="35.246766"><ele>344.5</ele><name>TP01394</name><time>2020-01-27T11:11:45Z</time></trkpt>
   <trkpt lat="31.24184" lon="35.246766"><ele>344.5</ele><name>TP01395</name><time>2020-01-27T11:11:46Z</time></trkpt>
   <trkpt lat="31.24184" lon="35.246766"><ele>344.5</ele><name>TP01396</name><time>2020-01-27T11:11:48Z</time></trkpt>
   <trkpt lat="31.24184" lon="35.246766"><ele>344.5</ele><name>TP01397</name><time>2020-01-27T11:11:49Z</time></trkpt>
   <trkpt lat="31.24184" lon="35.246766"><ele>344.5</ele><name>TP01398</name><time>2020-01-27T11:11:50Z</time></trkpt>
   <trkpt lat="31.241857" lon="35.246785"><ele>344.5</ele><name>TP01399</name><time>2020-01-27T11:11:52Z</time></trkpt>
   <trkpt lat="31.241874" lon="35.24684"><ele>344.3</ele><name>TP01400</name><time>2020-01-27T11:11:54Z</time></trkpt>
   <trkpt lat="31.241914" lon="35.246938"><ele>344</ele><name>TP01401</name><time>2020-01-27T11:11:56Z</time></trkpt>
   <trkpt lat="31.242001" lon="35.247024"><ele>343.8</ele><name>TP01402</name><time>2020-01-27T11:11:58Z</time></trkpt>
   <trkpt lat="31.242105" lon="35.24708"><ele>343.6</ele><name>TP01403</name><time>2020-01-27T11:12:00Z</time></trkpt>
   <trkpt lat="31.242133" lon="35.247088"><ele>343.6</ele><name>TP01404</name><time>2020-01-27T11:12:02Z</time></trkpt>
   <trkpt lat="31.242165" lon="35.247096"><ele>343.5</ele><name>TP01405</name><time>2020-01-27T11:12:03Z</time></trkpt>
   <trkpt lat="31.242197" lon="35.247111"><ele>343.5</ele><name>TP01406</name><time>2020-01-27T11:12:04Z</time></trkpt>
   <trkpt lat="31.242208" lon="35.247117"><ele>343.4</ele><name>TP01407</name><time>2020-01-27T11:12:05Z</time></trkpt>
   <trkpt lat="31.242224" lon="35.247145"><ele>343.4</ele><name>TP01408</name><time>2020-01-27T11:12:07Z</time></trkpt>
   <trkpt lat="31.242239" lon="35.247174"><ele>343.3</ele><name>TP01409</name><time>2020-01-27T11:12:08Z</time></trkpt>
   <trkpt lat="31.242263" lon="35.247212"><ele>343.3</ele><name>TP01410</name><time>2020-01-27T11:12:09Z</time></trkpt>
   <trkpt lat="31.242273" lon="35.247229"><ele>343.2</ele><name>TP01411</name><time>2020-01-27T11:12:10Z</time></trkpt>
   <trkpt lat="31.242297" lon="35.247273"><ele>343.2</ele><name>TP01412</name><time>2020-01-27T11:12:12Z</time></trkpt>
   <trkpt lat="31.24232" lon="35.247289"><ele>343.1</ele><name>TP01413</name><time>2020-01-27T11:12:13Z</time></trkpt>
   <trkpt lat="31.242353" lon="35.247329"><ele>342.9</ele><name>TP01414</name><time>2020-01-27T11:12:15Z</time></trkpt>
   <trkpt lat="31.242375" lon="35.247366"><ele>342.8</ele><name>TP01415</name><time>2020-01-27T11:12:17Z</time></trkpt>
   <trkpt lat="31.242399" lon="35.247391"><ele>342.7</ele><name>TP01416</name><time>2020-01-27T11:12:18Z</time></trkpt>
   <trkpt lat="31.242421" lon="35.247414"><ele>342.6</ele><name>TP01417</name><time>2020-01-27T11:12:19Z</time></trkpt>
   <trkpt lat="31.242441" lon="35.247445"><ele>342.4</ele><name>TP01418</name><time>2020-01-27T11:12:20Z</time></trkpt>
   <trkpt lat="31.242455" lon="35.247489"><ele>342.3</ele><name>TP01419</name><time>2020-01-27T11:12:21Z</time></trkpt>
   <trkpt lat="31.242476" lon="35.247521"><ele>342.2</ele><name>TP01420</name><time>2020-01-27T11:12:22Z</time></trkpt>
   <trkpt lat="31.242489" lon="35.247566"><ele>342</ele><name>TP01421</name><time>2020-01-27T11:12:23Z</time></trkpt>
   <trkpt lat="31.242509" lon="35.247637"><ele>341.7</ele><name>TP01422</name><time>2020-01-27T11:12:25Z</time></trkpt>
   <trkpt lat="31.242512" lon="35.247681"><ele>341.5</ele><name>TP01423</name><time>2020-01-27T11:12:26Z</time></trkpt>
   <trkpt lat="31.242518" lon="35.247707"><ele>341.4</ele><name>TP01424</name><time>2020-01-27T11:12:27Z</time></trkpt>
   <trkpt lat="31.242528" lon="35.247761"><ele>341.2</ele><name>TP01425</name><time>2020-01-27T11:12:29Z</time></trkpt>
   <trkpt lat="31.242532" lon="35.247812"><ele>341</ele><name>TP01426</name><time>2020-01-27T11:12:30Z</time></trkpt>
   <trkpt lat="31.242533" lon="35.247833"><ele>341</ele><name>TP01427</name><time>2020-01-27T11:12:31Z</time></trkpt>
   <trkpt lat="31.242539" lon="35.247882"><ele>340.8</ele><name>TP01428</name><time>2020-01-27T11:12:33Z</time></trkpt>
   <trkpt lat="31.242546" lon="35.247927"><ele>340.5</ele><name>TP01429</name><time>2020-01-27T11:12:34Z</time></trkpt>
   <trkpt lat="31.242546" lon="35.247961"><ele>340.3</ele><name>TP01430</name><time>2020-01-27T11:12:35Z</time></trkpt>
   <trkpt lat="31.242549" lon="35.247992"><ele>340.1</ele><name>TP01431</name><time>2020-01-27T11:12:36Z</time></trkpt>
   <trkpt lat="31.242551" lon="35.248032"><ele>339.9</ele><name>TP01432</name><time>2020-01-27T11:12:38Z</time></trkpt>
   <trkpt lat="31.242556" lon="35.248066"><ele>339.7</ele><name>TP01433</name><time>2020-01-27T11:12:39Z</time></trkpt>
   <trkpt lat="31.242534" lon="35.248098"><ele>339.5</ele><name>TP01434</name><time>2020-01-27T11:12:41Z</time></trkpt>
   <trkpt lat="31.242528" lon="35.248109"><ele>339.4</ele><name>TP01435</name><time>2020-01-27T11:12:42Z</time></trkpt>
   <trkpt lat="31.242506" lon="35.248136"><ele>339.2</ele><name>TP01436</name><time>2020-01-27T11:12:43Z</time></trkpt>
   <trkpt lat="31.24248" lon="35.248171"><ele>338.9</ele><name>TP01437</name><time>2020-01-27T11:12:45Z</time></trkpt>
   <trkpt lat="31.242473" lon="35.248184"><ele>338.8</ele><name>TP01438</name><time>2020-01-27T11:12:46Z</time></trkpt>
   <trkpt lat="31.242468" lon="35.24823"><ele>338.7</ele><name>TP01439</name><time>2020-01-27T11:12:47Z</time></trkpt>
   <trkpt lat="31.242471" lon="35.248247"><ele>338.7</ele><name>TP01440</name><time>2020-01-27T11:12:48Z</time></trkpt>
   <trkpt lat="31.242498" lon="35.248287"><ele>338.7</ele><name>TP01441</name><time>2020-01-27T11:12:49Z</time></trkpt>
   <trkpt lat="31.242538" lon="35.248315"><ele>338.7</ele><name>TP01442</name><time>2020-01-27T11:12:51Z</time></trkpt>
   <trkpt lat="31.24258" lon="35.248335"><ele>338.7</ele><name>TP01443</name><time>2020-01-27T11:12:52Z</time></trkpt>
   <trkpt lat="31.242596" lon="35.248343"><ele>338.7</ele><name>TP01444</name><time>2020-01-27T11:12:53Z</time></trkpt>
   <trkpt lat="31.242624" lon="35.248367"><ele>338.8</ele><name>TP01445</name><time>2020-01-27T11:12:55Z</time></trkpt>
   <trkpt lat="31.242648" lon="35.248399"><ele>338.8</ele><name>TP01446</name><time>2020-01-27T11:12:56Z</time></trkpt>
   <trkpt lat="31.24266" lon="35.248444"><ele>338.9</ele><name>TP01447</name><time>2020-01-27T11:12:58Z</time></trkpt>
   <trkpt lat="31.242664" lon="35.248465"><ele>338.9</ele><name>TP01448</name><time>2020-01-27T11:12:59Z</time></trkpt>
   <trkpt lat="31.242659" lon="35.248503"><ele>339</ele><name>TP01449</name><time>2020-01-27T11:13:01Z</time></trkpt>
   <trkpt lat="31.242662" lon="35.248539"><ele>339.1</ele><name>TP01450</name><time>2020-01-27T11:13:02Z</time></trkpt>
   <trkpt lat="31.24265" lon="35.248581"><ele>339.1</ele><name>TP01451</name><time>2020-01-27T11:13:04Z</time></trkpt>
   <trkpt lat="31.242645" lon="35.248593"><ele>339.1</ele><name>TP01452</name><time>2020-01-27T11:13:05Z</time></trkpt>
   <trkpt lat="31.242632" lon="35.248624"><ele>339.2</ele><name>TP01453</name><time>2020-01-27T11:13:06Z</time></trkpt>
   <trkpt lat="31.242635" lon="35.248671"><ele>339.2</ele><name>TP01454</name><time>2020-01-27T11:13:07Z</time></trkpt>
   <trkpt lat="31.242655" lon="35.248713"><ele>339.2</ele><name>TP01455</name><time>2020-01-27T11:13:08Z</time></trkpt>
   <trkpt lat="31.242681" lon="35.248767"><ele>339.3</ele><name>TP01456</name><time>2020-01-27T11:13:10Z</time></trkpt>
   <trkpt lat="31.242698" lon="35.248812"><ele>339.3</ele><name>TP01457</name><time>2020-01-27T11:13:11Z</time></trkpt>
   <trkpt lat="31.242708" lon="35.248852"><ele>339.4</ele><name>TP01458</name><time>2020-01-27T11:13:12Z</time></trkpt>
   <trkpt lat="31.242724" lon="35.248889"><ele>339.4</ele><name>TP01459</name><time>2020-01-27T11:13:13Z</time></trkpt>
   <trkpt lat="31.242734" lon="35.248941"><ele>339.4</ele><name>TP01460</name><time>2020-01-27T11:13:15Z</time></trkpt>
   <trkpt lat="31.242743" lon="35.248986"><ele>339.5</ele><name>TP01461</name><time>2020-01-27T11:13:16Z</time></trkpt>
   <trkpt lat="31.242756" lon="35.249039"><ele>339.5</ele><name>TP01462</name><time>2020-01-27T11:13:17Z</time></trkpt>
   <trkpt lat="31.242767" lon="35.249078"><ele>339.6</ele><name>TP01463</name><time>2020-01-27T11:13:18Z</time></trkpt>
   <trkpt lat="31.242771" lon="35.24912"><ele>339.7</ele><name>TP01464</name><time>2020-01-27T11:13:19Z</time></trkpt>
   <trkpt lat="31.242775" lon="35.249176"><ele>339.7</ele><name>TP01465</name><time>2020-01-27T11:13:21Z</time></trkpt>
   <trkpt lat="31.242784" lon="35.249223"><ele>339.8</ele><name>TP01466</name><time>2020-01-27T11:13:22Z</time></trkpt>
   <trkpt lat="31.24279" lon="35.249272"><ele>339.9</ele><name>TP01467</name><time>2020-01-27T11:13:23Z</time></trkpt>
   <trkpt lat="31.242799" lon="35.249323"><ele>339.9</ele><name>TP01468</name><time>2020-01-27T11:13:24Z</time></trkpt>
   <trkpt lat="31.242818" lon="35.249383"><ele>340</ele><name>TP01469</name><time>2020-01-27T11:13:26Z</time></trkpt>
   <trkpt lat="31.242824" lon="35.249415"><ele>340.1</ele><name>TP01470</name><time>2020-01-27T11:13:27Z</time></trkpt>
   <trkpt lat="31.242834" lon="35.249488"><ele>340.1</ele><name>TP01471</name><time>2020-01-27T11:13:29Z</time></trkpt>
   <trkpt lat="31.242832" lon="35.249532"><ele>340.1</ele><name>TP01472</name><time>2020-01-27T11:13:30Z</time></trkpt>
   <trkpt lat="31.242839" lon="35.249618"><ele>340</ele><name>TP01473</name><time>2020-01-27T11:13:32Z</time></trkpt>
   <trkpt lat="31.242804" lon="35.249697"><ele>339.9</ele><name>TP01474</name><time>2020-01-27T11:13:34Z</time></trkpt>
   <trkpt lat="31.242756" lon="35.249792"><ele>339.8</ele><name>TP01475</name><time>2020-01-27T11:13:35Z</time></trkpt>
   <trkpt lat="31.24274" lon="35.249842"><ele>339.8</ele><name>TP01476</name><time>2020-01-27T11:13:36Z</time></trkpt>
   <trkpt lat="31.242769" lon="35.249964"><ele>339.8</ele><name>TP01477</name><time>2020-01-27T11:13:38Z</time></trkpt>
   <trkpt lat="31.242824" lon="35.250031"><ele>340.1</ele><name>TP01478</name><time>2020-01-27T11:13:40Z</time></trkpt>
   <trkpt lat="31.242851" lon="35.250042"><ele>340.2</ele><name>TP01479</name><time>2020-01-27T11:13:41Z</time></trkpt>
   <trkpt lat="31.242863" lon="35.250067"><ele>340.3</ele><name>TP01480</name><time>2020-01-27T11:13:42Z</time></trkpt>
   <trkpt lat="31.242868" lon="35.25012"><ele>340.6</ele><name>TP01481</name><time>2020-01-27T11:13:44Z</time></trkpt>
   <trkpt lat="31.242903" lon="35.250164"><ele>340.9</ele><name>TP01482</name><time>2020-01-27T11:13:45Z</time></trkpt>
   <trkpt lat="31.242929" lon="35.250204"><ele>341.2</ele><name>TP01483</name><time>2020-01-27T11:13:47Z</time></trkpt>
   <trkpt lat="31.242949" lon="35.250239"><ele>341.4</ele><name>TP01484</name><time>2020-01-27T11:13:48Z</time></trkpt>
   <trkpt lat="31.242964" lon="35.250251"><ele>341.5</ele><name>TP01485</name><time>2020-01-27T11:13:49Z</time></trkpt>
   <trkpt lat="31.242971" lon="35.250274"><ele>341.6</ele><name>TP01486</name><time>2020-01-27T11:13:51Z</time></trkpt>
   <trkpt lat="31.24298" lon="35.250317"><ele>341.7</ele><name>TP01487</name><time>2020-01-27T11:13:52Z</time></trkpt>
   <trkpt lat="31.242984" lon="35.250334"><ele>341.8</ele><name>TP01488</name><time>2020-01-27T11:13:53Z</time></trkpt>
   <trkpt lat="31.242991" lon="35.250366"><ele>341.9</ele><name>TP01489</name><time>2020-01-27T11:13:54Z</time></trkpt>
   <trkpt lat="31.242988" lon="35.250409"><ele>342</ele><name>TP01490</name><time>2020-01-27T11:13:56Z</time></trkpt>
   <trkpt lat="31.24299" lon="35.250455"><ele>342.2</ele><name>TP01491</name><time>2020-01-27T11:13:57Z</time></trkpt>
   <trkpt lat="31.242986" lon="35.250494"><ele>342.3</ele><name>TP01492</name><time>2020-01-27T11:13:58Z</time></trkpt>
   <trkpt lat="31.242982" lon="35.250533"><ele>342.5</ele><name>TP01493</name><time>2020-01-27T11:13:59Z</time></trkpt>
   <trkpt lat="31.243003" lon="35.250612"><ele>342.9</ele><name>TP01494</name><time>2020-01-27T11:14:01Z</time></trkpt>
   <trkpt lat="31.243008" lon="35.250641"><ele>343</ele><name>TP01495</name><time>2020-01-27T11:14:02Z</time></trkpt>
   <trkpt lat="31.243016" lon="35.250684"><ele>343.2</ele><name>TP01496</name><time>2020-01-27T11:14:04Z</time></trkpt>
   <trkpt lat="31.243018" lon="35.250722"><ele>343.3</ele><name>TP01497</name><time>2020-01-27T11:14:05Z</time></trkpt>
   <trkpt lat="31.243022" lon="35.250761"><ele>343.5</ele><name>TP01498</name><time>2020-01-27T11:14:06Z</time></trkpt>
   <trkpt lat="31.243029" lon="35.250804"><ele>343.7</ele><name>TP01499</name><time>2020-01-27T11:14:07Z</time></trkpt>
   <trkpt lat="31.243039" lon="35.250882"><ele>343.9</ele><name>TP01500</name><time>2020-01-27T11:14:09Z</time></trkpt>
   <trkpt lat="31.243039" lon="35.250928"><ele>344.2</ele><name>TP01501</name><time>2020-01-27T11:14:11Z</time></trkpt>
   <trkpt lat="31.243038" lon="35.250975"><ele>344.5</ele><name>TP01502</name><time>2020-01-27T11:14:12Z</time></trkpt>
   <trkpt lat="31.243032" lon="35.251007"><ele>344.7</ele><name>TP01503</name><time>2020-01-27T11:14:13Z</time></trkpt>
   <trkpt lat="31.243042" lon="35.251074"><ele>345.2</ele><name>TP01504</name><time>2020-01-27T11:14:15Z</time></trkpt>
   <trkpt lat="31.243056" lon="35.251113"><ele>345.6</ele><name>TP01505</name><time>2020-01-27T11:14:17Z</time></trkpt>
   <trkpt lat="31.243059" lon="35.251127"><ele>345.7</ele><name>TP01506</name><time>2020-01-27T11:14:18Z</time></trkpt>
   <trkpt lat="31.243077" lon="35.251154"><ele>346.1</ele><name>TP01507</name><time>2020-01-27T11:14:19Z</time></trkpt>
   <trkpt lat="31.243082" lon="35.251164"><ele>346.2</ele><name>TP01508</name><time>2020-01-27T11:14:20Z</time></trkpt>
   <trkpt lat="31.24309" lon="35.251188"><ele>346.5</ele><name>TP01509</name><time>2020-01-27T11:14:22Z</time></trkpt>
   <trkpt lat="31.243094" lon="35.251203"><ele>346.6</ele><name>TP01510</name><time>2020-01-27T11:14:23Z</time></trkpt>
   <trkpt lat="31.243105" lon="35.251221"><ele>346.8</ele><name>TP01511</name><time>2020-01-27T11:14:24Z</time></trkpt>
   <trkpt lat="31.243109" lon="35.251237"><ele>347</ele><name>TP01512</name><time>2020-01-27T11:14:25Z</time></trkpt>
   <trkpt lat="31.243118" lon="35.251256"><ele>347.1</ele><name>TP01513</name><time>2020-01-27T11:14:26Z</time></trkpt>
   <trkpt lat="31.243131" lon="35.251283"><ele>347.3</ele><name>TP01514</name><time>2020-01-27T11:14:28Z</time></trkpt>
   <trkpt lat="31.243148" lon="35.251314"><ele>347.5</ele><name>TP01515</name><time>2020-01-27T11:14:29Z</time></trkpt>
   <trkpt lat="31.24315" lon="35.251325"><ele>347.6</ele><name>TP01516</name><time>2020-01-27T11:14:30Z</time></trkpt>
   <trkpt lat="31.243165" lon="35.251354"><ele>347.8</ele><name>TP01517</name><time>2020-01-27T11:14:32Z</time></trkpt>
   <trkpt lat="31.243169" lon="35.251373"><ele>347.9</ele><name>TP01518</name><time>2020-01-27T11:14:33Z</time></trkpt>
   <trkpt lat="31.243179" lon="35.251391"><ele>348</ele><name>TP01519</name><time>2020-01-27T11:14:34Z</time></trkpt>
   <trkpt lat="31.243183" lon="35.251404"><ele>348</ele><name>TP01520</name><time>2020-01-27T11:14:35Z</time></trkpt>
   <trkpt lat="31.243187" lon="35.251436"><ele>348.2</ele><name>TP01521</name><time>2020-01-27T11:14:37Z</time></trkpt>
   <trkpt lat="31.243174" lon="35.251474"><ele>348.3</ele><name>TP01522</name><time>2020-01-27T11:14:38Z</time></trkpt>
   <trkpt lat="31.243169" lon="35.251483"><ele>348.3</ele><name>TP01523</name><time>2020-01-27T11:14:39Z</time></trkpt>
   <trkpt lat="31.243157" lon="35.251493"><ele>348.4</ele><name>TP01524</name><time>2020-01-27T11:14:41Z</time></trkpt>
   <trkpt lat="31.24315" lon="35.251507"><ele>348.5</ele><name>TP01525</name><time>2020-01-27T11:14:42Z</time></trkpt>
   <trkpt lat="31.243144" lon="35.251515"><ele>348.5</ele><name>TP01526</name><time>2020-01-27T11:14:43Z</time></trkpt>
   <trkpt lat="31.243143" lon="35.251519"><ele>348.5</ele><name>TP01527</name><time>2020-01-27T11:14:44Z</time></trkpt>
   <trkpt lat="31.243142" lon="35.251522"><ele>348.5</ele><name>TP01528</name><time>2020-01-27T11:14:46Z</time></trkpt>
   <trkpt lat="31.243141" lon="35.251525"><ele>348.6</ele><name>TP01529</name><time>2020-01-27T11:14:49Z</time></trkpt>
   <trkpt lat="31.24314" lon="35.251528"><ele>348.6</ele><name>TP01530</name><time>2020-01-27T11:14:50Z</time></trkpt>
   <trkpt lat="31.243138" lon="35.251532"><ele>348.6</ele><name>TP01531</name><time>2020-01-27T11:14:52Z</time></trkpt>
   <trkpt lat="31.243137" lon="35.251535"><ele>348.6</ele><name>TP01532</name><time>2020-01-27T11:14:53Z</time></trkpt>
   <trkpt lat="31.243136" lon="35.251538"><ele>348.6</ele><name>TP01533</name><time>2020-01-27T11:14:55Z</time></trkpt>
   <trkpt lat="31.243135" lon="35.251541"><ele>348.6</ele><name>TP01534</name><time>2020-01-27T11:14:56Z</time></trkpt>
   <trkpt lat="31.243134" lon="35.251545"><ele>348.6</ele><name>TP01535</name><time>2020-01-27T11:14:58Z</time></trkpt>
   <trkpt lat="31.243133" lon="35.251548"><ele>348.6</ele><name>TP01536</name><time>2020-01-27T11:14:59Z</time></trkpt>
   <trkpt lat="31.243127" lon="35.251581"><ele>348.7</ele><name>TP01537</name><time>2020-01-27T11:15:00Z</time></trkpt>
   <trkpt lat="31.243124" lon="35.251595"><ele>348.7</ele><name>TP01538</name><time>2020-01-27T11:15:01Z</time></trkpt>
   <trkpt lat="31.24312" lon="35.251646"><ele>348.8</ele><name>TP01539</name><time>2020-01-27T11:15:02Z</time></trkpt>
   <trkpt lat="31.243118" lon="35.251666"><ele>348.9</ele><name>TP01540</name><time>2020-01-27T11:15:03Z</time></trkpt>
   <trkpt lat="31.243112" lon="35.251705"><ele>348.9</ele><name>TP01541</name><time>2020-01-27T11:15:05Z</time></trkpt>
   <trkpt lat="31.243101" lon="35.25176"><ele>348.7</ele><name>TP01542</name><time>2020-01-27T11:15:06Z</time></trkpt>
   <trkpt lat="31.243104" lon="35.251802"><ele>348.6</ele><name>TP01543</name><time>2020-01-27T11:15:07Z</time></trkpt>
   <trkpt lat="31.243106" lon="35.251817"><ele>348.6</ele><name>TP01544</name><time>2020-01-27T11:15:08Z</time></trkpt>
   <trkpt lat="31.2431" lon="35.251852"><ele>348.5</ele><name>TP01545</name><time>2020-01-27T11:15:09Z</time></trkpt>
   <trkpt lat="31.243085" lon="35.251895"><ele>348.4</ele><name>TP01546</name><time>2020-01-27T11:15:10Z</time></trkpt>
   <trkpt lat="31.243067" lon="35.251945"><ele>348.3</ele><name>TP01547</name><time>2020-01-27T11:15:12Z</time></trkpt>
   <trkpt lat="31.243059" lon="35.252009"><ele>348.1</ele><name>TP01548</name><time>2020-01-27T11:15:13Z</time></trkpt>
   <trkpt lat="31.243053" lon="35.252038"><ele>348</ele><name>TP01549</name><time>2020-01-27T11:15:14Z</time></trkpt>
   <trkpt lat="31.243031" lon="35.252092"><ele>347.9</ele><name>TP01550</name><time>2020-01-27T11:15:16Z</time></trkpt>
   <trkpt lat="31.243022" lon="35.25211"><ele>347.8</ele><name>TP01551</name><time>2020-01-27T11:15:17Z</time></trkpt>
   <trkpt lat="31.243003" lon="35.252132"><ele>347.7</ele><name>TP01552</name><time>2020-01-27T11:15:19Z</time></trkpt>
   <trkpt lat="31.242985" lon="35.252167"><ele>347.6</ele><name>TP01553</name><time>2020-01-27T11:15:20Z</time></trkpt>
   <trkpt lat="31.242974" lon="35.252179"><ele>347.5</ele><name>TP01554</name><time>2020-01-27T11:15:21Z</time></trkpt>
   <trkpt lat="31.242952" lon="35.252205"><ele>347.4</ele><name>TP01555</name><time>2020-01-27T11:15:23Z</time></trkpt>
   <trkpt lat="31.242943" lon="35.252229"><ele>347.3</ele><name>TP01556</name><time>2020-01-27T11:15:24Z</time></trkpt>
   <trkpt lat="31.242925" lon="35.252258"><ele>347.1</ele><name>TP01557</name><time>2020-01-27T11:15:26Z</time></trkpt>
   <trkpt lat="31.242895" lon="35.252281"><ele>347</ele><name>TP01558</name><time>2020-01-27T11:15:27Z</time></trkpt>
   <trkpt lat="31.242881" lon="35.252283"><ele>346.9</ele><name>TP01559</name><time>2020-01-27T11:15:28Z</time></trkpt>
   <trkpt lat="31.242839" lon="35.252317"><ele>346.8</ele><name>TP01560</name><time>2020-01-27T11:15:30Z</time></trkpt>
   <trkpt lat="31.242826" lon="35.252331"><ele>346.7</ele><name>TP01561</name><time>2020-01-27T11:15:31Z</time></trkpt>
   <trkpt lat="31.242812" lon="35.252345"><ele>346.6</ele><name>TP01562</name><time>2020-01-27T11:15:32Z</time></trkpt>
   <trkpt lat="31.242789" lon="35.252377"><ele>346.5</ele><name>TP01563</name><time>2020-01-27T11:15:33Z</time></trkpt>
   <trkpt lat="31.24277" lon="35.252403"><ele>346.3</ele><name>TP01564</name><time>2020-01-27T11:15:34Z</time></trkpt>
   <trkpt lat="31.242749" lon="35.252445"><ele>346.1</ele><name>TP01565</name><time>2020-01-27T11:15:36Z</time></trkpt>
   <trkpt lat="31.242727" lon="35.252479"><ele>345.8</ele><name>TP01566</name><time>2020-01-27T11:15:37Z</time></trkpt>
   <trkpt lat="31.242705" lon="35.252524"><ele>345.5</ele><name>TP01567</name><time>2020-01-27T11:15:38Z</time></trkpt>
   <trkpt lat="31.242699" lon="35.252558"><ele>345.3</ele><name>TP01568</name><time>2020-01-27T11:15:39Z</time></trkpt>
   <trkpt lat="31.242692" lon="35.252597"><ele>345</ele><name>TP01569</name><time>2020-01-27T11:15:40Z</time></trkpt>
   <trkpt lat="31.242685" lon="35.252641"><ele>344.8</ele><name>TP01570</name><time>2020-01-27T11:15:41Z</time></trkpt>
   <trkpt lat="31.242671" lon="35.252704"><ele>344.3</ele><name>TP01571</name><time>2020-01-27T11:15:43Z</time></trkpt>
   <trkpt lat="31.242656" lon="35.252747"><ele>344</ele><name>TP01572</name><time>2020-01-27T11:15:44Z</time></trkpt>
   <trkpt lat="31.24264" lon="35.252794"><ele>343.7</ele><name>TP01573</name><time>2020-01-27T11:15:45Z</time></trkpt>
   <trkpt lat="31.242631" lon="35.25283"><ele>343.5</ele><name>TP01574</name><time>2020-01-27T11:15:46Z</time></trkpt>
   <trkpt lat="31.242629" lon="35.252883"><ele>343.1</ele><name>TP01575</name><time>2020-01-27T11:15:48Z</time></trkpt>
   <trkpt lat="31.242613" lon="35.252998"><ele>342.4</ele><name>TP01576</name><time>2020-01-27T11:15:49Z</time></trkpt>
   <trkpt lat="31.242596" lon="35.25306"><ele>341.9</ele><name>TP01577</name><time>2020-01-27T11:15:50Z</time></trkpt>
   <trkpt lat="31.242598" lon="35.253174"><ele>340.8</ele><name>TP01578</name><time>2020-01-27T11:15:52Z</time></trkpt>
   <trkpt lat="31.242612" lon="35.253284"><ele>339.9</ele><name>TP01579</name><time>2020-01-27T11:15:54Z</time></trkpt>
   <trkpt lat="31.242597" lon="35.253318"><ele>339.7</ele><name>TP01580</name><time>2020-01-27T11:15:56Z</time></trkpt>
   <trkpt lat="31.24258" lon="35.253331"><ele>339.5</ele><name>TP01581</name><time>2020-01-27T11:15:57Z</time></trkpt>
   <trkpt lat="31.242539" lon="35.253348"><ele>339.2</ele><name>TP01582</name><time>2020-01-27T11:15:58Z</time></trkpt>
   <trkpt lat="31.242527" lon="35.253373"><ele>339</ele><name>TP01583</name><time>2020-01-27T11:15:59Z</time></trkpt>
   <trkpt lat="31.242514" lon="35.253405"><ele>338.8</ele><name>TP01584</name><time>2020-01-27T11:16:01Z</time></trkpt>
   <trkpt lat="31.242512" lon="35.253443"><ele>338.5</ele><name>TP01585</name><time>2020-01-27T11:16:02Z</time></trkpt>
   <trkpt lat="31.24251" lon="35.253484"><ele>338.2</ele><name>TP01586</name><time>2020-01-27T11:16:03Z</time></trkpt>
   <trkpt lat="31.242514" lon="35.253554"><ele>337.7</ele><name>TP01587</name><time>2020-01-27T11:16:04Z</time></trkpt>
   <trkpt lat="31.242508" lon="35.253622"><ele>337.2</ele><name>TP01588</name><time>2020-01-27T11:16:05Z</time></trkpt>
   <trkpt lat="31.242488" lon="35.253688"><ele>336.7</ele><name>TP01589</name><time>2020-01-27T11:16:06Z</time></trkpt>
   <trkpt lat="31.242422" lon="35.253801"><ele>336.5</ele><name>TP01590</name><time>2020-01-27T11:16:08Z</time></trkpt>
   <trkpt lat="31.242378" lon="35.253849"><ele>336.6</ele><name>TP01591</name><time>2020-01-27T11:16:09Z</time></trkpt>
   <trkpt lat="31.242289" lon="35.253901"><ele>336.8</ele><name>TP01592</name><time>2020-01-27T11:16:11Z</time></trkpt>
   <trkpt lat="31.242253" lon="35.253867"><ele>336.8</ele><name>TP01593</name><time>2020-01-27T11:16:13Z</time></trkpt>
   <trkpt lat="31.242217" lon="35.253845"><ele>336.8</ele><name>TP01594</name><time>2020-01-27T11:16:14Z</time></trkpt>
   <trkpt lat="31.242201" lon="35.25384"><ele>336.8</ele><name>TP01595</name><time>2020-01-27T11:16:15Z</time></trkpt>
   <trkpt lat="31.242183" lon="35.253833"><ele>336.8</ele><name>TP01596</name><time>2020-01-27T11:16:16Z</time></trkpt>
   <trkpt lat="31.242177" lon="35.253839"><ele>336.8</ele><name>TP01597</name><time>2020-01-27T11:16:18Z</time></trkpt>
   <trkpt lat="31.242177" lon="35.25389"><ele>336.7</ele><name>TP01598</name><time>2020-01-27T11:16:20Z</time></trkpt>
   <trkpt lat="31.242193" lon="35.253923"><ele>336.7</ele><name>TP01599</name><time>2020-01-27T11:16:21Z</time></trkpt>
   <trkpt lat="31.242226" lon="35.253982"><ele>336.5</ele><name>TP01600</name><time>2020-01-27T11:16:23Z</time></trkpt>
   <trkpt lat="31.242249" lon="35.254037"><ele>336.3</ele><name>TP01601</name><time>2020-01-27T11:16:24Z</time></trkpt>
   <trkpt lat="31.242272" lon="35.254089"><ele>336</ele><name>TP01602</name><time>2020-01-27T11:16:25Z</time></trkpt>
   <trkpt lat="31.242294" lon="35.254156"><ele>335.7</ele><name>TP01603</name><time>2020-01-27T11:16:26Z</time></trkpt>
   <trkpt lat="31.242323" lon="35.254215"><ele>335.5</ele><name>TP01604</name><time>2020-01-27T11:16:28Z</time></trkpt>
   <trkpt lat="31.24235" lon="35.254255"><ele>335.2</ele><name>TP01605</name><time>2020-01-27T11:16:29Z</time></trkpt>
   <trkpt lat="31.242373" lon="35.254314"><ele>335</ele><name>TP01606</name><time>2020-01-27T11:16:30Z</time></trkpt>
   <trkpt lat="31.242364" lon="35.254359"><ele>334.8</ele><name>TP01607</name><time>2020-01-27T11:16:31Z</time></trkpt>
   <trkpt lat="31.242334" lon="35.254394"><ele>334.5</ele><name>TP01608</name><time>2020-01-27T11:16:32Z</time></trkpt>
   <trkpt lat="31.242286" lon="35.254413"><ele>334.3</ele><name>TP01609</name><time>2020-01-27T11:16:34Z</time></trkpt>
   <trkpt lat="31.242256" lon="35.254427"><ele>334.1</ele><name>TP01610</name><time>2020-01-27T11:16:35Z</time></trkpt>
   <trkpt lat="31.242248" lon="35.254429"><ele>333.8</ele><name>TP01611</name><time>2020-01-27T11:16:36Z</time></trkpt>
   <trkpt lat="31.242213" lon="35.254444"><ele>333.6</ele><name>TP01612</name><time>2020-01-27T11:16:38Z</time></trkpt>
   <trkpt lat="31.2422" lon="35.254449"><ele>333.6</ele><name>TP01613</name><time>2020-01-27T11:16:39Z</time></trkpt>
   <trkpt lat="31.242177" lon="35.254458"><ele>333.4</ele><name>TP01614</name><time>2020-01-27T11:16:40Z</time></trkpt>
   <trkpt lat="31.24214" lon="35.254484"><ele>333.2</ele><name>TP01615</name><time>2020-01-27T11:16:42Z</time></trkpt>
   <trkpt lat="31.242117" lon="35.254511"><ele>333.1</ele><name>TP01616</name><time>2020-01-27T11:16:43Z</time></trkpt>
   <trkpt lat="31.242095" lon="35.25453"><ele>333</ele><name>TP01617</name><time>2020-01-27T11:16:44Z</time></trkpt>
   <trkpt lat="31.242057" lon="35.254542"><ele>332.8</ele><name>TP01618</name><time>2020-01-27T11:16:45Z</time></trkpt>
   <trkpt lat="31.242042" lon="35.254546"><ele>332.7</ele><name>TP01619</name><time>2020-01-27T11:16:46Z</time></trkpt>
   <trkpt lat="31.24201" lon="35.25456"><ele>332.5</ele><name>TP01620</name><time>2020-01-27T11:16:47Z</time></trkpt>
   <trkpt lat="31.241972" lon="35.254585"><ele>332.3</ele><name>TP01621</name><time>2020-01-27T11:16:49Z</time></trkpt>
   <trkpt lat="31.241941" lon="35.254599"><ele>332</ele><name>TP01622</name><time>2020-01-27T11:16:50Z</time></trkpt>
   <trkpt lat="31.241898" lon="35.25461"><ele>331.6</ele><name>TP01623</name><time>2020-01-27T11:16:52Z</time></trkpt>
   <trkpt lat="31.241858" lon="35.254617"><ele>331.2</ele><name>TP01624</name><time>2020-01-27T11:16:53Z</time></trkpt>
   <trkpt lat="31.241831" lon="35.254635"><ele>330.9</ele><name>TP01625</name><time>2020-01-27T11:16:54Z</time></trkpt>
   <trkpt lat="31.241814" lon="35.254665"><ele>330.6</ele><name>TP01626</name><time>2020-01-27T11:16:55Z</time></trkpt>
   <trkpt lat="31.24179" lon="35.254705"><ele>330.2</ele><name>TP01627</name><time>2020-01-27T11:16:56Z</time></trkpt>
   <trkpt lat="31.241782" lon="35.254739"><ele>329.9</ele><name>TP01628</name><time>2020-01-27T11:16:57Z</time></trkpt>
   <trkpt lat="31.241781" lon="35.254749"><ele>329.9</ele><name>TP01629</name><time>2020-01-27T11:16:58Z</time></trkpt>
   <trkpt lat="31.24177" lon="35.254796"><ele>329.5</ele><name>TP01630</name><time>2020-01-27T11:17:00Z</time></trkpt>
   <trkpt lat="31.241761" lon="35.254808"><ele>329.3</ele><name>TP01631</name><time>2020-01-27T11:17:01Z</time></trkpt>
   <trkpt lat="31.241751" lon="35.254821"><ele>329.2</ele><name>TP01632</name><time>2020-01-27T11:17:02Z</time></trkpt>
   <trkpt lat="31.241755" lon="35.254864"><ele>328.8</ele><name>TP01633</name><time>2020-01-27T11:17:04Z</time></trkpt>
   <trkpt lat="31.24176" lon="35.2549"><ele>328.6</ele><name>TP01634</name><time>2020-01-27T11:17:05Z</time></trkpt>
   <trkpt lat="31.241769" lon="35.254913"><ele>328.4</ele><name>TP01635</name><time>2020-01-27T11:17:06Z</time></trkpt>
   <trkpt lat="31.241771" lon="35.254927"><ele>328.3</ele><name>TP01636</name><time>2020-01-27T11:17:07Z</time></trkpt>
   <trkpt lat="31.241778" lon="35.254938"><ele>328.3</ele><name>TP01637</name><time>2020-01-27T11:17:09Z</time></trkpt>
   <trkpt lat="31.241785" lon="35.25493"><ele>328.2</ele><name>TP01638</name><time>2020-01-27T11:17:10Z</time></trkpt>
   <trkpt lat="31.24179" lon="35.254915"><ele>328.1</ele><name>TP01639</name><time>2020-01-27T11:17:11Z</time></trkpt>
   <trkpt lat="31.241787" lon="35.254906"><ele>328</ele><name>TP01640</name><time>2020-01-27T11:17:12Z</time></trkpt>
   <trkpt lat="31.241782" lon="35.254898"><ele>327.9</ele><name>TP01641</name><time>2020-01-27T11:17:13Z</time></trkpt>
   <trkpt lat="31.241774" lon="35.254884"><ele>327.8</ele><name>TP01642</name><time>2020-01-27T11:17:15Z</time></trkpt>
   <trkpt lat="31.241765" lon="35.254854"><ele>327.6</ele><name>TP01643</name><time>2020-01-27T11:17:17Z</time></trkpt>
   <trkpt lat="31.241741" lon="35.254816"><ele>327.3</ele><name>TP01644</name><time>2020-01-27T11:17:19Z</time></trkpt>
   <trkpt lat="31.241731" lon="35.254795"><ele>327.1</ele><name>TP01645</name><time>2020-01-27T11:17:21Z</time></trkpt>
   <trkpt lat="31.241729" lon="35.25479"><ele>327.1</ele><name>TP01646</name><time>2020-01-27T11:17:22Z</time></trkpt>
   <trkpt lat="31.241723" lon="35.254788"><ele>327</ele><name>TP01647</name><time>2020-01-27T11:17:24Z</time></trkpt>
   <trkpt lat="31.241718" lon="35.254789"><ele>327</ele><name>TP01648</name><time>2020-01-27T11:17:26Z</time></trkpt>
   <trkpt lat="31.241717" lon="35.254789"><ele>327</ele><name>TP01649</name><time>2020-01-27T11:17:27Z</time></trkpt>
   <trkpt lat="31.241715" lon="35.254789"><ele>326.9</ele><name>TP01650</name><time>2020-01-27T11:17:28Z</time></trkpt>
   <trkpt lat="31.241731" lon="35.254806"><ele>326.8</ele><name>TP01651</name><time>2020-01-27T11:17:30Z</time></trkpt>
   <trkpt lat="31.241727" lon="35.254803"><ele>326.7</ele><name>TP01652</name><time>2020-01-27T11:17:31Z</time></trkpt>
   <trkpt lat="31.241722" lon="35.254777"><ele>326.6</ele><name>TP01653</name><time>2020-01-27T11:17:33Z</time></trkpt>
   <trkpt lat="31.24172" lon="35.254758"><ele>326.5</ele><name>TP01654</name><time>2020-01-27T11:17:35Z</time></trkpt>
   <trkpt lat="31.241719" lon="35.254728"><ele>326.3</ele><name>TP01655</name><time>2020-01-27T11:17:37Z</time></trkpt>
   <trkpt lat="31.241719" lon="35.254728"><ele>326.3</ele><name>TP01656</name><time>2020-01-27T11:17:38Z</time></trkpt>
   <trkpt lat="31.241718" lon="35.254729"><ele>326.2</ele><name>TP01657</name><time>2020-01-27T11:17:40Z</time></trkpt>
   <trkpt lat="31.241718" lon="35.254729"><ele>326.2</ele><name>TP01658</name><time>2020-01-27T11:17:41Z</time></trkpt>
   <trkpt lat="31.241718" lon="35.254729"><ele>326.2</ele><name>TP01659</name><time>2020-01-27T11:17:43Z</time></trkpt>
   <trkpt lat="31.241718" lon="35.254729"><ele>326.2</ele><name>TP01660</name><time>2020-01-27T11:17:45Z</time></trkpt>
   <trkpt lat="31.241718" lon="35.254729"><ele>326.2</ele><name>TP01661</name><time>2020-01-27T11:17:46Z</time></trkpt>
   <trkpt lat="31.241718" lon="35.254729"><ele>326.2</ele><name>TP01662</name><time>2020-01-27T11:17:47Z</time></trkpt>
   <trkpt lat="31.241718" lon="35.254714"><ele>326.2</ele><name>TP01663</name><time>2020-01-27T11:17:48Z</time></trkpt>
   <trkpt lat="31.241719" lon="35.254697"><ele>326</ele><name>TP01664</name><time>2020-01-27T11:17:50Z</time></trkpt>
   <trkpt lat="31.241719" lon="35.254696"><ele>326</ele><name>TP01665</name><time>2020-01-27T11:17:51Z</time></trkpt>
   <trkpt lat="31.241719" lon="35.254696"><ele>326</ele><name>TP01666</name><time>2020-01-27T11:17:52Z</time></trkpt>
   <trkpt lat="31.241719" lon="35.254696"><ele>326</ele><name>TP01667</name><time>2020-01-27T11:17:53Z</time></trkpt>
   <trkpt lat="31.241719" lon="35.254696"><ele>326</ele><name>TP01668</name><time>2020-01-27T11:17:55Z</time></trkpt>
   <trkpt lat="31.241719" lon="35.254696"><ele>326</ele><name>TP01669</name><time>2020-01-27T11:17:57Z</time></trkpt>
   <trkpt lat="31.241721" lon="35.254715"><ele>325.9</ele><name>TP01670</name><time>2020-01-27T11:17:59Z</time></trkpt>
   <trkpt lat="31.241722" lon="35.254714"><ele>325.9</ele><name>TP01671</name><time>2020-01-27T11:18:01Z</time></trkpt>
   <trkpt lat="31.241727" lon="35.254746"><ele>325.7</ele><name>TP01672</name><time>2020-01-27T11:18:03Z</time></trkpt>
   <trkpt lat="31.24173" lon="35.254766"><ele>325.6</ele><name>TP01673</name><time>2020-01-27T11:18:04Z</time></trkpt>
   <trkpt lat="31.241733" lon="35.254784"><ele>325.5</ele><name>TP01674</name><time>2020-01-27T11:18:05Z</time></trkpt>
   <trkpt lat="31.241728" lon="35.254804"><ele>325.4</ele><name>TP01675</name><time>2020-01-27T11:18:07Z</time></trkpt>
   <trkpt lat="31.24171" lon="35.254805"><ele>325.2</ele><name>TP01676</name><time>2020-01-27T11:18:08Z</time></trkpt>
   <trkpt lat="31.241676" lon="35.254818"><ele>325</ele><name>TP01677</name><time>2020-01-27T11:18:10Z</time></trkpt>
   <trkpt lat="31.241639" lon="35.254815"><ele>324.7</ele><name>TP01678</name><time>2020-01-27T11:18:11Z</time></trkpt>
   <trkpt lat="31.241625" lon="35.254812"><ele>324.6</ele><name>TP01679</name><time>2020-01-27T11:18:12Z</time></trkpt>
   <trkpt lat="31.241597" lon="35.254779"><ele>324.4</ele><name>TP01680</name><time>2020-01-27T11:18:14Z</time></trkpt>
   <trkpt lat="31.24157" lon="35.254756"><ele>324.1</ele><name>TP01681</name><time>2020-01-27T11:18:15Z</time></trkpt>
   <trkpt lat="31.241539" lon="35.254739"><ele>323.9</ele><name>TP01682</name><time>2020-01-27T11:18:16Z</time></trkpt>
   <trkpt lat="31.241486" lon="35.254737"><ele>323.6</ele><name>TP01683</name><time>2020-01-27T11:18:17Z</time></trkpt>
   <trkpt lat="31.241436" lon="35.254736"><ele>323.2</ele><name>TP01684</name><time>2020-01-27T11:18:18Z</time></trkpt>
   <trkpt lat="31.241384" lon="35.25474"><ele>322.9</ele><name>TP01685</name><time>2020-01-27T11:18:20Z</time></trkpt>
   <trkpt lat="31.241349" lon="35.25474"><ele>322.6</ele><name>TP01686</name><time>2020-01-27T11:18:21Z</time></trkpt>
   <trkpt lat="31.24132" lon="35.254733"><ele>322.4</ele><name>TP01687</name><time>2020-01-27T11:18:22Z</time></trkpt>
   <trkpt lat="31.24129" lon="35.254722"><ele>322.2</ele><name>TP01688</name><time>2020-01-27T11:18:23Z</time></trkpt>
   <trkpt lat="31.241263" lon="35.254702"><ele>322</ele><name>TP01689</name><time>2020-01-27T11:18:24Z</time></trkpt>
   <trkpt lat="31.241253" lon="35.254683"><ele>321.9</ele><name>TP01690</name><time>2020-01-27T11:18:25Z</time></trkpt>
   <trkpt lat="31.241233" lon="35.254695"><ele>321.7</ele><name>TP01691</name><time>2020-01-27T11:18:26Z</time></trkpt>
   <trkpt lat="31.241212" lon="35.254733"><ele>321.3</ele><name>TP01692</name><time>2020-01-27T11:18:28Z</time></trkpt>
   <trkpt lat="31.241211" lon="35.254746"><ele>321.3</ele><name>TP01693</name><time>2020-01-27T11:18:29Z</time></trkpt>
   <trkpt lat="31.241209" lon="35.25476"><ele>321.3</ele><name>TP01694</name><time>2020-01-27T11:18:31Z</time></trkpt>
   <trkpt lat="31.241207" lon="35.254773"><ele>321.4</ele><name>TP01695</name><time>2020-01-27T11:18:32Z</time></trkpt>
   <trkpt lat="31.241203" lon="35.254792"><ele>321.4</ele><name>TP01696</name><time>2020-01-27T11:18:33Z</time></trkpt>
   <trkpt lat="31.241218" lon="35.254812"><ele>321.5</ele><name>TP01697</name><time>2020-01-27T11:18:36Z</time></trkpt>
   <trkpt lat="31.241191" lon="35.254837"><ele>321.5</ele><name>TP01698</name><time>2020-01-27T11:18:38Z</time></trkpt>
   <trkpt lat="31.241164" lon="35.25486"><ele>321.7</ele><name>TP01699</name><time>2020-01-27T11:18:39Z</time></trkpt>
   <trkpt lat="31.241137" lon="35.254889"><ele>321.8</ele><name>TP01700</name><time>2020-01-27T11:18:40Z</time></trkpt>
   <trkpt lat="31.241105" lon="35.254917"><ele>321.9</ele><name>TP01701</name><time>2020-01-27T11:18:41Z</time></trkpt>
   <trkpt lat="31.24106" lon="35.25497"><ele>322.1</ele><name>TP01702</name><time>2020-01-27T11:18:42Z</time></trkpt>
   <trkpt lat="31.240988" lon="35.25509"><ele>322.6</ele><name>TP01703</name><time>2020-01-27T11:18:44Z</time></trkpt>
   <trkpt lat="31.240942" lon="35.255171"><ele>322.9</ele><name>TP01704</name><time>2020-01-27T11:18:46Z</time></trkpt>
   <trkpt lat="31.240929" lon="35.255219"><ele>323.1</ele><name>TP01705</name><time>2020-01-27T11:18:48Z</time></trkpt>
   <trkpt lat="31.240929" lon="35.255226"><ele>323.1</ele><name>TP01706</name><time>2020-01-27T11:18:49Z</time></trkpt>
   <trkpt lat="31.240924" lon="35.255253"><ele>323.2</ele><name>TP01707</name><time>2020-01-27T11:18:51Z</time></trkpt>
   <trkpt lat="31.24092" lon="35.255261"><ele>323.3</ele><name>TP01708</name><time>2020-01-27T11:18:52Z</time></trkpt>
   <trkpt lat="31.240919" lon="35.255269"><ele>323.3</ele><name>TP01709</name><time>2020-01-27T11:18:53Z</time></trkpt>
   <trkpt lat="31.240921" lon="35.255279"><ele>323.3</ele><name>TP01710</name><time>2020-01-27T11:18:55Z</time></trkpt>
   <trkpt lat="31.240923" lon="35.255287"><ele>323.3</ele><name>TP01711</name><time>2020-01-27T11:18:57Z</time></trkpt>
   <trkpt lat="31.240926" lon="35.255294"><ele>323.4</ele><name>TP01712</name><time>2020-01-27T11:18:59Z</time></trkpt>
   <trkpt lat="31.24093" lon="35.255298"><ele>323.4</ele><name>TP01713</name><time>2020-01-27T11:19:00Z</time></trkpt>
   <trkpt lat="31.240943" lon="35.255225"><ele>323.6</ele><name>TP01714</name><time>2020-01-27T11:19:02Z</time></trkpt>
   <trkpt lat="31.240945" lon="35.255198"><ele>323.7</ele><name>TP01715</name><time>2020-01-27T11:19:03Z</time></trkpt>
   <trkpt lat="31.240945" lon="35.255188"><ele>323.7</ele><name>TP01716</name><time>2020-01-27T11:19:04Z</time></trkpt>
   <trkpt lat="31.240946" lon="35.255178"><ele>323.7</ele><name>TP01717</name><time>2020-01-27T11:19:06Z</time></trkpt>
   <trkpt lat="31.240946" lon="35.255175"><ele>323.7</ele><name>TP01718</name><time>2020-01-27T11:19:07Z</time></trkpt>
   <trkpt lat="31.240946" lon="35.255173"><ele>323.7</ele><name>TP01719</name><time>2020-01-27T11:19:09Z</time></trkpt>
   <trkpt lat="31.240946" lon="35.255172"><ele>323.7</ele><name>TP01720</name><time>2020-01-27T11:19:10Z</time></trkpt>
   <trkpt lat="31.240946" lon="35.255172"><ele>323.7</ele><name>TP01721</name><time>2020-01-27T11:19:12Z</time></trkpt>
   <trkpt lat="31.240946" lon="35.255172"><ele>323.7</ele><name>TP01722</name><time>2020-01-27T11:19:14Z</time></trkpt>
   <trkpt lat="31.240946" lon="35.255172"><ele>323.7</ele><name>TP01723</name><time>2020-01-27T11:19:15Z</time></trkpt>
   <trkpt lat="31.240946" lon="35.255172"><ele>323.7</ele><name>TP01724</name><time>2020-01-27T11:19:17Z</time></trkpt>
   <trkpt lat="31.240946" lon="35.255172"><ele>323.7</ele><name>TP01725</name><time>2020-01-27T11:19:18Z</time></trkpt>
   <trkpt lat="31.240946" lon="35.255172"><ele>323.7</ele><name>TP01726</name><time>2020-01-27T11:19:20Z</time></trkpt>
   <trkpt lat="31.240946" lon="35.255172"><ele>323.7</ele><name>TP01727</name><time>2020-01-27T11:19:21Z</time></trkpt>
   <trkpt lat="31.240946" lon="35.255172"><ele>323.7</ele><name>TP01728</name><time>2020-01-27T11:19:22Z</time></trkpt>
   <trkpt lat="31.240946" lon="35.255172"><ele>323.7</ele><name>TP01729</name><time>2020-01-27T11:19:23Z</time></trkpt>
   <trkpt lat="31.240946" lon="35.255172"><ele>323.7</ele><name>TP01730</name><time>2020-01-27T11:19:25Z</time></trkpt>
   <trkpt lat="31.240946" lon="35.255172"><ele>323.7</ele><name>TP01731</name><time>2020-01-27T11:19:27Z</time></trkpt>
   <trkpt lat="31.240946" lon="35.255172"><ele>323.7</ele><name>TP01732</name><time>2020-01-27T11:19:29Z</time></trkpt>
   <trkpt lat="31.240946" lon="35.255172"><ele>323.7</ele><name>TP01733</name><time>2020-01-27T11:19:30Z</time></trkpt>
   <trkpt lat="31.240946" lon="35.255172"><ele>323.7</ele><name>TP01734</name><time>2020-01-27T11:19:31Z</time></trkpt>
   <trkpt lat="31.240946" lon="35.255172"><ele>323.7</ele><name>TP01735</name><time>2020-01-27T11:19:33Z</time></trkpt>
   <trkpt lat="31.240946" lon="35.255172"><ele>323.7</ele><name>TP01736</name><time>2020-01-27T11:19:34Z</time></trkpt>
   <trkpt lat="31.24093" lon="35.255141"><ele>323.9</ele><name>TP01737</name><time>2020-01-27T11:19:36Z</time></trkpt>
   <trkpt lat="31.240906" lon="35.255119"><ele>324</ele><name>TP01738</name><time>2020-01-27T11:19:38Z</time></trkpt>
   <trkpt lat="31.240897" lon="35.255111"><ele>324</ele><name>TP01739</name><time>2020-01-27T11:19:40Z</time></trkpt>
   <trkpt lat="31.240898" lon="35.255107"><ele>324</ele><name>TP01740</name><time>2020-01-27T11:19:41Z</time></trkpt>
   <trkpt lat="31.240902" lon="35.255117"><ele>324</ele><name>TP01741</name><time>2020-01-27T11:19:42Z</time></trkpt>
   <trkpt lat="31.240893" lon="35.255109"><ele>324.1</ele><name>TP01742</name><time>2020-01-27T11:19:43Z</time></trkpt>
   <trkpt lat="31.240887" lon="35.255106"><ele>324.1</ele><name>TP01743</name><time>2020-01-27T11:19:44Z</time></trkpt>
   <trkpt lat="31.240879" lon="35.255098"><ele>324.1</ele><name>TP01744</name><time>2020-01-27T11:19:46Z</time></trkpt>
   <trkpt lat="31.24087" lon="35.255091"><ele>324.2</ele><name>TP01745</name><time>2020-01-27T11:19:47Z</time></trkpt>
   <trkpt lat="31.240856" lon="35.255081"><ele>324.2</ele><name>TP01746</name><time>2020-01-27T11:19:48Z</time></trkpt>
   <trkpt lat="31.240848" lon="35.255073"><ele>324.3</ele><name>TP01747</name><time>2020-01-27T11:19:49Z</time></trkpt>
   <trkpt lat="31.240839" lon="35.255066"><ele>324.3</ele><name>TP01748</name><time>2020-01-27T11:19:50Z</time></trkpt>
   <trkpt lat="31.240824" lon="35.255052"><ele>324.4</ele><name>TP01749</name><time>2020-01-27T11:19:52Z</time></trkpt>
   <trkpt lat="31.240812" lon="35.255043"><ele>324.4</ele><name>TP01750</name><time>2020-01-27T11:19:53Z</time></trkpt>
   <trkpt lat="31.240802" lon="35.255031"><ele>324.5</ele><name>TP01751</name><time>2020-01-27T11:19:55Z</time></trkpt>
   <trkpt lat="31.24079" lon="35.255015"><ele>324.5</ele><name>TP01752</name><time>2020-01-27T11:19:56Z</time></trkpt>
   <trkpt lat="31.240772" lon="35.255001"><ele>324.6</ele><name>TP01753</name><time>2020-01-27T11:19:58Z</time></trkpt>
   <trkpt lat="31.240758" lon="35.254993"><ele>324.7</ele><name>TP01754</name><time>2020-01-27T11:19:59Z</time></trkpt>
   <trkpt lat="31.24075" lon="35.254986"><ele>324.7</ele><name>TP01755</name><time>2020-01-27T11:20:00Z</time></trkpt>
   <trkpt lat="31.240742" lon="35.254977"><ele>324.7</ele><name>TP01756</name><time>2020-01-27T11:20:02Z</time></trkpt>
   <trkpt lat="31.240736" lon="35.25497"><ele>324.8</ele><name>TP01757</name><time>2020-01-27T11:20:04Z</time></trkpt>
   <trkpt lat="31.240729" lon="35.254962"><ele>324.8</ele><name>TP01758</name><time>2020-01-27T11:20:05Z</time></trkpt>
   <trkpt lat="31.240721" lon="35.254955"><ele>324.8</ele><name>TP01759</name><time>2020-01-27T11:20:06Z</time></trkpt>
   <trkpt lat="31.24071" lon="35.254944"><ele>324.9</ele><name>TP01760</name><time>2020-01-27T11:20:08Z</time></trkpt>
   <trkpt lat="31.240696" lon="35.254932"><ele>325</ele><name>TP01761</name><time>2020-01-27T11:20:09Z</time></trkpt>
   <trkpt lat="31.240685" lon="35.25492"><ele>325</ele><name>TP01762</name><time>2020-01-27T11:20:11Z</time></trkpt>
   <trkpt lat="31.240673" lon="35.254909"><ele>325.1</ele><name>TP01763</name><time>2020-01-27T11:20:13Z</time></trkpt>
   <trkpt lat="31.24067" lon="35.254904"><ele>325.1</ele><name>TP01764</name><time>2020-01-27T11:20:14Z</time></trkpt>
   <trkpt lat="31.240668" lon="35.254902"><ele>325.1</ele><name>TP01765</name><time>2020-01-27T11:20:15Z</time></trkpt>
   <trkpt lat="31.240662" lon="35.254901"><ele>325.1</ele><name>TP01766</name><time>2020-01-27T11:20:17Z</time></trkpt>
   <trkpt lat="31.240652" lon="35.254901"><ele>325.2</ele><name>TP01767</name><time>2020-01-27T11:20:18Z</time></trkpt>
   <trkpt lat="31.240637" lon="35.254905"><ele>325.2</ele><name>TP01768</name><time>2020-01-27T11:20:19Z</time></trkpt>
   <trkpt lat="31.240622" lon="35.254907"><ele>325.2</ele><name>TP01769</name><time>2020-01-27T11:20:21Z</time></trkpt>
   <trkpt lat="31.240615" lon="35.254907"><ele>325.3</ele><name>TP01770</name><time>2020-01-27T11:20:22Z</time></trkpt>
   <trkpt lat="31.240604" lon="35.254905"><ele>325.3</ele><name>TP01771</name><time>2020-01-27T11:20:23Z</time></trkpt>
   <trkpt lat="31.24058" lon="35.254903"><ele>325.4</ele><name>TP01772</name><time>2020-01-27T11:20:25Z</time></trkpt>
   <trkpt lat="31.240572" lon="35.254904"><ele>325.4</ele><name>TP01773</name><time>2020-01-27T11:20:27Z</time></trkpt>
   <trkpt lat="31.240565" lon="35.254904"><ele>325.4</ele><name>TP01774</name><time>2020-01-27T11:20:28Z</time></trkpt>
   <trkpt lat="31.240557" lon="35.254905"><ele>325.4</ele><name>TP01775</name><time>2020-01-27T11:20:29Z</time></trkpt>
   <trkpt lat="31.240549" lon="35.254906"><ele>325.4</ele><name>TP01776</name><time>2020-01-27T11:20:31Z</time></trkpt>
   <trkpt lat="31.240541" lon="35.254907"><ele>325.4</ele><name>TP01777</name><time>2020-01-27T11:20:33Z</time></trkpt>
   <trkpt lat="31.240534" lon="35.254907"><ele>325.4</ele><name>TP01778</name><time>2020-01-27T11:20:34Z</time></trkpt>
   <trkpt lat="31.240526" lon="35.254908"><ele>325.4</ele><name>TP01779</name><time>2020-01-27T11:20:35Z</time></trkpt>
   <trkpt lat="31.240518" lon="35.254909"><ele>325.4</ele><name>TP01780</name><time>2020-01-27T11:20:36Z</time></trkpt>
   <trkpt lat="31.24051" lon="35.25491"><ele>325.4</ele><name>TP01781</name><time>2020-01-27T11:20:38Z</time></trkpt>
   <trkpt lat="31.240503" lon="35.25491"><ele>325.4</ele><name>TP01782</name><time>2020-01-27T11:20:39Z</time></trkpt>
   <trkpt lat="31.240495" lon="35.254911"><ele>325.5</ele><name>TP01783</name><time>2020-01-27T11:20:41Z</time></trkpt>
   <trkpt lat="31.240487" lon="35.254912"><ele>325.5</ele><name>TP01784</name><time>2020-01-27T11:20:42Z</time></trkpt>
   <trkpt lat="31.240457" lon="35.254908"><ele>325.4</ele><name>TP01785</name><time>2020-01-27T11:20:44Z</time></trkpt>
   <trkpt lat="31.240423" lon="35.254903"><ele>325.4</ele><name>TP01786</name><time>2020-01-27T11:20:46Z</time></trkpt>
   <trkpt lat="31.240399" lon="35.254902"><ele>325.4</ele><name>TP01787</name><time>2020-01-27T11:20:47Z</time></trkpt>
   <trkpt lat="31.24037" lon="35.254899"><ele>325.3</ele><name>TP01788</name><time>2020-01-27T11:20:49Z</time></trkpt>
   <trkpt lat="31.240336" lon="35.254897"><ele>325.2</ele><name>TP01789</name><time>2020-01-27T11:20:50Z</time></trkpt>
   <trkpt lat="31.240323" lon="35.254896"><ele>325.2</ele><name>TP01790</name><time>2020-01-27T11:20:51Z</time></trkpt>
   <trkpt lat="31.240299" lon="35.254894"><ele>325.1</ele><name>TP01791</name><time>2020-01-27T11:20:53Z</time></trkpt>
   <trkpt lat="31.240288" lon="35.25489"><ele>325.1</ele><name>TP01792</name><time>2020-01-27T11:20:54Z</time></trkpt>
   <trkpt lat="31.240247" lon="35.254883"><ele>324.9</ele><name>TP01793</name><time>2020-01-27T11:20:56Z</time></trkpt>
   <trkpt lat="31.240222" lon="35.25488"><ele>324.8</ele><name>TP01794</name><time>2020-01-27T11:20:57Z</time></trkpt>
   <trkpt lat="31.240177" lon="35.254877"><ele>324.7</ele><name>TP01795</name><time>2020-01-27T11:20:59Z</time></trkpt>
   <trkpt lat="31.240126" lon="35.254867"><ele>324.5</ele><name>TP01796</name><time>2020-01-27T11:21:01Z</time></trkpt>
   <trkpt lat="31.240023" lon="35.254874"><ele>324.2</ele><name>TP01797</name><time>2020-01-27T11:21:02Z</time></trkpt>
   <trkpt lat="31.239966" lon="35.254878"><ele>324.1</ele><name>TP01798</name><time>2020-01-27T11:21:03Z</time></trkpt>
   <trkpt lat="31.23991" lon="35.254882"><ele>324.1</ele><name>TP01799</name><time>2020-01-27T11:21:04Z</time></trkpt>
   <trkpt lat="31.2398" lon="35.254901"><ele>324</ele><name>TP01800</name><time>2020-01-27T11:21:06Z</time></trkpt>
   <trkpt lat="31.239784" lon="35.254905"><ele>324</ele><name>TP01801</name><time>2020-01-27T11:21:08Z</time></trkpt>
   <trkpt lat="31.239762" lon="35.254908"><ele>324</ele><name>TP01802</name><time>2020-01-27T11:21:09Z</time></trkpt>
   <trkpt lat="31.239707" lon="35.254926"><ele>324.1</ele><name>TP01803</name><time>2020-01-27T11:21:11Z</time></trkpt>
   <trkpt lat="31.239667" lon="35.254923"><ele>324.1</ele><name>TP01804</name><time>2020-01-27T11:21:12Z</time></trkpt>
   <trkpt lat="31.239623" lon="35.254931"><ele>324.2</ele><name>TP01805</name><time>2020-01-27T11:21:14Z</time></trkpt>
   <trkpt lat="31.239605" lon="35.254931"><ele>324.2</ele><name>TP01806</name><time>2020-01-27T11:21:15Z</time></trkpt>
   <trkpt lat="31.239573" lon="35.254936"><ele>324.2</ele><name>TP01807</name><time>2020-01-27T11:21:16Z</time></trkpt>
   <trkpt lat="31.239527" lon="35.254938"><ele>324.3</ele><name>TP01808</name><time>2020-01-27T11:21:18Z</time></trkpt>
   <trkpt lat="31.239496" lon="35.254951"><ele>324.3</ele><name>TP01809</name><time>2020-01-27T11:21:19Z</time></trkpt>
   <trkpt lat="31.239447" lon="35.254952"><ele>324.4</ele><name>TP01810</name><time>2020-01-27T11:21:21Z</time></trkpt>
   <trkpt lat="31.239415" lon="35.254958"><ele>324.5</ele><name>TP01811</name><time>2020-01-27T11:21:22Z</time></trkpt>
   <trkpt lat="31.239366" lon="35.254953"><ele>324.2</ele><name>TP01812</name><time>2020-01-27T11:21:24Z</time></trkpt>
   <trkpt lat="31.239334" lon="35.254956"><ele>324</ele><name>TP01813</name><time>2020-01-27T11:21:25Z</time></trkpt>
   <trkpt lat="31.239297" lon="35.254951"><ele>323.8</ele><name>TP01814</name><time>2020-01-27T11:21:26Z</time></trkpt>
   <trkpt lat="31.239223" lon="35.254936"><ele>323.2</ele><name>TP01815</name><time>2020-01-27T11:21:28Z</time></trkpt>
   <trkpt lat="31.23913" lon="35.254915"><ele>322.6</ele><name>TP01816</name><time>2020-01-27T11:21:29Z</time></trkpt>
   <trkpt lat="31.239074" lon="35.254906"><ele>322.2</ele><name>TP01817</name><time>2020-01-27T11:21:30Z</time></trkpt>
   <trkpt lat="31.239013" lon="35.2549"><ele>321.7</ele><name>TP01818</name><time>2020-01-27T11:21:31Z</time></trkpt>
   <trkpt lat="31.238889" lon="35.25488"><ele>320.7</ele><name>TP01819</name><time>2020-01-27T11:21:33Z</time></trkpt>
   <trkpt lat="31.23875" lon="35.254862"><ele>319.8</ele><name>TP01820</name><time>2020-01-27T11:21:35Z</time></trkpt>
   <trkpt lat="31.238676" lon="35.254852"><ele>319.3</ele><name>TP01821</name><time>2020-01-27T11:21:36Z</time></trkpt>
   <trkpt lat="31.238601" lon="35.254843"><ele>318.8</ele><name>TP01822</name><time>2020-01-27T11:21:37Z</time></trkpt>
   <trkpt lat="31.238529" lon="35.254833"><ele>318.2</ele><name>TP01823</name><time>2020-01-27T11:21:38Z</time></trkpt>
   <trkpt lat="31.238457" lon="35.25482"><ele>317.5</ele><name>TP01824</name><time>2020-01-27T11:21:39Z</time></trkpt>
   <trkpt lat="31.238388" lon="35.254806"><ele>317.1</ele><name>TP01825</name><time>2020-01-27T11:21:40Z</time></trkpt>
   <trkpt lat="31.238266" lon="35.254802"><ele>316.4</ele><name>TP01826</name><time>2020-01-27T11:21:42Z</time></trkpt>
   <trkpt lat="31.238172" lon="35.254846"><ele>316.7</ele><name>TP01827</name><time>2020-01-27T11:21:44Z</time></trkpt>
   <trkpt lat="31.238157" lon="35.254879"><ele>316.8</ele><name>TP01828</name><time>2020-01-27T11:21:45Z</time></trkpt>
   <trkpt lat="31.238128" lon="35.254924"><ele>317.1</ele><name>TP01829</name><time>2020-01-27T11:21:47Z</time></trkpt>
   <trkpt lat="31.238102" lon="35.254937"><ele>317.2</ele><name>TP01830</name><time>2020-01-27T11:21:48Z</time></trkpt>
   <trkpt lat="31.238069" lon="35.254951"><ele>317.4</ele><name>TP01831</name><time>2020-01-27T11:21:49Z</time></trkpt>
   <trkpt lat="31.238021" lon="35.254976"><ele>317.4</ele><name>TP01832</name><time>2020-01-27T11:21:51Z</time></trkpt>
   <trkpt lat="31.237973" lon="35.254992"><ele>317.5</ele><name>TP01833</name><time>2020-01-27T11:21:53Z</time></trkpt>
   <trkpt lat="31.237932" lon="35.255009"><ele>317.5</ele><name>TP01834</name><time>2020-01-27T11:21:54Z</time></trkpt>
   <trkpt lat="31.237904" lon="35.255015"><ele>317.5</ele><name>TP01835</name><time>2020-01-27T11:21:55Z</time></trkpt>
   <trkpt lat="31.237863" lon="35.255033"><ele>317.4</ele><name>TP01836</name><time>2020-01-27T11:21:57Z</time></trkpt>
   <trkpt lat="31.237837" lon="35.255047"><ele>317.4</ele><name>TP01837</name><time>2020-01-27T11:21:58Z</time></trkpt>
   <trkpt lat="31.237815" lon="35.255083"><ele>317.3</ele><name>TP01838</name><time>2020-01-27T11:21:59Z</time></trkpt>
   <trkpt lat="31.237807" lon="35.255096"><ele>317.2</ele><name>TP01839</name><time>2020-01-27T11:22:00Z</time></trkpt>
   <trkpt lat="31.237786" lon="35.255147"><ele>317.1</ele><name>TP01840</name><time>2020-01-27T11:22:02Z</time></trkpt>
   <trkpt lat="31.237763" lon="35.255183"><ele>316.9</ele><name>TP01841</name><time>2020-01-27T11:22:04Z</time></trkpt>
   <trkpt lat="31.237742" lon="35.255216"><ele>316.8</ele><name>TP01842</name><time>2020-01-27T11:22:05Z</time></trkpt>
   <trkpt lat="31.237718" lon="35.255256"><ele>316.7</ele><name>TP01843</name><time>2020-01-27T11:22:06Z</time></trkpt>
   <trkpt lat="31.237699" lon="35.25528"><ele>316.6</ele><name>TP01844</name><time>2020-01-27T11:22:07Z</time></trkpt>
   <trkpt lat="31.237665" lon="35.255289"><ele>316.5</ele><name>TP01845</name><time>2020-01-27T11:22:09Z</time></trkpt>
   <trkpt lat="31.237629" lon="35.255285"><ele>316.3</ele><name>TP01846</name><time>2020-01-27T11:22:10Z</time></trkpt>
   <trkpt lat="31.237603" lon="35.25526"><ele>316.1</ele><name>TP01847</name><time>2020-01-27T11:22:11Z</time></trkpt>
   <trkpt lat="31.237586" lon="35.255214"><ele>315.9</ele><name>TP01848</name><time>2020-01-27T11:22:13Z</time></trkpt>
   <trkpt lat="31.237582" lon="35.25517"><ele>315.8</ele><name>TP01849</name><time>2020-01-27T11:22:14Z</time></trkpt>
   <trkpt lat="31.237574" lon="35.25512"><ele>315.6</ele><name>TP01850</name><time>2020-01-27T11:22:15Z</time></trkpt>
   <trkpt lat="31.23757" lon="35.255102"><ele>315.5</ele><name>TP01851</name><time>2020-01-27T11:22:16Z</time></trkpt>
   <trkpt lat="31.237552" lon="35.255063"><ele>315.4</ele><name>TP01852</name><time>2020-01-27T11:22:18Z</time></trkpt>
   <trkpt lat="31.237516" lon="35.255032"><ele>315.1</ele><name>TP01853</name><time>2020-01-27T11:22:19Z</time></trkpt>
   <trkpt lat="31.237482" lon="35.25503"><ele>314.9</ele><name>TP01854</name><time>2020-01-27T11:22:20Z</time></trkpt>
   <trkpt lat="31.23745" lon="35.255041"><ele>314.8</ele><name>TP01855</name><time>2020-01-27T11:22:21Z</time></trkpt>
   <trkpt lat="31.237385" lon="35.255048"><ele>314.4</ele><name>TP01856</name><time>2020-01-27T11:22:23Z</time></trkpt>
   <trkpt lat="31.237335" lon="35.255056"><ele>314.2</ele><name>TP01857</name><time>2020-01-27T11:22:24Z</time></trkpt>
   <trkpt lat="31.237286" lon="35.255059"><ele>314</ele><name>TP01858</name><time>2020-01-27T11:22:25Z</time></trkpt>
   <trkpt lat="31.237233" lon="35.255068"><ele>313.8</ele><name>TP01859</name><time>2020-01-27T11:22:26Z</time></trkpt>
   <trkpt lat="31.237164" lon="35.255088"><ele>313.5</ele><name>TP01860</name><time>2020-01-27T11:22:28Z</time></trkpt>
   <trkpt lat="31.237108" lon="35.255107"><ele>313.4</ele><name>TP01861</name><time>2020-01-27T11:22:30Z</time></trkpt>
   <trkpt lat="31.237065" lon="35.255122"><ele>313.3</ele><name>TP01862</name><time>2020-01-27T11:22:31Z</time></trkpt>
   <trkpt lat="31.237007" lon="35.255142"><ele>313.2</ele><name>TP01863</name><time>2020-01-27T11:22:32Z</time></trkpt>
   <trkpt lat="31.236934" lon="35.255154"><ele>313.1</ele><name>TP01864</name><time>2020-01-27T11:22:34Z</time></trkpt>
   <trkpt lat="31.236854" lon="35.255156"><ele>312.9</ele><name>TP01865</name><time>2020-01-27T11:22:35Z</time></trkpt>
   <trkpt lat="31.236755" lon="35.255157"><ele>312.6</ele><name>TP01866</name><time>2020-01-27T11:22:37Z</time></trkpt>
   <trkpt lat="31.236648" lon="35.255162"><ele>312.4</ele><name>TP01867</name><time>2020-01-27T11:22:39Z</time></trkpt>
   <trkpt lat="31.236593" lon="35.255172"><ele>312.3</ele><name>TP01868</name><time>2020-01-27T11:22:40Z</time></trkpt>
   <trkpt lat="31.236498" lon="35.255215"><ele>312.2</ele><name>TP01869</name><time>2020-01-27T11:22:42Z</time></trkpt>
   <trkpt lat="31.236434" lon="35.25525"><ele>312.2</ele><name>TP01870</name><time>2020-01-27T11:22:44Z</time></trkpt>
   <trkpt lat="31.236418" lon="35.255255"><ele>312.2</ele><name>TP01871</name><time>2020-01-27T11:22:45Z</time></trkpt>
   <trkpt lat="31.236373" lon="35.25528"><ele>312.3</ele><name>TP01872</name><time>2020-01-27T11:22:47Z</time></trkpt>
   <trkpt lat="31.236335" lon="35.255297"><ele>312.3</ele><name>TP01873</name><time>2020-01-27T11:22:48Z</time></trkpt>
   <trkpt lat="31.236284" lon="35.255319"><ele>312.4</ele><name>TP01874</name><time>2020-01-27T11:22:49Z</time></trkpt>
   <trkpt lat="31.236222" lon="35.255332"><ele>312.5</ele><name>TP01875</name><time>2020-01-27T11:22:51Z</time></trkpt>
   <trkpt lat="31.236151" lon="35.255354"><ele>312.6</ele><name>TP01876</name><time>2020-01-27T11:22:53Z</time></trkpt>
   <trkpt lat="31.236092" lon="35.255367"><ele>312.7</ele><name>TP01877</name><time>2020-01-27T11:22:55Z</time></trkpt>
   <trkpt lat="31.236047" lon="35.255384"><ele>312.8</ele><name>TP01878</name><time>2020-01-27T11:22:56Z</time></trkpt>
   <trkpt lat="31.235998" lon="35.255415"><ele>312.9</ele><name>TP01879</name><time>2020-01-27T11:22:57Z</time></trkpt>
   <trkpt lat="31.235956" lon="35.255453"><ele>312.8</ele><name>TP01880</name><time>2020-01-27T11:22:59Z</time></trkpt>
   <trkpt lat="31.235924" lon="35.255501"><ele>312.8</ele><name>TP01881</name><time>2020-01-27T11:23:00Z</time></trkpt>
   <trkpt lat="31.235897" lon="35.255532"><ele>312.8</ele><name>TP01882</name><time>2020-01-27T11:23:01Z</time></trkpt>
   <trkpt lat="31.235866" lon="35.255562"><ele>312.8</ele><name>TP01883</name><time>2020-01-27T11:23:02Z</time></trkpt>
   <trkpt lat="31.235812" lon="35.255611"><ele>312.7</ele><name>TP01884</name><time>2020-01-27T11:23:04Z</time></trkpt>
   <trkpt lat="31.235768" lon="35.255637"><ele>312.6</ele><name>TP01885</name><time>2020-01-27T11:23:05Z</time></trkpt>
   <trkpt lat="31.235702" lon="35.255663"><ele>312.5</ele><name>TP01886</name><time>2020-01-27T11:23:07Z</time></trkpt>
   <trkpt lat="31.23565" lon="35.255678"><ele>312.4</ele><name>TP01887</name><time>2020-01-27T11:23:08Z</time></trkpt>
   <trkpt lat="31.235603" lon="35.255693"><ele>312.4</ele><name>TP01888</name><time>2020-01-27T11:23:09Z</time></trkpt>
   <trkpt lat="31.235556" lon="35.255716"><ele>312.3</ele><name>TP01889</name><time>2020-01-27T11:23:11Z</time></trkpt>
   <trkpt lat="31.235508" lon="35.255749"><ele>312.2</ele><name>TP01890</name><time>2020-01-27T11:23:12Z</time></trkpt>
   <trkpt lat="31.235476" lon="35.255779"><ele>312.1</ele><name>TP01891</name><time>2020-01-27T11:23:13Z</time></trkpt>
   <trkpt lat="31.235441" lon="35.255815"><ele>312</ele><name>TP01892</name><time>2020-01-27T11:23:14Z</time></trkpt>
   <trkpt lat="31.235371" lon="35.25587"><ele>311.8</ele><name>TP01893</name><time>2020-01-27T11:23:15Z</time></trkpt>
   <trkpt lat="31.235308" lon="35.255927"><ele>311.6</ele><name>TP01894</name><time>2020-01-27T11:23:17Z</time></trkpt>
   <trkpt lat="31.235258" lon="35.255984"><ele>311.5</ele><name>TP01895</name><time>2020-01-27T11:23:19Z</time></trkpt>
   <trkpt lat="31.235234" lon="35.256021"><ele>311.4</ele><name>TP01896</name><time>2020-01-27T11:23:20Z</time></trkpt>
   <trkpt lat="31.235185" lon="35.256142"><ele>310.5</ele><name>TP01897</name><time>2020-01-27T11:23:22Z</time></trkpt>
   <trkpt lat="31.23517" lon="35.256198"><ele>310.3</ele><name>TP01898</name><time>2020-01-27T11:23:23Z</time></trkpt>
   <trkpt lat="31.235151" lon="35.256252"><ele>310.1</ele><name>TP01899</name><time>2020-01-27T11:23:24Z</time></trkpt>
   <trkpt lat="31.235108" lon="35.256359"><ele>309.4</ele><name>TP01900</name><time>2020-01-27T11:23:26Z</time></trkpt>
   <trkpt lat="31.235085" lon="35.256416"><ele>309</ele><name>TP01901</name><time>2020-01-27T11:23:27Z</time></trkpt>
   <trkpt lat="31.235037" lon="35.256527"><ele>308.3</ele><name>TP01902</name><time>2020-01-27T11:23:29Z</time></trkpt>
   <trkpt lat="31.234982" lon="35.256638"><ele>307.9</ele><name>TP01903</name><time>2020-01-27T11:23:31Z</time></trkpt>
   <trkpt lat="31.23495" lon="35.256693"><ele>307.8</ele><name>TP01904</name><time>2020-01-27T11:23:32Z</time></trkpt>
   <trkpt lat="31.234918" lon="35.256746"><ele>307.6</ele><name>TP01905</name><time>2020-01-27T11:23:33Z</time></trkpt>
   <trkpt lat="31.234887" lon="35.256798"><ele>307.5</ele><name>TP01906</name><time>2020-01-27T11:23:34Z</time></trkpt>
   <trkpt lat="31.234837" lon="35.256899"><ele>307.2</ele><name>TP01907</name><time>2020-01-27T11:23:36Z</time></trkpt>
   <trkpt lat="31.234784" lon="35.25697"><ele>306.9</ele><name>TP01908</name><time>2020-01-27T11:23:38Z</time></trkpt>
   <trkpt lat="31.234705" lon="35.257022"><ele>306.7</ele><name>TP01909</name><time>2020-01-27T11:23:40Z</time></trkpt>
   <trkpt lat="31.23468" lon="35.257043"><ele>306.6</ele><name>TP01910</name><time>2020-01-27T11:23:41Z</time></trkpt>
   <trkpt lat="31.234595" lon="35.257115"><ele>306.3</ele><name>TP01911</name><time>2020-01-27T11:23:43Z</time></trkpt>
   <trkpt lat="31.234556" lon="35.25715"><ele>306.1</ele><name>TP01912</name><time>2020-01-27T11:23:44Z</time></trkpt>
   <trkpt lat="31.234479" lon="35.257238"><ele>305.8</ele><name>TP01913</name><time>2020-01-27T11:23:46Z</time></trkpt>
   <trkpt lat="31.23444" lon="35.25729"><ele>305.6</ele><name>TP01914</name><time>2020-01-27T11:23:47Z</time></trkpt>
   <trkpt lat="31.234398" lon="35.257348"><ele>305.4</ele><name>TP01915</name><time>2020-01-27T11:23:48Z</time></trkpt>
   <trkpt lat="31.234316" lon="35.257445"><ele>305</ele><name>TP01916</name><time>2020-01-27T11:23:50Z</time></trkpt>
   <trkpt lat="31.234202" lon="35.25753"><ele>304.5</ele><name>TP01917</name><time>2020-01-27T11:23:52Z</time></trkpt>
   <trkpt lat="31.23415" lon="35.257561"><ele>304.5</ele><name>TP01918</name><time>2020-01-27T11:23:53Z</time></trkpt>
   <trkpt lat="31.234075" lon="35.25762"><ele>304.6</ele><name>TP01919</name><time>2020-01-27T11:23:55Z</time></trkpt>
   <trkpt lat="31.234037" lon="35.257652"><ele>304.6</ele><name>TP01920</name><time>2020-01-27T11:23:56Z</time></trkpt>
   <trkpt lat="31.233953" lon="35.257707"><ele>304.5</ele><name>TP01921</name><time>2020-01-27T11:23:58Z</time></trkpt>
   <trkpt lat="31.233856" lon="35.257721"><ele>304.3</ele><name>TP01922</name><time>2020-01-27T11:24:00Z</time></trkpt>
   <trkpt lat="31.233762" lon="35.257718"><ele>304.1</ele><name>TP01923</name><time>2020-01-27T11:24:02Z</time></trkpt>
   <trkpt lat="31.233672" lon="35.257704"><ele>304</ele><name>TP01924</name><time>2020-01-27T11:24:04Z</time></trkpt>
   <trkpt lat="31.2336" lon="35.257691"><ele>303.8</ele><name>TP01925</name><time>2020-01-27T11:24:06Z</time></trkpt>
   <trkpt lat="31.233565" lon="35.257691"><ele>303.8</ele><name>TP01926</name><time>2020-01-27T11:24:07Z</time></trkpt>
   <trkpt lat="31.233497" lon="35.257689"><ele>303.8</ele><name>TP01927</name><time>2020-01-27T11:24:09Z</time></trkpt>
   <trkpt lat="31.233423" lon="35.257684"><ele>303.9</ele><name>TP01928</name><time>2020-01-27T11:24:11Z</time></trkpt>
   <trkpt lat="31.233397" lon="35.257674"><ele>303.9</ele><name>TP01929</name><time>2020-01-27T11:24:12Z</time></trkpt>
   <trkpt lat="31.233342" lon="35.257679"><ele>304</ele><name>TP01930</name><time>2020-01-27T11:24:14Z</time></trkpt>
   <trkpt lat="31.23324" lon="35.257719"><ele>305.1</ele><name>TP01931</name><time>2020-01-27T11:24:16Z</time></trkpt>
   <trkpt lat="31.233211" lon="35.257716"><ele>305.3</ele><name>TP01932</name><time>2020-01-27T11:24:18Z</time></trkpt>
   <trkpt lat="31.23318" lon="35.257713"><ele>305.5</ele><name>TP01933</name><time>2020-01-27T11:24:19Z</time></trkpt>
   <trkpt lat="31.233157" lon="35.257708"><ele>305.6</ele><name>TP01934</name><time>2020-01-27T11:24:20Z</time></trkpt>
   <trkpt lat="31.233125" lon="35.257696"><ele>305.8</ele><name>TP01935</name><time>2020-01-27T11:24:22Z</time></trkpt>
   <trkpt lat="31.233076" lon="35.257689"><ele>306</ele><name>TP01936</name><time>2020-01-27T11:24:23Z</time></trkpt>
   <trkpt lat="31.233026" lon="35.257674"><ele>306.1</ele><name>TP01937</name><time>2020-01-27T11:24:25Z</time></trkpt>
   <trkpt lat="31.233001" lon="35.257666"><ele>306.2</ele><name>TP01938</name><time>2020-01-27T11:24:26Z</time></trkpt>
   <trkpt lat="31.232953" lon="35.257648"><ele>306.4</ele><name>TP01939</name><time>2020-01-27T11:24:28Z</time></trkpt>
   <trkpt lat="31.232912" lon="35.257639"><ele>306.6</ele><name>TP01940</name><time>2020-01-27T11:24:29Z</time></trkpt>
   <trkpt lat="31.232883" lon="35.257633"><ele>306.7</ele><name>TP01941</name><time>2020-01-27T11:24:30Z</time></trkpt>
   <trkpt lat="31.232851" lon="35.257627"><ele>306.8</ele><name>TP01942</name><time>2020-01-27T11:24:32Z</time></trkpt>
   <trkpt lat="31.232817" lon="35.257618"><ele>307</ele><name>TP01943</name><time>2020-01-27T11:24:33Z</time></trkpt>
   <trkpt lat="31.232789" lon="35.257615"><ele>307.1</ele><name>TP01944</name><time>2020-01-27T11:24:34Z</time></trkpt>
   <trkpt lat="31.232754" lon="35.257605"><ele>307.2</ele><name>TP01945</name><time>2020-01-27T11:24:35Z</time></trkpt>
   <trkpt lat="31.232708" lon="35.257604"><ele>307.4</ele><name>TP01946</name><time>2020-01-27T11:24:37Z</time></trkpt>
   <trkpt lat="31.232678" lon="35.25759"><ele>307.5</ele><name>TP01947</name><time>2020-01-27T11:24:38Z</time></trkpt>
   <trkpt lat="31.23263" lon="35.257575"><ele>307.6</ele><name>TP01948</name><time>2020-01-27T11:24:40Z</time></trkpt>
   <trkpt lat="31.232599" lon="35.257565"><ele>307.6</ele><name>TP01949</name><time>2020-01-27T11:24:41Z</time></trkpt>
   <trkpt lat="31.232547" lon="35.257546"><ele>307.7</ele><name>TP01950</name><time>2020-01-27T11:24:43Z</time></trkpt>
   <trkpt lat="31.232523" lon="35.257541"><ele>307.8</ele><name>TP01951</name><time>2020-01-27T11:24:44Z</time></trkpt>
   <trkpt lat="31.23248" lon="35.257526"><ele>307.9</ele><name>TP01952</name><time>2020-01-27T11:24:46Z</time></trkpt>
   <trkpt lat="31.232449" lon="35.257519"><ele>307.9</ele><name>TP01953</name><time>2020-01-27T11:24:47Z</time></trkpt>
   <trkpt lat="31.232416" lon="35.257514"><ele>308</ele><name>TP01954</name><time>2020-01-27T11:24:49Z</time></trkpt>
   <trkpt lat="31.232375" lon="35.257504"><ele>308.1</ele><name>TP01955</name><time>2020-01-27T11:24:50Z</time></trkpt>
   <trkpt lat="31.232336" lon="35.257489"><ele>308.1</ele><name>TP01956</name><time>2020-01-27T11:24:52Z</time></trkpt>
   <trkpt lat="31.232308" lon="35.257478"><ele>308.2</ele><name>TP01957</name><time>2020-01-27T11:24:53Z</time></trkpt>
   <trkpt lat="31.232263" lon="35.257464"><ele>308.2</ele><name>TP01958</name><time>2020-01-27T11:24:55Z</time></trkpt>
   <trkpt lat="31.232208" lon="35.257447"><ele>308.4</ele><name>TP01959</name><time>2020-01-27T11:24:57Z</time></trkpt>
   <trkpt lat="31.232168" lon="35.25744"><ele>308.4</ele><name>TP01960</name><time>2020-01-27T11:24:59Z</time></trkpt>
   <trkpt lat="31.232135" lon="35.257431"><ele>308.5</ele><name>TP01961</name><time>2020-01-27T11:25:00Z</time></trkpt>
   <trkpt lat="31.232103" lon="35.257423"><ele>308.6</ele><name>TP01962</name><time>2020-01-27T11:25:01Z</time></trkpt>
   <trkpt lat="31.232056" lon="35.257409"><ele>308.7</ele><name>TP01963</name><time>2020-01-27T11:25:03Z</time></trkpt>
   <trkpt lat="31.232027" lon="35.257401"><ele>308.7</ele><name>TP01964</name><time>2020-01-27T11:25:04Z</time></trkpt>
   <trkpt lat="31.231992" lon="35.257389"><ele>308.8</ele><name>TP01965</name><time>2020-01-27T11:25:05Z</time></trkpt>
   <trkpt lat="31.231965" lon="35.25738"><ele>308.9</ele><name>TP01966</name><time>2020-01-27T11:25:06Z</time></trkpt>
   <trkpt lat="31.231936" lon="35.257374"><ele>308.9</ele><name>TP01967</name><time>2020-01-27T11:25:08Z</time></trkpt>
   <trkpt lat="31.231907" lon="35.257367"><ele>309</ele><name>TP01968</name><time>2020-01-27T11:25:09Z</time></trkpt>
   <trkpt lat="31.231873" lon="35.257366"><ele>309</ele><name>TP01969</name><time>2020-01-27T11:25:10Z</time></trkpt>
   <trkpt lat="31.231844" lon="35.257358"><ele>309.1</ele><name>TP01970</name><time>2020-01-27T11:25:11Z</time></trkpt>
   <trkpt lat="31.231815" lon="35.257353"><ele>309.2</ele><name>TP01971</name><time>2020-01-27T11:25:12Z</time></trkpt>
   <trkpt lat="31.231793" lon="35.257349"><ele>309.3</ele><name>TP01972</name><time>2020-01-27T11:25:13Z</time></trkpt>
   <trkpt lat="31.231761" lon="35.257351"><ele>309.4</ele><name>TP01973</name><time>2020-01-27T11:25:15Z</time></trkpt>
   <trkpt lat="31.231731" lon="35.257346"><ele>309.4</ele><name>TP01974</name><time>2020-01-27T11:25:16Z</time></trkpt>
   <trkpt lat="31.2317" lon="35.25735"><ele>309.5</ele><name>TP01975</name><time>2020-01-27T11:25:17Z</time></trkpt>
   <trkpt lat="31.23166" lon="35.25734"><ele>309.6</ele><name>TP01976</name><time>2020-01-27T11:25:19Z</time></trkpt>
   <trkpt lat="31.231628" lon="35.25734"><ele>309.6</ele><name>TP01977</name><time>2020-01-27T11:25:20Z</time></trkpt>
   <trkpt lat="31.231587" lon="35.257342"><ele>309.7</ele><name>TP01978</name><time>2020-01-27T11:25:22Z</time></trkpt>
   <trkpt lat="31.231564" lon="35.257338"><ele>309.8</ele><name>TP01979</name><time>2020-01-27T11:25:23Z</time></trkpt>
   <trkpt lat="31.231534" lon="35.25734"><ele>309.9</ele><name>TP01980</name><time>2020-01-27T11:25:25Z</time></trkpt>
   <trkpt lat="31.231498" lon="35.257349"><ele>310</ele><name>TP01981</name><time>2020-01-27T11:25:26Z</time></trkpt>
   <trkpt lat="31.231458" lon="35.257357"><ele>310.2</ele><name>TP01982</name><time>2020-01-27T11:25:27Z</time></trkpt>
   <trkpt lat="31.231426" lon="35.257358"><ele>310.2</ele><name>TP01983</name><time>2020-01-27T11:25:28Z</time></trkpt>
   <trkpt lat="31.231417" lon="35.257359"><ele>310.2</ele><name>TP01984</name><time>2020-01-27T11:25:29Z</time></trkpt>
   <trkpt lat="31.231363" lon="35.257361"><ele>310.4</ele><name>TP01985</name><time>2020-01-27T11:25:31Z</time></trkpt>
   <trkpt lat="31.231322" lon="35.257367"><ele>310.5</ele><name>TP01986</name><time>2020-01-27T11:25:32Z</time></trkpt>
   <trkpt lat="31.231298" lon="35.25737"><ele>310.5</ele><name>TP01987</name><time>2020-01-27T11:25:33Z</time></trkpt>
   <trkpt lat="31.231247" lon="35.257369"><ele>310.6</ele><name>TP01988</name><time>2020-01-27T11:25:35Z</time></trkpt>
   <trkpt lat="31.231219" lon="35.257375"><ele>310.7</ele><name>TP01989</name><time>2020-01-27T11:25:36Z</time></trkpt>
   <trkpt lat="31.23119" lon="35.257376"><ele>310.7</ele><name>TP01990</name><time>2020-01-27T11:25:37Z</time></trkpt>
   <trkpt lat="31.231135" lon="35.257381"><ele>310.9</ele><name>TP01991</name><time>2020-01-27T11:25:39Z</time></trkpt>
   <trkpt lat="31.231097" lon="35.257383"><ele>311</ele><name>TP01992</name><time>2020-01-27T11:25:40Z</time></trkpt>
   <trkpt lat="31.231085" lon="35.257382"><ele>311</ele><name>TP01993</name><time>2020-01-27T11:25:41Z</time></trkpt>
   <trkpt lat="31.231066" lon="35.257389"><ele>311.1</ele><name>TP01994</name><time>2020-01-27T11:25:42Z</time></trkpt>
   <trkpt lat="31.231042" lon="35.257413"><ele>310.8</ele><name>TP01995</name><time>2020-01-27T11:25:44Z</time></trkpt>
   <trkpt lat="31.231016" lon="35.257426"><ele>310.4</ele><name>TP01996</name><time>2020-01-27T11:25:45Z</time></trkpt>
   <trkpt lat="31.230979" lon="35.257442"><ele>310</ele><name>TP01997</name><time>2020-01-27T11:25:47Z</time></trkpt>
   <trkpt lat="31.23095" lon="35.257456"><ele>309.9</ele><name>TP01998</name><time>2020-01-27T11:25:48Z</time></trkpt>
   <trkpt lat="31.230922" lon="35.257473"><ele>309.8</ele><name>TP01999</name><time>2020-01-27T11:25:49Z</time></trkpt>
   <trkpt lat="31.230883" lon="35.257493"><ele>309.7</ele><name>TP02000</name><time>2020-01-27T11:25:50Z</time></trkpt>
   <trkpt lat="31.230847" lon="35.257514"><ele>309.6</ele><name>TP02001</name><time>2020-01-27T11:25:52Z</time></trkpt>
   <trkpt lat="31.230795" lon="35.257543"><ele>309.3</ele><name>TP02002</name><time>2020-01-27T11:25:53Z</time></trkpt>
   <trkpt lat="31.23074" lon="35.257584"><ele>308.9</ele><name>TP02003</name><time>2020-01-27T11:25:55Z</time></trkpt>
   <trkpt lat="31.230707" lon="35.257605"><ele>308.8</ele><name>TP02004</name><time>2020-01-27T11:25:56Z</time></trkpt>
   <trkpt lat="31.230657" lon="35.257646"><ele>309</ele><name>TP02005</name><time>2020-01-27T11:25:57Z</time></trkpt>
   <trkpt lat="31.230615" lon="35.257676"><ele>309.3</ele><name>TP02006</name><time>2020-01-27T11:25:58Z</time></trkpt>
   <trkpt lat="31.230526" lon="35.257733"><ele>310</ele><name>TP02007</name><time>2020-01-27T11:26:00Z</time></trkpt>
   <trkpt lat="31.230436" lon="35.257784"><ele>310.6</ele><name>TP02008</name><time>2020-01-27T11:26:02Z</time></trkpt>
   <trkpt lat="31.230365" lon="35.257818"><ele>311</ele><name>TP02009</name><time>2020-01-27T11:26:04Z</time></trkpt>
   <trkpt lat="31.230337" lon="35.25782"><ele>311.1</ele><name>TP02010</name><time>2020-01-27T11:26:06Z</time></trkpt>
   <trkpt lat="31.230296" lon="35.257808"><ele>311.2</ele><name>TP02011</name><time>2020-01-27T11:26:07Z</time></trkpt>
   <trkpt lat="31.230269" lon="35.25781"><ele>311.2</ele><name>TP02012</name><time>2020-01-27T11:26:08Z</time></trkpt>
   <trkpt lat="31.230236" lon="35.257817"><ele>311.2</ele><name>TP02013</name><time>2020-01-27T11:26:10Z</time></trkpt>
   <trkpt lat="31.230204" lon="35.25782"><ele>311.2</ele><name>TP02014</name><time>2020-01-27T11:26:11Z</time></trkpt>
   <trkpt lat="31.230168" lon="35.25782"><ele>311.2</ele><name>TP02015</name><time>2020-01-27T11:26:12Z</time></trkpt>
   <trkpt lat="31.230141" lon="35.257828"><ele>311.1</ele><name>TP02016</name><time>2020-01-27T11:26:13Z</time></trkpt>
   <trkpt lat="31.230109" lon="35.257838"><ele>311.2</ele><name>TP02017</name><time>2020-01-27T11:26:15Z</time></trkpt>
   <trkpt lat="31.23008" lon="35.257844"><ele>311.3</ele><name>TP02018</name><time>2020-01-27T11:26:16Z</time></trkpt>
   <trkpt lat="31.230043" lon="35.257853"><ele>311.5</ele><name>TP02019</name><time>2020-01-27T11:26:17Z</time></trkpt>
   <trkpt lat="31.230006" lon="35.257863"><ele>311.6</ele><name>TP02020</name><time>2020-01-27T11:26:19Z</time></trkpt>
   <trkpt lat="31.22997" lon="35.25787"><ele>311.7</ele><name>TP02021</name><time>2020-01-27T11:26:20Z</time></trkpt>
   <trkpt lat="31.229932" lon="35.257881"><ele>311.6</ele><name>TP02022</name><time>2020-01-27T11:26:21Z</time></trkpt>
   <trkpt lat="31.229919" lon="35.257884"><ele>311.5</ele><name>TP02023</name><time>2020-01-27T11:26:22Z</time></trkpt>
   <trkpt lat="31.229882" lon="35.257892"><ele>311.4</ele><name>TP02024</name><time>2020-01-27T11:26:24Z</time></trkpt>
   <trkpt lat="31.229837" lon="35.257908"><ele>311</ele><name>TP02025</name><time>2020-01-27T11:26:25Z</time></trkpt>
   <trkpt lat="31.229816" lon="35.257911"><ele>310.8</ele><name>TP02026</name><time>2020-01-27T11:26:26Z</time></trkpt>
   <trkpt lat="31.229774" lon="35.257917"><ele>310.7</ele><name>TP02027</name><time>2020-01-27T11:26:28Z</time></trkpt>
   <trkpt lat="31.229745" lon="35.257923"><ele>310.8</ele><name>TP02028</name><time>2020-01-27T11:26:29Z</time></trkpt>
   <trkpt lat="31.229722" lon="35.257931"><ele>310.9</ele><name>TP02029</name><time>2020-01-27T11:26:30Z</time></trkpt>
   <trkpt lat="31.229663" lon="35.257947"><ele>311.5</ele><name>TP02030</name><time>2020-01-27T11:26:32Z</time></trkpt>
   <trkpt lat="31.229557" lon="35.257984"><ele>312.6</ele><name>TP02031</name><time>2020-01-27T11:26:34Z</time></trkpt>
   <trkpt lat="31.229524" lon="35.257993"><ele>312.7</ele><name>TP02032</name><time>2020-01-27T11:26:35Z</time></trkpt>
   <trkpt lat="31.229476" lon="35.257993"><ele>312.9</ele><name>TP02033</name><time>2020-01-27T11:26:37Z</time></trkpt>
   <trkpt lat="31.229444" lon="35.257999"><ele>313.1</ele><name>TP02034</name><time>2020-01-27T11:26:38Z</time></trkpt>
   <trkpt lat="31.22942" lon="35.258003"><ele>313.3</ele><name>TP02035</name><time>2020-01-27T11:26:39Z</time></trkpt>
   <trkpt lat="31.229383" lon="35.258014"><ele>313.5</ele><name>TP02036</name><time>2020-01-27T11:26:41Z</time></trkpt>
   <trkpt lat="31.229349" lon="35.258023"><ele>313.8</ele><name>TP02037</name><time>2020-01-27T11:26:42Z</time></trkpt>
   <trkpt lat="31.22931" lon="35.258035"><ele>314</ele><name>TP02038</name><time>2020-01-27T11:26:43Z</time></trkpt>
   <trkpt lat="31.229295" lon="35.258038"><ele>314</ele><name>TP02039</name><time>2020-01-27T11:26:44Z</time></trkpt>
   <trkpt lat="31.229242" lon="35.258058"><ele>314.1</ele><name>TP02040</name><time>2020-01-27T11:26:46Z</time></trkpt>
   <trkpt lat="31.229207" lon="35.258068"><ele>314</ele><name>TP02041</name><time>2020-01-27T11:26:47Z</time></trkpt>
   <trkpt lat="31.229166" lon="35.258076"><ele>313.9</ele><name>TP02042</name><time>2020-01-27T11:26:49Z</time></trkpt>
   <trkpt lat="31.229127" lon="35.258082"><ele>313.8</ele><name>TP02043</name><time>2020-01-27T11:26:50Z</time></trkpt>
   <trkpt lat="31.229085" lon="35.258081"><ele>313.7</ele><name>TP02044</name><time>2020-01-27T11:26:51Z</time></trkpt>
   <trkpt lat="31.229033" lon="35.25807"><ele>313.6</ele><name>TP02045</name><time>2020-01-27T11:26:53Z</time></trkpt>
   <trkpt lat="31.228993" lon="35.25806"><ele>313.5</ele><name>TP02046</name><time>2020-01-27T11:26:54Z</time></trkpt>
   <trkpt lat="31.228962" lon="35.258049"><ele>313.3</ele><name>TP02047</name><time>2020-01-27T11:26:55Z</time></trkpt>
   <trkpt lat="31.228924" lon="35.25803"><ele>313</ele><name>TP02048</name><time>2020-01-27T11:26:56Z</time></trkpt>
   <trkpt lat="31.228884" lon="35.258009"><ele>312.8</ele><name>TP02049</name><time>2020-01-27T11:26:58Z</time></trkpt>
   <trkpt lat="31.228852" lon="35.258002"><ele>312.6</ele><name>TP02050</name><time>2020-01-27T11:26:59Z</time></trkpt>
   <trkpt lat="31.228841" lon="35.257999"><ele>312.6</ele><name>TP02051</name><time>2020-01-27T11:27:00Z</time></trkpt>
   <trkpt lat="31.228807" lon="35.257988"><ele>312.4</ele><name>TP02052</name><time>2020-01-27T11:27:02Z</time></trkpt>
   <trkpt lat="31.228772" lon="35.257981"><ele>312.2</ele><name>TP02053</name><time>2020-01-27T11:27:03Z</time></trkpt>
   <trkpt lat="31.228739" lon="35.257977"><ele>312.1</ele><name>TP02054</name><time>2020-01-27T11:27:04Z</time></trkpt>
   <trkpt lat="31.228727" lon="35.257977"><ele>312.1</ele><name>TP02055</name><time>2020-01-27T11:27:05Z</time></trkpt>
   <trkpt lat="31.228699" lon="35.257995"><ele>312</ele><name>TP02056</name><time>2020-01-27T11:27:06Z</time></trkpt>
   <trkpt lat="31.22867" lon="35.258009"><ele>311.9</ele><name>TP02057</name><time>2020-01-27T11:27:08Z</time></trkpt>
   <trkpt lat="31.22864" lon="35.258018"><ele>311.7</ele><name>TP02058</name><time>2020-01-27T11:27:09Z</time></trkpt>
   <trkpt lat="31.228598" lon="35.258023"><ele>311.4</ele><name>TP02059</name><time>2020-01-27T11:27:10Z</time></trkpt>
   <trkpt lat="31.228557" lon="35.258034"><ele>311.1</ele><name>TP02060</name><time>2020-01-27T11:27:12Z</time></trkpt>
   <trkpt lat="31.228523" lon="35.258049"><ele>310.8</ele><name>TP02061</name><time>2020-01-27T11:27:13Z</time></trkpt>
   <trkpt lat="31.228492" lon="35.258059"><ele>310.7</ele><name>TP02062</name><time>2020-01-27T11:27:14Z</time></trkpt>
   <trkpt lat="31.228458" lon="35.258062"><ele>310.7</ele><name>TP02063</name><time>2020-01-27T11:27:15Z</time></trkpt>
   <trkpt lat="31.228418" lon="35.258072"><ele>310.8</ele><name>TP02064</name><time>2020-01-27T11:27:17Z</time></trkpt>
   <trkpt lat="31.228364" lon="35.25808"><ele>311</ele><name>TP02065</name><time>2020-01-27T11:27:18Z</time></trkpt>
   <trkpt lat="31.228327" lon="35.258088"><ele>311</ele><name>TP02066</name><time>2020-01-27T11:27:19Z</time></trkpt>
   <trkpt lat="31.228292" lon="35.258092"><ele>311.2</ele><name>TP02067</name><time>2020-01-27T11:27:20Z</time></trkpt>
   <trkpt lat="31.228246" lon="35.258104"><ele>311.6</ele><name>TP02068</name><time>2020-01-27T11:27:22Z</time></trkpt>
   <trkpt lat="31.228207" lon="35.258109"><ele>311.8</ele><name>TP02069</name><time>2020-01-27T11:27:23Z</time></trkpt>
   <trkpt lat="31.228174" lon="35.25812"><ele>311.8</ele><name>TP02070</name><time>2020-01-27T11:27:24Z</time></trkpt>
   <trkpt lat="31.228149" lon="35.258137"><ele>311.9</ele><name>TP02071</name><time>2020-01-27T11:27:25Z</time></trkpt>
   <trkpt lat="31.228111" lon="35.258154"><ele>312</ele><name>TP02072</name><time>2020-01-27T11:27:27Z</time></trkpt>
   <trkpt lat="31.228082" lon="35.25817"><ele>312.1</ele><name>TP02073</name><time>2020-01-27T11:27:28Z</time></trkpt>
   <trkpt lat="31.228053" lon="35.258185"><ele>312.2</ele><name>TP02074</name><time>2020-01-27T11:27:29Z</time></trkpt>
   <trkpt lat="31.22799" lon="35.258216"><ele>312.3</ele><name>TP02075</name><time>2020-01-27T11:27:30Z</time></trkpt>
   <trkpt lat="31.227919" lon="35.258254"><ele>312.5</ele><name>TP02076</name><time>2020-01-27T11:27:32Z</time></trkpt>
   <trkpt lat="31.227884" lon="35.258279"><ele>312.7</ele><name>TP02077</name><time>2020-01-27T11:27:33Z</time></trkpt>
   <trkpt lat="31.227857" lon="35.258281"><ele>312.8</ele><name>TP02078</name><time>2020-01-27T11:27:34Z</time></trkpt>
   <trkpt lat="31.227823" lon="35.258273"><ele>312.9</ele><name>TP02079</name><time>2020-01-27T11:27:36Z</time></trkpt>
   <trkpt lat="31.227791" lon="35.258263"><ele>312.9</ele><name>TP02080</name><time>2020-01-27T11:27:37Z</time></trkpt>
   <trkpt lat="31.227757" lon="35.258257"><ele>312.8</ele><name>TP02081</name><time>2020-01-27T11:27:38Z</time></trkpt>
   <trkpt lat="31.227721" lon="35.258249"><ele>312.8</ele><name>TP02082</name><time>2020-01-27T11:27:40Z</time></trkpt>
   <trkpt lat="31.227694" lon="35.258245"><ele>312.9</ele><name>TP02083</name><time>2020-01-27T11:27:41Z</time></trkpt>
   <trkpt lat="31.227661" lon="35.258233"><ele>312.9</ele><name>TP02084</name><time>2020-01-27T11:27:42Z</time></trkpt>
   <trkpt lat="31.227648" lon="35.258231"><ele>312.9</ele><name>TP02085</name><time>2020-01-27T11:27:43Z</time></trkpt>
   <trkpt lat="31.227629" lon="35.258229"><ele>313</ele><name>TP02086</name><time>2020-01-27T11:27:44Z</time></trkpt>
   <trkpt lat="31.227586" lon="35.258226"><ele>313.3</ele><name>TP02087</name><time>2020-01-27T11:27:46Z</time></trkpt>
   <trkpt lat="31.227566" lon="35.258227"><ele>313.5</ele><name>TP02088</name><time>2020-01-27T11:27:47Z</time></trkpt>
   <trkpt lat="31.227526" lon="35.258225"><ele>313.9</ele><name>TP02089</name><time>2020-01-27T11:27:49Z</time></trkpt>
   <trkpt lat="31.227478" lon="35.258228"><ele>314.1</ele><name>TP02090</name><time>2020-01-27T11:27:51Z</time></trkpt>
   <trkpt lat="31.227463" lon="35.258231"><ele>314.1</ele><name>TP02091</name><time>2020-01-27T11:27:52Z</time></trkpt>
   <trkpt lat="31.227449" lon="35.258233"><ele>314.2</ele><name>TP02092</name><time>2020-01-27T11:27:53Z</time></trkpt>
   <trkpt lat="31.227421" lon="35.258234"><ele>314.3</ele><name>TP02093</name><time>2020-01-27T11:27:55Z</time></trkpt>
   <trkpt lat="31.227382" lon="35.258235"><ele>314.4</ele><name>TP02094</name><time>2020-01-27T11:27:56Z</time></trkpt>
   <trkpt lat="31.227355" lon="35.258234"><ele>314.3</ele><name>TP02095</name><time>2020-01-27T11:27:57Z</time></trkpt>
   <trkpt lat="31.227329" lon="35.258228"><ele>314.2</ele><name>TP02096</name><time>2020-01-27T11:27:58Z</time></trkpt>
   <trkpt lat="31.227305" lon="35.258219"><ele>314.1</ele><name>TP02097</name><time>2020-01-27T11:28:00Z</time></trkpt>
   <trkpt lat="31.227273" lon="35.25821"><ele>313.9</ele><name>TP02098</name><time>2020-01-27T11:28:01Z</time></trkpt>
   <trkpt lat="31.227245" lon="35.258204"><ele>313.8</ele><name>TP02099</name><time>2020-01-27T11:28:02Z</time></trkpt>
   <trkpt lat="31.227235" lon="35.258202"><ele>313.7</ele><name>TP02100</name><time>2020-01-27T11:28:03Z</time></trkpt>
   <trkpt lat="31.227203" lon="35.258213"><ele>313.6</ele><name>TP02101</name><time>2020-01-27T11:28:05Z</time></trkpt>
   <trkpt lat="31.227178" lon="35.258207"><ele>313.2</ele><name>TP02102</name><time>2020-01-27T11:28:08Z</time></trkpt>
   <trkpt lat="31.227176" lon="35.258203"><ele>313.2</ele><name>TP02103</name><time>2020-01-27T11:28:10Z</time></trkpt>
   <trkpt lat="31.227174" lon="35.258202"><ele>313.2</ele><name>TP02104</name><time>2020-01-27T11:28:12Z</time></trkpt>
   <trkpt lat="31.227173" lon="35.258203"><ele>313.2</ele><name>TP02105</name><time>2020-01-27T11:28:14Z</time></trkpt>
   <trkpt lat="31.227172" lon="35.258204"><ele>313.1</ele><name>TP02106</name><time>2020-01-27T11:28:15Z</time></trkpt>
   <trkpt lat="31.227172" lon="35.258206"><ele>313.1</ele><name>TP02107</name><time>2020-01-27T11:28:17Z</time></trkpt>
   <trkpt lat="31.227173" lon="35.25821"><ele>313.1</ele><name>TP02108</name><time>2020-01-27T11:28:19Z</time></trkpt>
   <trkpt lat="31.227173" lon="35.258211"><ele>313.1</ele><name>TP02109</name><time>2020-01-27T11:28:20Z</time></trkpt>
   <trkpt lat="31.227187" lon="35.258205"><ele>312.9</ele><name>TP02110</name><time>2020-01-27T11:28:21Z</time></trkpt>
   <trkpt lat="31.227197" lon="35.258201"><ele>312.7</ele><name>TP02111</name><time>2020-01-27T11:28:23Z</time></trkpt>
   <trkpt lat="31.227199" lon="35.2582"><ele>312.7</ele><name>TP02112</name><time>2020-01-27T11:28:24Z</time></trkpt>
   <trkpt lat="31.2272" lon="35.2582"><ele>312.7</ele><name>TP02113</name><time>2020-01-27T11:28:26Z</time></trkpt>
   <trkpt lat="31.227201" lon="35.2582"><ele>312.7</ele><name>TP02114</name><time>2020-01-27T11:28:27Z</time></trkpt>
   <trkpt lat="31.227201" lon="35.2582"><ele>312.7</ele><name>TP02115</name><time>2020-01-27T11:28:28Z</time></trkpt>
   <trkpt lat="31.227201" lon="35.2582"><ele>312.7</ele><name>TP02116</name><time>2020-01-27T11:28:30Z</time></trkpt>
   <trkpt lat="31.227201" lon="35.2582"><ele>312.7</ele><name>TP02117</name><time>2020-01-27T11:28:32Z</time></trkpt>
   <trkpt lat="31.227201" lon="35.2582"><ele>312.7</ele><name>TP02118</name><time>2020-01-27T11:28:34Z</time></trkpt>
   <trkpt lat="31.227201" lon="35.2582"><ele>312.7</ele><name>TP02119</name><time>2020-01-27T11:28:35Z</time></trkpt>
   <trkpt lat="31.227201" lon="35.2582"><ele>312.7</ele><name>TP02120</name><time>2020-01-27T11:28:37Z</time></trkpt>
   <trkpt lat="31.227201" lon="35.2582"><ele>312.7</ele><name>TP02121</name><time>2020-01-27T11:28:38Z</time></trkpt>
   <trkpt lat="31.227201" lon="35.2582"><ele>312.7</ele><name>TP02122</name><time>2020-01-27T11:28:39Z</time></trkpt>
   <trkpt lat="31.227201" lon="35.2582"><ele>312.7</ele><name>TP02123</name><time>2020-01-27T11:28:41Z</time></trkpt>
   <trkpt lat="31.227201" lon="35.2582"><ele>312.7</ele><name>TP02124</name><time>2020-01-27T11:28:43Z</time></trkpt>
   <trkpt lat="31.227201" lon="35.2582"><ele>312.7</ele><name>TP02125</name><time>2020-01-27T11:28:44Z</time></trkpt>
   <trkpt lat="31.227201" lon="35.2582"><ele>312.7</ele><name>TP02126</name><time>2020-01-27T11:28:46Z</time></trkpt>
   <trkpt lat="31.227201" lon="35.2582"><ele>312.7</ele><name>TP02127</name><time>2020-01-27T11:28:47Z</time></trkpt>
   <trkpt lat="31.227201" lon="35.2582"><ele>312.7</ele><name>TP02128</name><time>2020-01-27T11:28:49Z</time></trkpt>
   <trkpt lat="31.227201" lon="35.2582"><ele>312.7</ele><name>TP02129</name><time>2020-01-27T11:28:51Z</time></trkpt>
   <trkpt lat="31.227201" lon="35.2582"><ele>312.7</ele><name>TP02130</name><time>2020-01-27T11:28:53Z</time></trkpt>
   <trkpt lat="31.227201" lon="35.2582"><ele>312.7</ele><name>TP02131</name><time>2020-01-27T11:28:54Z</time></trkpt>
   <trkpt lat="31.227201" lon="35.2582"><ele>312.7</ele><name>TP02132</name><time>2020-01-27T11:28:56Z</time></trkpt>
   <trkpt lat="31.227201" lon="35.2582"><ele>312.7</ele><name>TP02133</name><time>2020-01-27T11:28:57Z</time></trkpt>
   <trkpt lat="31.227201" lon="35.2582"><ele>312.7</ele><name>TP02134</name><time>2020-01-27T11:28:59Z</time></trkpt>
   <trkpt lat="31.227201" lon="35.2582"><ele>312.7</ele><name>TP02135</name><time>2020-01-27T11:29:01Z</time></trkpt>
   <trkpt lat="31.227201" lon="35.2582"><ele>312.7</ele><name>TP02136</name><time>2020-01-27T11:29:02Z</time></trkpt>
   <trkpt lat="31.227201" lon="35.2582"><ele>312.7</ele><name>TP02137</name><time>2020-01-27T11:29:04Z</time></trkpt>
   <trkpt lat="31.227201" lon="35.2582"><ele>312.7</ele><name>TP02138</name><time>2020-01-27T11:29:06Z</time></trkpt>
   <trkpt lat="31.227201" lon="35.2582"><ele>312.7</ele><name>TP02139</name><time>2020-01-27T11:29:07Z</time></trkpt>
   <trkpt lat="31.227201" lon="35.2582"><ele>312.7</ele><name>TP02140</name><time>2020-01-27T11:29:08Z</time></trkpt>
   <trkpt lat="31.227201" lon="35.2582"><ele>312.7</ele><name>TP02141</name><time>2020-01-27T11:29:10Z</time></trkpt>
   <trkpt lat="31.227201" lon="35.2582"><ele>312.7</ele><name>TP02142</name><time>2020-01-27T11:29:11Z</time></trkpt>
   <trkpt lat="31.227201" lon="35.2582"><ele>312.7</ele><name>TP02143</name><time>2020-01-27T11:29:13Z</time></trkpt>
   <trkpt lat="31.227201" lon="35.2582"><ele>312.7</ele><name>TP02144</name><time>2020-01-27T11:29:14Z</time></trkpt>
   <trkpt lat="31.227201" lon="35.2582"><ele>312.7</ele><name>TP02145</name><time>2020-01-27T11:29:16Z</time></trkpt>
   <trkpt lat="31.227201" lon="35.2582"><ele>312.7</ele><name>TP02146</name><time>2020-01-27T11:29:17Z</time></trkpt>
   <trkpt lat="31.227201" lon="35.2582"><ele>312.7</ele><name>TP02147</name><time>2020-01-27T11:29:19Z</time></trkpt>
   <trkpt lat="31.227201" lon="35.2582"><ele>312.7</ele><name>TP02148</name><time>2020-01-27T11:29:20Z</time></trkpt>
   <trkpt lat="31.227201" lon="35.2582"><ele>312.7</ele><name>TP02149</name><time>2020-01-27T11:29:22Z</time></trkpt>
   <trkpt lat="31.227201" lon="35.2582"><ele>312.7</ele><name>TP02150</name><time>2020-01-27T11:29:24Z</time></trkpt>
   <trkpt lat="31.227189" lon="35.258189"><ele>312.5</ele><name>TP02151</name><time>2020-01-27T11:29:26Z</time></trkpt>
   <trkpt lat="31.227179" lon="35.258178"><ele>312.3</ele><name>TP02152</name><time>2020-01-27T11:29:27Z</time></trkpt>
   <trkpt lat="31.227154" lon="35.258164"><ele>312</ele><name>TP02153</name><time>2020-01-27T11:29:29Z</time></trkpt>
   <trkpt lat="31.227109" lon="35.258145"><ele>311.5</ele><name>TP02154</name><time>2020-01-27T11:29:31Z</time></trkpt>
   <trkpt lat="31.227075" lon="35.258132"><ele>311</ele><name>TP02155</name><time>2020-01-27T11:29:32Z</time></trkpt>
   <trkpt lat="31.227044" lon="35.25812"><ele>310.5</ele><name>TP02156</name><time>2020-01-27T11:29:33Z</time></trkpt>
   <trkpt lat="31.22702" lon="35.258077"><ele>309.9</ele><name>TP02157</name><time>2020-01-27T11:29:35Z</time></trkpt>
   <trkpt lat="31.226879" lon="35.25806"><ele>308.7</ele><name>TP02158</name><time>2020-01-27T11:29:36Z</time></trkpt>
   <trkpt lat="31.226834" lon="35.258056"><ele>308.5</ele><name>TP02159</name><time>2020-01-27T11:29:37Z</time></trkpt>
   <trkpt lat="31.226784" lon="35.258051"><ele>308.4</ele><name>TP02160</name><time>2020-01-27T11:29:38Z</time></trkpt>
   <trkpt lat="31.226695" lon="35.258041"><ele>308.1</ele><name>TP02161</name><time>2020-01-27T11:29:40Z</time></trkpt>
   <trkpt lat="31.226662" lon="35.258028"><ele>307.9</ele><name>TP02162</name><time>2020-01-27T11:29:41Z</time></trkpt>
   <trkpt lat="31.226594" lon="35.258002"><ele>307.9</ele><name>TP02163</name><time>2020-01-27T11:29:43Z</time></trkpt>
   <trkpt lat="31.226555" lon="35.257989"><ele>307.3</ele><name>TP02164</name><time>2020-01-27T11:29:44Z</time></trkpt>
   <trkpt lat="31.2265" lon="35.257969"><ele>306.7</ele><name>TP02165</name><time>2020-01-27T11:29:46Z</time></trkpt>
   <trkpt lat="31.22645" lon="35.257941"><ele>306.2</ele><name>TP02166</name><time>2020-01-27T11:29:47Z</time></trkpt>
   <trkpt lat="31.226398" lon="35.257917"><ele>305.7</ele><name>TP02167</name><time>2020-01-27T11:29:49Z</time></trkpt>
   <trkpt lat="31.226351" lon="35.257921"><ele>305.4</ele><name>TP02168</name><time>2020-01-27T11:29:50Z</time></trkpt>
   <trkpt lat="31.22629" lon="35.257937"><ele>305</ele><name>TP02169</name><time>2020-01-27T11:29:52Z</time></trkpt>
   <trkpt lat="31.226231" lon="35.257943"><ele>304.3</ele><name>TP02170</name><time>2020-01-27T11:29:53Z</time></trkpt>
   <trkpt lat="31.226186" lon="35.257924"><ele>303.8</ele><name>TP02171</name><time>2020-01-27T11:29:55Z</time></trkpt>
   <trkpt lat="31.226152" lon="35.257909"><ele>303.4</ele><name>TP02172</name><time>2020-01-27T11:29:56Z</time></trkpt>
   <trkpt lat="31.226124" lon="35.257902"><ele>302.9</ele><name>TP02173</name><time>2020-01-27T11:29:57Z</time></trkpt>
   <trkpt lat="31.226091" lon="35.257896"><ele>302.2</ele><name>TP02174</name><time>2020-01-27T11:29:58Z</time></trkpt>
   <trkpt lat="31.226078" lon="35.257891"><ele>301.9</ele><name>TP02175</name><time>2020-01-27T11:29:59Z</time></trkpt>
   <trkpt lat="31.226073" lon="35.257888"><ele>301.8</ele><name>TP02176</name><time>2020-01-27T11:30:00Z</time></trkpt>
   <trkpt lat="31.226068" lon="35.257884"><ele>301.6</ele><name>TP02177</name><time>2020-01-27T11:30:02Z</time></trkpt>
   <trkpt lat="31.226062" lon="35.257881"><ele>301.5</ele><name>TP02178</name><time>2020-01-27T11:30:04Z</time></trkpt>
   <trkpt lat="31.226057" lon="35.257878"><ele>301.4</ele><name>TP02179</name><time>2020-01-27T11:30:06Z</time></trkpt>
   <trkpt lat="31.226052" lon="35.257875"><ele>301.2</ele><name>TP02180</name><time>2020-01-27T11:30:07Z</time></trkpt>
   <trkpt lat="31.226018" lon="35.257855"><ele>300.3</ele><name>TP02181</name><time>2020-01-27T11:30:09Z</time></trkpt>
   <trkpt lat="31.225975" lon="35.257845"><ele>299.3</ele><name>TP02182</name><time>2020-01-27T11:30:11Z</time></trkpt>
   <trkpt lat="31.225917" lon="35.257832"><ele>297.9</ele><name>TP02183</name><time>2020-01-27T11:30:12Z</time></trkpt>
   <trkpt lat="31.22587" lon="35.257823"><ele>297.1</ele><name>TP02184</name><time>2020-01-27T11:30:13Z</time></trkpt>
   <trkpt lat="31.225833" lon="35.257806"><ele>296.8</ele><name>TP02185</name><time>2020-01-27T11:30:14Z</time></trkpt>
   <trkpt lat="31.225779" lon="35.257764"><ele>296.3</ele><name>TP02186</name><time>2020-01-27T11:30:16Z</time></trkpt>
   <trkpt lat="31.225688" lon="35.257744"><ele>295.4</ele><name>TP02187</name><time>2020-01-27T11:30:17Z</time></trkpt>
   <trkpt lat="31.225635" lon="35.257747"><ele>294.8</ele><name>TP02188</name><time>2020-01-27T11:30:18Z</time></trkpt>
   <trkpt lat="31.225617" lon="35.257739"><ele>294.5</ele><name>TP02189</name><time>2020-01-27T11:30:19Z</time></trkpt>
   <trkpt lat="31.225595" lon="35.257735"><ele>294.1</ele><name>TP02190</name><time>2020-01-27T11:30:21Z</time></trkpt>
   <trkpt lat="31.22558" lon="35.257734"><ele>293.9</ele><name>TP02191</name><time>2020-01-27T11:30:23Z</time></trkpt>
   <trkpt lat="31.225583" lon="35.257726"><ele>293.8</ele><name>TP02192</name><time>2020-01-27T11:30:25Z</time></trkpt>
   <trkpt lat="31.225573" lon="35.257707"><ele>293.5</ele><name>TP02193</name><time>2020-01-27T11:30:26Z</time></trkpt>
   <trkpt lat="31.225537" lon="35.257697"><ele>293.1</ele><name>TP02194</name><time>2020-01-27T11:30:27Z</time></trkpt>
   <trkpt lat="31.225524" lon="35.257694"><ele>292.9</ele><name>TP02195</name><time>2020-01-27T11:30:28Z</time></trkpt>
   <trkpt lat="31.225482" lon="35.257687"><ele>292.6</ele><name>TP02196</name><time>2020-01-27T11:30:30Z</time></trkpt>
   <trkpt lat="31.225442" lon="35.257683"><ele>292.3</ele><name>TP02197</name><time>2020-01-27T11:30:32Z</time></trkpt>
   <trkpt lat="31.225395" lon="35.257688"><ele>292</ele><name>TP02198</name><time>2020-01-27T11:30:34Z</time></trkpt>
   <trkpt lat="31.225363" lon="35.257681"><ele>291.8</ele><name>TP02199</name><time>2020-01-27T11:30:36Z</time></trkpt>
   <trkpt lat="31.225337" lon="35.257684"><ele>291.8</ele><name>TP02200</name><time>2020-01-27T11:30:37Z</time></trkpt>
   <trkpt lat="31.225295" lon="35.257687"><ele>291.8</ele><name>TP02201</name><time>2020-01-27T11:30:39Z</time></trkpt>
   <trkpt lat="31.225255" lon="35.257693"><ele>291.9</ele><name>TP02202</name><time>2020-01-27T11:30:41Z</time></trkpt>
   <trkpt lat="31.22524" lon="35.257697"><ele>291.9</ele><name>TP02203</name><time>2020-01-27T11:30:42Z</time></trkpt>
   <trkpt lat="31.225202" lon="35.257712"><ele>291.9</ele><name>TP02204</name><time>2020-01-27T11:30:44Z</time></trkpt>
   <trkpt lat="31.225194" lon="35.257715"><ele>291.9</ele><name>TP02205</name><time>2020-01-27T11:30:45Z</time></trkpt>
   <trkpt lat="31.225179" lon="35.25772"><ele>291.9</ele><name>TP02206</name><time>2020-01-27T11:30:47Z</time></trkpt>
   <trkpt lat="31.225071" lon="35.257744"><ele>292.1</ele><name>TP02207</name><time>2020-01-27T11:30:49Z</time></trkpt>
   <trkpt lat="31.225012" lon="35.257769"><ele>292.6</ele><name>TP02208</name><time>2020-01-27T11:30:50Z</time></trkpt>
   <trkpt lat="31.224967" lon="35.2578"><ele>292.9</ele><name>TP02209</name><time>2020-01-27T11:30:52Z</time></trkpt>
   <trkpt lat="31.22493" lon="35.25782"><ele>292.9</ele><name>TP02210</name><time>2020-01-27T11:30:53Z</time></trkpt>
   <trkpt lat="31.224904" lon="35.257834"><ele>292.8</ele><name>TP02211</name><time>2020-01-27T11:30:54Z</time></trkpt>
   <trkpt lat="31.224885" lon="35.25785"><ele>292.7</ele><name>TP02212</name><time>2020-01-27T11:30:55Z</time></trkpt>
   <trkpt lat="31.224882" lon="35.257865"><ele>292.6</ele><name>TP02213</name><time>2020-01-27T11:30:56Z</time></trkpt>
   <trkpt lat="31.224886" lon="35.257872"><ele>292.6</ele><name>TP02214</name><time>2020-01-27T11:30:58Z</time></trkpt>
   <trkpt lat="31.224889" lon="35.257878"><ele>292.6</ele><name>TP02215</name><time>2020-01-27T11:31:00Z</time></trkpt>
   <trkpt lat="31.224889" lon="35.257881"><ele>292.6</ele><name>TP02216</name><time>2020-01-27T11:31:01Z</time></trkpt>
   <trkpt lat="31.224895" lon="35.257866"><ele>292.5</ele><name>TP02217</name><time>2020-01-27T11:31:03Z</time></trkpt>
   <trkpt lat="31.224897" lon="35.257861"><ele>292.5</ele><name>TP02218</name><time>2020-01-27T11:31:05Z</time></trkpt>
   <trkpt lat="31.224898" lon="35.25786"><ele>292.5</ele><name>TP02219</name><time>2020-01-27T11:31:07Z</time></trkpt>
   <trkpt lat="31.224898" lon="35.25786"><ele>292.5</ele><name>TP02220</name><time>2020-01-27T11:31:09Z</time></trkpt>
   <trkpt lat="31.224898" lon="35.25786"><ele>292.5</ele><name>TP02221</name><time>2020-01-27T11:31:10Z</time></trkpt>
   <trkpt lat="31.224898" lon="35.25786"><ele>292.5</ele><name>TP02222</name><time>2020-01-27T11:31:12Z</time></trkpt>
   <trkpt lat="31.224898" lon="35.25786"><ele>292.5</ele><name>TP02223</name><time>2020-01-27T11:31:13Z</time></trkpt>
   <trkpt lat="31.224898" lon="35.25786"><ele>292.5</ele><name>TP02224</name><time>2020-01-27T11:31:14Z</time></trkpt>
   <trkpt lat="31.224898" lon="35.25786"><ele>292.5</ele><name>TP02225</name><time>2020-01-27T11:31:16Z</time></trkpt>
   <trkpt lat="31.224898" lon="35.25786"><ele>292.5</ele><name>TP02226</name><time>2020-01-27T11:31:18Z</time></trkpt>
   <trkpt lat="31.224898" lon="35.25786"><ele>292.5</ele><name>TP02227</name><time>2020-01-27T11:31:19Z</time></trkpt>
   <trkpt lat="31.224898" lon="35.25786"><ele>292.5</ele><name>TP02228</name><time>2020-01-27T11:31:20Z</time></trkpt>
   <trkpt lat="31.224898" lon="35.25786"><ele>292.5</ele><name>TP02229</name><time>2020-01-27T11:31:22Z</time></trkpt>
   <trkpt lat="31.224898" lon="35.25786"><ele>292.5</ele><name>TP02230</name><time>2020-01-27T11:31:24Z</time></trkpt>
   <trkpt lat="31.224898" lon="35.25786"><ele>292.5</ele><name>TP02231</name><time>2020-01-27T11:31:26Z</time></trkpt>
   <trkpt lat="31.224898" lon="35.25786"><ele>292.5</ele><name>TP02232</name><time>2020-01-27T11:31:28Z</time></trkpt>
   <trkpt lat="31.224898" lon="35.25786"><ele>292.5</ele><name>TP02233</name><time>2020-01-27T11:31:29Z</time></trkpt>
   <trkpt lat="31.224898" lon="35.25786"><ele>292.5</ele><name>TP02234</name><time>2020-01-27T11:31:30Z</time></trkpt>
   <trkpt lat="31.224898" lon="35.25786"><ele>292.5</ele><name>TP02235</name><time>2020-01-27T11:31:32Z</time></trkpt>
   <trkpt lat="31.224898" lon="35.25786"><ele>292.5</ele><name>TP02236</name><time>2020-01-27T11:31:33Z</time></trkpt>
   <trkpt lat="31.224898" lon="35.25786"><ele>292.5</ele><name>TP02237</name><time>2020-01-27T11:31:35Z</time></trkpt>
   <trkpt lat="31.224898" lon="35.25786"><ele>292.5</ele><name>TP02238</name><time>2020-01-27T11:31:36Z</time></trkpt>
   <trkpt lat="31.224876" lon="35.257869"><ele>292.3</ele><name>TP02239</name><time>2020-01-27T11:31:38Z</time></trkpt>
   <trkpt lat="31.224847" lon="35.257891"><ele>292.2</ele><name>TP02240</name><time>2020-01-27T11:31:40Z</time></trkpt>
   <trkpt lat="31.224828" lon="35.257907"><ele>292.1</ele><name>TP02241</name><time>2020-01-27T11:31:41Z</time></trkpt>
   <trkpt lat="31.22479" lon="35.257934"><ele>291.8</ele><name>TP02242</name><time>2020-01-27T11:31:43Z</time></trkpt>
   <trkpt lat="31.224773" lon="35.257946"><ele>291.7</ele><name>TP02243</name><time>2020-01-27T11:31:44Z</time></trkpt>
   <trkpt lat="31.224744" lon="35.257978"><ele>291.6</ele><name>TP02244</name><time>2020-01-27T11:31:46Z</time></trkpt>
   <trkpt lat="31.224708" lon="35.257987"><ele>291.4</ele><name>TP02245</name><time>2020-01-27T11:31:48Z</time></trkpt>
   <trkpt lat="31.224667" lon="35.258007"><ele>291.3</ele><name>TP02246</name><time>2020-01-27T11:31:49Z</time></trkpt>
   <trkpt lat="31.224633" lon="35.258028"><ele>291.1</ele><name>TP02247</name><time>2020-01-27T11:31:50Z</time></trkpt>
   <trkpt lat="31.224599" lon="35.258054"><ele>290.9</ele><name>TP02248</name><time>2020-01-27T11:31:51Z</time></trkpt>
   <trkpt lat="31.224566" lon="35.258072"><ele>290.8</ele><name>TP02249</name><time>2020-01-27T11:31:52Z</time></trkpt>
   <trkpt lat="31.224532" lon="35.258085"><ele>290.7</ele><name>TP02250</name><time>2020-01-27T11:31:54Z</time></trkpt>
   <trkpt lat="31.224499" lon="35.258099"><ele>290.5</ele><name>TP02251</name><time>2020-01-27T11:31:55Z</time></trkpt>
   <trkpt lat="31.224473" lon="35.258122"><ele>290.4</ele><name>TP02252</name><time>2020-01-27T11:31:56Z</time></trkpt>
   <trkpt lat="31.224438" lon="35.258142"><ele>290.2</ele><name>TP02253</name><time>2020-01-27T11:31:57Z</time></trkpt>
   <trkpt lat="31.224427" lon="35.25815"><ele>290.2</ele><name>TP02254</name><time>2020-01-27T11:31:58Z</time></trkpt>
   <trkpt lat="31.224399" lon="35.258163"><ele>290.1</ele><name>TP02255</name><time>2020-01-27T11:31:59Z</time></trkpt>
   <trkpt lat="31.224373" lon="35.258172"><ele>290</ele><name>TP02256</name><time>2020-01-27T11:32:00Z</time></trkpt>
   <trkpt lat="31.224345" lon="35.258187"><ele>289.8</ele><name>TP02257</name><time>2020-01-27T11:32:01Z</time></trkpt>
   <trkpt lat="31.224299" lon="35.258218"><ele>289.6</ele><name>TP02258</name><time>2020-01-27T11:32:03Z</time></trkpt>
   <trkpt lat="31.224257" lon="35.25824"><ele>289.4</ele><name>TP02259</name><time>2020-01-27T11:32:04Z</time></trkpt>
   <trkpt lat="31.224201" lon="35.258282"><ele>289.2</ele><name>TP02260</name><time>2020-01-27T11:32:06Z</time></trkpt>
   <trkpt lat="31.224173" lon="35.258303"><ele>289</ele><name>TP02261</name><time>2020-01-27T11:32:07Z</time></trkpt>
   <trkpt lat="31.224134" lon="35.258332"><ele>288.8</ele><name>TP02262</name><time>2020-01-27T11:32:09Z</time></trkpt>
   <trkpt lat="31.224096" lon="35.258356"><ele>288.4</ele><name>TP02263</name><time>2020-01-27T11:32:10Z</time></trkpt>
   <trkpt lat="31.224057" lon="35.258387"><ele>288.2</ele><name>TP02264</name><time>2020-01-27T11:32:11Z</time></trkpt>
   <trkpt lat="31.224029" lon="35.258406"><ele>288.1</ele><name>TP02265</name><time>2020-01-27T11:32:12Z</time></trkpt>
   <trkpt lat="31.223988" lon="35.258444"><ele>287.8</ele><name>TP02266</name><time>2020-01-27T11:32:14Z</time></trkpt>
   <trkpt lat="31.223961" lon="35.25847"><ele>287.6</ele><name>TP02267</name><time>2020-01-27T11:32:15Z</time></trkpt>
   <trkpt lat="31.223937" lon="35.258486"><ele>287.5</ele><name>TP02268</name><time>2020-01-27T11:32:16Z</time></trkpt>
   <trkpt lat="31.223895" lon="35.258514"><ele>287.2</ele><name>TP02269</name><time>2020-01-27T11:32:18Z</time></trkpt>
   <trkpt lat="31.223871" lon="35.258545"><ele>287.1</ele><name>TP02270</name><time>2020-01-27T11:32:19Z</time></trkpt>
   <trkpt lat="31.223817" lon="35.258554"><ele>286.8</ele><name>TP02271</name><time>2020-01-27T11:32:21Z</time></trkpt>
   <trkpt lat="31.223782" lon="35.258554"><ele>286.6</ele><name>TP02272</name><time>2020-01-27T11:32:22Z</time></trkpt>
   <trkpt lat="31.223737" lon="35.258548"><ele>286.5</ele><name>TP02273</name><time>2020-01-27T11:32:23Z</time></trkpt>
   <trkpt lat="31.223687" lon="35.258553"><ele>286.4</ele><name>TP02274</name><time>2020-01-27T11:32:24Z</time></trkpt>
   <trkpt lat="31.223622" lon="35.258576"><ele>286.3</ele><name>TP02275</name><time>2020-01-27T11:32:25Z</time></trkpt>
   <trkpt lat="31.223588" lon="35.258596"><ele>286.2</ele><name>TP02276</name><time>2020-01-27T11:32:26Z</time></trkpt>
   <trkpt lat="31.223556" lon="35.258628"><ele>286.2</ele><name>TP02277</name><time>2020-01-27T11:32:28Z</time></trkpt>
   <trkpt lat="31.223527" lon="35.258649"><ele>286.1</ele><name>TP02278</name><time>2020-01-27T11:32:29Z</time></trkpt>
   <trkpt lat="31.223507" lon="35.258662"><ele>286.1</ele><name>TP02279</name><time>2020-01-27T11:32:30Z</time></trkpt>
   <trkpt lat="31.223481" lon="35.258687"><ele>286.1</ele><name>TP02280</name><time>2020-01-27T11:32:32Z</time></trkpt>
   <trkpt lat="31.223447" lon="35.258717"><ele>286</ele><name>TP02281</name><time>2020-01-27T11:32:33Z</time></trkpt>
   <trkpt lat="31.223408" lon="35.258759"><ele>285.9</ele><name>TP02282</name><time>2020-01-27T11:32:34Z</time></trkpt>
   <trkpt lat="31.22338" lon="35.258793"><ele>285.8</ele><name>TP02283</name><time>2020-01-27T11:32:35Z</time></trkpt>
   <trkpt lat="31.22335" lon="35.25883"><ele>285.7</ele><name>TP02284</name><time>2020-01-27T11:32:36Z</time></trkpt>
   <trkpt lat="31.223297" lon="35.258864"><ele>285.6</ele><name>TP02285</name><time>2020-01-27T11:32:38Z</time></trkpt>
   <trkpt lat="31.223259" lon="35.258897"><ele>285.6</ele><name>TP02286</name><time>2020-01-27T11:32:39Z</time></trkpt>
   <trkpt lat="31.22323" lon="35.25894"><ele>285.4</ele><name>TP02287</name><time>2020-01-27T11:32:40Z</time></trkpt>
   <trkpt lat="31.223189" lon="35.259046"><ele>285</ele><name>TP02288</name><time>2020-01-27T11:32:42Z</time></trkpt>
   <trkpt lat="31.223186" lon="35.259088"><ele>284.9</ele><name>TP02289</name><time>2020-01-27T11:32:43Z</time></trkpt>
   <trkpt lat="31.223185" lon="35.25912"><ele>284.8</ele><name>TP02290</name><time>2020-01-27T11:32:45Z</time></trkpt>
   <trkpt lat="31.223172" lon="35.259123"><ele>284.8</ele><name>TP02291</name><time>2020-01-27T11:32:47Z</time></trkpt>
   <trkpt lat="31.223166" lon="35.259134"><ele>284.7</ele><name>TP02292</name><time>2020-01-27T11:32:49Z</time></trkpt>
   <trkpt lat="31.223167" lon="35.259137"><ele>284.7</ele><name>TP02293</name><time>2020-01-27T11:32:51Z</time></trkpt>
   <trkpt lat="31.223164" lon="35.259144"><ele>284.7</ele><name>TP02294</name><time>2020-01-27T11:32:52Z</time></trkpt>
   <trkpt lat="31.22316" lon="35.259141"><ele>284.7</ele><name>TP02295</name><time>2020-01-27T11:32:53Z</time></trkpt>
   <trkpt lat="31.223154" lon="35.259135"><ele>284.7</ele><name>TP02296</name><time>2020-01-27T11:32:55Z</time></trkpt>
   <trkpt lat="31.223135" lon="35.259133"><ele>284.6</ele><name>TP02297</name><time>2020-01-27T11:32:56Z</time></trkpt>
   <trkpt lat="31.22313" lon="35.259137"><ele>284.6</ele><name>TP02298</name><time>2020-01-27T11:32:57Z</time></trkpt>
   <trkpt lat="31.223125" lon="35.259148"><ele>284.5</ele><name>TP02299</name><time>2020-01-27T11:32:59Z</time></trkpt>
   <trkpt lat="31.223115" lon="35.259163"><ele>284.5</ele><name>TP02300</name><time>2020-01-27T11:33:00Z</time></trkpt>
   <trkpt lat="31.223111" lon="35.259169"><ele>284.5</ele><name>TP02301</name><time>2020-01-27T11:33:01Z</time></trkpt>
   <trkpt lat="31.223108" lon="35.259174"><ele>284.5</ele><name>TP02302</name><time>2020-01-27T11:33:02Z</time></trkpt>
   <trkpt lat="31.223106" lon="35.259178"><ele>284.5</ele><name>TP02303</name><time>2020-01-27T11:33:03Z</time></trkpt>
   <trkpt lat="31.223101" lon="35.259187"><ele>284.5</ele><name>TP02304</name><time>2020-01-27T11:33:05Z</time></trkpt>
   <trkpt lat="31.223099" lon="35.259193"><ele>284.5</ele><name>TP02305</name><time>2020-01-27T11:33:07Z</time></trkpt>
   <trkpt lat="31.223097" lon="35.259196"><ele>284.5</ele><name>TP02306</name><time>2020-01-27T11:33:09Z</time></trkpt>
   <trkpt lat="31.223098" lon="35.259199"><ele>284.4</ele><name>TP02307</name><time>2020-01-27T11:33:11Z</time></trkpt>
   <trkpt lat="31.223099" lon="35.259198"><ele>284.4</ele><name>TP02308</name><time>2020-01-27T11:33:13Z</time></trkpt>
   <trkpt lat="31.223098" lon="35.259201"><ele>284.4</ele><name>TP02309</name><time>2020-01-27T11:33:14Z</time></trkpt>
   <trkpt lat="31.223098" lon="35.259203"><ele>284.4</ele><name>TP02310</name><time>2020-01-27T11:33:15Z</time></trkpt>
   <trkpt lat="31.223096" lon="35.259207"><ele>284.4</ele><name>TP02311</name><time>2020-01-27T11:33:17Z</time></trkpt>
   <trkpt lat="31.223096" lon="35.259208"><ele>284.4</ele><name>TP02312</name><time>2020-01-27T11:33:18Z</time></trkpt>
   <trkpt lat="31.223117" lon="35.259163"><ele>284.4</ele><name>TP02313</name><time>2020-01-27T11:33:20Z</time></trkpt>
   <trkpt lat="31.223111" lon="35.259163"><ele>284.4</ele><name>TP02314</name><time>2020-01-27T11:33:22Z</time></trkpt>
   <trkpt lat="31.223098" lon="35.259179"><ele>284.4</ele><name>TP02315</name><time>2020-01-27T11:33:24Z</time></trkpt>
   <trkpt lat="31.223088" lon="35.259227"><ele>284.3</ele><name>TP02316</name><time>2020-01-27T11:33:26Z</time></trkpt>
   <trkpt lat="31.223086" lon="35.259269"><ele>284.3</ele><name>TP02317</name><time>2020-01-27T11:33:27Z</time></trkpt>
   <trkpt lat="31.223069" lon="35.25931"><ele>284.3</ele><name>TP02318</name><time>2020-01-27T11:33:29Z</time></trkpt>
   <trkpt lat="31.223043" lon="35.25933"><ele>284.3</ele><name>TP02319</name><time>2020-01-27T11:33:30Z</time></trkpt>
   <trkpt lat="31.223015" lon="35.259364"><ele>284.2</ele><name>TP02320</name><time>2020-01-27T11:33:31Z</time></trkpt>
   <trkpt lat="31.222998" lon="35.259425"><ele>284</ele><name>TP02321</name><time>2020-01-27T11:33:33Z</time></trkpt>
   <trkpt lat="31.222998" lon="35.259461"><ele>283.9</ele><name>TP02322</name><time>2020-01-27T11:33:34Z</time></trkpt>
   <trkpt lat="31.222994" lon="35.259523"><ele>283.7</ele><name>TP02323</name><time>2020-01-27T11:33:36Z</time></trkpt>
   <trkpt lat="31.222978" lon="35.259553"><ele>283.5</ele><name>TP02324</name><time>2020-01-27T11:33:37Z</time></trkpt>
   <trkpt lat="31.222957" lon="35.259592"><ele>283.3</ele><name>TP02325</name><time>2020-01-27T11:33:38Z</time></trkpt>
   <trkpt lat="31.222924" lon="35.259636"><ele>282.9</ele><name>TP02326</name><time>2020-01-27T11:33:40Z</time></trkpt>
   <trkpt lat="31.222892" lon="35.259682"><ele>282.7</ele><name>TP02327</name><time>2020-01-27T11:33:41Z</time></trkpt>
   <trkpt lat="31.222855" lon="35.25972"><ele>282.5</ele><name>TP02328</name><time>2020-01-27T11:33:43Z</time></trkpt>
   <trkpt lat="31.222827" lon="35.259758"><ele>282.3</ele><name>TP02329</name><time>2020-01-27T11:33:44Z</time></trkpt>
   <trkpt lat="31.222791" lon="35.259801"><ele>282.1</ele><name>TP02330</name><time>2020-01-27T11:33:45Z</time></trkpt>
   <trkpt lat="31.222754" lon="35.259849"><ele>281.9</ele><name>TP02331</name><time>2020-01-27T11:33:47Z</time></trkpt>
   <trkpt lat="31.222728" lon="35.259885"><ele>281.8</ele><name>TP02332</name><time>2020-01-27T11:33:48Z</time></trkpt>
   <trkpt lat="31.22271" lon="35.259923"><ele>281.7</ele><name>TP02333</name><time>2020-01-27T11:33:49Z</time></trkpt>
   <trkpt lat="31.222701" lon="35.259964"><ele>281.6</ele><name>TP02334</name><time>2020-01-27T11:33:50Z</time></trkpt>
   <trkpt lat="31.222701" lon="35.25996"><ele>281.6</ele><name>TP02335</name><time>2020-01-27T11:33:52Z</time></trkpt>
   <trkpt lat="31.2227" lon="35.259979"><ele>281.5</ele><name>TP02336</name><time>2020-01-27T11:33:54Z</time></trkpt>
   <trkpt lat="31.22269" lon="35.259974"><ele>281.5</ele><name>TP02337</name><time>2020-01-27T11:33:56Z</time></trkpt>
   <trkpt lat="31.222689" lon="35.259971"><ele>281.5</ele><name>TP02338</name><time>2020-01-27T11:33:57Z</time></trkpt>
   <trkpt lat="31.222687" lon="35.259963"><ele>281.5</ele><name>TP02339</name><time>2020-01-27T11:33:59Z</time></trkpt>
   <trkpt lat="31.222671" lon="35.259981"><ele>281.5</ele><name>TP02340</name><time>2020-01-27T11:34:00Z</time></trkpt>
   <trkpt lat="31.222652" lon="35.260008"><ele>281.5</ele><name>TP02341</name><time>2020-01-27T11:34:01Z</time></trkpt>
   <trkpt lat="31.222628" lon="35.26005"><ele>281.5</ele><name>TP02342</name><time>2020-01-27T11:34:03Z</time></trkpt>
   <trkpt lat="31.222612" lon="35.260082"><ele>281.5</ele><name>TP02343</name><time>2020-01-27T11:34:04Z</time></trkpt>
   <trkpt lat="31.222602" lon="35.260124"><ele>281.6</ele><name>TP02344</name><time>2020-01-27T11:34:05Z</time></trkpt>
   <trkpt lat="31.222596" lon="35.260158"><ele>281.7</ele><name>TP02345</name><time>2020-01-27T11:34:06Z</time></trkpt>
   <trkpt lat="31.222584" lon="35.260196"><ele>281.8</ele><name>TP02346</name><time>2020-01-27T11:34:07Z</time></trkpt>
   <trkpt lat="31.222577" lon="35.260251"><ele>282.1</ele><name>TP02347</name><time>2020-01-27T11:34:09Z</time></trkpt>
   <trkpt lat="31.222565" lon="35.260301"><ele>282.3</ele><name>TP02348</name><time>2020-01-27T11:34:10Z</time></trkpt>
   <trkpt lat="31.222548" lon="35.26034"><ele>282.6</ele><name>TP02349</name><time>2020-01-27T11:34:11Z</time></trkpt>
   <trkpt lat="31.222519" lon="35.260391"><ele>282.9</ele><name>TP02350</name><time>2020-01-27T11:34:13Z</time></trkpt>
   <trkpt lat="31.222496" lon="35.260429"><ele>283.1</ele><name>TP02351</name><time>2020-01-27T11:34:14Z</time></trkpt>
   <trkpt lat="31.222476" lon="35.260475"><ele>283.3</ele><name>TP02352</name><time>2020-01-27T11:34:16Z</time></trkpt>
   <trkpt lat="31.222463" lon="35.260516"><ele>283.5</ele><name>TP02353</name><time>2020-01-27T11:34:17Z</time></trkpt>
   <trkpt lat="31.222451" lon="35.26056"><ele>283.7</ele><name>TP02354</name><time>2020-01-27T11:34:18Z</time></trkpt>
   <trkpt lat="31.222437" lon="35.2606"><ele>283.9</ele><name>TP02355</name><time>2020-01-27T11:34:19Z</time></trkpt>
   <trkpt lat="31.222416" lon="35.260624"><ele>284.1</ele><name>TP02356</name><time>2020-01-27T11:34:20Z</time></trkpt>
   <trkpt lat="31.22238" lon="35.260637"><ele>284.4</ele><name>TP02357</name><time>2020-01-27T11:34:22Z</time></trkpt>
   <trkpt lat="31.222333" lon="35.26063"><ele>284.7</ele><name>TP02358</name><time>2020-01-27T11:34:23Z</time></trkpt>
   <trkpt lat="31.222275" lon="35.260625"><ele>285.2</ele><name>TP02359</name><time>2020-01-27T11:34:25Z</time></trkpt>
   <trkpt lat="31.222216" lon="35.260621"><ele>285.6</ele><name>TP02360</name><time>2020-01-27T11:34:26Z</time></trkpt>
   <trkpt lat="31.222186" lon="35.260611"><ele>285.8</ele><name>TP02361</name><time>2020-01-27T11:34:27Z</time></trkpt>
   <trkpt lat="31.222149" lon="35.260609"><ele>286</ele><name>TP02362</name><time>2020-01-27T11:34:28Z</time></trkpt>
   <trkpt lat="31.222116" lon="35.260604"><ele>286.2</ele><name>TP02363</name><time>2020-01-27T11:34:30Z</time></trkpt>
   <trkpt lat="31.222077" lon="35.2606"><ele>286.4</ele><name>TP02364</name><time>2020-01-27T11:34:31Z</time></trkpt>
   <trkpt lat="31.222046" lon="35.260596"><ele>286.6</ele><name>TP02365</name><time>2020-01-27T11:34:32Z</time></trkpt>
   <trkpt lat="31.222007" lon="35.260601"><ele>286.9</ele><name>TP02366</name><time>2020-01-27T11:34:33Z</time></trkpt>
   <trkpt lat="31.221954" lon="35.260593"><ele>287.2</ele><name>TP02367</name><time>2020-01-27T11:34:35Z</time></trkpt>
   <trkpt lat="31.221924" lon="35.260586"><ele>287.4</ele><name>TP02368</name><time>2020-01-27T11:34:36Z</time></trkpt>
   <trkpt lat="31.221887" lon="35.260577"><ele>287.7</ele><name>TP02369</name><time>2020-01-27T11:34:37Z</time></trkpt>
   <trkpt lat="31.221851" lon="35.260583"><ele>287.9</ele><name>TP02370</name><time>2020-01-27T11:34:39Z</time></trkpt>
   <trkpt lat="31.221822" lon="35.260585"><ele>288.1</ele><name>TP02371</name><time>2020-01-27T11:34:41Z</time></trkpt>
   <trkpt lat="31.221795" lon="35.260586"><ele>288.3</ele><name>TP02372</name><time>2020-01-27T11:34:42Z</time></trkpt>
   <trkpt lat="31.221762" lon="35.260587"><ele>288.5</ele><name>TP02373</name><time>2020-01-27T11:34:43Z</time></trkpt>
   <trkpt lat="31.221731" lon="35.260589"><ele>288.7</ele><name>TP02374</name><time>2020-01-27T11:34:44Z</time></trkpt>
   <trkpt lat="31.221722" lon="35.26059"><ele>288.8</ele><name>TP02375</name><time>2020-01-27T11:34:45Z</time></trkpt>
   <trkpt lat="31.221705" lon="35.260597"><ele>288.9</ele><name>TP02376</name><time>2020-01-27T11:34:46Z</time></trkpt>
   <trkpt lat="31.221687" lon="35.260602"><ele>289</ele><name>TP02377</name><time>2020-01-27T11:34:47Z</time></trkpt>
   <trkpt lat="31.221646" lon="35.260612"><ele>289.4</ele><name>TP02378</name><time>2020-01-27T11:34:48Z</time></trkpt>
   <trkpt lat="31.221617" lon="35.260616"><ele>289.7</ele><name>TP02379</name><time>2020-01-27T11:34:50Z</time></trkpt>
   <trkpt lat="31.221606" lon="35.260615"><ele>289.8</ele><name>TP02380</name><time>2020-01-27T11:34:51Z</time></trkpt>
   <trkpt lat="31.221573" lon="35.260622"><ele>290.1</ele><name>TP02381</name><time>2020-01-27T11:34:52Z</time></trkpt>
   <trkpt lat="31.221523" lon="35.260636"><ele>290.5</ele><name>TP02382</name><time>2020-01-27T11:34:54Z</time></trkpt>
   <trkpt lat="31.221505" lon="35.260641"><ele>290.7</ele><name>TP02383</name><time>2020-01-27T11:34:55Z</time></trkpt>
   <trkpt lat="31.221487" lon="35.260645"><ele>290.8</ele><name>TP02384</name><time>2020-01-27T11:34:56Z</time></trkpt>
   <trkpt lat="31.221457" lon="35.26065"><ele>291</ele><name>TP02385</name><time>2020-01-27T11:34:57Z</time></trkpt>
   <trkpt lat="31.221428" lon="35.26065"><ele>291.2</ele><name>TP02386</name><time>2020-01-27T11:34:58Z</time></trkpt>
   <trkpt lat="31.22138" lon="35.260651"><ele>291.5</ele><name>TP02387</name><time>2020-01-27T11:35:00Z</time></trkpt>
   <trkpt lat="31.221346" lon="35.260657"><ele>291.8</ele><name>TP02388</name><time>2020-01-27T11:35:01Z</time></trkpt>
   <trkpt lat="31.22132" lon="35.260663"><ele>291.9</ele><name>TP02389</name><time>2020-01-27T11:35:02Z</time></trkpt>
   <trkpt lat="31.221276" lon="35.260672"><ele>292.2</ele><name>TP02390</name><time>2020-01-27T11:35:04Z</time></trkpt>
   <trkpt lat="31.221257" lon="35.260673"><ele>292.5</ele><name>TP02391</name><time>2020-01-27T11:35:05Z</time></trkpt>
   <trkpt lat="31.221241" lon="35.260673"><ele>292.7</ele><name>TP02392</name><time>2020-01-27T11:35:06Z</time></trkpt>
   <trkpt lat="31.221229" lon="35.260665"><ele>292.9</ele><name>TP02393</name><time>2020-01-27T11:35:07Z</time></trkpt>
   <trkpt lat="31.221222" lon="35.26066"><ele>293</ele><name>TP02394</name><time>2020-01-27T11:35:08Z</time></trkpt>
   <trkpt lat="31.221215" lon="35.260656"><ele>293.2</ele><name>TP02395</name><time>2020-01-27T11:35:10Z</time></trkpt>
   <trkpt lat="31.221208" lon="35.260651"><ele>293.3</ele><name>TP02396</name><time>2020-01-27T11:35:11Z</time></trkpt>
   <trkpt lat="31.221201" lon="35.260646"><ele>293.4</ele><name>TP02397</name><time>2020-01-27T11:35:12Z</time></trkpt>
   <trkpt lat="31.221178" lon="35.260637"><ele>293.7</ele><name>TP02398</name><time>2020-01-27T11:35:13Z</time></trkpt>
   <trkpt lat="31.22115" lon="35.260636"><ele>294.1</ele><name>TP02399</name><time>2020-01-27T11:35:15Z</time></trkpt>
   <trkpt lat="31.221122" lon="35.260631"><ele>294.5</ele><name>TP02400</name><time>2020-01-27T11:35:16Z</time></trkpt>
   <trkpt lat="31.221098" lon="35.260616"><ele>294.8</ele><name>TP02401</name><time>2020-01-27T11:35:18Z</time></trkpt>
   <trkpt lat="31.221088" lon="35.260613"><ele>295</ele><name>TP02402</name><time>2020-01-27T11:35:19Z</time></trkpt>
   <trkpt lat="31.221065" lon="35.26058"><ele>295.5</ele><name>TP02403</name><time>2020-01-27T11:35:21Z</time></trkpt>
   <trkpt lat="31.221049" lon="35.260555"><ele>295.8</ele><name>TP02404</name><time>2020-01-27T11:35:22Z</time></trkpt>
   <trkpt lat="31.221029" lon="35.26054"><ele>296</ele><name>TP02405</name><time>2020-01-27T11:35:24Z</time></trkpt>
   <trkpt lat="31.221005" lon="35.260518"><ele>296.3</ele><name>TP02406</name><time>2020-01-27T11:35:25Z</time></trkpt>
   <trkpt lat="31.220999" lon="35.260512"><ele>296.4</ele><name>TP02407</name><time>2020-01-27T11:35:26Z</time></trkpt>
   <trkpt lat="31.220973" lon="35.260489"><ele>296.8</ele><name>TP02408</name><time>2020-01-27T11:35:28Z</time></trkpt>
   <trkpt lat="31.22096" lon="35.260472"><ele>297.1</ele><name>TP02409</name><time>2020-01-27T11:35:30Z</time></trkpt>
   <trkpt lat="31.220949" lon="35.260463"><ele>297.4</ele><name>TP02410</name><time>2020-01-27T11:35:31Z</time></trkpt>
   <trkpt lat="31.220935" lon="35.260454"><ele>297.6</ele><name>TP02411</name><time>2020-01-27T11:35:32Z</time></trkpt>
   <trkpt lat="31.220927" lon="35.260447"><ele>297.8</ele><name>TP02412</name><time>2020-01-27T11:35:33Z</time></trkpt>
   <trkpt lat="31.22092" lon="35.260441"><ele>297.9</ele><name>TP02413</name><time>2020-01-27T11:35:34Z</time></trkpt>
   <trkpt lat="31.220915" lon="35.260431"><ele>298.1</ele><name>TP02414</name><time>2020-01-27T11:35:35Z</time></trkpt>
   <trkpt lat="31.220911" lon="35.260421"><ele>298.3</ele><name>TP02415</name><time>2020-01-27T11:35:37Z</time></trkpt>
   <trkpt lat="31.220902" lon="35.260415"><ele>298.5</ele><name>TP02416</name><time>2020-01-27T11:35:38Z</time></trkpt>
   <trkpt lat="31.220899" lon="35.260412"><ele>298.6</ele><name>TP02417</name><time>2020-01-27T11:35:39Z</time></trkpt>
   <trkpt lat="31.220899" lon="35.260408"><ele>298.7</ele><name>TP02418</name><time>2020-01-27T11:35:41Z</time></trkpt>
   <trkpt lat="31.220901" lon="35.260411"><ele>298.7</ele><name>TP02419</name><time>2020-01-27T11:35:42Z</time></trkpt>
   <trkpt lat="31.220896" lon="35.260411"><ele>298.8</ele><name>TP02420</name><time>2020-01-27T11:35:43Z</time></trkpt>
   <trkpt lat="31.220892" lon="35.260411"><ele>298.9</ele><name>TP02421</name><time>2020-01-27T11:35:44Z</time></trkpt>
   <trkpt lat="31.220887" lon="35.26041"><ele>299</ele><name>TP02422</name><time>2020-01-27T11:35:46Z</time></trkpt>
   <trkpt lat="31.22088" lon="35.260414"><ele>299.1</ele><name>TP02423</name><time>2020-01-27T11:35:47Z</time></trkpt>
   <trkpt lat="31.220873" lon="35.260417"><ele>299.3</ele><name>TP02424</name><time>2020-01-27T11:35:48Z</time></trkpt>
   <trkpt lat="31.220861" lon="35.260418"><ele>299.5</ele><name>TP02425</name><time>2020-01-27T11:35:49Z</time></trkpt>
   <trkpt lat="31.220841" lon="35.260421"><ele>299.8</ele><name>TP02426</name><time>2020-01-27T11:35:51Z</time></trkpt>
   <trkpt lat="31.22083" lon="35.260422"><ele>300</ele><name>TP02427</name><time>2020-01-27T11:35:52Z</time></trkpt>
   <trkpt lat="31.220821" lon="35.260423"><ele>300.1</ele><name>TP02428</name><time>2020-01-27T11:35:53Z</time></trkpt>
   <trkpt lat="31.220808" lon="35.260419"><ele>300.3</ele><name>TP02429</name><time>2020-01-27T11:35:55Z</time></trkpt>
   <trkpt lat="31.220801" lon="35.260419"><ele>300.4</ele><name>TP02430</name><time>2020-01-27T11:35:56Z</time></trkpt>
   <trkpt lat="31.220805" lon="35.260419"><ele>300.5</ele><name>TP02431</name><time>2020-01-27T11:35:58Z</time></trkpt>
   <trkpt lat="31.220801" lon="35.260418"><ele>300.6</ele><name>TP02432</name><time>2020-01-27T11:35:59Z</time></trkpt>
   <trkpt lat="31.220794" lon="35.260416"><ele>300.7</ele><name>TP02433</name><time>2020-01-27T11:36:01Z</time></trkpt>
   <trkpt lat="31.220794" lon="35.260417"><ele>300.7</ele><name>TP02434</name><time>2020-01-27T11:36:02Z</time></trkpt>
   <trkpt lat="31.220789" lon="35.260422"><ele>300.8</ele><name>TP02435</name><time>2020-01-27T11:36:04Z</time></trkpt>
   <trkpt lat="31.220788" lon="35.260425"><ele>300.9</ele><name>TP02436</name><time>2020-01-27T11:36:05Z</time></trkpt>
   <trkpt lat="31.220788" lon="35.260429"><ele>300.9</ele><name>TP02437</name><time>2020-01-27T11:36:06Z</time></trkpt>
   <trkpt lat="31.220786" lon="35.260431"><ele>301</ele><name>TP02438</name><time>2020-01-27T11:36:08Z</time></trkpt>
   <trkpt lat="31.22078" lon="35.260428"><ele>301.1</ele><name>TP02439</name><time>2020-01-27T11:36:10Z</time></trkpt>
   <trkpt lat="31.220769" lon="35.260417"><ele>301.3</ele><name>TP02440</name><time>2020-01-27T11:36:11Z</time></trkpt>
   <trkpt lat="31.220759" lon="35.260423"><ele>301.5</ele><name>TP02441</name><time>2020-01-27T11:36:13Z</time></trkpt>
   <trkpt lat="31.22075" lon="35.260424"><ele>301.6</ele><name>TP02442</name><time>2020-01-27T11:36:15Z</time></trkpt>
   <trkpt lat="31.220741" lon="35.260426"><ele>301.8</ele><name>TP02443</name><time>2020-01-27T11:36:16Z</time></trkpt>
   <trkpt lat="31.220733" lon="35.260431"><ele>301.9</ele><name>TP02444</name><time>2020-01-27T11:36:17Z</time></trkpt>
   <trkpt lat="31.220721" lon="35.260442"><ele>302.1</ele><name>TP02445</name><time>2020-01-27T11:36:18Z</time></trkpt>
   <trkpt lat="31.2207" lon="35.260451"><ele>302.4</ele><name>TP02446</name><time>2020-01-27T11:36:19Z</time></trkpt>
   <trkpt lat="31.220691" lon="35.260454"><ele>302.5</ele><name>TP02447</name><time>2020-01-27T11:36:20Z</time></trkpt>
   <trkpt lat="31.220683" lon="35.260457"><ele>302.6</ele><name>TP02448</name><time>2020-01-27T11:36:21Z</time></trkpt>
   <trkpt lat="31.220666" lon="35.260465"><ele>302.8</ele><name>TP02449</name><time>2020-01-27T11:36:23Z</time></trkpt>
   <trkpt lat="31.220658" lon="35.260472"><ele>302.9</ele><name>TP02450</name><time>2020-01-27T11:36:25Z</time></trkpt>
   <trkpt lat="31.220653" lon="35.260472"><ele>303</ele><name>TP02451</name><time>2020-01-27T11:36:26Z</time></trkpt>
   <trkpt lat="31.220654" lon="35.260463"><ele>303</ele><name>TP02452</name><time>2020-01-27T11:36:27Z</time></trkpt>
   <trkpt lat="31.220647" lon="35.260465"><ele>303.1</ele><name>TP02453</name><time>2020-01-27T11:36:28Z</time></trkpt>
   <trkpt lat="31.220633" lon="35.260475"><ele>303.3</ele><name>TP02454</name><time>2020-01-27T11:36:30Z</time></trkpt>
   <trkpt lat="31.220618" lon="35.260478"><ele>303.4</ele><name>TP02455</name><time>2020-01-27T11:36:32Z</time></trkpt>
   <trkpt lat="31.220607" lon="35.260481"><ele>303.6</ele><name>TP02456</name><time>2020-01-27T11:36:33Z</time></trkpt>
   <trkpt lat="31.220602" lon="35.260481"><ele>303.6</ele><name>TP02457</name><time>2020-01-27T11:36:34Z</time></trkpt>
   <trkpt lat="31.220598" lon="35.260482"><ele>303.7</ele><name>TP02458</name><time>2020-01-27T11:36:36Z</time></trkpt>
   <trkpt lat="31.220593" lon="35.260482"><ele>303.7</ele><name>TP02459</name><time>2020-01-27T11:36:38Z</time></trkpt>
   <trkpt lat="31.220589" lon="35.260483"><ele>303.8</ele><name>TP02460</name><time>2020-01-27T11:36:39Z</time></trkpt>
   <trkpt lat="31.220584" lon="35.260484"><ele>303.9</ele><name>TP02461</name><time>2020-01-27T11:36:41Z</time></trkpt>
   <trkpt lat="31.22058" lon="35.260484"><ele>303.9</ele><name>TP02462</name><time>2020-01-27T11:36:42Z</time></trkpt>
   <trkpt lat="31.220575" lon="35.260485"><ele>304</ele><name>TP02463</name><time>2020-01-27T11:36:44Z</time></trkpt>
   <trkpt lat="31.220571" lon="35.260486"><ele>304</ele><name>TP02464</name><time>2020-01-27T11:36:45Z</time></trkpt>
   <trkpt lat="31.220566" lon="35.260486"><ele>304.1</ele><name>TP02465</name><time>2020-01-27T11:36:47Z</time></trkpt>
   <trkpt lat="31.220562" lon="35.260487"><ele>304.1</ele><name>TP02466</name><time>2020-01-27T11:36:48Z</time></trkpt>
   <trkpt lat="31.220557" lon="35.260487"><ele>304.2</ele><name>TP02467</name><time>2020-01-27T11:36:49Z</time></trkpt>
   <trkpt lat="31.220553" lon="35.260488"><ele>304.2</ele><name>TP02468</name><time>2020-01-27T11:36:50Z</time></trkpt>
   <trkpt lat="31.220531" lon="35.260496"><ele>304.5</ele><name>TP02469</name><time>2020-01-27T11:36:52Z</time></trkpt>
   <trkpt lat="31.22052" lon="35.260498"><ele>304.6</ele><name>TP02470</name><time>2020-01-27T11:36:53Z</time></trkpt>
   <trkpt lat="31.22051" lon="35.260501"><ele>304.7</ele><name>TP02471</name><time>2020-01-27T11:36:54Z</time></trkpt>
   <trkpt lat="31.220486" lon="35.260505"><ele>304.9</ele><name>TP02472</name><time>2020-01-27T11:36:55Z</time></trkpt>
   <trkpt lat="31.22045" lon="35.260512"><ele>305.2</ele><name>TP02473</name><time>2020-01-27T11:36:57Z</time></trkpt>
   <trkpt lat="31.220397" lon="35.260522"><ele>305.6</ele><name>TP02474</name><time>2020-01-27T11:36:58Z</time></trkpt>
   <trkpt lat="31.220368" lon="35.260533"><ele>305.9</ele><name>TP02475</name><time>2020-01-27T11:37:00Z</time></trkpt>
   <trkpt lat="31.22036" lon="35.260536"><ele>305.9</ele><name>TP02476</name><time>2020-01-27T11:37:01Z</time></trkpt>
   <trkpt lat="31.220333" lon="35.260541"><ele>306.1</ele><name>TP02477</name><time>2020-01-27T11:37:02Z</time></trkpt>
   <trkpt lat="31.220322" lon="35.260539"><ele>306.2</ele><name>TP02478</name><time>2020-01-27T11:37:03Z</time></trkpt>
   <trkpt lat="31.220311" lon="35.260532"><ele>306.3</ele><name>TP02479</name><time>2020-01-27T11:37:04Z</time></trkpt>
   <trkpt lat="31.220294" lon="35.260526"><ele>306.4</ele><name>TP02480</name><time>2020-01-27T11:37:06Z</time></trkpt>
   <trkpt lat="31.220286" lon="35.260522"><ele>306.5</ele><name>TP02481</name><time>2020-01-27T11:37:08Z</time></trkpt>
   <trkpt lat="31.220275" lon="35.260519"><ele>306.6</ele><name>TP02482</name><time>2020-01-27T11:37:09Z</time></trkpt>
   <trkpt lat="31.220244" lon="35.260517"><ele>306.7</ele><name>TP02483</name><time>2020-01-27T11:37:11Z</time></trkpt>
   <trkpt lat="31.220228" lon="35.260514"><ele>306.8</ele><name>TP02484</name><time>2020-01-27T11:37:12Z</time></trkpt>
   <trkpt lat="31.220198" lon="35.260496"><ele>307</ele><name>TP02485</name><time>2020-01-27T11:37:14Z</time></trkpt>
   <trkpt lat="31.220185" lon="35.260491"><ele>307</ele><name>TP02486</name><time>2020-01-27T11:37:15Z</time></trkpt>
   <trkpt lat="31.220169" lon="35.260489"><ele>307.1</ele><name>TP02487</name><time>2020-01-27T11:37:16Z</time></trkpt>
   <trkpt lat="31.220121" lon="35.260481"><ele>307.2</ele><name>TP02488</name><time>2020-01-27T11:37:18Z</time></trkpt>
   <trkpt lat="31.220106" lon="35.260479"><ele>307.2</ele><name>TP02489</name><time>2020-01-27T11:37:20Z</time></trkpt>
   <trkpt lat="31.22009" lon="35.260477"><ele>307.3</ele><name>TP02490</name><time>2020-01-27T11:37:21Z</time></trkpt>
   <trkpt lat="31.220062" lon="35.26047"><ele>307.3</ele><name>TP02491</name><time>2020-01-27T11:37:23Z</time></trkpt>
   <trkpt lat="31.220035" lon="35.260467"><ele>307.4</ele><name>TP02492</name><time>2020-01-27T11:37:25Z</time></trkpt>
   <trkpt lat="31.220017" lon="35.260464"><ele>307.4</ele><name>TP02493</name><time>2020-01-27T11:37:26Z</time></trkpt>
   <trkpt lat="31.220001" lon="35.260462"><ele>307.5</ele><name>TP02494</name><time>2020-01-27T11:37:27Z</time></trkpt>
   <trkpt lat="31.219959" lon="35.26045"><ele>308.5</ele><name>TP02495</name><time>2020-01-27T11:37:29Z</time></trkpt>
   <trkpt lat="31.219946" lon="35.260445"><ele>308.7</ele><name>TP02496</name><time>2020-01-27T11:37:30Z</time></trkpt>
   <trkpt lat="31.219933" lon="35.260441"><ele>308.9</ele><name>TP02497</name><time>2020-01-27T11:37:31Z</time></trkpt>
   <trkpt lat="31.219915" lon="35.260435"><ele>309.3</ele><name>TP02498</name><time>2020-01-27T11:37:32Z</time></trkpt>
   <trkpt lat="31.219904" lon="35.260432"><ele>309.5</ele><name>TP02499</name><time>2020-01-27T11:37:33Z</time></trkpt>
   <trkpt lat="31.219889" lon="35.260406"><ele>309.8</ele><name>TP02500</name><time>2020-01-27T11:37:35Z</time></trkpt>
   <trkpt lat="31.219886" lon="35.260409"><ele>309.8</ele><name>TP02501</name><time>2020-01-27T11:37:37Z</time></trkpt>
   <trkpt lat="31.219875" lon="35.260413"><ele>310</ele><name>TP02502</name><time>2020-01-27T11:37:38Z</time></trkpt>
   <trkpt lat="31.219869" lon="35.260415"><ele>310</ele><name>TP02503</name><time>2020-01-27T11:37:39Z</time></trkpt>
   <trkpt lat="31.219851" lon="35.260418"><ele>310.2</ele><name>TP02504</name><time>2020-01-27T11:37:41Z</time></trkpt>
   <trkpt lat="31.219834" lon="35.260412"><ele>310.4</ele><name>TP02505</name><time>2020-01-27T11:37:43Z</time></trkpt>
   <trkpt lat="31.219823" lon="35.260407"><ele>310.5</ele><name>TP02506</name><time>2020-01-27T11:37:44Z</time></trkpt>
   <trkpt lat="31.219806" lon="35.260405"><ele>310.6</ele><name>TP02507</name><time>2020-01-27T11:37:45Z</time></trkpt>
   <trkpt lat="31.219778" lon="35.260405"><ele>310.9</ele><name>TP02508</name><time>2020-01-27T11:37:47Z</time></trkpt>
   <trkpt lat="31.219737" lon="35.260404"><ele>311.3</ele><name>TP02509</name><time>2020-01-27T11:37:48Z</time></trkpt>
   <trkpt lat="31.219716" lon="35.260402"><ele>311.5</ele><name>TP02510</name><time>2020-01-27T11:37:49Z</time></trkpt>
   <trkpt lat="31.219679" lon="35.260412"><ele>311.9</ele><name>TP02511</name><time>2020-01-27T11:37:50Z</time></trkpt>
   <trkpt lat="31.219667" lon="35.260415"><ele>312.1</ele><name>TP02512</name><time>2020-01-27T11:37:51Z</time></trkpt>
   <trkpt lat="31.219638" lon="35.260435"><ele>312.6</ele><name>TP02513</name><time>2020-01-27T11:37:53Z</time></trkpt>
   <trkpt lat="31.219631" lon="35.260441"><ele>312.7</ele><name>TP02514</name><time>2020-01-27T11:37:54Z</time></trkpt>
   <trkpt lat="31.219605" lon="35.260457"><ele>313.1</ele><name>TP02515</name><time>2020-01-27T11:37:56Z</time></trkpt>
   <trkpt lat="31.219595" lon="35.260472"><ele>313.3</ele><name>TP02516</name><time>2020-01-27T11:37:58Z</time></trkpt>
   <trkpt lat="31.219579" lon="35.260486"><ele>313.5</ele><name>TP02517</name><time>2020-01-27T11:37:59Z</time></trkpt>
   <trkpt lat="31.219562" lon="35.260492"><ele>313.6</ele><name>TP02518</name><time>2020-01-27T11:38:00Z</time></trkpt>
   <trkpt lat="31.219555" lon="35.260494"><ele>313.7</ele><name>TP02519</name><time>2020-01-27T11:38:01Z</time></trkpt>
   <trkpt lat="31.219548" lon="35.260496"><ele>313.7</ele><name>TP02520</name><time>2020-01-27T11:38:03Z</time></trkpt>
   <trkpt lat="31.219539" lon="35.260502"><ele>313.8</ele><name>TP02521</name><time>2020-01-27T11:38:05Z</time></trkpt>
   <trkpt lat="31.219524" lon="35.260512"><ele>314</ele><name>TP02522</name><time>2020-01-27T11:38:07Z</time></trkpt>
   <trkpt lat="31.219503" lon="35.260509"><ele>314.2</ele><name>TP02523</name><time>2020-01-27T11:38:09Z</time></trkpt>
   <trkpt lat="31.219495" lon="35.260514"><ele>314.2</ele><name>TP02524</name><time>2020-01-27T11:38:10Z</time></trkpt>
   <trkpt lat="31.219471" lon="35.26053"><ele>314.5</ele><name>TP02525</name><time>2020-01-27T11:38:12Z</time></trkpt>
   <trkpt lat="31.21947" lon="35.260533"><ele>314.5</ele><name>TP02526</name><time>2020-01-27T11:38:13Z</time></trkpt>
   <trkpt lat="31.219469" lon="35.260533"><ele>314.5</ele><name>TP02527</name><time>2020-01-27T11:38:14Z</time></trkpt>
   <trkpt lat="31.219453" lon="35.260525"><ele>314.7</ele><name>TP02528</name><time>2020-01-27T11:38:16Z</time></trkpt>
   <trkpt lat="31.219434" lon="35.26053"><ele>314.8</ele><name>TP02529</name><time>2020-01-27T11:38:18Z</time></trkpt>
   <trkpt lat="31.219398" lon="35.260555"><ele>315.2</ele><name>TP02530</name><time>2020-01-27T11:38:19Z</time></trkpt>
   <trkpt lat="31.219359" lon="35.260596"><ele>315.6</ele><name>TP02531</name><time>2020-01-27T11:38:20Z</time></trkpt>
   <trkpt lat="31.219334" lon="35.260634"><ele>316</ele><name>TP02532</name><time>2020-01-27T11:38:21Z</time></trkpt>
   <trkpt lat="31.219299" lon="35.260668"><ele>316.4</ele><name>TP02533</name><time>2020-01-27T11:38:23Z</time></trkpt>
   <trkpt lat="31.219282" lon="35.2607"><ele>316.7</ele><name>TP02534</name><time>2020-01-27T11:38:24Z</time></trkpt>
   <trkpt lat="31.219276" lon="35.260708"><ele>316.8</ele><name>TP02535</name><time>2020-01-27T11:38:25Z</time></trkpt>
   <trkpt lat="31.219248" lon="35.260725"><ele>317</ele><name>TP02536</name><time>2020-01-27T11:38:27Z</time></trkpt>
   <trkpt lat="31.219239" lon="35.260729"><ele>317.1</ele><name>TP02537</name><time>2020-01-27T11:38:28Z</time></trkpt>
   <trkpt lat="31.219225" lon="35.260744"><ele>317.3</ele><name>TP02538</name><time>2020-01-27T11:38:29Z</time></trkpt>
   <trkpt lat="31.2192" lon="35.260768"><ele>317.5</ele><name>TP02539</name><time>2020-01-27T11:38:31Z</time></trkpt>
   <trkpt lat="31.219172" lon="35.260796"><ele>317.8</ele><name>TP02540</name><time>2020-01-27T11:38:33Z</time></trkpt>
   <trkpt lat="31.219161" lon="35.260805"><ele>318</ele><name>TP02541</name><time>2020-01-27T11:38:34Z</time></trkpt>
   <trkpt lat="31.219148" lon="35.26082"><ele>318.1</ele><name>TP02542</name><time>2020-01-27T11:38:35Z</time></trkpt>
   <trkpt lat="31.21914" lon="35.260852"><ele>318.3</ele><name>TP02543</name><time>2020-01-27T11:38:37Z</time></trkpt>
   <trkpt lat="31.219121" lon="35.260863"><ele>318.5</ele><name>TP02544</name><time>2020-01-27T11:38:38Z</time></trkpt>
   <trkpt lat="31.219117" lon="35.260876"><ele>318.6</ele><name>TP02545</name><time>2020-01-27T11:38:39Z</time></trkpt>
   <trkpt lat="31.219104" lon="35.260889"><ele>318.8</ele><name>TP02546</name><time>2020-01-27T11:38:41Z</time></trkpt>
   <trkpt lat="31.219093" lon="35.260907"><ele>318.9</ele><name>TP02547</name><time>2020-01-27T11:38:42Z</time></trkpt>
   <trkpt lat="31.21908" lon="35.260909"><ele>319</ele><name>TP02548</name><time>2020-01-27T11:38:43Z</time></trkpt>
   <trkpt lat="31.219064" lon="35.260916"><ele>319.2</ele><name>TP02549</name><time>2020-01-27T11:38:44Z</time></trkpt>
   <trkpt lat="31.21905" lon="35.260946"><ele>319.4</ele><name>TP02550</name><time>2020-01-27T11:38:46Z</time></trkpt>
   <trkpt lat="31.219047" lon="35.260955"><ele>319.5</ele><name>TP02551</name><time>2020-01-27T11:38:47Z</time></trkpt>
   <trkpt lat="31.219032" lon="35.260987"><ele>319.7</ele><name>TP02552</name><time>2020-01-27T11:38:48Z</time></trkpt>
   <trkpt lat="31.219007" lon="35.261002"><ele>319.9</ele><name>TP02553</name><time>2020-01-27T11:38:50Z</time></trkpt>
   <trkpt lat="31.218982" lon="35.261021"><ele>320.1</ele><name>TP02554</name><time>2020-01-27T11:38:52Z</time></trkpt>
   <trkpt lat="31.218963" lon="35.261028"><ele>320.3</ele><name>TP02555</name><time>2020-01-27T11:38:53Z</time></trkpt>
   <trkpt lat="31.218933" lon="35.261054"><ele>320.5</ele><name>TP02556</name><time>2020-01-27T11:38:55Z</time></trkpt>
   <trkpt lat="31.218923" lon="35.261069"><ele>320.7</ele><name>TP02557</name><time>2020-01-27T11:38:56Z</time></trkpt>
   <trkpt lat="31.218913" lon="35.261081"><ele>320.8</ele><name>TP02558</name><time>2020-01-27T11:38:57Z</time></trkpt>
   <trkpt lat="31.218885" lon="35.261089"><ele>321</ele><name>TP02559</name><time>2020-01-27T11:38:59Z</time></trkpt>
   <trkpt lat="31.218871" lon="35.261092"><ele>321.1</ele><name>TP02560</name><time>2020-01-27T11:39:00Z</time></trkpt>
   <trkpt lat="31.218859" lon="35.261102"><ele>321.2</ele><name>TP02561</name><time>2020-01-27T11:39:01Z</time></trkpt>
   <trkpt lat="31.218842" lon="35.261108"><ele>321.3</ele><name>TP02562</name><time>2020-01-27T11:39:02Z</time></trkpt>
   <trkpt lat="31.218819" lon="35.261099"><ele>321.4</ele><name>TP02563</name><time>2020-01-27T11:39:04Z</time></trkpt>
   <trkpt lat="31.218803" lon="35.261095"><ele>321.4</ele><name>TP02564</name><time>2020-01-27T11:39:05Z</time></trkpt>
   <trkpt lat="31.218777" lon="35.261084"><ele>321.5</ele><name>TP02565</name><time>2020-01-27T11:39:07Z</time></trkpt>
   <trkpt lat="31.218758" lon="35.261076"><ele>321.5</ele><name>TP02566</name><time>2020-01-27T11:39:09Z</time></trkpt>
   <trkpt lat="31.218745" lon="35.261072"><ele>321.6</ele><name>TP02567</name><time>2020-01-27T11:39:10Z</time></trkpt>
   <trkpt lat="31.218727" lon="35.261063"><ele>321.6</ele><name>TP02568</name><time>2020-01-27T11:39:11Z</time></trkpt>
   <trkpt lat="31.218705" lon="35.261061"><ele>321.7</ele><name>TP02569</name><time>2020-01-27T11:39:13Z</time></trkpt>
   <trkpt lat="31.218685" lon="35.26106"><ele>321.7</ele><name>TP02570</name><time>2020-01-27T11:39:14Z</time></trkpt>
   <trkpt lat="31.218671" lon="35.26106"><ele>321.8</ele><name>TP02571</name><time>2020-01-27T11:39:15Z</time></trkpt>
   <trkpt lat="31.218625" lon="35.261046"><ele>321.9</ele><name>TP02572</name><time>2020-01-27T11:39:17Z</time></trkpt>
   <trkpt lat="31.218608" lon="35.261041"><ele>322</ele><name>TP02573</name><time>2020-01-27T11:39:19Z</time></trkpt>
   <trkpt lat="31.218592" lon="35.261035"><ele>322</ele><name>TP02574</name><time>2020-01-27T11:39:21Z</time></trkpt>
   <trkpt lat="31.218575" lon="35.26103"><ele>322.1</ele><name>TP02575</name><time>2020-01-27T11:39:22Z</time></trkpt>
   <trkpt lat="31.218542" lon="35.261025"><ele>322.2</ele><name>TP02576</name><time>2020-01-27T11:39:24Z</time></trkpt>
   <trkpt lat="31.218522" lon="35.261022"><ele>322.3</ele><name>TP02577</name><time>2020-01-27T11:39:25Z</time></trkpt>
   <trkpt lat="31.218507" lon="35.261018"><ele>322.3</ele><name>TP02578</name><time>2020-01-27T11:39:26Z</time></trkpt>
   <trkpt lat="31.218481" lon="35.261005"><ele>322.5</ele><name>TP02579</name><time>2020-01-27T11:39:28Z</time></trkpt>
   <trkpt lat="31.218446" lon="35.261"><ele>322.7</ele><name>TP02580</name><time>2020-01-27T11:39:30Z</time></trkpt>
   <trkpt lat="31.218434" lon="35.260996"><ele>322.7</ele><name>TP02581</name><time>2020-01-27T11:39:31Z</time></trkpt>
   <trkpt lat="31.218424" lon="35.260989"><ele>322.8</ele><name>TP02582</name><time>2020-01-27T11:39:32Z</time></trkpt>
   <trkpt lat="31.218404" lon="35.260972"><ele>322.9</ele><name>TP02583</name><time>2020-01-27T11:39:34Z</time></trkpt>
   <trkpt lat="31.218393" lon="35.26096"><ele>323</ele><name>TP02584</name><time>2020-01-27T11:39:35Z</time></trkpt>
   <trkpt lat="31.218384" lon="35.260958"><ele>323.1</ele><name>TP02585</name><time>2020-01-27T11:39:36Z</time></trkpt>
   <trkpt lat="31.218375" lon="35.260975"><ele>323.2</ele><name>TP02586</name><time>2020-01-27T11:39:37Z</time></trkpt>
   <trkpt lat="31.21835" lon="35.260985"><ele>323.4</ele><name>TP02587</name><time>2020-01-27T11:39:39Z</time></trkpt>
   <trkpt lat="31.218342" lon="35.260987"><ele>323.5</ele><name>TP02588</name><time>2020-01-27T11:39:41Z</time></trkpt>
   <trkpt lat="31.218333" lon="35.260988"><ele>323.6</ele><name>TP02589</name><time>2020-01-27T11:39:42Z</time></trkpt>
   <trkpt lat="31.21832" lon="35.260988"><ele>323.6</ele><name>TP02590</name><time>2020-01-27T11:39:43Z</time></trkpt>
   <trkpt lat="31.218299" lon="35.260983"><ele>323.8</ele><name>TP02591</name><time>2020-01-27T11:39:45Z</time></trkpt>
   <trkpt lat="31.218288" lon="35.260986"><ele>323.9</ele><name>TP02592</name><time>2020-01-27T11:39:47Z</time></trkpt>
   <trkpt lat="31.218284" lon="35.260985"><ele>323.9</ele><name>TP02593</name><time>2020-01-27T11:39:48Z</time></trkpt>
   <trkpt lat="31.218278" lon="35.260984"><ele>323.9</ele><name>TP02594</name><time>2020-01-27T11:39:50Z</time></trkpt>
   <trkpt lat="31.218271" lon="35.260983"><ele>324</ele><name>TP02595</name><time>2020-01-27T11:39:51Z</time></trkpt>
   <trkpt lat="31.218272" lon="35.260982"><ele>324</ele><name>TP02596</name><time>2020-01-27T11:39:52Z</time></trkpt>
   <trkpt lat="31.218278" lon="35.260979"><ele>324</ele><name>TP02597</name><time>2020-01-27T11:39:54Z</time></trkpt>
   <trkpt lat="31.218278" lon="35.260979"><ele>324</ele><name>TP02598</name><time>2020-01-27T11:39:55Z</time></trkpt>
   <trkpt lat="31.218278" lon="35.260979"><ele>324</ele><name>TP02599</name><time>2020-01-27T11:39:57Z</time></trkpt>
   <trkpt lat="31.218278" lon="35.260979"><ele>324</ele><name>TP02600</name><time>2020-01-27T11:39:58Z</time></trkpt>
   <trkpt lat="31.218278" lon="35.260978"><ele>324</ele><name>TP02601</name><time>2020-01-27T11:39:59Z</time></trkpt>
   <trkpt lat="31.218278" lon="35.260978"><ele>324</ele><name>TP02602</name><time>2020-01-27T11:40:01Z</time></trkpt>
   <trkpt lat="31.21828" lon="35.260977"><ele>324.1</ele><name>TP02603</name><time>2020-01-27T11:40:03Z</time></trkpt>
   <trkpt lat="31.218278" lon="35.260968"><ele>324.1</ele><name>TP02604</name><time>2020-01-27T11:40:05Z</time></trkpt>
   <trkpt lat="31.218278" lon="35.260964"><ele>324.1</ele><name>TP02605</name><time>2020-01-27T11:40:06Z</time></trkpt>
   <trkpt lat="31.218278" lon="35.260963"><ele>324.1</ele><name>TP02606</name><time>2020-01-27T11:40:07Z</time></trkpt>
   <trkpt lat="31.218279" lon="35.260963"><ele>324.1</ele><name>TP02607</name><time>2020-01-27T11:40:08Z</time></trkpt>
   <trkpt lat="31.21828" lon="35.260962"><ele>324.1</ele><name>TP02608</name><time>2020-01-27T11:40:10Z</time></trkpt>
   <trkpt lat="31.21828" lon="35.260961"><ele>324.1</ele><name>TP02609</name><time>2020-01-27T11:40:11Z</time></trkpt>
   <trkpt lat="31.21828" lon="35.260961"><ele>324.1</ele><name>TP02610</name><time>2020-01-27T11:40:13Z</time></trkpt>
   <trkpt lat="31.218281" lon="35.260961"><ele>324.2</ele><name>TP02611</name><time>2020-01-27T11:40:15Z</time></trkpt>
   <trkpt lat="31.218281" lon="35.26096"><ele>324.2</ele><name>TP02612</name><time>2020-01-27T11:40:16Z</time></trkpt>
   <trkpt lat="31.218281" lon="35.26096"><ele>324.2</ele><name>TP02613</name><time>2020-01-27T11:40:17Z</time></trkpt>
   <trkpt lat="31.218281" lon="35.26096"><ele>324.2</ele><name>TP02614</name><time>2020-01-27T11:40:18Z</time></trkpt>
   <trkpt lat="31.218281" lon="35.26096"><ele>324.2</ele><name>TP02615</name><time>2020-01-27T11:40:19Z</time></trkpt>
   <trkpt lat="31.218281" lon="35.26096"><ele>324.2</ele><name>TP02616</name><time>2020-01-27T11:40:20Z</time></trkpt>
   <trkpt lat="31.218281" lon="35.26096"><ele>324.2</ele><name>TP02617</name><time>2020-01-27T11:40:22Z</time></trkpt>
   <trkpt lat="31.218281" lon="35.26096"><ele>324.2</ele><name>TP02618</name><time>2020-01-27T11:40:23Z</time></trkpt>
   <trkpt lat="31.218281" lon="35.26096"><ele>324.2</ele><name>TP02619</name><time>2020-01-27T11:40:25Z</time></trkpt>
   <trkpt lat="31.218282" lon="35.26096"><ele>324.2</ele><name>TP02620</name><time>2020-01-27T11:40:26Z</time></trkpt>
   <trkpt lat="31.218282" lon="35.26096"><ele>324.2</ele><name>TP02621</name><time>2020-01-27T11:40:28Z</time></trkpt>
   <trkpt lat="31.218282" lon="35.26096"><ele>324.2</ele><name>TP02622</name><time>2020-01-27T11:40:29Z</time></trkpt>
   <trkpt lat="31.218282" lon="35.260961"><ele>324.2</ele><name>TP02623</name><time>2020-01-27T11:40:31Z</time></trkpt>
   <trkpt lat="31.218282" lon="35.260961"><ele>324.2</ele><name>TP02624</name><time>2020-01-27T11:40:32Z</time></trkpt>
   <trkpt lat="31.218282" lon="35.260961"><ele>324.2</ele><name>TP02625</name><time>2020-01-27T11:40:33Z</time></trkpt>
   <trkpt lat="31.218282" lon="35.260962"><ele>324.2</ele><name>TP02626</name><time>2020-01-27T11:40:35Z</time></trkpt>
   <trkpt lat="31.218282" lon="35.260962"><ele>324.2</ele><name>TP02627</name><time>2020-01-27T11:40:36Z</time></trkpt>
   <trkpt lat="31.218282" lon="35.260962"><ele>324.2</ele><name>TP02628</name><time>2020-01-27T11:40:37Z</time></trkpt>
   <trkpt lat="31.218282" lon="35.260962"><ele>324.2</ele><name>TP02629</name><time>2020-01-27T11:40:38Z</time></trkpt>
   <trkpt lat="31.218281" lon="35.260962"><ele>324.2</ele><name>TP02630</name><time>2020-01-27T11:40:40Z</time></trkpt>
   <trkpt lat="31.218281" lon="35.260962"><ele>324.2</ele><name>TP02631</name><time>2020-01-27T11:40:41Z</time></trkpt>
   <trkpt lat="31.218281" lon="35.260961"><ele>324.2</ele><name>TP02632</name><time>2020-01-27T11:40:43Z</time></trkpt>
   <trkpt lat="31.21828" lon="35.260961"><ele>324.2</ele><name>TP02633</name><time>2020-01-27T11:40:44Z</time></trkpt>
   <trkpt lat="31.21828" lon="35.260961"><ele>324.2</ele><name>TP02634</name><time>2020-01-27T11:40:45Z</time></trkpt>
   <trkpt lat="31.21828" lon="35.26096"><ele>324.2</ele><name>TP02635</name><time>2020-01-27T11:40:47Z</time></trkpt>
   <trkpt lat="31.21828" lon="35.26096"><ele>324.2</ele><name>TP02636</name><time>2020-01-27T11:40:49Z</time></trkpt>
   <trkpt lat="31.218279" lon="35.26096"><ele>324.2</ele><name>TP02637</name><time>2020-01-27T11:40:50Z</time></trkpt>
   <trkpt lat="31.218279" lon="35.26096"><ele>324.2</ele><name>TP02638</name><time>2020-01-27T11:40:52Z</time></trkpt>
   <trkpt lat="31.21828" lon="35.26096"><ele>324.2</ele><name>TP02639</name><time>2020-01-27T11:40:54Z</time></trkpt>
   <trkpt lat="31.21828" lon="35.26096"><ele>324.2</ele><name>TP02640</name><time>2020-01-27T11:40:55Z</time></trkpt>
   <trkpt lat="31.218281" lon="35.260961"><ele>324.2</ele><name>TP02641</name><time>2020-01-27T11:40:57Z</time></trkpt>
   <trkpt lat="31.218281" lon="35.260961"><ele>324.2</ele><name>TP02642</name><time>2020-01-27T11:40:58Z</time></trkpt>
   <trkpt lat="31.218282" lon="35.260961"><ele>324.2</ele><name>TP02643</name><time>2020-01-27T11:41:00Z</time></trkpt>
   <trkpt lat="31.218282" lon="35.260961"><ele>324.2</ele><name>TP02644</name><time>2020-01-27T11:41:02Z</time></trkpt>
   <trkpt lat="31.218282" lon="35.260961"><ele>324.2</ele><name>TP02645</name><time>2020-01-27T11:41:04Z</time></trkpt>
   <trkpt lat="31.218282" lon="35.260961"><ele>324.2</ele><name>TP02646</name><time>2020-01-27T11:41:06Z</time></trkpt>
   <trkpt lat="31.218283" lon="35.26096"><ele>324.2</ele><name>TP02647</name><time>2020-01-27T11:41:08Z</time></trkpt>
   <trkpt lat="31.218283" lon="35.26096"><ele>324.2</ele><name>TP02648</name><time>2020-01-27T11:41:09Z</time></trkpt>
   <trkpt lat="31.218283" lon="35.26096"><ele>324.2</ele><name>TP02649</name><time>2020-01-27T11:41:11Z</time></trkpt>
   <trkpt lat="31.218283" lon="35.26096"><ele>324.2</ele><name>TP02650</name><time>2020-01-27T11:41:13Z</time></trkpt>
   <trkpt lat="31.218283" lon="35.26096"><ele>324.2</ele><name>TP02651</name><time>2020-01-27T11:41:14Z</time></trkpt>
   <trkpt lat="31.218283" lon="35.26096"><ele>324.2</ele><name>TP02652</name><time>2020-01-27T11:41:15Z</time></trkpt>
   <trkpt lat="31.218283" lon="35.26096"><ele>324.2</ele><name>TP02653</name><time>2020-01-27T11:41:17Z</time></trkpt>
   <trkpt lat="31.218283" lon="35.26096"><ele>324.2</ele><name>TP02654</name><time>2020-01-27T11:41:19Z</time></trkpt>
   <trkpt lat="31.218283" lon="35.26096"><ele>324.2</ele><name>TP02655</name><time>2020-01-27T11:41:20Z</time></trkpt>
   <trkpt lat="31.218283" lon="35.26096"><ele>324.2</ele><name>TP02656</name><time>2020-01-27T11:41:22Z</time></trkpt>
   <trkpt lat="31.218283" lon="35.26096"><ele>324.2</ele><name>TP02657</name><time>2020-01-27T11:41:24Z</time></trkpt>
   <trkpt lat="31.218283" lon="35.26096"><ele>324.2</ele><name>TP02658</name><time>2020-01-27T11:41:25Z</time></trkpt>
   <trkpt lat="31.218285" lon="35.260963"><ele>324.2</ele><name>TP02659</name><time>2020-01-27T11:41:27Z</time></trkpt>
   <trkpt lat="31.218287" lon="35.260969"><ele>324.3</ele><name>TP02660</name><time>2020-01-27T11:41:28Z</time></trkpt>
   <trkpt lat="31.218292" lon="35.260973"><ele>324.3</ele><name>TP02661</name><time>2020-01-27T11:41:30Z</time></trkpt>
   <trkpt lat="31.218292" lon="35.260971"><ele>324.3</ele><name>TP02662</name><time>2020-01-27T11:41:32Z</time></trkpt>
   <trkpt lat="31.218291" lon="35.26097"><ele>324.3</ele><name>TP02663</name><time>2020-01-27T11:41:33Z</time></trkpt>
   <trkpt lat="31.218293" lon="35.26097"><ele>324.3</ele><name>TP02664</name><time>2020-01-27T11:41:34Z</time></trkpt>
   <trkpt lat="31.218291" lon="35.260973"><ele>324.4</ele><name>TP02665</name><time>2020-01-27T11:41:36Z</time></trkpt>
   <trkpt lat="31.218283" lon="35.260976"><ele>324.4</ele><name>TP02666</name><time>2020-01-27T11:41:37Z</time></trkpt>
   <trkpt lat="31.218279" lon="35.260977"><ele>324.4</ele><name>TP02667</name><time>2020-01-27T11:41:39Z</time></trkpt>
   <trkpt lat="31.218276" lon="35.260977"><ele>324.5</ele><name>TP02668</name><time>2020-01-27T11:41:40Z</time></trkpt>
   <trkpt lat="31.218276" lon="35.260978"><ele>324.5</ele><name>TP02669</name><time>2020-01-27T11:41:41Z</time></trkpt>
   <trkpt lat="31.218275" lon="35.260979"><ele>324.5</ele><name>TP02670</name><time>2020-01-27T11:41:43Z</time></trkpt>
   <trkpt lat="31.218284" lon="35.260978"><ele>324.5</ele><name>TP02671</name><time>2020-01-27T11:41:44Z</time></trkpt>
   <trkpt lat="31.218283" lon="35.260979"><ele>324.5</ele><name>TP02672</name><time>2020-01-27T11:41:45Z</time></trkpt>
   <trkpt lat="31.218275" lon="35.260979"><ele>324.6</ele><name>TP02673</name><time>2020-01-27T11:41:47Z</time></trkpt>
   <trkpt lat="31.218266" lon="35.26098"><ele>324.6</ele><name>TP02674</name><time>2020-01-27T11:41:48Z</time></trkpt>
   <trkpt lat="31.218254" lon="35.260973"><ele>324.7</ele><name>TP02675</name><time>2020-01-27T11:41:49Z</time></trkpt>
   <trkpt lat="31.218231" lon="35.260965"><ele>324.8</ele><name>TP02676</name><time>2020-01-27T11:41:51Z</time></trkpt>
   <trkpt lat="31.218197" lon="35.260962"><ele>325</ele><name>TP02677</name><time>2020-01-27T11:41:53Z</time></trkpt>
   <trkpt lat="31.218188" lon="35.260959"><ele>325</ele><name>TP02678</name><time>2020-01-27T11:41:54Z</time></trkpt>
   <trkpt lat="31.218176" lon="35.260952"><ele>325.1</ele><name>TP02679</name><time>2020-01-27T11:41:55Z</time></trkpt>
   <trkpt lat="31.218156" lon="35.26095"><ele>325.2</ele><name>TP02680</name><time>2020-01-27T11:41:57Z</time></trkpt>
   <trkpt lat="31.218148" lon="35.260947"><ele>325.3</ele><name>TP02681</name><time>2020-01-27T11:41:58Z</time></trkpt>
   <trkpt lat="31.21814" lon="35.260944"><ele>325.3</ele><name>TP02682</name><time>2020-01-27T11:41:59Z</time></trkpt>
   <trkpt lat="31.218123" lon="35.260942"><ele>325.4</ele><name>TP02683</name><time>2020-01-27T11:42:01Z</time></trkpt>
   <trkpt lat="31.218113" lon="35.260944"><ele>325.4</ele><name>TP02684</name><time>2020-01-27T11:42:02Z</time></trkpt>
   <trkpt lat="31.218018" lon="35.260933"><ele>326</ele><name>TP02685</name><time>2020-01-27T11:42:04Z</time></trkpt>
   <trkpt lat="31.21799" lon="35.260918"><ele>326.2</ele><name>TP02686</name><time>2020-01-27T11:42:05Z</time></trkpt>
   <trkpt lat="31.217982" lon="35.260913"><ele>326.2</ele><name>TP02687</name><time>2020-01-27T11:42:06Z</time></trkpt>
   <trkpt lat="31.217953" lon="35.260907"><ele>326.4</ele><name>TP02688</name><time>2020-01-27T11:42:08Z</time></trkpt>
   <trkpt lat="31.217944" lon="35.260906"><ele>326.4</ele><name>TP02689</name><time>2020-01-27T11:42:09Z</time></trkpt>
   <trkpt lat="31.217925" lon="35.2609"><ele>326.5</ele><name>TP02690</name><time>2020-01-27T11:42:10Z</time></trkpt>
   <trkpt lat="31.2179" lon="35.260893"><ele>326.6</ele><name>TP02691</name><time>2020-01-27T11:42:12Z</time></trkpt>
   <trkpt lat="31.217875" lon="35.260889"><ele>326.7</ele><name>TP02692</name><time>2020-01-27T11:42:13Z</time></trkpt>
   <trkpt lat="31.217833" lon="35.260906"><ele>326.9</ele><name>TP02693</name><time>2020-01-27T11:42:15Z</time></trkpt>
   <trkpt lat="31.217816" lon="35.260905"><ele>326.9</ele><name>TP02694</name><time>2020-01-27T11:42:16Z</time></trkpt>
   <trkpt lat="31.217792" lon="35.260889"><ele>327</ele><name>TP02695</name><time>2020-01-27T11:42:18Z</time></trkpt>
   <trkpt lat="31.217764" lon="35.260881"><ele>327.1</ele><name>TP02696</name><time>2020-01-27T11:42:20Z</time></trkpt>
   <trkpt lat="31.217744" lon="35.260882"><ele>327.1</ele><name>TP02697</name><time>2020-01-27T11:42:21Z</time></trkpt>
   <trkpt lat="31.21768" lon="35.260854"><ele>327.2</ele><name>TP02698</name><time>2020-01-27T11:42:23Z</time></trkpt>
   <trkpt lat="31.217651" lon="35.260843"><ele>327.3</ele><name>TP02699</name><time>2020-01-27T11:42:24Z</time></trkpt>
   <trkpt lat="31.217601" lon="35.260829"><ele>327.3</ele><name>TP02700</name><time>2020-01-27T11:42:25Z</time></trkpt>
   <trkpt lat="31.217557" lon="35.260812"><ele>327.4</ele><name>TP02701</name><time>2020-01-27T11:42:27Z</time></trkpt>
   <trkpt lat="31.217513" lon="35.26079"><ele>327.5</ele><name>TP02702</name><time>2020-01-27T11:42:28Z</time></trkpt>
   <trkpt lat="31.217484" lon="35.260778"><ele>327.5</ele><name>TP02703</name><time>2020-01-27T11:42:29Z</time></trkpt>
   <trkpt lat="31.217459" lon="35.260761"><ele>327.5</ele><name>TP02704</name><time>2020-01-27T11:42:30Z</time></trkpt>
   <trkpt lat="31.217438" lon="35.260753"><ele>327.6</ele><name>TP02705</name><time>2020-01-27T11:42:31Z</time></trkpt>
   <trkpt lat="31.217409" lon="35.260742"><ele>327.6</ele><name>TP02706</name><time>2020-01-27T11:42:33Z</time></trkpt>
   <trkpt lat="31.217369" lon="35.260732"><ele>327.7</ele><name>TP02707</name><time>2020-01-27T11:42:34Z</time></trkpt>
   <trkpt lat="31.217353" lon="35.260728"><ele>327.7</ele><name>TP02708</name><time>2020-01-27T11:42:35Z</time></trkpt>
   <trkpt lat="31.21732" lon="35.260722"><ele>327.7</ele><name>TP02709</name><time>2020-01-27T11:42:36Z</time></trkpt>
   <trkpt lat="31.217308" lon="35.260723"><ele>327.8</ele><name>TP02710</name><time>2020-01-27T11:42:37Z</time></trkpt>
   <trkpt lat="31.217271" lon="35.260737"><ele>327.8</ele><name>TP02711</name><time>2020-01-27T11:42:39Z</time></trkpt>
   <trkpt lat="31.217258" lon="35.260744"><ele>327.8</ele><name>TP02712</name><time>2020-01-27T11:42:40Z</time></trkpt>
   <trkpt lat="31.217243" lon="35.26075"><ele>327.9</ele><name>TP02713</name><time>2020-01-27T11:42:41Z</time></trkpt>
   <trkpt lat="31.217212" lon="35.260765"><ele>328</ele><name>TP02714</name><time>2020-01-27T11:42:43Z</time></trkpt>
   <trkpt lat="31.217183" lon="35.260779"><ele>328.1</ele><name>TP02715</name><time>2020-01-27T11:42:45Z</time></trkpt>
   <trkpt lat="31.217156" lon="35.260789"><ele>328.2</ele><name>TP02716</name><time>2020-01-27T11:42:47Z</time></trkpt>
   <trkpt lat="31.217144" lon="35.260791"><ele>328.2</ele><name>TP02717</name><time>2020-01-27T11:42:48Z</time></trkpt>
   <trkpt lat="31.217109" lon="35.260805"><ele>328.4</ele><name>TP02718</name><time>2020-01-27T11:42:50Z</time></trkpt>
   <trkpt lat="31.217089" lon="35.260806"><ele>328.5</ele><name>TP02719</name><time>2020-01-27T11:42:51Z</time></trkpt>
   <trkpt lat="31.21706" lon="35.260805"><ele>328.6</ele><name>TP02720</name><time>2020-01-27T11:42:53Z</time></trkpt>
   <trkpt lat="31.217031" lon="35.260806"><ele>328.8</ele><name>TP02721</name><time>2020-01-27T11:42:54Z</time></trkpt>
   <trkpt lat="31.217021" lon="35.260806"><ele>328.8</ele><name>TP02722</name><time>2020-01-27T11:42:55Z</time></trkpt>
   <trkpt lat="31.216986" lon="35.260801"><ele>328.9</ele><name>TP02723</name><time>2020-01-27T11:42:57Z</time></trkpt>
   <trkpt lat="31.216945" lon="35.260793"><ele>329</ele><name>TP02724</name><time>2020-01-27T11:42:59Z</time></trkpt>
   <trkpt lat="31.216928" lon="35.26079"><ele>329.1</ele><name>TP02725</name><time>2020-01-27T11:43:00Z</time></trkpt>
   <trkpt lat="31.216913" lon="35.26078"><ele>329.2</ele><name>TP02726</name><time>2020-01-27T11:43:01Z</time></trkpt>
   <trkpt lat="31.216887" lon="35.260793"><ele>329.4</ele><name>TP02727</name><time>2020-01-27T11:43:03Z</time></trkpt>
   <trkpt lat="31.216868" lon="35.260817"><ele>329.6</ele><name>TP02728</name><time>2020-01-27T11:43:04Z</time></trkpt>
   <trkpt lat="31.216841" lon="35.260861"><ele>330</ele><name>TP02729</name><time>2020-01-27T11:43:06Z</time></trkpt>
   <trkpt lat="31.216834" lon="35.260874"><ele>330.1</ele><name>TP02730</name><time>2020-01-27T11:43:08Z</time></trkpt>
   <trkpt lat="31.216826" lon="35.260886"><ele>330.3</ele><name>TP02731</name><time>2020-01-27T11:43:09Z</time></trkpt>
   <trkpt lat="31.21681" lon="35.260913"><ele>330.6</ele><name>TP02732</name><time>2020-01-27T11:43:11Z</time></trkpt>
   <trkpt lat="31.216802" lon="35.260929"><ele>330.7</ele><name>TP02733</name><time>2020-01-27T11:43:13Z</time></trkpt>
   <trkpt lat="31.216792" lon="35.260937"><ele>330.9</ele><name>TP02734</name><time>2020-01-27T11:43:14Z</time></trkpt>
   <trkpt lat="31.216764" lon="35.26098"><ele>331.4</ele><name>TP02735</name><time>2020-01-27T11:43:16Z</time></trkpt>
   <trkpt lat="31.216755" lon="35.260992"><ele>331.5</ele><name>TP02736</name><time>2020-01-27T11:43:18Z</time></trkpt>
   <trkpt lat="31.216745" lon="35.261005"><ele>331.7</ele><name>TP02737</name><time>2020-01-27T11:43:19Z</time></trkpt>
   <trkpt lat="31.21673" lon="35.261031"><ele>332</ele><name>TP02738</name><time>2020-01-27T11:43:21Z</time></trkpt>
   <trkpt lat="31.216713" lon="35.261052"><ele>332.3</ele><name>TP02739</name><time>2020-01-27T11:43:23Z</time></trkpt>
   <trkpt lat="31.2167" lon="35.261071"><ele>332.5</ele><name>TP02740</name><time>2020-01-27T11:43:24Z</time></trkpt>
   <trkpt lat="31.216689" lon="35.261092"><ele>332.8</ele><name>TP02741</name><time>2020-01-27T11:43:26Z</time></trkpt>
   <trkpt lat="31.216683" lon="35.261119"><ele>333.1</ele><name>TP02742</name><time>2020-01-27T11:43:27Z</time></trkpt>
   <trkpt lat="31.216683" lon="35.261143"><ele>333.3</ele><name>TP02743</name><time>2020-01-27T11:43:29Z</time></trkpt>
   <trkpt lat="31.216686" lon="35.261173"><ele>333.7</ele><name>TP02744</name><time>2020-01-27T11:43:30Z</time></trkpt>
   <trkpt lat="31.216688" lon="35.261198"><ele>333.9</ele><name>TP02745</name><time>2020-01-27T11:43:32Z</time></trkpt>
   <trkpt lat="31.216694" lon="35.261227"><ele>334.3</ele><name>TP02746</name><time>2020-01-27T11:43:34Z</time></trkpt>
   <trkpt lat="31.216696" lon="35.261261"><ele>334.6</ele><name>TP02747</name><time>2020-01-27T11:43:36Z</time></trkpt>
   <trkpt lat="31.2167" lon="35.26128"><ele>334.8</ele><name>TP02748</name><time>2020-01-27T11:43:38Z</time></trkpt>
   <trkpt lat="31.216703" lon="35.261295"><ele>335</ele><name>TP02749</name><time>2020-01-27T11:43:39Z</time></trkpt>
   <trkpt lat="31.216707" lon="35.261312"><ele>335.2</ele><name>TP02750</name><time>2020-01-27T11:43:40Z</time></trkpt>
   <trkpt lat="31.216714" lon="35.261337"><ele>335.4</ele><name>TP02751</name><time>2020-01-27T11:43:42Z</time></trkpt>
   <trkpt lat="31.216721" lon="35.261359"><ele>335.7</ele><name>TP02752</name><time>2020-01-27T11:43:43Z</time></trkpt>
   <trkpt lat="31.21673" lon="35.261385"><ele>336</ele><name>TP02753</name><time>2020-01-27T11:43:45Z</time></trkpt>
   <trkpt lat="31.216734" lon="35.261402"><ele>336.2</ele><name>TP02754</name><time>2020-01-27T11:43:46Z</time></trkpt>
   <trkpt lat="31.216737" lon="35.26142"><ele>336.4</ele><name>TP02755</name><time>2020-01-27T11:43:47Z</time></trkpt>
   <trkpt lat="31.216742" lon="35.261437"><ele>336.6</ele><name>TP02756</name><time>2020-01-27T11:43:48Z</time></trkpt>
   <trkpt lat="31.21674" lon="35.26146"><ele>336.8</ele><name>TP02757</name><time>2020-01-27T11:43:50Z</time></trkpt>
   <trkpt lat="31.216735" lon="35.261486"><ele>337.1</ele><name>TP02758</name><time>2020-01-27T11:43:51Z</time></trkpt>
   <trkpt lat="31.216728" lon="35.261497"><ele>337.2</ele><name>TP02759</name><time>2020-01-27T11:43:52Z</time></trkpt>
   <trkpt lat="31.216712" lon="35.26153"><ele>337.6</ele><name>TP02760</name><time>2020-01-27T11:43:54Z</time></trkpt>
   <trkpt lat="31.216708" lon="35.261535"><ele>337.6</ele><name>TP02761</name><time>2020-01-27T11:43:55Z</time></trkpt>
   <trkpt lat="31.21669" lon="35.261567"><ele>338</ele><name>TP02762</name><time>2020-01-27T11:43:57Z</time></trkpt>
   <trkpt lat="31.216683" lon="35.261574"><ele>338.1</ele><name>TP02763</name><time>2020-01-27T11:43:58Z</time></trkpt>
   <trkpt lat="31.216666" lon="35.26159"><ele>338.2</ele><name>TP02764</name><time>2020-01-27T11:43:59Z</time></trkpt>
   <trkpt lat="31.216659" lon="35.261597"><ele>338.2</ele><name>TP02765</name><time>2020-01-27T11:44:01Z</time></trkpt>
   <trkpt lat="31.216651" lon="35.261603"><ele>338.2</ele><name>TP02766</name><time>2020-01-27T11:44:02Z</time></trkpt>
   <trkpt lat="31.216643" lon="35.261609"><ele>338.2</ele><name>TP02767</name><time>2020-01-27T11:44:04Z</time></trkpt>
   <trkpt lat="31.216636" lon="35.261616"><ele>338.3</ele><name>TP02768</name><time>2020-01-27T11:44:05Z</time></trkpt>
   <trkpt lat="31.216628" lon="35.261622"><ele>338.3</ele><name>TP02769</name><time>2020-01-27T11:44:06Z</time></trkpt>
   <trkpt lat="31.216609" lon="35.261638"><ele>338.4</ele><name>TP02770</name><time>2020-01-27T11:44:08Z</time></trkpt>
   <trkpt lat="31.216619" lon="35.261627"><ele>338.4</ele><name>TP02771</name><time>2020-01-27T11:44:10Z</time></trkpt>
   <trkpt lat="31.216622" lon="35.261624"><ele>338.4</ele><name>TP02772</name><time>2020-01-27T11:44:12Z</time></trkpt>
   <trkpt lat="31.216625" lon="35.261622"><ele>338.4</ele><name>TP02773</name><time>2020-01-27T11:44:14Z</time></trkpt>
   <trkpt lat="31.216625" lon="35.261621"><ele>338.4</ele><name>TP02774</name><time>2020-01-27T11:44:15Z</time></trkpt>
   <trkpt lat="31.216626" lon="35.261621"><ele>338.4</ele><name>TP02775</name><time>2020-01-27T11:44:18Z</time></trkpt>
   <trkpt lat="31.216621" lon="35.261628"><ele>338.5</ele><name>TP02776</name><time>2020-01-27T11:44:20Z</time></trkpt>
   <trkpt lat="31.216617" lon="35.261631"><ele>338.5</ele><name>TP02777</name><time>2020-01-27T11:44:22Z</time></trkpt>
   <trkpt lat="31.216617" lon="35.261633"><ele>338.5</ele><name>TP02778</name><time>2020-01-27T11:44:23Z</time></trkpt>
   <trkpt lat="31.216618" lon="35.261637"><ele>338.5</ele><name>TP02779</name><time>2020-01-27T11:44:25Z</time></trkpt>
   <trkpt lat="31.216618" lon="35.261637"><ele>338.5</ele><name>TP02780</name><time>2020-01-27T11:44:26Z</time></trkpt>
   <trkpt lat="31.216618" lon="35.261638"><ele>338.5</ele><name>TP02781</name><time>2020-01-27T11:44:28Z</time></trkpt>
   <trkpt lat="31.216618" lon="35.261637"><ele>338.5</ele><name>TP02782</name><time>2020-01-27T11:44:29Z</time></trkpt>
   <trkpt lat="31.216617" lon="35.261637"><ele>338.5</ele><name>TP02783</name><time>2020-01-27T11:44:31Z</time></trkpt>
   <trkpt lat="31.216617" lon="35.261637"><ele>338.5</ele><name>TP02784</name><time>2020-01-27T11:44:33Z</time></trkpt>
   <trkpt lat="31.216617" lon="35.261638"><ele>338.5</ele><name>TP02785</name><time>2020-01-27T11:44:34Z</time></trkpt>
   <trkpt lat="31.216616" lon="35.261638"><ele>338.5</ele><name>TP02786</name><time>2020-01-27T11:44:36Z</time></trkpt>
   <trkpt lat="31.216616" lon="35.261639"><ele>338.5</ele><name>TP02787</name><time>2020-01-27T11:44:37Z</time></trkpt>
   <trkpt lat="31.216609" lon="35.26166"><ele>338.5</ele><name>TP02788</name><time>2020-01-27T11:44:39Z</time></trkpt>
   <trkpt lat="31.216598" lon="35.261682"><ele>338.6</ele><name>TP02789</name><time>2020-01-27T11:44:40Z</time></trkpt>
   <trkpt lat="31.216591" lon="35.261702"><ele>338.6</ele><name>TP02790</name><time>2020-01-27T11:44:42Z</time></trkpt>
   <trkpt lat="31.216574" lon="35.261731"><ele>338.6</ele><name>TP02791</name><time>2020-01-27T11:44:43Z</time></trkpt>
   <trkpt lat="31.216555" lon="35.261762"><ele>338.6</ele><name>TP02792</name><time>2020-01-27T11:44:44Z</time></trkpt>
   <trkpt lat="31.216535" lon="35.261794"><ele>338.6</ele><name>TP02793</name><time>2020-01-27T11:44:45Z</time></trkpt>
   <trkpt lat="31.216517" lon="35.261824"><ele>338.6</ele><name>TP02794</name><time>2020-01-27T11:44:46Z</time></trkpt>
   <trkpt lat="31.21649" lon="35.261864"><ele>338.6</ele><name>TP02795</name><time>2020-01-27T11:44:47Z</time></trkpt>
   <trkpt lat="31.216478" lon="35.261879"><ele>338.6</ele><name>TP02796</name><time>2020-01-27T11:44:48Z</time></trkpt>
   <trkpt lat="31.216462" lon="35.261932"><ele>338.5</ele><name>TP02797</name><time>2020-01-27T11:44:50Z</time></trkpt>
   <trkpt lat="31.21646" lon="35.261986"><ele>338.4</ele><name>TP02798</name><time>2020-01-27T11:44:52Z</time></trkpt>
   <trkpt lat="31.216454" lon="35.262024"><ele>338.4</ele><name>TP02799</name><time>2020-01-27T11:44:53Z</time></trkpt>
   <trkpt lat="31.216436" lon="35.26209"><ele>338.2</ele><name>TP02800</name><time>2020-01-27T11:44:54Z</time></trkpt>
   <trkpt lat="31.216383" lon="35.262164"><ele>338</ele><name>TP02801</name><time>2020-01-27T11:44:57Z</time></trkpt>
   <trkpt lat="31.21635" lon="35.2622"><ele>337.8</ele><name>TP02802</name><time>2020-01-27T11:44:59Z</time></trkpt>
   <trkpt lat="31.216315" lon="35.262232"><ele>337.8</ele><name>TP02803</name><time>2020-01-27T11:45:02Z</time></trkpt>
   <trkpt lat="31.216286" lon="35.26226"><ele>337.7</ele><name>TP02804</name><time>2020-01-27T11:45:03Z</time></trkpt>
   <trkpt lat="31.216294" lon="35.262297"><ele>337.6</ele><name>TP02805</name><time>2020-01-27T11:45:04Z</time></trkpt>
   <trkpt lat="31.216322" lon="35.262313"><ele>337.6</ele><name>TP02806</name><time>2020-01-27T11:45:05Z</time></trkpt>
   <trkpt lat="31.216339" lon="35.262364"><ele>337.5</ele><name>TP02807</name><time>2020-01-27T11:45:07Z</time></trkpt>
   <trkpt lat="31.216338" lon="35.262383"><ele>337.5</ele><name>TP02808</name><time>2020-01-27T11:45:08Z</time></trkpt>
   <trkpt lat="31.216343" lon="35.262415"><ele>337.4</ele><name>TP02809</name><time>2020-01-27T11:45:10Z</time></trkpt>
   <trkpt lat="31.216325" lon="35.262499"><ele>337.3</ele><name>TP02810</name><time>2020-01-27T11:45:13Z</time></trkpt>
   <trkpt lat="31.216314" lon="35.262575"><ele>337.2</ele><name>TP02811</name><time>2020-01-27T11:45:16Z</time></trkpt>
   <trkpt lat="31.216312" lon="35.262599"><ele>337.1</ele><name>TP02812</name><time>2020-01-27T11:45:17Z</time></trkpt>
   <trkpt lat="31.216311" lon="35.262628"><ele>337.1</ele><name>TP02813</name><time>2020-01-27T11:45:18Z</time></trkpt>
   <trkpt lat="31.216304" lon="35.262687"><ele>337.1</ele><name>TP02814</name><time>2020-01-27T11:45:20Z</time></trkpt>
   <trkpt lat="31.2163" lon="35.262722"><ele>337.1</ele><name>TP02815</name><time>2020-01-27T11:45:21Z</time></trkpt>
   <trkpt lat="31.216298" lon="35.262759"><ele>337.1</ele><name>TP02816</name><time>2020-01-27T11:45:22Z</time></trkpt>
   <trkpt lat="31.216301" lon="35.262836"><ele>337.2</ele><name>TP02817</name><time>2020-01-27T11:45:24Z</time></trkpt>
   <trkpt lat="31.216297" lon="35.262868"><ele>337.2</ele><name>TP02818</name><time>2020-01-27T11:45:25Z</time></trkpt>
   <trkpt lat="31.216294" lon="35.262948"><ele>337.3</ele><name>TP02819</name><time>2020-01-27T11:45:28Z</time></trkpt>
   <trkpt lat="31.216306" lon="35.263004"><ele>337.4</ele><name>TP02820</name><time>2020-01-27T11:45:29Z</time></trkpt>
   <trkpt lat="31.216278" lon="35.263085"><ele>337.5</ele><name>TP02821</name><time>2020-01-27T11:45:32Z</time></trkpt>
   <trkpt lat="31.216256" lon="35.263106"><ele>337.6</ele><name>TP02822</name><time>2020-01-27T11:45:33Z</time></trkpt>
   <trkpt lat="31.216218" lon="35.263201"><ele>337.6</ele><name>TP02823</name><time>2020-01-27T11:45:36Z</time></trkpt>
   <trkpt lat="31.2162" lon="35.263245"><ele>337.6</ele><name>TP02824</name><time>2020-01-27T11:45:37Z</time></trkpt>
   <trkpt lat="31.216152" lon="35.263363"><ele>337.7</ele><name>TP02825</name><time>2020-01-27T11:45:40Z</time></trkpt>
   <trkpt lat="31.216143" lon="35.263426"><ele>337.7</ele><name>TP02826</name><time>2020-01-27T11:45:43Z</time></trkpt>
   <trkpt lat="31.216138" lon="35.263486"><ele>337.7</ele><name>TP02827</name><time>2020-01-27T11:45:44Z</time></trkpt>
   <trkpt lat="31.216125" lon="35.263546"><ele>337.7</ele><name>TP02828</name><time>2020-01-27T11:45:45Z</time></trkpt>
   <trkpt lat="31.216118" lon="35.263647"><ele>337.7</ele><name>TP02829</name><time>2020-01-27T11:45:46Z</time></trkpt>
   <trkpt lat="31.216122" lon="35.263684"><ele>337.7</ele><name>TP02830</name><time>2020-01-27T11:45:47Z</time></trkpt>
   <trkpt lat="31.216125" lon="35.263727"><ele>337.6</ele><name>TP02831</name><time>2020-01-27T11:45:50Z</time></trkpt>
   <trkpt lat="31.216124" lon="35.263762"><ele>337.6</ele><name>TP02832</name><time>2020-01-27T11:45:51Z</time></trkpt>
   <trkpt lat="31.216104" lon="35.263829"><ele>337.5</ele><name>TP02833</name><time>2020-01-27T11:45:52Z</time></trkpt>
   <trkpt lat="31.216085" lon="35.263868"><ele>337.5</ele><name>TP02834</name><time>2020-01-27T11:45:55Z</time></trkpt>
   <trkpt lat="31.216071" lon="35.263904"><ele>337.4</ele><name>TP02835</name><time>2020-01-27T11:45:56Z</time></trkpt>
   <trkpt lat="31.21605" lon="35.264001"><ele>337.2</ele><name>TP02836</name><time>2020-01-27T11:45:57Z</time></trkpt>
   <trkpt lat="31.216003" lon="35.264098"><ele>337</ele><name>TP02837</name><time>2020-01-27T11:46:00Z</time></trkpt>
   <trkpt lat="31.215972" lon="35.264124"><ele>336.9</ele><name>TP02838</name><time>2020-01-27T11:46:01Z</time></trkpt>
   <trkpt lat="31.21594" lon="35.264152"><ele>336.8</ele><name>TP02839</name><time>2020-01-27T11:46:02Z</time></trkpt>
   <trkpt lat="31.215917" lon="35.264177"><ele>336.7</ele><name>TP02840</name><time>2020-01-27T11:46:03Z</time></trkpt>
   <trkpt lat="31.215914" lon="35.264256"><ele>336.6</ele><name>TP02841</name><time>2020-01-27T11:46:06Z</time></trkpt>
   <trkpt lat="31.215915" lon="35.264294"><ele>336.5</ele><name>TP02842</name><time>2020-01-27T11:46:07Z</time></trkpt>
   <trkpt lat="31.21591" lon="35.264309"><ele>336.4</ele><name>TP02843</name><time>2020-01-27T11:46:08Z</time></trkpt>
   <trkpt lat="31.215892" lon="35.264356"><ele>336.3</ele><name>TP02844</name><time>2020-01-27T11:46:11Z</time></trkpt>
   <trkpt lat="31.215882" lon="35.264376"><ele>336.3</ele><name>TP02845</name><time>2020-01-27T11:46:12Z</time></trkpt>
   <trkpt lat="31.215898" lon="35.264421"><ele>336.2</ele><name>TP02846</name><time>2020-01-27T11:46:15Z</time></trkpt>
   <trkpt lat="31.21591" lon="35.264438"><ele>336.1</ele><name>TP02847</name><time>2020-01-27T11:46:16Z</time></trkpt>
   <trkpt lat="31.215931" lon="35.264443"><ele>336</ele><name>TP02848</name><time>2020-01-27T11:46:17Z</time></trkpt>
   <trkpt lat="31.215963" lon="35.264465"><ele>335.9</ele><name>TP02849</name><time>2020-01-27T11:46:20Z</time></trkpt>
   <trkpt lat="31.215971" lon="35.26448"><ele>335.9</ele><name>TP02850</name><time>2020-01-27T11:46:21Z</time></trkpt>
   <trkpt lat="31.215983" lon="35.264565"><ele>335.6</ele><name>TP02851</name><time>2020-01-27T11:46:22Z</time></trkpt>
   <trkpt lat="31.215982" lon="35.264629"><ele>335.4</ele><name>TP02852</name><time>2020-01-27T11:46:25Z</time></trkpt>
   <trkpt lat="31.215986" lon="35.264663"><ele>335.1</ele><name>TP02853</name><time>2020-01-27T11:46:26Z</time></trkpt>
   <trkpt lat="31.216003" lon="35.264724"><ele>334.7</ele><name>TP02854</name><time>2020-01-27T11:46:27Z</time></trkpt>
   <trkpt lat="31.216011" lon="35.264771"><ele>334.3</ele><name>TP02855</name><time>2020-01-27T11:46:28Z</time></trkpt>
   <trkpt lat="31.216007" lon="35.264794"><ele>334.1</ele><name>TP02856</name><time>2020-01-27T11:46:31Z</time></trkpt>
   <trkpt lat="31.216004" lon="35.264816"><ele>333.9</ele><name>TP02857</name><time>2020-01-27T11:46:32Z</time></trkpt>
   <trkpt lat="31.216" lon="35.264839"><ele>333.6</ele><name>TP02858</name><time>2020-01-27T11:46:33Z</time></trkpt>
   <trkpt lat="31.21599" lon="35.264903"><ele>333</ele><name>TP02859</name><time>2020-01-27T11:46:36Z</time></trkpt>
   <trkpt lat="31.215971" lon="35.264993"><ele>331.9</ele><name>TP02860</name><time>2020-01-27T11:46:37Z</time></trkpt>
   <trkpt lat="31.215966" lon="35.26505"><ele>331.2</ele><name>TP02861</name><time>2020-01-27T11:46:40Z</time></trkpt>
   <trkpt lat="31.215957" lon="35.265104"><ele>330.5</ele><name>TP02862</name><time>2020-01-27T11:46:41Z</time></trkpt>
   <trkpt lat="31.21594" lon="35.265154"><ele>329.9</ele><name>TP02863</name><time>2020-01-27T11:46:43Z</time></trkpt>
   <trkpt lat="31.21588" lon="35.265221"><ele>328.8</ele><name>TP02864</name><time>2020-01-27T11:46:44Z</time></trkpt>
   <trkpt lat="31.215822" lon="35.265278"><ele>327.6</ele><name>TP02865</name><time>2020-01-27T11:46:47Z</time></trkpt>
   <trkpt lat="31.215772" lon="35.265386"><ele>326</ele><name>TP02866</name><time>2020-01-27T11:46:48Z</time></trkpt>
   <trkpt lat="31.215762" lon="35.265463"><ele>325.1</ele><name>TP02867</name><time>2020-01-27T11:46:51Z</time></trkpt>
   <trkpt lat="31.215719" lon="35.265535"><ele>324.2</ele><name>TP02868</name><time>2020-01-27T11:46:52Z</time></trkpt>
   <trkpt lat="31.215653" lon="35.265567"><ele>323.5</ele><name>TP02869</name><time>2020-01-27T11:46:55Z</time></trkpt>
   <trkpt lat="31.215578" lon="35.265658"><ele>322.5</ele><name>TP02870</name><time>2020-01-27T11:46:56Z</time></trkpt>
   <trkpt lat="31.215556" lon="35.265702"><ele>322.2</ele><name>TP02871</name><time>2020-01-27T11:46:57Z</time></trkpt>
   <trkpt lat="31.215452" lon="35.265804"><ele>321.1</ele><name>TP02872</name><time>2020-01-27T11:46:59Z</time></trkpt>
   <trkpt lat="31.215354" lon="35.265916"><ele>319.8</ele><name>TP02873</name><time>2020-01-27T11:47:01Z</time></trkpt>
   <trkpt lat="31.215294" lon="35.265974"><ele>319.2</ele><name>TP02874</name><time>2020-01-27T11:47:02Z</time></trkpt>
   <trkpt lat="31.21517" lon="35.266066"><ele>317.6</ele><name>TP02875</name><time>2020-01-27T11:47:04Z</time></trkpt>
   <trkpt lat="31.215049" lon="35.266129"><ele>316.1</ele><name>TP02876</name><time>2020-01-27T11:47:05Z</time></trkpt>
   <trkpt lat="31.215001" lon="35.266147"><ele>315.4</ele><name>TP02877</name><time>2020-01-27T11:47:06Z</time></trkpt>
   <trkpt lat="31.214978" lon="35.266157"><ele>315.1</ele><name>TP02878</name><time>2020-01-27T11:47:07Z</time></trkpt>
   <trkpt lat="31.214894" lon="35.266207"><ele>313.5</ele><name>TP02879</name><time>2020-01-27T11:47:09Z</time></trkpt>
   <trkpt lat="31.21488" lon="35.26624"><ele>313.2</ele><name>TP02880</name><time>2020-01-27T11:47:10Z</time></trkpt>
   <trkpt lat="31.214861" lon="35.26632"><ele>312.4</ele><name>TP02881</name><time>2020-01-27T11:47:13Z</time></trkpt>
   <trkpt lat="31.214853" lon="35.266355"><ele>312.1</ele><name>TP02882</name><time>2020-01-27T11:47:14Z</time></trkpt>
   <trkpt lat="31.21483" lon="35.266422"><ele>311.5</ele><name>TP02883</name><time>2020-01-27T11:47:16Z</time></trkpt>
   <trkpt lat="31.214773" lon="35.266503"><ele>310.6</ele><name>TP02884</name><time>2020-01-27T11:47:19Z</time></trkpt>
   <trkpt lat="31.214745" lon="35.266521"><ele>310.2</ele><name>TP02885</name><time>2020-01-27T11:47:20Z</time></trkpt>
   <trkpt lat="31.214671" lon="35.266574"><ele>309.3</ele><name>TP02886</name><time>2020-01-27T11:47:23Z</time></trkpt>
   <trkpt lat="31.214635" lon="35.2666"><ele>309</ele><name>TP02887</name><time>2020-01-27T11:47:24Z</time></trkpt>
   <trkpt lat="31.214588" lon="35.266618"><ele>308.7</ele><name>TP02888</name><time>2020-01-27T11:47:27Z</time></trkpt>
   <trkpt lat="31.214548" lon="35.266638"><ele>308.4</ele><name>TP02889</name><time>2020-01-27T11:47:28Z</time></trkpt>
   <trkpt lat="31.214516" lon="35.266715"><ele>307.8</ele><name>TP02890</name><time>2020-01-27T11:47:29Z</time></trkpt>
   <trkpt lat="31.214478" lon="35.266765"><ele>307.3</ele><name>TP02891</name><time>2020-01-27T11:47:30Z</time></trkpt>
   <trkpt lat="31.214383" lon="35.266832"><ele>306.4</ele><name>TP02892</name><time>2020-01-27T11:47:32Z</time></trkpt>
   <trkpt lat="31.214332" lon="35.266855"><ele>306</ele><name>TP02893</name><time>2020-01-27T11:47:33Z</time></trkpt>
   <trkpt lat="31.21429" lon="35.266894"><ele>305.6</ele><name>TP02894</name><time>2020-01-27T11:47:34Z</time></trkpt>
   <trkpt lat="31.214245" lon="35.266947"><ele>305.2</ele><name>TP02895</name><time>2020-01-27T11:47:37Z</time></trkpt>
   <trkpt lat="31.214197" lon="35.267041"><ele>304.5</ele><name>TP02896</name><time>2020-01-27T11:47:38Z</time></trkpt>
   <trkpt lat="31.21415" lon="35.26711"><ele>303.5</ele><name>TP02897</name><time>2020-01-27T11:47:40Z</time></trkpt>
   <trkpt lat="31.214127" lon="35.267131"><ele>303</ele><name>TP02898</name><time>2020-01-27T11:47:41Z</time></trkpt>
   <trkpt lat="31.214105" lon="35.267145"><ele>302.6</ele><name>TP02899</name><time>2020-01-27T11:47:42Z</time></trkpt>
   <trkpt lat="31.21409" lon="35.267186"><ele>302.1</ele><name>TP02900</name><time>2020-01-27T11:47:45Z</time></trkpt>
   <trkpt lat="31.214073" lon="35.267199"><ele>301.8</ele><name>TP02901</name><time>2020-01-27T11:47:46Z</time></trkpt>
   <trkpt lat="31.214045" lon="35.267202"><ele>301.4</ele><name>TP02902</name><time>2020-01-27T11:47:48Z</time></trkpt>
   <trkpt lat="31.213979" lon="35.267213"><ele>300.5</ele><name>TP02903</name><time>2020-01-27T11:47:49Z</time></trkpt>
   <trkpt lat="31.213949" lon="35.26725"><ele>299.5</ele><name>TP02904</name><time>2020-01-27T11:47:52Z</time></trkpt>
   <trkpt lat="31.213907" lon="35.267291"><ele>297.9</ele><name>TP02905</name><time>2020-01-27T11:47:54Z</time></trkpt>
   <trkpt lat="31.213868" lon="35.267273"><ele>297.6</ele><name>TP02906</name><time>2020-01-27T11:47:55Z</time></trkpt>
   <trkpt lat="31.213849" lon="35.267254"><ele>297.5</ele><name>TP02907</name><time>2020-01-27T11:47:56Z</time></trkpt>
   <trkpt lat="31.21384" lon="35.267235"><ele>297.4</ele><name>TP02908</name><time>2020-01-27T11:47:57Z</time></trkpt>
   <trkpt lat="31.213806" lon="35.267209"><ele>297.1</ele><name>TP02909</name><time>2020-01-27T11:47:58Z</time></trkpt>
   <trkpt lat="31.213782" lon="35.267192"><ele>296.9</ele><name>TP02910</name><time>2020-01-27T11:48:01Z</time></trkpt>
   <trkpt lat="31.213757" lon="35.267174"><ele>296.8</ele><name>TP02911</name><time>2020-01-27T11:48:04Z</time></trkpt>
   <trkpt lat="31.213733" lon="35.267157"><ele>296.7</ele><name>TP02912</name><time>2020-01-27T11:48:05Z</time></trkpt>
   <trkpt lat="31.213708" lon="35.26714"><ele>296.7</ele><name>TP02913</name><time>2020-01-27T11:48:06Z</time></trkpt>
   <trkpt lat="31.213693" lon="35.267128"><ele>296.6</ele><name>TP02914</name><time>2020-01-27T11:48:07Z</time></trkpt>
   <trkpt lat="31.213656" lon="35.267115"><ele>296.5</ele><name>TP02915</name><time>2020-01-27T11:48:10Z</time></trkpt>
   <trkpt lat="31.213637" lon="35.267114"><ele>296.4</ele><name>TP02916</name><time>2020-01-27T11:48:11Z</time></trkpt>
   <trkpt lat="31.213624" lon="35.267111"><ele>296.4</ele><name>TP02917</name><time>2020-01-27T11:48:12Z</time></trkpt>
   <trkpt lat="31.213571" lon="35.2671"><ele>296.3</ele><name>TP02918</name><time>2020-01-27T11:48:14Z</time></trkpt>
   <trkpt lat="31.213547" lon="35.267094"><ele>296.3</ele><name>TP02919</name><time>2020-01-27T11:48:17Z</time></trkpt>
   <trkpt lat="31.213523" lon="35.267089"><ele>296.3</ele><name>TP02920</name><time>2020-01-27T11:48:18Z</time></trkpt>
   <trkpt lat="31.213507" lon="35.267086"><ele>296.3</ele><name>TP02921</name><time>2020-01-27T11:48:19Z</time></trkpt>
   <trkpt lat="31.213478" lon="35.267076"><ele>296.3</ele><name>TP02922</name><time>2020-01-27T11:48:22Z</time></trkpt>
   <trkpt lat="31.213468" lon="35.267073"><ele>296.3</ele><name>TP02923</name><time>2020-01-27T11:48:23Z</time></trkpt>
   <trkpt lat="31.213408" lon="35.267071"><ele>296.4</ele><name>TP02924</name><time>2020-01-27T11:48:25Z</time></trkpt>
   <trkpt lat="31.213387" lon="35.267072"><ele>296.4</ele><name>TP02925</name><time>2020-01-27T11:48:26Z</time></trkpt>
   <trkpt lat="31.21336" lon="35.267082"><ele>296.4</ele><name>TP02926</name><time>2020-01-27T11:48:29Z</time></trkpt>
   <trkpt lat="31.213321" lon="35.267086"><ele>296.5</ele><name>TP02927</name><time>2020-01-27T11:48:31Z</time></trkpt>
   <trkpt lat="31.213283" lon="35.267092"><ele>296.5</ele><name>TP02928</name><time>2020-01-27T11:48:32Z</time></trkpt>
   <trkpt lat="31.21327" lon="35.267096"><ele>296.5</ele><name>TP02929</name><time>2020-01-27T11:48:33Z</time></trkpt>
   <trkpt lat="31.213222" lon="35.267109"><ele>296.4</ele><name>TP02930</name><time>2020-01-27T11:48:34Z</time></trkpt>
   <trkpt lat="31.2132" lon="35.267116"><ele>296.4</ele><name>TP02931</name><time>2020-01-27T11:48:35Z</time></trkpt>
   <trkpt lat="31.213141" lon="35.267143"><ele>296.3</ele><name>TP02932</name><time>2020-01-27T11:48:38Z</time></trkpt>
   <trkpt lat="31.213102" lon="35.267155"><ele>296.2</ele><name>TP02933</name><time>2020-01-27T11:48:39Z</time></trkpt>
   <trkpt lat="31.213064" lon="35.267156"><ele>296</ele><name>TP02934</name><time>2020-01-27T11:48:41Z</time></trkpt>
   <trkpt lat="31.212913" lon="35.267171"><ele>295.1</ele><name>TP02935</name><time>2020-01-27T11:48:43Z</time></trkpt>
   <trkpt lat="31.212862" lon="35.267167"><ele>294.8</ele><name>TP02936</name><time>2020-01-27T11:48:44Z</time></trkpt>
   <trkpt lat="31.212816" lon="35.267165"><ele>294.4</ele><name>TP02937</name><time>2020-01-27T11:48:45Z</time></trkpt>
   <trkpt lat="31.212679" lon="35.267169"><ele>293.6</ele><name>TP02938</name><time>2020-01-27T11:48:48Z</time></trkpt>
   <trkpt lat="31.212576" lon="35.267177"><ele>293.1</ele><name>TP02939</name><time>2020-01-27T11:48:50Z</time></trkpt>
   <trkpt lat="31.212523" lon="35.26718"><ele>292.8</ele><name>TP02940</name><time>2020-01-27T11:48:51Z</time></trkpt>
   <trkpt lat="31.21242" lon="35.267193"><ele>292</ele><name>TP02941</name><time>2020-01-27T11:48:53Z</time></trkpt>
   <trkpt lat="31.212361" lon="35.2672"><ele>291.6</ele><name>TP02942</name><time>2020-01-27T11:48:54Z</time></trkpt>
   <trkpt lat="31.212309" lon="35.267205"><ele>291.2</ele><name>TP02943</name><time>2020-01-27T11:48:55Z</time></trkpt>
   <trkpt lat="31.212223" lon="35.267233"><ele>290.7</ele><name>TP02944</name><time>2020-01-27T11:48:57Z</time></trkpt>
   <trkpt lat="31.212177" lon="35.267252"><ele>290.4</ele><name>TP02945</name><time>2020-01-27T11:48:58Z</time></trkpt>
   <trkpt lat="31.212129" lon="35.267274"><ele>290.2</ele><name>TP02946</name><time>2020-01-27T11:48:59Z</time></trkpt>
   <trkpt lat="31.212075" lon="35.267297"><ele>289.9</ele><name>TP02947</name><time>2020-01-27T11:49:00Z</time></trkpt>
   <trkpt lat="31.211963" lon="35.267336"><ele>289.3</ele><name>TP02948</name><time>2020-01-27T11:49:02Z</time></trkpt>
   <trkpt lat="31.211908" lon="35.267344"><ele>288.9</ele><name>TP02949</name><time>2020-01-27T11:49:03Z</time></trkpt>
   <trkpt lat="31.21178" lon="35.267361"><ele>288.2</ele><name>TP02950</name><time>2020-01-27T11:49:05Z</time></trkpt>
   <trkpt lat="31.211655" lon="35.267383"><ele>287.6</ele><name>TP02951</name><time>2020-01-27T11:49:07Z</time></trkpt>
   <trkpt lat="31.211569" lon="35.26742"><ele>287.5</ele><name>TP02952</name><time>2020-01-27T11:49:09Z</time></trkpt>
   <trkpt lat="31.211548" lon="35.267443"><ele>287.4</ele><name>TP02953</name><time>2020-01-27T11:49:10Z</time></trkpt>
   <trkpt lat="31.211535" lon="35.267471"><ele>287.4</ele><name>TP02954</name><time>2020-01-27T11:49:11Z</time></trkpt>
   <trkpt lat="31.211504" lon="35.267505"><ele>287.4</ele><name>TP02955</name><time>2020-01-27T11:49:13Z</time></trkpt>
   <trkpt lat="31.21147" lon="35.26752"><ele>287.3</ele><name>TP02956</name><time>2020-01-27T11:49:15Z</time></trkpt>
   <trkpt lat="31.211419" lon="35.267546"><ele>287.3</ele><name>TP02957</name><time>2020-01-27T11:49:16Z</time></trkpt>
   <trkpt lat="31.211391" lon="35.267558"><ele>287.3</ele><name>TP02958</name><time>2020-01-27T11:49:19Z</time></trkpt>
   <trkpt lat="31.211362" lon="35.267571"><ele>287.3</ele><name>TP02959</name><time>2020-01-27T11:49:20Z</time></trkpt>
   <trkpt lat="31.211299" lon="35.267598"><ele>287.2</ele><name>TP02960</name><time>2020-01-27T11:49:23Z</time></trkpt>
   <trkpt lat="31.211271" lon="35.26762"><ele>287.1</ele><name>TP02961</name><time>2020-01-27T11:49:24Z</time></trkpt>
   <trkpt lat="31.211223" lon="35.267653"><ele>287</ele><name>TP02962</name><time>2020-01-27T11:49:25Z</time></trkpt>
   <trkpt lat="31.211175" lon="35.267725"><ele>286.9</ele><name>TP02963</name><time>2020-01-27T11:49:28Z</time></trkpt>
   <trkpt lat="31.211162" lon="35.267767"><ele>286.8</ele><name>TP02964</name><time>2020-01-27T11:49:31Z</time></trkpt>
   <trkpt lat="31.211157" lon="35.267804"><ele>286.7</ele><name>TP02965</name><time>2020-01-27T11:49:32Z</time></trkpt>
   <trkpt lat="31.211153" lon="35.267848"><ele>286.5</ele><name>TP02966</name><time>2020-01-27T11:49:33Z</time></trkpt>
   <trkpt lat="31.211168" lon="35.267872"><ele>286.4</ele><name>TP02967</name><time>2020-01-27T11:49:34Z</time></trkpt>
   <trkpt lat="31.211225" lon="35.267946"><ele>286</ele><name>TP02968</name><time>2020-01-27T11:49:36Z</time></trkpt>
   <trkpt lat="31.21125" lon="35.268003"><ele>285.8</ele><name>TP02969</name><time>2020-01-27T11:49:37Z</time></trkpt>
   <trkpt lat="31.211287" lon="35.268148"><ele>285.1</ele><name>TP02970</name><time>2020-01-27T11:49:39Z</time></trkpt>
   <trkpt lat="31.211307" lon="35.26832"><ele>284.2</ele><name>TP02971</name><time>2020-01-27T11:49:41Z</time></trkpt>
   <trkpt lat="31.211331" lon="35.268378"><ele>284</ele><name>TP02972</name><time>2020-01-27T11:49:42Z</time></trkpt>
   <trkpt lat="31.211357" lon="35.268431"><ele>284</ele><name>TP02973</name><time>2020-01-27T11:49:43Z</time></trkpt>
   <trkpt lat="31.211365" lon="35.268467"><ele>283.9</ele><name>TP02974</name><time>2020-01-27T11:49:46Z</time></trkpt>
   <trkpt lat="31.211371" lon="35.268488"><ele>283.9</ele><name>TP02975</name><time>2020-01-27T11:49:47Z</time></trkpt>
   <trkpt lat="31.211395" lon="35.268585"><ele>283.9</ele><name>TP02976</name><time>2020-01-27T11:49:48Z</time></trkpt>
   <trkpt lat="31.211401" lon="35.268627"><ele>284</ele><name>TP02977</name><time>2020-01-27T11:49:51Z</time></trkpt>
   <trkpt lat="31.211405" lon="35.26866"><ele>284</ele><name>TP02978</name><time>2020-01-27T11:49:52Z</time></trkpt>
   <trkpt lat="31.211414" lon="35.268753"><ele>283.9</ele><name>TP02979</name><time>2020-01-27T11:49:53Z</time></trkpt>
   <trkpt lat="31.211425" lon="35.26884"><ele>283.9</ele><name>TP02980</name><time>2020-01-27T11:49:55Z</time></trkpt>
   <trkpt lat="31.211432" lon="35.268937"><ele>283.8</ele><name>TP02981</name><time>2020-01-27T11:49:58Z</time></trkpt>
   <trkpt lat="31.211434" lon="35.268986"><ele>283.7</ele><name>TP02982</name><time>2020-01-27T11:49:59Z</time></trkpt>
   <trkpt lat="31.211414" lon="35.269073"><ele>283.5</ele><name>TP02983</name><time>2020-01-27T11:50:02Z</time></trkpt>
   <trkpt lat="31.211396" lon="35.269111"><ele>283.3</ele><name>TP02984</name><time>2020-01-27T11:50:03Z</time></trkpt>
   <trkpt lat="31.211378" lon="35.269129"><ele>283.1</ele><name>TP02985</name><time>2020-01-27T11:50:04Z</time></trkpt>
   <trkpt lat="31.211349" lon="35.269154"><ele>282.9</ele><name>TP02986</name><time>2020-01-27T11:50:07Z</time></trkpt>
   <trkpt lat="31.211317" lon="35.269173"><ele>282.6</ele><name>TP02987</name><time>2020-01-27T11:50:08Z</time></trkpt>
   <trkpt lat="31.211188" lon="35.269208"><ele>281.5</ele><name>TP02988</name><time>2020-01-27T11:50:09Z</time></trkpt>
   <trkpt lat="31.211075" lon="35.269219"><ele>280.4</ele><name>TP02989</name><time>2020-01-27T11:50:11Z</time></trkpt>
   <trkpt lat="31.211024" lon="35.269227"><ele>279.9</ele><name>TP02990</name><time>2020-01-27T11:50:12Z</time></trkpt>
   <trkpt lat="31.210925" lon="35.269234"><ele>278.7</ele><name>TP02991</name><time>2020-01-27T11:50:14Z</time></trkpt>
   <trkpt lat="31.210842" lon="35.269219"><ele>277.8</ele><name>TP02992</name><time>2020-01-27T11:50:17Z</time></trkpt>
   <trkpt lat="31.210803" lon="35.269216"><ele>277.5</ele><name>TP02993</name><time>2020-01-27T11:50:18Z</time></trkpt>
   <trkpt lat="31.210775" lon="35.269231"><ele>277.2</ele><name>TP02994</name><time>2020-01-27T11:50:20Z</time></trkpt>
   <trkpt lat="31.210767" lon="35.269243"><ele>277.1</ele><name>TP02995</name><time>2020-01-27T11:50:21Z</time></trkpt>
   <trkpt lat="31.210758" lon="35.269247"><ele>277</ele><name>TP02996</name><time>2020-01-27T11:50:23Z</time></trkpt>
   <trkpt lat="31.210749" lon="35.269246"><ele>276.9</ele><name>TP02997</name><time>2020-01-27T11:50:24Z</time></trkpt>
   <trkpt lat="31.210731" lon="35.269249"><ele>276.7</ele><name>TP02998</name><time>2020-01-27T11:50:25Z</time></trkpt>
   <trkpt lat="31.210698" lon="35.269254"><ele>276.4</ele><name>TP02999</name><time>2020-01-27T11:50:28Z</time></trkpt>
   <trkpt lat="31.210666" lon="35.269245"><ele>276.2</ele><name>TP03000</name><time>2020-01-27T11:50:29Z</time></trkpt>
   <trkpt lat="31.210619" lon="35.269249"><ele>275.8</ele><name>TP03001</name><time>2020-01-27T11:50:30Z</time></trkpt>
   <trkpt lat="31.21056" lon="35.269308"><ele>275.2</ele><name>TP03002</name><time>2020-01-27T11:50:31Z</time></trkpt>
   <trkpt lat="31.210542" lon="35.269327"><ele>275</ele><name>TP03003</name><time>2020-01-27T11:50:33Z</time></trkpt>
   <trkpt lat="31.210466" lon="35.269395"><ele>274.2</ele><name>TP03004</name><time>2020-01-27T11:50:36Z</time></trkpt>
   <trkpt lat="31.210418" lon="35.26943"><ele>273.9</ele><name>TP03005</name><time>2020-01-27T11:50:37Z</time></trkpt>
   <trkpt lat="31.210382" lon="35.269431"><ele>273.7</ele><name>TP03006</name><time>2020-01-27T11:50:38Z</time></trkpt>
   <trkpt lat="31.21037" lon="35.269413"><ele>273.6</ele><name>TP03007</name><time>2020-01-27T11:50:39Z</time></trkpt>
   <trkpt lat="31.210362" lon="35.269396"><ele>273.5</ele><name>TP03008</name><time>2020-01-27T11:50:40Z</time></trkpt>
   <trkpt lat="31.210352" lon="35.269371"><ele>273.3</ele><name>TP03009</name><time>2020-01-27T11:50:42Z</time></trkpt>
   <trkpt lat="31.210346" lon="35.269356"><ele>273.2</ele><name>TP03010</name><time>2020-01-27T11:50:44Z</time></trkpt>
   <trkpt lat="31.210342" lon="35.26935"><ele>273.1</ele><name>TP03011</name><time>2020-01-27T11:50:45Z</time></trkpt>
   <trkpt lat="31.210333" lon="35.269348"><ele>273.1</ele><name>TP03012</name><time>2020-01-27T11:50:47Z</time></trkpt>
   <trkpt lat="31.210323" lon="35.269348"><ele>273</ele><name>TP03013</name><time>2020-01-27T11:50:49Z</time></trkpt>
   <trkpt lat="31.210317" lon="35.269349"><ele>272.9</ele><name>TP03014</name><time>2020-01-27T11:50:51Z</time></trkpt>
   <trkpt lat="31.210317" lon="35.269344"><ele>272.9</ele><name>TP03015</name><time>2020-01-27T11:50:52Z</time></trkpt>
   <trkpt lat="31.210397" lon="35.269409"><ele>272.5</ele><name>TP03016</name><time>2020-01-27T11:50:54Z</time></trkpt>
   <trkpt lat="31.210392" lon="35.269424"><ele>272.5</ele><name>TP03017</name><time>2020-01-27T11:50:55Z</time></trkpt>
   <trkpt lat="31.21038" lon="35.269432"><ele>272.4</ele><name>TP03018</name><time>2020-01-27T11:50:57Z</time></trkpt>
   <trkpt lat="31.210367" lon="35.269441"><ele>272.4</ele><name>TP03019</name><time>2020-01-27T11:50:58Z</time></trkpt>
   <trkpt lat="31.210355" lon="35.269449"><ele>272.3</ele><name>TP03020</name><time>2020-01-27T11:50:59Z</time></trkpt>
   <trkpt lat="31.210343" lon="35.269458"><ele>272.3</ele><name>TP03021</name><time>2020-01-27T11:51:00Z</time></trkpt>
   <trkpt lat="31.210331" lon="35.269467"><ele>272.2</ele><name>TP03022</name><time>2020-01-27T11:51:02Z</time></trkpt>
   <trkpt lat="31.210318" lon="35.269475"><ele>272.1</ele><name>TP03023</name><time>2020-01-27T11:51:04Z</time></trkpt>
   <trkpt lat="31.210306" lon="35.269484"><ele>272.1</ele><name>TP03024</name><time>2020-01-27T11:51:06Z</time></trkpt>
   <trkpt lat="31.210294" lon="35.269492"><ele>272</ele><name>TP03025</name><time>2020-01-27T11:51:08Z</time></trkpt>
   <trkpt lat="31.210282" lon="35.269501"><ele>271.9</ele><name>TP03026</name><time>2020-01-27T11:51:11Z</time></trkpt>
   <trkpt lat="31.210269" lon="35.269509"><ele>271.9</ele><name>TP03027</name><time>2020-01-27T11:51:12Z</time></trkpt>
   <trkpt lat="31.210257" lon="35.269518"><ele>271.9</ele><name>TP03028</name><time>2020-01-27T11:51:13Z</time></trkpt>
   <trkpt lat="31.21023" lon="35.269545"><ele>271.8</ele><name>TP03029</name><time>2020-01-27T11:51:15Z</time></trkpt>
   <trkpt lat="31.21017" lon="35.269592"><ele>271.6</ele><name>TP03030</name><time>2020-01-27T11:51:17Z</time></trkpt>
   <trkpt lat="31.210065" lon="35.26968"><ele>271.5</ele><name>TP03031</name><time>2020-01-27T11:51:19Z</time></trkpt>
   <trkpt lat="31.210004" lon="35.269728"><ele>271.4</ele><name>TP03032</name><time>2020-01-27T11:51:21Z</time></trkpt>
   <trkpt lat="31.209941" lon="35.269802"><ele>271.3</ele><name>TP03033</name><time>2020-01-27T11:51:23Z</time></trkpt>
   <trkpt lat="31.209897" lon="35.269853"><ele>271.2</ele><name>TP03034</name><time>2020-01-27T11:51:26Z</time></trkpt>
   <trkpt lat="31.209816" lon="35.269958"><ele>271</ele><name>TP03035</name><time>2020-01-27T11:51:28Z</time></trkpt>
   <trkpt lat="31.209736" lon="35.270079"><ele>270.8</ele><name>TP03036</name><time>2020-01-27T11:51:31Z</time></trkpt>
   <trkpt lat="31.209705" lon="35.270135"><ele>270.8</ele><name>TP03037</name><time>2020-01-27T11:51:32Z</time></trkpt>
   <trkpt lat="31.20968" lon="35.270181"><ele>270.7</ele><name>TP03038</name><time>2020-01-27T11:51:33Z</time></trkpt>
   <trkpt lat="31.209654" lon="35.270217"><ele>270.7</ele><name>TP03039</name><time>2020-01-27T11:51:34Z</time></trkpt>
   <trkpt lat="31.209588" lon="35.270308"><ele>270.6</ele><name>TP03040</name><time>2020-01-27T11:51:37Z</time></trkpt>
   <trkpt lat="31.209571" lon="35.270341"><ele>270.6</ele><name>TP03041</name><time>2020-01-27T11:51:38Z</time></trkpt>
   <trkpt lat="31.209509" lon="35.27044"><ele>270.4</ele><name>TP03042</name><time>2020-01-27T11:51:41Z</time></trkpt>
   <trkpt lat="31.209488" lon="35.270476"><ele>270.3</ele><name>TP03043</name><time>2020-01-27T11:51:42Z</time></trkpt>
   <trkpt lat="31.209459" lon="35.270561"><ele>270.1</ele><name>TP03044</name><time>2020-01-27T11:51:44Z</time></trkpt>
   <trkpt lat="31.209458" lon="35.270613"><ele>270</ele><name>TP03045</name><time>2020-01-27T11:51:45Z</time></trkpt>
   <trkpt lat="31.209451" lon="35.270758"><ele>269.6</ele><name>TP03046</name><time>2020-01-27T11:51:48Z</time></trkpt>
   <trkpt lat="31.209453" lon="35.2708"><ele>269.5</ele><name>TP03047</name><time>2020-01-27T11:51:49Z</time></trkpt>
   <trkpt lat="31.20947" lon="35.270933"><ele>269.2</ele><name>TP03048</name><time>2020-01-27T11:51:52Z</time></trkpt>
   <trkpt lat="31.209488" lon="35.27106"><ele>268.9</ele><name>TP03049</name><time>2020-01-27T11:51:55Z</time></trkpt>
   <trkpt lat="31.209522" lon="35.271117"><ele>268.8</ele><name>TP03050</name><time>2020-01-27T11:51:58Z</time></trkpt>
   <trkpt lat="31.209579" lon="35.271205"><ele>268.4</ele><name>TP03051</name><time>2020-01-27T11:51:59Z</time></trkpt>
   <trkpt lat="31.209632" lon="35.271313"><ele>267.8</ele><name>TP03052</name><time>2020-01-27T11:52:02Z</time></trkpt>
   <trkpt lat="31.209658" lon="35.271381"><ele>267.6</ele><name>TP03053</name><time>2020-01-27T11:52:03Z</time></trkpt>
   <trkpt lat="31.209669" lon="35.271428"><ele>267.4</ele><name>TP03054</name><time>2020-01-27T11:52:04Z</time></trkpt>
   <trkpt lat="31.209681" lon="35.271496"><ele>267.1</ele><name>TP03055</name><time>2020-01-27T11:52:05Z</time></trkpt>
   <trkpt lat="31.209704" lon="35.271625"><ele>266.4</ele><name>TP03056</name><time>2020-01-27T11:52:07Z</time></trkpt>
   <trkpt lat="31.209741" lon="35.271752"><ele>265.7</ele><name>TP03057</name><time>2020-01-27T11:52:09Z</time></trkpt>
   <trkpt lat="31.209779" lon="35.271877"><ele>264.9</ele><name>TP03058</name><time>2020-01-27T11:52:11Z</time></trkpt>
   <trkpt lat="31.209793" lon="35.271939"><ele>264.6</ele><name>TP03059</name><time>2020-01-27T11:52:12Z</time></trkpt>
   <trkpt lat="31.209808" lon="35.27206"><ele>264</ele><name>TP03060</name><time>2020-01-27T11:52:14Z</time></trkpt>
   <trkpt lat="31.209809" lon="35.272119"><ele>263.7</ele><name>TP03061</name><time>2020-01-27T11:52:15Z</time></trkpt>
   <trkpt lat="31.209805" lon="35.272178"><ele>263.4</ele><name>TP03062</name><time>2020-01-27T11:52:16Z</time></trkpt>
   <trkpt lat="31.20977" lon="35.272283"><ele>263</ele><name>TP03063</name><time>2020-01-27T11:52:18Z</time></trkpt>
   <trkpt lat="31.209701" lon="35.272357"><ele>262.5</ele><name>TP03064</name><time>2020-01-27T11:52:20Z</time></trkpt>
   <trkpt lat="31.209608" lon="35.272402"><ele>262</ele><name>TP03065</name><time>2020-01-27T11:52:22Z</time></trkpt>
   <trkpt lat="31.209498" lon="35.272402"><ele>261.6</ele><name>TP03066</name><time>2020-01-27T11:52:24Z</time></trkpt>
   <trkpt lat="31.209443" lon="35.272391"><ele>261.1</ele><name>TP03067</name><time>2020-01-27T11:52:25Z</time></trkpt>
   <trkpt lat="31.209392" lon="35.272379"><ele>260.7</ele><name>TP03068</name><time>2020-01-27T11:52:26Z</time></trkpt>
   <trkpt lat="31.209301" lon="35.272348"><ele>259.9</ele><name>TP03069</name><time>2020-01-27T11:52:28Z</time></trkpt>
   <trkpt lat="31.209225" lon="35.272327"><ele>259.1</ele><name>TP03070</name><time>2020-01-27T11:52:30Z</time></trkpt>
   <trkpt lat="31.209177" lon="35.272319"><ele>258.7</ele><name>TP03071</name><time>2020-01-27T11:52:31Z</time></trkpt>
   <trkpt lat="31.20915" lon="35.272316"><ele>258.5</ele><name>TP03072</name><time>2020-01-27T11:52:32Z</time></trkpt>
   <trkpt lat="31.209123" lon="35.272314"><ele>258.4</ele><name>TP03073</name><time>2020-01-27T11:52:33Z</time></trkpt>
   <trkpt lat="31.209086" lon="35.272311"><ele>258.2</ele><name>TP03074</name><time>2020-01-27T11:52:35Z</time></trkpt>
   <trkpt lat="31.209017" lon="35.272346"><ele>258</ele><name>TP03075</name><time>2020-01-27T11:52:38Z</time></trkpt>
   <trkpt lat="31.20896" lon="35.27237"><ele>257.8</ele><name>TP03076</name><time>2020-01-27T11:52:39Z</time></trkpt>
   <trkpt lat="31.208922" lon="35.272387"><ele>257.7</ele><name>TP03077</name><time>2020-01-27T11:52:41Z</time></trkpt>
   <trkpt lat="31.208878" lon="35.272404"><ele>257.6</ele><name>TP03078</name><time>2020-01-27T11:52:42Z</time></trkpt>
   <trkpt lat="31.20886" lon="35.272418"><ele>257.6</ele><name>TP03079</name><time>2020-01-27T11:52:44Z</time></trkpt>
   <trkpt lat="31.208849" lon="35.27242"><ele>257.5</ele><name>TP03080</name><time>2020-01-27T11:52:47Z</time></trkpt>
   <trkpt lat="31.208852" lon="35.27242"><ele>257.5</ele><name>TP03081</name><time>2020-01-27T11:52:48Z</time></trkpt>
   <trkpt lat="31.208861" lon="35.272418"><ele>257.5</ele><name>TP03082</name><time>2020-01-27T11:52:50Z</time></trkpt>
   <trkpt lat="31.208857" lon="35.272434"><ele>257.5</ele><name>TP03083</name><time>2020-01-27T11:52:51Z</time></trkpt>
   <trkpt lat="31.208848" lon="35.27244"><ele>257.4</ele><name>TP03084</name><time>2020-01-27T11:52:52Z</time></trkpt>
   <trkpt lat="31.208841" lon="35.272443"><ele>257.4</ele><name>TP03085</name><time>2020-01-27T11:52:53Z</time></trkpt>
   <trkpt lat="31.208828" lon="35.272444"><ele>257.4</ele><name>TP03086</name><time>2020-01-27T11:52:56Z</time></trkpt>
   <trkpt lat="31.20882" lon="35.272451"><ele>257.4</ele><name>TP03087</name><time>2020-01-27T11:52:59Z</time></trkpt>
   <trkpt lat="31.208813" lon="35.272455"><ele>257.4</ele><name>TP03088</name><time>2020-01-27T11:53:02Z</time></trkpt>
   <trkpt lat="31.208814" lon="35.272474"><ele>257.4</ele><name>TP03089</name><time>2020-01-27T11:53:03Z</time></trkpt>
   <trkpt lat="31.208818" lon="35.272483"><ele>257.4</ele><name>TP03090</name><time>2020-01-27T11:53:04Z</time></trkpt>
   <trkpt lat="31.208822" lon="35.27249"><ele>257.4</ele><name>TP03091</name><time>2020-01-27T11:53:05Z</time></trkpt>
   <trkpt lat="31.208817" lon="35.272481"><ele>257.4</ele><name>TP03092</name><time>2020-01-27T11:53:06Z</time></trkpt>
   <trkpt lat="31.208826" lon="35.272491"><ele>257.4</ele><name>TP03093</name><time>2020-01-27T11:53:09Z</time></trkpt>
   <trkpt lat="31.208829" lon="35.2725"><ele>257.4</ele><name>TP03094</name><time>2020-01-27T11:53:11Z</time></trkpt>
   <trkpt lat="31.208826" lon="35.272504"><ele>257.3</ele><name>TP03095</name><time>2020-01-27T11:53:12Z</time></trkpt>
   <trkpt lat="31.208816" lon="35.272507"><ele>257.3</ele><name>TP03096</name><time>2020-01-27T11:53:15Z</time></trkpt>
   <trkpt lat="31.208809" lon="35.272509"><ele>257.3</ele><name>TP03097</name><time>2020-01-27T11:53:16Z</time></trkpt>
   <trkpt lat="31.208802" lon="35.2725"><ele>257.3</ele><name>TP03098</name><time>2020-01-27T11:53:17Z</time></trkpt>
   <trkpt lat="31.208788" lon="35.272515"><ele>257.3</ele><name>TP03099</name><time>2020-01-27T11:53:19Z</time></trkpt>
   <trkpt lat="31.208776" lon="35.272525"><ele>257.3</ele><name>TP03100</name><time>2020-01-27T11:53:20Z</time></trkpt>
   <trkpt lat="31.208762" lon="35.272537"><ele>257.3</ele><name>TP03101</name><time>2020-01-27T11:53:21Z</time></trkpt>
   <trkpt lat="31.208757" lon="35.272541"><ele>257.3</ele><name>TP03102</name><time>2020-01-27T11:53:22Z</time></trkpt>
   <trkpt lat="31.208747" lon="35.272545"><ele>257.3</ele><name>TP03103</name><time>2020-01-27T11:53:24Z</time></trkpt>
   <trkpt lat="31.208737" lon="35.272541"><ele>257.3</ele><name>TP03104</name><time>2020-01-27T11:53:26Z</time></trkpt>
   <trkpt lat="31.208732" lon="35.272538"><ele>257.3</ele><name>TP03105</name><time>2020-01-27T11:53:27Z</time></trkpt>
   <trkpt lat="31.208721" lon="35.272529"><ele>257.3</ele><name>TP03106</name><time>2020-01-27T11:53:29Z</time></trkpt>
   <trkpt lat="31.20872" lon="35.272534"><ele>257.3</ele><name>TP03107</name><time>2020-01-27T11:53:30Z</time></trkpt>
   <trkpt lat="31.208719" lon="35.272539"><ele>257.4</ele><name>TP03108</name><time>2020-01-27T11:53:32Z</time></trkpt>
   <trkpt lat="31.208717" lon="35.272545"><ele>257.4</ele><name>TP03109</name><time>2020-01-27T11:53:34Z</time></trkpt>
   <trkpt lat="31.208716" lon="35.27255"><ele>257.4</ele><name>TP03110</name><time>2020-01-27T11:53:35Z</time></trkpt>
   <trkpt lat="31.208715" lon="35.272555"><ele>257.4</ele><name>TP03111</name><time>2020-01-27T11:53:38Z</time></trkpt>
   <trkpt lat="31.208714" lon="35.27256"><ele>257.4</ele><name>TP03112</name><time>2020-01-27T11:53:39Z</time></trkpt>
   <trkpt lat="31.208715" lon="35.272566"><ele>257.4</ele><name>TP03113</name><time>2020-01-27T11:53:40Z</time></trkpt>
   <trkpt lat="31.208714" lon="35.272571"><ele>257.4</ele><name>TP03114</name><time>2020-01-27T11:53:41Z</time></trkpt>
   <trkpt lat="31.208707" lon="35.272575"><ele>257.4</ele><name>TP03115</name><time>2020-01-27T11:53:43Z</time></trkpt>
   <trkpt lat="31.208704" lon="35.272574"><ele>257.4</ele><name>TP03116</name><time>2020-01-27T11:53:44Z</time></trkpt>
   <trkpt lat="31.208694" lon="35.27257"><ele>257.4</ele><name>TP03117</name><time>2020-01-27T11:53:46Z</time></trkpt>
   <trkpt lat="31.20869" lon="35.272569"><ele>257.4</ele><name>TP03118</name><time>2020-01-27T11:53:47Z</time></trkpt>
   <trkpt lat="31.208686" lon="35.272568"><ele>257.4</ele><name>TP03119</name><time>2020-01-27T11:53:49Z</time></trkpt>
   <trkpt lat="31.208688" lon="35.272574"><ele>257.4</ele><name>TP03120</name><time>2020-01-27T11:53:50Z</time></trkpt>
   <trkpt lat="31.208695" lon="35.272575"><ele>257.4</ele><name>TP03121</name><time>2020-01-27T11:53:51Z</time></trkpt>
   <trkpt lat="31.208565" lon="35.272573"><ele>257.6</ele><name>TP03122</name><time>2020-01-27T11:53:54Z</time></trkpt>
   <trkpt lat="31.208513" lon="35.272586"><ele>257.7</ele><name>TP03123</name><time>2020-01-27T11:53:55Z</time></trkpt>
   <trkpt lat="31.208459" lon="35.272584"><ele>257.7</ele><name>TP03124</name><time>2020-01-27T11:53:57Z</time></trkpt>
   <trkpt lat="31.208446" lon="35.2726"><ele>257.7</ele><name>TP03125</name><time>2020-01-27T11:53:58Z</time></trkpt>
   <trkpt lat="31.208443" lon="35.272611"><ele>257.7</ele><name>TP03126</name><time>2020-01-27T11:53:59Z</time></trkpt>
   <trkpt lat="31.208439" lon="35.272636"><ele>257.7</ele><name>TP03127</name><time>2020-01-27T11:54:01Z</time></trkpt>
   <trkpt lat="31.208436" lon="35.272651"><ele>257.7</ele><name>TP03128</name><time>2020-01-27T11:54:02Z</time></trkpt>
   <trkpt lat="31.20843" lon="35.27269"><ele>257.6</ele><name>TP03129</name><time>2020-01-27T11:54:05Z</time></trkpt>
   <trkpt lat="31.208424" lon="35.272736"><ele>257.6</ele><name>TP03130</name><time>2020-01-27T11:54:06Z</time></trkpt>
   <trkpt lat="31.208421" lon="35.272817"><ele>257.5</ele><name>TP03131</name><time>2020-01-27T11:54:09Z</time></trkpt>
   <trkpt lat="31.20842" lon="35.27284"><ele>257.5</ele><name>TP03132</name><time>2020-01-27T11:54:10Z</time></trkpt>
   <trkpt lat="31.208418" lon="35.272892"><ele>257.4</ele><name>TP03133</name><time>2020-01-27T11:54:13Z</time></trkpt>
   <trkpt lat="31.208401" lon="35.272956"><ele>257.4</ele><name>TP03134</name><time>2020-01-27T11:54:15Z</time></trkpt>
   <trkpt lat="31.20839" lon="35.272985"><ele>257.3</ele><name>TP03135</name><time>2020-01-27T11:54:16Z</time></trkpt>
   <trkpt lat="31.20838" lon="35.273015"><ele>257.3</ele><name>TP03136</name><time>2020-01-27T11:54:19Z</time></trkpt>
   <trkpt lat="31.208395" lon="35.273059"><ele>257.2</ele><name>TP03137</name><time>2020-01-27T11:54:20Z</time></trkpt>
   <trkpt lat="31.208399" lon="35.273097"><ele>257.2</ele><name>TP03138</name><time>2020-01-27T11:54:23Z</time></trkpt>
   <trkpt lat="31.208386" lon="35.273138"><ele>257.1</ele><name>TP03139</name><time>2020-01-27T11:54:24Z</time></trkpt>
   <trkpt lat="31.208371" lon="35.273171"><ele>257.1</ele><name>TP03140</name><time>2020-01-27T11:54:26Z</time></trkpt>
   <trkpt lat="31.208367" lon="35.273179"><ele>257</ele><name>TP03141</name><time>2020-01-27T11:54:27Z</time></trkpt>
   <trkpt lat="31.208332" lon="35.273219"><ele>256.9</ele><name>TP03142</name><time>2020-01-27T11:54:28Z</time></trkpt>
   <trkpt lat="31.208307" lon="35.273244"><ele>256.8</ele><name>TP03143</name><time>2020-01-27T11:54:29Z</time></trkpt>
   <trkpt lat="31.208241" lon="35.27328"><ele>256.4</ele><name>TP03144</name><time>2020-01-27T11:54:32Z</time></trkpt>
   <trkpt lat="31.208209" lon="35.273296"><ele>256.2</ele><name>TP03145</name><time>2020-01-27T11:54:35Z</time></trkpt>
   <trkpt lat="31.208149" lon="35.273338"><ele>255.7</ele><name>TP03146</name><time>2020-01-27T11:54:37Z</time></trkpt>
   <trkpt lat="31.2081" lon="35.273388"><ele>255.2</ele><name>TP03147</name><time>2020-01-27T11:54:40Z</time></trkpt>
   <trkpt lat="31.20807" lon="35.273417"><ele>254.8</ele><name>TP03148</name><time>2020-01-27T11:54:42Z</time></trkpt>
   <trkpt lat="31.208043" lon="35.27344"><ele>254.4</ele><name>TP03149</name><time>2020-01-27T11:54:43Z</time></trkpt>
   <trkpt lat="31.207997" lon="35.27347"><ele>253.9</ele><name>TP03150</name><time>2020-01-27T11:54:44Z</time></trkpt>
   <trkpt lat="31.207958" lon="35.273513"><ele>253.5</ele><name>TP03151</name><time>2020-01-27T11:54:47Z</time></trkpt>
   <trkpt lat="31.207932" lon="35.273546"><ele>253.3</ele><name>TP03152</name><time>2020-01-27T11:54:50Z</time></trkpt>
   <trkpt lat="31.207916" lon="35.273572"><ele>253.1</ele><name>TP03153</name><time>2020-01-27T11:54:51Z</time></trkpt>
   <trkpt lat="31.207886" lon="35.273642"><ele>252.6</ele><name>TP03154</name><time>2020-01-27T11:54:52Z</time></trkpt>
   <trkpt lat="31.20787" lon="35.273667"><ele>252.4</ele><name>TP03155</name><time>2020-01-27T11:54:53Z</time></trkpt>
   <trkpt lat="31.207839" lon="35.273742"><ele>251.9</ele><name>TP03156</name><time>2020-01-27T11:54:56Z</time></trkpt>
   <trkpt lat="31.207774" lon="35.273863"><ele>250.8</ele><name>TP03157</name><time>2020-01-27T11:54:59Z</time></trkpt>
   <trkpt lat="31.207652" lon="35.273932"><ele>249.8</ele><name>TP03158</name><time>2020-01-27T11:55:02Z</time></trkpt>
   <trkpt lat="31.20757" lon="35.274011"><ele>249.4</ele><name>TP03159</name><time>2020-01-27T11:55:04Z</time></trkpt>
   <trkpt lat="31.207465" lon="35.274113"><ele>249.1</ele><name>TP03160</name><time>2020-01-27T11:55:07Z</time></trkpt>
   <trkpt lat="31.207402" lon="35.274207"><ele>248.8</ele><name>TP03161</name><time>2020-01-27T11:55:09Z</time></trkpt>
   <trkpt lat="31.207374" lon="35.274256"><ele>248.7</ele><name>TP03162</name><time>2020-01-27T11:55:10Z</time></trkpt>
   <trkpt lat="31.207352" lon="35.274308"><ele>248.5</ele><name>TP03163</name><time>2020-01-27T11:55:11Z</time></trkpt>
   <trkpt lat="31.207295" lon="35.274374"><ele>248.3</ele><name>TP03164</name><time>2020-01-27T11:55:14Z</time></trkpt>
   <trkpt lat="31.20724" lon="35.274468"><ele>248.2</ele><name>TP03165</name><time>2020-01-27T11:55:17Z</time></trkpt>
   <trkpt lat="31.207177" lon="35.274561"><ele>248</ele><name>TP03166</name><time>2020-01-27T11:55:20Z</time></trkpt>
   <trkpt lat="31.207159" lon="35.274642"><ele>247.8</ele><name>TP03167</name><time>2020-01-27T11:55:22Z</time></trkpt>
   <trkpt lat="31.207109" lon="35.274732"><ele>247.7</ele><name>TP03168</name><time>2020-01-27T11:55:25Z</time></trkpt>
   <trkpt lat="31.207083" lon="35.274776"><ele>247.4</ele><name>TP03169</name><time>2020-01-27T11:55:26Z</time></trkpt>
   <trkpt lat="31.207045" lon="35.274847"><ele>247.2</ele><name>TP03170</name><time>2020-01-27T11:55:29Z</time></trkpt>
   <trkpt lat="31.207018" lon="35.274887"><ele>247</ele><name>TP03171</name><time>2020-01-27T11:55:30Z</time></trkpt>
   <trkpt lat="31.206968" lon="35.274959"><ele>246.8</ele><name>TP03172</name><time>2020-01-27T11:55:31Z</time></trkpt>
   <trkpt lat="31.20691" lon="35.275036"><ele>246.4</ele><name>TP03173</name><time>2020-01-27T11:55:33Z</time></trkpt>
   <trkpt lat="31.20687" lon="35.275075"><ele>246.2</ele><name>TP03174</name><time>2020-01-27T11:55:35Z</time></trkpt>
   <trkpt lat="31.206833" lon="35.27511"><ele>245.9</ele><name>TP03175</name><time>2020-01-27T11:55:37Z</time></trkpt>
   <trkpt lat="31.206755" lon="35.275177"><ele>245.6</ele><name>TP03176</name><time>2020-01-27T11:55:38Z</time></trkpt>
   <trkpt lat="31.206702" lon="35.275207"><ele>245.4</ele><name>TP03177</name><time>2020-01-27T11:55:41Z</time></trkpt>
   <trkpt lat="31.206645" lon="35.275276"><ele>245</ele><name>TP03178</name><time>2020-01-27T11:55:42Z</time></trkpt>
   <trkpt lat="31.206637" lon="35.275314"><ele>244.8</ele><name>TP03179</name><time>2020-01-27T11:55:43Z</time></trkpt>
   <trkpt lat="31.206601" lon="35.275383"><ele>244.5</ele><name>TP03180</name><time>2020-01-27T11:55:46Z</time></trkpt>
   <trkpt lat="31.206585" lon="35.275423"><ele>244.3</ele><name>TP03181</name><time>2020-01-27T11:55:49Z</time></trkpt>
   <trkpt lat="31.206566" lon="35.275463"><ele>244.1</ele><name>TP03182</name><time>2020-01-27T11:55:50Z</time></trkpt>
   <trkpt lat="31.206514" lon="35.275579"><ele>243.4</ele><name>TP03183</name><time>2020-01-27T11:55:51Z</time></trkpt>
   <trkpt lat="31.206463" lon="35.275682"><ele>243</ele><name>TP03184</name><time>2020-01-27T11:55:53Z</time></trkpt>
   <trkpt lat="31.206405" lon="35.275782"><ele>242.7</ele><name>TP03185</name><time>2020-01-27T11:55:56Z</time></trkpt>
   <trkpt lat="31.20636" lon="35.275841"><ele>242.6</ele><name>TP03186</name><time>2020-01-27T11:55:57Z</time></trkpt>
   <trkpt lat="31.206332" lon="35.275887"><ele>242.4</ele><name>TP03187</name><time>2020-01-27T11:55:58Z</time></trkpt>
   <trkpt lat="31.20628" lon="35.275977"><ele>242.1</ele><name>TP03188</name><time>2020-01-27T11:56:00Z</time></trkpt>
   <trkpt lat="31.206269" lon="35.276035"><ele>242</ele><name>TP03189</name><time>2020-01-27T11:56:01Z</time></trkpt>
   <trkpt lat="31.20626" lon="35.276091"><ele>241.8</ele><name>TP03190</name><time>2020-01-27T11:56:02Z</time></trkpt>
   <trkpt lat="31.206236" lon="35.276205"><ele>241.2</ele><name>TP03191</name><time>2020-01-27T11:56:05Z</time></trkpt>
   <trkpt lat="31.206181" lon="35.276377"><ele>240.3</ele><name>TP03192</name><time>2020-01-27T11:56:08Z</time></trkpt>
   <trkpt lat="31.20616" lon="35.27643"><ele>240</ele><name>TP03193</name><time>2020-01-27T11:56:09Z</time></trkpt>
   <trkpt lat="31.206122" lon="35.276531"><ele>239.3</ele><name>TP03194</name><time>2020-01-27T11:56:11Z</time></trkpt>
   <trkpt lat="31.20608" lon="35.276694"><ele>238.2</ele><name>TP03195</name><time>2020-01-27T11:56:14Z</time></trkpt>
   <trkpt lat="31.206065" lon="35.276826"><ele>237.6</ele><name>TP03196</name><time>2020-01-27T11:56:16Z</time></trkpt>
   <trkpt lat="31.206064" lon="35.276971"><ele>237.3</ele><name>TP03197</name><time>2020-01-27T11:56:18Z</time></trkpt>
   <trkpt lat="31.206063" lon="35.277037"><ele>237.3</ele><name>TP03198</name><time>2020-01-27T11:56:19Z</time></trkpt>
   <trkpt lat="31.206061" lon="35.277092"><ele>237.3</ele><name>TP03199</name><time>2020-01-27T11:56:20Z</time></trkpt>
   <trkpt lat="31.206097" lon="35.277195"><ele>237.3</ele><name>TP03200</name><time>2020-01-27T11:56:22Z</time></trkpt>
   <trkpt lat="31.206098" lon="35.277221"><ele>237.3</ele><name>TP03201</name><time>2020-01-27T11:56:23Z</time></trkpt>
   <trkpt lat="31.206082" lon="35.277266"><ele>237.3</ele><name>TP03202</name><time>2020-01-27T11:56:25Z</time></trkpt>
   <trkpt lat="31.206084" lon="35.277283"><ele>237.3</ele><name>TP03203</name><time>2020-01-27T11:56:26Z</time></trkpt>
   <trkpt lat="31.206085" lon="35.277298"><ele>237.3</ele><name>TP03204</name><time>2020-01-27T11:56:27Z</time></trkpt>
   <trkpt lat="31.206082" lon="35.277338"><ele>237.3</ele><name>TP03205</name><time>2020-01-27T11:56:30Z</time></trkpt>
   <trkpt lat="31.206097" lon="35.277386"><ele>237.4</ele><name>TP03206</name><time>2020-01-27T11:56:32Z</time></trkpt>
   <trkpt lat="31.206111" lon="35.277457"><ele>237.5</ele><name>TP03207</name><time>2020-01-27T11:56:33Z</time></trkpt>
   <trkpt lat="31.206121" lon="35.277482"><ele>237.5</ele><name>TP03208</name><time>2020-01-27T11:56:34Z</time></trkpt>
   <trkpt lat="31.206147" lon="35.277532"><ele>237.6</ele><name>TP03209</name><time>2020-01-27T11:56:37Z</time></trkpt>
   <trkpt lat="31.206172" lon="35.277606"><ele>237.8</ele><name>TP03210</name><time>2020-01-27T11:56:39Z</time></trkpt>
   <trkpt lat="31.206238" lon="35.277677"><ele>238</ele><name>TP03211</name><time>2020-01-27T11:56:41Z</time></trkpt>
   <trkpt lat="31.206261" lon="35.277698"><ele>238.1</ele><name>TP03212</name><time>2020-01-27T11:56:42Z</time></trkpt>
   <trkpt lat="31.206289" lon="35.277723"><ele>238.2</ele><name>TP03213</name><time>2020-01-27T11:56:43Z</time></trkpt>
   <trkpt lat="31.206344" lon="35.277771"><ele>238.3</ele><name>TP03214</name><time>2020-01-27T11:56:46Z</time></trkpt>
   <trkpt lat="31.206372" lon="35.277795"><ele>238.3</ele><name>TP03215</name><time>2020-01-27T11:56:47Z</time></trkpt>
   <trkpt lat="31.206389" lon="35.277824"><ele>238.3</ele><name>TP03216</name><time>2020-01-27T11:56:48Z</time></trkpt>
   <trkpt lat="31.20641" lon="35.277858"><ele>238.3</ele><name>TP03217</name><time>2020-01-27T11:56:51Z</time></trkpt>
   <trkpt lat="31.206436" lon="35.277903"><ele>238.2</ele><name>TP03218</name><time>2020-01-27T11:56:52Z</time></trkpt>
   <trkpt lat="31.206451" lon="35.277926"><ele>238.2</ele><name>TP03219</name><time>2020-01-27T11:56:53Z</time></trkpt>
   <trkpt lat="31.206479" lon="35.277957"><ele>238.1</ele><name>TP03220</name><time>2020-01-27T11:56:56Z</time></trkpt>
   <trkpt lat="31.206501" lon="35.277982"><ele>238</ele><name>TP03221</name><time>2020-01-27T11:56:57Z</time></trkpt>
   <trkpt lat="31.206546" lon="35.278014"><ele>237.8</ele><name>TP03222</name><time>2020-01-27T11:56:58Z</time></trkpt>
   <trkpt lat="31.20657" lon="35.278058"><ele>237.7</ele><name>TP03223</name><time>2020-01-27T11:56:59Z</time></trkpt>
   <trkpt lat="31.206587" lon="35.278092"><ele>237.6</ele><name>TP03224</name><time>2020-01-27T11:57:02Z</time></trkpt>
   <trkpt lat="31.206613" lon="35.278123"><ele>237.4</ele><name>TP03225</name><time>2020-01-27T11:57:03Z</time></trkpt>
   <trkpt lat="31.206657" lon="35.2782"><ele>237.2</ele><name>TP03226</name><time>2020-01-27T11:57:05Z</time></trkpt>
   <trkpt lat="31.20666" lon="35.278263"><ele>237</ele><name>TP03227</name><time>2020-01-27T11:57:08Z</time></trkpt>
   <trkpt lat="31.206653" lon="35.278271"><ele>237</ele><name>TP03228</name><time>2020-01-27T11:57:09Z</time></trkpt>
   <trkpt lat="31.206623" lon="35.278289"><ele>236.9</ele><name>TP03229</name><time>2020-01-27T11:57:12Z</time></trkpt>
   <trkpt lat="31.206612" lon="35.278303"><ele>236.8</ele><name>TP03230</name><time>2020-01-27T11:57:14Z</time></trkpt>
   <trkpt lat="31.206587" lon="35.278333"><ele>236.6</ele><name>TP03231</name><time>2020-01-27T11:57:17Z</time></trkpt>
   <trkpt lat="31.206569" lon="35.278374"><ele>236.5</ele><name>TP03232</name><time>2020-01-27T11:57:18Z</time></trkpt>
   <trkpt lat="31.206542" lon="35.278405"><ele>236.4</ele><name>TP03233</name><time>2020-01-27T11:57:21Z</time></trkpt>
   <trkpt lat="31.206526" lon="35.278439"><ele>236.3</ele><name>TP03234</name><time>2020-01-27T11:57:22Z</time></trkpt>
   <trkpt lat="31.206478" lon="35.278501"><ele>236.2</ele><name>TP03235</name><time>2020-01-27T11:57:23Z</time></trkpt>
   <trkpt lat="31.206454" lon="35.278564"><ele>236.1</ele><name>TP03236</name><time>2020-01-27T11:57:26Z</time></trkpt>
   <trkpt lat="31.20644" lon="35.278611"><ele>236</ele><name>TP03237</name><time>2020-01-27T11:57:28Z</time></trkpt>
   <trkpt lat="31.206417" lon="35.278651"><ele>236</ele><name>TP03238</name><time>2020-01-27T11:57:29Z</time></trkpt>
   <trkpt lat="31.206374" lon="35.278718"><ele>235.9</ele><name>TP03239</name><time>2020-01-27T11:57:30Z</time></trkpt>
   <trkpt lat="31.206341" lon="35.27876"><ele>235.9</ele><name>TP03240</name><time>2020-01-27T11:57:33Z</time></trkpt>
   <trkpt lat="31.20631" lon="35.278799"><ele>235.8</ele><name>TP03241</name><time>2020-01-27T11:57:34Z</time></trkpt>
   <trkpt lat="31.206269" lon="35.278846"><ele>235.8</ele><name>TP03242</name><time>2020-01-27T11:57:35Z</time></trkpt>
   <trkpt lat="31.206191" lon="35.278891"><ele>235.6</ele><name>TP03243</name><time>2020-01-27T11:57:36Z</time></trkpt>
   <trkpt lat="31.206103" lon="35.278919"><ele>235.4</ele><name>TP03244</name><time>2020-01-27T11:57:39Z</time></trkpt>
   <trkpt lat="31.206061" lon="35.278933"><ele>235.2</ele><name>TP03245</name><time>2020-01-27T11:57:40Z</time></trkpt>
   <trkpt lat="31.206034" lon="35.27894"><ele>235.1</ele><name>TP03246</name><time>2020-01-27T11:57:41Z</time></trkpt>
   <trkpt lat="31.205995" lon="35.278954"><ele>234.9</ele><name>TP03247</name><time>2020-01-27T11:57:44Z</time></trkpt>
   <trkpt lat="31.205954" lon="35.27897"><ele>234.7</ele><name>TP03248</name><time>2020-01-27T11:57:45Z</time></trkpt>
   <trkpt lat="31.205912" lon="35.278981"><ele>234.5</ele><name>TP03249</name><time>2020-01-27T11:57:46Z</time></trkpt>
   <trkpt lat="31.205865" lon="35.278982"><ele>234.2</ele><name>TP03250</name><time>2020-01-27T11:57:48Z</time></trkpt>
   <trkpt lat="31.205781" lon="35.278985"><ele>233.8</ele><name>TP03251</name><time>2020-01-27T11:57:49Z</time></trkpt>
   <trkpt lat="31.205753" lon="35.278981"><ele>233.6</ele><name>TP03252</name><time>2020-01-27T11:57:50Z</time></trkpt>
   <trkpt lat="31.205686" lon="35.279018"><ele>233.3</ele><name>TP03253</name><time>2020-01-27T11:57:53Z</time></trkpt>
   <trkpt lat="31.205654" lon="35.279048"><ele>233</ele><name>TP03254</name><time>2020-01-27T11:57:55Z</time></trkpt>
   <trkpt lat="31.205623" lon="35.279079"><ele>232.6</ele><name>TP03255</name><time>2020-01-27T11:57:56Z</time></trkpt>
   <trkpt lat="31.2056" lon="35.279109"><ele>232.3</ele><name>TP03256</name><time>2020-01-27T11:57:57Z</time></trkpt>
   <trkpt lat="31.205504" lon="35.279151"><ele>231.4</ele><name>TP03257</name><time>2020-01-27T11:58:00Z</time></trkpt>
   <trkpt lat="31.205447" lon="35.279162"><ele>231</ele><name>TP03258</name><time>2020-01-27T11:58:01Z</time></trkpt>
   <trkpt lat="31.205392" lon="35.279171"><ele>230.5</ele><name>TP03259</name><time>2020-01-27T11:58:02Z</time></trkpt>
   <trkpt lat="31.205325" lon="35.279175"><ele>229.8</ele><name>TP03260</name><time>2020-01-27T11:58:05Z</time></trkpt>
   <trkpt lat="31.205228" lon="35.279234"><ele>228.5</ele><name>TP03261</name><time>2020-01-27T11:58:06Z</time></trkpt>
   <trkpt lat="31.205139" lon="35.279272"><ele>227.3</ele><name>TP03262</name><time>2020-01-27T11:58:08Z</time></trkpt>
   <trkpt lat="31.205106" lon="35.279276"><ele>226.9</ele><name>TP03263</name><time>2020-01-27T11:58:09Z</time></trkpt>
   <trkpt lat="31.20506" lon="35.279287"><ele>226.5</ele><name>TP03264</name><time>2020-01-27T11:58:12Z</time></trkpt>
   <trkpt lat="31.205013" lon="35.279301"><ele>226</ele><name>TP03265</name><time>2020-01-27T11:58:13Z</time></trkpt>
   <trkpt lat="31.204972" lon="35.279312"><ele>225.6</ele><name>TP03266</name><time>2020-01-27T11:58:14Z</time></trkpt>
   <trkpt lat="31.204903" lon="35.279337"><ele>225.3</ele><name>TP03267</name><time>2020-01-27T11:58:15Z</time></trkpt>
   <trkpt lat="31.20489" lon="35.279341"><ele>225.2</ele><name>TP03268</name><time>2020-01-27T11:58:17Z</time></trkpt>
   <trkpt lat="31.20489" lon="35.279344"><ele>225.2</ele><name>TP03269</name><time>2020-01-27T11:58:18Z</time></trkpt>
   <trkpt lat="31.204889" lon="35.279346"><ele>225.2</ele><name>TP03270</name><time>2020-01-27T11:58:20Z</time></trkpt>
   <trkpt lat="31.204889" lon="35.279347"><ele>225.2</ele><name>TP03271</name><time>2020-01-27T11:58:21Z</time></trkpt>
   <trkpt lat="31.204889" lon="35.279349"><ele>225.2</ele><name>TP03272</name><time>2020-01-27T11:58:23Z</time></trkpt>
   <trkpt lat="31.204888" lon="35.279351"><ele>225.2</ele><name>TP03273</name><time>2020-01-27T11:58:24Z</time></trkpt>
   <trkpt lat="31.204888" lon="35.279353"><ele>225.2</ele><name>TP03274</name><time>2020-01-27T11:58:26Z</time></trkpt>
   <trkpt lat="31.204888" lon="35.279354"><ele>225.2</ele><name>TP03275</name><time>2020-01-27T11:58:27Z</time></trkpt>
   <trkpt lat="31.204888" lon="35.279356"><ele>225.2</ele><name>TP03276</name><time>2020-01-27T11:58:28Z</time></trkpt>
   <trkpt lat="31.204887" lon="35.279358"><ele>225.2</ele><name>TP03277</name><time>2020-01-27T11:58:29Z</time></trkpt>
   <trkpt lat="31.204887" lon="35.27936"><ele>225.2</ele><name>TP03278</name><time>2020-01-27T11:58:31Z</time></trkpt>
   <trkpt lat="31.204887" lon="35.279362"><ele>225.2</ele><name>TP03279</name><time>2020-01-27T11:58:32Z</time></trkpt>
   <trkpt lat="31.204886" lon="35.279363"><ele>225.2</ele><name>TP03280</name><time>2020-01-27T11:58:33Z</time></trkpt>
   <trkpt lat="31.204886" lon="35.279365"><ele>225.2</ele><name>TP03281</name><time>2020-01-27T11:58:35Z</time></trkpt>
   <trkpt lat="31.204886" lon="35.279367"><ele>225.2</ele><name>TP03282</name><time>2020-01-27T11:58:37Z</time></trkpt>
   <trkpt lat="31.204885" lon="35.279369"><ele>225.1</ele><name>TP03283</name><time>2020-01-27T11:58:38Z</time></trkpt>
   <trkpt lat="31.204885" lon="35.279371"><ele>225.1</ele><name>TP03284</name><time>2020-01-27T11:58:39Z</time></trkpt>
   <trkpt lat="31.204885" lon="35.279372"><ele>225.1</ele><name>TP03285</name><time>2020-01-27T11:58:41Z</time></trkpt>
   <trkpt lat="31.204885" lon="35.279374"><ele>225.1</ele><name>TP03286</name><time>2020-01-27T11:58:43Z</time></trkpt>
   <trkpt lat="31.204884" lon="35.279376"><ele>225.1</ele><name>TP03287</name><time>2020-01-27T11:58:45Z</time></trkpt>
   <trkpt lat="31.204884" lon="35.279378"><ele>225.1</ele><name>TP03288</name><time>2020-01-27T11:58:47Z</time></trkpt>
   <trkpt lat="31.204884" lon="35.279379"><ele>225.1</ele><name>TP03289</name><time>2020-01-27T11:58:49Z</time></trkpt>
   <trkpt lat="31.204883" lon="35.279381"><ele>225.1</ele><name>TP03290</name><time>2020-01-27T11:58:50Z</time></trkpt>
   <trkpt lat="31.204883" lon="35.279383"><ele>225.1</ele><name>TP03291</name><time>2020-01-27T11:58:51Z</time></trkpt>
   <trkpt lat="31.204856" lon="35.279423"><ele>224.9</ele><name>TP03292</name><time>2020-01-27T11:58:54Z</time></trkpt>
   <trkpt lat="31.204755" lon="35.279541"><ele>224.6</ele><name>TP03293</name><time>2020-01-27T11:58:56Z</time></trkpt>
   <trkpt lat="31.204677" lon="35.279631"><ele>224.5</ele><name>TP03294</name><time>2020-01-27T11:58:59Z</time></trkpt>
   <trkpt lat="31.204612" lon="35.279649"><ele>224.5</ele><name>TP03295</name><time>2020-01-27T11:59:02Z</time></trkpt>
   <trkpt lat="31.204585" lon="35.279664"><ele>224.5</ele><name>TP03296</name><time>2020-01-27T11:59:03Z</time></trkpt>
   <trkpt lat="31.204549" lon="35.279677"><ele>224.5</ele><name>TP03297</name><time>2020-01-27T11:59:06Z</time></trkpt>
   <trkpt lat="31.204537" lon="35.279681"><ele>224.5</ele><name>TP03298</name><time>2020-01-27T11:59:07Z</time></trkpt>
   <trkpt lat="31.20451" lon="35.279706"><ele>224.5</ele><name>TP03299</name><time>2020-01-27T11:59:08Z</time></trkpt>
   <trkpt lat="31.204475" lon="35.279715"><ele>224.5</ele><name>TP03300</name><time>2020-01-27T11:59:10Z</time></trkpt>
   <trkpt lat="31.204449" lon="35.279731"><ele>224.5</ele><name>TP03301</name><time>2020-01-27T11:59:11Z</time></trkpt>
   <trkpt lat="31.204424" lon="35.279757"><ele>224.6</ele><name>TP03302</name><time>2020-01-27T11:59:12Z</time></trkpt>
   <trkpt lat="31.20437" lon="35.279807"><ele>224.6</ele><name>TP03303</name><time>2020-01-27T11:59:14Z</time></trkpt>
   <trkpt lat="31.204332" lon="35.279818"><ele>224.7</ele><name>TP03304</name><time>2020-01-27T11:59:17Z</time></trkpt>
   <trkpt lat="31.204298" lon="35.279815"><ele>224.7</ele><name>TP03305</name><time>2020-01-27T11:59:18Z</time></trkpt>
   <trkpt lat="31.204272" lon="35.279817"><ele>224.7</ele><name>TP03306</name><time>2020-01-27T11:59:19Z</time></trkpt>
   <trkpt lat="31.204231" lon="35.279832"><ele>224.8</ele><name>TP03307</name><time>2020-01-27T11:59:21Z</time></trkpt>
   <trkpt lat="31.2042" lon="35.279838"><ele>224.8</ele><name>TP03308</name><time>2020-01-27T11:59:22Z</time></trkpt>
   <trkpt lat="31.204191" lon="35.279841"><ele>224.8</ele><name>TP03309</name><time>2020-01-27T11:59:23Z</time></trkpt>
   <trkpt lat="31.204102" lon="35.279868"><ele>225</ele><name>TP03310</name><time>2020-01-27T11:59:25Z</time></trkpt>
   <trkpt lat="31.204056" lon="35.27989"><ele>225</ele><name>TP03311</name><time>2020-01-27T11:59:28Z</time></trkpt>
   <trkpt lat="31.204029" lon="35.279908"><ele>225</ele><name>TP03312</name><time>2020-01-27T11:59:29Z</time></trkpt>
   <trkpt lat="31.203978" lon="35.279938"><ele>225.1</ele><name>TP03313</name><time>2020-01-27T11:59:30Z</time></trkpt>
   <trkpt lat="31.203913" lon="35.279963"><ele>225.1</ele><name>TP03314</name><time>2020-01-27T11:59:33Z</time></trkpt>
   <trkpt lat="31.203868" lon="35.279992"><ele>225.1</ele><name>TP03315</name><time>2020-01-27T11:59:36Z</time></trkpt>
   <trkpt lat="31.203827" lon="35.28001"><ele>225</ele><name>TP03316</name><time>2020-01-27T11:59:38Z</time></trkpt>
   <trkpt lat="31.203737" lon="35.280119"><ele>225</ele><name>TP03317</name><time>2020-01-27T11:59:39Z</time></trkpt>
   <trkpt lat="31.203702" lon="35.280144"><ele>225</ele><name>TP03318</name><time>2020-01-27T11:59:42Z</time></trkpt>
   <trkpt lat="31.203677" lon="35.280175"><ele>225.1</ele><name>TP03319</name><time>2020-01-27T11:59:43Z</time></trkpt>
   <trkpt lat="31.203647" lon="35.280231"><ele>225.2</ele><name>TP03320</name><time>2020-01-27T11:59:46Z</time></trkpt>
   <trkpt lat="31.203629" lon="35.280264"><ele>225.3</ele><name>TP03321</name><time>2020-01-27T11:59:47Z</time></trkpt>
   <trkpt lat="31.203628" lon="35.280275"><ele>225.3</ele><name>TP03322</name><time>2020-01-27T11:59:48Z</time></trkpt>
   <trkpt lat="31.203631" lon="35.280299"><ele>225.4</ele><name>TP03323</name><time>2020-01-27T11:59:50Z</time></trkpt>
   <trkpt lat="31.203629" lon="35.28033"><ele>225.5</ele><name>TP03324</name><time>2020-01-27T11:59:52Z</time></trkpt>
   <trkpt lat="31.203635" lon="35.280388"><ele>225.6</ele><name>TP03325</name><time>2020-01-27T11:59:53Z</time></trkpt>
   <trkpt lat="31.203642" lon="35.280418"><ele>225.7</ele><name>TP03326</name><time>2020-01-27T11:59:54Z</time></trkpt>
   <trkpt lat="31.203621" lon="35.280489"><ele>225.9</ele><name>TP03327</name><time>2020-01-27T11:59:55Z</time></trkpt>
   <trkpt lat="31.203587" lon="35.280542"><ele>226</ele><name>TP03328</name><time>2020-01-27T11:59:56Z</time></trkpt>
   <trkpt lat="31.203502" lon="35.280642"><ele>226.1</ele><name>TP03329</name><time>2020-01-27T11:59:59Z</time></trkpt>
   <trkpt lat="31.203468" lon="35.280686"><ele>226</ele><name>TP03330</name><time>2020-01-27T12:00:02Z</time></trkpt>
   <trkpt lat="31.203435" lon="35.280722"><ele>226</ele><name>TP03331</name><time>2020-01-27T12:00:03Z</time></trkpt>
   <trkpt lat="31.2034" lon="35.280741"><ele>226</ele><name>TP03332</name><time>2020-01-27T12:00:04Z</time></trkpt>
   <trkpt lat="31.203368" lon="35.280776"><ele>226</ele><name>TP03333</name><time>2020-01-27T12:00:06Z</time></trkpt>
   <trkpt lat="31.203342" lon="35.280801"><ele>225.9</ele><name>TP03334</name><time>2020-01-27T12:00:07Z</time></trkpt>
   <trkpt lat="31.203307" lon="35.28083"><ele>225.8</ele><name>TP03335</name><time>2020-01-27T12:00:08Z</time></trkpt>
   <trkpt lat="31.203284" lon="35.280848"><ele>225.7</ele><name>TP03336</name><time>2020-01-27T12:00:09Z</time></trkpt>
   <trkpt lat="31.203234" lon="35.280892"><ele>225.3</ele><name>TP03337</name><time>2020-01-27T12:00:10Z</time></trkpt>
   <trkpt lat="31.203201" lon="35.280934"><ele>225.1</ele><name>TP03338</name><time>2020-01-27T12:00:13Z</time></trkpt>
   <trkpt lat="31.20317" lon="35.280966"><ele>224.8</ele><name>TP03339</name><time>2020-01-27T12:00:14Z</time></trkpt>
   <trkpt lat="31.203145" lon="35.28099"><ele>224.6</ele><name>TP03340</name><time>2020-01-27T12:00:16Z</time></trkpt>
   <trkpt lat="31.203126" lon="35.281047"><ele>224.2</ele><name>TP03341</name><time>2020-01-27T12:00:17Z</time></trkpt>
   <trkpt lat="31.203118" lon="35.281069"><ele>224.1</ele><name>TP03342</name><time>2020-01-27T12:00:18Z</time></trkpt>
   <trkpt lat="31.203111" lon="35.281103"><ele>223.8</ele><name>TP03343</name><time>2020-01-27T12:00:20Z</time></trkpt>
   <trkpt lat="31.203103" lon="35.281132"><ele>223.5</ele><name>TP03344</name><time>2020-01-27T12:00:21Z</time></trkpt>
   <trkpt lat="31.203099" lon="35.281184"><ele>222.9</ele><name>TP03345</name><time>2020-01-27T12:00:23Z</time></trkpt>
   <trkpt lat="31.20309" lon="35.281204"><ele>222.6</ele><name>TP03346</name><time>2020-01-27T12:00:26Z</time></trkpt>
   <trkpt lat="31.203088" lon="35.28121"><ele>222.5</ele><name>TP03347</name><time>2020-01-27T12:00:27Z</time></trkpt>
   <trkpt lat="31.203086" lon="35.281217"><ele>222.4</ele><name>TP03348</name><time>2020-01-27T12:00:29Z</time></trkpt>
   <trkpt lat="31.203085" lon="35.281221"><ele>222.4</ele><name>TP03349</name><time>2020-01-27T12:00:31Z</time></trkpt>
   <trkpt lat="31.203083" lon="35.281223"><ele>222.3</ele><name>TP03350</name><time>2020-01-27T12:00:33Z</time></trkpt>
   <trkpt lat="31.20308" lon="35.281223"><ele>222.3</ele><name>TP03351</name><time>2020-01-27T12:00:35Z</time></trkpt>
   <trkpt lat="31.203077" lon="35.28122"><ele>222.2</ele><name>TP03352</name><time>2020-01-27T12:00:37Z</time></trkpt>
   <trkpt lat="31.203073" lon="35.281219"><ele>222.1</ele><name>TP03353</name><time>2020-01-27T12:00:38Z</time></trkpt>
   <trkpt lat="31.203069" lon="35.281239"><ele>221.9</ele><name>TP03354</name><time>2020-01-27T12:00:41Z</time></trkpt>
   <trkpt lat="31.20306" lon="35.281258"><ele>221.6</ele><name>TP03355</name><time>2020-01-27T12:00:43Z</time></trkpt>
   <trkpt lat="31.203058" lon="35.281264"><ele>221.6</ele><name>TP03356</name><time>2020-01-27T12:00:44Z</time></trkpt>
   <trkpt lat="31.203052" lon="35.281275"><ele>221.4</ele><name>TP03357</name><time>2020-01-27T12:00:47Z</time></trkpt>
   <trkpt lat="31.203031" lon="35.281306"><ele>220.9</ele><name>TP03358</name><time>2020-01-27T12:00:48Z</time></trkpt>
   <trkpt lat="31.203023" lon="35.28132"><ele>220.7</ele><name>TP03359</name><time>2020-01-27T12:00:50Z</time></trkpt>
   <trkpt lat="31.203014" lon="35.281337"><ele>220.5</ele><name>TP03360</name><time>2020-01-27T12:00:51Z</time></trkpt>
   <trkpt lat="31.20301" lon="35.281344"><ele>220.4</ele><name>TP03361</name><time>2020-01-27T12:00:53Z</time></trkpt>
   <trkpt lat="31.203009" lon="35.281346"><ele>220.3</ele><name>TP03362</name><time>2020-01-27T12:00:54Z</time></trkpt>
   <trkpt lat="31.203007" lon="35.281349"><ele>220.3</ele><name>TP03363</name><time>2020-01-27T12:00:56Z</time></trkpt>
   <trkpt lat="31.203005" lon="35.281348"><ele>220.3</ele><name>TP03364</name><time>2020-01-27T12:00:57Z</time></trkpt>
   <trkpt lat="31.202996" lon="35.281344"><ele>220.1</ele><name>TP03365</name><time>2020-01-27T12:01:00Z</time></trkpt>
   <trkpt lat="31.202957" lon="35.281356"><ele>219.8</ele><name>TP03366</name><time>2020-01-27T12:01:02Z</time></trkpt>
   <trkpt lat="31.202923" lon="35.281373"><ele>219.5</ele><name>TP03367</name><time>2020-01-27T12:01:03Z</time></trkpt>
   <trkpt lat="31.202887" lon="35.281412"><ele>219.1</ele><name>TP03368</name><time>2020-01-27T12:01:04Z</time></trkpt>
   <trkpt lat="31.202871" lon="35.281452"><ele>218.9</ele><name>TP03369</name><time>2020-01-27T12:01:06Z</time></trkpt>
   <trkpt lat="31.20284" lon="35.281527"><ele>218.6</ele><name>TP03370</name><time>2020-01-27T12:01:09Z</time></trkpt>
   <trkpt lat="31.202808" lon="35.281607"><ele>218.3</ele><name>TP03371</name><time>2020-01-27T12:01:12Z</time></trkpt>
   <trkpt lat="31.202764" lon="35.281694"><ele>218.2</ele><name>TP03372</name><time>2020-01-27T12:01:15Z</time></trkpt>
   <trkpt lat="31.202709" lon="35.281743"><ele>218.3</ele><name>TP03373</name><time>2020-01-27T12:01:18Z</time></trkpt>
   <trkpt lat="31.202696" lon="35.281759"><ele>218.4</ele><name>TP03374</name><time>2020-01-27T12:01:20Z</time></trkpt>
   <trkpt lat="31.202701" lon="35.281773"><ele>218.4</ele><name>TP03375</name><time>2020-01-27T12:01:22Z</time></trkpt>
   <trkpt lat="31.202717" lon="35.281762"><ele>218.5</ele><name>TP03376</name><time>2020-01-27T12:01:23Z</time></trkpt>
   <trkpt lat="31.202731" lon="35.281741"><ele>218.5</ele><name>TP03377</name><time>2020-01-27T12:01:25Z</time></trkpt>
   <trkpt lat="31.202733" lon="35.281731"><ele>218.6</ele><name>TP03378</name><time>2020-01-27T12:01:26Z</time></trkpt>
   <trkpt lat="31.202736" lon="35.281722"><ele>218.6</ele><name>TP03379</name><time>2020-01-27T12:01:27Z</time></trkpt>
   <trkpt lat="31.202742" lon="35.281719"><ele>218.6</ele><name>TP03380</name><time>2020-01-27T12:01:29Z</time></trkpt>
   <trkpt lat="31.202738" lon="35.281723"><ele>218.6</ele><name>TP03381</name><time>2020-01-27T12:01:30Z</time></trkpt>
   <trkpt lat="31.202735" lon="35.281727"><ele>218.6</ele><name>TP03382</name><time>2020-01-27T12:01:31Z</time></trkpt>
   <trkpt lat="31.202732" lon="35.281731"><ele>218.7</ele><name>TP03383</name><time>2020-01-27T12:01:33Z</time></trkpt>
   <trkpt lat="31.202728" lon="35.281735"><ele>218.7</ele><name>TP03384</name><time>2020-01-27T12:01:35Z</time></trkpt>
   <trkpt lat="31.202725" lon="35.281739"><ele>218.7</ele><name>TP03385</name><time>2020-01-27T12:01:36Z</time></trkpt>
   <trkpt lat="31.202722" lon="35.281742"><ele>218.7</ele><name>TP03386</name><time>2020-01-27T12:01:37Z</time></trkpt>
   <trkpt lat="31.202718" lon="35.281746"><ele>218.7</ele><name>TP03387</name><time>2020-01-27T12:01:38Z</time></trkpt>
   <trkpt lat="31.202715" lon="35.28175"><ele>218.7</ele><name>TP03388</name><time>2020-01-27T12:01:40Z</time></trkpt>
   <trkpt lat="31.202712" lon="35.281754"><ele>218.8</ele><name>TP03389</name><time>2020-01-27T12:01:42Z</time></trkpt>
   <trkpt lat="31.202708" lon="35.281758"><ele>218.8</ele><name>TP03390</name><time>2020-01-27T12:01:43Z</time></trkpt>
   <trkpt lat="31.202705" lon="35.281762"><ele>218.8</ele><name>TP03391</name><time>2020-01-27T12:01:44Z</time></trkpt>
   <trkpt lat="31.202685" lon="35.281801"><ele>218.9</ele><name>TP03392</name><time>2020-01-27T12:01:47Z</time></trkpt>
   <trkpt lat="31.202666" lon="35.281834"><ele>219.1</ele><name>TP03393</name><time>2020-01-27T12:01:48Z</time></trkpt>
   <trkpt lat="31.202629" lon="35.281902"><ele>219.3</ele><name>TP03394</name><time>2020-01-27T12:01:49Z</time></trkpt>
   <trkpt lat="31.202582" lon="35.281991"><ele>219.6</ele><name>TP03395</name><time>2020-01-27T12:01:52Z</time></trkpt>
   <trkpt lat="31.202546" lon="35.282071"><ele>219.9</ele><name>TP03396</name><time>2020-01-27T12:01:55Z</time></trkpt>
   <trkpt lat="31.202527" lon="35.282106"><ele>220</ele><name>TP03397</name><time>2020-01-27T12:01:56Z</time></trkpt>
   <trkpt lat="31.202517" lon="35.282135"><ele>220.1</ele><name>TP03398</name><time>2020-01-27T12:01:57Z</time></trkpt>
   <trkpt lat="31.202501" lon="35.28222"><ele>220.3</ele><name>TP03399</name><time>2020-01-27T12:02:00Z</time></trkpt>
   <trkpt lat="31.202488" lon="35.282264"><ele>220.4</ele><name>TP03400</name><time>2020-01-27T12:02:01Z</time></trkpt>
   <trkpt lat="31.202478" lon="35.282306"><ele>220.4</ele><name>TP03401</name><time>2020-01-27T12:02:03Z</time></trkpt>
   <trkpt lat="31.20247" lon="35.28235"><ele>220.4</ele><name>TP03402</name><time>2020-01-27T12:02:05Z</time></trkpt>
   <trkpt lat="31.202465" lon="35.282421"><ele>220.3</ele><name>TP03403</name><time>2020-01-27T12:02:06Z</time></trkpt>
   <trkpt lat="31.202464" lon="35.282515"><ele>219.9</ele><name>TP03404</name><time>2020-01-27T12:02:09Z</time></trkpt>
   <trkpt lat="31.202465" lon="35.282551"><ele>219.8</ele><name>TP03405</name><time>2020-01-27T12:02:10Z</time></trkpt>
   <trkpt lat="31.202469" lon="35.282587"><ele>219.7</ele><name>TP03406</name><time>2020-01-27T12:02:11Z</time></trkpt>
   <trkpt lat="31.202475" lon="35.282659"><ele>219.4</ele><name>TP03407</name><time>2020-01-27T12:02:13Z</time></trkpt>
   <trkpt lat="31.202502" lon="35.282727"><ele>219.1</ele><name>TP03408</name><time>2020-01-27T12:02:16Z</time></trkpt>
   <trkpt lat="31.202517" lon="35.282757"><ele>219</ele><name>TP03409</name><time>2020-01-27T12:02:17Z</time></trkpt>
   <trkpt lat="31.202532" lon="35.282781"><ele>218.9</ele><name>TP03410</name><time>2020-01-27T12:02:18Z</time></trkpt>
   <trkpt lat="31.202544" lon="35.282804"><ele>218.8</ele><name>TP03411</name><time>2020-01-27T12:02:21Z</time></trkpt>
   <trkpt lat="31.202557" lon="35.282856"><ele>218.6</ele><name>TP03412</name><time>2020-01-27T12:02:22Z</time></trkpt>
   <trkpt lat="31.202578" lon="35.282901"><ele>218.5</ele><name>TP03413</name><time>2020-01-27T12:02:25Z</time></trkpt>
   <trkpt lat="31.202566" lon="35.282962"><ele>218.4</ele><name>TP03414</name><time>2020-01-27T12:02:26Z</time></trkpt>
   <trkpt lat="31.202545" lon="35.282981"><ele>218.3</ele><name>TP03415</name><time>2020-01-27T12:02:29Z</time></trkpt>
   <trkpt lat="31.202535" lon="35.28302"><ele>218.3</ele><name>TP03416</name><time>2020-01-27T12:02:30Z</time></trkpt>
   <trkpt lat="31.202531" lon="35.283053"><ele>218.2</ele><name>TP03417</name><time>2020-01-27T12:02:31Z</time></trkpt>
   <trkpt lat="31.20253" lon="35.283142"><ele>218</ele><name>TP03418</name><time>2020-01-27T12:02:32Z</time></trkpt>
   <trkpt lat="31.202512" lon="35.283214"><ele>217.9</ele><name>TP03419</name><time>2020-01-27T12:02:35Z</time></trkpt>
   <trkpt lat="31.202506" lon="35.283249"><ele>217.8</ele><name>TP03420</name><time>2020-01-27T12:02:36Z</time></trkpt>
   <trkpt lat="31.202494" lon="35.283341"><ele>217.6</ele><name>TP03421</name><time>2020-01-27T12:02:39Z</time></trkpt>
   <trkpt lat="31.202489" lon="35.283384"><ele>217.5</ele><name>TP03422</name><time>2020-01-27T12:02:40Z</time></trkpt>
   <trkpt lat="31.202481" lon="35.283448"><ele>217.3</ele><name>TP03423</name><time>2020-01-27T12:02:42Z</time></trkpt>
   <trkpt lat="31.202465" lon="35.283476"><ele>217.3</ele><name>TP03424</name><time>2020-01-27T12:02:43Z</time></trkpt>
   <trkpt lat="31.202443" lon="35.283502"><ele>217.2</ele><name>TP03425</name><time>2020-01-27T12:02:44Z</time></trkpt>
   <trkpt lat="31.202381" lon="35.283592"><ele>217</ele><name>TP03426</name><time>2020-01-27T12:02:47Z</time></trkpt>
   <trkpt lat="31.202354" lon="35.283653"><ele>216.8</ele><name>TP03427</name><time>2020-01-27T12:02:50Z</time></trkpt>
   <trkpt lat="31.202312" lon="35.28374"><ele>216.6</ele><name>TP03428</name><time>2020-01-27T12:02:51Z</time></trkpt>
   <trkpt lat="31.202261" lon="35.283806"><ele>216.5</ele><name>TP03429</name><time>2020-01-27T12:02:53Z</time></trkpt>
   <trkpt lat="31.202221" lon="35.283845"><ele>216.5</ele><name>TP03430</name><time>2020-01-27T12:02:55Z</time></trkpt>
   <trkpt lat="31.202188" lon="35.283863"><ele>216.4</ele><name>TP03431</name><time>2020-01-27T12:02:57Z</time></trkpt>
   <trkpt lat="31.202161" lon="35.283888"><ele>216.4</ele><name>TP03432</name><time>2020-01-27T12:02:58Z</time></trkpt>
   <trkpt lat="31.202132" lon="35.28391"><ele>216.4</ele><name>TP03433</name><time>2020-01-27T12:02:59Z</time></trkpt>
   <trkpt lat="31.202109" lon="35.283935"><ele>216.3</ele><name>TP03434</name><time>2020-01-27T12:03:00Z</time></trkpt>
   <trkpt lat="31.202051" lon="35.28399"><ele>216.2</ele><name>TP03435</name><time>2020-01-27T12:03:01Z</time></trkpt>
   <trkpt lat="31.201977" lon="35.284055"><ele>216.2</ele><name>TP03436</name><time>2020-01-27T12:03:04Z</time></trkpt>
   <trkpt lat="31.201935" lon="35.284086"><ele>216.1</ele><name>TP03437</name><time>2020-01-27T12:03:07Z</time></trkpt>
   <trkpt lat="31.201916" lon="35.284126"><ele>216</ele><name>TP03438</name><time>2020-01-27T12:03:09Z</time></trkpt>
   <trkpt lat="31.201893" lon="35.284151"><ele>216</ele><name>TP03439</name><time>2020-01-27T12:03:10Z</time></trkpt>
   <trkpt lat="31.201883" lon="35.284156"><ele>216</ele><name>TP03440</name><time>2020-01-27T12:03:11Z</time></trkpt>
   <trkpt lat="31.201838" lon="35.284166"><ele>215.9</ele><name>TP03441</name><time>2020-01-27T12:03:12Z</time></trkpt>
   <trkpt lat="31.201821" lon="35.284167"><ele>215.9</ele><name>TP03442</name><time>2020-01-27T12:03:14Z</time></trkpt>
   <trkpt lat="31.201808" lon="35.284171"><ele>215.9</ele><name>TP03443</name><time>2020-01-27T12:03:16Z</time></trkpt>
   <trkpt lat="31.201767" lon="35.284222"><ele>215.8</ele><name>TP03444</name><time>2020-01-27T12:03:18Z</time></trkpt>
   <trkpt lat="31.20177" lon="35.28425"><ele>215.8</ele><name>TP03445</name><time>2020-01-27T12:03:20Z</time></trkpt>
   <trkpt lat="31.201774" lon="35.284259"><ele>215.8</ele><name>TP03446</name><time>2020-01-27T12:03:21Z</time></trkpt>
   <trkpt lat="31.201777" lon="35.284268"><ele>215.8</ele><name>TP03447</name><time>2020-01-27T12:03:22Z</time></trkpt>
   <trkpt lat="31.20178" lon="35.284278"><ele>215.8</ele><name>TP03448</name><time>2020-01-27T12:03:25Z</time></trkpt>
   <trkpt lat="31.201783" lon="35.284287"><ele>215.8</ele><name>TP03449</name><time>2020-01-27T12:03:26Z</time></trkpt>
   <trkpt lat="31.201787" lon="35.284296"><ele>215.8</ele><name>TP03450</name><time>2020-01-27T12:03:27Z</time></trkpt>
   <trkpt lat="31.20179" lon="35.284305"><ele>215.8</ele><name>TP03451</name><time>2020-01-27T12:03:28Z</time></trkpt>
   <trkpt lat="31.201801" lon="35.284329"><ele>215.8</ele><name>TP03452</name><time>2020-01-27T12:03:31Z</time></trkpt>
   <trkpt lat="31.201794" lon="35.284337"><ele>215.8</ele><name>TP03453</name><time>2020-01-27T12:03:33Z</time></trkpt>
   <trkpt lat="31.201787" lon="35.284345"><ele>215.8</ele><name>TP03454</name><time>2020-01-27T12:03:36Z</time></trkpt>
   <trkpt lat="31.201779" lon="35.284352"><ele>215.8</ele><name>TP03455</name><time>2020-01-27T12:03:38Z</time></trkpt>
   <trkpt lat="31.201772" lon="35.28436"><ele>215.8</ele><name>TP03456</name><time>2020-01-27T12:03:41Z</time></trkpt>
   <trkpt lat="31.201765" lon="35.284368"><ele>215.8</ele><name>TP03457</name><time>2020-01-27T12:03:42Z</time></trkpt>
   <trkpt lat="31.201758" lon="35.284376"><ele>215.8</ele><name>TP03458</name><time>2020-01-27T12:03:43Z</time></trkpt>
   <trkpt lat="31.201751" lon="35.284389"><ele>215.8</ele><name>TP03459</name><time>2020-01-27T12:03:44Z</time></trkpt>
   <trkpt lat="31.201737" lon="35.2844"><ele>215.8</ele><name>TP03460</name><time>2020-01-27T12:03:45Z</time></trkpt>
   <trkpt lat="31.201717" lon="35.284417"><ele>215.8</ele><name>TP03461</name><time>2020-01-27T12:03:46Z</time></trkpt>
   <trkpt lat="31.201712" lon="35.284424"><ele>215.7</ele><name>TP03462</name><time>2020-01-27T12:03:47Z</time></trkpt>
   <trkpt lat="31.201717" lon="35.284449"><ele>215.7</ele><name>TP03463</name><time>2020-01-27T12:03:50Z</time></trkpt>
   <trkpt lat="31.201723" lon="35.284472"><ele>215.7</ele><name>TP03464</name><time>2020-01-27T12:03:53Z</time></trkpt>
   <trkpt lat="31.201733" lon="35.284496"><ele>215.7</ele><name>TP03465</name><time>2020-01-27T12:03:54Z</time></trkpt>
   <trkpt lat="31.201744" lon="35.284515"><ele>215.7</ele><name>TP03466</name><time>2020-01-27T12:03:56Z</time></trkpt>
   <trkpt lat="31.20175" lon="35.28452"><ele>215.7</ele><name>TP03467</name><time>2020-01-27T12:03:58Z</time></trkpt>
   <trkpt lat="31.201757" lon="35.284526"><ele>215.7</ele><name>TP03468</name><time>2020-01-27T12:03:59Z</time></trkpt>
   <trkpt lat="31.201777" lon="35.284548"><ele>215.6</ele><name>TP03469</name><time>2020-01-27T12:04:00Z</time></trkpt>
   <trkpt lat="31.201781" lon="35.284556"><ele>215.6</ele><name>TP03470</name><time>2020-01-27T12:04:03Z</time></trkpt>
   <trkpt lat="31.201786" lon="35.284569"><ele>215.6</ele><name>TP03471</name><time>2020-01-27T12:04:04Z</time></trkpt>
   <trkpt lat="31.201789" lon="35.284582"><ele>215.6</ele><name>TP03472</name><time>2020-01-27T12:04:05Z</time></trkpt>
   <trkpt lat="31.201791" lon="35.284593"><ele>215.5</ele><name>TP03473</name><time>2020-01-27T12:04:06Z</time></trkpt>
   <trkpt lat="31.201805" lon="35.284623"><ele>215.5</ele><name>TP03474</name><time>2020-01-27T12:04:09Z</time></trkpt>
   <trkpt lat="31.201811" lon="35.284629"><ele>215.5</ele><name>TP03475</name><time>2020-01-27T12:04:10Z</time></trkpt>
   <trkpt lat="31.201817" lon="35.28464"><ele>215.4</ele><name>TP03476</name><time>2020-01-27T12:04:12Z</time></trkpt>
   <trkpt lat="31.201819" lon="35.284644"><ele>215.4</ele><name>TP03477</name><time>2020-01-27T12:04:13Z</time></trkpt>
   <trkpt lat="31.201821" lon="35.284637"><ele>215.4</ele><name>TP03478</name><time>2020-01-27T12:04:15Z</time></trkpt>
   <trkpt lat="31.201824" lon="35.284644"><ele>215.4</ele><name>TP03479</name><time>2020-01-27T12:04:17Z</time></trkpt>
   <trkpt lat="31.201827" lon="35.284651"><ele>215.4</ele><name>TP03480</name><time>2020-01-27T12:04:19Z</time></trkpt>
   <trkpt lat="31.201829" lon="35.284655"><ele>215.4</ele><name>TP03481</name><time>2020-01-27T12:04:21Z</time></trkpt>
   <trkpt lat="31.201832" lon="35.284657"><ele>215.4</ele><name>TP03482</name><time>2020-01-27T12:04:23Z</time></trkpt>
   <trkpt lat="31.201829" lon="35.284669"><ele>215.4</ele><name>TP03483</name><time>2020-01-27T12:04:25Z</time></trkpt>
   <trkpt lat="31.201826" lon="35.284668"><ele>215.3</ele><name>TP03484</name><time>2020-01-27T12:04:26Z</time></trkpt>
   <trkpt lat="31.201824" lon="35.284644"><ele>215.3</ele><name>TP03485</name><time>2020-01-27T12:04:28Z</time></trkpt>
   <trkpt lat="31.201825" lon="35.28464"><ele>215.3</ele><name>TP03486</name><time>2020-01-27T12:04:30Z</time></trkpt>
   <trkpt lat="31.201825" lon="35.28464"><ele>215.3</ele><name>TP03487</name><time>2020-01-27T12:04:31Z</time></trkpt>
   <trkpt lat="31.201825" lon="35.284639"><ele>215.3</ele><name>TP03488</name><time>2020-01-27T12:04:33Z</time></trkpt>
   <trkpt lat="31.201825" lon="35.284639"><ele>215.3</ele><name>TP03489</name><time>2020-01-27T12:04:34Z</time></trkpt>
   <trkpt lat="31.201825" lon="35.284639"><ele>215.3</ele><name>TP03490</name><time>2020-01-27T12:04:36Z</time></trkpt>
   <trkpt lat="31.201825" lon="35.284639"><ele>215.3</ele><name>TP03491</name><time>2020-01-27T12:04:38Z</time></trkpt>
   <trkpt lat="31.201825" lon="35.284639"><ele>215.3</ele><name>TP03492</name><time>2020-01-27T12:04:40Z</time></trkpt>
   <trkpt lat="31.201825" lon="35.284639"><ele>215.3</ele><name>TP03493</name><time>2020-01-27T12:04:42Z</time></trkpt>
   <trkpt lat="31.201825" lon="35.284639"><ele>215.3</ele><name>TP03494</name><time>2020-01-27T12:04:43Z</time></trkpt>
   <trkpt lat="31.201825" lon="35.284639"><ele>215.3</ele><name>TP03495</name><time>2020-01-27T12:04:45Z</time></trkpt>
   <trkpt lat="31.201825" lon="35.284639"><ele>215.3</ele><name>TP03496</name><time>2020-01-27T12:04:47Z</time></trkpt>
   <trkpt lat="31.201825" lon="35.284639"><ele>215.3</ele><name>TP03497</name><time>2020-01-27T12:04:48Z</time></trkpt>
   <trkpt lat="31.201825" lon="35.284639"><ele>215.3</ele><name>TP03498</name><time>2020-01-27T12:04:49Z</time></trkpt>
   <trkpt lat="31.201825" lon="35.284639"><ele>215.3</ele><name>TP03499</name><time>2020-01-27T12:04:51Z</time></trkpt>
   <trkpt lat="31.201825" lon="35.284639"><ele>215.3</ele><name>TP03500</name><time>2020-01-27T12:04:52Z</time></trkpt>
   <trkpt lat="31.201825" lon="35.284639"><ele>215.3</ele><name>TP03501</name><time>2020-01-27T12:04:54Z</time></trkpt>
   <trkpt lat="31.201825" lon="35.284639"><ele>215.3</ele><name>TP03502</name><time>2020-01-27T12:04:56Z</time></trkpt>
   <trkpt lat="31.201828" lon="35.284646"><ele>215.2</ele><name>TP03503</name><time>2020-01-27T12:04:58Z</time></trkpt>
   <trkpt lat="31.201832" lon="35.284653"><ele>215.2</ele><name>TP03504</name><time>2020-01-27T12:05:00Z</time></trkpt>
   <trkpt lat="31.201833" lon="35.284655"><ele>215.2</ele><name>TP03505</name><time>2020-01-27T12:05:02Z</time></trkpt>
   <trkpt lat="31.201832" lon="35.284655"><ele>215.2</ele><name>TP03506</name><time>2020-01-27T12:05:04Z</time></trkpt>
   <trkpt lat="31.201832" lon="35.284655"><ele>215.2</ele><name>TP03507</name><time>2020-01-27T12:05:05Z</time></trkpt>
   <trkpt lat="31.201832" lon="35.284655"><ele>215.2</ele><name>TP03508</name><time>2020-01-27T12:05:06Z</time></trkpt>
   <trkpt lat="31.201833" lon="35.284656"><ele>215.2</ele><name>TP03509</name><time>2020-01-27T12:05:08Z</time></trkpt>
   <trkpt lat="31.201833" lon="35.284656"><ele>215.2</ele><name>TP03510</name><time>2020-01-27T12:05:09Z</time></trkpt>
   <trkpt lat="31.201832" lon="35.284657"><ele>215.2</ele><name>TP03511</name><time>2020-01-27T12:05:10Z</time></trkpt>
   <trkpt lat="31.201832" lon="35.284657"><ele>215.2</ele><name>TP03512</name><time>2020-01-27T12:05:12Z</time></trkpt>
   <trkpt lat="31.201832" lon="35.284657"><ele>215.2</ele><name>TP03513</name><time>2020-01-27T12:05:13Z</time></trkpt>
   <trkpt lat="31.201832" lon="35.284658"><ele>215.2</ele><name>TP03514</name><time>2020-01-27T12:05:14Z</time></trkpt>
   <trkpt lat="31.201831" lon="35.284657"><ele>215.2</ele><name>TP03515</name><time>2020-01-27T12:05:16Z</time></trkpt>
   <trkpt lat="31.201831" lon="35.284657"><ele>215.2</ele><name>TP03516</name><time>2020-01-27T12:05:17Z</time></trkpt>
   <trkpt lat="31.201832" lon="35.284659"><ele>215.2</ele><name>TP03517</name><time>2020-01-27T12:05:19Z</time></trkpt>
   <trkpt lat="31.201838" lon="35.284666"><ele>215.2</ele><name>TP03518</name><time>2020-01-27T12:05:21Z</time></trkpt>
   <trkpt lat="31.20184" lon="35.284667"><ele>215.2</ele><name>TP03519</name><time>2020-01-27T12:05:22Z</time></trkpt>
   <trkpt lat="31.20184" lon="35.284671"><ele>215.1</ele><name>TP03520</name><time>2020-01-27T12:05:24Z</time></trkpt>
   <trkpt lat="31.201848" lon="35.284702"><ele>215.1</ele><name>TP03521</name><time>2020-01-27T12:05:26Z</time></trkpt>
   <trkpt lat="31.201871" lon="35.284723"><ele>215</ele><name>TP03522</name><time>2020-01-27T12:05:28Z</time></trkpt>
   <trkpt lat="31.201887" lon="35.28473"><ele>214.9</ele><name>TP03523</name><time>2020-01-27T12:05:29Z</time></trkpt>
   <trkpt lat="31.201901" lon="35.284739"><ele>214.8</ele><name>TP03524</name><time>2020-01-27T12:05:30Z</time></trkpt>
   <trkpt lat="31.201928" lon="35.284776"><ele>214.7</ele><name>TP03525</name><time>2020-01-27T12:05:31Z</time></trkpt>
   <trkpt lat="31.201941" lon="35.284803"><ele>214.6</ele><name>TP03526</name><time>2020-01-27T12:05:34Z</time></trkpt>
   <trkpt lat="31.201954" lon="35.284831"><ele>214.5</ele><name>TP03527</name><time>2020-01-27T12:05:35Z</time></trkpt>
   <trkpt lat="31.201971" lon="35.284916"><ele>214.1</ele><name>TP03528</name><time>2020-01-27T12:05:38Z</time></trkpt>
   <trkpt lat="31.201983" lon="35.284949"><ele>214</ele><name>TP03529</name><time>2020-01-27T12:05:40Z</time></trkpt>
   <trkpt lat="31.201994" lon="35.284983"><ele>214</ele><name>TP03530</name><time>2020-01-27T12:05:41Z</time></trkpt>
   <trkpt lat="31.20203" lon="35.285055"><ele>213.9</ele><name>TP03531</name><time>2020-01-27T12:05:44Z</time></trkpt>
   <trkpt lat="31.202038" lon="35.285082"><ele>213.9</ele><name>TP03532</name><time>2020-01-27T12:05:47Z</time></trkpt>
   <trkpt lat="31.202036" lon="35.285077"><ele>213.9</ele><name>TP03533</name><time>2020-01-27T12:05:48Z</time></trkpt>
   <trkpt lat="31.202035" lon="35.28507"><ele>214</ele><name>TP03534</name><time>2020-01-27T12:05:50Z</time></trkpt>
   <trkpt lat="31.202035" lon="35.285065"><ele>214</ele><name>TP03535</name><time>2020-01-27T12:05:52Z</time></trkpt>
   <trkpt lat="31.202037" lon="35.285064"><ele>214</ele><name>TP03536</name><time>2020-01-27T12:05:55Z</time></trkpt>
   <trkpt lat="31.202035" lon="35.285062"><ele>214</ele><name>TP03537</name><time>2020-01-27T12:05:56Z</time></trkpt>
   <trkpt lat="31.20203" lon="35.285055"><ele>214</ele><name>TP03538</name><time>2020-01-27T12:05:57Z</time></trkpt>
   <trkpt lat="31.202027" lon="35.285051"><ele>214</ele><name>TP03539</name><time>2020-01-27T12:05:59Z</time></trkpt>
   <trkpt lat="31.202026" lon="35.28505"><ele>214.1</ele><name>TP03540</name><time>2020-01-27T12:06:00Z</time></trkpt>
   <trkpt lat="31.202019" lon="35.285047"><ele>214.1</ele><name>TP03541</name><time>2020-01-27T12:06:01Z</time></trkpt>
   <trkpt lat="31.202017" lon="35.285047"><ele>214.1</ele><name>TP03542</name><time>2020-01-27T12:06:02Z</time></trkpt>
   <trkpt lat="31.202015" lon="35.285046"><ele>214.1</ele><name>TP03543</name><time>2020-01-27T12:06:04Z</time></trkpt>
   <trkpt lat="31.202015" lon="35.285046"><ele>214.1</ele><name>TP03544</name><time>2020-01-27T12:06:05Z</time></trkpt>
   <trkpt lat="31.202015" lon="35.285046"><ele>214.1</ele><name>TP03545</name><time>2020-01-27T12:06:06Z</time></trkpt>
   <trkpt lat="31.202015" lon="35.285045"><ele>214.1</ele><name>TP03546</name><time>2020-01-27T12:06:08Z</time></trkpt>
   <trkpt lat="31.202016" lon="35.285045"><ele>214.1</ele><name>TP03547</name><time>2020-01-27T12:06:09Z</time></trkpt>
   <trkpt lat="31.202016" lon="35.285045"><ele>214.1</ele><name>TP03548</name><time>2020-01-27T12:06:10Z</time></trkpt>
   <trkpt lat="31.202015" lon="35.285045"><ele>214.1</ele><name>TP03549</name><time>2020-01-27T12:06:12Z</time></trkpt>
   <trkpt lat="31.202016" lon="35.285045"><ele>214.1</ele><name>TP03550</name><time>2020-01-27T12:06:14Z</time></trkpt>
   <trkpt lat="31.202015" lon="35.285045"><ele>214.1</ele><name>TP03551</name><time>2020-01-27T12:06:16Z</time></trkpt>
   <trkpt lat="31.202014" lon="35.285045"><ele>214.1</ele><name>TP03552</name><time>2020-01-27T12:06:18Z</time></trkpt>
   <trkpt lat="31.202014" lon="35.285045"><ele>214.1</ele><name>TP03553</name><time>2020-01-27T12:06:19Z</time></trkpt>
   <trkpt lat="31.202014" lon="35.285045"><ele>214.1</ele><name>TP03554</name><time>2020-01-27T12:06:20Z</time></trkpt>
   <trkpt lat="31.202013" lon="35.285045"><ele>214.1</ele><name>TP03555</name><time>2020-01-27T12:06:22Z</time></trkpt>
   <trkpt lat="31.202013" lon="35.285045"><ele>214.1</ele><name>TP03556</name><time>2020-01-27T12:06:23Z</time></trkpt>
   <trkpt lat="31.202013" lon="35.285044"><ele>214.1</ele><name>TP03557</name><time>2020-01-27T12:06:24Z</time></trkpt>
   <trkpt lat="31.202013" lon="35.285043"><ele>214.1</ele><name>TP03558</name><time>2020-01-27T12:06:26Z</time></trkpt>
   <trkpt lat="31.202013" lon="35.285043"><ele>214.1</ele><name>TP03559</name><time>2020-01-27T12:06:28Z</time></trkpt>
   <trkpt lat="31.202013" lon="35.285043"><ele>214.1</ele><name>TP03560</name><time>2020-01-27T12:06:29Z</time></trkpt>
   <trkpt lat="31.202013" lon="35.285043"><ele>214.1</ele><name>TP03561</name><time>2020-01-27T12:06:31Z</time></trkpt>
   <trkpt lat="31.202012" lon="35.285043"><ele>214.1</ele><name>TP03562</name><time>2020-01-27T12:06:32Z</time></trkpt>
   <trkpt lat="31.202015" lon="35.285045"><ele>214.1</ele><name>TP03563</name><time>2020-01-27T12:06:34Z</time></trkpt>
   <trkpt lat="31.202037" lon="35.285061"><ele>214.2</ele><name>TP03564</name><time>2020-01-27T12:06:36Z</time></trkpt>
   <trkpt lat="31.202058" lon="35.285073"><ele>214.3</ele><name>TP03565</name><time>2020-01-27T12:06:37Z</time></trkpt>
   <trkpt lat="31.202103" lon="35.285121"><ele>214.6</ele><name>TP03566</name><time>2020-01-27T12:06:39Z</time></trkpt>
   <trkpt lat="31.202123" lon="35.285145"><ele>214.7</ele><name>TP03567</name><time>2020-01-27T12:06:40Z</time></trkpt>
   <trkpt lat="31.202163" lon="35.285204"><ele>214.8</ele><name>TP03568</name><time>2020-01-27T12:06:42Z</time></trkpt>
   <trkpt lat="31.202173" lon="35.285239"><ele>214.9</ele><name>TP03569</name><time>2020-01-27T12:06:45Z</time></trkpt>
   <trkpt lat="31.202186" lon="35.28529"><ele>214.9</ele><name>TP03570</name><time>2020-01-27T12:06:46Z</time></trkpt>
   <trkpt lat="31.202177" lon="35.285329"><ele>214.8</ele><name>TP03571</name><time>2020-01-27T12:06:47Z</time></trkpt>
   <trkpt lat="31.202183" lon="35.285357"><ele>214.8</ele><name>TP03572</name><time>2020-01-27T12:06:48Z</time></trkpt>
   <trkpt lat="31.202185" lon="35.285385"><ele>214.8</ele><name>TP03573</name><time>2020-01-27T12:06:51Z</time></trkpt>
   <trkpt lat="31.202185" lon="35.285423"><ele>214.8</ele><name>TP03574</name><time>2020-01-27T12:06:52Z</time></trkpt>
   <trkpt lat="31.202202" lon="35.285453"><ele>214.8</ele><name>TP03575</name><time>2020-01-27T12:06:55Z</time></trkpt>
   <trkpt lat="31.202208" lon="35.285464"><ele>214.8</ele><name>TP03576</name><time>2020-01-27T12:06:56Z</time></trkpt>
   <trkpt lat="31.202221" lon="35.285499"><ele>214.8</ele><name>TP03577</name><time>2020-01-27T12:06:57Z</time></trkpt>
   <trkpt lat="31.20222" lon="35.285513"><ele>214.8</ele><name>TP03578</name><time>2020-01-27T12:06:58Z</time></trkpt>
   <trkpt lat="31.202206" lon="35.285548"><ele>214.8</ele><name>TP03579</name><time>2020-01-27T12:06:59Z</time></trkpt>
   <trkpt lat="31.202217" lon="35.285575"><ele>214.8</ele><name>TP03580</name><time>2020-01-27T12:07:01Z</time></trkpt>
   <trkpt lat="31.202221" lon="35.285587"><ele>214.8</ele><name>TP03581</name><time>2020-01-27T12:07:02Z</time></trkpt>
   <trkpt lat="31.202224" lon="35.2856"><ele>214.8</ele><name>TP03582</name><time>2020-01-27T12:07:04Z</time></trkpt>
   <trkpt lat="31.202228" lon="35.285613"><ele>214.8</ele><name>TP03583</name><time>2020-01-27T12:07:06Z</time></trkpt>
   <trkpt lat="31.202232" lon="35.285626"><ele>214.8</ele><name>TP03584</name><time>2020-01-27T12:07:08Z</time></trkpt>
   <trkpt lat="31.202236" lon="35.285638"><ele>214.8</ele><name>TP03585</name><time>2020-01-27T12:07:11Z</time></trkpt>
   <trkpt lat="31.202239" lon="35.285651"><ele>214.7</ele><name>TP03586</name><time>2020-01-27T12:07:12Z</time></trkpt>
   <trkpt lat="31.202243" lon="35.285664"><ele>214.7</ele><name>TP03587</name><time>2020-01-27T12:07:13Z</time></trkpt>
   <trkpt lat="31.202219" lon="35.285736"><ele>215</ele><name>TP03588</name><time>2020-01-27T12:07:15Z</time></trkpt>
   <trkpt lat="31.202213" lon="35.285797"><ele>215.4</ele><name>TP03589</name><time>2020-01-27T12:07:16Z</time></trkpt>
   <trkpt lat="31.202211" lon="35.285834"><ele>215.5</ele><name>TP03590</name><time>2020-01-27T12:07:17Z</time></trkpt>
   <trkpt lat="31.20223" lon="35.285883"><ele>215.4</ele><name>TP03591</name><time>2020-01-27T12:07:20Z</time></trkpt>
   <trkpt lat="31.202224" lon="35.285922"><ele>215.2</ele><name>TP03592</name><time>2020-01-27T12:07:21Z</time></trkpt>
   <trkpt lat="31.202223" lon="35.28597"><ele>214.9</ele><name>TP03593</name><time>2020-01-27T12:07:22Z</time></trkpt>
   <trkpt lat="31.202202" lon="35.286046"><ele>214.4</ele><name>TP03594</name><time>2020-01-27T12:07:24Z</time></trkpt>
   <trkpt lat="31.202195" lon="35.286124"><ele>214.4</ele><name>TP03595</name><time>2020-01-27T12:07:25Z</time></trkpt>
   <trkpt lat="31.202189" lon="35.286201"><ele>213.7</ele><name>TP03596</name><time>2020-01-27T12:07:27Z</time></trkpt>
   <trkpt lat="31.202182" lon="35.286259"><ele>213.2</ele><name>TP03597</name><time>2020-01-27T12:07:28Z</time></trkpt>
   <trkpt lat="31.202189" lon="35.286312"><ele>213.1</ele><name>TP03598</name><time>2020-01-27T12:07:29Z</time></trkpt>
   <trkpt lat="31.202221" lon="35.286419"><ele>212.9</ele><name>TP03599</name><time>2020-01-27T12:07:30Z</time></trkpt>
   <trkpt lat="31.202252" lon="35.286548"><ele>212.9</ele><name>TP03600</name><time>2020-01-27T12:07:33Z</time></trkpt>
   <trkpt lat="31.202251" lon="35.286589"><ele>212.9</ele><name>TP03601</name><time>2020-01-27T12:07:34Z</time></trkpt>
   <trkpt lat="31.202261" lon="35.286662"><ele>212.7</ele><name>TP03602</name><time>2020-01-27T12:07:37Z</time></trkpt>
   <trkpt lat="31.202275" lon="35.286692"><ele>212.6</ele><name>TP03603</name><time>2020-01-27T12:07:38Z</time></trkpt>
   <trkpt lat="31.202288" lon="35.286722"><ele>212.4</ele><name>TP03604</name><time>2020-01-27T12:07:39Z</time></trkpt>
   <trkpt lat="31.202322" lon="35.286802"><ele>212.3</ele><name>TP03605</name><time>2020-01-27T12:07:42Z</time></trkpt>
   <trkpt lat="31.202357" lon="35.286818"><ele>212.3</ele><name>TP03606</name><time>2020-01-27T12:07:44Z</time></trkpt>
   <trkpt lat="31.202373" lon="35.286819"><ele>212.3</ele><name>TP03607</name><time>2020-01-27T12:07:45Z</time></trkpt>
   <trkpt lat="31.202382" lon="35.286849"><ele>212.3</ele><name>TP03608</name><time>2020-01-27T12:07:48Z</time></trkpt>
   <trkpt lat="31.202398" lon="35.286915"><ele>212.2</ele><name>TP03609</name><time>2020-01-27T12:07:49Z</time></trkpt>
   <trkpt lat="31.202425" lon="35.286968"><ele>212.2</ele><name>TP03610</name><time>2020-01-27T12:07:52Z</time></trkpt>
   <trkpt lat="31.202443" lon="35.286994"><ele>212.2</ele><name>TP03611</name><time>2020-01-27T12:07:53Z</time></trkpt>
   <trkpt lat="31.20246" lon="35.287029"><ele>212.2</ele><name>TP03612</name><time>2020-01-27T12:07:56Z</time></trkpt>
   <trkpt lat="31.202466" lon="35.287049"><ele>212.1</ele><name>TP03613</name><time>2020-01-27T12:07:57Z</time></trkpt>
   <trkpt lat="31.202477" lon="35.287126"><ele>211.9</ele><name>TP03614</name><time>2020-01-27T12:07:59Z</time></trkpt>
   <trkpt lat="31.202442" lon="35.287173"><ele>211.6</ele><name>TP03615</name><time>2020-01-27T12:08:01Z</time></trkpt>
   <trkpt lat="31.202426" lon="35.287189"><ele>211.5</ele><name>TP03616</name><time>2020-01-27T12:08:04Z</time></trkpt>
   <trkpt lat="31.202409" lon="35.287206"><ele>211.4</ele><name>TP03617</name><time>2020-01-27T12:08:07Z</time></trkpt>
   <trkpt lat="31.202393" lon="35.287222"><ele>211.3</ele><name>TP03618</name><time>2020-01-27T12:08:08Z</time></trkpt>
   <trkpt lat="31.202392" lon="35.28723"><ele>211.3</ele><name>TP03619</name><time>2020-01-27T12:08:09Z</time></trkpt>
   <trkpt lat="31.202393" lon="35.287243"><ele>211.2</ele><name>TP03620</name><time>2020-01-27T12:08:11Z</time></trkpt>
   <trkpt lat="31.202395" lon="35.28725"><ele>211.2</ele><name>TP03621</name><time>2020-01-27T12:08:13Z</time></trkpt>
   <trkpt lat="31.202395" lon="35.28725"><ele>211.2</ele><name>TP03622</name><time>2020-01-27T12:08:14Z</time></trkpt>
   <trkpt lat="31.202396" lon="35.287249"><ele>211.2</ele><name>TP03623</name><time>2020-01-27T12:08:16Z</time></trkpt>
   <trkpt lat="31.202395" lon="35.287249"><ele>211.2</ele><name>TP03624</name><time>2020-01-27T12:08:17Z</time></trkpt>
   <trkpt lat="31.202392" lon="35.287249"><ele>211.2</ele><name>TP03625</name><time>2020-01-27T12:08:18Z</time></trkpt>
   <trkpt lat="31.202388" lon="35.287214"><ele>211.1</ele><name>TP03626</name><time>2020-01-27T12:08:21Z</time></trkpt>
   <trkpt lat="31.202397" lon="35.287161"><ele>210.9</ele><name>TP03627</name><time>2020-01-27T12:08:24Z</time></trkpt>
   <trkpt lat="31.202399" lon="35.287151"><ele>210.9</ele><name>TP03628</name><time>2020-01-27T12:08:25Z</time></trkpt>
   <trkpt lat="31.202407" lon="35.287139"><ele>210.9</ele><name>TP03629</name><time>2020-01-27T12:08:28Z</time></trkpt>
   <trkpt lat="31.202427" lon="35.287127"><ele>210.9</ele><name>TP03630</name><time>2020-01-27T12:08:30Z</time></trkpt>
   <trkpt lat="31.202436" lon="35.287114"><ele>210.9</ele><name>TP03631</name><time>2020-01-27T12:08:31Z</time></trkpt>
   <trkpt lat="31.202442" lon="35.287106"><ele>210.9</ele><name>TP03632</name><time>2020-01-27T12:08:32Z</time></trkpt>
   <trkpt lat="31.202452" lon="35.287104"><ele>210.9</ele><name>TP03633</name><time>2020-01-27T12:08:34Z</time></trkpt>
   <trkpt lat="31.202459" lon="35.287101"><ele>210.9</ele><name>TP03634</name><time>2020-01-27T12:08:36Z</time></trkpt>
   <trkpt lat="31.202464" lon="35.2871"><ele>210.9</ele><name>TP03635</name><time>2020-01-27T12:08:38Z</time></trkpt>
   <trkpt lat="31.202463" lon="35.287102"><ele>210.9</ele><name>TP03636</name><time>2020-01-27T12:08:39Z</time></trkpt>
   <trkpt lat="31.202465" lon="35.287108"><ele>210.9</ele><name>TP03637</name><time>2020-01-27T12:08:42Z</time></trkpt>
   <trkpt lat="31.202484" lon="35.287116"><ele>211</ele><name>TP03638</name><time>2020-01-27T12:08:43Z</time></trkpt>
   <trkpt lat="31.202497" lon="35.287124"><ele>211</ele><name>TP03639</name><time>2020-01-27T12:08:45Z</time></trkpt>
   <trkpt lat="31.202512" lon="35.287119"><ele>211.1</ele><name>TP03640</name><time>2020-01-27T12:08:47Z</time></trkpt>
   <trkpt lat="31.202517" lon="35.287123"><ele>211.1</ele><name>TP03641</name><time>2020-01-27T12:08:49Z</time></trkpt>
   <trkpt lat="31.202522" lon="35.287125"><ele>211.1</ele><name>TP03642</name><time>2020-01-27T12:08:51Z</time></trkpt>
   <trkpt lat="31.202524" lon="35.28712"><ele>211.1</ele><name>TP03643</name><time>2020-01-27T12:08:53Z</time></trkpt>
   <trkpt lat="31.202513" lon="35.287102"><ele>211.2</ele><name>TP03644</name><time>2020-01-27T12:08:55Z</time></trkpt>
   <trkpt lat="31.202504" lon="35.287093"><ele>211.2</ele><name>TP03645</name><time>2020-01-27T12:08:57Z</time></trkpt>
   <trkpt lat="31.202488" lon="35.287064"><ele>211.2</ele><name>TP03646</name><time>2020-01-27T12:08:59Z</time></trkpt>
   <trkpt lat="31.202458" lon="35.287038"><ele>211.2</ele><name>TP03647</name><time>2020-01-27T12:09:00Z</time></trkpt>
   <trkpt lat="31.202423" lon="35.287032"><ele>211.2</ele><name>TP03648</name><time>2020-01-27T12:09:01Z</time></trkpt>
   <trkpt lat="31.202395" lon="35.287034"><ele>211.2</ele><name>TP03649</name><time>2020-01-27T12:09:02Z</time></trkpt>
   <trkpt lat="31.202354" lon="35.287048"><ele>211.1</ele><name>TP03650</name><time>2020-01-27T12:09:03Z</time></trkpt>
   <trkpt lat="31.202315" lon="35.287066"><ele>211.1</ele><name>TP03651</name><time>2020-01-27T12:09:06Z</time></trkpt>
   <trkpt lat="31.202308" lon="35.287081"><ele>211.1</ele><name>TP03652</name><time>2020-01-27T12:09:08Z</time></trkpt>
   <trkpt lat="31.202302" lon="35.287097"><ele>211.2</ele><name>TP03653</name><time>2020-01-27T12:09:09Z</time></trkpt>
   <trkpt lat="31.202268" lon="35.287139"><ele>211.3</ele><name>TP03654</name><time>2020-01-27T12:09:10Z</time></trkpt>
   <trkpt lat="31.202241" lon="35.287161"><ele>211.4</ele><name>TP03655</name><time>2020-01-27T12:09:11Z</time></trkpt>
   <trkpt lat="31.202233" lon="35.287168"><ele>211.4</ele><name>TP03656</name><time>2020-01-27T12:09:12Z</time></trkpt>
   <trkpt lat="31.202222" lon="35.287194"><ele>211.6</ele><name>TP03657</name><time>2020-01-27T12:09:14Z</time></trkpt>
   <trkpt lat="31.202233" lon="35.287195"><ele>211.7</ele><name>TP03658</name><time>2020-01-27T12:09:16Z</time></trkpt>
   <trkpt lat="31.202236" lon="35.287195"><ele>211.7</ele><name>TP03659</name><time>2020-01-27T12:09:17Z</time></trkpt>
   <trkpt lat="31.202238" lon="35.287192"><ele>211.7</ele><name>TP03660</name><time>2020-01-27T12:09:19Z</time></trkpt>
   <trkpt lat="31.202238" lon="35.287192"><ele>211.7</ele><name>TP03661</name><time>2020-01-27T12:09:21Z</time></trkpt>
   <trkpt lat="31.20224" lon="35.287192"><ele>211.7</ele><name>TP03662</name><time>2020-01-27T12:09:23Z</time></trkpt>
   <trkpt lat="31.202243" lon="35.287173"><ele>211.9</ele><name>TP03663</name><time>2020-01-27T12:09:25Z</time></trkpt>
   <trkpt lat="31.202244" lon="35.287176"><ele>211.9</ele><name>TP03664</name><time>2020-01-27T12:09:26Z</time></trkpt>
   <trkpt lat="31.202247" lon="35.287196"><ele>212</ele><name>TP03665</name><time>2020-01-27T12:09:28Z</time></trkpt>
   <trkpt lat="31.202249" lon="35.287197"><ele>212</ele><name>TP03666</name><time>2020-01-27T12:09:30Z</time></trkpt>
   <trkpt lat="31.20225" lon="35.287199"><ele>212</ele><name>TP03667</name><time>2020-01-27T12:09:31Z</time></trkpt>
   <trkpt lat="31.202248" lon="35.287202"><ele>212.1</ele><name>TP03668</name><time>2020-01-27T12:09:33Z</time></trkpt>
   <trkpt lat="31.202236" lon="35.287211"><ele>212.2</ele><name>TP03669</name><time>2020-01-27T12:09:35Z</time></trkpt>
   <trkpt lat="31.202231" lon="35.287217"><ele>212.2</ele><name>TP03670</name><time>2020-01-27T12:09:36Z</time></trkpt>
   <trkpt lat="31.202227" lon="35.287226"><ele>212.2</ele><name>TP03671</name><time>2020-01-27T12:09:38Z</time></trkpt>
   <trkpt lat="31.202225" lon="35.287223"><ele>212.2</ele><name>TP03672</name><time>2020-01-27T12:09:41Z</time></trkpt>
   <trkpt lat="31.202228" lon="35.287221"><ele>212.2</ele><name>TP03673</name><time>2020-01-27T12:09:43Z</time></trkpt>
   <trkpt lat="31.202228" lon="35.287218"><ele>212.2</ele><name>TP03674</name><time>2020-01-27T12:09:44Z</time></trkpt>
   <trkpt lat="31.202229" lon="35.287215"><ele>212.2</ele><name>TP03675</name><time>2020-01-27T12:09:45Z</time></trkpt>
   <trkpt lat="31.202229" lon="35.287213"><ele>212.2</ele><name>TP03676</name><time>2020-01-27T12:09:46Z</time></trkpt>
   <trkpt lat="31.202229" lon="35.287212"><ele>212.2</ele><name>TP03677</name><time>2020-01-27T12:09:48Z</time></trkpt>
   <trkpt lat="31.202229" lon="35.287212"><ele>212.2</ele><name>TP03678</name><time>2020-01-27T12:09:49Z</time></trkpt>
   <trkpt lat="31.202228" lon="35.287213"><ele>212.2</ele><name>TP03679</name><time>2020-01-27T12:09:51Z</time></trkpt>
   <trkpt lat="31.202228" lon="35.287214"><ele>212.2</ele><name>TP03680</name><time>2020-01-27T12:09:52Z</time></trkpt>
   <trkpt lat="31.202228" lon="35.287215"><ele>212.2</ele><name>TP03681</name><time>2020-01-27T12:09:54Z</time></trkpt>
   <trkpt lat="31.202227" lon="35.287217"><ele>212.2</ele><name>TP03682</name><time>2020-01-27T12:09:55Z</time></trkpt>
   <trkpt lat="31.202216" lon="35.287223"><ele>212.2</ele><name>TP03683</name><time>2020-01-27T12:09:56Z</time></trkpt>
   <trkpt lat="31.202209" lon="35.287225"><ele>212.2</ele><name>TP03684</name><time>2020-01-27T12:09:58Z</time></trkpt>
   <trkpt lat="31.202208" lon="35.287226"><ele>212.2</ele><name>TP03685</name><time>2020-01-27T12:09:59Z</time></trkpt>
   <trkpt lat="31.202207" lon="35.287226"><ele>212.2</ele><name>TP03686</name><time>2020-01-27T12:10:00Z</time></trkpt>
   <trkpt lat="31.202206" lon="35.287226"><ele>212.2</ele><name>TP03687</name><time>2020-01-27T12:10:02Z</time></trkpt>
   <trkpt lat="31.202205" lon="35.287226"><ele>212.2</ele><name>TP03688</name><time>2020-01-27T12:10:03Z</time></trkpt>
   <trkpt lat="31.202204" lon="35.287226"><ele>212.2</ele><name>TP03689</name><time>2020-01-27T12:10:05Z</time></trkpt>
   <trkpt lat="31.202204" lon="35.287226"><ele>212.2</ele><name>TP03690</name><time>2020-01-27T12:10:06Z</time></trkpt>
   <trkpt lat="31.202204" lon="35.287226"><ele>212.2</ele><name>TP03691</name><time>2020-01-27T12:10:07Z</time></trkpt>
   <trkpt lat="31.202203" lon="35.287226"><ele>212.2</ele><name>TP03692</name><time>2020-01-27T12:10:09Z</time></trkpt>
   <trkpt lat="31.202203" lon="35.287227"><ele>212.2</ele><name>TP03693</name><time>2020-01-27T12:10:10Z</time></trkpt>
   <trkpt lat="31.202203" lon="35.287227"><ele>212.2</ele><name>TP03694</name><time>2020-01-27T12:10:12Z</time></trkpt>
   <trkpt lat="31.202203" lon="35.287227"><ele>212.2</ele><name>TP03695</name><time>2020-01-27T12:10:13Z</time></trkpt>
   <trkpt lat="31.202202" lon="35.287227"><ele>212.2</ele><name>TP03696</name><time>2020-01-27T12:10:14Z</time></trkpt>
   <trkpt lat="31.202202" lon="35.287227"><ele>212.2</ele><name>TP03697</name><time>2020-01-27T12:10:16Z</time></trkpt>
   <trkpt lat="31.202203" lon="35.287227"><ele>212.2</ele><name>TP03698</name><time>2020-01-27T12:10:18Z</time></trkpt>
   <trkpt lat="31.202203" lon="35.287227"><ele>212.2</ele><name>TP03699</name><time>2020-01-27T12:10:19Z</time></trkpt>
   <trkpt lat="31.202203" lon="35.287227"><ele>212.2</ele><name>TP03700</name><time>2020-01-27T12:10:20Z</time></trkpt>
   <trkpt lat="31.202203" lon="35.287227"><ele>212.2</ele><name>TP03701</name><time>2020-01-27T12:10:21Z</time></trkpt>
   <trkpt lat="31.202203" lon="35.287227"><ele>212.2</ele><name>TP03702</name><time>2020-01-27T12:10:22Z</time></trkpt>
   <trkpt lat="31.202203" lon="35.287227"><ele>212.2</ele><name>TP03703</name><time>2020-01-27T12:10:24Z</time></trkpt>
   <trkpt lat="31.202203" lon="35.287227"><ele>212.2</ele><name>TP03704</name><time>2020-01-27T12:10:26Z</time></trkpt>
   <trkpt lat="31.202203" lon="35.287227"><ele>212.2</ele><name>TP03705</name><time>2020-01-27T12:10:28Z</time></trkpt>
   <trkpt lat="31.202203" lon="35.287227"><ele>212.2</ele><name>TP03706</name><time>2020-01-27T12:10:29Z</time></trkpt>
   <trkpt lat="31.202203" lon="35.287226"><ele>212.2</ele><name>TP03707</name><time>2020-01-27T12:10:31Z</time></trkpt>
   <trkpt lat="31.202203" lon="35.287226"><ele>212.2</ele><name>TP03708</name><time>2020-01-27T12:10:33Z</time></trkpt>
   <trkpt lat="31.202203" lon="35.287226"><ele>212.2</ele><name>TP03709</name><time>2020-01-27T12:10:35Z</time></trkpt>
   <trkpt lat="31.202203" lon="35.287226"><ele>212.2</ele><name>TP03710</name><time>2020-01-27T12:10:36Z</time></trkpt>
   <trkpt lat="31.202203" lon="35.287226"><ele>212.2</ele><name>TP03711</name><time>2020-01-27T12:10:37Z</time></trkpt>
   <trkpt lat="31.202203" lon="35.287227"><ele>212.2</ele><name>TP03712</name><time>2020-01-27T12:10:39Z</time></trkpt>
   <trkpt lat="31.202203" lon="35.287227"><ele>212.2</ele><name>TP03713</name><time>2020-01-27T12:10:40Z</time></trkpt>
   <trkpt lat="31.202203" lon="35.287228"><ele>212.2</ele><name>TP03714</name><time>2020-01-27T12:10:41Z</time></trkpt>
   <trkpt lat="31.202203" lon="35.28723"><ele>212.2</ele><name>TP03715</name><time>2020-01-27T12:10:43Z</time></trkpt>
   <trkpt lat="31.202203" lon="35.287232"><ele>212.2</ele><name>TP03716</name><time>2020-01-27T12:10:45Z</time></trkpt>
   <trkpt lat="31.202203" lon="35.287234"><ele>212.2</ele><name>TP03717</name><time>2020-01-27T12:10:47Z</time></trkpt>
   <trkpt lat="31.202203" lon="35.287235"><ele>212.2</ele><name>TP03718</name><time>2020-01-27T12:10:48Z</time></trkpt>
   <trkpt lat="31.202202" lon="35.287236"><ele>212.2</ele><name>TP03719</name><time>2020-01-27T12:10:50Z</time></trkpt>
   <trkpt lat="31.202201" lon="35.287237"><ele>212.2</ele><name>TP03720</name><time>2020-01-27T12:10:52Z</time></trkpt>
   <trkpt lat="31.202201" lon="35.287237"><ele>212.2</ele><name>TP03721</name><time>2020-01-27T12:10:53Z</time></trkpt>
   <trkpt lat="31.202201" lon="35.287236"><ele>212.2</ele><name>TP03722</name><time>2020-01-27T12:10:55Z</time></trkpt>
   <trkpt lat="31.202201" lon="35.287236"><ele>212.2</ele><name>TP03723</name><time>2020-01-27T12:10:56Z</time></trkpt>
   <trkpt lat="31.202201" lon="35.287236"><ele>212.2</ele><name>TP03724</name><time>2020-01-27T12:10:57Z</time></trkpt>
   <trkpt lat="31.202201" lon="35.287236"><ele>212.2</ele><name>TP03725</name><time>2020-01-27T12:10:59Z</time></trkpt>
   <trkpt lat="31.202201" lon="35.287236"><ele>212.2</ele><name>TP03726</name><time>2020-01-27T12:11:01Z</time></trkpt>
   <trkpt lat="31.202201" lon="35.287236"><ele>212.2</ele><name>TP03727</name><time>2020-01-27T12:11:03Z</time></trkpt>
   <trkpt lat="31.202201" lon="35.287235"><ele>212.2</ele><name>TP03728</name><time>2020-01-27T12:11:04Z</time></trkpt>
   <trkpt lat="31.202201" lon="35.287235"><ele>212.2</ele><name>TP03729</name><time>2020-01-27T12:11:06Z</time></trkpt>
   <trkpt lat="31.202201" lon="35.287235"><ele>212.2</ele><name>TP03730</name><time>2020-01-27T12:11:07Z</time></trkpt>
   <trkpt lat="31.202202" lon="35.287236"><ele>212.2</ele><name>TP03731</name><time>2020-01-27T12:11:09Z</time></trkpt>
   <trkpt lat="31.202202" lon="35.287236"><ele>212.2</ele><name>TP03732</name><time>2020-01-27T12:11:10Z</time></trkpt>
   <trkpt lat="31.202202" lon="35.287236"><ele>212.2</ele><name>TP03733</name><time>2020-01-27T12:11:12Z</time></trkpt>
   <trkpt lat="31.202202" lon="35.287236"><ele>212.2</ele><name>TP03734</name><time>2020-01-27T12:11:14Z</time></trkpt>
   <trkpt lat="31.202203" lon="35.287236"><ele>212.2</ele><name>TP03735</name><time>2020-01-27T12:11:16Z</time></trkpt>
   <trkpt lat="31.202203" lon="35.287236"><ele>212.2</ele><name>TP03736</name><time>2020-01-27T12:11:18Z</time></trkpt>
   <trkpt lat="31.202203" lon="35.287236"><ele>212.2</ele><name>TP03737</name><time>2020-01-27T12:11:20Z</time></trkpt>
   <trkpt lat="31.202203" lon="35.287236"><ele>212.2</ele><name>TP03738</name><time>2020-01-27T12:11:21Z</time></trkpt>
   <trkpt lat="31.202203" lon="35.287235"><ele>212.2</ele><name>TP03739</name><time>2020-01-27T12:11:22Z</time></trkpt>
   <trkpt lat="31.202203" lon="35.287235"><ele>212.2</ele><name>TP03740</name><time>2020-01-27T12:11:24Z</time></trkpt>
   <trkpt lat="31.202203" lon="35.287235"><ele>212.2</ele><name>TP03741</name><time>2020-01-27T12:11:26Z</time></trkpt>
   <trkpt lat="31.202203" lon="35.287235"><ele>212.2</ele><name>TP03742</name><time>2020-01-27T12:11:28Z</time></trkpt>
   <trkpt lat="31.202203" lon="35.287235"><ele>212.2</ele><name>TP03743</name><time>2020-01-27T12:11:30Z</time></trkpt>
   <trkpt lat="31.202203" lon="35.287235"><ele>212.2</ele><name>TP03744</name><time>2020-01-27T12:11:31Z</time></trkpt>
   <trkpt lat="31.202203" lon="35.287235"><ele>212.2</ele><name>TP03745</name><time>2020-01-27T12:11:32Z</time></trkpt>
   <trkpt lat="31.202203" lon="35.287235"><ele>212.2</ele><name>TP03746</name><time>2020-01-27T12:11:34Z</time></trkpt>
   <trkpt lat="31.202203" lon="35.287235"><ele>212.2</ele><name>TP03747</name><time>2020-01-27T12:11:36Z</time></trkpt>
   <trkpt lat="31.202204" lon="35.287235"><ele>212.2</ele><name>TP03748</name><time>2020-01-27T12:11:37Z</time></trkpt>
   <trkpt lat="31.202204" lon="35.287235"><ele>212.2</ele><name>TP03749</name><time>2020-01-27T12:11:38Z</time></trkpt>
   <trkpt lat="31.202204" lon="35.287236"><ele>212.2</ele><name>TP03750</name><time>2020-01-27T12:11:40Z</time></trkpt>
   <trkpt lat="31.202204" lon="35.287237"><ele>212.2</ele><name>TP03751</name><time>2020-01-27T12:11:41Z</time></trkpt>
   <trkpt lat="31.202205" lon="35.287238"><ele>212.2</ele><name>TP03752</name><time>2020-01-27T12:11:43Z</time></trkpt>
   <trkpt lat="31.202206" lon="35.287238"><ele>212.2</ele><name>TP03753</name><time>2020-01-27T12:11:44Z</time></trkpt>
   <trkpt lat="31.202208" lon="35.287239"><ele>212.2</ele><name>TP03754</name><time>2020-01-27T12:11:46Z</time></trkpt>
   <trkpt lat="31.202208" lon="35.287239"><ele>212.2</ele><name>TP03755</name><time>2020-01-27T12:11:47Z</time></trkpt>
   <trkpt lat="31.202209" lon="35.28724"><ele>212.2</ele><name>TP03756</name><time>2020-01-27T12:11:49Z</time></trkpt>
   <trkpt lat="31.202209" lon="35.28724"><ele>212.2</ele><name>TP03757</name><time>2020-01-27T12:11:50Z</time></trkpt>
   <trkpt lat="31.20221" lon="35.28724"><ele>212.2</ele><name>TP03758</name><time>2020-01-27T12:11:52Z</time></trkpt>
   <trkpt lat="31.20221" lon="35.28724"><ele>212.2</ele><name>TP03759</name><time>2020-01-27T12:11:53Z</time></trkpt>
   <trkpt lat="31.202211" lon="35.28724"><ele>212.2</ele><name>TP03760</name><time>2020-01-27T12:11:55Z</time></trkpt>
   <trkpt lat="31.202212" lon="35.28724"><ele>212.2</ele><name>TP03761</name><time>2020-01-27T12:11:56Z</time></trkpt>
   <trkpt lat="31.202212" lon="35.28724"><ele>212.2</ele><name>TP03762</name><time>2020-01-27T12:11:58Z</time></trkpt>
   <trkpt lat="31.202213" lon="35.287239"><ele>212.2</ele><name>TP03763</name><time>2020-01-27T12:11:59Z</time></trkpt>
   <trkpt lat="31.202213" lon="35.28724"><ele>212.2</ele><name>TP03764</name><time>2020-01-27T12:12:01Z</time></trkpt>
   <trkpt lat="31.202213" lon="35.287239"><ele>212.2</ele><name>TP03765</name><time>2020-01-27T12:12:03Z</time></trkpt>
   <trkpt lat="31.202213" lon="35.287239"><ele>212.2</ele><name>TP03766</name><time>2020-01-27T12:12:04Z</time></trkpt>
   <trkpt lat="31.202213" lon="35.287238"><ele>212.2</ele><name>TP03767</name><time>2020-01-27T12:12:06Z</time></trkpt>
   <trkpt lat="31.202212" lon="35.287238"><ele>212.2</ele><name>TP03768</name><time>2020-01-27T12:12:08Z</time></trkpt>
   <trkpt lat="31.202212" lon="35.287238"><ele>212.2</ele><name>TP03769</name><time>2020-01-27T12:12:10Z</time></trkpt>
   <trkpt lat="31.202212" lon="35.287237"><ele>212.2</ele><name>TP03770</name><time>2020-01-27T12:12:12Z</time></trkpt>
   <trkpt lat="31.202212" lon="35.287238"><ele>212.2</ele><name>TP03771</name><time>2020-01-27T12:12:13Z</time></trkpt>
   <trkpt lat="31.202212" lon="35.287238"><ele>212.2</ele><name>TP03772</name><time>2020-01-27T12:12:14Z</time></trkpt>
   <trkpt lat="31.202212" lon="35.287237"><ele>212.2</ele><name>TP03773</name><time>2020-01-27T12:12:16Z</time></trkpt>
   <trkpt lat="31.202211" lon="35.287237"><ele>212.2</ele><name>TP03774</name><time>2020-01-27T12:12:18Z</time></trkpt>
   <trkpt lat="31.202211" lon="35.287237"><ele>212.2</ele><name>TP03775</name><time>2020-01-27T12:12:20Z</time></trkpt>
   <trkpt lat="31.202211" lon="35.287237"><ele>212.2</ele><name>TP03776</name><time>2020-01-27T12:12:22Z</time></trkpt>
   <trkpt lat="31.202211" lon="35.287236"><ele>212.2</ele><name>TP03777</name><time>2020-01-27T12:12:24Z</time></trkpt>
   <trkpt lat="31.202211" lon="35.287236"><ele>212.2</ele><name>TP03778</name><time>2020-01-27T12:12:26Z</time></trkpt>
   <trkpt lat="31.202211" lon="35.287236"><ele>212.2</ele><name>TP03779</name><time>2020-01-27T12:12:27Z</time></trkpt>
   <trkpt lat="31.202211" lon="35.287236"><ele>212.2</ele><name>TP03780</name><time>2020-01-27T12:12:30Z</time></trkpt>
   <trkpt lat="31.202211" lon="35.287236"><ele>212.2</ele><name>TP03781</name><time>2020-01-27T12:12:32Z</time></trkpt>
   <trkpt lat="31.202211" lon="35.287236"><ele>212.2</ele><name>TP03782</name><time>2020-01-27T12:12:34Z</time></trkpt>
   <trkpt lat="31.202211" lon="35.287236"><ele>212.2</ele><name>TP03783</name><time>2020-01-27T12:12:35Z</time></trkpt>
   <trkpt lat="31.202211" lon="35.287236"><ele>212.2</ele><name>TP03784</name><time>2020-01-27T12:12:37Z</time></trkpt>
   <trkpt lat="31.202211" lon="35.287236"><ele>212.2</ele><name>TP03785</name><time>2020-01-27T12:12:38Z</time></trkpt>
   <trkpt lat="31.202211" lon="35.287236"><ele>212.2</ele><name>TP03786</name><time>2020-01-27T12:12:40Z</time></trkpt>
   <trkpt lat="31.202213" lon="35.287235"><ele>212.2</ele><name>TP03787</name><time>2020-01-27T12:12:42Z</time></trkpt>
   <trkpt lat="31.202214" lon="35.287234"><ele>212.2</ele><name>TP03788</name><time>2020-01-27T12:12:44Z</time></trkpt>
   <trkpt lat="31.202215" lon="35.287233"><ele>212.2</ele><name>TP03789</name><time>2020-01-27T12:12:46Z</time></trkpt>
   <trkpt lat="31.202215" lon="35.287233"><ele>212.2</ele><name>TP03790</name><time>2020-01-27T12:12:47Z</time></trkpt>
   <trkpt lat="31.202215" lon="35.287232"><ele>212.2</ele><name>TP03791</name><time>2020-01-27T12:12:49Z</time></trkpt>
   <trkpt lat="31.202215" lon="35.287232"><ele>212.2</ele><name>TP03792</name><time>2020-01-27T12:12:50Z</time></trkpt>
   <trkpt lat="31.202215" lon="35.287232"><ele>212.2</ele><name>TP03793</name><time>2020-01-27T12:12:52Z</time></trkpt>
   <trkpt lat="31.202216" lon="35.287231"><ele>212.2</ele><name>TP03794</name><time>2020-01-27T12:12:54Z</time></trkpt>
   <trkpt lat="31.202216" lon="35.287231"><ele>212.2</ele><name>TP03795</name><time>2020-01-27T12:12:56Z</time></trkpt>
   <trkpt lat="31.202217" lon="35.287231"><ele>212.2</ele><name>TP03796</name><time>2020-01-27T12:12:57Z</time></trkpt>
   <trkpt lat="31.202217" lon="35.287231"><ele>212.2</ele><name>TP03797</name><time>2020-01-27T12:12:59Z</time></trkpt>
   <trkpt lat="31.202217" lon="35.287231"><ele>212.2</ele><name>TP03798</name><time>2020-01-27T12:13:00Z</time></trkpt>
   <trkpt lat="31.202217" lon="35.28723"><ele>212.2</ele><name>TP03799</name><time>2020-01-27T12:13:02Z</time></trkpt>
   <trkpt lat="31.202217" lon="35.28723"><ele>212.2</ele><name>TP03800</name><time>2020-01-27T12:13:03Z</time></trkpt>
   <trkpt lat="31.202218" lon="35.28723"><ele>212.2</ele><name>TP03801</name><time>2020-01-27T12:13:05Z</time></trkpt>
   <trkpt lat="31.202218" lon="35.28723"><ele>212.2</ele><name>TP03802</name><time>2020-01-27T12:13:06Z</time></trkpt>
   <trkpt lat="31.202219" lon="35.28723"><ele>212.2</ele><name>TP03803</name><time>2020-01-27T12:13:08Z</time></trkpt>
   <trkpt lat="31.202219" lon="35.28723"><ele>212.2</ele><name>TP03804</name><time>2020-01-27T12:13:09Z</time></trkpt>
   <trkpt lat="31.20222" lon="35.28723"><ele>212.2</ele><name>TP03805</name><time>2020-01-27T12:13:11Z</time></trkpt>
   <trkpt lat="31.20222" lon="35.28723"><ele>212.2</ele><name>TP03806</name><time>2020-01-27T12:13:13Z</time></trkpt>
   <trkpt lat="31.202221" lon="35.28723"><ele>212.2</ele><name>TP03807</name><time>2020-01-27T12:13:14Z</time></trkpt>
   <trkpt lat="31.202221" lon="35.28723"><ele>212.2</ele><name>TP03808</name><time>2020-01-27T12:13:15Z</time></trkpt>
   <trkpt lat="31.202221" lon="35.287229"><ele>212.2</ele><name>TP03809</name><time>2020-01-27T12:13:17Z</time></trkpt>
   <trkpt lat="31.202221" lon="35.287229"><ele>212.2</ele><name>TP03810</name><time>2020-01-27T12:13:18Z</time></trkpt>
   <trkpt lat="31.202221" lon="35.287229"><ele>212.2</ele><name>TP03811</name><time>2020-01-27T12:13:19Z</time></trkpt>
   <trkpt lat="31.202221" lon="35.287229"><ele>212.2</ele><name>TP03812</name><time>2020-01-27T12:13:20Z</time></trkpt>
   <trkpt lat="31.202221" lon="35.287229"><ele>212.2</ele><name>TP03813</name><time>2020-01-27T12:13:21Z</time></trkpt>
   <trkpt lat="31.202221" lon="35.287228"><ele>212.2</ele><name>TP03814</name><time>2020-01-27T12:13:23Z</time></trkpt>
   <trkpt lat="31.202221" lon="35.287228"><ele>212.2</ele><name>TP03815</name><time>2020-01-27T12:13:25Z</time></trkpt>
   <trkpt lat="31.202221" lon="35.287227"><ele>212.2</ele><name>TP03816</name><time>2020-01-27T12:13:27Z</time></trkpt>
   <trkpt lat="31.202221" lon="35.287227"><ele>212.2</ele><name>TP03817</name><time>2020-01-27T12:13:29Z</time></trkpt>
   <trkpt lat="31.202221" lon="35.287227"><ele>212.2</ele><name>TP03818</name><time>2020-01-27T12:13:30Z</time></trkpt>
   <trkpt lat="31.202221" lon="35.287227"><ele>212.2</ele><name>TP03819</name><time>2020-01-27T12:13:32Z</time></trkpt>
   <trkpt lat="31.202221" lon="35.287227"><ele>212.2</ele><name>TP03820</name><time>2020-01-27T12:13:34Z</time></trkpt>
   <trkpt lat="31.202221" lon="35.287227"><ele>212.2</ele><name>TP03821</name><time>2020-01-27T12:13:36Z</time></trkpt>
   <trkpt lat="31.202221" lon="35.287226"><ele>212.2</ele><name>TP03822</name><time>2020-01-27T12:13:38Z</time></trkpt>
   <trkpt lat="31.202221" lon="35.287226"><ele>212.2</ele><name>TP03823</name><time>2020-01-27T12:13:39Z</time></trkpt>
   <trkpt lat="31.202222" lon="35.287226"><ele>212.2</ele><name>TP03824</name><time>2020-01-27T12:13:41Z</time></trkpt>
   <trkpt lat="31.202223" lon="35.287227"><ele>212.2</ele><name>TP03825</name><time>2020-01-27T12:13:43Z</time></trkpt>
   <trkpt lat="31.202222" lon="35.287227"><ele>212.2</ele><name>TP03826</name><time>2020-01-27T12:13:44Z</time></trkpt>
   <trkpt lat="31.202222" lon="35.287228"><ele>212.2</ele><name>TP03827</name><time>2020-01-27T12:13:45Z</time></trkpt>
   <trkpt lat="31.202222" lon="35.287228"><ele>212.2</ele><name>TP03828</name><time>2020-01-27T12:13:47Z</time></trkpt>
   <trkpt lat="31.202222" lon="35.287228"><ele>212.2</ele><name>TP03829</name><time>2020-01-27T12:13:49Z</time></trkpt>
   <trkpt lat="31.202221" lon="35.287229"><ele>212.2</ele><name>TP03830</name><time>2020-01-27T12:13:50Z</time></trkpt>
   <trkpt lat="31.202221" lon="35.287229"><ele>212.2</ele><name>TP03831</name><time>2020-01-27T12:13:51Z</time></trkpt>
   <trkpt lat="31.202221" lon="35.287229"><ele>212.2</ele><name>TP03832</name><time>2020-01-27T12:13:53Z</time></trkpt>
   <trkpt lat="31.202221" lon="35.287229"><ele>212.2</ele><name>TP03833</name><time>2020-01-27T12:13:54Z</time></trkpt>
   <trkpt lat="31.202221" lon="35.287229"><ele>212.2</ele><name>TP03834</name><time>2020-01-27T12:13:56Z</time></trkpt>
   <trkpt lat="31.202221" lon="35.28723"><ele>212.2</ele><name>TP03835</name><time>2020-01-27T12:13:57Z</time></trkpt>
   <trkpt lat="31.202221" lon="35.28723"><ele>212.2</ele><name>TP03836</name><time>2020-01-27T12:13:58Z</time></trkpt>
   <trkpt lat="31.202221" lon="35.28723"><ele>212.2</ele><name>TP03837</name><time>2020-01-27T12:14:00Z</time></trkpt>
   <trkpt lat="31.202221" lon="35.287231"><ele>212.2</ele><name>TP03838</name><time>2020-01-27T12:14:02Z</time></trkpt>
   <trkpt lat="31.202222" lon="35.287231"><ele>212.2</ele><name>TP03839</name><time>2020-01-27T12:14:03Z</time></trkpt>
   <trkpt lat="31.202222" lon="35.287231"><ele>212.2</ele><name>TP03840</name><time>2020-01-27T12:14:04Z</time></trkpt>
   <trkpt lat="31.202222" lon="35.287231"><ele>212.2</ele><name>TP03841</name><time>2020-01-27T12:14:05Z</time></trkpt>
   <trkpt lat="31.202222" lon="35.287231"><ele>212.2</ele><name>TP03842</name><time>2020-01-27T12:14:07Z</time></trkpt>
   <trkpt lat="31.202222" lon="35.287232"><ele>212.2</ele><name>TP03843</name><time>2020-01-27T12:14:09Z</time></trkpt>
   <trkpt lat="31.202222" lon="35.287232"><ele>212.2</ele><name>TP03844</name><time>2020-01-27T12:14:10Z</time></trkpt>
   <trkpt lat="31.202222" lon="35.287231"><ele>212.2</ele><name>TP03845</name><time>2020-01-27T12:14:12Z</time></trkpt>
   <trkpt lat="31.202222" lon="35.287231"><ele>212.2</ele><name>TP03846</name><time>2020-01-27T12:14:13Z</time></trkpt>
   <trkpt lat="31.202222" lon="35.287231"><ele>212.2</ele><name>TP03847</name><time>2020-01-27T12:14:15Z</time></trkpt>
   <trkpt lat="31.202221" lon="35.287231"><ele>212.2</ele><name>TP03848</name><time>2020-01-27T12:14:17Z</time></trkpt>
   <trkpt lat="31.202221" lon="35.287231"><ele>212.2</ele><name>TP03849</name><time>2020-01-27T12:14:18Z</time></trkpt>
   <trkpt lat="31.20222" lon="35.287231"><ele>212.2</ele><name>TP03850</name><time>2020-01-27T12:14:20Z</time></trkpt>
   <trkpt lat="31.20222" lon="35.287231"><ele>212.2</ele><name>TP03851</name><time>2020-01-27T12:14:21Z</time></trkpt>
   <trkpt lat="31.202219" lon="35.287231"><ele>212.2</ele><name>TP03852</name><time>2020-01-27T12:14:23Z</time></trkpt>
   <trkpt lat="31.202219" lon="35.287231"><ele>212.2</ele><name>TP03853</name><time>2020-01-27T12:14:25Z</time></trkpt>
   <trkpt lat="31.202218" lon="35.28723"><ele>212.2</ele><name>TP03854</name><time>2020-01-27T12:14:26Z</time></trkpt>
   <trkpt lat="31.202218" lon="35.28723"><ele>212.2</ele><name>TP03855</name><time>2020-01-27T12:14:28Z</time></trkpt>
   <trkpt lat="31.202218" lon="35.28723"><ele>212.2</ele><name>TP03856</name><time>2020-01-27T12:14:29Z</time></trkpt>
   <trkpt lat="31.202218" lon="35.28723"><ele>212.2</ele><name>TP03857</name><time>2020-01-27T12:14:31Z</time></trkpt>
   <trkpt lat="31.202218" lon="35.28723"><ele>212.2</ele><name>TP03858</name><time>2020-01-27T12:14:32Z</time></trkpt>
   <trkpt lat="31.202218" lon="35.28723"><ele>212.2</ele><name>TP03859</name><time>2020-01-27T12:14:33Z</time></trkpt>
   <trkpt lat="31.202218" lon="35.28723"><ele>212.2</ele><name>TP03860</name><time>2020-01-27T12:14:34Z</time></trkpt>
   <trkpt lat="31.202218" lon="35.28723"><ele>212.2</ele><name>TP03861</name><time>2020-01-27T12:14:36Z</time></trkpt>
   <trkpt lat="31.202218" lon="35.28723"><ele>212.2</ele><name>TP03862</name><time>2020-01-27T12:14:37Z</time></trkpt>
   <trkpt lat="31.202218" lon="35.28723"><ele>212.2</ele><name>TP03863</name><time>2020-01-27T12:14:38Z</time></trkpt>
   <trkpt lat="31.202217" lon="35.28723"><ele>212.2</ele><name>TP03864</name><time>2020-01-27T12:14:40Z</time></trkpt>
   <trkpt lat="31.202216" lon="35.28723"><ele>212.2</ele><name>TP03865</name><time>2020-01-27T12:14:41Z</time></trkpt>
   <trkpt lat="31.202215" lon="35.28723"><ele>212.2</ele><name>TP03866</name><time>2020-01-27T12:14:43Z</time></trkpt>
   <trkpt lat="31.202214" lon="35.28723"><ele>212.2</ele><name>TP03867</name><time>2020-01-27T12:14:44Z</time></trkpt>
   <trkpt lat="31.202213" lon="35.28723"><ele>212.2</ele><name>TP03868</name><time>2020-01-27T12:14:46Z</time></trkpt>
   <trkpt lat="31.202212" lon="35.28723"><ele>212.2</ele><name>TP03869</name><time>2020-01-27T12:14:47Z</time></trkpt>
   <trkpt lat="31.202211" lon="35.287231"><ele>212.1</ele><name>TP03870</name><time>2020-01-27T12:14:49Z</time></trkpt>
   <trkpt lat="31.202211" lon="35.287231"><ele>212.1</ele><name>TP03871</name><time>2020-01-27T12:14:50Z</time></trkpt>
   <trkpt lat="31.20221" lon="35.287231"><ele>212.1</ele><name>TP03872</name><time>2020-01-27T12:14:51Z</time></trkpt>
   <trkpt lat="31.20221" lon="35.287232"><ele>212.1</ele><name>TP03873</name><time>2020-01-27T12:14:53Z</time></trkpt>
   <trkpt lat="31.202209" lon="35.287232"><ele>212.1</ele><name>TP03874</name><time>2020-01-27T12:14:54Z</time></trkpt>
   <trkpt lat="31.202208" lon="35.287233"><ele>212.1</ele><name>TP03875</name><time>2020-01-27T12:14:56Z</time></trkpt>
   <trkpt lat="31.202207" lon="35.287233"><ele>212.1</ele><name>TP03876</name><time>2020-01-27T12:14:58Z</time></trkpt>
   <trkpt lat="31.202207" lon="35.287233"><ele>212.1</ele><name>TP03877</name><time>2020-01-27T12:14:59Z</time></trkpt>
   <trkpt lat="31.202206" lon="35.287234"><ele>212.1</ele><name>TP03878</name><time>2020-01-27T12:15:00Z</time></trkpt>
   <trkpt lat="31.202206" lon="35.287234"><ele>212.1</ele><name>TP03879</name><time>2020-01-27T12:15:01Z</time></trkpt>
   <trkpt lat="31.202205" lon="35.287235"><ele>212.1</ele><name>TP03880</name><time>2020-01-27T12:15:03Z</time></trkpt>
   <trkpt lat="31.202205" lon="35.287235"><ele>212.1</ele><name>TP03881</name><time>2020-01-27T12:15:04Z</time></trkpt>
   <trkpt lat="31.202204" lon="35.287236"><ele>212.1</ele><name>TP03882</name><time>2020-01-27T12:15:06Z</time></trkpt>
   <trkpt lat="31.202204" lon="35.287236"><ele>212.1</ele><name>TP03883</name><time>2020-01-27T12:15:07Z</time></trkpt>
   <trkpt lat="31.202204" lon="35.287236"><ele>212.1</ele><name>TP03884</name><time>2020-01-27T12:15:08Z</time></trkpt>
   <trkpt lat="31.202204" lon="35.287237"><ele>212.1</ele><name>TP03885</name><time>2020-01-27T12:15:10Z</time></trkpt>
   <trkpt lat="31.202203" lon="35.287237"><ele>212.1</ele><name>TP03886</name><time>2020-01-27T12:15:12Z</time></trkpt>
   <trkpt lat="31.202202" lon="35.287238"><ele>212.1</ele><name>TP03887</name><time>2020-01-27T12:15:14Z</time></trkpt>
   <trkpt lat="31.202202" lon="35.287238"><ele>212.1</ele><name>TP03888</name><time>2020-01-27T12:15:16Z</time></trkpt>
   <trkpt lat="31.202201" lon="35.287239"><ele>212.1</ele><name>TP03889</name><time>2020-01-27T12:15:18Z</time></trkpt>
   <trkpt lat="31.202201" lon="35.287239"><ele>212.1</ele><name>TP03890</name><time>2020-01-27T12:15:19Z</time></trkpt>
   <trkpt lat="31.202201" lon="35.287239"><ele>212.1</ele><name>TP03891</name><time>2020-01-27T12:15:20Z</time></trkpt>
   <trkpt lat="31.2022" lon="35.287239"><ele>212.1</ele><name>TP03892</name><time>2020-01-27T12:15:22Z</time></trkpt>
   <trkpt lat="31.2022" lon="35.287239"><ele>212.1</ele><name>TP03893</name><time>2020-01-27T12:15:23Z</time></trkpt>
   <trkpt lat="31.2022" lon="35.287239"><ele>212.1</ele><name>TP03894</name><time>2020-01-27T12:15:25Z</time></trkpt>
   <trkpt lat="31.202199" lon="35.287239"><ele>212.1</ele><name>TP03895</name><time>2020-01-27T12:15:28Z</time></trkpt>
   <trkpt lat="31.202199" lon="35.287239"><ele>212.1</ele><name>TP03896</name><time>2020-01-27T12:15:29Z</time></trkpt>
   <trkpt lat="31.202199" lon="35.287239"><ele>212.1</ele><name>TP03897</name><time>2020-01-27T12:15:30Z</time></trkpt>
   <trkpt lat="31.202198" lon="35.287239"><ele>212.1</ele><name>TP03898</name><time>2020-01-27T12:15:32Z</time></trkpt>
   <trkpt lat="31.202198" lon="35.287239"><ele>212.1</ele><name>TP03899</name><time>2020-01-27T12:15:33Z</time></trkpt>
   <trkpt lat="31.202198" lon="35.287239"><ele>212.1</ele><name>TP03900</name><time>2020-01-27T12:15:34Z</time></trkpt>
   <trkpt lat="31.202197" lon="35.287239"><ele>212.1</ele><name>TP03901</name><time>2020-01-27T12:15:36Z</time></trkpt>
   <trkpt lat="31.202198" lon="35.287238"><ele>212.1</ele><name>TP03902</name><time>2020-01-27T12:15:38Z</time></trkpt>
   <trkpt lat="31.202198" lon="35.287236"><ele>212.1</ele><name>TP03903</name><time>2020-01-27T12:15:40Z</time></trkpt>
   <trkpt lat="31.202199" lon="35.287235"><ele>212.1</ele><name>TP03904</name><time>2020-01-27T12:15:41Z</time></trkpt>
   <trkpt lat="31.202198" lon="35.287235"><ele>212.1</ele><name>TP03905</name><time>2020-01-27T12:15:43Z</time></trkpt>
   <trkpt lat="31.202198" lon="35.287235"><ele>212.1</ele><name>TP03906</name><time>2020-01-27T12:15:44Z</time></trkpt>
   <trkpt lat="31.202197" lon="35.287235"><ele>212.1</ele><name>TP03907</name><time>2020-01-27T12:15:46Z</time></trkpt>
   <trkpt lat="31.202196" lon="35.287234"><ele>212.1</ele><name>TP03908</name><time>2020-01-27T12:15:48Z</time></trkpt>
   <trkpt lat="31.202195" lon="35.287234"><ele>212.1</ele><name>TP03909</name><time>2020-01-27T12:15:49Z</time></trkpt>
   <trkpt lat="31.202193" lon="35.287234"><ele>212.1</ele><name>TP03910</name><time>2020-01-27T12:15:51Z</time></trkpt>
   <trkpt lat="31.202193" lon="35.287234"><ele>212.1</ele><name>TP03911</name><time>2020-01-27T12:15:52Z</time></trkpt>
   <trkpt lat="31.202191" lon="35.287233"><ele>212</ele><name>TP03912</name><time>2020-01-27T12:15:54Z</time></trkpt>
   <trkpt lat="31.202191" lon="35.287233"><ele>212</ele><name>TP03913</name><time>2020-01-27T12:15:55Z</time></trkpt>
   <trkpt lat="31.20219" lon="35.287233"><ele>212</ele><name>TP03914</name><time>2020-01-27T12:15:57Z</time></trkpt>
   <trkpt lat="31.202189" lon="35.287233"><ele>212</ele><name>TP03915</name><time>2020-01-27T12:15:59Z</time></trkpt>
   <trkpt lat="31.202188" lon="35.287232"><ele>212</ele><name>TP03916</name><time>2020-01-27T12:16:00Z</time></trkpt>
   <trkpt lat="31.202187" lon="35.287232"><ele>212</ele><name>TP03917</name><time>2020-01-27T12:16:02Z</time></trkpt>
   <trkpt lat="31.202187" lon="35.287232"><ele>212</ele><name>TP03918</name><time>2020-01-27T12:16:03Z</time></trkpt>
   <trkpt lat="31.202186" lon="35.287232"><ele>212</ele><name>TP03919</name><time>2020-01-27T12:16:04Z</time></trkpt>
   <trkpt lat="31.202187" lon="35.287231"><ele>212</ele><name>TP03920</name><time>2020-01-27T12:16:06Z</time></trkpt>
   <trkpt lat="31.202187" lon="35.287231"><ele>212</ele><name>TP03921</name><time>2020-01-27T12:16:08Z</time></trkpt>
   <trkpt lat="31.202187" lon="35.287231"><ele>212</ele><name>TP03922</name><time>2020-01-27T12:16:09Z</time></trkpt>
   <trkpt lat="31.202187" lon="35.287231"><ele>212</ele><name>TP03923</name><time>2020-01-27T12:16:10Z</time></trkpt>
   <trkpt lat="31.202188" lon="35.287231"><ele>212</ele><name>TP03924</name><time>2020-01-27T12:16:12Z</time></trkpt>
   <trkpt lat="31.202188" lon="35.287231"><ele>212</ele><name>TP03925</name><time>2020-01-27T12:16:13Z</time></trkpt>
   <trkpt lat="31.202188" lon="35.287231"><ele>212</ele><name>TP03926</name><time>2020-01-27T12:16:14Z</time></trkpt>
   <trkpt lat="31.202188" lon="35.287231"><ele>212</ele><name>TP03927</name><time>2020-01-27T12:16:15Z</time></trkpt>
   <trkpt lat="31.202189" lon="35.287231"><ele>212</ele><name>TP03928</name><time>2020-01-27T12:16:17Z</time></trkpt>
   <trkpt lat="31.20219" lon="35.287231"><ele>212</ele><name>TP03929</name><time>2020-01-27T12:16:19Z</time></trkpt>
   <trkpt lat="31.20219" lon="35.287231"><ele>212</ele><name>TP03930</name><time>2020-01-27T12:16:21Z</time></trkpt>
   <trkpt lat="31.202191" lon="35.287231"><ele>212</ele><name>TP03931</name><time>2020-01-27T12:16:23Z</time></trkpt>
   <trkpt lat="31.202191" lon="35.287231"><ele>212</ele><name>TP03932</name><time>2020-01-27T12:16:24Z</time></trkpt>
   <trkpt lat="31.202192" lon="35.287231"><ele>212</ele><name>TP03933</name><time>2020-01-27T12:16:26Z</time></trkpt>
   <trkpt lat="31.202193" lon="35.287231"><ele>212</ele><name>TP03934</name><time>2020-01-27T12:16:28Z</time></trkpt>
   <trkpt lat="31.202193" lon="35.287231"><ele>212</ele><name>TP03935</name><time>2020-01-27T12:16:29Z</time></trkpt>
   <trkpt lat="31.202193" lon="35.287231"><ele>212</ele><name>TP03936</name><time>2020-01-27T12:16:30Z</time></trkpt>
   <trkpt lat="31.202194" lon="35.287231"><ele>212</ele><name>TP03937</name><time>2020-01-27T12:16:32Z</time></trkpt>
   <trkpt lat="31.202194" lon="35.287231"><ele>212</ele><name>TP03938</name><time>2020-01-27T12:16:34Z</time></trkpt>
   <trkpt lat="31.202195" lon="35.287231"><ele>212</ele><name>TP03939</name><time>2020-01-27T12:16:35Z</time></trkpt>
   <trkpt lat="31.202195" lon="35.287231"><ele>212</ele><name>TP03940</name><time>2020-01-27T12:16:37Z</time></trkpt>
   <trkpt lat="31.202196" lon="35.287232"><ele>212</ele><name>TP03941</name><time>2020-01-27T12:16:39Z</time></trkpt>
   <trkpt lat="31.202196" lon="35.287233"><ele>212</ele><name>TP03942</name><time>2020-01-27T12:16:40Z</time></trkpt>
   <trkpt lat="31.202196" lon="35.287233"><ele>212</ele><name>TP03943</name><time>2020-01-27T12:16:41Z</time></trkpt>
   <trkpt lat="31.202197" lon="35.287232"><ele>212</ele><name>TP03944</name><time>2020-01-27T12:16:43Z</time></trkpt>
   <trkpt lat="31.202198" lon="35.287232"><ele>212</ele><name>TP03945</name><time>2020-01-27T12:16:45Z</time></trkpt>
   <trkpt lat="31.202199" lon="35.287231"><ele>212</ele><name>TP03946</name><time>2020-01-27T12:16:46Z</time></trkpt>
   <trkpt lat="31.202199" lon="35.28723"><ele>212</ele><name>TP03947</name><time>2020-01-27T12:16:48Z</time></trkpt>
   <trkpt lat="31.202199" lon="35.28723"><ele>212</ele><name>TP03948</name><time>2020-01-27T12:16:50Z</time></trkpt>
   <trkpt lat="31.202199" lon="35.287229"><ele>212</ele><name>TP03949</name><time>2020-01-27T12:16:51Z</time></trkpt>
   <trkpt lat="31.202199" lon="35.287229"><ele>212</ele><name>TP03950</name><time>2020-01-27T12:16:53Z</time></trkpt>
   <trkpt lat="31.202199" lon="35.287228"><ele>212</ele><name>TP03951</name><time>2020-01-27T12:16:54Z</time></trkpt>
   <trkpt lat="31.202199" lon="35.287228"><ele>212</ele><name>TP03952</name><time>2020-01-27T12:16:56Z</time></trkpt>
   <trkpt lat="31.2022" lon="35.287228"><ele>212</ele><name>TP03953</name><time>2020-01-27T12:16:57Z</time></trkpt>
   <trkpt lat="31.2022" lon="35.287228"><ele>212</ele><name>TP03954</name><time>2020-01-27T12:16:58Z</time></trkpt>
   <trkpt lat="31.202201" lon="35.287228"><ele>212</ele><name>TP03955</name><time>2020-01-27T12:17:00Z</time></trkpt>
   <trkpt lat="31.202202" lon="35.287227"><ele>212</ele><name>TP03956</name><time>2020-01-27T12:17:01Z</time></trkpt>
   <trkpt lat="31.202202" lon="35.287227"><ele>212</ele><name>TP03957</name><time>2020-01-27T12:17:03Z</time></trkpt>
   <trkpt lat="31.202202" lon="35.287227"><ele>212</ele><name>TP03958</name><time>2020-01-27T12:17:04Z</time></trkpt>
   <trkpt lat="31.202202" lon="35.287227"><ele>212</ele><name>TP03959</name><time>2020-01-27T12:17:05Z</time></trkpt>
   <trkpt lat="31.202202" lon="35.287227"><ele>212</ele><name>TP03960</name><time>2020-01-27T12:17:06Z</time></trkpt>
   <trkpt lat="31.202202" lon="35.287227"><ele>212</ele><name>TP03961</name><time>2020-01-27T12:17:08Z</time></trkpt>
   <trkpt lat="31.202202" lon="35.287227"><ele>212</ele><name>TP03962</name><time>2020-01-27T12:17:09Z</time></trkpt>
   <trkpt lat="31.202202" lon="35.287226"><ele>211.9</ele><name>TP03963</name><time>2020-01-27T12:17:11Z</time></trkpt>
   <trkpt lat="31.202202" lon="35.287226"><ele>211.9</ele><name>TP03964</name><time>2020-01-27T12:17:13Z</time></trkpt>
   <trkpt lat="31.202202" lon="35.287226"><ele>211.9</ele><name>TP03965</name><time>2020-01-27T12:17:14Z</time></trkpt>
   <trkpt lat="31.202203" lon="35.287225"><ele>211.9</ele><name>TP03966</name><time>2020-01-27T12:17:16Z</time></trkpt>
   <trkpt lat="31.202204" lon="35.287225"><ele>211.9</ele><name>TP03967</name><time>2020-01-27T12:17:18Z</time></trkpt>
   <trkpt lat="31.202206" lon="35.287224"><ele>211.9</ele><name>TP03968</name><time>2020-01-27T12:17:19Z</time></trkpt>
   <trkpt lat="31.20221" lon="35.287227"><ele>211.9</ele><name>TP03969</name><time>2020-01-27T12:17:21Z</time></trkpt>
   <trkpt lat="31.202211" lon="35.287228"><ele>211.9</ele><name>TP03970</name><time>2020-01-27T12:17:22Z</time></trkpt>
   <trkpt lat="31.202213" lon="35.287227"><ele>211.9</ele><name>TP03971</name><time>2020-01-27T12:17:24Z</time></trkpt>
   <trkpt lat="31.202213" lon="35.287228"><ele>211.9</ele><name>TP03972</name><time>2020-01-27T12:17:25Z</time></trkpt>
   <trkpt lat="31.202214" lon="35.287228"><ele>211.9</ele><name>TP03973</name><time>2020-01-27T12:17:27Z</time></trkpt>
   <trkpt lat="31.202214" lon="35.287227"><ele>211.9</ele><name>TP03974</name><time>2020-01-27T12:17:28Z</time></trkpt>
   <trkpt lat="31.202214" lon="35.287227"><ele>211.9</ele><name>TP03975</name><time>2020-01-27T12:17:29Z</time></trkpt>
   <trkpt lat="31.202214" lon="35.287227"><ele>211.9</ele><name>TP03976</name><time>2020-01-27T12:17:31Z</time></trkpt>
   <trkpt lat="31.202213" lon="35.287227"><ele>211.9</ele><name>TP03977</name><time>2020-01-27T12:17:33Z</time></trkpt>
   <trkpt lat="31.202214" lon="35.287228"><ele>211.9</ele><name>TP03978</name><time>2020-01-27T12:17:34Z</time></trkpt>
   <trkpt lat="31.202214" lon="35.287232"><ele>211.9</ele><name>TP03979</name><time>2020-01-27T12:17:36Z</time></trkpt>
   <trkpt lat="31.202219" lon="35.287238"><ele>211.8</ele><name>TP03980</name><time>2020-01-27T12:17:38Z</time></trkpt>
   <trkpt lat="31.202222" lon="35.287239"><ele>211.8</ele><name>TP03981</name><time>2020-01-27T12:17:39Z</time></trkpt>
   <trkpt lat="31.202228" lon="35.287241"><ele>211.8</ele><name>TP03982</name><time>2020-01-27T12:17:41Z</time></trkpt>
   <trkpt lat="31.202235" lon="35.287243"><ele>211.8</ele><name>TP03983</name><time>2020-01-27T12:17:42Z</time></trkpt>
   <trkpt lat="31.202247" lon="35.287249"><ele>211.7</ele><name>TP03984</name><time>2020-01-27T12:17:43Z</time></trkpt>
   <trkpt lat="31.202253" lon="35.287269"><ele>211.6</ele><name>TP03985</name><time>2020-01-27T12:17:45Z</time></trkpt>
   <trkpt lat="31.202254" lon="35.287274"><ele>211.6</ele><name>TP03986</name><time>2020-01-27T12:17:46Z</time></trkpt>
   <trkpt lat="31.202254" lon="35.287272"><ele>211.6</ele><name>TP03987</name><time>2020-01-27T12:17:47Z</time></trkpt>
   <trkpt lat="31.202255" lon="35.287274"><ele>211.6</ele><name>TP03988</name><time>2020-01-27T12:17:48Z</time></trkpt>
   <trkpt lat="31.202255" lon="35.287275"><ele>211.6</ele><name>TP03989</name><time>2020-01-27T12:17:49Z</time></trkpt>
   <trkpt lat="31.202258" lon="35.287289"><ele>211.5</ele><name>TP03990</name><time>2020-01-27T12:17:51Z</time></trkpt>
   <trkpt lat="31.202264" lon="35.287308"><ele>211.4</ele><name>TP03991</name><time>2020-01-27T12:17:52Z</time></trkpt>
   <trkpt lat="31.202272" lon="35.28733"><ele>211.3</ele><name>TP03992</name><time>2020-01-27T12:17:53Z</time></trkpt>
   <trkpt lat="31.202301" lon="35.287397"><ele>211.1</ele><name>TP03993</name><time>2020-01-27T12:17:56Z</time></trkpt>
   <trkpt lat="31.202309" lon="35.287415"><ele>211.1</ele><name>TP03994</name><time>2020-01-27T12:17:57Z</time></trkpt>
   <trkpt lat="31.202338" lon="35.2875"><ele>210.9</ele><name>TP03995</name><time>2020-01-27T12:18:00Z</time></trkpt>
   <trkpt lat="31.202374" lon="35.287575"><ele>211.2</ele><name>TP03996</name><time>2020-01-27T12:18:03Z</time></trkpt>
   <trkpt lat="31.202381" lon="35.287601"><ele>211.2</ele><name>TP03997</name><time>2020-01-27T12:18:04Z</time></trkpt>
   <trkpt lat="31.202384" lon="35.287629"><ele>211.1</ele><name>TP03998</name><time>2020-01-27T12:18:05Z</time></trkpt>
   <trkpt lat="31.202403" lon="35.287678"><ele>210.9</ele><name>TP03999</name><time>2020-01-27T12:18:07Z</time></trkpt>
   <trkpt lat="31.202414" lon="35.287703"><ele>210.9</ele><name>TP04000</name><time>2020-01-27T12:18:08Z</time></trkpt>
   <trkpt lat="31.20243" lon="35.28775"><ele>210.8</ele><name>TP04001</name><time>2020-01-27T12:18:10Z</time></trkpt>
   <trkpt lat="31.202447" lon="35.287795"><ele>210.8</ele><name>TP04002</name><time>2020-01-27T12:18:12Z</time></trkpt>
   <trkpt lat="31.202467" lon="35.287864"><ele>210.7</ele><name>TP04003</name><time>2020-01-27T12:18:15Z</time></trkpt>
   <trkpt lat="31.202472" lon="35.287897"><ele>210.6</ele><name>TP04004</name><time>2020-01-27T12:18:16Z</time></trkpt>
   <trkpt lat="31.202477" lon="35.287933"><ele>210.6</ele><name>TP04005</name><time>2020-01-27T12:18:19Z</time></trkpt>
   <trkpt lat="31.202479" lon="35.287972"><ele>210.5</ele><name>TP04006</name><time>2020-01-27T12:18:20Z</time></trkpt>
   <trkpt lat="31.202478" lon="35.288006"><ele>210.5</ele><name>TP04007</name><time>2020-01-27T12:18:21Z</time></trkpt>
   <trkpt lat="31.20246" lon="35.288086"><ele>210.5</ele><name>TP04008</name><time>2020-01-27T12:18:22Z</time></trkpt>
   <trkpt lat="31.202411" lon="35.28818"><ele>210.6</ele><name>TP04009</name><time>2020-01-27T12:18:25Z</time></trkpt>
   <trkpt lat="31.202385" lon="35.288232"><ele>210.6</ele><name>TP04010</name><time>2020-01-27T12:18:27Z</time></trkpt>
   <trkpt lat="31.20237" lon="35.288257"><ele>210.6</ele><name>TP04011</name><time>2020-01-27T12:18:28Z</time></trkpt>
   <trkpt lat="31.202299" lon="35.288313"><ele>210.6</ele><name>TP04012</name><time>2020-01-27T12:18:31Z</time></trkpt>
   <trkpt lat="31.202242" lon="35.288331"><ele>210.6</ele><name>TP04013</name><time>2020-01-27T12:18:34Z</time></trkpt>
   <trkpt lat="31.202183" lon="35.288377"><ele>210.7</ele><name>TP04014</name><time>2020-01-27T12:18:37Z</time></trkpt>
   <trkpt lat="31.202129" lon="35.288443"><ele>210.8</ele><name>TP04015</name><time>2020-01-27T12:18:40Z</time></trkpt>
   <trkpt lat="31.202104" lon="35.288473"><ele>210.9</ele><name>TP04016</name><time>2020-01-27T12:18:41Z</time></trkpt>
   <trkpt lat="31.202088" lon="35.288501"><ele>211</ele><name>TP04017</name><time>2020-01-27T12:18:42Z</time></trkpt>
   <trkpt lat="31.202051" lon="35.288544"><ele>211.1</ele><name>TP04018</name><time>2020-01-27T12:18:45Z</time></trkpt>
   <trkpt lat="31.202028" lon="35.288573"><ele>211.2</ele><name>TP04019</name><time>2020-01-27T12:18:46Z</time></trkpt>
   <trkpt lat="31.201997" lon="35.288624"><ele>211.2</ele><name>TP04020</name><time>2020-01-27T12:18:47Z</time></trkpt>
   <trkpt lat="31.201979" lon="35.288652"><ele>211.2</ele><name>TP04021</name><time>2020-01-27T12:18:48Z</time></trkpt>
   <trkpt lat="31.201961" lon="35.288679"><ele>211.1</ele><name>TP04022</name><time>2020-01-27T12:18:50Z</time></trkpt>
   <trkpt lat="31.20194" lon="35.288717"><ele>210.7</ele><name>TP04023</name><time>2020-01-27T12:18:51Z</time></trkpt>
   <trkpt lat="31.201912" lon="35.288776"><ele>210.2</ele><name>TP04024</name><time>2020-01-27T12:18:53Z</time></trkpt>
   <trkpt lat="31.201897" lon="35.288808"><ele>210.1</ele><name>TP04025</name><time>2020-01-27T12:18:54Z</time></trkpt>
   <trkpt lat="31.201877" lon="35.288852"><ele>209.8</ele><name>TP04026</name><time>2020-01-27T12:18:57Z</time></trkpt>
   <trkpt lat="31.201858" lon="35.288886"><ele>209.5</ele><name>TP04027</name><time>2020-01-27T12:18:58Z</time></trkpt>
   <trkpt lat="31.201817" lon="35.288961"><ele>208.9</ele><name>TP04028</name><time>2020-01-27T12:18:59Z</time></trkpt>
   <trkpt lat="31.201781" lon="35.289011"><ele>208.4</ele><name>TP04029</name><time>2020-01-27T12:19:02Z</time></trkpt>
   <trkpt lat="31.201759" lon="35.289037"><ele>208.3</ele><name>TP04030</name><time>2020-01-27T12:19:03Z</time></trkpt>
   <trkpt lat="31.20174" lon="35.289065"><ele>208.2</ele><name>TP04031</name><time>2020-01-27T12:19:04Z</time></trkpt>
   <trkpt lat="31.201688" lon="35.289138"><ele>207.7</ele><name>TP04032</name><time>2020-01-27T12:19:06Z</time></trkpt>
   <trkpt lat="31.201641" lon="35.289213"><ele>207</ele><name>TP04033</name><time>2020-01-27T12:19:09Z</time></trkpt>
   <trkpt lat="31.201593" lon="35.289276"><ele>206.5</ele><name>TP04034</name><time>2020-01-27T12:19:12Z</time></trkpt>
   <trkpt lat="31.20157" lon="35.289305"><ele>206.2</ele><name>TP04035</name><time>2020-01-27T12:19:13Z</time></trkpt>
   <trkpt lat="31.201551" lon="35.289337"><ele>206</ele><name>TP04036</name><time>2020-01-27T12:19:15Z</time></trkpt>
   <trkpt lat="31.201518" lon="35.289379"><ele>205.7</ele><name>TP04037</name><time>2020-01-27T12:19:17Z</time></trkpt>
   <trkpt lat="31.201495" lon="35.289426"><ele>205.6</ele><name>TP04038</name><time>2020-01-27T12:19:18Z</time></trkpt>
   <trkpt lat="31.201485" lon="35.289445"><ele>205.6</ele><name>TP04039</name><time>2020-01-27T12:19:19Z</time></trkpt>
   <trkpt lat="31.201469" lon="35.289483"><ele>205.4</ele><name>TP04040</name><time>2020-01-27T12:19:21Z</time></trkpt>
   <trkpt lat="31.201445" lon="35.28951"><ele>205.3</ele><name>TP04041</name><time>2020-01-27T12:19:22Z</time></trkpt>
   <trkpt lat="31.20141" lon="35.28958"><ele>205.1</ele><name>TP04042</name><time>2020-01-27T12:19:23Z</time></trkpt>
   <trkpt lat="31.201418" lon="35.289662"><ele>205.7</ele><name>TP04043</name><time>2020-01-27T12:19:26Z</time></trkpt>
   <trkpt lat="31.201425" lon="35.289696"><ele>205.9</ele><name>TP04044</name><time>2020-01-27T12:19:27Z</time></trkpt>
   <trkpt lat="31.201415" lon="35.28979"><ele>206.6</ele><name>TP04045</name><time>2020-01-27T12:19:30Z</time></trkpt>
   <trkpt lat="31.201398" lon="35.289826"><ele>206.8</ele><name>TP04046</name><time>2020-01-27T12:19:31Z</time></trkpt>
   <trkpt lat="31.201382" lon="35.289881"><ele>207</ele><name>TP04047</name><time>2020-01-27T12:19:34Z</time></trkpt>
   <trkpt lat="31.201385" lon="35.289921"><ele>207</ele><name>TP04048</name><time>2020-01-27T12:19:35Z</time></trkpt>
   <trkpt lat="31.201393" lon="35.289993"><ele>206.8</ele><name>TP04049</name><time>2020-01-27T12:19:36Z</time></trkpt>
   <trkpt lat="31.201381" lon="35.290043"><ele>206.7</ele><name>TP04050</name><time>2020-01-27T12:19:39Z</time></trkpt>
   <trkpt lat="31.201371" lon="35.290087"><ele>206.6</ele><name>TP04051</name><time>2020-01-27T12:19:41Z</time></trkpt>
   <trkpt lat="31.201363" lon="35.290124"><ele>206.6</ele><name>TP04052</name><time>2020-01-27T12:19:42Z</time></trkpt>
   <trkpt lat="31.201365" lon="35.290165"><ele>206.5</ele><name>TP04053</name><time>2020-01-27T12:19:43Z</time></trkpt>
   <trkpt lat="31.201366" lon="35.290179"><ele>206.5</ele><name>TP04054</name><time>2020-01-27T12:19:44Z</time></trkpt>
   <trkpt lat="31.201353" lon="35.290238"><ele>206.3</ele><name>TP04055</name><time>2020-01-27T12:19:45Z</time></trkpt>
   <trkpt lat="31.201351" lon="35.29026"><ele>206.3</ele><name>TP04056</name><time>2020-01-27T12:19:46Z</time></trkpt>
   <trkpt lat="31.201346" lon="35.290276"><ele>206.3</ele><name>TP04057</name><time>2020-01-27T12:19:47Z</time></trkpt>
   <trkpt lat="31.201342" lon="35.290316"><ele>206.6</ele><name>TP04058</name><time>2020-01-27T12:19:49Z</time></trkpt>
   <trkpt lat="31.20135" lon="35.290337"><ele>206.7</ele><name>TP04059</name><time>2020-01-27T12:19:50Z</time></trkpt>
   <trkpt lat="31.2014" lon="35.29037"><ele>206.8</ele><name>TP04060</name><time>2020-01-27T12:19:53Z</time></trkpt>
   <trkpt lat="31.201427" lon="35.290371"><ele>206.8</ele><name>TP04061</name><time>2020-01-27T12:19:56Z</time></trkpt>
   <trkpt lat="31.201461" lon="35.290406"><ele>206.6</ele><name>TP04062</name><time>2020-01-27T12:19:57Z</time></trkpt>
   <trkpt lat="31.201506" lon="35.290455"><ele>206.6</ele><name>TP04063</name><time>2020-01-27T12:20:00Z</time></trkpt>
   <trkpt lat="31.201529" lon="35.290473"><ele>206.6</ele><name>TP04064</name><time>2020-01-27T12:20:01Z</time></trkpt>
   <trkpt lat="31.201551" lon="35.290491"><ele>206.7</ele><name>TP04065</name><time>2020-01-27T12:20:02Z</time></trkpt>
   <trkpt lat="31.201581" lon="35.290525"><ele>206.2</ele><name>TP04066</name><time>2020-01-27T12:20:05Z</time></trkpt>
   <trkpt lat="31.201576" lon="35.290592"><ele>205.5</ele><name>TP04067</name><time>2020-01-27T12:20:06Z</time></trkpt>
   <trkpt lat="31.201559" lon="35.290605"><ele>205.5</ele><name>TP04068</name><time>2020-01-27T12:20:07Z</time></trkpt>
   <trkpt lat="31.20152" lon="35.290658"><ele>205.4</ele><name>TP04069</name><time>2020-01-27T12:20:10Z</time></trkpt>
   <trkpt lat="31.201514" lon="35.29068"><ele>205.3</ele><name>TP04070</name><time>2020-01-27T12:20:11Z</time></trkpt>
   <trkpt lat="31.201513" lon="35.290723"><ele>205.1</ele><name>TP04071</name><time>2020-01-27T12:20:14Z</time></trkpt>
   <trkpt lat="31.20152" lon="35.290758"><ele>205</ele><name>TP04072</name><time>2020-01-27T12:20:15Z</time></trkpt>
   <trkpt lat="31.201545" lon="35.29078"><ele>204.9</ele><name>TP04073</name><time>2020-01-27T12:20:16Z</time></trkpt>
   <trkpt lat="31.201569" lon="35.290835"><ele>204.6</ele><name>TP04074</name><time>2020-01-27T12:20:17Z</time></trkpt>
   <trkpt lat="31.201549" lon="35.290873"><ele>204.4</ele><name>TP04075</name><time>2020-01-27T12:20:20Z</time></trkpt>
   <trkpt lat="31.201536" lon="35.290911"><ele>204.2</ele><name>TP04076</name><time>2020-01-27T12:20:21Z</time></trkpt>
   <trkpt lat="31.201524" lon="35.290953"><ele>203.7</ele><name>TP04077</name><time>2020-01-27T12:20:23Z</time></trkpt>
   <trkpt lat="31.201521" lon="35.291013"><ele>203.1</ele><name>TP04078</name><time>2020-01-27T12:20:24Z</time></trkpt>
   <trkpt lat="31.201516" lon="35.291041"><ele>202.8</ele><name>TP04079</name><time>2020-01-27T12:20:25Z</time></trkpt>
   <trkpt lat="31.201479" lon="35.291083"><ele>202.2</ele><name>TP04080</name><time>2020-01-27T12:20:28Z</time></trkpt>
   <trkpt lat="31.201465" lon="35.291127"><ele>201.8</ele><name>TP04081</name><time>2020-01-27T12:20:31Z</time></trkpt>
   <trkpt lat="31.201456" lon="35.291154"><ele>201.7</ele><name>TP04082</name><time>2020-01-27T12:20:32Z</time></trkpt>
   <trkpt lat="31.201447" lon="35.291204"><ele>201.4</ele><name>TP04083</name><time>2020-01-27T12:20:34Z</time></trkpt>
   <trkpt lat="31.2014" lon="35.291285"><ele>201.1</ele><name>TP04084</name><time>2020-01-27T12:20:35Z</time></trkpt>
   <trkpt lat="31.201386" lon="35.291337"><ele>201</ele><name>TP04085</name><time>2020-01-27T12:20:37Z</time></trkpt>
   <trkpt lat="31.201396" lon="35.29136"><ele>200.9</ele><name>TP04086</name><time>2020-01-27T12:20:38Z</time></trkpt>
   <trkpt lat="31.2014" lon="35.291368"><ele>200.9</ele><name>TP04087</name><time>2020-01-27T12:20:39Z</time></trkpt>
   <trkpt lat="31.201431" lon="35.291355"><ele>200.9</ele><name>TP04088</name><time>2020-01-27T12:20:41Z</time></trkpt>
   <trkpt lat="31.201448" lon="35.291329"><ele>200.7</ele><name>TP04089</name><time>2020-01-27T12:20:44Z</time></trkpt>
   <trkpt lat="31.201475" lon="35.29131"><ele>201.3</ele><name>TP04090</name><time>2020-01-27T12:20:45Z</time></trkpt>
   <trkpt lat="31.201498" lon="35.291287"><ele>201.8</ele><name>TP04091</name><time>2020-01-27T12:20:47Z</time></trkpt>
   <trkpt lat="31.201528" lon="35.291284"><ele>201.9</ele><name>TP04092</name><time>2020-01-27T12:20:49Z</time></trkpt>
   <trkpt lat="31.201566" lon="35.291287"><ele>202.7</ele><name>TP04093</name><time>2020-01-27T12:20:51Z</time></trkpt>
   <trkpt lat="31.201581" lon="35.291289"><ele>203.5</ele><name>TP04094</name><time>2020-01-27T12:20:52Z</time></trkpt>
   <trkpt lat="31.201605" lon="35.291311"><ele>203.5</ele><name>TP04095</name><time>2020-01-27T12:20:55Z</time></trkpt>
   <trkpt lat="31.201611" lon="35.291363"><ele>204.3</ele><name>TP04096</name><time>2020-01-27T12:20:56Z</time></trkpt>
   <trkpt lat="31.201612" lon="35.291408"><ele>204.2</ele><name>TP04097</name><time>2020-01-27T12:20:58Z</time></trkpt>
   <trkpt lat="31.201578" lon="35.291446"><ele>203.4</ele><name>TP04098</name><time>2020-01-27T12:21:01Z</time></trkpt>
   <trkpt lat="31.20157" lon="35.291462"><ele>203.4</ele><name>TP04099</name><time>2020-01-27T12:21:02Z</time></trkpt>
   <trkpt lat="31.201562" lon="35.291477"><ele>202.9</ele><name>TP04100</name><time>2020-01-27T12:21:03Z</time></trkpt>
   <trkpt lat="31.201559" lon="35.291512"><ele>202.9</ele><name>TP04101</name><time>2020-01-27T12:21:04Z</time></trkpt>
   <trkpt lat="31.201562" lon="35.291575"><ele>203</ele><name>TP04102</name><time>2020-01-27T12:21:07Z</time></trkpt>
   <trkpt lat="31.201567" lon="35.291595"><ele>203</ele><name>TP04103</name><time>2020-01-27T12:21:09Z</time></trkpt>
   <trkpt lat="31.201571" lon="35.291614"><ele>203.6</ele><name>TP04104</name><time>2020-01-27T12:21:12Z</time></trkpt>
   <trkpt lat="31.201576" lon="35.291634"><ele>203.6</ele><name>TP04105</name><time>2020-01-27T12:21:13Z</time></trkpt>
   <trkpt lat="31.201581" lon="35.291654"><ele>203.7</ele><name>TP04106</name><time>2020-01-27T12:21:14Z</time></trkpt>
   <trkpt lat="31.201597" lon="35.291691"><ele>203.7</ele><name>TP04107</name><time>2020-01-27T12:21:15Z</time></trkpt>
   <trkpt lat="31.201606" lon="35.291735"><ele>203.6</ele><name>TP04108</name><time>2020-01-27T12:21:18Z</time></trkpt>
   <trkpt lat="31.201603" lon="35.291752"><ele>203.7</ele><name>TP04109</name><time>2020-01-27T12:21:19Z</time></trkpt>
   <trkpt lat="31.201642" lon="35.291764"><ele>204</ele><name>TP04110</name><time>2020-01-27T12:21:21Z</time></trkpt>
   <trkpt lat="31.201668" lon="35.291776"><ele>204.2</ele><name>TP04111</name><time>2020-01-27T12:21:23Z</time></trkpt>
   <trkpt lat="31.201681" lon="35.291765"><ele>204.5</ele><name>TP04112</name><time>2020-01-27T12:21:24Z</time></trkpt>
   <trkpt lat="31.201687" lon="35.291765"><ele>204.5</ele><name>TP04113</name><time>2020-01-27T12:21:25Z</time></trkpt>
   <trkpt lat="31.201693" lon="35.291765"><ele>204.5</ele><name>TP04114</name><time>2020-01-27T12:21:26Z</time></trkpt>
   <trkpt lat="31.2017" lon="35.291759"><ele>204.6</ele><name>TP04115</name><time>2020-01-27T12:21:28Z</time></trkpt>
   <trkpt lat="31.201694" lon="35.291759"><ele>204.6</ele><name>TP04116</name><time>2020-01-27T12:21:30Z</time></trkpt>
   <trkpt lat="31.201693" lon="35.291759"><ele>204.6</ele><name>TP04117</name><time>2020-01-27T12:21:31Z</time></trkpt>
   <trkpt lat="31.201693" lon="35.291759"><ele>204.6</ele><name>TP04118</name><time>2020-01-27T12:21:33Z</time></trkpt>
   <trkpt lat="31.201694" lon="35.291759"><ele>204.7</ele><name>TP04119</name><time>2020-01-27T12:21:35Z</time></trkpt>
   <trkpt lat="31.201695" lon="35.29176"><ele>204.7</ele><name>TP04120</name><time>2020-01-27T12:21:37Z</time></trkpt>
   <trkpt lat="31.201697" lon="35.291769"><ele>204.7</ele><name>TP04121</name><time>2020-01-27T12:21:40Z</time></trkpt>
   <trkpt lat="31.201691" lon="35.291781"><ele>204.5</ele><name>TP04122</name><time>2020-01-27T12:21:43Z</time></trkpt>
   <trkpt lat="31.201688" lon="35.291786"><ele>204.5</ele><name>TP04123</name><time>2020-01-27T12:21:45Z</time></trkpt>
   <trkpt lat="31.201687" lon="35.291789"><ele>204.5</ele><name>TP04124</name><time>2020-01-27T12:21:47Z</time></trkpt>
   <trkpt lat="31.20168" lon="35.291809"><ele>204.5</ele><name>TP04125</name><time>2020-01-27T12:21:48Z</time></trkpt>
   <trkpt lat="31.201665" lon="35.291871"><ele>203.7</ele><name>TP04126</name><time>2020-01-27T12:21:51Z</time></trkpt>
   <trkpt lat="31.201665" lon="35.291922"><ele>203.5</ele><name>TP04127</name><time>2020-01-27T12:21:53Z</time></trkpt>
   <trkpt lat="31.201676" lon="35.291938"><ele>203.5</ele><name>TP04128</name><time>2020-01-27T12:21:55Z</time></trkpt>
   <trkpt lat="31.201682" lon="35.291941"><ele>203.8</ele><name>TP04129</name><time>2020-01-27T12:21:56Z</time></trkpt>
   <trkpt lat="31.201699" lon="35.291946"><ele>203.8</ele><name>TP04130</name><time>2020-01-27T12:21:59Z</time></trkpt>
   <trkpt lat="31.20175" lon="35.291993"><ele>204.1</ele><name>TP04131</name><time>2020-01-27T12:22:02Z</time></trkpt>
   <trkpt lat="31.201783" lon="35.292019"><ele>204.6</ele><name>TP04132</name><time>2020-01-27T12:22:05Z</time></trkpt>
   <trkpt lat="31.201817" lon="35.292039"><ele>205</ele><name>TP04133</name><time>2020-01-27T12:22:06Z</time></trkpt>
   <trkpt lat="31.201847" lon="35.292049"><ele>205.3</ele><name>TP04134</name><time>2020-01-27T12:22:07Z</time></trkpt>
   <trkpt lat="31.201889" lon="35.292046"><ele>205.8</ele><name>TP04135</name><time>2020-01-27T12:22:09Z</time></trkpt>
   <trkpt lat="31.201922" lon="35.292025"><ele>206.3</ele><name>TP04136</name><time>2020-01-27T12:22:10Z</time></trkpt>
   <trkpt lat="31.201949" lon="35.291988"><ele>206.7</ele><name>TP04137</name><time>2020-01-27T12:22:11Z</time></trkpt>
   <trkpt lat="31.201974" lon="35.291975"><ele>207</ele><name>TP04138</name><time>2020-01-27T12:22:14Z</time></trkpt>
   <trkpt lat="31.202015" lon="35.291987"><ele>207.5</ele><name>TP04139</name><time>2020-01-27T12:22:15Z</time></trkpt>
   <trkpt lat="31.20203" lon="35.292067"><ele>208.3</ele><name>TP04140</name><time>2020-01-27T12:22:18Z</time></trkpt>
   <trkpt lat="31.202033" lon="35.292148"><ele>209.3</ele><name>TP04141</name><time>2020-01-27T12:22:21Z</time></trkpt>
   <trkpt lat="31.20206" lon="35.292195"><ele>209.9</ele><name>TP04142</name><time>2020-01-27T12:22:24Z</time></trkpt>
   <trkpt lat="31.202074" lon="35.292217"><ele>210.2</ele><name>TP04143</name><time>2020-01-27T12:22:25Z</time></trkpt>
   <trkpt lat="31.202094" lon="35.292224"><ele>210.5</ele><name>TP04144</name><time>2020-01-27T12:22:26Z</time></trkpt>
   <trkpt lat="31.202144" lon="35.292265"><ele>210.9</ele><name>TP04145</name><time>2020-01-27T12:22:29Z</time></trkpt>
   <trkpt lat="31.202193" lon="35.292301"><ele>211</ele><name>TP04146</name><time>2020-01-27T12:22:32Z</time></trkpt>
   <trkpt lat="31.20221" lon="35.292315"><ele>210.9</ele><name>TP04147</name><time>2020-01-27T12:22:33Z</time></trkpt>
   <trkpt lat="31.202228" lon="35.292328"><ele>210.9</ele><name>TP04148</name><time>2020-01-27T12:22:34Z</time></trkpt>
   <trkpt lat="31.202239" lon="35.29234"><ele>210.8</ele><name>TP04149</name><time>2020-01-27T12:22:37Z</time></trkpt>
   <trkpt lat="31.202251" lon="35.292353"><ele>210.8</ele><name>TP04150</name><time>2020-01-27T12:22:38Z</time></trkpt>
   <trkpt lat="31.202272" lon="35.292372"><ele>210.7</ele><name>TP04151</name><time>2020-01-27T12:22:39Z</time></trkpt>
   <trkpt lat="31.202295" lon="35.292352"><ele>210.6</ele><name>TP04152</name><time>2020-01-27T12:22:42Z</time></trkpt>
   <trkpt lat="31.202308" lon="35.292363"><ele>210.7</ele><name>TP04153</name><time>2020-01-27T12:22:45Z</time></trkpt>
   <trkpt lat="31.202299" lon="35.292394"><ele>210.8</ele><name>TP04154</name><time>2020-01-27T12:22:46Z</time></trkpt>
   <trkpt lat="31.202287" lon="35.292384"><ele>210.9</ele><name>TP04155</name><time>2020-01-27T12:22:47Z</time></trkpt>
   <trkpt lat="31.202281" lon="35.292378"><ele>211</ele><name>TP04156</name><time>2020-01-27T12:22:49Z</time></trkpt>
   <trkpt lat="31.202283" lon="35.292378"><ele>211</ele><name>TP04157</name><time>2020-01-27T12:22:50Z</time></trkpt>
   <trkpt lat="31.20227" lon="35.292388"><ele>211</ele><name>TP04158</name><time>2020-01-27T12:22:53Z</time></trkpt>
   <trkpt lat="31.202267" lon="35.292395"><ele>211.1</ele><name>TP04159</name><time>2020-01-27T12:22:55Z</time></trkpt>
   <trkpt lat="31.202268" lon="35.292408"><ele>211.2</ele><name>TP04160</name><time>2020-01-27T12:22:58Z</time></trkpt>
   <trkpt lat="31.20227" lon="35.292436"><ele>211.3</ele><name>TP04161</name><time>2020-01-27T12:22:59Z</time></trkpt>
   <trkpt lat="31.20228" lon="35.292457"><ele>211.5</ele><name>TP04162</name><time>2020-01-27T12:23:02Z</time></trkpt>
   <trkpt lat="31.202277" lon="35.292473"><ele>211.6</ele><name>TP04163</name><time>2020-01-27T12:23:03Z</time></trkpt>
   <trkpt lat="31.202274" lon="35.292488"><ele>211.7</ele><name>TP04164</name><time>2020-01-27T12:23:04Z</time></trkpt>
   <trkpt lat="31.202283" lon="35.292496"><ele>211.8</ele><name>TP04165</name><time>2020-01-27T12:23:06Z</time></trkpt>
   <trkpt lat="31.202287" lon="35.292503"><ele>211.9</ele><name>TP04166</name><time>2020-01-27T12:23:07Z</time></trkpt>
   <trkpt lat="31.202287" lon="35.292512"><ele>211.9</ele><name>TP04167</name><time>2020-01-27T12:23:09Z</time></trkpt>
   <trkpt lat="31.202289" lon="35.292518"><ele>212</ele><name>TP04168</name><time>2020-01-27T12:23:10Z</time></trkpt>
   <trkpt lat="31.202292" lon="35.292534"><ele>212.1</ele><name>TP04169</name><time>2020-01-27T12:23:12Z</time></trkpt>
   <trkpt lat="31.202295" lon="35.292551"><ele>212.2</ele><name>TP04170</name><time>2020-01-27T12:23:14Z</time></trkpt>
   <trkpt lat="31.202297" lon="35.292558"><ele>212.3</ele><name>TP04171</name><time>2020-01-27T12:23:16Z</time></trkpt>
   <trkpt lat="31.202296" lon="35.29256"><ele>212.3</ele><name>TP04172</name><time>2020-01-27T12:23:17Z</time></trkpt>
   <trkpt lat="31.202295" lon="35.292563"><ele>212.3</ele><name>TP04173</name><time>2020-01-27T12:23:19Z</time></trkpt>
   <trkpt lat="31.202295" lon="35.292566"><ele>212.4</ele><name>TP04174</name><time>2020-01-27T12:23:20Z</time></trkpt>
   <trkpt lat="31.202293" lon="35.292568"><ele>212.4</ele><name>TP04175</name><time>2020-01-27T12:23:22Z</time></trkpt>
   <trkpt lat="31.202292" lon="35.292568"><ele>212.4</ele><name>TP04176</name><time>2020-01-27T12:23:23Z</time></trkpt>
   <trkpt lat="31.202291" lon="35.292569"><ele>212.4</ele><name>TP04177</name><time>2020-01-27T12:23:24Z</time></trkpt>
   <trkpt lat="31.202322" lon="35.292588"><ele>212.7</ele><name>TP04178</name><time>2020-01-27T12:23:26Z</time></trkpt>
   <trkpt lat="31.202328" lon="35.292591"><ele>212.7</ele><name>TP04179</name><time>2020-01-27T12:23:28Z</time></trkpt>
   <trkpt lat="31.20233" lon="35.292595"><ele>212.7</ele><name>TP04180</name><time>2020-01-27T12:23:30Z</time></trkpt>
   <trkpt lat="31.20233" lon="35.292607"><ele>212.8</ele><name>TP04181</name><time>2020-01-27T12:23:31Z</time></trkpt>
   <trkpt lat="31.202328" lon="35.292647"><ele>213</ele><name>TP04182</name><time>2020-01-27T12:23:33Z</time></trkpt>
   <trkpt lat="31.202329" lon="35.292674"><ele>213.1</ele><name>TP04183</name><time>2020-01-27T12:23:34Z</time></trkpt>
   <trkpt lat="31.202342" lon="35.292712"><ele>213.3</ele><name>TP04184</name><time>2020-01-27T12:23:36Z</time></trkpt>
   <trkpt lat="31.202348" lon="35.292726"><ele>213.4</ele><name>TP04185</name><time>2020-01-27T12:23:37Z</time></trkpt>
   <trkpt lat="31.202366" lon="35.292789"><ele>213.7</ele><name>TP04186</name><time>2020-01-27T12:23:40Z</time></trkpt>
   <trkpt lat="31.202391" lon="35.292818"><ele>213.7</ele><name>TP04187</name><time>2020-01-27T12:23:41Z</time></trkpt>
   <trkpt lat="31.202422" lon="35.292851"><ele>213.9</ele><name>TP04188</name><time>2020-01-27T12:23:44Z</time></trkpt>
   <trkpt lat="31.202454" lon="35.292888"><ele>214.1</ele><name>TP04189</name><time>2020-01-27T12:23:45Z</time></trkpt>
   <trkpt lat="31.202483" lon="35.292932"><ele>214.3</ele><name>TP04190</name><time>2020-01-27T12:23:46Z</time></trkpt>
   <trkpt lat="31.202548" lon="35.293054"><ele>215.3</ele><name>TP04191</name><time>2020-01-27T12:23:47Z</time></trkpt>
   <trkpt lat="31.202622" lon="35.293127"><ele>216.6</ele><name>TP04192</name><time>2020-01-27T12:23:50Z</time></trkpt>
   <trkpt lat="31.202646" lon="35.293161"><ele>217</ele><name>TP04193</name><time>2020-01-27T12:23:53Z</time></trkpt>
   <trkpt lat="31.202656" lon="35.293209"><ele>217.3</ele><name>TP04194</name><time>2020-01-27T12:23:54Z</time></trkpt>
   <trkpt lat="31.202657" lon="35.293232"><ele>217.4</ele><name>TP04195</name><time>2020-01-27T12:23:55Z</time></trkpt>
   <trkpt lat="31.202667" lon="35.293263"><ele>217.6</ele><name>TP04196</name><time>2020-01-27T12:23:57Z</time></trkpt>
   <trkpt lat="31.202712" lon="35.293279"><ele>218</ele><name>TP04197</name><time>2020-01-27T12:24:00Z</time></trkpt>
   <trkpt lat="31.202771" lon="35.293322"><ele>218.6</ele><name>TP04198</name><time>2020-01-27T12:24:03Z</time></trkpt>
   <trkpt lat="31.202797" lon="35.293387"><ele>219.3</ele><name>TP04199</name><time>2020-01-27T12:24:06Z</time></trkpt>
   <trkpt lat="31.202808" lon="35.2934"><ele>219.5</ele><name>TP04200</name><time>2020-01-27T12:24:07Z</time></trkpt>
   <trkpt lat="31.202835" lon="35.293411"><ele>219.9</ele><name>TP04201</name><time>2020-01-27T12:24:09Z</time></trkpt>
   <trkpt lat="31.202876" lon="35.293461"><ele>220.6</ele><name>TP04202</name><time>2020-01-27T12:24:12Z</time></trkpt>
   <trkpt lat="31.202891" lon="35.293476"><ele>220.7</ele><name>TP04203</name><time>2020-01-27T12:24:14Z</time></trkpt>
   <trkpt lat="31.202919" lon="35.293528"><ele>221</ele><name>TP04204</name><time>2020-01-27T12:24:16Z</time></trkpt>
   <trkpt lat="31.202945" lon="35.293542"><ele>221.2</ele><name>TP04205</name><time>2020-01-27T12:24:18Z</time></trkpt>
   <trkpt lat="31.202972" lon="35.293566"><ele>221.5</ele><name>TP04206</name><time>2020-01-27T12:24:21Z</time></trkpt>
   <trkpt lat="31.202977" lon="35.293574"><ele>221.6</ele><name>TP04207</name><time>2020-01-27T12:24:22Z</time></trkpt>
   <trkpt lat="31.202993" lon="35.293581"><ele>221.8</ele><name>TP04208</name><time>2020-01-27T12:24:23Z</time></trkpt>
   <trkpt lat="31.203005" lon="35.293599"><ele>222</ele><name>TP04209</name><time>2020-01-27T12:24:24Z</time></trkpt>
   <trkpt lat="31.203023" lon="35.293619"><ele>222.2</ele><name>TP04210</name><time>2020-01-27T12:24:25Z</time></trkpt>
   <trkpt lat="31.203071" lon="35.293663"><ele>222.8</ele><name>TP04211</name><time>2020-01-27T12:24:27Z</time></trkpt>
   <trkpt lat="31.203112" lon="35.293702"><ele>222.6</ele><name>TP04212</name><time>2020-01-27T12:24:29Z</time></trkpt>
   <trkpt lat="31.203127" lon="35.293715"><ele>222.4</ele><name>TP04213</name><time>2020-01-27T12:24:32Z</time></trkpt>
   <trkpt lat="31.203141" lon="35.293729"><ele>222.2</ele><name>TP04214</name><time>2020-01-27T12:24:33Z</time></trkpt>
   <trkpt lat="31.203156" lon="35.293742"><ele>222</ele><name>TP04215</name><time>2020-01-27T12:24:34Z</time></trkpt>
   <trkpt lat="31.203204" lon="35.293776"><ele>221.7</ele><name>TP04216</name><time>2020-01-27T12:24:36Z</time></trkpt>
   <trkpt lat="31.203217" lon="35.293793"><ele>221.6</ele><name>TP04217</name><time>2020-01-27T12:24:37Z</time></trkpt>
   <trkpt lat="31.203235" lon="35.293803"><ele>221.6</ele><name>TP04218</name><time>2020-01-27T12:24:40Z</time></trkpt>
   <trkpt lat="31.203281" lon="35.293831"><ele>221.9</ele><name>TP04219</name><time>2020-01-27T12:24:41Z</time></trkpt>
   <trkpt lat="31.203316" lon="35.293849"><ele>222.1</ele><name>TP04220</name><time>2020-01-27T12:24:44Z</time></trkpt>
   <trkpt lat="31.203355" lon="35.293845"><ele>222.3</ele><name>TP04221</name><time>2020-01-27T12:24:45Z</time></trkpt>
   <trkpt lat="31.20341" lon="35.293854"><ele>222.6</ele><name>TP04222</name><time>2020-01-27T12:24:47Z</time></trkpt>
   <trkpt lat="31.203456" lon="35.293909"><ele>222.8</ele><name>TP04223</name><time>2020-01-27T12:24:48Z</time></trkpt>
   <trkpt lat="31.203495" lon="35.293952"><ele>222.6</ele><name>TP04224</name><time>2020-01-27T12:24:51Z</time></trkpt>
   <trkpt lat="31.203539" lon="35.293966"><ele>222.3</ele><name>TP04225</name><time>2020-01-27T12:24:54Z</time></trkpt>
   <trkpt lat="31.203579" lon="35.293987"><ele>222.5</ele><name>TP04226</name><time>2020-01-27T12:24:57Z</time></trkpt>
   <trkpt lat="31.203597" lon="35.294003"><ele>222.6</ele><name>TP04227</name><time>2020-01-27T12:24:59Z</time></trkpt>
   <trkpt lat="31.203622" lon="35.294011"><ele>222.8</ele><name>TP04228</name><time>2020-01-27T12:25:01Z</time></trkpt>
   <trkpt lat="31.203653" lon="35.294021"><ele>223.1</ele><name>TP04229</name><time>2020-01-27T12:25:04Z</time></trkpt>
   <trkpt lat="31.203685" lon="35.294052"><ele>223.4</ele><name>TP04230</name><time>2020-01-27T12:25:05Z</time></trkpt>
   <trkpt lat="31.203711" lon="35.294124"><ele>223.8</ele><name>TP04231</name><time>2020-01-27T12:25:08Z</time></trkpt>
   <trkpt lat="31.203739" lon="35.294174"><ele>223.7</ele><name>TP04232</name><time>2020-01-27T12:25:10Z</time></trkpt>
   <trkpt lat="31.203755" lon="35.294196"><ele>223.7</ele><name>TP04233</name><time>2020-01-27T12:25:12Z</time></trkpt>
   <trkpt lat="31.20377" lon="35.294217"><ele>223.7</ele><name>TP04234</name><time>2020-01-27T12:25:15Z</time></trkpt>
   <trkpt lat="31.203785" lon="35.294239"><ele>223.7</ele><name>TP04235</name><time>2020-01-27T12:25:16Z</time></trkpt>
   <trkpt lat="31.203812" lon="35.29427"><ele>223.7</ele><name>TP04236</name><time>2020-01-27T12:25:19Z</time></trkpt>
   <trkpt lat="31.203823" lon="35.294284"><ele>223.6</ele><name>TP04237</name><time>2020-01-27T12:25:20Z</time></trkpt>
   <trkpt lat="31.203837" lon="35.294329"><ele>223.6</ele><name>TP04238</name><time>2020-01-27T12:25:21Z</time></trkpt>
   <trkpt lat="31.203844" lon="35.294359"><ele>223.5</ele><name>TP04239</name><time>2020-01-27T12:25:24Z</time></trkpt>
   <trkpt lat="31.203851" lon="35.294389"><ele>223.5</ele><name>TP04240</name><time>2020-01-27T12:25:25Z</time></trkpt>
   <trkpt lat="31.203858" lon="35.294419"><ele>223.5</ele><name>TP04241</name><time>2020-01-27T12:25:26Z</time></trkpt>
   <trkpt lat="31.203852" lon="35.294552"><ele>224</ele><name>TP04242</name><time>2020-01-27T12:25:29Z</time></trkpt>
   <trkpt lat="31.203852" lon="35.294638"><ele>224.3</ele><name>TP04243</name><time>2020-01-27T12:25:32Z</time></trkpt>
   <trkpt lat="31.203877" lon="35.294712"><ele>224.7</ele><name>TP04244</name><time>2020-01-27T12:25:35Z</time></trkpt>
   <trkpt lat="31.203893" lon="35.294753"><ele>225.1</ele><name>TP04245</name><time>2020-01-27T12:25:36Z</time></trkpt>
   <trkpt lat="31.203914" lon="35.294812"><ele>225.5</ele><name>TP04246</name><time>2020-01-27T12:25:38Z</time></trkpt>
   <trkpt lat="31.203948" lon="35.294882"><ele>225.9</ele><name>TP04247</name><time>2020-01-27T12:25:41Z</time></trkpt>
   <trkpt lat="31.203962" lon="35.294905"><ele>225.9</ele><name>TP04248</name><time>2020-01-27T12:25:42Z</time></trkpt>
   <trkpt lat="31.203975" lon="35.294929"><ele>225.9</ele><name>TP04249</name><time>2020-01-27T12:25:43Z</time></trkpt>
   <trkpt lat="31.204007" lon="35.294993"><ele>226.2</ele><name>TP04250</name><time>2020-01-27T12:25:46Z</time></trkpt>
   <trkpt lat="31.204008" lon="35.295056"><ele>226.5</ele><name>TP04251</name><time>2020-01-27T12:25:49Z</time></trkpt>
   <trkpt lat="31.20401" lon="35.295074"><ele>226.7</ele><name>TP04252</name><time>2020-01-27T12:25:51Z</time></trkpt>
   <trkpt lat="31.204011" lon="35.295093"><ele>226.9</ele><name>TP04253</name><time>2020-01-27T12:25:52Z</time></trkpt>
   <trkpt lat="31.20403" lon="35.295157"><ele>227.6</ele><name>TP04254</name><time>2020-01-27T12:25:54Z</time></trkpt>
   <trkpt lat="31.20405" lon="35.295225"><ele>228.5</ele><name>TP04255</name><time>2020-01-27T12:25:57Z</time></trkpt>
   <trkpt lat="31.20407" lon="35.295291"><ele>229.2</ele><name>TP04256</name><time>2020-01-27T12:26:00Z</time></trkpt>
   <trkpt lat="31.204079" lon="35.295329"><ele>229.4</ele><name>TP04257</name><time>2020-01-27T12:26:01Z</time></trkpt>
   <trkpt lat="31.204083" lon="35.295345"><ele>229.5</ele><name>TP04258</name><time>2020-01-27T12:26:02Z</time></trkpt>
   <trkpt lat="31.204101" lon="35.295377"><ele>229.6</ele><name>TP04259</name><time>2020-01-27T12:26:04Z</time></trkpt>
   <trkpt lat="31.204104" lon="35.295383"><ele>229.6</ele><name>TP04260</name><time>2020-01-27T12:26:05Z</time></trkpt>
   <trkpt lat="31.204118" lon="35.295406"><ele>229.7</ele><name>TP04261</name><time>2020-01-27T12:26:07Z</time></trkpt>
   <trkpt lat="31.204137" lon="35.295418"><ele>229.8</ele><name>TP04262</name><time>2020-01-27T12:26:09Z</time></trkpt>
   <trkpt lat="31.204163" lon="35.29544"><ele>229.9</ele><name>TP04263</name><time>2020-01-27T12:26:11Z</time></trkpt>
   <trkpt lat="31.204167" lon="35.295448"><ele>230</ele><name>TP04264</name><time>2020-01-27T12:26:12Z</time></trkpt>
   <trkpt lat="31.204174" lon="35.295465"><ele>230.3</ele><name>TP04265</name><time>2020-01-27T12:26:13Z</time></trkpt>
   <trkpt lat="31.204177" lon="35.295511"><ele>231.1</ele><name>TP04266</name><time>2020-01-27T12:26:15Z</time></trkpt>
   <trkpt lat="31.204176" lon="35.295547"><ele>231.6</ele><name>TP04267</name><time>2020-01-27T12:26:17Z</time></trkpt>
   <trkpt lat="31.204165" lon="35.295562"><ele>231.8</ele><name>TP04268</name><time>2020-01-27T12:26:18Z</time></trkpt>
   <trkpt lat="31.204149" lon="35.295573"><ele>232</ele><name>TP04269</name><time>2020-01-27T12:26:19Z</time></trkpt>
   <trkpt lat="31.204124" lon="35.295597"><ele>232.5</ele><name>TP04270</name><time>2020-01-27T12:26:20Z</time></trkpt>
   <trkpt lat="31.204094" lon="35.295622"><ele>233.2</ele><name>TP04271</name><time>2020-01-27T12:26:21Z</time></trkpt>
   <trkpt lat="31.204065" lon="35.295644"><ele>233.7</ele><name>TP04272</name><time>2020-01-27T12:26:22Z</time></trkpt>
   <trkpt lat="31.204026" lon="35.295663"><ele>233.8</ele><name>TP04273</name><time>2020-01-27T12:26:25Z</time></trkpt>
   <trkpt lat="31.203993" lon="35.295683"><ele>234</ele><name>TP04274</name><time>2020-01-27T12:26:26Z</time></trkpt>
   <trkpt lat="31.203934" lon="35.295734"><ele>234.7</ele><name>TP04275</name><time>2020-01-27T12:26:27Z</time></trkpt>
   <trkpt lat="31.203894" lon="35.295799"><ele>235.1</ele><name>TP04276</name><time>2020-01-27T12:26:30Z</time></trkpt>
   <trkpt lat="31.203872" lon="35.295828"><ele>235.1</ele><name>TP04277</name><time>2020-01-27T12:26:31Z</time></trkpt>
   <trkpt lat="31.203809" lon="35.295857"><ele>234.9</ele><name>TP04278</name><time>2020-01-27T12:26:34Z</time></trkpt>
   <trkpt lat="31.203744" lon="35.29587"><ele>234.7</ele><name>TP04279</name><time>2020-01-27T12:26:37Z</time></trkpt>
   <trkpt lat="31.203712" lon="35.295882"><ele>234.5</ele><name>TP04280</name><time>2020-01-27T12:26:39Z</time></trkpt>
   <trkpt lat="31.203647" lon="35.295908"><ele>234.1</ele><name>TP04281</name><time>2020-01-27T12:26:42Z</time></trkpt>
   <trkpt lat="31.203597" lon="35.295933"><ele>234</ele><name>TP04282</name><time>2020-01-27T12:26:45Z</time></trkpt>
   <trkpt lat="31.203573" lon="35.295955"><ele>233.8</ele><name>TP04283</name><time>2020-01-27T12:26:48Z</time></trkpt>
   <trkpt lat="31.203536" lon="35.296005"><ele>233.6</ele><name>TP04284</name><time>2020-01-27T12:26:49Z</time></trkpt>
   <trkpt lat="31.203527" lon="35.296021"><ele>233.6</ele><name>TP04285</name><time>2020-01-27T12:26:50Z</time></trkpt>
   <trkpt lat="31.203515" lon="35.296052"><ele>233.5</ele><name>TP04286</name><time>2020-01-27T12:26:53Z</time></trkpt>
   <trkpt lat="31.203498" lon="35.296078"><ele>233.6</ele><name>TP04287</name><time>2020-01-27T12:26:54Z</time></trkpt>
   <trkpt lat="31.203472" lon="35.296104"><ele>233.8</ele><name>TP04288</name><time>2020-01-27T12:26:56Z</time></trkpt>
   <trkpt lat="31.203462" lon="35.296109"><ele>233.9</ele><name>TP04289</name><time>2020-01-27T12:26:57Z</time></trkpt>
   <trkpt lat="31.203432" lon="35.296108"><ele>233.8</ele><name>TP04290</name><time>2020-01-27T12:26:58Z</time></trkpt>
   <trkpt lat="31.20342" lon="35.296103"><ele>233.7</ele><name>TP04291</name><time>2020-01-27T12:26:59Z</time></trkpt>
   <trkpt lat="31.203409" lon="35.296099"><ele>233.7</ele><name>TP04292</name><time>2020-01-27T12:27:01Z</time></trkpt>
   <trkpt lat="31.203397" lon="35.296094"><ele>233.6</ele><name>TP04293</name><time>2020-01-27T12:27:03Z</time></trkpt>
   <trkpt lat="31.203385" lon="35.29609"><ele>233.6</ele><name>TP04294</name><time>2020-01-27T12:27:04Z</time></trkpt>
   <trkpt lat="31.203238" lon="35.296011"><ele>231.2</ele><name>TP04295</name><time>2020-01-27T12:27:07Z</time></trkpt>
   <trkpt lat="31.20321" lon="35.295994"><ele>230.6</ele><name>TP04296</name><time>2020-01-27T12:27:08Z</time></trkpt>
   <trkpt lat="31.2032" lon="35.295979"><ele>230.5</ele><name>TP04297</name><time>2020-01-27T12:27:11Z</time></trkpt>
   <trkpt lat="31.203163" lon="35.295974"><ele>230.2</ele><name>TP04298</name><time>2020-01-27T12:27:12Z</time></trkpt>
   <trkpt lat="31.203119" lon="35.295967"><ele>229.9</ele><name>TP04299</name><time>2020-01-27T12:27:15Z</time></trkpt>
   <trkpt lat="31.203093" lon="35.295961"><ele>230.1</ele><name>TP04300</name><time>2020-01-27T12:27:17Z</time></trkpt>
   <trkpt lat="31.203072" lon="35.295945"><ele>230.3</ele><name>TP04301</name><time>2020-01-27T12:27:20Z</time></trkpt>
   <trkpt lat="31.203069" lon="35.295929"><ele>230.4</ele><name>TP04302</name><time>2020-01-27T12:27:22Z</time></trkpt>
   <trkpt lat="31.203066" lon="35.295915"><ele>230.5</ele><name>TP04303</name><time>2020-01-27T12:27:23Z</time></trkpt>
   <trkpt lat="31.203058" lon="35.29588"><ele>230.8</ele><name>TP04304</name><time>2020-01-27T12:27:25Z</time></trkpt>
   <trkpt lat="31.203045" lon="35.295865"><ele>231.1</ele><name>TP04305</name><time>2020-01-27T12:27:27Z</time></trkpt>
   <trkpt lat="31.203044" lon="35.295863"><ele>231.1</ele><name>TP04306</name><time>2020-01-27T12:27:29Z</time></trkpt>
   <trkpt lat="31.203043" lon="35.295861"><ele>231.1</ele><name>TP04307</name><time>2020-01-27T12:27:30Z</time></trkpt>
   <trkpt lat="31.203042" lon="35.295859"><ele>231.2</ele><name>TP04308</name><time>2020-01-27T12:27:32Z</time></trkpt>
   <trkpt lat="31.203041" lon="35.295857"><ele>231.2</ele><name>TP04309</name><time>2020-01-27T12:27:34Z</time></trkpt>
   <trkpt lat="31.20304" lon="35.295854"><ele>231.2</ele><name>TP04310</name><time>2020-01-27T12:27:35Z</time></trkpt>
   <trkpt lat="31.203039" lon="35.295852"><ele>231.2</ele><name>TP04311</name><time>2020-01-27T12:27:37Z</time></trkpt>
   <trkpt lat="31.203038" lon="35.29585"><ele>231.3</ele><name>TP04312</name><time>2020-01-27T12:27:38Z</time></trkpt>
   <trkpt lat="31.203037" lon="35.295848"><ele>231.3</ele><name>TP04313</name><time>2020-01-27T12:27:39Z</time></trkpt>
   <trkpt lat="31.203036" lon="35.295846"><ele>231.3</ele><name>TP04314</name><time>2020-01-27T12:27:40Z</time></trkpt>
   <trkpt lat="31.203035" lon="35.295844"><ele>231.3</ele><name>TP04315</name><time>2020-01-27T12:27:41Z</time></trkpt>
   <trkpt lat="31.203034" lon="35.295842"><ele>231.4</ele><name>TP04316</name><time>2020-01-27T12:27:43Z</time></trkpt>
   <trkpt lat="31.203032" lon="35.29584"><ele>231.4</ele><name>TP04317</name><time>2020-01-27T12:27:44Z</time></trkpt>
   <trkpt lat="31.203031" lon="35.295838"><ele>231.4</ele><name>TP04318</name><time>2020-01-27T12:27:45Z</time></trkpt>
   <trkpt lat="31.20303" lon="35.295836"><ele>231.5</ele><name>TP04319</name><time>2020-01-27T12:27:46Z</time></trkpt>
   <trkpt lat="31.203029" lon="35.295834"><ele>231.5</ele><name>TP04320</name><time>2020-01-27T12:27:48Z</time></trkpt>
   <trkpt lat="31.203028" lon="35.295832"><ele>231.5</ele><name>TP04321</name><time>2020-01-27T12:27:50Z</time></trkpt>
   <trkpt lat="31.203027" lon="35.295829"><ele>231.5</ele><name>TP04322</name><time>2020-01-27T12:27:52Z</time></trkpt>
   <trkpt lat="31.203026" lon="35.295827"><ele>231.6</ele><name>TP04323</name><time>2020-01-27T12:27:54Z</time></trkpt>
   <trkpt lat="31.203025" lon="35.295825"><ele>231.6</ele><name>TP04324</name><time>2020-01-27T12:27:56Z</time></trkpt>
   <trkpt lat="31.203024" lon="35.295823"><ele>231.6</ele><name>TP04325</name><time>2020-01-27T12:27:58Z</time></trkpt>
   <trkpt lat="31.203023" lon="35.295821"><ele>231.6</ele><name>TP04326</name><time>2020-01-27T12:28:00Z</time></trkpt>
   <trkpt lat="31.203022" lon="35.295819"><ele>231.7</ele><name>TP04327</name><time>2020-01-27T12:28:02Z</time></trkpt>
   <trkpt lat="31.203021" lon="35.295817"><ele>231.7</ele><name>TP04328</name><time>2020-01-27T12:28:03Z</time></trkpt>
   <trkpt lat="31.203002" lon="35.295784"><ele>232.2</ele><name>TP04329</name><time>2020-01-27T12:28:05Z</time></trkpt>
   <trkpt lat="31.202968" lon="35.295741"><ele>233</ele><name>TP04330</name><time>2020-01-27T12:28:07Z</time></trkpt>
   <trkpt lat="31.202965" lon="35.295711"><ele>233.3</ele><name>TP04331</name><time>2020-01-27T12:28:10Z</time></trkpt>
   <trkpt lat="31.202949" lon="35.295698"><ele>233.5</ele><name>TP04332</name><time>2020-01-27T12:28:11Z</time></trkpt>
   <trkpt lat="31.202921" lon="35.295687"><ele>233.8</ele><name>TP04333</name><time>2020-01-27T12:28:12Z</time></trkpt>
   <trkpt lat="31.202884" lon="35.295696"><ele>234.2</ele><name>TP04334</name><time>2020-01-27T12:28:13Z</time></trkpt>
   <trkpt lat="31.202871" lon="35.295697"><ele>234.3</ele><name>TP04335</name><time>2020-01-27T12:28:14Z</time></trkpt>
   <trkpt lat="31.202853" lon="35.295689"><ele>234.5</ele><name>TP04336</name><time>2020-01-27T12:28:15Z</time></trkpt>
   <trkpt lat="31.202833" lon="35.295688"><ele>234.6</ele><name>TP04337</name><time>2020-01-27T12:28:17Z</time></trkpt>
   <trkpt lat="31.202808" lon="35.295685"><ele>234.8</ele><name>TP04338</name><time>2020-01-27T12:28:18Z</time></trkpt>
   <trkpt lat="31.202786" lon="35.295671"><ele>234.8</ele><name>TP04339</name><time>2020-01-27T12:28:20Z</time></trkpt>
   <trkpt lat="31.202739" lon="35.295634"><ele>234.8</ele><name>TP04340</name><time>2020-01-27T12:28:21Z</time></trkpt>
   <trkpt lat="31.202724" lon="35.295622"><ele>234.8</ele><name>TP04341</name><time>2020-01-27T12:28:22Z</time></trkpt>
   <trkpt lat="31.202709" lon="35.295609"><ele>234.9</ele><name>TP04342</name><time>2020-01-27T12:28:25Z</time></trkpt>
   <trkpt lat="31.202673" lon="35.295581"><ele>234.9</ele><name>TP04343</name><time>2020-01-27T12:28:26Z</time></trkpt>
   <trkpt lat="31.202644" lon="35.295558"><ele>235.1</ele><name>TP04344</name><time>2020-01-27T12:28:28Z</time></trkpt>
   <trkpt lat="31.202619" lon="35.295539"><ele>235.1</ele><name>TP04345</name><time>2020-01-27T12:28:31Z</time></trkpt>
   <trkpt lat="31.202577" lon="35.295524"><ele>235.5</ele><name>TP04346</name><time>2020-01-27T12:28:33Z</time></trkpt>
   <trkpt lat="31.202542" lon="35.295498"><ele>235.9</ele><name>TP04347</name><time>2020-01-27T12:28:36Z</time></trkpt>
   <trkpt lat="31.202528" lon="35.295481"><ele>235.9</ele><name>TP04348</name><time>2020-01-27T12:28:37Z</time></trkpt>
   <trkpt lat="31.202514" lon="35.295478"><ele>235.9</ele><name>TP04349</name><time>2020-01-27T12:28:38Z</time></trkpt>
   <trkpt lat="31.202474" lon="35.295446"><ele>236</ele><name>TP04350</name><time>2020-01-27T12:28:41Z</time></trkpt>
   <trkpt lat="31.202447" lon="35.295449"><ele>236</ele><name>TP04351</name><time>2020-01-27T12:28:43Z</time></trkpt>
   <trkpt lat="31.202438" lon="35.295451"><ele>236</ele><name>TP04352</name><time>2020-01-27T12:28:44Z</time></trkpt>
   <trkpt lat="31.202422" lon="35.295452"><ele>236</ele><name>TP04353</name><time>2020-01-27T12:28:46Z</time></trkpt>
   <trkpt lat="31.202417" lon="35.295452"><ele>236</ele><name>TP04354</name><time>2020-01-27T12:28:47Z</time></trkpt>
   <trkpt lat="31.202396" lon="35.295455"><ele>236</ele><name>TP04355</name><time>2020-01-27T12:28:49Z</time></trkpt>
   <trkpt lat="31.202385" lon="35.295458"><ele>235.9</ele><name>TP04356</name><time>2020-01-27T12:28:50Z</time></trkpt>
   <trkpt lat="31.202373" lon="35.29546"><ele>235.9</ele><name>TP04357</name><time>2020-01-27T12:28:53Z</time></trkpt>
   <trkpt lat="31.202362" lon="35.295462"><ele>235.9</ele><name>TP04358</name><time>2020-01-27T12:28:54Z</time></trkpt>
   <trkpt lat="31.202353" lon="35.29546"><ele>235.9</ele><name>TP04359</name><time>2020-01-27T12:28:55Z</time></trkpt>
   <trkpt lat="31.202346" lon="35.295459"><ele>235.8</ele><name>TP04360</name><time>2020-01-27T12:28:56Z</time></trkpt>
   <trkpt lat="31.202313" lon="35.295464"><ele>235.8</ele><name>TP04361</name><time>2020-01-27T12:28:59Z</time></trkpt>
   <trkpt lat="31.202306" lon="35.295464"><ele>235.8</ele><name>TP04362</name><time>2020-01-27T12:29:00Z</time></trkpt>
   <trkpt lat="31.202295" lon="35.295462"><ele>235.8</ele><name>TP04363</name><time>2020-01-27T12:29:01Z</time></trkpt>
   <trkpt lat="31.202286" lon="35.29546"><ele>235.9</ele><name>TP04364</name><time>2020-01-27T12:29:02Z</time></trkpt>
   <trkpt lat="31.202274" lon="35.29546"><ele>235.9</ele><name>TP04365</name><time>2020-01-27T12:29:04Z</time></trkpt>
   <trkpt lat="31.20227" lon="35.295458"><ele>235.9</ele><name>TP04366</name><time>2020-01-27T12:29:06Z</time></trkpt>
   <trkpt lat="31.202284" lon="35.295461"><ele>236</ele><name>TP04367</name><time>2020-01-27T12:29:07Z</time></trkpt>
   <trkpt lat="31.202263" lon="35.295458"><ele>236</ele><name>TP04368</name><time>2020-01-27T12:29:09Z</time></trkpt>
   <trkpt lat="31.202251" lon="35.295458"><ele>236.1</ele><name>TP04369</name><time>2020-01-27T12:29:10Z</time></trkpt>
   <trkpt lat="31.202231" lon="35.295461"><ele>236.2</ele><name>TP04370</name><time>2020-01-27T12:29:12Z</time></trkpt>
   <trkpt lat="31.202224" lon="35.295462"><ele>236.2</ele><name>TP04371</name><time>2020-01-27T12:29:13Z</time></trkpt>
   <trkpt lat="31.202216" lon="35.295463"><ele>236.3</ele><name>TP04372</name><time>2020-01-27T12:29:15Z</time></trkpt>
   <trkpt lat="31.202213" lon="35.295464"><ele>236.3</ele><name>TP04373</name><time>2020-01-27T12:29:16Z</time></trkpt>
   <trkpt lat="31.202212" lon="35.295463"><ele>236.3</ele><name>TP04374</name><time>2020-01-27T12:29:18Z</time></trkpt>
   <trkpt lat="31.202207" lon="35.295463"><ele>236.3</ele><name>TP04375</name><time>2020-01-27T12:29:20Z</time></trkpt>
   <trkpt lat="31.202205" lon="35.295465"><ele>236.4</ele><name>TP04376</name><time>2020-01-27T12:29:21Z</time></trkpt>
   <trkpt lat="31.202204" lon="35.295467"><ele>236.4</ele><name>TP04377</name><time>2020-01-27T12:29:23Z</time></trkpt>
   <trkpt lat="31.202203" lon="35.295467"><ele>236.4</ele><name>TP04378</name><time>2020-01-27T12:29:24Z</time></trkpt>
   <trkpt lat="31.202202" lon="35.295467"><ele>236.4</ele><name>TP04379</name><time>2020-01-27T12:29:25Z</time></trkpt>
   <trkpt lat="31.202196" lon="35.295469"><ele>236.4</ele><name>TP04380</name><time>2020-01-27T12:29:27Z</time></trkpt>
   <trkpt lat="31.202181" lon="35.295473"><ele>236.6</ele><name>TP04381</name><time>2020-01-27T12:29:28Z</time></trkpt>
   <trkpt lat="31.202147" lon="35.295483"><ele>236.9</ele><name>TP04382</name><time>2020-01-27T12:29:30Z</time></trkpt>
   <trkpt lat="31.202135" lon="35.295481"><ele>237.1</ele><name>TP04383</name><time>2020-01-27T12:29:31Z</time></trkpt>
   <trkpt lat="31.202138" lon="35.295493"><ele>237.2</ele><name>TP04384</name><time>2020-01-27T12:29:34Z</time></trkpt>
   <trkpt lat="31.202141" lon="35.295499"><ele>237.2</ele><name>TP04385</name><time>2020-01-27T12:29:35Z</time></trkpt>
   <trkpt lat="31.202145" lon="35.295508"><ele>237.3</ele><name>TP04386</name><time>2020-01-27T12:29:37Z</time></trkpt>
   <trkpt lat="31.202146" lon="35.295514"><ele>237.4</ele><name>TP04387</name><time>2020-01-27T12:29:39Z</time></trkpt>
   <trkpt lat="31.202146" lon="35.295517"><ele>237.5</ele><name>TP04388</name><time>2020-01-27T12:29:41Z</time></trkpt>
   <trkpt lat="31.202146" lon="35.295511"><ele>237.5</ele><name>TP04389</name><time>2020-01-27T12:29:44Z</time></trkpt>
   <trkpt lat="31.202154" lon="35.295507"><ele>237.7</ele><name>TP04390</name><time>2020-01-27T12:29:45Z</time></trkpt>
   <trkpt lat="31.202162" lon="35.2955"><ele>237.9</ele><name>TP04391</name><time>2020-01-27T12:29:47Z</time></trkpt>
   <trkpt lat="31.202139" lon="35.295489"><ele>238.3</ele><name>TP04392</name><time>2020-01-27T12:29:50Z</time></trkpt>
   <trkpt lat="31.202106" lon="35.295485"><ele>238.9</ele><name>TP04393</name><time>2020-01-27T12:29:53Z</time></trkpt>
   <trkpt lat="31.202091" lon="35.295482"><ele>239.2</ele><name>TP04394</name><time>2020-01-27T12:29:56Z</time></trkpt>
   <trkpt lat="31.202082" lon="35.295479"><ele>239.4</ele><name>TP04395</name><time>2020-01-27T12:29:58Z</time></trkpt>
   <trkpt lat="31.202076" lon="35.295477"><ele>239.6</ele><name>TP04396</name><time>2020-01-27T12:30:00Z</time></trkpt>
   <trkpt lat="31.202067" lon="35.295484"><ele>239.8</ele><name>TP04397</name><time>2020-01-27T12:30:03Z</time></trkpt>
   <trkpt lat="31.202058" lon="35.295487"><ele>240</ele><name>TP04398</name><time>2020-01-27T12:30:04Z</time></trkpt>
   <trkpt lat="31.202045" lon="35.295489"><ele>240.3</ele><name>TP04399</name><time>2020-01-27T12:30:06Z</time></trkpt>
   <trkpt lat="31.202053" lon="35.295495"><ele>240.5</ele><name>TP04400</name><time>2020-01-27T12:30:10Z</time></trkpt>
   <trkpt lat="31.202036" lon="35.295499"><ele>240.8</ele><name>TP04401</name><time>2020-01-27T12:30:12Z</time></trkpt>
   <trkpt lat="31.202031" lon="35.295499"><ele>240.9</ele><name>TP04402</name><time>2020-01-27T12:30:13Z</time></trkpt>
   <trkpt lat="31.202016" lon="35.295497"><ele>241.2</ele><name>TP04403</name><time>2020-01-27T12:30:15Z</time></trkpt>
   <trkpt lat="31.202011" lon="35.295497"><ele>241.3</ele><name>TP04404</name><time>2020-01-27T12:30:16Z</time></trkpt>
   <trkpt lat="31.202005" lon="35.295497"><ele>241.5</ele><name>TP04405</name><time>2020-01-27T12:30:18Z</time></trkpt>
   <trkpt lat="31.202" lon="35.295498"><ele>241.6</ele><name>TP04406</name><time>2020-01-27T12:30:19Z</time></trkpt>
   <trkpt lat="31.201994" lon="35.295498"><ele>241.7</ele><name>TP04407</name><time>2020-01-27T12:30:21Z</time></trkpt>
   <trkpt lat="31.201989" lon="35.295498"><ele>241.8</ele><name>TP04408</name><time>2020-01-27T12:30:23Z</time></trkpt>
   <trkpt lat="31.201983" lon="35.295498"><ele>241.9</ele><name>TP04409</name><time>2020-01-27T12:30:24Z</time></trkpt>
   <trkpt lat="31.201978" lon="35.295498"><ele>242</ele><name>TP04410</name><time>2020-01-27T12:30:25Z</time></trkpt>
   <trkpt lat="31.201972" lon="35.295498"><ele>242.1</ele><name>TP04411</name><time>2020-01-27T12:30:26Z</time></trkpt>
   <trkpt lat="31.201967" lon="35.295498"><ele>242.2</ele><name>TP04412</name><time>2020-01-27T12:30:28Z</time></trkpt>
   <trkpt lat="31.201961" lon="35.295499"><ele>242.3</ele><name>TP04413</name><time>2020-01-27T12:30:30Z</time></trkpt>
   <trkpt lat="31.201955" lon="35.295499"><ele>242.4</ele><name>TP04414</name><time>2020-01-27T12:30:32Z</time></trkpt>
   <trkpt lat="31.20195" lon="35.295499"><ele>242.5</ele><name>TP04415</name><time>2020-01-27T12:30:33Z</time></trkpt>
   <trkpt lat="31.201944" lon="35.295499"><ele>242.6</ele><name>TP04416</name><time>2020-01-27T12:30:34Z</time></trkpt>
   <trkpt lat="31.201939" lon="35.295499"><ele>242.6</ele><name>TP04417</name><time>2020-01-27T12:30:36Z</time></trkpt>
   <trkpt lat="31.201933" lon="35.295499"><ele>242.7</ele><name>TP04418</name><time>2020-01-27T12:30:39Z</time></trkpt>
   <trkpt lat="31.201928" lon="35.295499"><ele>242.8</ele><name>TP04419</name><time>2020-01-27T12:30:41Z</time></trkpt>
   <trkpt lat="31.201922" lon="35.295499"><ele>242.9</ele><name>TP04420</name><time>2020-01-27T12:30:44Z</time></trkpt>
   <trkpt lat="31.201917" lon="35.2955"><ele>243</ele><name>TP04421</name><time>2020-01-27T12:30:47Z</time></trkpt>
   <trkpt lat="31.201911" lon="35.2955"><ele>243.1</ele><name>TP04422</name><time>2020-01-27T12:30:48Z</time></trkpt>
   <trkpt lat="31.201906" lon="35.2955"><ele>243.2</ele><name>TP04423</name><time>2020-01-27T12:30:51Z</time></trkpt>
   <trkpt lat="31.2019" lon="35.2955"><ele>243.2</ele><name>TP04424</name><time>2020-01-27T12:30:52Z</time></trkpt>
   <trkpt lat="31.201861" lon="35.295493"><ele>243.5</ele><name>TP04425</name><time>2020-01-27T12:30:55Z</time></trkpt>
   <trkpt lat="31.201853" lon="35.295491"><ele>243.5</ele><name>TP04426</name><time>2020-01-27T12:30:56Z</time></trkpt>
   <trkpt lat="31.201837" lon="35.295484"><ele>243.7</ele><name>TP04427</name><time>2020-01-27T12:30:59Z</time></trkpt>
   <trkpt lat="31.201832" lon="35.295483"><ele>243.7</ele><name>TP04428</name><time>2020-01-27T12:31:00Z</time></trkpt>
   <trkpt lat="31.201827" lon="35.295483"><ele>243.7</ele><name>TP04429</name><time>2020-01-27T12:31:01Z</time></trkpt>
   <trkpt lat="31.201827" lon="35.295483"><ele>243.7</ele><name>TP04430</name><time>2020-01-27T12:31:02Z</time></trkpt>
   <trkpt lat="31.201826" lon="35.295483"><ele>243.7</ele><name>TP04431</name><time>2020-01-27T12:31:05Z</time></trkpt>
   <trkpt lat="31.201826" lon="35.295483"><ele>243.7</ele><name>TP04432</name><time>2020-01-27T12:31:06Z</time></trkpt>
   <trkpt lat="31.201826" lon="35.295483"><ele>243.7</ele><name>TP04433</name><time>2020-01-27T12:31:08Z</time></trkpt>
   <trkpt lat="31.201826" lon="35.295483"><ele>243.7</ele><name>TP04434</name><time>2020-01-27T12:31:09Z</time></trkpt>
   <trkpt lat="31.201826" lon="35.295483"><ele>243.7</ele><name>TP04435</name><time>2020-01-27T12:31:10Z</time></trkpt>
   <trkpt lat="31.201825" lon="35.295483"><ele>243.7</ele><name>TP04436</name><time>2020-01-27T12:31:12Z</time></trkpt>
   <trkpt lat="31.201825" lon="35.295482"><ele>243.7</ele><name>TP04437</name><time>2020-01-27T12:31:14Z</time></trkpt>
   <trkpt lat="31.201825" lon="35.295482"><ele>243.7</ele><name>TP04438</name><time>2020-01-27T12:31:17Z</time></trkpt>
   <trkpt lat="31.201825" lon="35.295482"><ele>243.7</ele><name>TP04439</name><time>2020-01-27T12:31:19Z</time></trkpt>
   <trkpt lat="31.201825" lon="35.295482"><ele>243.7</ele><name>TP04440</name><time>2020-01-27T12:31:21Z</time></trkpt>
   <trkpt lat="31.201824" lon="35.295482"><ele>243.7</ele><name>TP04441</name><time>2020-01-27T12:31:23Z</time></trkpt>
   <trkpt lat="31.201824" lon="35.295482"><ele>243.7</ele><name>TP04442</name><time>2020-01-27T12:31:25Z</time></trkpt>
   <trkpt lat="31.201824" lon="35.295482"><ele>243.7</ele><name>TP04443</name><time>2020-01-27T12:31:28Z</time></trkpt>
   <trkpt lat="31.201824" lon="35.295482"><ele>243.7</ele><name>TP04444</name><time>2020-01-27T12:31:29Z</time></trkpt>
   <trkpt lat="31.201824" lon="35.295482"><ele>243.7</ele><name>TP04445</name><time>2020-01-27T12:31:31Z</time></trkpt>
   <trkpt lat="31.201823" lon="35.295482"><ele>243.7</ele><name>TP04446</name><time>2020-01-27T12:31:32Z</time></trkpt>
   <trkpt lat="31.201823" lon="35.295482"><ele>243.7</ele><name>TP04447</name><time>2020-01-27T12:31:34Z</time></trkpt>
   <trkpt lat="31.201823" lon="35.295482"><ele>243.7</ele><name>TP04448</name><time>2020-01-27T12:31:35Z</time></trkpt>
   <trkpt lat="31.201823" lon="35.295482"><ele>243.7</ele><name>TP04449</name><time>2020-01-27T12:31:37Z</time></trkpt>
   <trkpt lat="31.201823" lon="35.295482"><ele>243.7</ele><name>TP04450</name><time>2020-01-27T12:31:38Z</time></trkpt>
   <trkpt lat="31.201822" lon="35.295482"><ele>243.7</ele><name>TP04451</name><time>2020-01-27T12:31:40Z</time></trkpt>
   <trkpt lat="31.201822" lon="35.295482"><ele>243.7</ele><name>TP04452</name><time>2020-01-27T12:31:42Z</time></trkpt>
   <trkpt lat="31.201822" lon="35.295481"><ele>243.6</ele><name>TP04453</name><time>2020-01-27T12:31:44Z</time></trkpt>
   <trkpt lat="31.201822" lon="35.295481"><ele>243.6</ele><name>TP04454</name><time>2020-01-27T12:31:45Z</time></trkpt>
   <trkpt lat="31.201822" lon="35.295481"><ele>243.6</ele><name>TP04455</name><time>2020-01-27T12:31:46Z</time></trkpt>
   <trkpt lat="31.201821" lon="35.295481"><ele>243.6</ele><name>TP04456</name><time>2020-01-27T12:31:47Z</time></trkpt>
   <trkpt lat="31.201821" lon="35.295481"><ele>243.6</ele><name>TP04457</name><time>2020-01-27T12:31:48Z</time></trkpt>
   <trkpt lat="31.201821" lon="35.295481"><ele>243.6</ele><name>TP04458</name><time>2020-01-27T12:31:50Z</time></trkpt>
   <trkpt lat="31.201821" lon="35.295481"><ele>243.6</ele><name>TP04459</name><time>2020-01-27T12:31:51Z</time></trkpt>
   <trkpt lat="31.201821" lon="35.295481"><ele>243.6</ele><name>TP04460</name><time>2020-01-27T12:31:52Z</time></trkpt>
   <trkpt lat="31.20182" lon="35.295481"><ele>243.6</ele><name>TP04461</name><time>2020-01-27T12:31:54Z</time></trkpt>
   <trkpt lat="31.20182" lon="35.295481"><ele>243.6</ele><name>TP04462</name><time>2020-01-27T12:31:55Z</time></trkpt>
   <trkpt lat="31.20182" lon="35.295481"><ele>243.6</ele><name>TP04463</name><time>2020-01-27T12:31:56Z</time></trkpt>
   <trkpt lat="31.20182" lon="35.295481"><ele>243.6</ele><name>TP04464</name><time>2020-01-27T12:31:58Z</time></trkpt>
   <trkpt lat="31.20182" lon="35.295481"><ele>243.6</ele><name>TP04465</name><time>2020-01-27T12:32:00Z</time></trkpt>
   <trkpt lat="31.201819" lon="35.295481"><ele>243.6</ele><name>TP04466</name><time>2020-01-27T12:32:02Z</time></trkpt>
   <trkpt lat="31.201819" lon="35.295481"><ele>243.6</ele><name>TP04467</name><time>2020-01-27T12:32:04Z</time></trkpt>
   <trkpt lat="31.201819" lon="35.295481"><ele>243.6</ele><name>TP04468</name><time>2020-01-27T12:32:05Z</time></trkpt>
   <trkpt lat="31.201819" lon="35.29548"><ele>243.6</ele><name>TP04469</name><time>2020-01-27T12:32:06Z</time></trkpt>
   <trkpt lat="31.201819" lon="35.29548"><ele>243.6</ele><name>TP04470</name><time>2020-01-27T12:32:07Z</time></trkpt>
   <trkpt lat="31.201818" lon="35.29548"><ele>243.6</ele><name>TP04471</name><time>2020-01-27T12:32:08Z</time></trkpt>
   <trkpt lat="31.201818" lon="35.29548"><ele>243.6</ele><name>TP04472</name><time>2020-01-27T12:32:10Z</time></trkpt>
   <trkpt lat="31.201818" lon="35.29548"><ele>243.6</ele><name>TP04473</name><time>2020-01-27T12:32:12Z</time></trkpt>
   <trkpt lat="31.201818" lon="35.29548"><ele>243.6</ele><name>TP04474</name><time>2020-01-27T12:32:13Z</time></trkpt>
   <trkpt lat="31.201818" lon="35.29548"><ele>243.6</ele><name>TP04475</name><time>2020-01-27T12:32:14Z</time></trkpt>
   <trkpt lat="31.201817" lon="35.29548"><ele>243.6</ele><name>TP04476</name><time>2020-01-27T12:32:15Z</time></trkpt>
   <trkpt lat="31.201817" lon="35.29548"><ele>243.6</ele><name>TP04477</name><time>2020-01-27T12:32:16Z</time></trkpt>
   <trkpt lat="31.201817" lon="35.29548"><ele>243.6</ele><name>TP04478</name><time>2020-01-27T12:32:18Z</time></trkpt>
   <trkpt lat="31.201817" lon="35.29548"><ele>243.6</ele><name>TP04479</name><time>2020-01-27T12:32:19Z</time></trkpt>
   <trkpt lat="31.201817" lon="35.29548"><ele>243.6</ele><name>TP04480</name><time>2020-01-27T12:32:21Z</time></trkpt>
   <trkpt lat="31.201817" lon="35.29548"><ele>243.6</ele><name>TP04481</name><time>2020-01-27T12:32:24Z</time></trkpt>
   <trkpt lat="31.201816" lon="35.29548"><ele>243.6</ele><name>TP04482</name><time>2020-01-27T12:32:26Z</time></trkpt>
   <trkpt lat="31.201816" lon="35.29548"><ele>243.6</ele><name>TP04483</name><time>2020-01-27T12:32:28Z</time></trkpt>
   <trkpt lat="31.201816" lon="35.29548"><ele>243.6</ele><name>TP04484</name><time>2020-01-27T12:32:30Z</time></trkpt>
   <trkpt lat="31.201816" lon="35.295479"><ele>243.6</ele><name>TP04485</name><time>2020-01-27T12:32:32Z</time></trkpt>
   <trkpt lat="31.201816" lon="35.295479"><ele>243.6</ele><name>TP04486</name><time>2020-01-27T12:32:33Z</time></trkpt>
   <trkpt lat="31.201815" lon="35.295479"><ele>243.6</ele><name>TP04487</name><time>2020-01-27T12:32:35Z</time></trkpt>
   <trkpt lat="31.201815" lon="35.295479"><ele>243.6</ele><name>TP04488</name><time>2020-01-27T12:32:36Z</time></trkpt>
   <trkpt lat="31.201815" lon="35.295479"><ele>243.6</ele><name>TP04489</name><time>2020-01-27T12:32:37Z</time></trkpt>
   <trkpt lat="31.201815" lon="35.295479"><ele>243.6</ele><name>TP04490</name><time>2020-01-27T12:32:39Z</time></trkpt>
   <trkpt lat="31.201815" lon="35.295479"><ele>243.6</ele><name>TP04491</name><time>2020-01-27T12:32:40Z</time></trkpt>
   <trkpt lat="31.201814" lon="35.295479"><ele>243.6</ele><name>TP04492</name><time>2020-01-27T12:32:41Z</time></trkpt>
   <trkpt lat="31.201814" lon="35.295479"><ele>243.6</ele><name>TP04493</name><time>2020-01-27T12:32:43Z</time></trkpt>
   <trkpt lat="31.201814" lon="35.295479"><ele>243.6</ele><name>TP04494</name><time>2020-01-27T12:32:44Z</time></trkpt>
   <trkpt lat="31.201814" lon="35.295479"><ele>243.6</ele><name>TP04495</name><time>2020-01-27T12:32:45Z</time></trkpt>
   <trkpt lat="31.201814" lon="35.295479"><ele>243.6</ele><name>TP04496</name><time>2020-01-27T12:32:46Z</time></trkpt>
   <trkpt lat="31.201813" lon="35.295479"><ele>243.6</ele><name>TP04497</name><time>2020-01-27T12:32:48Z</time></trkpt>
   <trkpt lat="31.201813" lon="35.295479"><ele>243.6</ele><name>TP04498</name><time>2020-01-27T12:32:50Z</time></trkpt>
   <trkpt lat="31.201813" lon="35.295479"><ele>243.6</ele><name>TP04499</name><time>2020-01-27T12:32:51Z</time></trkpt>
   <trkpt lat="31.201813" lon="35.295479"><ele>243.6</ele><name>TP04500</name><time>2020-01-27T12:32:53Z</time></trkpt>
   <trkpt lat="31.201813" lon="35.295478"><ele>243.6</ele><name>TP04501</name><time>2020-01-27T12:32:55Z</time></trkpt>
   <trkpt lat="31.201812" lon="35.295478"><ele>243.6</ele><name>TP04502</name><time>2020-01-27T12:32:56Z</time></trkpt>
   <trkpt lat="31.201812" lon="35.295478"><ele>243.6</ele><name>TP04503</name><time>2020-01-27T12:32:57Z</time></trkpt>
   <trkpt lat="31.201812" lon="35.295478"><ele>243.6</ele><name>TP04504</name><time>2020-01-27T12:32:59Z</time></trkpt>
   <trkpt lat="31.201812" lon="35.295478"><ele>243.6</ele><name>TP04505</name><time>2020-01-27T12:33:01Z</time></trkpt>
   <trkpt lat="31.201812" lon="35.295478"><ele>243.6</ele><name>TP04506</name><time>2020-01-27T12:33:02Z</time></trkpt>
   <trkpt lat="31.201811" lon="35.295478"><ele>243.6</ele><name>TP04507</name><time>2020-01-27T12:33:04Z</time></trkpt>
   <trkpt lat="31.201811" lon="35.295478"><ele>243.6</ele><name>TP04508</name><time>2020-01-27T12:33:05Z</time></trkpt>
   <trkpt lat="31.201811" lon="35.295478"><ele>243.6</ele><name>TP04509</name><time>2020-01-27T12:33:06Z</time></trkpt>
   <trkpt lat="31.201811" lon="35.295478"><ele>243.6</ele><name>TP04510</name><time>2020-01-27T12:33:08Z</time></trkpt>
   <trkpt lat="31.201811" lon="35.295478"><ele>243.6</ele><name>TP04511</name><time>2020-01-27T12:33:10Z</time></trkpt>
   <trkpt lat="31.20181" lon="35.295478"><ele>243.6</ele><name>TP04512</name><time>2020-01-27T12:33:12Z</time></trkpt>
   <trkpt lat="31.20181" lon="35.295478"><ele>243.6</ele><name>TP04513</name><time>2020-01-27T12:33:14Z</time></trkpt>
   <trkpt lat="31.20181" lon="35.295478"><ele>243.6</ele><name>TP04514</name><time>2020-01-27T12:33:15Z</time></trkpt>
   <trkpt lat="31.20181" lon="35.295478"><ele>243.6</ele><name>TP04515</name><time>2020-01-27T12:33:17Z</time></trkpt>
   <trkpt lat="31.20181" lon="35.295478"><ele>243.6</ele><name>TP04516</name><time>2020-01-27T12:33:19Z</time></trkpt>
   <trkpt lat="31.201809" lon="35.295477"><ele>243.6</ele><name>TP04517</name><time>2020-01-27T12:33:21Z</time></trkpt>
   <trkpt lat="31.201809" lon="35.295477"><ele>243.6</ele><name>TP04518</name><time>2020-01-27T12:33:22Z</time></trkpt>
   <trkpt lat="31.201809" lon="35.295477"><ele>243.6</ele><name>TP04519</name><time>2020-01-27T12:33:23Z</time></trkpt>
   <trkpt lat="31.201809" lon="35.295477"><ele>243.6</ele><name>TP04520</name><time>2020-01-27T12:33:25Z</time></trkpt>
   <trkpt lat="31.201809" lon="35.295477"><ele>243.6</ele><name>TP04521</name><time>2020-01-27T12:33:26Z</time></trkpt>
   <trkpt lat="31.201808" lon="35.295477"><ele>243.6</ele><name>TP04522</name><time>2020-01-27T12:33:28Z</time></trkpt>
   <trkpt lat="31.201808" lon="35.295477"><ele>243.6</ele><name>TP04523</name><time>2020-01-27T12:33:30Z</time></trkpt>
   <trkpt lat="31.201808" lon="35.295477"><ele>243.6</ele><name>TP04524</name><time>2020-01-27T12:33:31Z</time></trkpt>
   <trkpt lat="31.201808" lon="35.295477"><ele>243.6</ele><name>TP04525</name><time>2020-01-27T12:33:33Z</time></trkpt>
   <trkpt lat="31.201808" lon="35.295477"><ele>243.6</ele><name>TP04526</name><time>2020-01-27T12:33:34Z</time></trkpt>
   <trkpt lat="31.201807" lon="35.295477"><ele>243.6</ele><name>TP04527</name><time>2020-01-27T12:33:36Z</time></trkpt>
   <trkpt lat="31.201807" lon="35.295477"><ele>243.6</ele><name>TP04528</name><time>2020-01-27T12:33:37Z</time></trkpt>
   <trkpt lat="31.201807" lon="35.295477"><ele>243.6</ele><name>TP04529</name><time>2020-01-27T12:33:38Z</time></trkpt>
   <trkpt lat="31.201807" lon="35.295477"><ele>243.6</ele><name>TP04530</name><time>2020-01-27T12:33:39Z</time></trkpt>
   <trkpt lat="31.201807" lon="35.295477"><ele>243.6</ele><name>TP04531</name><time>2020-01-27T12:33:41Z</time></trkpt>
   <trkpt lat="31.201806" lon="35.295477"><ele>243.6</ele><name>TP04532</name><time>2020-01-27T12:33:43Z</time></trkpt>
   <trkpt lat="31.201806" lon="35.295476"><ele>243.6</ele><name>TP04533</name><time>2020-01-27T12:33:44Z</time></trkpt>
   <trkpt lat="31.201806" lon="35.295476"><ele>243.6</ele><name>TP04534</name><time>2020-01-27T12:33:46Z</time></trkpt>
   <trkpt lat="31.201806" lon="35.295476"><ele>243.6</ele><name>TP04535</name><time>2020-01-27T12:33:48Z</time></trkpt>
   <trkpt lat="31.201806" lon="35.295476"><ele>243.6</ele><name>TP04536</name><time>2020-01-27T12:33:50Z</time></trkpt>
   <trkpt lat="31.201805" lon="35.295476"><ele>243.6</ele><name>TP04537</name><time>2020-01-27T12:33:51Z</time></trkpt>
   <trkpt lat="31.201805" lon="35.295476"><ele>243.6</ele><name>TP04538</name><time>2020-01-27T12:33:53Z</time></trkpt>
   <trkpt lat="31.201805" lon="35.295476"><ele>243.6</ele><name>TP04539</name><time>2020-01-27T12:33:54Z</time></trkpt>
   <trkpt lat="31.201805" lon="35.295476"><ele>243.6</ele><name>TP04540</name><time>2020-01-27T12:33:55Z</time></trkpt>
   <trkpt lat="31.201805" lon="35.295476"><ele>243.6</ele><name>TP04541</name><time>2020-01-27T12:33:56Z</time></trkpt>
   <trkpt lat="31.201804" lon="35.295476"><ele>243.6</ele><name>TP04542</name><time>2020-01-27T12:33:58Z</time></trkpt>
   <trkpt lat="31.201804" lon="35.295476"><ele>243.6</ele><name>TP04543</name><time>2020-01-27T12:33:59Z</time></trkpt>
   <trkpt lat="31.201804" lon="35.295476"><ele>243.6</ele><name>TP04544</name><time>2020-01-27T12:34:01Z</time></trkpt>
   <trkpt lat="31.201804" lon="35.295476"><ele>243.6</ele><name>TP04545</name><time>2020-01-27T12:34:02Z</time></trkpt>
   <trkpt lat="31.201804" lon="35.295476"><ele>243.6</ele><name>TP04546</name><time>2020-01-27T12:34:04Z</time></trkpt>
   <trkpt lat="31.201803" lon="35.295476"><ele>243.6</ele><name>TP04547</name><time>2020-01-27T12:34:05Z</time></trkpt>
   <trkpt lat="31.201803" lon="35.295476"><ele>243.6</ele><name>TP04548</name><time>2020-01-27T12:34:07Z</time></trkpt>
   <trkpt lat="31.201803" lon="35.295475"><ele>243.6</ele><name>TP04549</name><time>2020-01-27T12:34:08Z</time></trkpt>
   <trkpt lat="31.201803" lon="35.295475"><ele>243.6</ele><name>TP04550</name><time>2020-01-27T12:34:10Z</time></trkpt>
   <trkpt lat="31.201803" lon="35.295475"><ele>243.6</ele><name>TP04551</name><time>2020-01-27T12:34:12Z</time></trkpt>
   <trkpt lat="31.201802" lon="35.295475"><ele>243.6</ele><name>TP04552</name><time>2020-01-27T12:34:13Z</time></trkpt>
   <trkpt lat="31.201802" lon="35.295475"><ele>243.6</ele><name>TP04553</name><time>2020-01-27T12:34:14Z</time></trkpt>
   <trkpt lat="31.201802" lon="35.295475"><ele>243.6</ele><name>TP04554</name><time>2020-01-27T12:34:16Z</time></trkpt>
   <trkpt lat="31.201802" lon="35.295475"><ele>243.6</ele><name>TP04555</name><time>2020-01-27T12:34:18Z</time></trkpt>
   <trkpt lat="31.201802" lon="35.295475"><ele>243.6</ele><name>TP04556</name><time>2020-01-27T12:34:20Z</time></trkpt>
   <trkpt lat="31.201801" lon="35.295475"><ele>243.6</ele><name>TP04557</name><time>2020-01-27T12:34:22Z</time></trkpt>
   <trkpt lat="31.201801" lon="35.295475"><ele>243.6</ele><name>TP04558</name><time>2020-01-27T12:34:23Z</time></trkpt>
   <trkpt lat="31.201801" lon="35.295475"><ele>243.6</ele><name>TP04559</name><time>2020-01-27T12:34:24Z</time></trkpt>
   <trkpt lat="31.201801" lon="35.295475"><ele>243.6</ele><name>TP04560</name><time>2020-01-27T12:34:26Z</time></trkpt>
   <trkpt lat="31.201801" lon="35.295475"><ele>243.6</ele><name>TP04561</name><time>2020-01-27T12:34:27Z</time></trkpt>
   <trkpt lat="31.2018" lon="35.295475"><ele>243.6</ele><name>TP04562</name><time>2020-01-27T12:34:29Z</time></trkpt>
   <trkpt lat="31.2018" lon="35.295475"><ele>243.6</ele><name>TP04563</name><time>2020-01-27T12:34:30Z</time></trkpt>
   <trkpt lat="31.2018" lon="35.295475"><ele>243.6</ele><name>TP04564</name><time>2020-01-27T12:34:31Z</time></trkpt>
   <trkpt lat="31.2018" lon="35.295474"><ele>243.6</ele><name>TP04565</name><time>2020-01-27T12:34:32Z</time></trkpt>
   <trkpt lat="31.2018" lon="35.295474"><ele>243.6</ele><name>TP04566</name><time>2020-01-27T12:34:34Z</time></trkpt>
   <trkpt lat="31.201799" lon="35.295474"><ele>243.6</ele><name>TP04567</name><time>2020-01-27T12:34:36Z</time></trkpt>
   <trkpt lat="31.201799" lon="35.295474"><ele>243.6</ele><name>TP04568</name><time>2020-01-27T12:34:37Z</time></trkpt>
   <trkpt lat="31.201799" lon="35.295474"><ele>243.6</ele><name>TP04569</name><time>2020-01-27T12:34:39Z</time></trkpt>
   <trkpt lat="31.201799" lon="35.295474"><ele>243.6</ele><name>TP04570</name><time>2020-01-27T12:34:40Z</time></trkpt>
   <trkpt lat="31.201799" lon="35.295474"><ele>243.6</ele><name>TP04571</name><time>2020-01-27T12:34:41Z</time></trkpt>
   <trkpt lat="31.201798" lon="35.295474"><ele>243.6</ele><name>TP04572</name><time>2020-01-27T12:34:42Z</time></trkpt>
   <trkpt lat="31.201798" lon="35.295474"><ele>243.6</ele><name>TP04573</name><time>2020-01-27T12:34:43Z</time></trkpt>
   <trkpt lat="31.201798" lon="35.295474"><ele>243.6</ele><name>TP04574</name><time>2020-01-27T12:34:45Z</time></trkpt>
   <trkpt lat="31.201798" lon="35.295474"><ele>243.6</ele><name>TP04575</name><time>2020-01-27T12:34:47Z</time></trkpt>
   <trkpt lat="31.201798" lon="35.295474"><ele>243.6</ele><name>TP04576</name><time>2020-01-27T12:34:49Z</time></trkpt>
   <trkpt lat="31.201797" lon="35.295474"><ele>243.6</ele><name>TP04577</name><time>2020-01-27T12:34:50Z</time></trkpt>
   <trkpt lat="31.201797" lon="35.295474"><ele>243.6</ele><name>TP04578</name><time>2020-01-27T12:34:52Z</time></trkpt>
   <trkpt lat="31.201797" lon="35.295474"><ele>243.6</ele><name>TP04579</name><time>2020-01-27T12:34:54Z</time></trkpt>
   <trkpt lat="31.201797" lon="35.295474"><ele>243.6</ele><name>TP04580</name><time>2020-01-27T12:34:56Z</time></trkpt>
   <trkpt lat="31.201797" lon="35.295474"><ele>243.6</ele><name>TP04581</name><time>2020-01-27T12:34:57Z</time></trkpt>
   <trkpt lat="31.201796" lon="35.295473"><ele>243.6</ele><name>TP04582</name><time>2020-01-27T12:34:59Z</time></trkpt>
   <trkpt lat="31.201796" lon="35.295473"><ele>243.6</ele><name>TP04583</name><time>2020-01-27T12:35:01Z</time></trkpt>
   <trkpt lat="31.201796" lon="35.295473"><ele>243.6</ele><name>TP04584</name><time>2020-01-27T12:35:03Z</time></trkpt>
   <trkpt lat="31.201796" lon="35.295473"><ele>243.6</ele><name>TP04585</name><time>2020-01-27T12:35:05Z</time></trkpt>
   <trkpt lat="31.201796" lon="35.295473"><ele>243.6</ele><name>TP04586</name><time>2020-01-27T12:35:06Z</time></trkpt>
   <trkpt lat="31.201796" lon="35.295473"><ele>243.6</ele><name>TP04587</name><time>2020-01-27T12:35:07Z</time></trkpt>
   <trkpt lat="31.201795" lon="35.295473"><ele>243.6</ele><name>TP04588</name><time>2020-01-27T12:35:09Z</time></trkpt>
   <trkpt lat="31.201795" lon="35.295473"><ele>243.6</ele><name>TP04589</name><time>2020-01-27T12:35:11Z</time></trkpt>
   <trkpt lat="31.201795" lon="35.295473"><ele>243.6</ele><name>TP04590</name><time>2020-01-27T12:35:12Z</time></trkpt>
   <trkpt lat="31.201795" lon="35.295473"><ele>243.6</ele><name>TP04591</name><time>2020-01-27T12:35:14Z</time></trkpt>
   <trkpt lat="31.201795" lon="35.295473"><ele>243.6</ele><name>TP04592</name><time>2020-01-27T12:35:15Z</time></trkpt>
   <trkpt lat="31.201794" lon="35.295473"><ele>243.6</ele><name>TP04593</name><time>2020-01-27T12:35:16Z</time></trkpt>
   <trkpt lat="31.201794" lon="35.295473"><ele>243.6</ele><name>TP04594</name><time>2020-01-27T12:35:18Z</time></trkpt>
   <trkpt lat="31.201794" lon="35.295473"><ele>243.6</ele><name>TP04595</name><time>2020-01-27T12:35:19Z</time></trkpt>
   <trkpt lat="31.201794" lon="35.295473"><ele>243.6</ele><name>TP04596</name><time>2020-01-27T12:35:20Z</time></trkpt>
   <trkpt lat="31.201794" lon="35.295473"><ele>243.6</ele><name>TP04597</name><time>2020-01-27T12:35:21Z</time></trkpt>
   <trkpt lat="31.201793" lon="35.295472"><ele>243.6</ele><name>TP04598</name><time>2020-01-27T12:35:22Z</time></trkpt>
   <trkpt lat="31.201793" lon="35.295472"><ele>243.6</ele><name>TP04599</name><time>2020-01-27T12:35:24Z</time></trkpt>
   <trkpt lat="31.201793" lon="35.295472"><ele>243.6</ele><name>TP04600</name><time>2020-01-27T12:35:26Z</time></trkpt>
   <trkpt lat="31.201793" lon="35.295472"><ele>243.6</ele><name>TP04601</name><time>2020-01-27T12:35:27Z</time></trkpt>
   <trkpt lat="31.201793" lon="35.295472"><ele>243.6</ele><name>TP04602</name><time>2020-01-27T12:35:29Z</time></trkpt>
   <trkpt lat="31.201792" lon="35.295472"><ele>243.6</ele><name>TP04603</name><time>2020-01-27T12:35:30Z</time></trkpt>
   <trkpt lat="31.201792" lon="35.295472"><ele>243.6</ele><name>TP04604</name><time>2020-01-27T12:35:32Z</time></trkpt>
   <trkpt lat="31.201792" lon="35.295472"><ele>243.6</ele><name>TP04605</name><time>2020-01-27T12:35:34Z</time></trkpt>
   <trkpt lat="31.201792" lon="35.295472"><ele>243.6</ele><name>TP04606</name><time>2020-01-27T12:35:36Z</time></trkpt>
   <trkpt lat="31.201792" lon="35.295472"><ele>243.6</ele><name>TP04607</name><time>2020-01-27T12:35:37Z</time></trkpt>
   <trkpt lat="31.201791" lon="35.295472"><ele>243.6</ele><name>TP04608</name><time>2020-01-27T12:35:38Z</time></trkpt>
   <trkpt lat="31.201791" lon="35.295472"><ele>243.6</ele><name>TP04609</name><time>2020-01-27T12:35:39Z</time></trkpt>
   <trkpt lat="31.201791" lon="35.295472"><ele>243.6</ele><name>TP04610</name><time>2020-01-27T12:35:40Z</time></trkpt>
   <trkpt lat="31.201791" lon="35.295472"><ele>243.6</ele><name>TP04611</name><time>2020-01-27T12:35:42Z</time></trkpt>
   <trkpt lat="31.201791" lon="35.295472"><ele>243.6</ele><name>TP04612</name><time>2020-01-27T12:35:44Z</time></trkpt>
   <trkpt lat="31.20179" lon="35.295472"><ele>243.6</ele><name>TP04613</name><time>2020-01-27T12:35:46Z</time></trkpt>
   <trkpt lat="31.20179" lon="35.295471"><ele>243.6</ele><name>TP04614</name><time>2020-01-27T12:35:48Z</time></trkpt>
   <trkpt lat="31.20179" lon="35.295471"><ele>243.6</ele><name>TP04615</name><time>2020-01-27T12:35:49Z</time></trkpt>
   <trkpt lat="31.20179" lon="35.295471"><ele>243.6</ele><name>TP04616</name><time>2020-01-27T12:35:51Z</time></trkpt>
   <trkpt lat="31.20179" lon="35.295471"><ele>243.6</ele><name>TP04617</name><time>2020-01-27T12:35:53Z</time></trkpt>
   <trkpt lat="31.201789" lon="35.295471"><ele>243.6</ele><name>TP04618</name><time>2020-01-27T12:35:55Z</time></trkpt>
   <trkpt lat="31.201789" lon="35.295471"><ele>243.6</ele><name>TP04619</name><time>2020-01-27T12:35:56Z</time></trkpt>
   <trkpt lat="31.201789" lon="35.295471"><ele>243.6</ele><name>TP04620</name><time>2020-01-27T12:35:58Z</time></trkpt>
   <trkpt lat="31.201789" lon="35.295471"><ele>243.6</ele><name>TP04621</name><time>2020-01-27T12:35:59Z</time></trkpt>
   <trkpt lat="31.201789" lon="35.295471"><ele>243.6</ele><name>TP04622</name><time>2020-01-27T12:36:00Z</time></trkpt>
   <trkpt lat="31.201788" lon="35.295471"><ele>243.6</ele><name>TP04623</name><time>2020-01-27T12:36:02Z</time></trkpt>
   <trkpt lat="31.201788" lon="35.295471"><ele>243.6</ele><name>TP04624</name><time>2020-01-27T12:36:03Z</time></trkpt>
   <trkpt lat="31.201788" lon="35.295471"><ele>243.6</ele><name>TP04625</name><time>2020-01-27T12:36:05Z</time></trkpt>
   <trkpt lat="31.201788" lon="35.295471"><ele>243.6</ele><name>TP04626</name><time>2020-01-27T12:36:07Z</time></trkpt>
   <trkpt lat="31.201788" lon="35.295471"><ele>243.6</ele><name>TP04627</name><time>2020-01-27T12:36:08Z</time></trkpt>
   <trkpt lat="31.201787" lon="35.295471"><ele>243.6</ele><name>TP04628</name><time>2020-01-27T12:36:09Z</time></trkpt>
   <trkpt lat="31.201787" lon="35.295471"><ele>243.6</ele><name>TP04629</name><time>2020-01-27T12:36:11Z</time></trkpt>
   <trkpt lat="31.201787" lon="35.29547"><ele>243.6</ele><name>TP04630</name><time>2020-01-27T12:36:12Z</time></trkpt>
   <trkpt lat="31.201787" lon="35.29547"><ele>243.6</ele><name>TP04631</name><time>2020-01-27T12:36:14Z</time></trkpt>
   <trkpt lat="31.201787" lon="35.29547"><ele>243.6</ele><name>TP04632</name><time>2020-01-27T12:36:15Z</time></trkpt>
   <trkpt lat="31.201786" lon="35.29547"><ele>243.6</ele><name>TP04633</name><time>2020-01-27T12:36:16Z</time></trkpt>
   <trkpt lat="31.201786" lon="35.29547"><ele>243.6</ele><name>TP04634</name><time>2020-01-27T12:36:18Z</time></trkpt>
   <trkpt lat="31.201786" lon="35.29547"><ele>243.6</ele><name>TP04635</name><time>2020-01-27T12:36:20Z</time></trkpt>
   <trkpt lat="31.201786" lon="35.29547"><ele>243.6</ele><name>TP04636</name><time>2020-01-27T12:36:22Z</time></trkpt>
   <trkpt lat="31.201786" lon="35.29547"><ele>243.6</ele><name>TP04637</name><time>2020-01-27T12:36:23Z</time></trkpt>
   <trkpt lat="31.201785" lon="35.29547"><ele>243.6</ele><name>TP04638</name><time>2020-01-27T12:36:25Z</time></trkpt>
   <trkpt lat="31.201785" lon="35.29547"><ele>243.6</ele><name>TP04639</name><time>2020-01-27T12:36:27Z</time></trkpt>
   <trkpt lat="31.201785" lon="35.29547"><ele>243.6</ele><name>TP04640</name><time>2020-01-27T12:36:29Z</time></trkpt>
   <trkpt lat="31.201785" lon="35.29547"><ele>243.6</ele><name>TP04641</name><time>2020-01-27T12:36:31Z</time></trkpt>
   <trkpt lat="31.201785" lon="35.29547"><ele>243.6</ele><name>TP04642</name><time>2020-01-27T12:36:32Z</time></trkpt>
   <trkpt lat="31.201784" lon="35.29547"><ele>243.6</ele><name>TP04643</name><time>2020-01-27T12:36:33Z</time></trkpt>
   <trkpt lat="31.201784" lon="35.29547"><ele>243.6</ele><name>TP04644</name><time>2020-01-27T12:36:34Z</time></trkpt>
   <trkpt lat="31.201784" lon="35.29547"><ele>243.6</ele><name>TP04645</name><time>2020-01-27T12:36:36Z</time></trkpt>
   <trkpt lat="31.201784" lon="35.295469"><ele>243.6</ele><name>TP04646</name><time>2020-01-27T12:36:37Z</time></trkpt>
   <trkpt lat="31.201784" lon="35.295469"><ele>243.6</ele><name>TP04647</name><time>2020-01-27T12:36:39Z</time></trkpt>
   <trkpt lat="31.201783" lon="35.295469"><ele>243.6</ele><name>TP04648</name><time>2020-01-27T12:36:40Z</time></trkpt>
   <trkpt lat="31.201783" lon="35.295469"><ele>243.6</ele><name>TP04649</name><time>2020-01-27T12:36:42Z</time></trkpt>
   <trkpt lat="31.201783" lon="35.295469"><ele>243.6</ele><name>TP04650</name><time>2020-01-27T12:36:43Z</time></trkpt>
   <trkpt lat="31.201783" lon="35.295469"><ele>243.6</ele><name>TP04651</name><time>2020-01-27T12:36:44Z</time></trkpt>
   <trkpt lat="31.201783" lon="35.295469"><ele>243.6</ele><name>TP04652</name><time>2020-01-27T12:36:46Z</time></trkpt>
   <trkpt lat="31.201782" lon="35.295469"><ele>243.6</ele><name>TP04653</name><time>2020-01-27T12:36:47Z</time></trkpt>
   <trkpt lat="31.201782" lon="35.295469"><ele>243.6</ele><name>TP04654</name><time>2020-01-27T12:36:48Z</time></trkpt>
   <trkpt lat="31.201782" lon="35.295469"><ele>243.6</ele><name>TP04655</name><time>2020-01-27T12:36:50Z</time></trkpt>
   <trkpt lat="31.201782" lon="35.295469"><ele>243.6</ele><name>TP04656</name><time>2020-01-27T12:36:51Z</time></trkpt>
   <trkpt lat="31.201782" lon="35.295469"><ele>243.6</ele><name>TP04657</name><time>2020-01-27T12:36:53Z</time></trkpt>
   <trkpt lat="31.201781" lon="35.295469"><ele>243.6</ele><name>TP04658</name><time>2020-01-27T12:36:54Z</time></trkpt>
   <trkpt lat="31.201781" lon="35.295469"><ele>243.6</ele><name>TP04659</name><time>2020-01-27T12:36:56Z</time></trkpt>
   <trkpt lat="31.201781" lon="35.295469"><ele>243.6</ele><name>TP04660</name><time>2020-01-27T12:36:57Z</time></trkpt>
   <trkpt lat="31.201781" lon="35.295469"><ele>243.6</ele><name>TP04661</name><time>2020-01-27T12:36:59Z</time></trkpt>
   <trkpt lat="31.201781" lon="35.295468"><ele>243.6</ele><name>TP04662</name><time>2020-01-27T12:37:00Z</time></trkpt>
   <trkpt lat="31.20178" lon="35.295468"><ele>243.6</ele><name>TP04663</name><time>2020-01-27T12:37:02Z</time></trkpt>
   <trkpt lat="31.20178" lon="35.295468"><ele>243.6</ele><name>TP04664</name><time>2020-01-27T12:37:03Z</time></trkpt>
   <trkpt lat="31.20178" lon="35.295468"><ele>243.6</ele><name>TP04665</name><time>2020-01-27T12:37:05Z</time></trkpt>
   <trkpt lat="31.20178" lon="35.295468"><ele>243.6</ele><name>TP04666</name><time>2020-01-27T12:37:07Z</time></trkpt>
   <trkpt lat="31.20178" lon="35.295468"><ele>243.6</ele><name>TP04667</name><time>2020-01-27T12:37:08Z</time></trkpt>
   <trkpt lat="31.201779" lon="35.295468"><ele>243.6</ele><name>TP04668</name><time>2020-01-27T12:37:10Z</time></trkpt>
   <trkpt lat="31.201779" lon="35.295468"><ele>243.6</ele><name>TP04669</name><time>2020-01-27T12:37:12Z</time></trkpt>
   <trkpt lat="31.201779" lon="35.295468"><ele>243.6</ele><name>TP04670</name><time>2020-01-27T12:37:14Z</time></trkpt>
   <trkpt lat="31.201779" lon="35.295468"><ele>243.6</ele><name>TP04671</name><time>2020-01-27T12:37:16Z</time></trkpt>
   <trkpt lat="31.201779" lon="35.295468"><ele>243.6</ele><name>TP04672</name><time>2020-01-27T12:37:17Z</time></trkpt>
   <trkpt lat="31.201778" lon="35.295468"><ele>243.6</ele><name>TP04673</name><time>2020-01-27T12:37:19Z</time></trkpt>
   <trkpt lat="31.201778" lon="35.295468"><ele>243.6</ele><name>TP04674</name><time>2020-01-27T12:37:20Z</time></trkpt>
   <trkpt lat="31.201778" lon="35.295468"><ele>243.6</ele><name>TP04675</name><time>2020-01-27T12:37:22Z</time></trkpt>
   <trkpt lat="31.201778" lon="35.295468"><ele>243.6</ele><name>TP04676</name><time>2020-01-27T12:37:24Z</time></trkpt>
   <trkpt lat="31.201778" lon="35.295468"><ele>243.6</ele><name>TP04677</name><time>2020-01-27T12:37:26Z</time></trkpt>
   <trkpt lat="31.201777" lon="35.295467"><ele>243.6</ele><name>TP04678</name><time>2020-01-27T12:37:28Z</time></trkpt>
   <trkpt lat="31.201777" lon="35.295467"><ele>243.6</ele><name>TP04679</name><time>2020-01-27T12:37:30Z</time></trkpt>
   <trkpt lat="31.201777" lon="35.295467"><ele>243.6</ele><name>TP04680</name><time>2020-01-27T12:37:32Z</time></trkpt>
   <trkpt lat="31.201777" lon="35.295467"><ele>243.6</ele><name>TP04681</name><time>2020-01-27T12:37:34Z</time></trkpt>
   <trkpt lat="31.201777" lon="35.295467"><ele>243.6</ele><name>TP04682</name><time>2020-01-27T12:37:35Z</time></trkpt>
   <trkpt lat="31.201776" lon="35.295467"><ele>243.6</ele><name>TP04683</name><time>2020-01-27T12:37:37Z</time></trkpt>
   <trkpt lat="31.201776" lon="35.295467"><ele>243.6</ele><name>TP04684</name><time>2020-01-27T12:37:38Z</time></trkpt>
   <trkpt lat="31.201776" lon="35.295467"><ele>243.6</ele><name>TP04685</name><time>2020-01-27T12:37:40Z</time></trkpt>
   <trkpt lat="31.201776" lon="35.295467"><ele>243.6</ele><name>TP04686</name><time>2020-01-27T12:37:41Z</time></trkpt>
   <trkpt lat="31.201776" lon="35.295467"><ele>243.6</ele><name>TP04687</name><time>2020-01-27T12:37:43Z</time></trkpt>
   <trkpt lat="31.201775" lon="35.295467"><ele>243.6</ele><name>TP04688</name><time>2020-01-27T12:37:44Z</time></trkpt>
   <trkpt lat="31.201775" lon="35.295467"><ele>243.6</ele><name>TP04689</name><time>2020-01-27T12:37:46Z</time></trkpt>
   <trkpt lat="31.201775" lon="35.295467"><ele>243.6</ele><name>TP04690</name><time>2020-01-27T12:37:47Z</time></trkpt>
   <trkpt lat="31.201775" lon="35.295467"><ele>243.6</ele><name>TP04691</name><time>2020-01-27T12:37:49Z</time></trkpt>
   <trkpt lat="31.201775" lon="35.295467"><ele>243.6</ele><name>TP04692</name><time>2020-01-27T12:37:50Z</time></trkpt>
   <trkpt lat="31.201775" lon="35.295467"><ele>243.6</ele><name>TP04693</name><time>2020-01-27T12:37:52Z</time></trkpt>
   <trkpt lat="31.201774" lon="35.295466"><ele>243.6</ele><name>TP04694</name><time>2020-01-27T12:37:54Z</time></trkpt>
   <trkpt lat="31.201774" lon="35.295466"><ele>243.6</ele><name>TP04695</name><time>2020-01-27T12:37:56Z</time></trkpt>
   <trkpt lat="31.201774" lon="35.295466"><ele>243.6</ele><name>TP04696</name><time>2020-01-27T12:37:58Z</time></trkpt>
   <trkpt lat="31.201774" lon="35.295466"><ele>243.6</ele><name>TP04697</name><time>2020-01-27T12:37:59Z</time></trkpt>
   <trkpt lat="31.201774" lon="35.295466"><ele>243.6</ele><name>TP04698</name><time>2020-01-27T12:38:01Z</time></trkpt>
   <trkpt lat="31.201773" lon="35.295466"><ele>243.6</ele><name>TP04699</name><time>2020-01-27T12:38:02Z</time></trkpt>
   <trkpt lat="31.201773" lon="35.295466"><ele>243.6</ele><name>TP04700</name><time>2020-01-27T12:38:03Z</time></trkpt>
   <trkpt lat="31.201773" lon="35.295466"><ele>243.6</ele><name>TP04701</name><time>2020-01-27T12:38:05Z</time></trkpt>
   <trkpt lat="31.201773" lon="35.295466"><ele>243.6</ele><name>TP04702</name><time>2020-01-27T12:38:06Z</time></trkpt>
   <trkpt lat="31.201773" lon="35.295466"><ele>243.6</ele><name>TP04703</name><time>2020-01-27T12:38:08Z</time></trkpt>
   <trkpt lat="31.201772" lon="35.295466"><ele>243.6</ele><name>TP04704</name><time>2020-01-27T12:38:10Z</time></trkpt>
   <trkpt lat="31.201772" lon="35.295466"><ele>243.6</ele><name>TP04705</name><time>2020-01-27T12:38:11Z</time></trkpt>
   <trkpt lat="31.201772" lon="35.295466"><ele>243.6</ele><name>TP04706</name><time>2020-01-27T12:38:13Z</time></trkpt>
   <trkpt lat="31.201772" lon="35.295466"><ele>243.6</ele><name>TP04707</name><time>2020-01-27T12:38:14Z</time></trkpt>
   <trkpt lat="31.201772" lon="35.295466"><ele>243.6</ele><name>TP04708</name><time>2020-01-27T12:38:16Z</time></trkpt>
   <trkpt lat="31.201771" lon="35.295466"><ele>243.6</ele><name>TP04709</name><time>2020-01-27T12:38:18Z</time></trkpt>
   <trkpt lat="31.201771" lon="35.295466"><ele>243.6</ele><name>TP04710</name><time>2020-01-27T12:38:19Z</time></trkpt>
   <trkpt lat="31.201771" lon="35.295465"><ele>243.6</ele><name>TP04711</name><time>2020-01-27T12:38:20Z</time></trkpt>
   <trkpt lat="31.201771" lon="35.295465"><ele>243.6</ele><name>TP04712</name><time>2020-01-27T12:38:22Z</time></trkpt>
   <trkpt lat="31.201771" lon="35.295465"><ele>243.6</ele><name>TP04713</name><time>2020-01-27T12:38:23Z</time></trkpt>
   <trkpt lat="31.20177" lon="35.295465"><ele>243.6</ele><name>TP04714</name><time>2020-01-27T12:38:25Z</time></trkpt>
   <trkpt lat="31.20177" lon="35.295465"><ele>243.6</ele><name>TP04715</name><time>2020-01-27T12:38:26Z</time></trkpt>
   <trkpt lat="31.20177" lon="35.295465"><ele>243.6</ele><name>TP04716</name><time>2020-01-27T12:38:27Z</time></trkpt>
   <trkpt lat="31.20177" lon="35.295465"><ele>243.6</ele><name>TP04717</name><time>2020-01-27T12:38:28Z</time></trkpt>
   <trkpt lat="31.20177" lon="35.295465"><ele>243.6</ele><name>TP04718</name><time>2020-01-27T12:38:30Z</time></trkpt>
   <trkpt lat="31.201769" lon="35.295465"><ele>243.6</ele><name>TP04719</name><time>2020-01-27T12:38:31Z</time></trkpt>
   <trkpt lat="31.201769" lon="35.295465"><ele>243.6</ele><name>TP04720</name><time>2020-01-27T12:38:32Z</time></trkpt>
   <trkpt lat="31.201769" lon="35.295465"><ele>243.6</ele><name>TP04721</name><time>2020-01-27T12:38:34Z</time></trkpt>
   <trkpt lat="31.201769" lon="35.295465"><ele>243.6</ele><name>TP04722</name><time>2020-01-27T12:38:35Z</time></trkpt>
   <trkpt lat="31.201769" lon="35.295465"><ele>243.6</ele><name>TP04723</name><time>2020-01-27T12:38:36Z</time></trkpt>
   <trkpt lat="31.201768" lon="35.295465"><ele>243.6</ele><name>TP04724</name><time>2020-01-27T12:38:38Z</time></trkpt>
   <trkpt lat="31.201768" lon="35.295465"><ele>243.6</ele><name>TP04725</name><time>2020-01-27T12:38:39Z</time></trkpt>
   <trkpt lat="31.201768" lon="35.295465"><ele>243.6</ele><name>TP04726</name><time>2020-01-27T12:38:40Z</time></trkpt>
   <trkpt lat="31.201768" lon="35.295464"><ele>243.6</ele><name>TP04727</name><time>2020-01-27T12:38:41Z</time></trkpt>
   <trkpt lat="31.201768" lon="35.295464"><ele>243.6</ele><name>TP04728</name><time>2020-01-27T12:38:43Z</time></trkpt>
   <trkpt lat="31.201767" lon="35.295464"><ele>243.6</ele><name>TP04729</name><time>2020-01-27T12:38:44Z</time></trkpt>
   <trkpt lat="31.201767" lon="35.295464"><ele>243.6</ele><name>TP04730</name><time>2020-01-27T12:38:45Z</time></trkpt>
   <trkpt lat="31.201767" lon="35.295464"><ele>243.6</ele><name>TP04731</name><time>2020-01-27T12:38:47Z</time></trkpt>
   <trkpt lat="31.201767" lon="35.295464"><ele>243.6</ele><name>TP04732</name><time>2020-01-27T12:38:49Z</time></trkpt>
   <trkpt lat="31.201767" lon="35.295464"><ele>243.6</ele><name>TP04733</name><time>2020-01-27T12:38:51Z</time></trkpt>
   <trkpt lat="31.201766" lon="35.295464"><ele>243.6</ele><name>TP04734</name><time>2020-01-27T12:38:53Z</time></trkpt>
   <trkpt lat="31.201766" lon="35.295464"><ele>243.6</ele><name>TP04735</name><time>2020-01-27T12:38:54Z</time></trkpt>
   <trkpt lat="31.201766" lon="35.295464"><ele>243.6</ele><name>TP04736</name><time>2020-01-27T12:38:55Z</time></trkpt>
   <trkpt lat="31.201766" lon="35.295464"><ele>243.6</ele><name>TP04737</name><time>2020-01-27T12:38:56Z</time></trkpt>
   <trkpt lat="31.201766" lon="35.295464"><ele>243.6</ele><name>TP04738</name><time>2020-01-27T12:38:57Z</time></trkpt>
   <trkpt lat="31.201765" lon="35.295464"><ele>243.6</ele><name>TP04739</name><time>2020-01-27T12:38:59Z</time></trkpt>
   <trkpt lat="31.201765" lon="35.295464"><ele>243.6</ele><name>TP04740</name><time>2020-01-27T12:39:01Z</time></trkpt>
   <trkpt lat="31.201765" lon="35.295464"><ele>243.6</ele><name>TP04741</name><time>2020-01-27T12:39:03Z</time></trkpt>
   <trkpt lat="31.201765" lon="35.295464"><ele>243.6</ele><name>TP04742</name><time>2020-01-27T12:39:05Z</time></trkpt>
   <trkpt lat="31.201765" lon="35.295463"><ele>243.6</ele><name>TP04743</name><time>2020-01-27T12:39:06Z</time></trkpt>
   <trkpt lat="31.201764" lon="35.295463"><ele>243.6</ele><name>TP04744</name><time>2020-01-27T12:39:08Z</time></trkpt>
   <trkpt lat="31.201764" lon="35.295463"><ele>243.6</ele><name>TP04745</name><time>2020-01-27T12:39:10Z</time></trkpt>
   <trkpt lat="31.201764" lon="35.295463"><ele>243.6</ele><name>TP04746</name><time>2020-01-27T12:39:12Z</time></trkpt>
   <trkpt lat="31.201764" lon="35.295463"><ele>243.6</ele><name>TP04747</name><time>2020-01-27T12:39:14Z</time></trkpt>
   <trkpt lat="31.201764" lon="35.295463"><ele>243.6</ele><name>TP04748</name><time>2020-01-27T12:39:16Z</time></trkpt>
   <trkpt lat="31.201763" lon="35.295463"><ele>243.6</ele><name>TP04749</name><time>2020-01-27T12:39:18Z</time></trkpt>
   <trkpt lat="31.201763" lon="35.295463"><ele>243.6</ele><name>TP04750</name><time>2020-01-27T12:39:19Z</time></trkpt>
   <trkpt lat="31.201763" lon="35.295463"><ele>243.6</ele><name>TP04751</name><time>2020-01-27T12:39:21Z</time></trkpt>
   <trkpt lat="31.201763" lon="35.295463"><ele>243.6</ele><name>TP04752</name><time>2020-01-27T12:39:23Z</time></trkpt>
   <trkpt lat="31.201763" lon="35.295463"><ele>243.6</ele><name>TP04753</name><time>2020-01-27T12:39:25Z</time></trkpt>
   <trkpt lat="31.201762" lon="35.295463"><ele>243.6</ele><name>TP04754</name><time>2020-01-27T12:39:26Z</time></trkpt>
   <trkpt lat="31.201762" lon="35.295463"><ele>243.6</ele><name>TP04755</name><time>2020-01-27T12:39:28Z</time></trkpt>
   <trkpt lat="31.201762" lon="35.295463"><ele>243.6</ele><name>TP04756</name><time>2020-01-27T12:39:29Z</time></trkpt>
   <trkpt lat="31.201762" lon="35.295463"><ele>243.6</ele><name>TP04757</name><time>2020-01-27T12:39:31Z</time></trkpt>
   <trkpt lat="31.201762" lon="35.295463"><ele>243.6</ele><name>TP04758</name><time>2020-01-27T12:39:32Z</time></trkpt>
   <trkpt lat="31.201761" lon="35.295462"><ele>243.6</ele><name>TP04759</name><time>2020-01-27T12:39:34Z</time></trkpt>
   <trkpt lat="31.201761" lon="35.295462"><ele>243.6</ele><name>TP04760</name><time>2020-01-27T12:39:36Z</time></trkpt>
   <trkpt lat="31.201761" lon="35.295462"><ele>243.6</ele><name>TP04761</name><time>2020-01-27T12:39:37Z</time></trkpt>
   <trkpt lat="31.201761" lon="35.295462"><ele>243.6</ele><name>TP04762</name><time>2020-01-27T12:39:38Z</time></trkpt>
   <trkpt lat="31.201761" lon="35.295462"><ele>243.6</ele><name>TP04763</name><time>2020-01-27T12:39:40Z</time></trkpt>
   <trkpt lat="31.20176" lon="35.295462"><ele>243.6</ele><name>TP04764</name><time>2020-01-27T12:39:41Z</time></trkpt>
   <trkpt lat="31.20176" lon="35.295462"><ele>243.6</ele><name>TP04765</name><time>2020-01-27T12:39:43Z</time></trkpt>
   <trkpt lat="31.20176" lon="35.295462"><ele>243.6</ele><name>TP04766</name><time>2020-01-27T12:39:44Z</time></trkpt>
   <trkpt lat="31.20176" lon="35.295462"><ele>243.6</ele><name>TP04767</name><time>2020-01-27T12:39:46Z</time></trkpt>
   <trkpt lat="31.20176" lon="35.295462"><ele>243.6</ele><name>TP04768</name><time>2020-01-27T12:39:47Z</time></trkpt>
   <trkpt lat="31.201759" lon="35.295462"><ele>243.6</ele><name>TP04769</name><time>2020-01-27T12:39:49Z</time></trkpt>
   <trkpt lat="31.201759" lon="35.295462"><ele>243.6</ele><name>TP04770</name><time>2020-01-27T12:39:51Z</time></trkpt>
   <trkpt lat="31.201759" lon="35.295462"><ele>243.6</ele><name>TP04771</name><time>2020-01-27T12:39:52Z</time></trkpt>
   <trkpt lat="31.201759" lon="35.295462"><ele>243.6</ele><name>TP04772</name><time>2020-01-27T12:39:54Z</time></trkpt>
   <trkpt lat="31.201759" lon="35.295462"><ele>243.6</ele><name>TP04773</name><time>2020-01-27T12:39:55Z</time></trkpt>
   <trkpt lat="31.201758" lon="35.295462"><ele>243.6</ele><name>TP04774</name><time>2020-01-27T12:39:57Z</time></trkpt>
   <trkpt lat="31.201758" lon="35.295461"><ele>243.6</ele><name>TP04775</name><time>2020-01-27T12:39:59Z</time></trkpt>
   <trkpt lat="31.201758" lon="35.295461"><ele>243.6</ele><name>TP04776</name><time>2020-01-27T12:40:00Z</time></trkpt>
   <trkpt lat="31.201758" lon="35.295461"><ele>243.6</ele><name>TP04777</name><time>2020-01-27T12:40:02Z</time></trkpt>
   <trkpt lat="31.201758" lon="35.295461"><ele>243.6</ele><name>TP04778</name><time>2020-01-27T12:40:03Z</time></trkpt>
   <trkpt lat="31.201757" lon="35.295461"><ele>243.6</ele><name>TP04779</name><time>2020-01-27T12:40:04Z</time></trkpt>
   <trkpt lat="31.201757" lon="35.295461"><ele>243.6</ele><name>TP04780</name><time>2020-01-27T12:40:06Z</time></trkpt>
   <trkpt lat="31.201757" lon="35.295461"><ele>243.6</ele><name>TP04781</name><time>2020-01-27T12:40:07Z</time></trkpt>
   <trkpt lat="31.201757" lon="35.295461"><ele>243.6</ele><name>TP04782</name><time>2020-01-27T12:40:09Z</time></trkpt>
   <trkpt lat="31.201757" lon="35.295461"><ele>243.6</ele><name>TP04783</name><time>2020-01-27T12:40:11Z</time></trkpt>
   <trkpt lat="31.201756" lon="35.295461"><ele>243.6</ele><name>TP04784</name><time>2020-01-27T12:40:12Z</time></trkpt>
   <trkpt lat="31.201756" lon="35.295461"><ele>243.6</ele><name>TP04785</name><time>2020-01-27T12:40:15Z</time></trkpt>
   <trkpt lat="31.201756" lon="35.295461"><ele>243.6</ele><name>TP04786</name><time>2020-01-27T12:40:17Z</time></trkpt>
   <trkpt lat="31.201756" lon="35.295461"><ele>243.6</ele><name>TP04787</name><time>2020-01-27T12:40:18Z</time></trkpt>
   <trkpt lat="31.201756" lon="35.295461"><ele>243.6</ele><name>TP04788</name><time>2020-01-27T12:40:20Z</time></trkpt>
   <trkpt lat="31.201755" lon="35.295461"><ele>243.6</ele><name>TP04789</name><time>2020-01-27T12:40:21Z</time></trkpt>
   <trkpt lat="31.201755" lon="35.295461"><ele>243.6</ele><name>TP04790</name><time>2020-01-27T12:40:23Z</time></trkpt>
   <trkpt lat="31.201755" lon="35.29546"><ele>243.6</ele><name>TP04791</name><time>2020-01-27T12:40:24Z</time></trkpt>
   <trkpt lat="31.201755" lon="35.29546"><ele>243.6</ele><name>TP04792</name><time>2020-01-27T12:40:26Z</time></trkpt>
   <trkpt lat="31.201755" lon="35.29546"><ele>243.6</ele><name>TP04793</name><time>2020-01-27T12:40:27Z</time></trkpt>
   <trkpt lat="31.201754" lon="35.29546"><ele>243.6</ele><name>TP04794</name><time>2020-01-27T12:40:29Z</time></trkpt>
   <trkpt lat="31.201754" lon="35.29546"><ele>243.6</ele><name>TP04795</name><time>2020-01-27T12:40:30Z</time></trkpt>
   <trkpt lat="31.201754" lon="35.29546"><ele>243.6</ele><name>TP04796</name><time>2020-01-27T12:40:31Z</time></trkpt>
   <trkpt lat="31.201754" lon="35.29546"><ele>243.6</ele><name>TP04797</name><time>2020-01-27T12:40:32Z</time></trkpt>
   <trkpt lat="31.201754" lon="35.29546"><ele>243.6</ele><name>TP04798</name><time>2020-01-27T12:40:35Z</time></trkpt>
   <trkpt lat="31.201754" lon="35.29546"><ele>243.6</ele><name>TP04799</name><time>2020-01-27T12:40:36Z</time></trkpt>
   <trkpt lat="31.201753" lon="35.29546"><ele>243.6</ele><name>TP04800</name><time>2020-01-27T12:40:38Z</time></trkpt>
   <trkpt lat="31.201753" lon="35.29546"><ele>243.6</ele><name>TP04801</name><time>2020-01-27T12:40:39Z</time></trkpt>
   <trkpt lat="31.201753" lon="35.29546"><ele>243.6</ele><name>TP04802</name><time>2020-01-27T12:40:41Z</time></trkpt>
   <trkpt lat="31.201753" lon="35.29546"><ele>243.6</ele><name>TP04803</name><time>2020-01-27T12:40:43Z</time></trkpt>
   <trkpt lat="31.201753" lon="35.29546"><ele>243.6</ele><name>TP04804</name><time>2020-01-27T12:40:45Z</time></trkpt>
   <trkpt lat="31.201752" lon="35.29546"><ele>243.6</ele><name>TP04805</name><time>2020-01-27T12:40:46Z</time></trkpt>
   <trkpt lat="31.201752" lon="35.29546"><ele>243.6</ele><name>TP04806</name><time>2020-01-27T12:40:47Z</time></trkpt>
   <trkpt lat="31.201752" lon="35.295459"><ele>243.6</ele><name>TP04807</name><time>2020-01-27T12:40:49Z</time></trkpt>
   <trkpt lat="31.201752" lon="35.295459"><ele>243.6</ele><name>TP04808</name><time>2020-01-27T12:40:51Z</time></trkpt>
   <trkpt lat="31.201752" lon="35.295459"><ele>243.6</ele><name>TP04809</name><time>2020-01-27T12:40:52Z</time></trkpt>
   <trkpt lat="31.201751" lon="35.295459"><ele>243.6</ele><name>TP04810</name><time>2020-01-27T12:40:54Z</time></trkpt>
   <trkpt lat="31.201751" lon="35.295459"><ele>243.6</ele><name>TP04811</name><time>2020-01-27T12:40:56Z</time></trkpt>
   <trkpt lat="31.201751" lon="35.295459"><ele>243.6</ele><name>TP04812</name><time>2020-01-27T12:40:58Z</time></trkpt>
   <trkpt lat="31.201751" lon="35.295459"><ele>243.6</ele><name>TP04813</name><time>2020-01-27T12:40:59Z</time></trkpt>
   <trkpt lat="31.201751" lon="35.295459"><ele>243.6</ele><name>TP04814</name><time>2020-01-27T12:41:01Z</time></trkpt>
   <trkpt lat="31.20175" lon="35.295459"><ele>243.6</ele><name>TP04815</name><time>2020-01-27T12:41:03Z</time></trkpt>
   <trkpt lat="31.20175" lon="35.295459"><ele>243.6</ele><name>TP04816</name><time>2020-01-27T12:41:05Z</time></trkpt>
   <trkpt lat="31.20175" lon="35.295459"><ele>243.6</ele><name>TP04817</name><time>2020-01-27T12:41:06Z</time></trkpt>
   <trkpt lat="31.20175" lon="35.295459"><ele>243.6</ele><name>TP04818</name><time>2020-01-27T12:41:07Z</time></trkpt>
   <trkpt lat="31.20175" lon="35.295459"><ele>243.6</ele><name>TP04819</name><time>2020-01-27T12:41:08Z</time></trkpt>
   <trkpt lat="31.201749" lon="35.295459"><ele>243.6</ele><name>TP04820</name><time>2020-01-27T12:41:10Z</time></trkpt>
   <trkpt lat="31.201749" lon="35.295459"><ele>243.6</ele><name>TP04821</name><time>2020-01-27T12:41:11Z</time></trkpt>
   <trkpt lat="31.201749" lon="35.295459"><ele>243.6</ele><name>TP04822</name><time>2020-01-27T12:41:12Z</time></trkpt>
   <trkpt lat="31.201749" lon="35.295458"><ele>243.6</ele><name>TP04823</name><time>2020-01-27T12:41:14Z</time></trkpt>
   <trkpt lat="31.201749" lon="35.295458"><ele>243.6</ele><name>TP04824</name><time>2020-01-27T12:41:16Z</time></trkpt>
   <trkpt lat="31.201748" lon="35.295458"><ele>243.6</ele><name>TP04825</name><time>2020-01-27T12:41:18Z</time></trkpt>
   <trkpt lat="31.201748" lon="35.295458"><ele>243.6</ele><name>TP04826</name><time>2020-01-27T12:41:20Z</time></trkpt>
   <trkpt lat="31.201748" lon="35.295458"><ele>243.6</ele><name>TP04827</name><time>2020-01-27T12:41:22Z</time></trkpt>
   <trkpt lat="31.201748" lon="35.295458"><ele>243.6</ele><name>TP04828</name><time>2020-01-27T12:41:24Z</time></trkpt>
   <trkpt lat="31.201748" lon="35.295458"><ele>243.6</ele><name>TP04829</name><time>2020-01-27T12:41:26Z</time></trkpt>
   <trkpt lat="31.201747" lon="35.295458"><ele>243.6</ele><name>TP04830</name><time>2020-01-27T12:41:27Z</time></trkpt>
   <trkpt lat="31.201747" lon="35.295458"><ele>243.6</ele><name>TP04831</name><time>2020-01-27T12:41:29Z</time></trkpt>
   <trkpt lat="31.201747" lon="35.295458"><ele>243.6</ele><name>TP04832</name><time>2020-01-27T12:41:30Z</time></trkpt>
   <trkpt lat="31.201747" lon="35.295458"><ele>243.6</ele><name>TP04833</name><time>2020-01-27T12:41:32Z</time></trkpt>
   <trkpt lat="31.201747" lon="35.295458"><ele>243.6</ele><name>TP04834</name><time>2020-01-27T12:41:34Z</time></trkpt>
   <trkpt lat="31.201746" lon="35.295458"><ele>243.6</ele><name>TP04835</name><time>2020-01-27T12:41:35Z</time></trkpt>
   <trkpt lat="31.201746" lon="35.295458"><ele>243.6</ele><name>TP04836</name><time>2020-01-27T12:41:37Z</time></trkpt>
   <trkpt lat="31.201746" lon="35.295458"><ele>243.6</ele><name>TP04837</name><time>2020-01-27T12:41:39Z</time></trkpt>
   <trkpt lat="31.201746" lon="35.295458"><ele>243.6</ele><name>TP04838</name><time>2020-01-27T12:41:41Z</time></trkpt>
   <trkpt lat="31.201746" lon="35.295457"><ele>243.6</ele><name>TP04839</name><time>2020-01-27T12:41:43Z</time></trkpt>
   <trkpt lat="31.201745" lon="35.295457"><ele>243.6</ele><name>TP04840</name><time>2020-01-27T12:41:44Z</time></trkpt>
   <trkpt lat="31.201745" lon="35.295457"><ele>243.6</ele><name>TP04841</name><time>2020-01-27T12:41:45Z</time></trkpt>
   <trkpt lat="31.201745" lon="35.295457"><ele>243.6</ele><name>TP04842</name><time>2020-01-27T12:41:47Z</time></trkpt>
   <trkpt lat="31.201745" lon="35.295457"><ele>243.6</ele><name>TP04843</name><time>2020-01-27T12:41:48Z</time></trkpt>
   <trkpt lat="31.201745" lon="35.295457"><ele>243.6</ele><name>TP04844</name><time>2020-01-27T12:41:49Z</time></trkpt>
   <trkpt lat="31.201744" lon="35.295457"><ele>243.6</ele><name>TP04845</name><time>2020-01-27T12:41:50Z</time></trkpt>
   <trkpt lat="31.201744" lon="35.295457"><ele>243.6</ele><name>TP04846</name><time>2020-01-27T12:41:52Z</time></trkpt>
   <trkpt lat="31.201744" lon="35.295457"><ele>243.6</ele><name>TP04847</name><time>2020-01-27T12:41:53Z</time></trkpt>
   <trkpt lat="31.201735" lon="35.295462"><ele>243.5</ele><name>TP04848</name><time>2020-01-27T12:41:55Z</time></trkpt>
   <trkpt lat="31.201712" lon="35.295468"><ele>243.5</ele><name>TP04849</name><time>2020-01-27T12:41:56Z</time></trkpt>
   <trkpt lat="31.201658" lon="35.295461"><ele>243.4</ele><name>TP04850</name><time>2020-01-27T12:41:59Z</time></trkpt>
   <trkpt lat="31.201613" lon="35.295442"><ele>243.1</ele><name>TP04851</name><time>2020-01-27T12:42:02Z</time></trkpt>
   <trkpt lat="31.201564" lon="35.295439"><ele>242.7</ele><name>TP04852</name><time>2020-01-27T12:42:03Z</time></trkpt>
   <trkpt lat="31.201502" lon="35.295415"><ele>242.2</ele><name>TP04853</name><time>2020-01-27T12:42:04Z</time></trkpt>
   <trkpt lat="31.201408" lon="35.295463"><ele>241.6</ele><name>TP04854</name><time>2020-01-27T12:42:07Z</time></trkpt>
   <trkpt lat="31.201382" lon="35.295477"><ele>241.4</ele><name>TP04855</name><time>2020-01-27T12:42:08Z</time></trkpt>
   <trkpt lat="31.201346" lon="35.2955"><ele>241.4</ele><name>TP04856</name><time>2020-01-27T12:42:11Z</time></trkpt>
   <trkpt lat="31.201333" lon="35.295506"><ele>241.3</ele><name>TP04857</name><time>2020-01-27T12:42:12Z</time></trkpt>
   <trkpt lat="31.201279" lon="35.295537"><ele>241.3</ele><name>TP04858</name><time>2020-01-27T12:42:13Z</time></trkpt>
   <trkpt lat="31.201253" lon="35.295554"><ele>241.2</ele><name>TP04859</name><time>2020-01-27T12:42:14Z</time></trkpt>
   <trkpt lat="31.201224" lon="35.295583"><ele>241.1</ele><name>TP04860</name><time>2020-01-27T12:42:15Z</time></trkpt>
   <trkpt lat="31.201215" lon="35.295593"><ele>241</ele><name>TP04861</name><time>2020-01-27T12:42:16Z</time></trkpt>
   <trkpt lat="31.201198" lon="35.295606"><ele>240.9</ele><name>TP04862</name><time>2020-01-27T12:42:17Z</time></trkpt>
   <trkpt lat="31.201178" lon="35.295614"><ele>240.7</ele><name>TP04863</name><time>2020-01-27T12:42:20Z</time></trkpt>
   <trkpt lat="31.201161" lon="35.295662"><ele>240.4</ele><name>TP04864</name><time>2020-01-27T12:42:21Z</time></trkpt>
   <trkpt lat="31.201149" lon="35.29567"><ele>240.3</ele><name>TP04865</name><time>2020-01-27T12:42:22Z</time></trkpt>
   <trkpt lat="31.201122" lon="35.295685"><ele>240.3</ele><name>TP04866</name><time>2020-01-27T12:42:23Z</time></trkpt>
   <trkpt lat="31.201108" lon="35.295692"><ele>240.3</ele><name>TP04867</name><time>2020-01-27T12:42:24Z</time></trkpt>
   <trkpt lat="31.201093" lon="35.2957"><ele>240.3</ele><name>TP04868</name><time>2020-01-27T12:42:27Z</time></trkpt>
   <trkpt lat="31.201079" lon="35.295708"><ele>240.3</ele><name>TP04869</name><time>2020-01-27T12:42:28Z</time></trkpt>
   <trkpt lat="31.201064" lon="35.295716"><ele>240.3</ele><name>TP04870</name><time>2020-01-27T12:42:31Z</time></trkpt>
   <trkpt lat="31.20105" lon="35.295723"><ele>240.1</ele><name>TP04871</name><time>2020-01-27T12:42:33Z</time></trkpt>
   <trkpt lat="31.201035" lon="35.295731"><ele>240</ele><name>TP04872</name><time>2020-01-27T12:42:34Z</time></trkpt>
   <trkpt lat="31.201021" lon="35.295754"><ele>239.8</ele><name>TP04873</name><time>2020-01-27T12:42:35Z</time></trkpt>
   <trkpt lat="31.201018" lon="35.295771"><ele>239.6</ele><name>TP04874</name><time>2020-01-27T12:42:38Z</time></trkpt>
   <trkpt lat="31.201014" lon="35.295785"><ele>239.5</ele><name>TP04875</name><time>2020-01-27T12:42:39Z</time></trkpt>
   <trkpt lat="31.201009" lon="35.295804"><ele>239.5</ele><name>TP04876</name><time>2020-01-27T12:42:40Z</time></trkpt>
   <trkpt lat="31.200997" lon="35.295841"><ele>239.4</ele><name>TP04877</name><time>2020-01-27T12:42:41Z</time></trkpt>
   <trkpt lat="31.200978" lon="35.295857"><ele>239.4</ele><name>TP04878</name><time>2020-01-27T12:42:43Z</time></trkpt>
   <trkpt lat="31.200955" lon="35.295862"><ele>239.4</ele><name>TP04879</name><time>2020-01-27T12:42:45Z</time></trkpt>
   <trkpt lat="31.200929" lon="35.29588"><ele>239.5</ele><name>TP04880</name><time>2020-01-27T12:42:46Z</time></trkpt>
   <trkpt lat="31.200912" lon="35.295895"><ele>239.6</ele><name>TP04881</name><time>2020-01-27T12:42:49Z</time></trkpt>
   <trkpt lat="31.200896" lon="35.29591"><ele>239.7</ele><name>TP04882</name><time>2020-01-27T12:42:50Z</time></trkpt>
   <trkpt lat="31.200879" lon="35.295925"><ele>239.8</ele><name>TP04883</name><time>2020-01-27T12:42:51Z</time></trkpt>
   <trkpt lat="31.200866" lon="35.295946"><ele>239.8</ele><name>TP04884</name><time>2020-01-27T12:42:52Z</time></trkpt>
   <trkpt lat="31.200843" lon="35.295981"><ele>239.9</ele><name>TP04885</name><time>2020-01-27T12:42:54Z</time></trkpt>
   <trkpt lat="31.200828" lon="35.29599"><ele>239.8</ele><name>TP04886</name><time>2020-01-27T12:42:55Z</time></trkpt>
   <trkpt lat="31.20081" lon="35.295996"><ele>239.6</ele><name>TP04887</name><time>2020-01-27T12:42:56Z</time></trkpt>
   <trkpt lat="31.200764" lon="35.296036"><ele>239.1</ele><name>TP04888</name><time>2020-01-27T12:42:59Z</time></trkpt>
   <trkpt lat="31.200687" lon="35.296059"><ele>238.3</ele><name>TP04889</name><time>2020-01-27T12:43:02Z</time></trkpt>
   <trkpt lat="31.200647" lon="35.296073"><ele>237.8</ele><name>TP04890</name><time>2020-01-27T12:43:03Z</time></trkpt>
   <trkpt lat="31.200608" lon="35.296086"><ele>237.3</ele><name>TP04891</name><time>2020-01-27T12:43:04Z</time></trkpt>
   <trkpt lat="31.200578" lon="35.296093"><ele>237.1</ele><name>TP04892</name><time>2020-01-27T12:43:06Z</time></trkpt>
   <trkpt lat="31.200466" lon="35.296158"><ele>237.1</ele><name>TP04893</name><time>2020-01-27T12:43:08Z</time></trkpt>
   <trkpt lat="31.200425" lon="35.296199"><ele>237.3</ele><name>TP04894</name><time>2020-01-27T12:43:10Z</time></trkpt>
   <trkpt lat="31.200406" lon="35.296237"><ele>237.2</ele><name>TP04895</name><time>2020-01-27T12:43:13Z</time></trkpt>
   <trkpt lat="31.200398" lon="35.2963"><ele>236.8</ele><name>TP04896</name><time>2020-01-27T12:43:14Z</time></trkpt>
   <trkpt lat="31.200407" lon="35.296332"><ele>236.5</ele><name>TP04897</name><time>2020-01-27T12:43:16Z</time></trkpt>
   <trkpt lat="31.200405" lon="35.296363"><ele>236.3</ele><name>TP04898</name><time>2020-01-27T12:43:19Z</time></trkpt>
   <trkpt lat="31.200401" lon="35.29642"><ele>235.9</ele><name>TP04899</name><time>2020-01-27T12:43:20Z</time></trkpt>
   <trkpt lat="31.200397" lon="35.296457"><ele>235.6</ele><name>TP04900</name><time>2020-01-27T12:43:23Z</time></trkpt>
   <trkpt lat="31.200392" lon="35.296505"><ele>235.1</ele><name>TP04901</name><time>2020-01-27T12:43:25Z</time></trkpt>
   <trkpt lat="31.20038" lon="35.296569"><ele>234.5</ele><name>TP04902</name><time>2020-01-27T12:43:28Z</time></trkpt>
   <trkpt lat="31.200374" lon="35.296595"><ele>234.2</ele><name>TP04903</name><time>2020-01-27T12:43:29Z</time></trkpt>
   <trkpt lat="31.200367" lon="35.296622"><ele>234</ele><name>TP04904</name><time>2020-01-27T12:43:30Z</time></trkpt>
   <trkpt lat="31.200355" lon="35.296683"><ele>233.3</ele><name>TP04905</name><time>2020-01-27T12:43:33Z</time></trkpt>
   <trkpt lat="31.200343" lon="35.296745"><ele>232.5</ele><name>TP04906</name><time>2020-01-27T12:43:36Z</time></trkpt>
   <trkpt lat="31.200343" lon="35.29678"><ele>232.3</ele><name>TP04907</name><time>2020-01-27T12:43:39Z</time></trkpt>
   <trkpt lat="31.200341" lon="35.296837"><ele>232.3</ele><name>TP04908</name><time>2020-01-27T12:43:41Z</time></trkpt>
   <trkpt lat="31.200339" lon="35.296859"><ele>232.3</ele><name>TP04909</name><time>2020-01-27T12:43:43Z</time></trkpt>
   <trkpt lat="31.200331" lon="35.29689"><ele>232.4</ele><name>TP04910</name><time>2020-01-27T12:43:45Z</time></trkpt>
   <trkpt lat="31.200335" lon="35.296927"><ele>232.4</ele><name>TP04911</name><time>2020-01-27T12:43:47Z</time></trkpt>
   <trkpt lat="31.200341" lon="35.296979"><ele>232.5</ele><name>TP04912</name><time>2020-01-27T12:43:48Z</time></trkpt>
   <trkpt lat="31.20035" lon="35.297021"><ele>232.2</ele><name>TP04913</name><time>2020-01-27T12:43:51Z</time></trkpt>
   <trkpt lat="31.20036" lon="35.297045"><ele>232</ele><name>TP04914</name><time>2020-01-27T12:43:52Z</time></trkpt>
   <trkpt lat="31.200369" lon="35.297069"><ele>231.9</ele><name>TP04915</name><time>2020-01-27T12:43:54Z</time></trkpt>
   <trkpt lat="31.200378" lon="35.297122"><ele>232</ele><name>TP04916</name><time>2020-01-27T12:43:55Z</time></trkpt>
   <trkpt lat="31.200382" lon="35.297145"><ele>232</ele><name>TP04917</name><time>2020-01-27T12:43:56Z</time></trkpt>
   <trkpt lat="31.200375" lon="35.297197"><ele>231.8</ele><name>TP04918</name><time>2020-01-27T12:43:59Z</time></trkpt>
   <trkpt lat="31.200368" lon="35.297229"><ele>231.6</ele><name>TP04919</name><time>2020-01-27T12:44:01Z</time></trkpt>
   <trkpt lat="31.200366" lon="35.297242"><ele>231.6</ele><name>TP04920</name><time>2020-01-27T12:44:02Z</time></trkpt>
   <trkpt lat="31.200366" lon="35.297243"><ele>231.6</ele><name>TP04921</name><time>2020-01-27T12:44:04Z</time></trkpt>
   <trkpt lat="31.200365" lon="35.297245"><ele>231.6</ele><name>TP04922</name><time>2020-01-27T12:44:06Z</time></trkpt>
   <trkpt lat="31.200365" lon="35.297246"><ele>231.6</ele><name>TP04923</name><time>2020-01-27T12:44:07Z</time></trkpt>
   <trkpt lat="31.200365" lon="35.297248"><ele>231.5</ele><name>TP04924</name><time>2020-01-27T12:44:09Z</time></trkpt>
   <trkpt lat="31.200365" lon="35.297249"><ele>231.5</ele><name>TP04925</name><time>2020-01-27T12:44:11Z</time></trkpt>
   <trkpt lat="31.200364" lon="35.297251"><ele>231.5</ele><name>TP04926</name><time>2020-01-27T12:44:13Z</time></trkpt>
   <trkpt lat="31.200364" lon="35.297253"><ele>231.5</ele><name>TP04927</name><time>2020-01-27T12:44:15Z</time></trkpt>
   <trkpt lat="31.200364" lon="35.297254"><ele>231.5</ele><name>TP04928</name><time>2020-01-27T12:44:16Z</time></trkpt>
   <trkpt lat="31.200364" lon="35.297256"><ele>231.5</ele><name>TP04929</name><time>2020-01-27T12:44:18Z</time></trkpt>
   <trkpt lat="31.200364" lon="35.297257"><ele>231.5</ele><name>TP04930</name><time>2020-01-27T12:44:21Z</time></trkpt>
   <trkpt lat="31.200363" lon="35.297259"><ele>231.5</ele><name>TP04931</name><time>2020-01-27T12:44:23Z</time></trkpt>
   <trkpt lat="31.200363" lon="35.29726"><ele>231.5</ele><name>TP04932</name><time>2020-01-27T12:44:25Z</time></trkpt>
   <trkpt lat="31.200363" lon="35.297262"><ele>231.5</ele><name>TP04933</name><time>2020-01-27T12:44:27Z</time></trkpt>
   <trkpt lat="31.200363" lon="35.297263"><ele>231.5</ele><name>TP04934</name><time>2020-01-27T12:44:29Z</time></trkpt>
   <trkpt lat="31.200363" lon="35.297265"><ele>231.5</ele><name>TP04935</name><time>2020-01-27T12:44:31Z</time></trkpt>
   <trkpt lat="31.200362" lon="35.297267"><ele>231.5</ele><name>TP04936</name><time>2020-01-27T12:44:33Z</time></trkpt>
   <trkpt lat="31.200362" lon="35.297268"><ele>231.5</ele><name>TP04937</name><time>2020-01-27T12:44:35Z</time></trkpt>
   <trkpt lat="31.200362" lon="35.29727"><ele>231.5</ele><name>TP04938</name><time>2020-01-27T12:44:36Z</time></trkpt>
   <trkpt lat="31.200362" lon="35.297271"><ele>231.4</ele><name>TP04939</name><time>2020-01-27T12:44:38Z</time></trkpt>
   <trkpt lat="31.200361" lon="35.297273"><ele>231.4</ele><name>TP04940</name><time>2020-01-27T12:44:39Z</time></trkpt>
   <trkpt lat="31.200361" lon="35.297274"><ele>231.4</ele><name>TP04941</name><time>2020-01-27T12:44:41Z</time></trkpt>
   <trkpt lat="31.200361" lon="35.297276"><ele>231.4</ele><name>TP04942</name><time>2020-01-27T12:44:43Z</time></trkpt>
   <trkpt lat="31.200361" lon="35.297278"><ele>231.4</ele><name>TP04943</name><time>2020-01-27T12:44:46Z</time></trkpt>
   <trkpt lat="31.200361" lon="35.297279"><ele>231.4</ele><name>TP04944</name><time>2020-01-27T12:44:47Z</time></trkpt>
   <trkpt lat="31.20036" lon="35.297281"><ele>231.4</ele><name>TP04945</name><time>2020-01-27T12:44:49Z</time></trkpt>
   <trkpt lat="31.20036" lon="35.297282"><ele>231.4</ele><name>TP04946</name><time>2020-01-27T12:44:51Z</time></trkpt>
   <trkpt lat="31.20036" lon="35.297284"><ele>231.4</ele><name>TP04947</name><time>2020-01-27T12:44:52Z</time></trkpt>
   <trkpt lat="31.20036" lon="35.297285"><ele>231.4</ele><name>TP04948</name><time>2020-01-27T12:44:54Z</time></trkpt>
   <trkpt lat="31.200359" lon="35.297287"><ele>231.4</ele><name>TP04949</name><time>2020-01-27T12:44:56Z</time></trkpt>
   <trkpt lat="31.200359" lon="35.297288"><ele>231.4</ele><name>TP04950</name><time>2020-01-27T12:44:58Z</time></trkpt>
   <trkpt lat="31.200359" lon="35.29729"><ele>231.4</ele><name>TP04951</name><time>2020-01-27T12:44:59Z</time></trkpt>
   <trkpt lat="31.200328" lon="35.297372"><ele>231.2</ele><name>TP04952</name><time>2020-01-27T12:45:02Z</time></trkpt>
   <trkpt lat="31.200311" lon="35.297415"><ele>231.3</ele><name>TP04953</name><time>2020-01-27T12:45:03Z</time></trkpt>
   <trkpt lat="31.200293" lon="35.297447"><ele>231.6</ele><name>TP04954</name><time>2020-01-27T12:45:04Z</time></trkpt>
   <trkpt lat="31.200258" lon="35.297534"><ele>232.7</ele><name>TP04955</name><time>2020-01-27T12:45:07Z</time></trkpt>
   <trkpt lat="31.200243" lon="35.297573"><ele>233.3</ele><name>TP04956</name><time>2020-01-27T12:45:08Z</time></trkpt>
   <trkpt lat="31.200207" lon="35.297623"><ele>234.2</ele><name>TP04957</name><time>2020-01-27T12:45:11Z</time></trkpt>
   <trkpt lat="31.200158" lon="35.297682"><ele>234.9</ele><name>TP04958</name><time>2020-01-27T12:45:12Z</time></trkpt>
   <trkpt lat="31.200139" lon="35.297702"><ele>235.2</ele><name>TP04959</name><time>2020-01-27T12:45:13Z</time></trkpt>
   <trkpt lat="31.200107" lon="35.297749"><ele>235.2</ele><name>TP04960</name><time>2020-01-27T12:45:16Z</time></trkpt>
   <trkpt lat="31.200077" lon="35.29778"><ele>235.1</ele><name>TP04961</name><time>2020-01-27T12:45:18Z</time></trkpt>
   <trkpt lat="31.200045" lon="35.297811"><ele>235</ele><name>TP04962</name><time>2020-01-27T12:45:21Z</time></trkpt>
   <trkpt lat="31.200026" lon="35.297839"><ele>234.8</ele><name>TP04963</name><time>2020-01-27T12:45:22Z</time></trkpt>
   <trkpt lat="31.19999" lon="35.2979"><ele>234.2</ele><name>TP04964</name><time>2020-01-27T12:45:24Z</time></trkpt>
   <trkpt lat="31.199975" lon="35.29793"><ele>233.9</ele><name>TP04965</name><time>2020-01-27T12:45:25Z</time></trkpt>
   <trkpt lat="31.199964" lon="35.297956"><ele>233.9</ele><name>TP04966</name><time>2020-01-27T12:45:27Z</time></trkpt>
   <trkpt lat="31.199938" lon="35.298008"><ele>233.7</ele><name>TP04967</name><time>2020-01-27T12:45:29Z</time></trkpt>
   <trkpt lat="31.19993" lon="35.29804"><ele>233.6</ele><name>TP04968</name><time>2020-01-27T12:45:31Z</time></trkpt>
   <trkpt lat="31.199926" lon="35.298055"><ele>233.6</ele><name>TP04969</name><time>2020-01-27T12:45:32Z</time></trkpt>
   <trkpt lat="31.19987" lon="35.298094"><ele>233.4</ele><name>TP04970</name><time>2020-01-27T12:45:35Z</time></trkpt>
   <trkpt lat="31.199838" lon="35.298133"><ele>233.2</ele><name>TP04971</name><time>2020-01-27T12:45:38Z</time></trkpt>
   <trkpt lat="31.199813" lon="35.298165"><ele>233.2</ele><name>TP04972</name><time>2020-01-27T12:45:39Z</time></trkpt>
   <trkpt lat="31.199784" lon="35.298211"><ele>233.2</ele><name>TP04973</name><time>2020-01-27T12:45:40Z</time></trkpt>
   <trkpt lat="31.19976" lon="35.298246"><ele>233.3</ele><name>TP04974</name><time>2020-01-27T12:45:41Z</time></trkpt>
   <trkpt lat="31.199746" lon="35.298263"><ele>233.4</ele><name>TP04975</name><time>2020-01-27T12:45:44Z</time></trkpt>
   <trkpt lat="31.199732" lon="35.298281"><ele>233.5</ele><name>TP04976</name><time>2020-01-27T12:45:45Z</time></trkpt>
   <trkpt lat="31.199723" lon="35.298299"><ele>233.5</ele><name>TP04977</name><time>2020-01-27T12:45:46Z</time></trkpt>
   <trkpt lat="31.199713" lon="35.298317"><ele>233.8</ele><name>TP04978</name><time>2020-01-27T12:45:49Z</time></trkpt>
   <trkpt lat="31.199705" lon="35.298329"><ele>233.9</ele><name>TP04979</name><time>2020-01-27T12:45:50Z</time></trkpt>
   <trkpt lat="31.199695" lon="35.298336"><ele>234.1</ele><name>TP04980</name><time>2020-01-27T12:45:51Z</time></trkpt>
   <trkpt lat="31.199669" lon="35.298357"><ele>234.5</ele><name>TP04981</name><time>2020-01-27T12:45:52Z</time></trkpt>
   <trkpt lat="31.199652" lon="35.298383"><ele>234.8</ele><name>TP04982</name><time>2020-01-27T12:45:55Z</time></trkpt>
   <trkpt lat="31.199642" lon="35.298401"><ele>235</ele><name>TP04983</name><time>2020-01-27T12:45:56Z</time></trkpt>
   <trkpt lat="31.199627" lon="35.298429"><ele>235.2</ele><name>TP04984</name><time>2020-01-27T12:45:59Z</time></trkpt>
   <trkpt lat="31.199628" lon="35.298435"><ele>235.3</ele><name>TP04985</name><time>2020-01-27T12:46:00Z</time></trkpt>
   <trkpt lat="31.199632" lon="35.298443"><ele>235.3</ele><name>TP04986</name><time>2020-01-27T12:46:01Z</time></trkpt>
   <trkpt lat="31.19963" lon="35.29845"><ele>235.4</ele><name>TP04987</name><time>2020-01-27T12:46:02Z</time></trkpt>
   <trkpt lat="31.19962" lon="35.298449"><ele>235.4</ele><name>TP04988</name><time>2020-01-27T12:46:05Z</time></trkpt>
   <trkpt lat="31.199615" lon="35.298449"><ele>235.4</ele><name>TP04989</name><time>2020-01-27T12:46:06Z</time></trkpt>
   <trkpt lat="31.199609" lon="35.298446"><ele>235.5</ele><name>TP04990</name><time>2020-01-27T12:46:08Z</time></trkpt>
   <trkpt lat="31.19961" lon="35.298441"><ele>235.5</ele><name>TP04991</name><time>2020-01-27T12:46:10Z</time></trkpt>
   <trkpt lat="31.199613" lon="35.298439"><ele>235.5</ele><name>TP04992</name><time>2020-01-27T12:46:11Z</time></trkpt>
   <trkpt lat="31.199623" lon="35.298429"><ele>235.6</ele><name>TP04993</name><time>2020-01-27T12:46:13Z</time></trkpt>
   <trkpt lat="31.199621" lon="35.298431"><ele>235.6</ele><name>TP04994</name><time>2020-01-27T12:46:15Z</time></trkpt>
   <trkpt lat="31.199613" lon="35.298441"><ele>235.7</ele><name>TP04995</name><time>2020-01-27T12:46:16Z</time></trkpt>
   <trkpt lat="31.199604" lon="35.298452"><ele>235.9</ele><name>TP04996</name><time>2020-01-27T12:46:18Z</time></trkpt>
   <trkpt lat="31.199602" lon="35.298457"><ele>236</ele><name>TP04997</name><time>2020-01-27T12:46:19Z</time></trkpt>
   <trkpt lat="31.199599" lon="35.298467"><ele>236.2</ele><name>TP04998</name><time>2020-01-27T12:46:22Z</time></trkpt>
   <trkpt lat="31.199595" lon="35.298482"><ele>236.5</ele><name>TP04999</name><time>2020-01-27T12:46:23Z</time></trkpt>
   <trkpt lat="31.199592" lon="35.298502"><ele>236.9</ele><name>TP05000</name><time>2020-01-27T12:46:25Z</time></trkpt>
   <trkpt lat="31.19959" lon="35.298519"><ele>237.3</ele><name>TP05001</name><time>2020-01-27T12:46:27Z</time></trkpt>
   <trkpt lat="31.19959" lon="35.298528"><ele>237.4</ele><name>TP05002</name><time>2020-01-27T12:46:30Z</time></trkpt>
   <trkpt lat="31.199588" lon="35.29854"><ele>237.7</ele><name>TP05003</name><time>2020-01-27T12:46:31Z</time></trkpt>
   <trkpt lat="31.199583" lon="35.298555"><ele>237.9</ele><name>TP05004</name><time>2020-01-27T12:46:32Z</time></trkpt>
   <trkpt lat="31.199573" lon="35.298597"><ele>238.3</ele><name>TP05005</name><time>2020-01-27T12:46:33Z</time></trkpt>
   <trkpt lat="31.19957" lon="35.298607"><ele>238.4</ele><name>TP05006</name><time>2020-01-27T12:46:36Z</time></trkpt>
   <trkpt lat="31.199566" lon="35.298621"><ele>238.6</ele><name>TP05007</name><time>2020-01-27T12:46:37Z</time></trkpt>
   <trkpt lat="31.199566" lon="35.298642"><ele>238.8</ele><name>TP05008</name><time>2020-01-27T12:46:38Z</time></trkpt>
   <trkpt lat="31.199567" lon="35.298651"><ele>238.9</ele><name>TP05009</name><time>2020-01-27T12:46:40Z</time></trkpt>
   <trkpt lat="31.199568" lon="35.298653"><ele>238.9</ele><name>TP05010</name><time>2020-01-27T12:46:41Z</time></trkpt>
   <trkpt lat="31.199565" lon="35.298644"><ele>239</ele><name>TP05011</name><time>2020-01-27T12:46:43Z</time></trkpt>
   <trkpt lat="31.199566" lon="35.29865"><ele>239.1</ele><name>TP05012</name><time>2020-01-27T12:46:45Z</time></trkpt>
   <trkpt lat="31.199568" lon="35.298656"><ele>239.1</ele><name>TP05013</name><time>2020-01-27T12:46:47Z</time></trkpt>
   <trkpt lat="31.199566" lon="35.298659"><ele>239.2</ele><name>TP05014</name><time>2020-01-27T12:46:48Z</time></trkpt>
   <trkpt lat="31.199563" lon="35.298662"><ele>239.2</ele><name>TP05015</name><time>2020-01-27T12:46:50Z</time></trkpt>
   <trkpt lat="31.199566" lon="35.298646"><ele>239.4</ele><name>TP05016</name><time>2020-01-27T12:46:52Z</time></trkpt>
   <trkpt lat="31.199569" lon="35.298634"><ele>239.5</ele><name>TP05017</name><time>2020-01-27T12:46:54Z</time></trkpt>
   <trkpt lat="31.19957" lon="35.298634"><ele>239.5</ele><name>TP05018</name><time>2020-01-27T12:46:56Z</time></trkpt>
   <trkpt lat="31.19957" lon="35.298634"><ele>239.5</ele><name>TP05019</name><time>2020-01-27T12:46:57Z</time></trkpt>
   <trkpt lat="31.199569" lon="35.298634"><ele>239.5</ele><name>TP05020</name><time>2020-01-27T12:46:59Z</time></trkpt>
   <trkpt lat="31.199569" lon="35.298634"><ele>239.5</ele><name>TP05021</name><time>2020-01-27T12:47:00Z</time></trkpt>
   <trkpt lat="31.199569" lon="35.298634"><ele>239.5</ele><name>TP05022</name><time>2020-01-27T12:47:02Z</time></trkpt>
   <trkpt lat="31.199569" lon="35.298634"><ele>239.5</ele><name>TP05023</name><time>2020-01-27T12:47:03Z</time></trkpt>
   <trkpt lat="31.199568" lon="35.298634"><ele>239.5</ele><name>TP05024</name><time>2020-01-27T12:47:04Z</time></trkpt>
   <trkpt lat="31.199568" lon="35.298634"><ele>239.5</ele><name>TP05025</name><time>2020-01-27T12:47:06Z</time></trkpt>
   <trkpt lat="31.199567" lon="35.298632"><ele>239.5</ele><name>TP05026</name><time>2020-01-27T12:47:08Z</time></trkpt>
   <trkpt lat="31.19957" lon="35.298634"><ele>239.6</ele><name>TP05027</name><time>2020-01-27T12:47:10Z</time></trkpt>
   <trkpt lat="31.199571" lon="35.298634"><ele>239.6</ele><name>TP05028</name><time>2020-01-27T12:47:11Z</time></trkpt>
   <trkpt lat="31.199568" lon="35.298632"><ele>239.6</ele><name>TP05029</name><time>2020-01-27T12:47:13Z</time></trkpt>
   <trkpt lat="31.199569" lon="35.298633"><ele>239.6</ele><name>TP05030</name><time>2020-01-27T12:47:14Z</time></trkpt>
   <trkpt lat="31.199569" lon="35.298634"><ele>239.7</ele><name>TP05031</name><time>2020-01-27T12:47:15Z</time></trkpt>
   <trkpt lat="31.199569" lon="35.298634"><ele>239.7</ele><name>TP05032</name><time>2020-01-27T12:47:17Z</time></trkpt>
   <trkpt lat="31.199569" lon="35.298634"><ele>239.7</ele><name>TP05033</name><time>2020-01-27T12:47:19Z</time></trkpt>
   <trkpt lat="31.199569" lon="35.298634"><ele>239.7</ele><name>TP05034</name><time>2020-01-27T12:47:21Z</time></trkpt>
   <trkpt lat="31.199569" lon="35.298634"><ele>239.7</ele><name>TP05035</name><time>2020-01-27T12:47:22Z</time></trkpt>
   <trkpt lat="31.19957" lon="35.298633"><ele>239.7</ele><name>TP05036</name><time>2020-01-27T12:47:24Z</time></trkpt>
   <trkpt lat="31.19957" lon="35.298633"><ele>239.7</ele><name>TP05037</name><time>2020-01-27T12:47:25Z</time></trkpt>
   <trkpt lat="31.19957" lon="35.298633"><ele>239.7</ele><name>TP05038</name><time>2020-01-27T12:47:27Z</time></trkpt>
   <trkpt lat="31.19957" lon="35.298633"><ele>239.7</ele><name>TP05039</name><time>2020-01-27T12:47:29Z</time></trkpt>
   <trkpt lat="31.199569" lon="35.298633"><ele>239.7</ele><name>TP05040</name><time>2020-01-27T12:47:31Z</time></trkpt>
   <trkpt lat="31.199569" lon="35.298633"><ele>239.7</ele><name>TP05041</name><time>2020-01-27T12:47:33Z</time></trkpt>
   <trkpt lat="31.199569" lon="35.298633"><ele>239.7</ele><name>TP05042</name><time>2020-01-27T12:47:36Z</time></trkpt>
   <trkpt lat="31.199569" lon="35.298634"><ele>239.7</ele><name>TP05043</name><time>2020-01-27T12:47:37Z</time></trkpt>
   <trkpt lat="31.199569" lon="35.298636"><ele>239.7</ele><name>TP05044</name><time>2020-01-27T12:47:39Z</time></trkpt>
   <trkpt lat="31.199571" lon="35.298636"><ele>239.7</ele><name>TP05045</name><time>2020-01-27T12:47:41Z</time></trkpt>
   <trkpt lat="31.199571" lon="35.298636"><ele>239.7</ele><name>TP05046</name><time>2020-01-27T12:47:42Z</time></trkpt>
   <trkpt lat="31.19957" lon="35.298636"><ele>239.7</ele><name>TP05047</name><time>2020-01-27T12:47:44Z</time></trkpt>
   <trkpt lat="31.19957" lon="35.298636"><ele>239.7</ele><name>TP05048</name><time>2020-01-27T12:47:45Z</time></trkpt>
   <trkpt lat="31.199569" lon="35.298636"><ele>239.8</ele><name>TP05049</name><time>2020-01-27T12:47:47Z</time></trkpt>
   <trkpt lat="31.19957" lon="35.298636"><ele>239.8</ele><name>TP05050</name><time>2020-01-27T12:47:49Z</time></trkpt>
   <trkpt lat="31.199569" lon="35.298637"><ele>239.8</ele><name>TP05051</name><time>2020-01-27T12:47:51Z</time></trkpt>
   <trkpt lat="31.199569" lon="35.298638"><ele>239.8</ele><name>TP05052</name><time>2020-01-27T12:47:53Z</time></trkpt>
   <trkpt lat="31.19957" lon="35.298642"><ele>239.8</ele><name>TP05053</name><time>2020-01-27T12:47:56Z</time></trkpt>
   <trkpt lat="31.199569" lon="35.298642"><ele>239.9</ele><name>TP05054</name><time>2020-01-27T12:47:57Z</time></trkpt>
   <trkpt lat="31.199569" lon="35.298644"><ele>239.9</ele><name>TP05055</name><time>2020-01-27T12:47:59Z</time></trkpt>
   <trkpt lat="31.199569" lon="35.298645"><ele>239.9</ele><name>TP05056</name><time>2020-01-27T12:48:01Z</time></trkpt>
   <trkpt lat="31.199569" lon="35.298645"><ele>239.9</ele><name>TP05057</name><time>2020-01-27T12:48:03Z</time></trkpt>
   <trkpt lat="31.199568" lon="35.298644"><ele>239.9</ele><name>TP05058</name><time>2020-01-27T12:48:04Z</time></trkpt>
   <trkpt lat="31.199567" lon="35.298644"><ele>239.9</ele><name>TP05059</name><time>2020-01-27T12:48:05Z</time></trkpt>
   <trkpt lat="31.199567" lon="35.298646"><ele>239.9</ele><name>TP05060</name><time>2020-01-27T12:48:06Z</time></trkpt>
   <trkpt lat="31.199567" lon="35.298669"><ele>240.1</ele><name>TP05061</name><time>2020-01-27T12:48:08Z</time></trkpt>
   <trkpt lat="31.199574" lon="35.29869"><ele>240.3</ele><name>TP05062</name><time>2020-01-27T12:48:09Z</time></trkpt>
   <trkpt lat="31.199597" lon="35.298747"><ele>240.8</ele><name>TP05063</name><time>2020-01-27T12:48:11Z</time></trkpt>
   <trkpt lat="31.199622" lon="35.298821"><ele>241.9</ele><name>TP05064</name><time>2020-01-27T12:48:13Z</time></trkpt>
   <trkpt lat="31.199637" lon="35.298857"><ele>242.3</ele><name>TP05065</name><time>2020-01-27T12:48:16Z</time></trkpt>
   <trkpt lat="31.199648" lon="35.298905"><ele>242.8</ele><name>TP05066</name><time>2020-01-27T12:48:17Z</time></trkpt>
   <trkpt lat="31.19967" lon="35.299002"><ele>243.3</ele><name>TP05067</name><time>2020-01-27T12:48:18Z</time></trkpt>
   <trkpt lat="31.199687" lon="35.299069"><ele>243.5</ele><name>TP05068</name><time>2020-01-27T12:48:21Z</time></trkpt>
   <trkpt lat="31.199705" lon="35.299174"><ele>244</ele><name>TP05069</name><time>2020-01-27T12:48:22Z</time></trkpt>
   <trkpt lat="31.19971" lon="35.299195"><ele>244.2</ele><name>TP05070</name><time>2020-01-27T12:48:23Z</time></trkpt>
   <trkpt lat="31.199707" lon="35.299185"><ele>244.2</ele><name>TP05071</name><time>2020-01-27T12:48:25Z</time></trkpt>
   <trkpt lat="31.19971" lon="35.299193"><ele>244.3</ele><name>TP05072</name><time>2020-01-27T12:48:26Z</time></trkpt>
   <trkpt lat="31.199714" lon="35.299204"><ele>244.3</ele><name>TP05073</name><time>2020-01-27T12:48:28Z</time></trkpt>
   <trkpt lat="31.199715" lon="35.299214"><ele>244.4</ele><name>TP05074</name><time>2020-01-27T12:48:31Z</time></trkpt>
   <trkpt lat="31.19973" lon="35.29926"><ele>244.4</ele><name>TP05075</name><time>2020-01-27T12:48:32Z</time></trkpt>
   <trkpt lat="31.199732" lon="35.299272"><ele>244.3</ele><name>TP05076</name><time>2020-01-27T12:48:33Z</time></trkpt>
   <trkpt lat="31.199734" lon="35.299282"><ele>244.3</ele><name>TP05077</name><time>2020-01-27T12:48:34Z</time></trkpt>
   <trkpt lat="31.199737" lon="35.299289"><ele>244.3</ele><name>TP05078</name><time>2020-01-27T12:48:35Z</time></trkpt>
   <trkpt lat="31.199739" lon="35.299298"><ele>244.3</ele><name>TP05079</name><time>2020-01-27T12:48:38Z</time></trkpt>
   <trkpt lat="31.199748" lon="35.299334"><ele>244.1</ele><name>TP05080</name><time>2020-01-27T12:48:39Z</time></trkpt>
   <trkpt lat="31.199752" lon="35.2994"><ele>243.3</ele><name>TP05081</name><time>2020-01-27T12:48:42Z</time></trkpt>
   <trkpt lat="31.199751" lon="35.299436"><ele>242.8</ele><name>TP05082</name><time>2020-01-27T12:48:43Z</time></trkpt>
   <trkpt lat="31.199751" lon="35.299509"><ele>241.8</ele><name>TP05083</name><time>2020-01-27T12:48:46Z</time></trkpt>
   <trkpt lat="31.19975" lon="35.299533"><ele>241.4</ele><name>TP05084</name><time>2020-01-27T12:48:47Z</time></trkpt>
   <trkpt lat="31.199733" lon="35.299595"><ele>240.2</ele><name>TP05085</name><time>2020-01-27T12:48:50Z</time></trkpt>
   <trkpt lat="31.19972" lon="35.29962"><ele>239.6</ele><name>TP05086</name><time>2020-01-27T12:48:51Z</time></trkpt>
   <trkpt lat="31.199715" lon="35.299671"><ele>238.8</ele><name>TP05087</name><time>2020-01-27T12:48:53Z</time></trkpt>
   <trkpt lat="31.199703" lon="35.299753"><ele>238</ele><name>TP05088</name><time>2020-01-27T12:48:56Z</time></trkpt>
   <trkpt lat="31.199673" lon="35.299942"><ele>235.2</ele><name>TP05089</name><time>2020-01-27T12:48:57Z</time></trkpt>
   <trkpt lat="31.199669" lon="35.300061"><ele>233.3</ele><name>TP05090</name><time>2020-01-27T12:49:00Z</time></trkpt>
   <trkpt lat="31.199663" lon="35.300168"><ele>231.7</ele><name>TP05091</name><time>2020-01-27T12:49:03Z</time></trkpt>
   <trkpt lat="31.199656" lon="35.300224"><ele>231.4</ele><name>TP05092</name><time>2020-01-27T12:49:04Z</time></trkpt>
   <trkpt lat="31.199616" lon="35.3004"><ele>231</ele><name>TP05093</name><time>2020-01-27T12:49:06Z</time></trkpt>
   <trkpt lat="31.199595" lon="35.300475"><ele>230.7</ele><name>TP05094</name><time>2020-01-27T12:49:07Z</time></trkpt>
   <trkpt lat="31.199615" lon="35.300559"><ele>230</ele><name>TP05095</name><time>2020-01-27T12:49:09Z</time></trkpt>
   <trkpt lat="31.199645" lon="35.300627"><ele>229.2</ele><name>TP05096</name><time>2020-01-27T12:49:10Z</time></trkpt>
   <trkpt lat="31.19969" lon="35.30081"><ele>227.5</ele><name>TP05097</name><time>2020-01-27T12:49:12Z</time></trkpt>
   <trkpt lat="31.199672" lon="35.300902"><ele>226.4</ele><name>TP05098</name><time>2020-01-27T12:49:13Z</time></trkpt>
   <trkpt lat="31.199638" lon="35.301066"><ele>224.1</ele><name>TP05099</name><time>2020-01-27T12:49:15Z</time></trkpt>
   <trkpt lat="31.199633" lon="35.301142"><ele>223.1</ele><name>TP05100</name><time>2020-01-27T12:49:16Z</time></trkpt>
   <trkpt lat="31.199634" lon="35.301223"><ele>222.2</ele><name>TP05101</name><time>2020-01-27T12:49:17Z</time></trkpt>
   <trkpt lat="31.19966" lon="35.301362"><ele>220.9</ele><name>TP05102</name><time>2020-01-27T12:49:19Z</time></trkpt>
   <trkpt lat="31.199685" lon="35.301401"><ele>220.6</ele><name>TP05103</name><time>2020-01-27T12:49:20Z</time></trkpt>
   <trkpt lat="31.199706" lon="35.301455"><ele>220.1</ele><name>TP05104</name><time>2020-01-27T12:49:22Z</time></trkpt>
   <trkpt lat="31.199714" lon="35.301517"><ele>219.5</ele><name>TP05105</name><time>2020-01-27T12:49:23Z</time></trkpt>
   <trkpt lat="31.199691" lon="35.301632"><ele>218.4</ele><name>TP05106</name><time>2020-01-27T12:49:25Z</time></trkpt>
   <trkpt lat="31.199669" lon="35.301666"><ele>218.1</ele><name>TP05107</name><time>2020-01-27T12:49:26Z</time></trkpt>
   <trkpt lat="31.199634" lon="35.301686"><ele>217.9</ele><name>TP05108</name><time>2020-01-27T12:49:27Z</time></trkpt>
   <trkpt lat="31.199549" lon="35.30188"><ele>216.3</ele><name>TP05109</name><time>2020-01-27T12:49:29Z</time></trkpt>
   <trkpt lat="31.199519" lon="35.302019"><ele>216</ele><name>TP05110</name><time>2020-01-27T12:49:31Z</time></trkpt>
   <trkpt lat="31.199506" lon="35.30217"><ele>216</ele><name>TP05111</name><time>2020-01-27T12:49:33Z</time></trkpt>
   <trkpt lat="31.19953" lon="35.302243"><ele>215.9</ele><name>TP05112</name><time>2020-01-27T12:49:35Z</time></trkpt>
   <trkpt lat="31.199547" lon="35.30227"><ele>215.9</ele><name>TP05113</name><time>2020-01-27T12:49:37Z</time></trkpt>
   <trkpt lat="31.199553" lon="35.30229"><ele>215.9</ele><name>TP05114</name><time>2020-01-27T12:49:39Z</time></trkpt>
   <trkpt lat="31.199555" lon="35.302296"><ele>215.9</ele><name>TP05115</name><time>2020-01-27T12:49:40Z</time></trkpt>
   <trkpt lat="31.199558" lon="35.302301"><ele>215.9</ele><name>TP05116</name><time>2020-01-27T12:49:41Z</time></trkpt>
   <trkpt lat="31.199559" lon="35.302309"><ele>215.9</ele><name>TP05117</name><time>2020-01-27T12:49:43Z</time></trkpt>
   <trkpt lat="31.199541" lon="35.302267"><ele>215.9</ele><name>TP05118</name><time>2020-01-27T12:49:44Z</time></trkpt>
   <trkpt lat="31.199547" lon="35.302252"><ele>215.9</ele><name>TP05119</name><time>2020-01-27T12:49:45Z</time></trkpt>
   <trkpt lat="31.199549" lon="35.302253"><ele>215.9</ele><name>TP05120</name><time>2020-01-27T12:49:46Z</time></trkpt>
   <trkpt lat="31.199551" lon="35.302255"><ele>215.9</ele><name>TP05121</name><time>2020-01-27T12:49:48Z</time></trkpt>
   <trkpt lat="31.199553" lon="35.302257"><ele>215.9</ele><name>TP05122</name><time>2020-01-27T12:49:49Z</time></trkpt>
   <trkpt lat="31.199556" lon="35.302258"><ele>215.9</ele><name>TP05123</name><time>2020-01-27T12:49:50Z</time></trkpt>
   <trkpt lat="31.199558" lon="35.30226"><ele>215.9</ele><name>TP05124</name><time>2020-01-27T12:49:52Z</time></trkpt>
   <trkpt lat="31.19956" lon="35.302262"><ele>215.9</ele><name>TP05125</name><time>2020-01-27T12:49:54Z</time></trkpt>
   <trkpt lat="31.199562" lon="35.302263"><ele>215.9</ele><name>TP05126</name><time>2020-01-27T12:49:55Z</time></trkpt>
   <trkpt lat="31.199564" lon="35.302265"><ele>215.9</ele><name>TP05127</name><time>2020-01-27T12:49:56Z</time></trkpt>
   <trkpt lat="31.199566" lon="35.302267"><ele>216</ele><name>TP05128</name><time>2020-01-27T12:49:58Z</time></trkpt>
   <trkpt lat="31.199568" lon="35.302269"><ele>216</ele><name>TP05129</name><time>2020-01-27T12:49:59Z</time></trkpt>
   <trkpt lat="31.19957" lon="35.30227"><ele>216</ele><name>TP05130</name><time>2020-01-27T12:50:01Z</time></trkpt>
   <trkpt lat="31.199572" lon="35.302272"><ele>216</ele><name>TP05131</name><time>2020-01-27T12:50:03Z</time></trkpt>
   <trkpt lat="31.199574" lon="35.302274"><ele>216</ele><name>TP05132</name><time>2020-01-27T12:50:05Z</time></trkpt>
   <trkpt lat="31.199577" lon="35.302275"><ele>216</ele><name>TP05133</name><time>2020-01-27T12:50:06Z</time></trkpt>
   <trkpt lat="31.199579" lon="35.302277"><ele>216</ele><name>TP05134</name><time>2020-01-27T12:50:08Z</time></trkpt>
   <trkpt lat="31.199581" lon="35.302279"><ele>216</ele><name>TP05135</name><time>2020-01-27T12:50:09Z</time></trkpt>
   <trkpt lat="31.199583" lon="35.30228"><ele>216</ele><name>TP05136</name><time>2020-01-27T12:50:11Z</time></trkpt>
   <trkpt lat="31.199585" lon="35.302282"><ele>216</ele><name>TP05137</name><time>2020-01-27T12:50:12Z</time></trkpt>
   <trkpt lat="31.19962" lon="35.30233"><ele>216.1</ele><name>TP05138</name><time>2020-01-27T12:50:14Z</time></trkpt>
   <trkpt lat="31.199654" lon="35.302377"><ele>216.1</ele><name>TP05139</name><time>2020-01-27T12:50:16Z</time></trkpt>
   <trkpt lat="31.199687" lon="35.302431"><ele>215.7</ele><name>TP05140</name><time>2020-01-27T12:50:18Z</time></trkpt>
   <trkpt lat="31.199704" lon="35.302482"><ele>215.3</ele><name>TP05141</name><time>2020-01-27T12:50:21Z</time></trkpt>
   <trkpt lat="31.199724" lon="35.302534"><ele>214.8</ele><name>TP05142</name><time>2020-01-27T12:50:22Z</time></trkpt>
   <trkpt lat="31.199741" lon="35.302576"><ele>214.4</ele><name>TP05143</name><time>2020-01-27T12:50:23Z</time></trkpt>
   <trkpt lat="31.199759" lon="35.302612"><ele>214.1</ele><name>TP05144</name><time>2020-01-27T12:50:24Z</time></trkpt>
   <trkpt lat="31.199772" lon="35.302661"><ele>213.8</ele><name>TP05145</name><time>2020-01-27T12:50:25Z</time></trkpt>
   <trkpt lat="31.199787" lon="35.302734"><ele>213.3</ele><name>TP05146</name><time>2020-01-27T12:50:27Z</time></trkpt>
   <trkpt lat="31.199813" lon="35.302778"><ele>212.8</ele><name>TP05147</name><time>2020-01-27T12:50:28Z</time></trkpt>
   <trkpt lat="31.199861" lon="35.302789"><ele>212.3</ele><name>TP05148</name><time>2020-01-27T12:50:29Z</time></trkpt>
   <trkpt lat="31.199914" lon="35.302842"><ele>210.7</ele><name>TP05149</name><time>2020-01-27T12:50:30Z</time></trkpt>
   <trkpt lat="31.199952" lon="35.302908"><ele>209.4</ele><name>TP05150</name><time>2020-01-27T12:50:33Z</time></trkpt>
   <trkpt lat="31.199978" lon="35.302959"><ele>208.7</ele><name>TP05151</name><time>2020-01-27T12:50:34Z</time></trkpt>
   <trkpt lat="31.199994" lon="35.303003"><ele>208.4</ele><name>TP05152</name><time>2020-01-27T12:50:35Z</time></trkpt>
   <trkpt lat="31.199969" lon="35.303138"><ele>207.8</ele><name>TP05153</name><time>2020-01-27T12:50:37Z</time></trkpt>
   <trkpt lat="31.19995" lon="35.303203"><ele>207.4</ele><name>TP05154</name><time>2020-01-27T12:50:40Z</time></trkpt>
   <trkpt lat="31.19994" lon="35.303295"><ele>206.9</ele><name>TP05155</name><time>2020-01-27T12:50:41Z</time></trkpt>
   <trkpt lat="31.199939" lon="35.303309"><ele>206.9</ele><name>TP05156</name><time>2020-01-27T12:50:42Z</time></trkpt>
   <trkpt lat="31.199939" lon="35.303319"><ele>206.9</ele><name>TP05157</name><time>2020-01-27T12:50:43Z</time></trkpt>
   <trkpt lat="31.199939" lon="35.303332"><ele>206.9</ele><name>TP05158</name><time>2020-01-27T12:50:45Z</time></trkpt>
   <trkpt lat="31.199941" lon="35.303341"><ele>206.9</ele><name>TP05159</name><time>2020-01-27T12:50:47Z</time></trkpt>
   <trkpt lat="31.199944" lon="35.303347"><ele>206.9</ele><name>TP05160</name><time>2020-01-27T12:50:49Z</time></trkpt>
   <trkpt lat="31.199954" lon="35.303369"><ele>206.8</ele><name>TP05161</name><time>2020-01-27T12:50:52Z</time></trkpt>
   <trkpt lat="31.199953" lon="35.303368"><ele>206.8</ele><name>TP05162</name><time>2020-01-27T12:50:53Z</time></trkpt>
   <trkpt lat="31.199945" lon="35.30336"><ele>206.9</ele><name>TP05163</name><time>2020-01-27T12:50:55Z</time></trkpt>
   <trkpt lat="31.199941" lon="35.303298"><ele>207.2</ele><name>TP05164</name><time>2020-01-27T12:50:57Z</time></trkpt>
   <trkpt lat="31.19994" lon="35.303284"><ele>207.2</ele><name>TP05165</name><time>2020-01-27T12:50:59Z</time></trkpt>
   <trkpt lat="31.19994" lon="35.303283"><ele>207.2</ele><name>TP05166</name><time>2020-01-27T12:51:01Z</time></trkpt>
   <trkpt lat="31.19994" lon="35.303283"><ele>207.2</ele><name>TP05167</name><time>2020-01-27T12:51:03Z</time></trkpt>
   <trkpt lat="31.19994" lon="35.303282"><ele>207.2</ele><name>TP05168</name><time>2020-01-27T12:51:05Z</time></trkpt>
   <trkpt lat="31.19994" lon="35.303282"><ele>207.2</ele><name>TP05169</name><time>2020-01-27T12:51:07Z</time></trkpt>
   <trkpt lat="31.199937" lon="35.30332"><ele>207.3</ele><name>TP05170</name><time>2020-01-27T12:51:09Z</time></trkpt>
   <trkpt lat="31.199936" lon="35.303333"><ele>207.4</ele><name>TP05171</name><time>2020-01-27T12:51:11Z</time></trkpt>
   <trkpt lat="31.199936" lon="35.303337"><ele>207.4</ele><name>TP05172</name><time>2020-01-27T12:51:12Z</time></trkpt>
   <trkpt lat="31.199936" lon="35.303337"><ele>207.4</ele><name>TP05173</name><time>2020-01-27T12:51:15Z</time></trkpt>
   <trkpt lat="31.199935" lon="35.303335"><ele>207.4</ele><name>TP05174</name><time>2020-01-27T12:51:17Z</time></trkpt>
   <trkpt lat="31.199933" lon="35.303333"><ele>207.4</ele><name>TP05175</name><time>2020-01-27T12:51:18Z</time></trkpt>
   <trkpt lat="31.199934" lon="35.303335"><ele>207.4</ele><name>TP05176</name><time>2020-01-27T12:51:20Z</time></trkpt>
   <trkpt lat="31.199948" lon="35.303399"><ele>208</ele><name>TP05177</name><time>2020-01-27T12:51:22Z</time></trkpt>
   <trkpt lat="31.199948" lon="35.303399"><ele>208</ele><name>TP05178</name><time>2020-01-27T12:51:25Z</time></trkpt>
   <trkpt lat="31.199948" lon="35.303399"><ele>208</ele><name>TP05179</name><time>2020-01-27T12:51:27Z</time></trkpt>
   <trkpt lat="31.199948" lon="35.303399"><ele>208</ele><name>TP05180</name><time>2020-01-27T12:51:29Z</time></trkpt>
   <trkpt lat="31.199948" lon="35.303399"><ele>208</ele><name>TP05181</name><time>2020-01-27T12:51:31Z</time></trkpt>
   <trkpt lat="31.199948" lon="35.303399"><ele>208</ele><name>TP05182</name><time>2020-01-27T12:51:33Z</time></trkpt>
   <trkpt lat="31.199948" lon="35.303399"><ele>208</ele><name>TP05183</name><time>2020-01-27T12:51:35Z</time></trkpt>
   <trkpt lat="31.199948" lon="35.303399"><ele>208</ele><name>TP05184</name><time>2020-01-27T12:51:37Z</time></trkpt>
   <trkpt lat="31.199948" lon="35.303399"><ele>208</ele><name>TP05185</name><time>2020-01-27T12:51:39Z</time></trkpt>
   <trkpt lat="31.199948" lon="35.303399"><ele>208</ele><name>TP05186</name><time>2020-01-27T12:51:41Z</time></trkpt>
   <trkpt lat="31.199948" lon="35.303399"><ele>208</ele><name>TP05187</name><time>2020-01-27T12:51:43Z</time></trkpt>
   <trkpt lat="31.199948" lon="35.303399"><ele>208</ele><name>TP05188</name><time>2020-01-27T12:51:45Z</time></trkpt>
   <trkpt lat="31.199948" lon="35.303399"><ele>208</ele><name>TP05189</name><time>2020-01-27T12:51:47Z</time></trkpt>
   <trkpt lat="31.199948" lon="35.303399"><ele>208</ele><name>TP05190</name><time>2020-01-27T12:51:49Z</time></trkpt>
   <trkpt lat="31.199948" lon="35.303399"><ele>208</ele><name>TP05191</name><time>2020-01-27T12:51:51Z</time></trkpt>
   <trkpt lat="31.199948" lon="35.303399"><ele>208</ele><name>TP05192</name><time>2020-01-27T12:51:53Z</time></trkpt>
   <trkpt lat="31.199948" lon="35.303399"><ele>208</ele><name>TP05193</name><time>2020-01-27T12:51:54Z</time></trkpt>
   <trkpt lat="31.199948" lon="35.303399"><ele>208</ele><name>TP05194</name><time>2020-01-27T12:51:55Z</time></trkpt>
   <trkpt lat="31.199948" lon="35.303399"><ele>208</ele><name>TP05195</name><time>2020-01-27T12:51:57Z</time></trkpt>
   <trkpt lat="31.199948" lon="35.303399"><ele>208</ele><name>TP05196</name><time>2020-01-27T12:51:58Z</time></trkpt>
   <trkpt lat="31.199948" lon="35.303399"><ele>208</ele><name>TP05197</name><time>2020-01-27T12:51:59Z</time></trkpt>
   <trkpt lat="31.19998" lon="35.303427"><ele>208.1</ele><name>TP05198</name><time>2020-01-27T12:52:01Z</time></trkpt>
   <trkpt lat="31.200015" lon="35.30346"><ele>208.1</ele><name>TP05199</name><time>2020-01-27T12:52:04Z</time></trkpt>
   <trkpt lat="31.200039" lon="35.303492"><ele>207.9</ele><name>TP05200</name><time>2020-01-27T12:52:05Z</time></trkpt>
   <trkpt lat="31.200044" lon="35.303537"><ele>207.8</ele><name>TP05201</name><time>2020-01-27T12:52:06Z</time></trkpt>
   <trkpt lat="31.200017" lon="35.303579"><ele>207.6</ele><name>TP05202</name><time>2020-01-27T12:52:07Z</time></trkpt>
   <trkpt lat="31.19995" lon="35.303577"><ele>207.6</ele><name>TP05203</name><time>2020-01-27T12:52:09Z</time></trkpt>
   <trkpt lat="31.199887" lon="35.30359"><ele>207.6</ele><name>TP05204</name><time>2020-01-27T12:52:12Z</time></trkpt>
   <trkpt lat="31.199867" lon="35.303568"><ele>207.5</ele><name>TP05205</name><time>2020-01-27T12:52:14Z</time></trkpt>
   <trkpt lat="31.199843" lon="35.303555"><ele>207.4</ele><name>TP05206</name><time>2020-01-27T12:52:15Z</time></trkpt>
   <trkpt lat="31.199819" lon="35.303546"><ele>207.3</ele><name>TP05207</name><time>2020-01-27T12:52:17Z</time></trkpt>
   <trkpt lat="31.199783" lon="35.303543"><ele>207.3</ele><name>TP05208</name><time>2020-01-27T12:52:18Z</time></trkpt>
   <trkpt lat="31.199765" lon="35.303546"><ele>207.3</ele><name>TP05209</name><time>2020-01-27T12:52:19Z</time></trkpt>
   <trkpt lat="31.199756" lon="35.303552"><ele>207.4</ele><name>TP05210</name><time>2020-01-27T12:52:20Z</time></trkpt>
   <trkpt lat="31.199744" lon="35.303556"><ele>207.4</ele><name>TP05211</name><time>2020-01-27T12:52:22Z</time></trkpt>
   <trkpt lat="31.19974" lon="35.303558"><ele>207.4</ele><name>TP05212</name><time>2020-01-27T12:52:23Z</time></trkpt>
   <trkpt lat="31.199734" lon="35.303558"><ele>207.4</ele><name>TP05213</name><time>2020-01-27T12:52:25Z</time></trkpt>
   <trkpt lat="31.199732" lon="35.303557"><ele>207.4</ele><name>TP05214</name><time>2020-01-27T12:52:26Z</time></trkpt>
   <trkpt lat="31.199692" lon="35.303543"><ele>207.3</ele><name>TP05215</name><time>2020-01-27T12:52:29Z</time></trkpt>
   <trkpt lat="31.199651" lon="35.303536"><ele>207.1</ele><name>TP05216</name><time>2020-01-27T12:52:32Z</time></trkpt>
   <trkpt lat="31.199618" lon="35.303519"><ele>207.1</ele><name>TP05217</name><time>2020-01-27T12:52:33Z</time></trkpt>
   <trkpt lat="31.199575" lon="35.303499"><ele>207.1</ele><name>TP05218</name><time>2020-01-27T12:52:34Z</time></trkpt>
   <trkpt lat="31.199549" lon="35.303501"><ele>207.1</ele><name>TP05219</name><time>2020-01-27T12:52:37Z</time></trkpt>
   <trkpt lat="31.199522" lon="35.303507"><ele>207</ele><name>TP05220</name><time>2020-01-27T12:52:38Z</time></trkpt>
   <trkpt lat="31.199486" lon="35.303507"><ele>206.9</ele><name>TP05221</name><time>2020-01-27T12:52:39Z</time></trkpt>
   <trkpt lat="31.199465" lon="35.303487"><ele>206.8</ele><name>TP05222</name><time>2020-01-27T12:52:41Z</time></trkpt>
   <trkpt lat="31.199458" lon="35.30348"><ele>206.8</ele><name>TP05223</name><time>2020-01-27T12:52:42Z</time></trkpt>
   <trkpt lat="31.199444" lon="35.303472"><ele>206.7</ele><name>TP05224</name><time>2020-01-27T12:52:43Z</time></trkpt>
   <trkpt lat="31.199413" lon="35.303435"><ele>206.5</ele><name>TP05225</name><time>2020-01-27T12:52:45Z</time></trkpt>
   <trkpt lat="31.199399" lon="35.303418"><ele>206.4</ele><name>TP05226</name><time>2020-01-27T12:52:46Z</time></trkpt>
   <trkpt lat="31.199366" lon="35.303401"><ele>206.2</ele><name>TP05227</name><time>2020-01-27T12:52:49Z</time></trkpt>
   <trkpt lat="31.199355" lon="35.303401"><ele>206.1</ele><name>TP05228</name><time>2020-01-27T12:52:50Z</time></trkpt>
   <trkpt lat="31.19932" lon="35.303397"><ele>205.9</ele><name>TP05229</name><time>2020-01-27T12:52:51Z</time></trkpt>
   <trkpt lat="31.199309" lon="35.303403"><ele>205.8</ele><name>TP05230</name><time>2020-01-27T12:52:52Z</time></trkpt>
   <trkpt lat="31.199292" lon="35.303408"><ele>205.6</ele><name>TP05231</name><time>2020-01-27T12:52:54Z</time></trkpt>
   <trkpt lat="31.199286" lon="35.30341"><ele>205.6</ele><name>TP05232</name><time>2020-01-27T12:52:55Z</time></trkpt>
   <trkpt lat="31.199282" lon="35.303414"><ele>205.5</ele><name>TP05233</name><time>2020-01-27T12:52:56Z</time></trkpt>
   <trkpt lat="31.199278" lon="35.303416"><ele>205.5</ele><name>TP05234</name><time>2020-01-27T12:52:57Z</time></trkpt>
   <trkpt lat="31.199273" lon="35.30342"><ele>205.4</ele><name>TP05235</name><time>2020-01-27T12:52:59Z</time></trkpt>
   <trkpt lat="31.199271" lon="35.303421"><ele>205.4</ele><name>TP05236</name><time>2020-01-27T12:53:00Z</time></trkpt>
   <trkpt lat="31.199274" lon="35.303421"><ele>205.4</ele><name>TP05237</name><time>2020-01-27T12:53:02Z</time></trkpt>
   <trkpt lat="31.199271" lon="35.303422"><ele>205.4</ele><name>TP05238</name><time>2020-01-27T12:53:03Z</time></trkpt>
   <trkpt lat="31.19927" lon="35.303415"><ele>205.3</ele><name>TP05239</name><time>2020-01-27T12:53:06Z</time></trkpt>
   <trkpt lat="31.199271" lon="35.303406"><ele>205.2</ele><name>TP05240</name><time>2020-01-27T12:53:07Z</time></trkpt>
   <trkpt lat="31.19928" lon="35.303408"><ele>205.2</ele><name>TP05241</name><time>2020-01-27T12:53:08Z</time></trkpt>
   <trkpt lat="31.199277" lon="35.303414"><ele>205.1</ele><name>TP05242</name><time>2020-01-27T12:53:09Z</time></trkpt>
   <trkpt lat="31.199284" lon="35.303417"><ele>205</ele><name>TP05243</name><time>2020-01-27T12:53:11Z</time></trkpt>
   <trkpt lat="31.199276" lon="35.303444"><ele>204.7</ele><name>TP05244</name><time>2020-01-27T12:53:12Z</time></trkpt>
   <trkpt lat="31.199271" lon="35.303469"><ele>204.5</ele><name>TP05245</name><time>2020-01-27T12:53:15Z</time></trkpt>
   <trkpt lat="31.199271" lon="35.303482"><ele>204.4</ele><name>TP05246</name><time>2020-01-27T12:53:18Z</time></trkpt>
   <trkpt lat="31.199282" lon="35.303508"><ele>204.2</ele><name>TP05247</name><time>2020-01-27T12:53:19Z</time></trkpt>
   <trkpt lat="31.199287" lon="35.303513"><ele>204.1</ele><name>TP05248</name><time>2020-01-27T12:53:20Z</time></trkpt>
   <trkpt lat="31.199288" lon="35.303517"><ele>204.1</ele><name>TP05249</name><time>2020-01-27T12:53:23Z</time></trkpt>
   <trkpt lat="31.199285" lon="35.303546"><ele>203.9</ele><name>TP05250</name><time>2020-01-27T12:53:24Z</time></trkpt>
   <trkpt lat="31.199286" lon="35.303569"><ele>203.7</ele><name>TP05251</name><time>2020-01-27T12:53:26Z</time></trkpt>
   <trkpt lat="31.199273" lon="35.303602"><ele>203.5</ele><name>TP05252</name><time>2020-01-27T12:53:29Z</time></trkpt>
   <trkpt lat="31.199282" lon="35.303632"><ele>203.3</ele><name>TP05253</name><time>2020-01-27T12:53:32Z</time></trkpt>
   <trkpt lat="31.199285" lon="35.303643"><ele>203.2</ele><name>TP05254</name><time>2020-01-27T12:53:33Z</time></trkpt>
   <trkpt lat="31.199285" lon="35.303653"><ele>203.1</ele><name>TP05255</name><time>2020-01-27T12:53:34Z</time></trkpt>
   <trkpt lat="31.199282" lon="35.30367"><ele>203.1</ele><name>TP05256</name><time>2020-01-27T12:53:36Z</time></trkpt>
   <trkpt lat="31.199282" lon="35.303676"><ele>203.1</ele><name>TP05257</name><time>2020-01-27T12:53:37Z</time></trkpt>
   <trkpt lat="31.199284" lon="35.303688"><ele>203.1</ele><name>TP05258</name><time>2020-01-27T12:53:38Z</time></trkpt>
   <trkpt lat="31.199282" lon="35.303698"><ele>203.1</ele><name>TP05259</name><time>2020-01-27T12:53:41Z</time></trkpt>
   <trkpt lat="31.199277" lon="35.303751"><ele>203</ele><name>TP05260</name><time>2020-01-27T12:53:43Z</time></trkpt>
   <trkpt lat="31.199237" lon="35.303789"><ele>203.1</ele><name>TP05261</name><time>2020-01-27T12:53:46Z</time></trkpt>
   <trkpt lat="31.199209" lon="35.303811"><ele>203.2</ele><name>TP05262</name><time>2020-01-27T12:53:48Z</time></trkpt>
   <trkpt lat="31.199192" lon="35.303847"><ele>203.3</ele><name>TP05263</name><time>2020-01-27T12:53:49Z</time></trkpt>
   <trkpt lat="31.199192" lon="35.303853"><ele>203.3</ele><name>TP05264</name><time>2020-01-27T12:53:50Z</time></trkpt>
   <trkpt lat="31.199191" lon="35.30386"><ele>203.4</ele><name>TP05265</name><time>2020-01-27T12:53:52Z</time></trkpt>
   <trkpt lat="31.19919" lon="35.303864"><ele>203.4</ele><name>TP05266</name><time>2020-01-27T12:53:53Z</time></trkpt>
   <trkpt lat="31.199187" lon="35.303869"><ele>203.4</ele><name>TP05267</name><time>2020-01-27T12:53:55Z</time></trkpt>
   <trkpt lat="31.199184" lon="35.303873"><ele>203.4</ele><name>TP05268</name><time>2020-01-27T12:53:57Z</time></trkpt>
   <trkpt lat="31.199191" lon="35.303851"><ele>203.5</ele><name>TP05269</name><time>2020-01-27T12:53:59Z</time></trkpt>
   <trkpt lat="31.199194" lon="35.303905"><ele>203.7</ele><name>TP05270</name><time>2020-01-27T12:54:02Z</time></trkpt>
   <trkpt lat="31.199177" lon="35.303944"><ele>203.6</ele><name>TP05271</name><time>2020-01-27T12:54:05Z</time></trkpt>
   <trkpt lat="31.199159" lon="35.303968"><ele>203.5</ele><name>TP05272</name><time>2020-01-27T12:54:06Z</time></trkpt>
   <trkpt lat="31.199154" lon="35.304005"><ele>203.5</ele><name>TP05273</name><time>2020-01-27T12:54:07Z</time></trkpt>
   <trkpt lat="31.19914" lon="35.304033"><ele>203.4</ele><name>TP05274</name><time>2020-01-27T12:54:08Z</time></trkpt>
   <trkpt lat="31.199077" lon="35.30414"><ele>202.9</ele><name>TP05275</name><time>2020-01-27T12:54:10Z</time></trkpt>
   <trkpt lat="31.199066" lon="35.304182"><ele>202.5</ele><name>TP05276</name><time>2020-01-27T12:54:11Z</time></trkpt>
   <trkpt lat="31.199041" lon="35.304307"><ele>201</ele><name>TP05277</name><time>2020-01-27T12:54:13Z</time></trkpt>
   <trkpt lat="31.19902" lon="35.304374"><ele>200.1</ele><name>TP05278</name><time>2020-01-27T12:54:16Z</time></trkpt>
   <trkpt lat="31.199008" lon="35.304416"><ele>199.5</ele><name>TP05279</name><time>2020-01-27T12:54:17Z</time></trkpt>
   <trkpt lat="31.199001" lon="35.304433"><ele>199.2</ele><name>TP05280</name><time>2020-01-27T12:54:18Z</time></trkpt>
   <trkpt lat="31.198999" lon="35.304463"><ele>198.7</ele><name>TP05281</name><time>2020-01-27T12:54:21Z</time></trkpt>
   <trkpt lat="31.198997" lon="35.304507"><ele>197.9</ele><name>TP05282</name><time>2020-01-27T12:54:22Z</time></trkpt>
   <trkpt lat="31.198972" lon="35.30458"><ele>196.3</ele><name>TP05283</name><time>2020-01-27T12:54:23Z</time></trkpt>
   <trkpt lat="31.198925" lon="35.304664"><ele>195.1</ele><name>TP05284</name><time>2020-01-27T12:54:26Z</time></trkpt>
   <trkpt lat="31.198884" lon="35.304785"><ele>193.6</ele><name>TP05285</name><time>2020-01-27T12:54:29Z</time></trkpt>
   <trkpt lat="31.198875" lon="35.304824"><ele>193.2</ele><name>TP05286</name><time>2020-01-27T12:54:32Z</time></trkpt>
   <trkpt lat="31.198872" lon="35.304857"><ele>193</ele><name>TP05287</name><time>2020-01-27T12:54:33Z</time></trkpt>
   <trkpt lat="31.198875" lon="35.304895"><ele>193</ele><name>TP05288</name><time>2020-01-27T12:54:34Z</time></trkpt>
   <trkpt lat="31.198877" lon="35.304902"><ele>193</ele><name>TP05289</name><time>2020-01-27T12:54:35Z</time></trkpt>
   <trkpt lat="31.198885" lon="35.304954"><ele>193</ele><name>TP05290</name><time>2020-01-27T12:54:36Z</time></trkpt>
   <trkpt lat="31.198889" lon="35.304977"><ele>193</ele><name>TP05291</name><time>2020-01-27T12:54:37Z</time></trkpt>
   <trkpt lat="31.19889" lon="35.304988"><ele>193</ele><name>TP05292</name><time>2020-01-27T12:54:38Z</time></trkpt>
   <trkpt lat="31.198885" lon="35.305004"><ele>193.1</ele><name>TP05293</name><time>2020-01-27T12:54:40Z</time></trkpt>
   <trkpt lat="31.198878" lon="35.305008"><ele>193.1</ele><name>TP05294</name><time>2020-01-27T12:54:41Z</time></trkpt>
   <trkpt lat="31.198859" lon="35.304994"><ele>193.1</ele><name>TP05295</name><time>2020-01-27T12:54:44Z</time></trkpt>
   <trkpt lat="31.198857" lon="35.30499"><ele>193.1</ele><name>TP05296</name><time>2020-01-27T12:54:45Z</time></trkpt>
   <trkpt lat="31.198844" lon="35.304994"><ele>193.1</ele><name>TP05297</name><time>2020-01-27T12:54:47Z</time></trkpt>
   <trkpt lat="31.198834" lon="35.304997"><ele>193.1</ele><name>TP05298</name><time>2020-01-27T12:54:49Z</time></trkpt>
   <trkpt lat="31.198828" lon="35.304998"><ele>193.2</ele><name>TP05299</name><time>2020-01-27T12:54:51Z</time></trkpt>
   <trkpt lat="31.198826" lon="35.304996"><ele>193.2</ele><name>TP05300</name><time>2020-01-27T12:54:52Z</time></trkpt>
   <trkpt lat="31.198822" lon="35.304994"><ele>193.2</ele><name>TP05301</name><time>2020-01-27T12:54:54Z</time></trkpt>
   <trkpt lat="31.198821" lon="35.304994"><ele>193.2</ele><name>TP05302</name><time>2020-01-27T12:54:55Z</time></trkpt>
   <trkpt lat="31.19882" lon="35.304994"><ele>193.2</ele><name>TP05303</name><time>2020-01-27T12:54:56Z</time></trkpt>
   <trkpt lat="31.198818" lon="35.30499"><ele>193.2</ele><name>TP05304</name><time>2020-01-27T12:54:58Z</time></trkpt>
   <trkpt lat="31.198817" lon="35.304987"><ele>193.2</ele><name>TP05305</name><time>2020-01-27T12:54:59Z</time></trkpt>
   <trkpt lat="31.198816" lon="35.304985"><ele>193.2</ele><name>TP05306</name><time>2020-01-27T12:55:00Z</time></trkpt>
   <trkpt lat="31.198845" lon="35.304985"><ele>193.1</ele><name>TP05307</name><time>2020-01-27T12:55:02Z</time></trkpt>
   <trkpt lat="31.198848" lon="35.304985"><ele>193.1</ele><name>TP05308</name><time>2020-01-27T12:55:03Z</time></trkpt>
   <trkpt lat="31.198851" lon="35.304985"><ele>193.1</ele><name>TP05309</name><time>2020-01-27T12:55:05Z</time></trkpt>
   <trkpt lat="31.198851" lon="35.304985"><ele>193.1</ele><name>TP05310</name><time>2020-01-27T12:55:06Z</time></trkpt>
   <trkpt lat="31.198825" lon="35.304997"><ele>193</ele><name>TP05311</name><time>2020-01-27T12:55:08Z</time></trkpt>
   <trkpt lat="31.198782" lon="35.305021"><ele>192.8</ele><name>TP05312</name><time>2020-01-27T12:55:10Z</time></trkpt>
   <trkpt lat="31.198762" lon="35.305033"><ele>192.7</ele><name>TP05313</name><time>2020-01-27T12:55:11Z</time></trkpt>
   <trkpt lat="31.19872" lon="35.305077"><ele>192.5</ele><name>TP05314</name><time>2020-01-27T12:55:14Z</time></trkpt>
   <trkpt lat="31.198701" lon="35.305091"><ele>192.6</ele><name>TP05315</name><time>2020-01-27T12:55:15Z</time></trkpt>
   <trkpt lat="31.198649" lon="35.305116"><ele>192.7</ele><name>TP05316</name><time>2020-01-27T12:55:18Z</time></trkpt>
   <trkpt lat="31.198631" lon="35.305123"><ele>192.7</ele><name>TP05317</name><time>2020-01-27T12:55:19Z</time></trkpt>
   <trkpt lat="31.19862" lon="35.305125"><ele>192.8</ele><name>TP05318</name><time>2020-01-27T12:55:20Z</time></trkpt>
   <trkpt lat="31.198602" lon="35.305144"><ele>192.8</ele><name>TP05319</name><time>2020-01-27T12:55:23Z</time></trkpt>
   <trkpt lat="31.19859" lon="35.305176"><ele>192.9</ele><name>TP05320</name><time>2020-01-27T12:55:25Z</time></trkpt>
   <trkpt lat="31.198589" lon="35.305181"><ele>192.9</ele><name>TP05321</name><time>2020-01-27T12:55:26Z</time></trkpt>
   <trkpt lat="31.198588" lon="35.305191"><ele>192.9</ele><name>TP05322</name><time>2020-01-27T12:55:28Z</time></trkpt>
   <trkpt lat="31.198587" lon="35.305194"><ele>192.9</ele><name>TP05323</name><time>2020-01-27T12:55:29Z</time></trkpt>
   <trkpt lat="31.198587" lon="35.305198"><ele>192.9</ele><name>TP05324</name><time>2020-01-27T12:55:31Z</time></trkpt>
   <trkpt lat="31.198585" lon="35.3052"><ele>192.9</ele><name>TP05325</name><time>2020-01-27T12:55:33Z</time></trkpt>
   <trkpt lat="31.198584" lon="35.305201"><ele>192.9</ele><name>TP05326</name><time>2020-01-27T12:55:35Z</time></trkpt>
   <trkpt lat="31.198587" lon="35.3052"><ele>192.9</ele><name>TP05327</name><time>2020-01-27T12:55:38Z</time></trkpt>
   <trkpt lat="31.198583" lon="35.305205"><ele>192.9</ele><name>TP05328</name><time>2020-01-27T12:55:40Z</time></trkpt>
   <trkpt lat="31.198576" lon="35.305211"><ele>192.8</ele><name>TP05329</name><time>2020-01-27T12:55:43Z</time></trkpt>
   <trkpt lat="31.198565" lon="35.305226"><ele>192.8</ele><name>TP05330</name><time>2020-01-27T12:55:44Z</time></trkpt>
   <trkpt lat="31.198561" lon="35.305231"><ele>192.8</ele><name>TP05331</name><time>2020-01-27T12:55:47Z</time></trkpt>
   <trkpt lat="31.198553" lon="35.305246"><ele>192.7</ele><name>TP05332</name><time>2020-01-27T12:55:48Z</time></trkpt>
   <trkpt lat="31.198546" lon="35.305253"><ele>192.7</ele><name>TP05333</name><time>2020-01-27T12:55:51Z</time></trkpt>
   <trkpt lat="31.198533" lon="35.305267"><ele>192.6</ele><name>TP05334</name><time>2020-01-27T12:55:52Z</time></trkpt>
   <trkpt lat="31.198525" lon="35.305274"><ele>192.5</ele><name>TP05335</name><time>2020-01-27T12:55:54Z</time></trkpt>
   <trkpt lat="31.198518" lon="35.305277"><ele>192.5</ele><name>TP05336</name><time>2020-01-27T12:55:56Z</time></trkpt>
   <trkpt lat="31.198518" lon="35.305281"><ele>192.5</ele><name>TP05337</name><time>2020-01-27T12:55:57Z</time></trkpt>
   <trkpt lat="31.198516" lon="35.305284"><ele>192.5</ele><name>TP05338</name><time>2020-01-27T12:55:59Z</time></trkpt>
   <trkpt lat="31.198504" lon="35.305298"><ele>192.4</ele><name>TP05339</name><time>2020-01-27T12:56:02Z</time></trkpt>
   <trkpt lat="31.198493" lon="35.305339"><ele>192.1</ele><name>TP05340</name><time>2020-01-27T12:56:05Z</time></trkpt>
   <trkpt lat="31.198475" lon="35.305384"><ele>191.8</ele><name>TP05341</name><time>2020-01-27T12:56:06Z</time></trkpt>
   <trkpt lat="31.198457" lon="35.305435"><ele>191.5</ele><name>TP05342</name><time>2020-01-27T12:56:08Z</time></trkpt>
   <trkpt lat="31.198439" lon="35.305451"><ele>191.4</ele><name>TP05343</name><time>2020-01-27T12:56:09Z</time></trkpt>
   <trkpt lat="31.198408" lon="35.305461"><ele>191.2</ele><name>TP05344</name><time>2020-01-27T12:56:12Z</time></trkpt>
   <trkpt lat="31.19836" lon="35.30547"><ele>190.9</ele><name>TP05345</name><time>2020-01-27T12:56:13Z</time></trkpt>
   <trkpt lat="31.198337" lon="35.305471"><ele>190.7</ele><name>TP05346</name><time>2020-01-27T12:56:14Z</time></trkpt>
   <trkpt lat="31.198249" lon="35.305479"><ele>190</ele><name>TP05347</name><time>2020-01-27T12:56:17Z</time></trkpt>
   <trkpt lat="31.198221" lon="35.305488"><ele>189.8</ele><name>TP05348</name><time>2020-01-27T12:56:18Z</time></trkpt>
   <trkpt lat="31.198191" lon="35.305493"><ele>189.6</ele><name>TP05349</name><time>2020-01-27T12:56:19Z</time></trkpt>
   <trkpt lat="31.198132" lon="35.305503"><ele>188.9</ele><name>TP05350</name><time>2020-01-27T12:56:22Z</time></trkpt>
   <trkpt lat="31.198089" lon="35.305496"><ele>188.7</ele><name>TP05351</name><time>2020-01-27T12:56:24Z</time></trkpt>
   <trkpt lat="31.198003" lon="35.305492"><ele>188.5</ele><name>TP05352</name><time>2020-01-27T12:56:25Z</time></trkpt>
   <trkpt lat="31.197964" lon="35.305509"><ele>188.6</ele><name>TP05353</name><time>2020-01-27T12:56:27Z</time></trkpt>
   <trkpt lat="31.197934" lon="35.305528"><ele>188.7</ele><name>TP05354</name><time>2020-01-27T12:56:29Z</time></trkpt>
   <trkpt lat="31.197907" lon="35.305531"><ele>188.8</ele><name>TP05355</name><time>2020-01-27T12:56:30Z</time></trkpt>
   <trkpt lat="31.197879" lon="35.305555"><ele>188.8</ele><name>TP05356</name><time>2020-01-27T12:56:32Z</time></trkpt>
   <trkpt lat="31.197865" lon="35.305558"><ele>188.8</ele><name>TP05357</name><time>2020-01-27T12:56:33Z</time></trkpt>
   <trkpt lat="31.197841" lon="35.305584"><ele>188.7</ele><name>TP05358</name><time>2020-01-27T12:56:34Z</time></trkpt>
   <trkpt lat="31.19782" lon="35.305596"><ele>188.6</ele><name>TP05359</name><time>2020-01-27T12:56:35Z</time></trkpt>
   <trkpt lat="31.197772" lon="35.305621"><ele>188.3</ele><name>TP05360</name><time>2020-01-27T12:56:37Z</time></trkpt>
   <trkpt lat="31.197729" lon="35.305643"><ele>187.7</ele><name>TP05361</name><time>2020-01-27T12:56:40Z</time></trkpt>
   <trkpt lat="31.197711" lon="35.30566"><ele>187.6</ele><name>TP05362</name><time>2020-01-27T12:56:41Z</time></trkpt>
   <trkpt lat="31.197694" lon="35.305676"><ele>187.5</ele><name>TP05363</name><time>2020-01-27T12:56:42Z</time></trkpt>
   <trkpt lat="31.197678" lon="35.305688"><ele>187.5</ele><name>TP05364</name><time>2020-01-27T12:56:43Z</time></trkpt>
   <trkpt lat="31.197638" lon="35.305736"><ele>187.6</ele><name>TP05365</name><time>2020-01-27T12:56:46Z</time></trkpt>
   <trkpt lat="31.197619" lon="35.305754"><ele>187.7</ele><name>TP05366</name><time>2020-01-27T12:56:47Z</time></trkpt>
   <trkpt lat="31.197607" lon="35.305771"><ele>187.8</ele><name>TP05367</name><time>2020-01-27T12:56:48Z</time></trkpt>
   <trkpt lat="31.197583" lon="35.305796"><ele>188.1</ele><name>TP05368</name><time>2020-01-27T12:56:50Z</time></trkpt>
   <trkpt lat="31.19755" lon="35.305823"><ele>188.6</ele><name>TP05369</name><time>2020-01-27T12:56:53Z</time></trkpt>
   <trkpt lat="31.197539" lon="35.305831"><ele>188.8</ele><name>TP05370</name><time>2020-01-27T12:56:54Z</time></trkpt>
   <trkpt lat="31.197523" lon="35.305844"><ele>189</ele><name>TP05371</name><time>2020-01-27T12:56:55Z</time></trkpt>
   <trkpt lat="31.197469" lon="35.305875"><ele>189.4</ele><name>TP05372</name><time>2020-01-27T12:56:57Z</time></trkpt>
   <trkpt lat="31.197419" lon="35.305901"><ele>190.2</ele><name>TP05373</name><time>2020-01-27T12:56:58Z</time></trkpt>
   <trkpt lat="31.197324" lon="35.305969"><ele>191.6</ele><name>TP05374</name><time>2020-01-27T12:57:00Z</time></trkpt>
   <trkpt lat="31.197285" lon="35.306004"><ele>192.4</ele><name>TP05375</name><time>2020-01-27T12:57:01Z</time></trkpt>
   <trkpt lat="31.197248" lon="35.306044"><ele>193.2</ele><name>TP05376</name><time>2020-01-27T12:57:04Z</time></trkpt>
   <trkpt lat="31.197222" lon="35.306077"><ele>193.7</ele><name>TP05377</name><time>2020-01-27T12:57:05Z</time></trkpt>
   <trkpt lat="31.197195" lon="35.306121"><ele>194.3</ele><name>TP05378</name><time>2020-01-27T12:57:06Z</time></trkpt>
   <trkpt lat="31.197178" lon="35.306151"><ele>194.9</ele><name>TP05379</name><time>2020-01-27T12:57:07Z</time></trkpt>
   <trkpt lat="31.197142" lon="35.306193"><ele>195.6</ele><name>TP05380</name><time>2020-01-27T12:57:08Z</time></trkpt>
   <trkpt lat="31.197114" lon="35.306229"><ele>195.8</ele><name>TP05381</name><time>2020-01-27T12:57:11Z</time></trkpt>
   <trkpt lat="31.19708" lon="35.30627"><ele>196.2</ele><name>TP05382</name><time>2020-01-27T12:57:14Z</time></trkpt>
   <trkpt lat="31.197039" lon="35.306298"><ele>196.6</ele><name>TP05383</name><time>2020-01-27T12:57:17Z</time></trkpt>
   <trkpt lat="31.197018" lon="35.30632"><ele>196.9</ele><name>TP05384</name><time>2020-01-27T12:57:19Z</time></trkpt>
   <trkpt lat="31.197011" lon="35.306327"><ele>197</ele><name>TP05385</name><time>2020-01-27T12:57:20Z</time></trkpt>
   <trkpt lat="31.197004" lon="35.306328"><ele>197.1</ele><name>TP05386</name><time>2020-01-27T12:57:21Z</time></trkpt>
   <trkpt lat="31.196998" lon="35.306328"><ele>197.2</ele><name>TP05387</name><time>2020-01-27T12:57:22Z</time></trkpt>
   <trkpt lat="31.196993" lon="35.306329"><ele>197.3</ele><name>TP05388</name><time>2020-01-27T12:57:23Z</time></trkpt>
   <trkpt lat="31.196994" lon="35.306326"><ele>197.3</ele><name>TP05389</name><time>2020-01-27T12:57:25Z</time></trkpt>
   <trkpt lat="31.196997" lon="35.306327"><ele>197.4</ele><name>TP05390</name><time>2020-01-27T12:57:26Z</time></trkpt>
   <trkpt lat="31.196987" lon="35.306332"><ele>197.5</ele><name>TP05391</name><time>2020-01-27T12:57:27Z</time></trkpt>
   <trkpt lat="31.196973" lon="35.30634"><ele>197.7</ele><name>TP05392</name><time>2020-01-27T12:57:29Z</time></trkpt>
   <trkpt lat="31.196965" lon="35.306343"><ele>197.8</ele><name>TP05393</name><time>2020-01-27T12:57:30Z</time></trkpt>
   <trkpt lat="31.196951" lon="35.306357"><ele>198.1</ele><name>TP05394</name><time>2020-01-27T12:57:32Z</time></trkpt>
   <trkpt lat="31.196939" lon="35.306378"><ele>198.5</ele><name>TP05395</name><time>2020-01-27T12:57:34Z</time></trkpt>
   <trkpt lat="31.196938" lon="35.306379"><ele>198.5</ele><name>TP05396</name><time>2020-01-27T12:57:35Z</time></trkpt>
   <trkpt lat="31.196938" lon="35.306383"><ele>198.6</ele><name>TP05397</name><time>2020-01-27T12:57:37Z</time></trkpt>
   <trkpt lat="31.196937" lon="35.306386"><ele>198.6</ele><name>TP05398</name><time>2020-01-27T12:57:38Z</time></trkpt>
   <trkpt lat="31.196934" lon="35.306395"><ele>198.8</ele><name>TP05399</name><time>2020-01-27T12:57:40Z</time></trkpt>
   <trkpt lat="31.19693" lon="35.306399"><ele>198.9</ele><name>TP05400</name><time>2020-01-27T12:57:41Z</time></trkpt>
   <trkpt lat="31.196905" lon="35.306422"><ele>199.5</ele><name>TP05401</name><time>2020-01-27T12:57:44Z</time></trkpt>
   <trkpt lat="31.196892" lon="35.306439"><ele>199.8</ele><name>TP05402</name><time>2020-01-27T12:57:46Z</time></trkpt>
   <trkpt lat="31.196887" lon="35.306444"><ele>199.9</ele><name>TP05403</name><time>2020-01-27T12:57:47Z</time></trkpt>
   <trkpt lat="31.196875" lon="35.306451"><ele>200</ele><name>TP05404</name><time>2020-01-27T12:57:49Z</time></trkpt>
   <trkpt lat="31.196869" lon="35.306452"><ele>200</ele><name>TP05405</name><time>2020-01-27T12:57:50Z</time></trkpt>
   <trkpt lat="31.196861" lon="35.306453"><ele>200.1</ele><name>TP05406</name><time>2020-01-27T12:57:52Z</time></trkpt>
   <trkpt lat="31.196834" lon="35.306458"><ele>200.3</ele><name>TP05407</name><time>2020-01-27T12:57:55Z</time></trkpt>
   <trkpt lat="31.196828" lon="35.306459"><ele>200.4</ele><name>TP05408</name><time>2020-01-27T12:57:56Z</time></trkpt>
   <trkpt lat="31.196821" lon="35.306469"><ele>200.4</ele><name>TP05409</name><time>2020-01-27T12:57:57Z</time></trkpt>
   <trkpt lat="31.196808" lon="35.306482"><ele>200.5</ele><name>TP05410</name><time>2020-01-27T12:58:00Z</time></trkpt>
   <trkpt lat="31.196782" lon="35.306518"><ele>200.7</ele><name>TP05411</name><time>2020-01-27T12:58:01Z</time></trkpt>
   <trkpt lat="31.196759" lon="35.306548"><ele>201</ele><name>TP05412</name><time>2020-01-27T12:58:04Z</time></trkpt>
   <trkpt lat="31.196753" lon="35.306554"><ele>201.1</ele><name>TP05413</name><time>2020-01-27T12:58:05Z</time></trkpt>
   <trkpt lat="31.196727" lon="35.306582"><ele>201.3</ele><name>TP05414</name><time>2020-01-27T12:58:06Z</time></trkpt>
   <trkpt lat="31.196718" lon="35.306593"><ele>201.3</ele><name>TP05415</name><time>2020-01-27T12:58:07Z</time></trkpt>
   <trkpt lat="31.196706" lon="35.30661"><ele>201.4</ele><name>TP05416</name><time>2020-01-27T12:58:10Z</time></trkpt>
   <trkpt lat="31.196695" lon="35.306626"><ele>201.4</ele><name>TP05417</name><time>2020-01-27T12:58:11Z</time></trkpt>
   <trkpt lat="31.19668" lon="35.306648"><ele>201.5</ele><name>TP05418</name><time>2020-01-27T12:58:12Z</time></trkpt>
   <trkpt lat="31.196673" lon="35.306656"><ele>201.5</ele><name>TP05419</name><time>2020-01-27T12:58:14Z</time></trkpt>
   <trkpt lat="31.196664" lon="35.306668"><ele>201.5</ele><name>TP05420</name><time>2020-01-27T12:58:16Z</time></trkpt>
   <trkpt lat="31.19665" lon="35.306693"><ele>201.5</ele><name>TP05421</name><time>2020-01-27T12:58:17Z</time></trkpt>
   <trkpt lat="31.196646" lon="35.306699"><ele>201.5</ele><name>TP05422</name><time>2020-01-27T12:58:18Z</time></trkpt>
   <trkpt lat="31.196652" lon="35.306696"><ele>201.5</ele><name>TP05423</name><time>2020-01-27T12:58:20Z</time></trkpt>
   <trkpt lat="31.196645" lon="35.306702"><ele>201.5</ele><name>TP05424</name><time>2020-01-27T12:58:21Z</time></trkpt>
   <trkpt lat="31.196638" lon="35.306705"><ele>201.5</ele><name>TP05425</name><time>2020-01-27T12:58:22Z</time></trkpt>
   <trkpt lat="31.196627" lon="35.306714"><ele>201.5</ele><name>TP05426</name><time>2020-01-27T12:58:24Z</time></trkpt>
   <trkpt lat="31.196622" lon="35.306717"><ele>201.5</ele><name>TP05427</name><time>2020-01-27T12:58:25Z</time></trkpt>
   <trkpt lat="31.196607" lon="35.306718"><ele>201.5</ele><name>TP05428</name><time>2020-01-27T12:58:27Z</time></trkpt>
   <trkpt lat="31.196593" lon="35.306717"><ele>201.4</ele><name>TP05429</name><time>2020-01-27T12:58:29Z</time></trkpt>
   <trkpt lat="31.196587" lon="35.306725"><ele>201.4</ele><name>TP05430</name><time>2020-01-27T12:58:32Z</time></trkpt>
   <trkpt lat="31.196563" lon="35.306726"><ele>201.4</ele><name>TP05431</name><time>2020-01-27T12:58:33Z</time></trkpt>
   <trkpt lat="31.196537" lon="35.306736"><ele>201.3</ele><name>TP05432</name><time>2020-01-27T12:58:34Z</time></trkpt>
   <trkpt lat="31.196522" lon="35.306745"><ele>201.3</ele><name>TP05433</name><time>2020-01-27T12:58:36Z</time></trkpt>
   <trkpt lat="31.196516" lon="35.306749"><ele>201.3</ele><name>TP05434</name><time>2020-01-27T12:58:37Z</time></trkpt>
   <trkpt lat="31.19651" lon="35.306754"><ele>201.3</ele><name>TP05435</name><time>2020-01-27T12:58:39Z</time></trkpt>
   <trkpt lat="31.196504" lon="35.306758"><ele>201.3</ele><name>TP05436</name><time>2020-01-27T12:58:40Z</time></trkpt>
   <trkpt lat="31.196497" lon="35.306762"><ele>201.3</ele><name>TP05437</name><time>2020-01-27T12:58:41Z</time></trkpt>
   <trkpt lat="31.196491" lon="35.306766"><ele>201.3</ele><name>TP05438</name><time>2020-01-27T12:58:43Z</time></trkpt>
   <trkpt lat="31.196485" lon="35.306771"><ele>201.3</ele><name>TP05439</name><time>2020-01-27T12:58:44Z</time></trkpt>
   <trkpt lat="31.196479" lon="35.306775"><ele>201.2</ele><name>TP05440</name><time>2020-01-27T12:58:47Z</time></trkpt>
   <trkpt lat="31.196473" lon="35.306779"><ele>201.2</ele><name>TP05441</name><time>2020-01-27T12:58:48Z</time></trkpt>
   <trkpt lat="31.196429" lon="35.306827"><ele>201.6</ele><name>TP05442</name><time>2020-01-27T12:58:51Z</time></trkpt>
   <trkpt lat="31.196402" lon="35.306857"><ele>201.8</ele><name>TP05443</name><time>2020-01-27T12:58:52Z</time></trkpt>
   <trkpt lat="31.196384" lon="35.306885"><ele>201.8</ele><name>TP05444</name><time>2020-01-27T12:58:54Z</time></trkpt>
   <trkpt lat="31.196319" lon="35.306936"><ele>201.9</ele><name>TP05445</name><time>2020-01-27T12:58:56Z</time></trkpt>
   <trkpt lat="31.196285" lon="35.306953"><ele>201.9</ele><name>TP05446</name><time>2020-01-27T12:58:59Z</time></trkpt>
   <trkpt lat="31.196271" lon="35.30696"><ele>201.9</ele><name>TP05447</name><time>2020-01-27T12:59:00Z</time></trkpt>
   <trkpt lat="31.196258" lon="35.306967"><ele>201.9</ele><name>TP05448</name><time>2020-01-27T12:59:01Z</time></trkpt>
   <trkpt lat="31.1962" lon="35.306992"><ele>201.7</ele><name>TP05449</name><time>2020-01-27T12:59:03Z</time></trkpt>
   <trkpt lat="31.196197" lon="35.306992"><ele>201.7</ele><name>TP05450</name><time>2020-01-27T12:59:04Z</time></trkpt>
   <trkpt lat="31.196195" lon="35.306993"><ele>201.7</ele><name>TP05451</name><time>2020-01-27T12:59:05Z</time></trkpt>
   <trkpt lat="31.196215" lon="35.306985"><ele>201.5</ele><name>TP05452</name><time>2020-01-27T12:59:07Z</time></trkpt>
   <trkpt lat="31.196212" lon="35.306987"><ele>201.5</ele><name>TP05453</name><time>2020-01-27T12:59:08Z</time></trkpt>
   <trkpt lat="31.196201" lon="35.306991"><ele>201.3</ele><name>TP05454</name><time>2020-01-27T12:59:11Z</time></trkpt>
   <trkpt lat="31.196195" lon="35.306994"><ele>201.3</ele><name>TP05455</name><time>2020-01-27T12:59:13Z</time></trkpt>
   <trkpt lat="31.196191" lon="35.306995"><ele>201.2</ele><name>TP05456</name><time>2020-01-27T12:59:15Z</time></trkpt>
   <trkpt lat="31.196199" lon="35.306989"><ele>201.1</ele><name>TP05457</name><time>2020-01-27T12:59:17Z</time></trkpt>
   <trkpt lat="31.196205" lon="35.306986"><ele>201</ele><name>TP05458</name><time>2020-01-27T12:59:18Z</time></trkpt>
   <trkpt lat="31.19621" lon="35.306984"><ele>201</ele><name>TP05459</name><time>2020-01-27T12:59:20Z</time></trkpt>
   <trkpt lat="31.196212" lon="35.306983"><ele>200.9</ele><name>TP05460</name><time>2020-01-27T12:59:22Z</time></trkpt>
   <trkpt lat="31.196212" lon="35.306983"><ele>200.9</ele><name>TP05461</name><time>2020-01-27T12:59:24Z</time></trkpt>
   <trkpt lat="31.196212" lon="35.306983"><ele>200.9</ele><name>TP05462</name><time>2020-01-27T12:59:25Z</time></trkpt>
   <trkpt lat="31.196212" lon="35.306983"><ele>200.9</ele><name>TP05463</name><time>2020-01-27T12:59:26Z</time></trkpt>
   <trkpt lat="31.196213" lon="35.306983"><ele>200.9</ele><name>TP05464</name><time>2020-01-27T12:59:28Z</time></trkpt>
   <trkpt lat="31.196213" lon="35.306983"><ele>200.9</ele><name>TP05465</name><time>2020-01-27T12:59:29Z</time></trkpt>
   <trkpt lat="31.196213" lon="35.306983"><ele>200.9</ele><name>TP05466</name><time>2020-01-27T12:59:30Z</time></trkpt>
   <trkpt lat="31.196213" lon="35.306983"><ele>200.9</ele><name>TP05467</name><time>2020-01-27T12:59:31Z</time></trkpt>
   <trkpt lat="31.196213" lon="35.306983"><ele>200.9</ele><name>TP05468</name><time>2020-01-27T12:59:33Z</time></trkpt>
   <trkpt lat="31.196213" lon="35.306983"><ele>200.9</ele><name>TP05469</name><time>2020-01-27T12:59:34Z</time></trkpt>
   <trkpt lat="31.196213" lon="35.306983"><ele>200.9</ele><name>TP05470</name><time>2020-01-27T12:59:36Z</time></trkpt>
   <trkpt lat="31.196213" lon="35.306983"><ele>200.9</ele><name>TP05471</name><time>2020-01-27T12:59:38Z</time></trkpt>
   <trkpt lat="31.196213" lon="35.306983"><ele>200.9</ele><name>TP05472</name><time>2020-01-27T12:59:40Z</time></trkpt>
   <trkpt lat="31.196213" lon="35.306983"><ele>200.9</ele><name>TP05473</name><time>2020-01-27T12:59:41Z</time></trkpt>
   <trkpt lat="31.196213" lon="35.306983"><ele>200.9</ele><name>TP05474</name><time>2020-01-27T12:59:42Z</time></trkpt>
   <trkpt lat="31.196213" lon="35.306983"><ele>200.9</ele><name>TP05475</name><time>2020-01-27T12:59:44Z</time></trkpt>
   <trkpt lat="31.196213" lon="35.306983"><ele>200.9</ele><name>TP05476</name><time>2020-01-27T12:59:45Z</time></trkpt>
   <trkpt lat="31.196213" lon="35.306983"><ele>200.9</ele><name>TP05477</name><time>2020-01-27T12:59:47Z</time></trkpt>
   <trkpt lat="31.196213" lon="35.306983"><ele>200.9</ele><name>TP05478</name><time>2020-01-27T12:59:49Z</time></trkpt>
   <trkpt lat="31.196213" lon="35.306983"><ele>200.9</ele><name>TP05479</name><time>2020-01-27T12:59:51Z</time></trkpt>
   <trkpt lat="31.1962" lon="35.306992"><ele>200.7</ele><name>TP05480</name><time>2020-01-27T12:59:53Z</time></trkpt>
   <trkpt lat="31.196165" lon="35.307018"><ele>200.2</ele><name>TP05481</name><time>2020-01-27T12:59:55Z</time></trkpt>
   <trkpt lat="31.196142" lon="35.30704"><ele>199.8</ele><name>TP05482</name><time>2020-01-27T12:59:56Z</time></trkpt>
   <trkpt lat="31.196067" lon="35.307109"><ele>198.5</ele><name>TP05483</name><time>2020-01-27T12:59:58Z</time></trkpt>
   <trkpt lat="31.196004" lon="35.307165"><ele>197.1</ele><name>TP05484</name><time>2020-01-27T13:00:00Z</time></trkpt>
   <trkpt lat="31.195996" lon="35.307165"><ele>196.9</ele><name>TP05485</name><time>2020-01-27T13:00:01Z</time></trkpt>
   <trkpt lat="31.195984" lon="35.307173"><ele>196.6</ele><name>TP05486</name><time>2020-01-27T13:00:02Z</time></trkpt>
   <trkpt lat="31.195931" lon="35.30723"><ele>194.6</ele><name>TP05487</name><time>2020-01-27T13:00:05Z</time></trkpt>
   <trkpt lat="31.195919" lon="35.307274"><ele>194.2</ele><name>TP05488</name><time>2020-01-27T13:00:06Z</time></trkpt>
   <trkpt lat="31.195917" lon="35.307288"><ele>194.1</ele><name>TP05489</name><time>2020-01-27T13:00:07Z</time></trkpt>
   <trkpt lat="31.195888" lon="35.307322"><ele>192.9</ele><name>TP05490</name><time>2020-01-27T13:00:09Z</time></trkpt>
   <trkpt lat="31.195871" lon="35.307331"><ele>192.4</ele><name>TP05491</name><time>2020-01-27T13:00:10Z</time></trkpt>
   <trkpt lat="31.195819" lon="35.307329"><ele>191.2</ele><name>TP05492</name><time>2020-01-27T13:00:11Z</time></trkpt>
   <trkpt lat="31.195799" lon="35.307326"><ele>190.9</ele><name>TP05493</name><time>2020-01-27T13:00:12Z</time></trkpt>
   <trkpt lat="31.195778" lon="35.307339"><ele>190.6</ele><name>TP05494</name><time>2020-01-27T13:00:13Z</time></trkpt>
   <trkpt lat="31.195745" lon="35.307335"><ele>190</ele><name>TP05495</name><time>2020-01-27T13:00:15Z</time></trkpt>
   <trkpt lat="31.195706" lon="35.307355"><ele>189.5</ele><name>TP05496</name><time>2020-01-27T13:00:17Z</time></trkpt>
   <trkpt lat="31.195696" lon="35.307385"><ele>189.4</ele><name>TP05497</name><time>2020-01-27T13:00:20Z</time></trkpt>
   <trkpt lat="31.195694" lon="35.307422"><ele>189.3</ele><name>TP05498</name><time>2020-01-27T13:00:21Z</time></trkpt>
   <trkpt lat="31.195689" lon="35.307449"><ele>189.1</ele><name>TP05499</name><time>2020-01-27T13:00:22Z</time></trkpt>
   <trkpt lat="31.195674" lon="35.307493"><ele>188.8</ele><name>TP05500</name><time>2020-01-27T13:00:24Z</time></trkpt>
   <trkpt lat="31.195647" lon="35.307541"><ele>188.3</ele><name>TP05501</name><time>2020-01-27T13:00:25Z</time></trkpt>
   <trkpt lat="31.195635" lon="35.307566"><ele>188.1</ele><name>TP05502</name><time>2020-01-27T13:00:26Z</time></trkpt>
   <trkpt lat="31.195623" lon="35.307586"><ele>188.2</ele><name>TP05503</name><time>2020-01-27T13:00:27Z</time></trkpt>
   <trkpt lat="31.195603" lon="35.307628"><ele>188.4</ele><name>TP05504</name><time>2020-01-27T13:00:30Z</time></trkpt>
   <trkpt lat="31.195596" lon="35.307627"><ele>188.5</ele><name>TP05505</name><time>2020-01-27T13:00:32Z</time></trkpt>
   <trkpt lat="31.195593" lon="35.307625"><ele>188.5</ele><name>TP05506</name><time>2020-01-27T13:00:34Z</time></trkpt>
   <trkpt lat="31.195591" lon="35.307623"><ele>188.4</ele><name>TP05507</name><time>2020-01-27T13:00:35Z</time></trkpt>
   <trkpt lat="31.195588" lon="35.307625"><ele>188.4</ele><name>TP05508</name><time>2020-01-27T13:00:37Z</time></trkpt>
   <trkpt lat="31.195587" lon="35.307626"><ele>188.4</ele><name>TP05509</name><time>2020-01-27T13:00:38Z</time></trkpt>
   <trkpt lat="31.195585" lon="35.307628"><ele>188.4</ele><name>TP05510</name><time>2020-01-27T13:00:40Z</time></trkpt>
   <trkpt lat="31.19558" lon="35.307629"><ele>188.4</ele><name>TP05511</name><time>2020-01-27T13:00:42Z</time></trkpt>
   <trkpt lat="31.195578" lon="35.30763"><ele>188.4</ele><name>TP05512</name><time>2020-01-27T13:00:43Z</time></trkpt>
   <trkpt lat="31.195535" lon="35.307652"><ele>188.1</ele><name>TP05513</name><time>2020-01-27T13:00:46Z</time></trkpt>
   <trkpt lat="31.195481" lon="35.307656"><ele>188.2</ele><name>TP05514</name><time>2020-01-27T13:00:49Z</time></trkpt>
   <trkpt lat="31.195435" lon="35.307659"><ele>188.3</ele><name>TP05515</name><time>2020-01-27T13:00:50Z</time></trkpt>
   <trkpt lat="31.195392" lon="35.307664"><ele>188</ele><name>TP05516</name><time>2020-01-27T13:00:51Z</time></trkpt>
   <trkpt lat="31.195272" lon="35.30772"><ele>188.3</ele><name>TP05517</name><time>2020-01-27T13:00:53Z</time></trkpt>
   <trkpt lat="31.195222" lon="35.307737"><ele>188.3</ele><name>TP05518</name><time>2020-01-27T13:00:54Z</time></trkpt>
   <trkpt lat="31.195175" lon="35.307722"><ele>187.8</ele><name>TP05519</name><time>2020-01-27T13:00:57Z</time></trkpt>
   <trkpt lat="31.195134" lon="35.30775"><ele>187.1</ele><name>TP05520</name><time>2020-01-27T13:00:58Z</time></trkpt>
   <trkpt lat="31.195" lon="35.307836"><ele>185.1</ele><name>TP05521</name><time>2020-01-27T13:01:00Z</time></trkpt>
   <trkpt lat="31.194954" lon="35.307844"><ele>184.3</ele><name>TP05522</name><time>2020-01-27T13:01:01Z</time></trkpt>
   <trkpt lat="31.194883" lon="35.307866"><ele>182.7</ele><name>TP05523</name><time>2020-01-27T13:01:04Z</time></trkpt>
   <trkpt lat="31.194848" lon="35.307911"><ele>181.4</ele><name>TP05524</name><time>2020-01-27T13:01:05Z</time></trkpt>
   <trkpt lat="31.194787" lon="35.307958"><ele>179.9</ele><name>TP05525</name><time>2020-01-27T13:01:07Z</time></trkpt>
   <trkpt lat="31.194756" lon="35.307951"><ele>179.3</ele><name>TP05526</name><time>2020-01-27T13:01:08Z</time></trkpt>
   <trkpt lat="31.194714" lon="35.307917"><ele>178.1</ele><name>TP05527</name><time>2020-01-27T13:01:11Z</time></trkpt>
   <trkpt lat="31.194672" lon="35.307884"><ele>177.2</ele><name>TP05528</name><time>2020-01-27T13:01:12Z</time></trkpt>
   <trkpt lat="31.194648" lon="35.307869"><ele>176.8</ele><name>TP05529</name><time>2020-01-27T13:01:13Z</time></trkpt>
   <trkpt lat="31.194559" lon="35.307831"><ele>175.4</ele><name>TP05530</name><time>2020-01-27T13:01:15Z</time></trkpt>
   <trkpt lat="31.194477" lon="35.307772"><ele>175.8</ele><name>TP05531</name><time>2020-01-27T13:01:18Z</time></trkpt>
   <trkpt lat="31.194427" lon="35.307734"><ele>175.8</ele><name>TP05532</name><time>2020-01-27T13:01:21Z</time></trkpt>
   <trkpt lat="31.19441" lon="35.307734"><ele>175.8</ele><name>TP05533</name><time>2020-01-27T13:01:22Z</time></trkpt>
   <trkpt lat="31.194372" lon="35.307756"><ele>175.8</ele><name>TP05534</name><time>2020-01-27T13:01:25Z</time></trkpt>
   <trkpt lat="31.194358" lon="35.307766"><ele>175.7</ele><name>TP05535</name><time>2020-01-27T13:01:26Z</time></trkpt>
   <trkpt lat="31.194341" lon="35.307795"><ele>175.8</ele><name>TP05536</name><time>2020-01-27T13:01:27Z</time></trkpt>
   <trkpt lat="31.194336" lon="35.307804"><ele>175.8</ele><name>TP05537</name><time>2020-01-27T13:01:28Z</time></trkpt>
   <trkpt lat="31.194314" lon="35.307831"><ele>176</ele><name>TP05538</name><time>2020-01-27T13:01:30Z</time></trkpt>
   <trkpt lat="31.19427" lon="35.307894"><ele>176.4</ele><name>TP05539</name><time>2020-01-27T13:01:31Z</time></trkpt>
   <trkpt lat="31.194219" lon="35.307935"><ele>177</ele><name>TP05540</name><time>2020-01-27T13:01:34Z</time></trkpt>
   <trkpt lat="31.19421" lon="35.307974"><ele>177.4</ele><name>TP05541</name><time>2020-01-27T13:01:37Z</time></trkpt>
   <trkpt lat="31.194176" lon="35.308025"><ele>178.1</ele><name>TP05542</name><time>2020-01-27T13:01:38Z</time></trkpt>
   <trkpt lat="31.194153" lon="35.308071"><ele>178.7</ele><name>TP05543</name><time>2020-01-27T13:01:41Z</time></trkpt>
   <trkpt lat="31.19413" lon="35.308133"><ele>179.4</ele><name>TP05544</name><time>2020-01-27T13:01:42Z</time></trkpt>
   <trkpt lat="31.194127" lon="35.308156"><ele>179.7</ele><name>TP05545</name><time>2020-01-27T13:01:43Z</time></trkpt>
   <trkpt lat="31.194124" lon="35.308212"><ele>180.2</ele><name>TP05546</name><time>2020-01-27T13:01:46Z</time></trkpt>
   <trkpt lat="31.194121" lon="35.308241"><ele>180.4</ele><name>TP05547</name><time>2020-01-27T13:01:47Z</time></trkpt>
   <trkpt lat="31.194113" lon="35.308272"><ele>180.6</ele><name>TP05548</name><time>2020-01-27T13:01:49Z</time></trkpt>
   <trkpt lat="31.194105" lon="35.308321"><ele>180.8</ele><name>TP05549</name><time>2020-01-27T13:01:50Z</time></trkpt>
   <trkpt lat="31.194092" lon="35.308401"><ele>180.5</ele><name>TP05550</name><time>2020-01-27T13:01:53Z</time></trkpt>
   <trkpt lat="31.194077" lon="35.308472"><ele>180.4</ele><name>TP05551</name><time>2020-01-27T13:01:56Z</time></trkpt>
   <trkpt lat="31.19407" lon="35.308505"><ele>180.4</ele><name>TP05552</name><time>2020-01-27T13:01:59Z</time></trkpt>
   <trkpt lat="31.194054" lon="35.308535"><ele>180.3</ele><name>TP05553</name><time>2020-01-27T13:02:00Z</time></trkpt>
   <trkpt lat="31.194038" lon="35.308563"><ele>180.2</ele><name>TP05554</name><time>2020-01-27T13:02:01Z</time></trkpt>
   <trkpt lat="31.19402" lon="35.308602"><ele>180.1</ele><name>TP05555</name><time>2020-01-27T13:02:03Z</time></trkpt>
   <trkpt lat="31.194015" lon="35.308616"><ele>180.1</ele><name>TP05556</name><time>2020-01-27T13:02:04Z</time></trkpt>
   <trkpt lat="31.193983" lon="35.308694"><ele>179.9</ele><name>TP05557</name><time>2020-01-27T13:02:05Z</time></trkpt>
   <trkpt lat="31.193978" lon="35.308736"><ele>180</ele><name>TP05558</name><time>2020-01-27T13:02:06Z</time></trkpt>
   <trkpt lat="31.193971" lon="35.308774"><ele>180</ele><name>TP05559</name><time>2020-01-27T13:02:09Z</time></trkpt>
   <trkpt lat="31.19397" lon="35.308809"><ele>179.9</ele><name>TP05560</name><time>2020-01-27T13:02:10Z</time></trkpt>
   <trkpt lat="31.193969" lon="35.308885"><ele>179.4</ele><name>TP05561</name><time>2020-01-27T13:02:11Z</time></trkpt>
   <trkpt lat="31.193969" lon="35.308942"><ele>178.9</ele><name>TP05562</name><time>2020-01-27T13:02:14Z</time></trkpt>
   <trkpt lat="31.193971" lon="35.308949"><ele>178.9</ele><name>TP05563</name><time>2020-01-27T13:02:15Z</time></trkpt>
   <trkpt lat="31.193977" lon="35.308959"><ele>178.8</ele><name>TP05564</name><time>2020-01-27T13:02:17Z</time></trkpt>
   <trkpt lat="31.193979" lon="35.308962"><ele>178.8</ele><name>TP05565</name><time>2020-01-27T13:02:18Z</time></trkpt>
   <trkpt lat="31.19398" lon="35.308965"><ele>178.8</ele><name>TP05566</name><time>2020-01-27T13:02:19Z</time></trkpt>
   <trkpt lat="31.19398" lon="35.30897"><ele>178.8</ele><name>TP05567</name><time>2020-01-27T13:02:21Z</time></trkpt>
   <trkpt lat="31.193985" lon="35.308985"><ele>178.7</ele><name>TP05568</name><time>2020-01-27T13:02:23Z</time></trkpt>
   <trkpt lat="31.193986" lon="35.308984"><ele>178.7</ele><name>TP05569</name><time>2020-01-27T13:02:24Z</time></trkpt>
   <trkpt lat="31.193984" lon="35.308979"><ele>178.7</ele><name>TP05570</name><time>2020-01-27T13:02:26Z</time></trkpt>
   <trkpt lat="31.193986" lon="35.308981"><ele>178.7</ele><name>TP05571</name><time>2020-01-27T13:02:28Z</time></trkpt>
   <trkpt lat="31.193969" lon="35.308935"><ele>178.6</ele><name>TP05572</name><time>2020-01-27T13:02:30Z</time></trkpt>
   <trkpt lat="31.193968" lon="35.30893"><ele>178.6</ele><name>TP05573</name><time>2020-01-27T13:02:31Z</time></trkpt>
   <trkpt lat="31.193966" lon="35.308926"><ele>178.6</ele><name>TP05574</name><time>2020-01-27T13:02:33Z</time></trkpt>
   <trkpt lat="31.193966" lon="35.308925"><ele>178.6</ele><name>TP05575</name><time>2020-01-27T13:02:34Z</time></trkpt>
   <trkpt lat="31.193966" lon="35.308925"><ele>178.6</ele><name>TP05576</name><time>2020-01-27T13:02:35Z</time></trkpt>
   <trkpt lat="31.193966" lon="35.308925"><ele>178.6</ele><name>TP05577</name><time>2020-01-27T13:02:37Z</time></trkpt>
   <trkpt lat="31.193966" lon="35.308925"><ele>178.6</ele><name>TP05578</name><time>2020-01-27T13:02:39Z</time></trkpt>
   <trkpt lat="31.193966" lon="35.308925"><ele>178.6</ele><name>TP05579</name><time>2020-01-27T13:02:41Z</time></trkpt>
   <trkpt lat="31.193966" lon="35.308925"><ele>178.6</ele><name>TP05580</name><time>2020-01-27T13:02:43Z</time></trkpt>
   <trkpt lat="31.193966" lon="35.308925"><ele>178.6</ele><name>TP05581</name><time>2020-01-27T13:02:44Z</time></trkpt>
   <trkpt lat="31.193966" lon="35.308925"><ele>178.6</ele><name>TP05582</name><time>2020-01-27T13:02:45Z</time></trkpt>
   <trkpt lat="31.193966" lon="35.308925"><ele>178.6</ele><name>TP05583</name><time>2020-01-27T13:02:46Z</time></trkpt>
   <trkpt lat="31.193966" lon="35.308925"><ele>178.6</ele><name>TP05584</name><time>2020-01-27T13:02:48Z</time></trkpt>
   <trkpt lat="31.193966" lon="35.308925"><ele>178.6</ele><name>TP05585</name><time>2020-01-27T13:02:49Z</time></trkpt>
   <trkpt lat="31.193966" lon="35.308925"><ele>178.6</ele><name>TP05586</name><time>2020-01-27T13:02:50Z</time></trkpt>
   <trkpt lat="31.193966" lon="35.308925"><ele>178.6</ele><name>TP05587</name><time>2020-01-27T13:02:52Z</time></trkpt>
   <trkpt lat="31.193966" lon="35.308925"><ele>178.6</ele><name>TP05588</name><time>2020-01-27T13:02:54Z</time></trkpt>
   <trkpt lat="31.193966" lon="35.308925"><ele>178.6</ele><name>TP05589</name><time>2020-01-27T13:02:55Z</time></trkpt>
   <trkpt lat="31.193966" lon="35.308925"><ele>178.6</ele><name>TP05590</name><time>2020-01-27T13:02:57Z</time></trkpt>
   <trkpt lat="31.193966" lon="35.308925"><ele>178.6</ele><name>TP05591</name><time>2020-01-27T13:02:58Z</time></trkpt>
   <trkpt lat="31.193966" lon="35.308925"><ele>178.6</ele><name>TP05592</name><time>2020-01-27T13:03:00Z</time></trkpt>
   <trkpt lat="31.193966" lon="35.308925"><ele>178.6</ele><name>TP05593</name><time>2020-01-27T13:03:02Z</time></trkpt>
   <trkpt lat="31.193966" lon="35.308925"><ele>178.6</ele><name>TP05594</name><time>2020-01-27T13:03:04Z</time></trkpt>
   <trkpt lat="31.193966" lon="35.308925"><ele>178.6</ele><name>TP05595</name><time>2020-01-27T13:03:05Z</time></trkpt>
   <trkpt lat="31.193964" lon="35.308937"><ele>178.5</ele><name>TP05596</name><time>2020-01-27T13:03:06Z</time></trkpt>
   <trkpt lat="31.193947" lon="35.30899"><ele>178.4</ele><name>TP05597</name><time>2020-01-27T13:03:08Z</time></trkpt>
   <trkpt lat="31.193921" lon="35.309054"><ele>177.9</ele><name>TP05598</name><time>2020-01-27T13:03:10Z</time></trkpt>
   <trkpt lat="31.193909" lon="35.309097"><ele>177.5</ele><name>TP05599</name><time>2020-01-27T13:03:11Z</time></trkpt>
   <trkpt lat="31.193904" lon="35.309112"><ele>177.3</ele><name>TP05600</name><time>2020-01-27T13:03:12Z</time></trkpt>
   <trkpt lat="31.193884" lon="35.309155"><ele>176.8</ele><name>TP05601</name><time>2020-01-27T13:03:15Z</time></trkpt>
   <trkpt lat="31.193873" lon="35.309209"><ele>176.2</ele><name>TP05602</name><time>2020-01-27T13:03:16Z</time></trkpt>
   <trkpt lat="31.193855" lon="35.309268"><ele>175.5</ele><name>TP05603</name><time>2020-01-27T13:03:18Z</time></trkpt>
   <trkpt lat="31.193836" lon="35.309302"><ele>174.9</ele><name>TP05604</name><time>2020-01-27T13:03:21Z</time></trkpt>
   <trkpt lat="31.193781" lon="35.309378"><ele>173.5</ele><name>TP05605</name><time>2020-01-27T13:03:22Z</time></trkpt>
   <trkpt lat="31.193704" lon="35.309529"><ele>172.4</ele><name>TP05606</name><time>2020-01-27T13:03:25Z</time></trkpt>
   <trkpt lat="31.193679" lon="35.309586"><ele>172.5</ele><name>TP05607</name><time>2020-01-27T13:03:26Z</time></trkpt>
   <trkpt lat="31.193639" lon="35.309704"><ele>171.9</ele><name>TP05608</name><time>2020-01-27T13:03:28Z</time></trkpt>
   <trkpt lat="31.193608" lon="35.309822"><ele>171.6</ele><name>TP05609</name><time>2020-01-27T13:03:30Z</time></trkpt>
   <trkpt lat="31.193593" lon="35.309932"><ele>170.8</ele><name>TP05610</name><time>2020-01-27T13:03:32Z</time></trkpt>
   <trkpt lat="31.193571" lon="35.310045"><ele>170.2</ele><name>TP05611</name><time>2020-01-27T13:03:34Z</time></trkpt>
   <trkpt lat="31.193548" lon="35.310101"><ele>169.8</ele><name>TP05612</name><time>2020-01-27T13:03:35Z</time></trkpt>
   <trkpt lat="31.193478" lon="35.310212"><ele>169.8</ele><name>TP05613</name><time>2020-01-27T13:03:37Z</time></trkpt>
   <trkpt lat="31.193437" lon="35.310265"><ele>170.2</ele><name>TP05614</name><time>2020-01-27T13:03:38Z</time></trkpt>
   <trkpt lat="31.193391" lon="35.310313"><ele>170.5</ele><name>TP05615</name><time>2020-01-27T13:03:39Z</time></trkpt>
   <trkpt lat="31.193295" lon="35.310371"><ele>170.9</ele><name>TP05616</name><time>2020-01-27T13:03:41Z</time></trkpt>
   <trkpt lat="31.193205" lon="35.310406"><ele>171.5</ele><name>TP05617</name><time>2020-01-27T13:03:43Z</time></trkpt>
   <trkpt lat="31.193131" lon="35.310426"><ele>172</ele><name>TP05618</name><time>2020-01-27T13:03:46Z</time></trkpt>
   <trkpt lat="31.193094" lon="35.310438"><ele>172.3</ele><name>TP05619</name><time>2020-01-27T13:03:47Z</time></trkpt>
   <trkpt lat="31.193035" lon="35.310456"><ele>172.8</ele><name>TP05620</name><time>2020-01-27T13:03:49Z</time></trkpt>
   <trkpt lat="31.192991" lon="35.310474"><ele>173.1</ele><name>TP05621</name><time>2020-01-27T13:03:51Z</time></trkpt>
   <trkpt lat="31.192967" lon="35.310471"><ele>173.3</ele><name>TP05622</name><time>2020-01-27T13:03:52Z</time></trkpt>
   <trkpt lat="31.192931" lon="35.310503"><ele>173.4</ele><name>TP05623</name><time>2020-01-27T13:03:54Z</time></trkpt>
   <trkpt lat="31.192884" lon="35.310544"><ele>173.2</ele><name>TP05624</name><time>2020-01-27T13:03:55Z</time></trkpt>
   <trkpt lat="31.192859" lon="35.310563"><ele>173</ele><name>TP05625</name><time>2020-01-27T13:03:56Z</time></trkpt>
   <trkpt lat="31.192826" lon="35.310594"><ele>172.8</ele><name>TP05626</name><time>2020-01-27T13:03:57Z</time></trkpt>
   <trkpt lat="31.192797" lon="35.31062"><ele>172.6</ele><name>TP05627</name><time>2020-01-27T13:03:59Z</time></trkpt>
   <trkpt lat="31.19277" lon="35.310632"><ele>172.4</ele><name>TP05628</name><time>2020-01-27T13:04:00Z</time></trkpt>
   <trkpt lat="31.192735" lon="35.310654"><ele>172.1</ele><name>TP05629</name><time>2020-01-27T13:04:01Z</time></trkpt>
   <trkpt lat="31.192723" lon="35.31066"><ele>172</ele><name>TP05630</name><time>2020-01-27T13:04:02Z</time></trkpt>
   <trkpt lat="31.192695" lon="35.310677"><ele>171.7</ele><name>TP05631</name><time>2020-01-27T13:04:04Z</time></trkpt>
   <trkpt lat="31.192666" lon="35.310694"><ele>171.3</ele><name>TP05632</name><time>2020-01-27T13:04:05Z</time></trkpt>
   <trkpt lat="31.192632" lon="35.310714"><ele>170.8</ele><name>TP05633</name><time>2020-01-27T13:04:06Z</time></trkpt>
   <trkpt lat="31.19262" lon="35.31072"><ele>170.7</ele><name>TP05634</name><time>2020-01-27T13:04:07Z</time></trkpt>
   <trkpt lat="31.192569" lon="35.310735"><ele>170.3</ele><name>TP05635</name><time>2020-01-27T13:04:09Z</time></trkpt>
   <trkpt lat="31.192539" lon="35.310755"><ele>170.2</ele><name>TP05636</name><time>2020-01-27T13:04:10Z</time></trkpt>
   <trkpt lat="31.192502" lon="35.310778"><ele>170.1</ele><name>TP05637</name><time>2020-01-27T13:04:12Z</time></trkpt>
   <trkpt lat="31.192471" lon="35.310812"><ele>170</ele><name>TP05638</name><time>2020-01-27T13:04:13Z</time></trkpt>
   <trkpt lat="31.192453" lon="35.310837"><ele>169.9</ele><name>TP05639</name><time>2020-01-27T13:04:14Z</time></trkpt>
   <trkpt lat="31.192426" lon="35.310861"><ele>169.8</ele><name>TP05640</name><time>2020-01-27T13:04:16Z</time></trkpt>
   <trkpt lat="31.192402" lon="35.310888"><ele>169.6</ele><name>TP05641</name><time>2020-01-27T13:04:17Z</time></trkpt>
   <trkpt lat="31.192379" lon="35.310906"><ele>169.4</ele><name>TP05642</name><time>2020-01-27T13:04:18Z</time></trkpt>
   <trkpt lat="31.192357" lon="35.310939"><ele>169.3</ele><name>TP05643</name><time>2020-01-27T13:04:20Z</time></trkpt>
   <trkpt lat="31.192345" lon="35.310947"><ele>169.3</ele><name>TP05644</name><time>2020-01-27T13:04:22Z</time></trkpt>
   <trkpt lat="31.192342" lon="35.310948"><ele>169.3</ele><name>TP05645</name><time>2020-01-27T13:04:23Z</time></trkpt>
   <trkpt lat="31.192335" lon="35.310957"><ele>169.3</ele><name>TP05646</name><time>2020-01-27T13:04:25Z</time></trkpt>
   <trkpt lat="31.192332" lon="35.310961"><ele>169.3</ele><name>TP05647</name><time>2020-01-27T13:04:26Z</time></trkpt>
   <trkpt lat="31.192332" lon="35.310962"><ele>169.3</ele><name>TP05648</name><time>2020-01-27T13:04:27Z</time></trkpt>
   <trkpt lat="31.192331" lon="35.310963"><ele>169.3</ele><name>TP05649</name><time>2020-01-27T13:04:28Z</time></trkpt>
   <trkpt lat="31.192345" lon="35.310949"><ele>169.2</ele><name>TP05650</name><time>2020-01-27T13:04:30Z</time></trkpt>
   <trkpt lat="31.192343" lon="35.310953"><ele>169.2</ele><name>TP05651</name><time>2020-01-27T13:04:31Z</time></trkpt>
   <trkpt lat="31.192339" lon="35.31096"><ele>169.2</ele><name>TP05652</name><time>2020-01-27T13:04:33Z</time></trkpt>
   <trkpt lat="31.192338" lon="35.310964"><ele>169.2</ele><name>TP05653</name><time>2020-01-27T13:04:34Z</time></trkpt>
   <trkpt lat="31.192336" lon="35.310965"><ele>169.2</ele><name>TP05654</name><time>2020-01-27T13:04:35Z</time></trkpt>
   <trkpt lat="31.192331" lon="35.310966"><ele>169.2</ele><name>TP05655</name><time>2020-01-27T13:04:37Z</time></trkpt>
   <trkpt lat="31.192328" lon="35.310973"><ele>169.1</ele><name>TP05656</name><time>2020-01-27T13:04:39Z</time></trkpt>
   <trkpt lat="31.192328" lon="35.310973"><ele>169.1</ele><name>TP05657</name><time>2020-01-27T13:04:41Z</time></trkpt>
   <trkpt lat="31.192328" lon="35.310973"><ele>169.1</ele><name>TP05658</name><time>2020-01-27T13:04:43Z</time></trkpt>
   <trkpt lat="31.192328" lon="35.310973"><ele>169.1</ele><name>TP05659</name><time>2020-01-27T13:04:44Z</time></trkpt>
   <trkpt lat="31.192328" lon="35.310973"><ele>169.1</ele><name>TP05660</name><time>2020-01-27T13:04:45Z</time></trkpt>
   <trkpt lat="31.192328" lon="35.310973"><ele>169.1</ele><name>TP05661</name><time>2020-01-27T13:04:47Z</time></trkpt>
   <trkpt lat="31.192328" lon="35.310973"><ele>169.1</ele><name>TP05662</name><time>2020-01-27T13:04:49Z</time></trkpt>
   <trkpt lat="31.192328" lon="35.310973"><ele>169.1</ele><name>TP05663</name><time>2020-01-27T13:04:50Z</time></trkpt>
   <trkpt lat="31.192328" lon="35.310973"><ele>169.1</ele><name>TP05664</name><time>2020-01-27T13:04:52Z</time></trkpt>
   <trkpt lat="31.192328" lon="35.310973"><ele>169.1</ele><name>TP05665</name><time>2020-01-27T13:04:53Z</time></trkpt>
   <trkpt lat="31.192328" lon="35.310973"><ele>169.1</ele><name>TP05666</name><time>2020-01-27T13:04:54Z</time></trkpt>
   <trkpt lat="31.192328" lon="35.310973"><ele>169.1</ele><name>TP05667</name><time>2020-01-27T13:04:55Z</time></trkpt>
   <trkpt lat="31.192328" lon="35.310973"><ele>169.1</ele><name>TP05668</name><time>2020-01-27T13:04:57Z</time></trkpt>
   <trkpt lat="31.192328" lon="35.310973"><ele>169.1</ele><name>TP05669</name><time>2020-01-27T13:04:58Z</time></trkpt>
   <trkpt lat="31.192328" lon="35.310973"><ele>169.1</ele><name>TP05670</name><time>2020-01-27T13:05:00Z</time></trkpt>
   <trkpt lat="31.192328" lon="35.310973"><ele>169.1</ele><name>TP05671</name><time>2020-01-27T13:05:02Z</time></trkpt>
   <trkpt lat="31.192328" lon="35.310973"><ele>169.1</ele><name>TP05672</name><time>2020-01-27T13:05:03Z</time></trkpt>
   <trkpt lat="31.192328" lon="35.310973"><ele>169.1</ele><name>TP05673</name><time>2020-01-27T13:05:05Z</time></trkpt>
   <trkpt lat="31.192328" lon="35.310973"><ele>169.1</ele><name>TP05674</name><time>2020-01-27T13:05:07Z</time></trkpt>
   <trkpt lat="31.192328" lon="35.310973"><ele>169.1</ele><name>TP05675</name><time>2020-01-27T13:05:08Z</time></trkpt>
   <trkpt lat="31.192328" lon="35.310973"><ele>169.1</ele><name>TP05676</name><time>2020-01-27T13:05:10Z</time></trkpt>
   <trkpt lat="31.192328" lon="35.310973"><ele>169.1</ele><name>TP05677</name><time>2020-01-27T13:05:11Z</time></trkpt>
   <trkpt lat="31.192328" lon="35.310973"><ele>169.1</ele><name>TP05678</name><time>2020-01-27T13:05:12Z</time></trkpt>
   <trkpt lat="31.192328" lon="35.310973"><ele>169.1</ele><name>TP05679</name><time>2020-01-27T13:05:14Z</time></trkpt>
   <trkpt lat="31.192328" lon="35.310973"><ele>169.1</ele><name>TP05680</name><time>2020-01-27T13:05:15Z</time></trkpt>
   <trkpt lat="31.192328" lon="35.310973"><ele>169.1</ele><name>TP05681</name><time>2020-01-27T13:05:17Z</time></trkpt>
   <trkpt lat="31.192328" lon="35.310973"><ele>169.1</ele><name>TP05682</name><time>2020-01-27T13:05:19Z</time></trkpt>
   <trkpt lat="31.192328" lon="35.310973"><ele>169.1</ele><name>TP05683</name><time>2020-01-27T13:05:21Z</time></trkpt>
   <trkpt lat="31.192328" lon="35.310973"><ele>169.1</ele><name>TP05684</name><time>2020-01-27T13:05:22Z</time></trkpt>
   <trkpt lat="31.192328" lon="35.310973"><ele>169.1</ele><name>TP05685</name><time>2020-01-27T13:05:24Z</time></trkpt>
   <trkpt lat="31.192328" lon="35.310973"><ele>169.1</ele><name>TP05686</name><time>2020-01-27T13:05:26Z</time></trkpt>
   <trkpt lat="31.192328" lon="35.310973"><ele>169.1</ele><name>TP05687</name><time>2020-01-27T13:05:28Z</time></trkpt>
   <trkpt lat="31.192328" lon="35.310973"><ele>169.1</ele><name>TP05688</name><time>2020-01-27T13:05:30Z</time></trkpt>
   <trkpt lat="31.192322" lon="35.310983"><ele>169</ele><name>TP05689</name><time>2020-01-27T13:05:31Z</time></trkpt>
   <trkpt lat="31.192304" lon="35.311006"><ele>169</ele><name>TP05690</name><time>2020-01-27T13:05:33Z</time></trkpt>
   <trkpt lat="31.19229" lon="35.311021"><ele>169.3</ele><name>TP05691</name><time>2020-01-27T13:05:34Z</time></trkpt>
   <trkpt lat="31.19228" lon="35.311034"><ele>169.5</ele><name>TP05692</name><time>2020-01-27T13:05:36Z</time></trkpt>
   <trkpt lat="31.19227" lon="35.311045"><ele>169.7</ele><name>TP05693</name><time>2020-01-27T13:05:37Z</time></trkpt>
   <trkpt lat="31.192259" lon="35.311055"><ele>169.9</ele><name>TP05694</name><time>2020-01-27T13:05:39Z</time></trkpt>
   <trkpt lat="31.192254" lon="35.311062"><ele>170</ele><name>TP05695</name><time>2020-01-27T13:05:41Z</time></trkpt>
   <trkpt lat="31.19225" lon="35.31106"><ele>170.1</ele><name>TP05696</name><time>2020-01-27T13:05:42Z</time></trkpt>
   <trkpt lat="31.192242" lon="35.311061"><ele>170.2</ele><name>TP05697</name><time>2020-01-27T13:05:44Z</time></trkpt>
   <trkpt lat="31.192236" lon="35.31106"><ele>170.2</ele><name>TP05698</name><time>2020-01-27T13:05:46Z</time></trkpt>
   <trkpt lat="31.192225" lon="35.311065"><ele>170.4</ele><name>TP05699</name><time>2020-01-27T13:05:47Z</time></trkpt>
   <trkpt lat="31.192187" lon="35.311072"><ele>170.9</ele><name>TP05700</name><time>2020-01-27T13:05:49Z</time></trkpt>
   <trkpt lat="31.19212" lon="35.311071"><ele>171.5</ele><name>TP05701</name><time>2020-01-27T13:05:51Z</time></trkpt>
   <trkpt lat="31.192086" lon="35.311064"><ele>171.8</ele><name>TP05702</name><time>2020-01-27T13:05:52Z</time></trkpt>
   <trkpt lat="31.192075" lon="35.311063"><ele>171.8</ele><name>TP05703</name><time>2020-01-27T13:05:53Z</time></trkpt>
   <trkpt lat="31.192032" lon="35.311062"><ele>171.9</ele><name>TP05704</name><time>2020-01-27T13:05:55Z</time></trkpt>
   <trkpt lat="31.192" lon="35.311065"><ele>171.7</ele><name>TP05705</name><time>2020-01-27T13:05:56Z</time></trkpt>
   <trkpt lat="31.19197" lon="35.311085"><ele>171.9</ele><name>TP05706</name><time>2020-01-27T13:05:57Z</time></trkpt>
   <trkpt lat="31.191944" lon="35.311104"><ele>172.1</ele><name>TP05707</name><time>2020-01-27T13:05:58Z</time></trkpt>
   <trkpt lat="31.191921" lon="35.311117"><ele>172.2</ele><name>TP05708</name><time>2020-01-27T13:05:59Z</time></trkpt>
   <trkpt lat="31.191895" lon="35.31114"><ele>172.5</ele><name>TP05709</name><time>2020-01-27T13:06:01Z</time></trkpt>
   <trkpt lat="31.191876" lon="35.311163"><ele>172.7</ele><name>TP05710</name><time>2020-01-27T13:06:02Z</time></trkpt>
   <trkpt lat="31.191842" lon="35.311202"><ele>173.1</ele><name>TP05711</name><time>2020-01-27T13:06:04Z</time></trkpt>
   <trkpt lat="31.191831" lon="35.311215"><ele>173.2</ele><name>TP05712</name><time>2020-01-27T13:06:05Z</time></trkpt>
   <trkpt lat="31.19182" lon="35.311227"><ele>173.3</ele><name>TP05713</name><time>2020-01-27T13:06:06Z</time></trkpt>
   <trkpt lat="31.1918" lon="35.311261"><ele>173.4</ele><name>TP05714</name><time>2020-01-27T13:06:08Z</time></trkpt>
   <trkpt lat="31.191788" lon="35.311298"><ele>173.5</ele><name>TP05715</name><time>2020-01-27T13:06:09Z</time></trkpt>
   <trkpt lat="31.191778" lon="35.311344"><ele>173.4</ele><name>TP05716</name><time>2020-01-27T13:06:11Z</time></trkpt>
   <trkpt lat="31.19177" lon="35.311377"><ele>173.3</ele><name>TP05717</name><time>2020-01-27T13:06:12Z</time></trkpt>
   <trkpt lat="31.191764" lon="35.311416"><ele>173.4</ele><name>TP05718</name><time>2020-01-27T13:06:14Z</time></trkpt>
   <trkpt lat="31.191769" lon="35.311448"><ele>173.5</ele><name>TP05719</name><time>2020-01-27T13:06:15Z</time></trkpt>
   <trkpt lat="31.191773" lon="35.311486"><ele>173.7</ele><name>TP05720</name><time>2020-01-27T13:06:16Z</time></trkpt>
   <trkpt lat="31.191783" lon="35.311536"><ele>174.2</ele><name>TP05721</name><time>2020-01-27T13:06:17Z</time></trkpt>
   <trkpt lat="31.191787" lon="35.311586"><ele>174.7</ele><name>TP05722</name><time>2020-01-27T13:06:19Z</time></trkpt>
   <trkpt lat="31.191792" lon="35.311636"><ele>174.9</ele><name>TP05723</name><time>2020-01-27T13:06:20Z</time></trkpt>
   <trkpt lat="31.191797" lon="35.311704"><ele>175.2</ele><name>TP05724</name><time>2020-01-27T13:06:21Z</time></trkpt>
   <trkpt lat="31.191795" lon="35.311753"><ele>175.3</ele><name>TP05725</name><time>2020-01-27T13:06:22Z</time></trkpt>
   <trkpt lat="31.191791" lon="35.311817"><ele>175.4</ele><name>TP05726</name><time>2020-01-27T13:06:24Z</time></trkpt>
   <trkpt lat="31.191801" lon="35.311863"><ele>175.6</ele><name>TP05727</name><time>2020-01-27T13:06:25Z</time></trkpt>
   <trkpt lat="31.191807" lon="35.311889"><ele>175.5</ele><name>TP05728</name><time>2020-01-27T13:06:26Z</time></trkpt>
   <trkpt lat="31.191832" lon="35.311942"><ele>175.3</ele><name>TP05729</name><time>2020-01-27T13:06:28Z</time></trkpt>
   <trkpt lat="31.191857" lon="35.312006"><ele>175.4</ele><name>TP05730</name><time>2020-01-27T13:06:30Z</time></trkpt>
   <trkpt lat="31.191851" lon="35.312028"><ele>175.3</ele><name>TP05731</name><time>2020-01-27T13:06:31Z</time></trkpt>
   <trkpt lat="31.191845" lon="35.312041"><ele>175.2</ele><name>TP05732</name><time>2020-01-27T13:06:32Z</time></trkpt>
   <trkpt lat="31.191846" lon="35.312085"><ele>175</ele><name>TP05733</name><time>2020-01-27T13:06:34Z</time></trkpt>
   <trkpt lat="31.191842" lon="35.312105"><ele>174.9</ele><name>TP05734</name><time>2020-01-27T13:06:36Z</time></trkpt>
   <trkpt lat="31.191838" lon="35.312125"><ele>174.8</ele><name>TP05735</name><time>2020-01-27T13:06:37Z</time></trkpt>
   <trkpt lat="31.191834" lon="35.312145"><ele>174.7</ele><name>TP05736</name><time>2020-01-27T13:06:38Z</time></trkpt>
   <trkpt lat="31.191842" lon="35.312204"><ele>174.4</ele><name>TP05737</name><time>2020-01-27T13:06:40Z</time></trkpt>
   <trkpt lat="31.191851" lon="35.312323"><ele>173.8</ele><name>TP05738</name><time>2020-01-27T13:06:41Z</time></trkpt>
   <trkpt lat="31.19185" lon="35.312396"><ele>173.2</ele><name>TP05739</name><time>2020-01-27T13:06:42Z</time></trkpt>
   <trkpt lat="31.191847" lon="35.312536"><ele>171.3</ele><name>TP05740</name><time>2020-01-27T13:06:44Z</time></trkpt>
   <trkpt lat="31.191847" lon="35.312602"><ele>170.1</ele><name>TP05741</name><time>2020-01-27T13:06:45Z</time></trkpt>
   <trkpt lat="31.191846" lon="35.31272"><ele>167</ele><name>TP05742</name><time>2020-01-27T13:06:47Z</time></trkpt>
   <trkpt lat="31.19184" lon="35.312737"><ele>166.5</ele><name>TP05743</name><time>2020-01-27T13:06:48Z</time></trkpt>
   <trkpt lat="31.191844" lon="35.312866"><ele>164.2</ele><name>TP05744</name><time>2020-01-27T13:06:50Z</time></trkpt>
   <trkpt lat="31.191822" lon="35.313029"><ele>160.1</ele><name>TP05745</name><time>2020-01-27T13:06:52Z</time></trkpt>
   <trkpt lat="31.191786" lon="35.313185"><ele>158</ele><name>TP05746</name><time>2020-01-27T13:06:54Z</time></trkpt>
   <trkpt lat="31.191769" lon="35.313321"><ele>157.3</ele><name>TP05747</name><time>2020-01-27T13:06:56Z</time></trkpt>
   <trkpt lat="31.19176" lon="35.313376"><ele>157.1</ele><name>TP05748</name><time>2020-01-27T13:06:57Z</time></trkpt>
   <trkpt lat="31.191753" lon="35.313391"><ele>157</ele><name>TP05749</name><time>2020-01-27T13:06:59Z</time></trkpt>
   <trkpt lat="31.191749" lon="35.313415"><ele>156.8</ele><name>TP05750</name><time>2020-01-27T13:07:00Z</time></trkpt>
   <trkpt lat="31.19174" lon="35.313458"><ele>156.6</ele><name>TP05751</name><time>2020-01-27T13:07:01Z</time></trkpt>
   <trkpt lat="31.191737" lon="35.313472"><ele>156.5</ele><name>TP05752</name><time>2020-01-27T13:07:02Z</time></trkpt>
   <trkpt lat="31.191722" lon="35.313504"><ele>156.1</ele><name>TP05753</name><time>2020-01-27T13:07:04Z</time></trkpt>
   <trkpt lat="31.191692" lon="35.313554"><ele>155.7</ele><name>TP05754</name><time>2020-01-27T13:07:06Z</time></trkpt>
   <trkpt lat="31.191665" lon="35.313598"><ele>155.4</ele><name>TP05755</name><time>2020-01-27T13:07:07Z</time></trkpt>
   <trkpt lat="31.191638" lon="35.313647"><ele>155.4</ele><name>TP05756</name><time>2020-01-27T13:07:09Z</time></trkpt>
   <trkpt lat="31.191616" lon="35.31368"><ele>155.7</ele><name>TP05757</name><time>2020-01-27T13:07:10Z</time></trkpt>
   <trkpt lat="31.191608" lon="35.31369"><ele>155.7</ele><name>TP05758</name><time>2020-01-27T13:07:11Z</time></trkpt>
   <trkpt lat="31.191588" lon="35.313731"><ele>156</ele><name>TP05759</name><time>2020-01-27T13:07:13Z</time></trkpt>
   <trkpt lat="31.191568" lon="35.313766"><ele>156.1</ele><name>TP05760</name><time>2020-01-27T13:07:14Z</time></trkpt>
   <trkpt lat="31.191562" lon="35.313777"><ele>156.2</ele><name>TP05761</name><time>2020-01-27T13:07:15Z</time></trkpt>
   <trkpt lat="31.191541" lon="35.313812"><ele>156.3</ele><name>TP05762</name><time>2020-01-27T13:07:16Z</time></trkpt>
   <trkpt lat="31.191533" lon="35.313825"><ele>156.2</ele><name>TP05763</name><time>2020-01-27T13:07:17Z</time></trkpt>
   <trkpt lat="31.191525" lon="35.313849"><ele>156.1</ele><name>TP05764</name><time>2020-01-27T13:07:18Z</time></trkpt>
   <trkpt lat="31.191509" lon="35.31388"><ele>156</ele><name>TP05765</name><time>2020-01-27T13:07:20Z</time></trkpt>
   <trkpt lat="31.191498" lon="35.313915"><ele>155.8</ele><name>TP05766</name><time>2020-01-27T13:07:21Z</time></trkpt>
   <trkpt lat="31.191491" lon="35.313934"><ele>155.7</ele><name>TP05767</name><time>2020-01-27T13:07:22Z</time></trkpt>
   <trkpt lat="31.191478" lon="35.313985"><ele>155.5</ele><name>TP05768</name><time>2020-01-27T13:07:24Z</time></trkpt>
   <trkpt lat="31.191462" lon="35.31403"><ele>155.4</ele><name>TP05769</name><time>2020-01-27T13:07:26Z</time></trkpt>
   <trkpt lat="31.191457" lon="35.314065"><ele>155.4</ele><name>TP05770</name><time>2020-01-27T13:07:27Z</time></trkpt>
   <trkpt lat="31.191453" lon="35.314097"><ele>155.3</ele><name>TP05771</name><time>2020-01-27T13:07:28Z</time></trkpt>
   <trkpt lat="31.191453" lon="35.314136"><ele>155.4</ele><name>TP05772</name><time>2020-01-27T13:07:30Z</time></trkpt>
   <trkpt lat="31.191454" lon="35.314178"><ele>155.6</ele><name>TP05773</name><time>2020-01-27T13:07:31Z</time></trkpt>
   <trkpt lat="31.191452" lon="35.314217"><ele>155.7</ele><name>TP05774</name><time>2020-01-27T13:07:32Z</time></trkpt>
   <trkpt lat="31.191452" lon="35.31423"><ele>155.7</ele><name>TP05775</name><time>2020-01-27T13:07:33Z</time></trkpt>
   <trkpt lat="31.191451" lon="35.314257"><ele>155.7</ele><name>TP05776</name><time>2020-01-27T13:07:34Z</time></trkpt>
   <trkpt lat="31.191449" lon="35.314292"><ele>155.7</ele><name>TP05777</name><time>2020-01-27T13:07:36Z</time></trkpt>
   <trkpt lat="31.191446" lon="35.314336"><ele>155.7</ele><name>TP05778</name><time>2020-01-27T13:07:37Z</time></trkpt>
   <trkpt lat="31.191445" lon="35.314353"><ele>155.7</ele><name>TP05779</name><time>2020-01-27T13:07:38Z</time></trkpt>
   <trkpt lat="31.191438" lon="35.314384"><ele>155.7</ele><name>TP05780</name><time>2020-01-27T13:07:40Z</time></trkpt>
   <trkpt lat="31.19144" lon="35.314421"><ele>155.7</ele><name>TP05781</name><time>2020-01-27T13:07:41Z</time></trkpt>
   <trkpt lat="31.191442" lon="35.314436"><ele>155.7</ele><name>TP05782</name><time>2020-01-27T13:07:42Z</time></trkpt>
   <trkpt lat="31.191441" lon="35.314442"><ele>155.7</ele><name>TP05783</name><time>2020-01-27T13:07:43Z</time></trkpt>
   <trkpt lat="31.191441" lon="35.314451"><ele>155.7</ele><name>TP05784</name><time>2020-01-27T13:07:45Z</time></trkpt>
   <trkpt lat="31.191441" lon="35.314462"><ele>155.8</ele><name>TP05785</name><time>2020-01-27T13:07:46Z</time></trkpt>
   <trkpt lat="31.191441" lon="35.314466"><ele>155.8</ele><name>TP05786</name><time>2020-01-27T13:07:47Z</time></trkpt>
   <trkpt lat="31.191442" lon="35.314476"><ele>155.8</ele><name>TP05787</name><time>2020-01-27T13:07:49Z</time></trkpt>
   <trkpt lat="31.191443" lon="35.314495"><ele>155.8</ele><name>TP05788</name><time>2020-01-27T13:07:50Z</time></trkpt>
   <trkpt lat="31.191445" lon="35.314509"><ele>155.7</ele><name>TP05789</name><time>2020-01-27T13:07:52Z</time></trkpt>
   <trkpt lat="31.191445" lon="35.314514"><ele>155.7</ele><name>TP05790</name><time>2020-01-27T13:07:53Z</time></trkpt>
   <trkpt lat="31.191447" lon="35.31452"><ele>155.7</ele><name>TP05791</name><time>2020-01-27T13:07:55Z</time></trkpt>
   <trkpt lat="31.191445" lon="35.314524"><ele>155.7</ele><name>TP05792</name><time>2020-01-27T13:07:57Z</time></trkpt>
   <trkpt lat="31.191443" lon="35.314525"><ele>155.7</ele><name>TP05793</name><time>2020-01-27T13:07:58Z</time></trkpt>
   <trkpt lat="31.191442" lon="35.314529"><ele>155.7</ele><name>TP05794</name><time>2020-01-27T13:08:00Z</time></trkpt>
   <trkpt lat="31.191441" lon="35.314531"><ele>155.7</ele><name>TP05795</name><time>2020-01-27T13:08:01Z</time></trkpt>
   <trkpt lat="31.191442" lon="35.314533"><ele>155.7</ele><name>TP05796</name><time>2020-01-27T13:08:03Z</time></trkpt>
   <trkpt lat="31.191442" lon="35.314474"><ele>155.6</ele><name>TP05797</name><time>2020-01-27T13:08:05Z</time></trkpt>
   <trkpt lat="31.191442" lon="35.314457"><ele>155.5</ele><name>TP05798</name><time>2020-01-27T13:08:06Z</time></trkpt>
   <trkpt lat="31.191441" lon="35.314462"><ele>155.5</ele><name>TP05799</name><time>2020-01-27T13:08:08Z</time></trkpt>
   <trkpt lat="31.191439" lon="35.314485"><ele>155.3</ele><name>TP05800</name><time>2020-01-27T13:08:10Z</time></trkpt>
   <trkpt lat="31.191439" lon="35.31449"><ele>155.2</ele><name>TP05801</name><time>2020-01-27T13:08:11Z</time></trkpt>
   <trkpt lat="31.191439" lon="35.314494"><ele>155.2</ele><name>TP05802</name><time>2020-01-27T13:08:13Z</time></trkpt>
   <trkpt lat="31.191439" lon="35.314495"><ele>155.2</ele><name>TP05803</name><time>2020-01-27T13:08:15Z</time></trkpt>
   <trkpt lat="31.191439" lon="35.314496"><ele>155.2</ele><name>TP05804</name><time>2020-01-27T13:08:16Z</time></trkpt>
   <trkpt lat="31.191439" lon="35.314496"><ele>155.2</ele><name>TP05805</name><time>2020-01-27T13:08:18Z</time></trkpt>
   <trkpt lat="31.191439" lon="35.314496"><ele>155.2</ele><name>TP05806</name><time>2020-01-27T13:08:20Z</time></trkpt>
   <trkpt lat="31.19144" lon="35.314503"><ele>155.2</ele><name>TP05807</name><time>2020-01-27T13:08:22Z</time></trkpt>
   <trkpt lat="31.191443" lon="35.314539"><ele>154.9</ele><name>TP05808</name><time>2020-01-27T13:08:24Z</time></trkpt>
   <trkpt lat="31.191446" lon="35.314577"><ele>154.7</ele><name>TP05809</name><time>2020-01-27T13:08:26Z</time></trkpt>
   <trkpt lat="31.191447" lon="35.314611"><ele>154.6</ele><name>TP05810</name><time>2020-01-27T13:08:27Z</time></trkpt>
   <trkpt lat="31.191446" lon="35.314643"><ele>154.4</ele><name>TP05811</name><time>2020-01-27T13:08:28Z</time></trkpt>
   <trkpt lat="31.191454" lon="35.314687"><ele>154.1</ele><name>TP05812</name><time>2020-01-27T13:08:30Z</time></trkpt>
   <trkpt lat="31.191457" lon="35.314701"><ele>154</ele><name>TP05813</name><time>2020-01-27T13:08:31Z</time></trkpt>
   <trkpt lat="31.191462" lon="35.314737"><ele>153.7</ele><name>TP05814</name><time>2020-01-27T13:08:32Z</time></trkpt>
   <trkpt lat="31.191468" lon="35.31477"><ele>153.4</ele><name>TP05815</name><time>2020-01-27T13:08:34Z</time></trkpt>
   <trkpt lat="31.191471" lon="35.314784"><ele>153.3</ele><name>TP05816</name><time>2020-01-27T13:08:35Z</time></trkpt>
   <trkpt lat="31.191472" lon="35.314791"><ele>153.2</ele><name>TP05817</name><time>2020-01-27T13:08:36Z</time></trkpt>
   <trkpt lat="31.191472" lon="35.314818"><ele>153</ele><name>TP05818</name><time>2020-01-27T13:08:38Z</time></trkpt>
   <trkpt lat="31.191476" lon="35.314829"><ele>152.9</ele><name>TP05819</name><time>2020-01-27T13:08:39Z</time></trkpt>
   <trkpt lat="31.191477" lon="35.314844"><ele>152.8</ele><name>TP05820</name><time>2020-01-27T13:08:41Z</time></trkpt>
   <trkpt lat="31.19148" lon="35.31485"><ele>152.8</ele><name>TP05821</name><time>2020-01-27T13:08:42Z</time></trkpt>
   <trkpt lat="31.191489" lon="35.31485"><ele>152.7</ele><name>TP05822</name><time>2020-01-27T13:08:44Z</time></trkpt>
   <trkpt lat="31.191487" lon="35.314865"><ele>152.6</ele><name>TP05823</name><time>2020-01-27T13:08:46Z</time></trkpt>
   <trkpt lat="31.191486" lon="35.314862"><ele>152.5</ele><name>TP05824</name><time>2020-01-27T13:08:47Z</time></trkpt>
   <trkpt lat="31.191487" lon="35.314865"><ele>152.5</ele><name>TP05825</name><time>2020-01-27T13:08:48Z</time></trkpt>
   <trkpt lat="31.191485" lon="35.314854"><ele>152.3</ele><name>TP05826</name><time>2020-01-27T13:08:49Z</time></trkpt>
   <trkpt lat="31.191483" lon="35.314845"><ele>152.2</ele><name>TP05827</name><time>2020-01-27T13:08:50Z</time></trkpt>
   <trkpt lat="31.191479" lon="35.314834"><ele>152.2</ele><name>TP05828</name><time>2020-01-27T13:08:52Z</time></trkpt>
   <trkpt lat="31.191477" lon="35.314827"><ele>152.1</ele><name>TP05829</name><time>2020-01-27T13:08:54Z</time></trkpt>
   <trkpt lat="31.191477" lon="35.314825"><ele>152.1</ele><name>TP05830</name><time>2020-01-27T13:08:55Z</time></trkpt>
   <trkpt lat="31.191477" lon="35.314823"><ele>152</ele><name>TP05831</name><time>2020-01-27T13:08:56Z</time></trkpt>
   <trkpt lat="31.191476" lon="35.314821"><ele>152</ele><name>TP05832</name><time>2020-01-27T13:08:58Z</time></trkpt>
   <trkpt lat="31.191468" lon="35.314806"><ele>151.9</ele><name>TP05833</name><time>2020-01-27T13:08:59Z</time></trkpt>
   <trkpt lat="31.191464" lon="35.314801"><ele>151.8</ele><name>TP05834</name><time>2020-01-27T13:09:01Z</time></trkpt>
   <trkpt lat="31.191464" lon="35.3148"><ele>151.8</ele><name>TP05835</name><time>2020-01-27T13:09:02Z</time></trkpt>
   <trkpt lat="31.191464" lon="35.3148"><ele>151.8</ele><name>TP05836</name><time>2020-01-27T13:09:03Z</time></trkpt>
   <trkpt lat="31.191463" lon="35.314799"><ele>151.8</ele><name>TP05837</name><time>2020-01-27T13:09:05Z</time></trkpt>
   <trkpt lat="31.191463" lon="35.314799"><ele>151.8</ele><name>TP05838</name><time>2020-01-27T13:09:07Z</time></trkpt>
   <trkpt lat="31.191463" lon="35.314799"><ele>151.8</ele><name>TP05839</name><time>2020-01-27T13:09:08Z</time></trkpt>
   <trkpt lat="31.191463" lon="35.314799"><ele>151.8</ele><name>TP05840</name><time>2020-01-27T13:09:10Z</time></trkpt>
   <trkpt lat="31.191463" lon="35.314799"><ele>151.8</ele><name>TP05841</name><time>2020-01-27T13:09:11Z</time></trkpt>
   <trkpt lat="31.191454" lon="35.314819"><ele>151.6</ele><name>TP05842</name><time>2020-01-27T13:09:13Z</time></trkpt>
   <trkpt lat="31.191442" lon="35.314847"><ele>151.4</ele><name>TP05843</name><time>2020-01-27T13:09:15Z</time></trkpt>
   <trkpt lat="31.19144" lon="35.314851"><ele>151.4</ele><name>TP05844</name><time>2020-01-27T13:09:16Z</time></trkpt>
   <trkpt lat="31.19144" lon="35.314853"><ele>151.3</ele><name>TP05845</name><time>2020-01-27T13:09:18Z</time></trkpt>
   <trkpt lat="31.191439" lon="35.314853"><ele>151.4</ele><name>TP05846</name><time>2020-01-27T13:09:20Z</time></trkpt>
   <trkpt lat="31.191439" lon="35.314853"><ele>151.4</ele><name>TP05847</name><time>2020-01-27T13:09:22Z</time></trkpt>
   <trkpt lat="31.191439" lon="35.314854"><ele>151.4</ele><name>TP05848</name><time>2020-01-27T13:09:23Z</time></trkpt>
   <trkpt lat="31.191439" lon="35.314854"><ele>151.4</ele><name>TP05849</name><time>2020-01-27T13:09:25Z</time></trkpt>
   <trkpt lat="31.191439" lon="35.314854"><ele>151.4</ele><name>TP05850</name><time>2020-01-27T13:09:27Z</time></trkpt>
   <trkpt lat="31.191439" lon="35.314854"><ele>151.4</ele><name>TP05851</name><time>2020-01-27T13:09:28Z</time></trkpt>
   <trkpt lat="31.191439" lon="35.314854"><ele>151.4</ele><name>TP05852</name><time>2020-01-27T13:09:29Z</time></trkpt>
   <trkpt lat="31.191439" lon="35.314854"><ele>151.4</ele><name>TP05853</name><time>2020-01-27T13:09:30Z</time></trkpt>
   <trkpt lat="31.191439" lon="35.314854"><ele>151.4</ele><name>TP05854</name><time>2020-01-27T13:09:32Z</time></trkpt>
   <trkpt lat="31.191439" lon="35.314854"><ele>151.4</ele><name>TP05855</name><time>2020-01-27T13:09:33Z</time></trkpt>
   <trkpt lat="31.191439" lon="35.314854"><ele>151.4</ele><name>TP05856</name><time>2020-01-27T13:09:35Z</time></trkpt>
   <trkpt lat="31.191439" lon="35.314854"><ele>151.4</ele><name>TP05857</name><time>2020-01-27T13:09:36Z</time></trkpt>
   <trkpt lat="31.191439" lon="35.314854"><ele>151.4</ele><name>TP05858</name><time>2020-01-27T13:09:38Z</time></trkpt>
   <trkpt lat="31.191439" lon="35.314854"><ele>151.4</ele><name>TP05859</name><time>2020-01-27T13:09:40Z</time></trkpt>
   <trkpt lat="31.191439" lon="35.314854"><ele>151.4</ele><name>TP05860</name><time>2020-01-27T13:09:41Z</time></trkpt>
   <trkpt lat="31.191434" lon="35.314879"><ele>151.3</ele><name>TP05861</name><time>2020-01-27T13:09:43Z</time></trkpt>
   <trkpt lat="31.191424" lon="35.314914"><ele>151.2</ele><name>TP05862</name><time>2020-01-27T13:09:45Z</time></trkpt>
   <trkpt lat="31.191416" lon="35.314945"><ele>151.2</ele><name>TP05863</name><time>2020-01-27T13:09:46Z</time></trkpt>
   <trkpt lat="31.191409" lon="35.314994"><ele>151.3</ele><name>TP05864</name><time>2020-01-27T13:09:47Z</time></trkpt>
   <trkpt lat="31.191402" lon="35.315046"><ele>151.5</ele><name>TP05865</name><time>2020-01-27T13:09:48Z</time></trkpt>
   <trkpt lat="31.191393" lon="35.315127"><ele>152</ele><name>TP05866</name><time>2020-01-27T13:09:49Z</time></trkpt>
   <trkpt lat="31.191393" lon="35.315211"><ele>152.4</ele><name>TP05867</name><time>2020-01-27T13:09:51Z</time></trkpt>
   <trkpt lat="31.191395" lon="35.315264"><ele>152.5</ele><name>TP05868</name><time>2020-01-27T13:09:52Z</time></trkpt>
   <trkpt lat="31.191392" lon="35.315308"><ele>152.6</ele><name>TP05869</name><time>2020-01-27T13:09:53Z</time></trkpt>
   <trkpt lat="31.191385" lon="35.31544"><ele>152</ele><name>TP05870</name><time>2020-01-27T13:09:55Z</time></trkpt>
   <trkpt lat="31.191387" lon="35.315501"><ele>151.3</ele><name>TP05871</name><time>2020-01-27T13:09:56Z</time></trkpt>
   <trkpt lat="31.191393" lon="35.315562"><ele>150.6</ele><name>TP05872</name><time>2020-01-27T13:09:57Z</time></trkpt>
   <trkpt lat="31.191402" lon="35.315674"><ele>149.4</ele><name>TP05873</name><time>2020-01-27T13:09:59Z</time></trkpt>
   <trkpt lat="31.19141" lon="35.315709"><ele>149</ele><name>TP05874</name><time>2020-01-27T13:10:01Z</time></trkpt>
   <trkpt lat="31.191411" lon="35.31573"><ele>148.7</ele><name>TP05875</name><time>2020-01-27T13:10:02Z</time></trkpt>
   <trkpt lat="31.191408" lon="35.315768"><ele>148.2</ele><name>TP05876</name><time>2020-01-27T13:10:03Z</time></trkpt>
   <trkpt lat="31.191404" lon="35.31581"><ele>147.9</ele><name>TP05877</name><time>2020-01-27T13:10:05Z</time></trkpt>
   <trkpt lat="31.191401" lon="35.315842"><ele>147.7</ele><name>TP05878</name><time>2020-01-27T13:10:06Z</time></trkpt>
   <trkpt lat="31.191403" lon="35.315898"><ele>147.4</ele><name>TP05879</name><time>2020-01-27T13:10:07Z</time></trkpt>
   <trkpt lat="31.19141" lon="35.315949"><ele>147.4</ele><name>TP05880</name><time>2020-01-27T13:10:08Z</time></trkpt>
   <trkpt lat="31.191422" lon="35.316071"><ele>147.4</ele><name>TP05881</name><time>2020-01-27T13:10:10Z</time></trkpt>
   <trkpt lat="31.191441" lon="35.316187"><ele>147.4</ele><name>TP05882</name><time>2020-01-27T13:10:12Z</time></trkpt>
   <trkpt lat="31.191468" lon="35.316291"><ele>147.7</ele><name>TP05883</name><time>2020-01-27T13:10:14Z</time></trkpt>
   <trkpt lat="31.191491" lon="35.31637"><ele>148.2</ele><name>TP05884</name><time>2020-01-27T13:10:16Z</time></trkpt>
   <trkpt lat="31.191506" lon="35.316427"><ele>148.8</ele><name>TP05885</name><time>2020-01-27T13:10:18Z</time></trkpt>
   <trkpt lat="31.191511" lon="35.316449"><ele>149</ele><name>TP05886</name><time>2020-01-27T13:10:19Z</time></trkpt>
   <trkpt lat="31.191516" lon="35.31647"><ele>149.2</ele><name>TP05887</name><time>2020-01-27T13:10:20Z</time></trkpt>
   <trkpt lat="31.191526" lon="35.316501"><ele>149.5</ele><name>TP05888</name><time>2020-01-27T13:10:21Z</time></trkpt>
   <trkpt lat="31.191536" lon="35.316543"><ele>150</ele><name>TP05889</name><time>2020-01-27T13:10:23Z</time></trkpt>
   <trkpt lat="31.191544" lon="35.316575"><ele>150.5</ele><name>TP05890</name><time>2020-01-27T13:10:24Z</time></trkpt>
   <trkpt lat="31.191567" lon="35.316617"><ele>151.3</ele><name>TP05891</name><time>2020-01-27T13:10:25Z</time></trkpt>
   <trkpt lat="31.191586" lon="35.316636"><ele>151.5</ele><name>TP05892</name><time>2020-01-27T13:10:26Z</time></trkpt>
   <trkpt lat="31.191631" lon="35.316693"><ele>151.6</ele><name>TP05893</name><time>2020-01-27T13:10:28Z</time></trkpt>
   <trkpt lat="31.191676" lon="35.316746"><ele>151.5</ele><name>TP05894</name><time>2020-01-27T13:10:29Z</time></trkpt>
   <trkpt lat="31.191744" lon="35.316846"><ele>149.6</ele><name>TP05895</name><time>2020-01-27T13:10:31Z</time></trkpt>
   <trkpt lat="31.191769" lon="35.316903"><ele>148.8</ele><name>TP05896</name><time>2020-01-27T13:10:33Z</time></trkpt>
   <trkpt lat="31.191788" lon="35.317006"><ele>148.3</ele><name>TP05897</name><time>2020-01-27T13:10:34Z</time></trkpt>
   <trkpt lat="31.191816" lon="35.317158"><ele>148.3</ele><name>TP05898</name><time>2020-01-27T13:10:36Z</time></trkpt>
   <trkpt lat="31.191818" lon="35.317295"><ele>147.9</ele><name>TP05899</name><time>2020-01-27T13:10:38Z</time></trkpt>
   <trkpt lat="31.191804" lon="35.317435"><ele>147.4</ele><name>TP05900</name><time>2020-01-27T13:10:40Z</time></trkpt>
   <trkpt lat="31.191794" lon="35.317528"><ele>146.9</ele><name>TP05901</name><time>2020-01-27T13:10:42Z</time></trkpt>
   <trkpt lat="31.191791" lon="35.317522"><ele>146.9</ele><name>TP05902</name><time>2020-01-27T13:10:43Z</time></trkpt>
   <trkpt lat="31.191756" lon="35.317563"><ele>146.9</ele><name>TP05903</name><time>2020-01-27T13:10:45Z</time></trkpt>
   <trkpt lat="31.191742" lon="35.31757"><ele>146.9</ele><name>TP05904</name><time>2020-01-27T13:10:46Z</time></trkpt>
   <trkpt lat="31.191742" lon="35.317568"><ele>146.9</ele><name>TP05905</name><time>2020-01-27T13:10:48Z</time></trkpt>
   <trkpt lat="31.191741" lon="35.317567"><ele>146.9</ele><name>TP05906</name><time>2020-01-27T13:10:50Z</time></trkpt>
   <trkpt lat="31.191741" lon="35.317566"><ele>146.9</ele><name>TP05907</name><time>2020-01-27T13:10:51Z</time></trkpt>
   <trkpt lat="31.19174" lon="35.317565"><ele>146.9</ele><name>TP05908</name><time>2020-01-27T13:10:52Z</time></trkpt>
   <trkpt lat="31.19174" lon="35.317563"><ele>146.9</ele><name>TP05909</name><time>2020-01-27T13:10:53Z</time></trkpt>
   <trkpt lat="31.191739" lon="35.317562"><ele>146.9</ele><name>TP05910</name><time>2020-01-27T13:10:55Z</time></trkpt>
   <trkpt lat="31.191738" lon="35.317561"><ele>146.9</ele><name>TP05911</name><time>2020-01-27T13:10:57Z</time></trkpt>
   <trkpt lat="31.191738" lon="35.317559"><ele>146.9</ele><name>TP05912</name><time>2020-01-27T13:10:59Z</time></trkpt>
   <trkpt lat="31.191737" lon="35.317558"><ele>146.9</ele><name>TP05913</name><time>2020-01-27T13:11:00Z</time></trkpt>
   <trkpt lat="31.191737" lon="35.317557"><ele>146.9</ele><name>TP05914</name><time>2020-01-27T13:11:01Z</time></trkpt>
   <trkpt lat="31.191736" lon="35.317556"><ele>146.9</ele><name>TP05915</name><time>2020-01-27T13:11:03Z</time></trkpt>
   <trkpt lat="31.191736" lon="35.317554"><ele>146.9</ele><name>TP05916</name><time>2020-01-27T13:11:05Z</time></trkpt>
   <trkpt lat="31.191735" lon="35.317553"><ele>146.9</ele><name>TP05917</name><time>2020-01-27T13:11:06Z</time></trkpt>
   <trkpt lat="31.191753" lon="35.317545"><ele>146.9</ele><name>TP05918</name><time>2020-01-27T13:11:07Z</time></trkpt>
   <trkpt lat="31.191765" lon="35.31754"><ele>147</ele><name>TP05919</name><time>2020-01-27T13:11:09Z</time></trkpt>
   <trkpt lat="31.191769" lon="35.317539"><ele>147</ele><name>TP05920</name><time>2020-01-27T13:11:11Z</time></trkpt>
   <trkpt lat="31.19177" lon="35.317538"><ele>147</ele><name>TP05921</name><time>2020-01-27T13:11:12Z</time></trkpt>
   <trkpt lat="31.19177" lon="35.317538"><ele>147</ele><name>TP05922</name><time>2020-01-27T13:11:13Z</time></trkpt>
   <trkpt lat="31.19177" lon="35.317538"><ele>147</ele><name>TP05923</name><time>2020-01-27T13:11:15Z</time></trkpt>
   <trkpt lat="31.19177" lon="35.317538"><ele>147</ele><name>TP05924</name><time>2020-01-27T13:11:17Z</time></trkpt>
   <trkpt lat="31.19177" lon="35.317538"><ele>147</ele><name>TP05925</name><time>2020-01-27T13:11:19Z</time></trkpt>
   <trkpt lat="31.19177" lon="35.317538"><ele>147</ele><name>TP05926</name><time>2020-01-27T13:11:21Z</time></trkpt>
   <trkpt lat="31.19177" lon="35.317538"><ele>147</ele><name>TP05927</name><time>2020-01-27T13:11:22Z</time></trkpt>
   <trkpt lat="31.19177" lon="35.317538"><ele>147</ele><name>TP05928</name><time>2020-01-27T13:11:24Z</time></trkpt>
   <trkpt lat="31.19177" lon="35.317538"><ele>147</ele><name>TP05929</name><time>2020-01-27T13:11:26Z</time></trkpt>
   <trkpt lat="31.19177" lon="35.317538"><ele>147</ele><name>TP05930</name><time>2020-01-27T13:11:28Z</time></trkpt>
   <trkpt lat="31.19177" lon="35.317538"><ele>147</ele><name>TP05931</name><time>2020-01-27T13:11:29Z</time></trkpt>
   <trkpt lat="31.19177" lon="35.317538"><ele>147</ele><name>TP05932</name><time>2020-01-27T13:11:31Z</time></trkpt>
   <trkpt lat="31.19177" lon="35.317538"><ele>147</ele><name>TP05933</name><time>2020-01-27T13:11:32Z</time></trkpt>
   <trkpt lat="31.19177" lon="35.317538"><ele>147</ele><name>TP05934</name><time>2020-01-27T13:11:34Z</time></trkpt>
   <trkpt lat="31.19177" lon="35.317538"><ele>147</ele><name>TP05935</name><time>2020-01-27T13:11:35Z</time></trkpt>
   <trkpt lat="31.19177" lon="35.317538"><ele>147</ele><name>TP05936</name><time>2020-01-27T13:11:37Z</time></trkpt>
   <trkpt lat="31.19177" lon="35.317538"><ele>147</ele><name>TP05937</name><time>2020-01-27T13:11:38Z</time></trkpt>
   <trkpt lat="31.19177" lon="35.317538"><ele>147</ele><name>TP05938</name><time>2020-01-27T13:11:40Z</time></trkpt>
   <trkpt lat="31.19177" lon="35.317538"><ele>147</ele><name>TP05939</name><time>2020-01-27T13:11:41Z</time></trkpt>
   <trkpt lat="31.19177" lon="35.317538"><ele>147</ele><name>TP05940</name><time>2020-01-27T13:11:43Z</time></trkpt>
   <trkpt lat="31.19177" lon="35.317538"><ele>147</ele><name>TP05941</name><time>2020-01-27T13:11:45Z</time></trkpt>
   <trkpt lat="31.19177" lon="35.317538"><ele>147</ele><name>TP05942</name><time>2020-01-27T13:11:46Z</time></trkpt>
   <trkpt lat="31.19177" lon="35.317538"><ele>147</ele><name>TP05943</name><time>2020-01-27T13:11:47Z</time></trkpt>
   <trkpt lat="31.19177" lon="35.317538"><ele>147</ele><name>TP05944</name><time>2020-01-27T13:11:49Z</time></trkpt>
   <trkpt lat="31.19177" lon="35.317538"><ele>147</ele><name>TP05945</name><time>2020-01-27T13:11:50Z</time></trkpt>
   <trkpt lat="31.19177" lon="35.317538"><ele>147</ele><name>TP05946</name><time>2020-01-27T13:11:52Z</time></trkpt>
   <trkpt lat="31.19177" lon="35.317538"><ele>147</ele><name>TP05947</name><time>2020-01-27T13:11:53Z</time></trkpt>
   <trkpt lat="31.19177" lon="35.317538"><ele>147</ele><name>TP05948</name><time>2020-01-27T13:11:54Z</time></trkpt>
   <trkpt lat="31.19177" lon="35.317538"><ele>147</ele><name>TP05949</name><time>2020-01-27T13:11:55Z</time></trkpt>
   <trkpt lat="31.19177" lon="35.317538"><ele>147</ele><name>TP05950</name><time>2020-01-27T13:11:56Z</time></trkpt>
   <trkpt lat="31.19177" lon="35.317538"><ele>147</ele><name>TP05951</name><time>2020-01-27T13:11:57Z</time></trkpt>
   <trkpt lat="31.19177" lon="35.317538"><ele>147</ele><name>TP05952</name><time>2020-01-27T13:11:59Z</time></trkpt>
   <trkpt lat="31.19177" lon="35.317538"><ele>147</ele><name>TP05953</name><time>2020-01-27T13:12:00Z</time></trkpt>
   <trkpt lat="31.19177" lon="35.317538"><ele>147</ele><name>TP05954</name><time>2020-01-27T13:12:01Z</time></trkpt>
   <trkpt lat="31.19177" lon="35.317538"><ele>147</ele><name>TP05955</name><time>2020-01-27T13:12:02Z</time></trkpt>
   <trkpt lat="31.19177" lon="35.317538"><ele>147</ele><name>TP05956</name><time>2020-01-27T13:12:03Z</time></trkpt>
   <trkpt lat="31.19177" lon="35.317538"><ele>147</ele><name>TP05957</name><time>2020-01-27T13:12:05Z</time></trkpt>
   <trkpt lat="31.19177" lon="35.317538"><ele>147</ele><name>TP05958</name><time>2020-01-27T13:12:07Z</time></trkpt>
   <trkpt lat="31.19177" lon="35.317538"><ele>147</ele><name>TP05959</name><time>2020-01-27T13:12:08Z</time></trkpt>
   <trkpt lat="31.19177" lon="35.317538"><ele>147</ele><name>TP05960</name><time>2020-01-27T13:12:09Z</time></trkpt>
   <trkpt lat="31.19177" lon="35.317538"><ele>147</ele><name>TP05961</name><time>2020-01-27T13:12:10Z</time></trkpt>
   <trkpt lat="31.19177" lon="35.317538"><ele>147</ele><name>TP05962</name><time>2020-01-27T13:12:11Z</time></trkpt>
   <trkpt lat="31.19177" lon="35.317538"><ele>147</ele><name>TP05963</name><time>2020-01-27T13:12:13Z</time></trkpt>
   <trkpt lat="31.19177" lon="35.317538"><ele>147</ele><name>TP05964</name><time>2020-01-27T13:12:14Z</time></trkpt>
   <trkpt lat="31.19177" lon="35.317538"><ele>147</ele><name>TP05965</name><time>2020-01-27T13:12:16Z</time></trkpt>
   <trkpt lat="31.19177" lon="35.317538"><ele>147</ele><name>TP05966</name><time>2020-01-27T13:12:17Z</time></trkpt>
   <trkpt lat="31.19177" lon="35.317538"><ele>147</ele><name>TP05967</name><time>2020-01-27T13:12:19Z</time></trkpt>
   <trkpt lat="31.19177" lon="35.317538"><ele>147</ele><name>TP05968</name><time>2020-01-27T13:12:20Z</time></trkpt>
   <trkpt lat="31.19177" lon="35.317538"><ele>147</ele><name>TP05969</name><time>2020-01-27T13:12:22Z</time></trkpt>
   <trkpt lat="31.19177" lon="35.317538"><ele>147</ele><name>TP05970</name><time>2020-01-27T13:12:23Z</time></trkpt>
   <trkpt lat="31.19177" lon="35.317538"><ele>147</ele><name>TP05971</name><time>2020-01-27T13:12:24Z</time></trkpt>
   <trkpt lat="31.19177" lon="35.317538"><ele>147</ele><name>TP05972</name><time>2020-01-27T13:12:26Z</time></trkpt>
   <trkpt lat="31.19177" lon="35.317538"><ele>147</ele><name>TP05973</name><time>2020-01-27T13:12:28Z</time></trkpt>
   <trkpt lat="31.19177" lon="35.317538"><ele>147</ele><name>TP05974</name><time>2020-01-27T13:12:30Z</time></trkpt>
   <trkpt lat="31.19177" lon="35.317538"><ele>147</ele><name>TP05975</name><time>2020-01-27T13:12:31Z</time></trkpt>
   <trkpt lat="31.19177" lon="35.317538"><ele>147</ele><name>TP05976</name><time>2020-01-27T13:12:33Z</time></trkpt>
   <trkpt lat="31.19177" lon="35.317538"><ele>147</ele><name>TP05977</name><time>2020-01-27T13:12:35Z</time></trkpt>
   <trkpt lat="31.19177" lon="35.317538"><ele>147</ele><name>TP05978</name><time>2020-01-27T13:12:36Z</time></trkpt>
   <trkpt lat="31.19177" lon="35.317538"><ele>147</ele><name>TP05979</name><time>2020-01-27T13:12:38Z</time></trkpt>
   <trkpt lat="31.19177" lon="35.317538"><ele>147</ele><name>TP05980</name><time>2020-01-27T13:12:40Z</time></trkpt>
   <trkpt lat="31.191765" lon="35.317548"><ele>147</ele><name>TP05981</name><time>2020-01-27T13:12:41Z</time></trkpt>
   <trkpt lat="31.191756" lon="35.317574"><ele>147.1</ele><name>TP05982</name><time>2020-01-27T13:12:42Z</time></trkpt>
   <trkpt lat="31.191753" lon="35.317606"><ele>147.2</ele><name>TP05983</name><time>2020-01-27T13:12:44Z</time></trkpt>
   <trkpt lat="31.191733" lon="35.317668"><ele>147.3</ele><name>TP05984</name><time>2020-01-27T13:12:46Z</time></trkpt>
   <trkpt lat="31.19172" lon="35.3177"><ele>147.3</ele><name>TP05985</name><time>2020-01-27T13:12:47Z</time></trkpt>
   <trkpt lat="31.191699" lon="35.317734"><ele>147.3</ele><name>TP05986</name><time>2020-01-27T13:12:48Z</time></trkpt>
   <trkpt lat="31.191659" lon="35.317793"><ele>147</ele><name>TP05987</name><time>2020-01-27T13:12:50Z</time></trkpt>
   <trkpt lat="31.191589" lon="35.317873"><ele>146.6</ele><name>TP05988</name><time>2020-01-27T13:12:51Z</time></trkpt>
   <trkpt lat="31.191541" lon="35.317924"><ele>146.3</ele><name>TP05989</name><time>2020-01-27T13:12:52Z</time></trkpt>
   <trkpt lat="31.191429" lon="35.318046"><ele>144.6</ele><name>TP05990</name><time>2020-01-27T13:12:54Z</time></trkpt>
   <trkpt lat="31.191328" lon="35.318166"><ele>143.1</ele><name>TP05991</name><time>2020-01-27T13:12:56Z</time></trkpt>
   <trkpt lat="31.191277" lon="35.318226"><ele>142.2</ele><name>TP05992</name><time>2020-01-27T13:12:57Z</time></trkpt>
   <trkpt lat="31.191179" lon="35.318338"><ele>141.1</ele><name>TP05993</name><time>2020-01-27T13:12:59Z</time></trkpt>
   <trkpt lat="31.191083" lon="35.318448"><ele>139.7</ele><name>TP05994</name><time>2020-01-27T13:13:01Z</time></trkpt>
   <trkpt lat="31.191035" lon="35.318508"><ele>139.1</ele><name>TP05995</name><time>2020-01-27T13:13:02Z</time></trkpt>
   <trkpt lat="31.190989" lon="35.318573"><ele>139</ele><name>TP05996</name><time>2020-01-27T13:13:03Z</time></trkpt>
   <trkpt lat="31.190897" lon="35.318696"><ele>139</ele><name>TP05997</name><time>2020-01-27T13:13:05Z</time></trkpt>
   <trkpt lat="31.190853" lon="35.318752"><ele>138.8</ele><name>TP05998</name><time>2020-01-27T13:13:06Z</time></trkpt>
   <trkpt lat="31.19079" lon="35.318843"><ele>138.3</ele><name>TP05999</name><time>2020-01-27T13:13:08Z</time></trkpt>
   <trkpt lat="31.190753" lon="35.318917"><ele>138.1</ele><name>TP06000</name><time>2020-01-27T13:13:10Z</time></trkpt>
   <trkpt lat="31.190738" lon="35.318964"><ele>138</ele><name>TP06001</name><time>2020-01-27T13:13:11Z</time></trkpt>
   <trkpt lat="31.190723" lon="35.31902"><ele>138</ele><name>TP06002</name><time>2020-01-27T13:13:12Z</time></trkpt>
   <trkpt lat="31.190694" lon="35.319138"><ele>137.9</ele><name>TP06003</name><time>2020-01-27T13:13:14Z</time></trkpt>
   <trkpt lat="31.190694" lon="35.319187"><ele>138.1</ele><name>TP06004</name><time>2020-01-27T13:13:16Z</time></trkpt>
   <trkpt lat="31.190689" lon="35.319222"><ele>138.2</ele><name>TP06005</name><time>2020-01-27T13:13:17Z</time></trkpt>
   <trkpt lat="31.190679" lon="35.319256"><ele>138.4</ele><name>TP06006</name><time>2020-01-27T13:13:18Z</time></trkpt>
   <trkpt lat="31.190662" lon="35.319281"><ele>138.6</ele><name>TP06007</name><time>2020-01-27T13:13:19Z</time></trkpt>
   <trkpt lat="31.190641" lon="35.319311"><ele>138.9</ele><name>TP06008</name><time>2020-01-27T13:13:21Z</time></trkpt>
   <trkpt lat="31.190618" lon="35.319353"><ele>139.3</ele><name>TP06009</name><time>2020-01-27T13:13:22Z</time></trkpt>
   <trkpt lat="31.190607" lon="35.31937"><ele>139.5</ele><name>TP06010</name><time>2020-01-27T13:13:23Z</time></trkpt>
   <trkpt lat="31.190598" lon="35.319401"><ele>139.7</ele><name>TP06011</name><time>2020-01-27T13:13:25Z</time></trkpt>
   <trkpt lat="31.190585" lon="35.319436"><ele>139.9</ele><name>TP06012</name><time>2020-01-27T13:13:26Z</time></trkpt>
   <trkpt lat="31.190573" lon="35.319455"><ele>139.9</ele><name>TP06013</name><time>2020-01-27T13:13:27Z</time></trkpt>
   <trkpt lat="31.190555" lon="35.319475"><ele>140</ele><name>TP06014</name><time>2020-01-27T13:13:29Z</time></trkpt>
   <trkpt lat="31.190544" lon="35.319486"><ele>140</ele><name>TP06015</name><time>2020-01-27T13:13:31Z</time></trkpt>
   <trkpt lat="31.190542" lon="35.319491"><ele>140</ele><name>TP06016</name><time>2020-01-27T13:13:32Z</time></trkpt>
   <trkpt lat="31.190542" lon="35.319497"><ele>140.1</ele><name>TP06017</name><time>2020-01-27T13:13:33Z</time></trkpt>
   <trkpt lat="31.19055" lon="35.319483"><ele>140.1</ele><name>TP06018</name><time>2020-01-27T13:13:35Z</time></trkpt>
   <trkpt lat="31.19055" lon="35.31948"><ele>140.1</ele><name>TP06019</name><time>2020-01-27T13:13:36Z</time></trkpt>
   <trkpt lat="31.190547" lon="35.319484"><ele>140.1</ele><name>TP06020</name><time>2020-01-27T13:13:37Z</time></trkpt>
   <trkpt lat="31.190543" lon="35.319491"><ele>140.1</ele><name>TP06021</name><time>2020-01-27T13:13:38Z</time></trkpt>
   <trkpt lat="31.190536" lon="35.319504"><ele>140.2</ele><name>TP06022</name><time>2020-01-27T13:13:40Z</time></trkpt>
   <trkpt lat="31.190531" lon="35.319512"><ele>140.2</ele><name>TP06023</name><time>2020-01-27T13:13:42Z</time></trkpt>
   <trkpt lat="31.190528" lon="35.319516"><ele>140.2</ele><name>TP06024</name><time>2020-01-27T13:13:44Z</time></trkpt>
   <trkpt lat="31.190527" lon="35.319518"><ele>140.2</ele><name>TP06025</name><time>2020-01-27T13:13:45Z</time></trkpt>
   <trkpt lat="31.190526" lon="35.31952"><ele>140.2</ele><name>TP06026</name><time>2020-01-27T13:13:46Z</time></trkpt>
   <trkpt lat="31.190521" lon="35.319554"><ele>140.3</ele><name>TP06027</name><time>2020-01-27T13:13:48Z</time></trkpt>
   <trkpt lat="31.190512" lon="35.319575"><ele>140.3</ele><name>TP06028</name><time>2020-01-27T13:13:49Z</time></trkpt>
   <trkpt lat="31.190505" lon="35.319589"><ele>140.3</ele><name>TP06029</name><time>2020-01-27T13:13:51Z</time></trkpt>
   <trkpt lat="31.1905" lon="35.3196"><ele>140.3</ele><name>TP06030</name><time>2020-01-27T13:13:52Z</time></trkpt>
   <trkpt lat="31.190491" lon="35.319622"><ele>140.3</ele><name>TP06031</name><time>2020-01-27T13:13:53Z</time></trkpt>
   <trkpt lat="31.190484" lon="35.31964"><ele>140.3</ele><name>TP06032</name><time>2020-01-27T13:13:54Z</time></trkpt>
   <trkpt lat="31.190474" lon="35.319684"><ele>140.5</ele><name>TP06033</name><time>2020-01-27T13:13:56Z</time></trkpt>
   <trkpt lat="31.190465" lon="35.31971"><ele>140.7</ele><name>TP06034</name><time>2020-01-27T13:13:57Z</time></trkpt>
   <trkpt lat="31.190449" lon="35.319757"><ele>140.8</ele><name>TP06035</name><time>2020-01-27T13:13:59Z</time></trkpt>
   <trkpt lat="31.190429" lon="35.319811"><ele>140.8</ele><name>TP06036</name><time>2020-01-27T13:14:00Z</time></trkpt>
   <trkpt lat="31.190404" lon="35.319865"><ele>141.1</ele><name>TP06037</name><time>2020-01-27T13:14:01Z</time></trkpt>
   <trkpt lat="31.190342" lon="35.319989"><ele>141.6</ele><name>TP06038</name><time>2020-01-27T13:14:03Z</time></trkpt>
   <trkpt lat="31.190311" lon="35.320084"><ele>142</ele><name>TP06039</name><time>2020-01-27T13:14:05Z</time></trkpt>
   <trkpt lat="31.190297" lon="35.320134"><ele>142.3</ele><name>TP06040</name><time>2020-01-27T13:14:07Z</time></trkpt>
   <trkpt lat="31.190283" lon="35.320164"><ele>142.5</ele><name>TP06041</name><time>2020-01-27T13:14:08Z</time></trkpt>
   <trkpt lat="31.190267" lon="35.3202"><ele>142.7</ele><name>TP06042</name><time>2020-01-27T13:14:09Z</time></trkpt>
   <trkpt lat="31.190268" lon="35.320239"><ele>142.9</ele><name>TP06043</name><time>2020-01-27T13:14:10Z</time></trkpt>
   <trkpt lat="31.190261" lon="35.320294"><ele>143.3</ele><name>TP06044</name><time>2020-01-27T13:14:12Z</time></trkpt>
   <trkpt lat="31.190259" lon="35.320311"><ele>143.5</ele><name>TP06045</name><time>2020-01-27T13:14:13Z</time></trkpt>
   <trkpt lat="31.190256" lon="35.320328"><ele>143.7</ele><name>TP06046</name><time>2020-01-27T13:14:14Z</time></trkpt>
   <trkpt lat="31.190261" lon="35.320371"><ele>144</ele><name>TP06047</name><time>2020-01-27T13:14:15Z</time></trkpt>
   <trkpt lat="31.190269" lon="35.320418"><ele>144.2</ele><name>TP06048</name><time>2020-01-27T13:14:17Z</time></trkpt>
   <trkpt lat="31.190274" lon="35.320424"><ele>144.3</ele><name>TP06049</name><time>2020-01-27T13:14:18Z</time></trkpt>
   <trkpt lat="31.190272" lon="35.320421"><ele>144.3</ele><name>TP06050</name><time>2020-01-27T13:14:20Z</time></trkpt>
   <trkpt lat="31.190272" lon="35.320433"><ele>144.4</ele><name>TP06051</name><time>2020-01-27T13:14:22Z</time></trkpt>
   <trkpt lat="31.190274" lon="35.320452"><ele>144.5</ele><name>TP06052</name><time>2020-01-27T13:14:23Z</time></trkpt>
   <trkpt lat="31.190274" lon="35.320472"><ele>144.6</ele><name>TP06053</name><time>2020-01-27T13:14:25Z</time></trkpt>
   <trkpt lat="31.190272" lon="35.320478"><ele>144.6</ele><name>TP06054</name><time>2020-01-27T13:14:26Z</time></trkpt>
   <trkpt lat="31.19027" lon="35.320482"><ele>144.6</ele><name>TP06055</name><time>2020-01-27T13:14:27Z</time></trkpt>
   <trkpt lat="31.190265" lon="35.320489"><ele>144.7</ele><name>TP06056</name><time>2020-01-27T13:14:29Z</time></trkpt>
   <trkpt lat="31.190263" lon="35.320491"><ele>144.7</ele><name>TP06057</name><time>2020-01-27T13:14:30Z</time></trkpt>
   <trkpt lat="31.190261" lon="35.320492"><ele>144.7</ele><name>TP06058</name><time>2020-01-27T13:14:31Z</time></trkpt>
   <trkpt lat="31.19026" lon="35.320494"><ele>144.7</ele><name>TP06059</name><time>2020-01-27T13:14:32Z</time></trkpt>
   <trkpt lat="31.190259" lon="35.320497"><ele>144.8</ele><name>TP06060</name><time>2020-01-27T13:14:34Z</time></trkpt>
   <trkpt lat="31.190258" lon="35.320498"><ele>144.8</ele><name>TP06061</name><time>2020-01-27T13:14:35Z</time></trkpt>
   <trkpt lat="31.190256" lon="35.320501"><ele>144.8</ele><name>TP06062</name><time>2020-01-27T13:14:37Z</time></trkpt>
   <trkpt lat="31.190257" lon="35.320504"><ele>144.8</ele><name>TP06063</name><time>2020-01-27T13:14:39Z</time></trkpt>
   <trkpt lat="31.190267" lon="35.320502"><ele>144.9</ele><name>TP06064</name><time>2020-01-27T13:14:40Z</time></trkpt>
   <trkpt lat="31.190273" lon="35.320494"><ele>144.9</ele><name>TP06065</name><time>2020-01-27T13:14:42Z</time></trkpt>
   <trkpt lat="31.190274" lon="35.320492"><ele>144.9</ele><name>TP06066</name><time>2020-01-27T13:14:43Z</time></trkpt>
   <trkpt lat="31.190275" lon="35.320491"><ele>144.9</ele><name>TP06067</name><time>2020-01-27T13:14:45Z</time></trkpt>
   <trkpt lat="31.190276" lon="35.320491"><ele>144.9</ele><name>TP06068</name><time>2020-01-27T13:14:46Z</time></trkpt>
   <trkpt lat="31.190276" lon="35.320491"><ele>144.9</ele><name>TP06069</name><time>2020-01-27T13:14:48Z</time></trkpt>
   <trkpt lat="31.190276" lon="35.320491"><ele>144.9</ele><name>TP06070</name><time>2020-01-27T13:14:50Z</time></trkpt>
   <trkpt lat="31.190276" lon="35.320491"><ele>144.9</ele><name>TP06071</name><time>2020-01-27T13:14:51Z</time></trkpt>
   <trkpt lat="31.190276" lon="35.320491"><ele>144.9</ele><name>TP06072</name><time>2020-01-27T13:14:53Z</time></trkpt>
   <trkpt lat="31.190272" lon="35.320515"><ele>145</ele><name>TP06073</name><time>2020-01-27T13:14:54Z</time></trkpt>
   <trkpt lat="31.190257" lon="35.320555"><ele>145.2</ele><name>TP06074</name><time>2020-01-27T13:14:56Z</time></trkpt>
   <trkpt lat="31.190248" lon="35.320568"><ele>145.3</ele><name>TP06075</name><time>2020-01-27T13:14:57Z</time></trkpt>
   <trkpt lat="31.190264" lon="35.320555"><ele>145.4</ele><name>TP06076</name><time>2020-01-27T13:14:59Z</time></trkpt>
   <trkpt lat="31.190264" lon="35.320567"><ele>145.4</ele><name>TP06077</name><time>2020-01-27T13:15:00Z</time></trkpt>
   <trkpt lat="31.190257" lon="35.320573"><ele>145.4</ele><name>TP06078</name><time>2020-01-27T13:15:01Z</time></trkpt>
   <trkpt lat="31.190244" lon="35.320588"><ele>145.4</ele><name>TP06079</name><time>2020-01-27T13:15:03Z</time></trkpt>
   <trkpt lat="31.190241" lon="35.320594"><ele>145.4</ele><name>TP06080</name><time>2020-01-27T13:15:04Z</time></trkpt>
   <trkpt lat="31.190238" lon="35.320603"><ele>145.4</ele><name>TP06081</name><time>2020-01-27T13:15:06Z</time></trkpt>
   <trkpt lat="31.190236" lon="35.320608"><ele>145.4</ele><name>TP06082</name><time>2020-01-27T13:15:07Z</time></trkpt>
   <trkpt lat="31.190233" lon="35.320611"><ele>145.4</ele><name>TP06083</name><time>2020-01-27T13:15:08Z</time></trkpt>
   <trkpt lat="31.190231" lon="35.320615"><ele>145.4</ele><name>TP06084</name><time>2020-01-27T13:15:10Z</time></trkpt>
   <trkpt lat="31.19023" lon="35.320618"><ele>145.4</ele><name>TP06085</name><time>2020-01-27T13:15:11Z</time></trkpt>
   <trkpt lat="31.19023" lon="35.320619"><ele>145.4</ele><name>TP06086</name><time>2020-01-27T13:15:13Z</time></trkpt>
   <trkpt lat="31.190228" lon="35.320627"><ele>145.5</ele><name>TP06087</name><time>2020-01-27T13:15:14Z</time></trkpt>
   <trkpt lat="31.190225" lon="35.320638"><ele>145.6</ele><name>TP06088</name><time>2020-01-27T13:15:16Z</time></trkpt>
   <trkpt lat="31.190222" lon="35.320643"><ele>145.6</ele><name>TP06089</name><time>2020-01-27T13:15:18Z</time></trkpt>
   <trkpt lat="31.19022" lon="35.320648"><ele>145.6</ele><name>TP06090</name><time>2020-01-27T13:15:19Z</time></trkpt>
   <trkpt lat="31.190216" lon="35.320669"><ele>145.8</ele><name>TP06091</name><time>2020-01-27T13:15:21Z</time></trkpt>
   <trkpt lat="31.190208" lon="35.32072"><ele>146</ele><name>TP06092</name><time>2020-01-27T13:15:23Z</time></trkpt>
   <trkpt lat="31.190209" lon="35.320732"><ele>146</ele><name>TP06093</name><time>2020-01-27T13:15:24Z</time></trkpt>
   <trkpt lat="31.19021" lon="35.320743"><ele>146</ele><name>TP06094</name><time>2020-01-27T13:15:25Z</time></trkpt>
   <trkpt lat="31.190212" lon="35.320754"><ele>146.1</ele><name>TP06095</name><time>2020-01-27T13:15:26Z</time></trkpt>
   <trkpt lat="31.190218" lon="35.320786"><ele>146.1</ele><name>TP06096</name><time>2020-01-27T13:15:28Z</time></trkpt>
   <trkpt lat="31.19022" lon="35.320805"><ele>146.1</ele><name>TP06097</name><time>2020-01-27T13:15:29Z</time></trkpt>
   <trkpt lat="31.190222" lon="35.320824"><ele>146.1</ele><name>TP06098</name><time>2020-01-27T13:15:30Z</time></trkpt>
   <trkpt lat="31.190224" lon="35.320853"><ele>146</ele><name>TP06099</name><time>2020-01-27T13:15:32Z</time></trkpt>
   <trkpt lat="31.190226" lon="35.320876"><ele>146</ele><name>TP06100</name><time>2020-01-27T13:15:34Z</time></trkpt>
   <trkpt lat="31.190227" lon="35.320898"><ele>146</ele><name>TP06101</name><time>2020-01-27T13:15:35Z</time></trkpt>
   <trkpt lat="31.190226" lon="35.320919"><ele>145.9</ele><name>TP06102</name><time>2020-01-27T13:15:37Z</time></trkpt>
   <trkpt lat="31.190225" lon="35.32094"><ele>145.9</ele><name>TP06103</name><time>2020-01-27T13:15:39Z</time></trkpt>
   <trkpt lat="31.190224" lon="35.320952"><ele>145.8</ele><name>TP06104</name><time>2020-01-27T13:15:40Z</time></trkpt>
   <trkpt lat="31.190224" lon="35.320965"><ele>145.8</ele><name>TP06105</name><time>2020-01-27T13:15:42Z</time></trkpt>
   <trkpt lat="31.190224" lon="35.320978"><ele>145.7</ele><name>TP06106</name><time>2020-01-27T13:15:44Z</time></trkpt>
   <trkpt lat="31.190223" lon="35.32099"><ele>145.7</ele><name>TP06107</name><time>2020-01-27T13:15:46Z</time></trkpt>
   <trkpt lat="31.190223" lon="35.321003"><ele>145.7</ele><name>TP06108</name><time>2020-01-27T13:15:47Z</time></trkpt>
   <trkpt lat="31.190223" lon="35.321016"><ele>145.6</ele><name>TP06109</name><time>2020-01-27T13:15:48Z</time></trkpt>
   <trkpt lat="31.190222" lon="35.321028"><ele>145.6</ele><name>TP06110</name><time>2020-01-27T13:15:50Z</time></trkpt>
   <trkpt lat="31.190222" lon="35.321041"><ele>145.5</ele><name>TP06111</name><time>2020-01-27T13:15:51Z</time></trkpt>
   <trkpt lat="31.190222" lon="35.321054"><ele>145.5</ele><name>TP06112</name><time>2020-01-27T13:15:52Z</time></trkpt>
   <trkpt lat="31.190221" lon="35.321066"><ele>145.4</ele><name>TP06113</name><time>2020-01-27T13:15:54Z</time></trkpt>
   <trkpt lat="31.190221" lon="35.321079"><ele>145.4</ele><name>TP06114</name><time>2020-01-27T13:15:55Z</time></trkpt>
   <trkpt lat="31.190224" lon="35.321098"><ele>145.3</ele><name>TP06115</name><time>2020-01-27T13:15:57Z</time></trkpt>
   <trkpt lat="31.190224" lon="35.321109"><ele>145.3</ele><name>TP06116</name><time>2020-01-27T13:15:58Z</time></trkpt>
   <trkpt lat="31.190225" lon="35.32112"><ele>145.3</ele><name>TP06117</name><time>2020-01-27T13:15:59Z</time></trkpt>
   <trkpt lat="31.190225" lon="35.321131"><ele>145.2</ele><name>TP06118</name><time>2020-01-27T13:16:01Z</time></trkpt>
   <trkpt lat="31.190226" lon="35.321142"><ele>145.2</ele><name>TP06119</name><time>2020-01-27T13:16:02Z</time></trkpt>
   <trkpt lat="31.190227" lon="35.321153"><ele>145.2</ele><name>TP06120</name><time>2020-01-27T13:16:04Z</time></trkpt>
   <trkpt lat="31.190227" lon="35.321164"><ele>145.2</ele><name>TP06121</name><time>2020-01-27T13:16:06Z</time></trkpt>
   <trkpt lat="31.190228" lon="35.321175"><ele>145.2</ele><name>TP06122</name><time>2020-01-27T13:16:07Z</time></trkpt>
   <trkpt lat="31.190228" lon="35.321186"><ele>145.2</ele><name>TP06123</name><time>2020-01-27T13:16:09Z</time></trkpt>
   <trkpt lat="31.190229" lon="35.321197"><ele>145.1</ele><name>TP06124</name><time>2020-01-27T13:16:10Z</time></trkpt>
   <trkpt lat="31.190233" lon="35.321218"><ele>145.1</ele><name>TP06125</name><time>2020-01-27T13:16:12Z</time></trkpt>
   <trkpt lat="31.190238" lon="35.321247"><ele>145.3</ele><name>TP06126</name><time>2020-01-27T13:16:14Z</time></trkpt>
   <trkpt lat="31.190238" lon="35.321255"><ele>145.3</ele><name>TP06127</name><time>2020-01-27T13:16:15Z</time></trkpt>
   <trkpt lat="31.190238" lon="35.321271"><ele>145.4</ele><name>TP06128</name><time>2020-01-27T13:16:17Z</time></trkpt>
   <trkpt lat="31.190237" lon="35.321287"><ele>145.5</ele><name>TP06129</name><time>2020-01-27T13:16:18Z</time></trkpt>
   <trkpt lat="31.190231" lon="35.321313"><ele>145.6</ele><name>TP06130</name><time>2020-01-27T13:16:20Z</time></trkpt>
   <trkpt lat="31.190229" lon="35.321323"><ele>145.7</ele><name>TP06131</name><time>2020-01-27T13:16:22Z</time></trkpt>
   <trkpt lat="31.190226" lon="35.321333"><ele>145.8</ele><name>TP06132</name><time>2020-01-27T13:16:24Z</time></trkpt>
   <trkpt lat="31.190224" lon="35.321343"><ele>145.9</ele><name>TP06133</name><time>2020-01-27T13:16:25Z</time></trkpt>
   <trkpt lat="31.19022" lon="35.321366"><ele>146.1</ele><name>TP06134</name><time>2020-01-27T13:16:26Z</time></trkpt>
   <trkpt lat="31.190212" lon="35.321423"><ele>146.4</ele><name>TP06135</name><time>2020-01-27T13:16:28Z</time></trkpt>
   <trkpt lat="31.190207" lon="35.321457"><ele>146.6</ele><name>TP06136</name><time>2020-01-27T13:16:29Z</time></trkpt>
   <trkpt lat="31.190204" lon="35.321494"><ele>146.7</ele><name>TP06137</name><time>2020-01-27T13:16:30Z</time></trkpt>
   <trkpt lat="31.190202" lon="35.321505"><ele>146.8</ele><name>TP06138</name><time>2020-01-27T13:16:31Z</time></trkpt>
   <trkpt lat="31.190196" lon="35.32154"><ele>146.8</ele><name>TP06139</name><time>2020-01-27T13:16:33Z</time></trkpt>
   <trkpt lat="31.190193" lon="35.321552"><ele>146.7</ele><name>TP06140</name><time>2020-01-27T13:16:34Z</time></trkpt>
   <trkpt lat="31.190196" lon="35.321583"><ele>146.7</ele><name>TP06141</name><time>2020-01-27T13:16:36Z</time></trkpt>
   <trkpt lat="31.19021" lon="35.321621"><ele>146.6</ele><name>TP06142</name><time>2020-01-27T13:16:37Z</time></trkpt>
   <trkpt lat="31.190213" lon="35.321634"><ele>146.6</ele><name>TP06143</name><time>2020-01-27T13:16:38Z</time></trkpt>
   <trkpt lat="31.190218" lon="35.321671"><ele>146.6</ele><name>TP06144</name><time>2020-01-27T13:16:39Z</time></trkpt>
   <trkpt lat="31.190219" lon="35.321685"><ele>146.6</ele><name>TP06145</name><time>2020-01-27T13:16:40Z</time></trkpt>
   <trkpt lat="31.190236" lon="35.321737"><ele>146.5</ele><name>TP06146</name><time>2020-01-27T13:16:42Z</time></trkpt>
   <trkpt lat="31.190243" lon="35.321755"><ele>146.6</ele><name>TP06147</name><time>2020-01-27T13:16:43Z</time></trkpt>
   <trkpt lat="31.190249" lon="35.321772"><ele>146.6</ele><name>TP06148</name><time>2020-01-27T13:16:44Z</time></trkpt>
   <trkpt lat="31.190266" lon="35.321814"><ele>146.7</ele><name>TP06149</name><time>2020-01-27T13:16:46Z</time></trkpt>
   <trkpt lat="31.190283" lon="35.321845"><ele>146.9</ele><name>TP06150</name><time>2020-01-27T13:16:47Z</time></trkpt>
   <trkpt lat="31.190297" lon="35.321865"><ele>147.2</ele><name>TP06151</name><time>2020-01-27T13:16:48Z</time></trkpt>
   <trkpt lat="31.190309" lon="35.321895"><ele>147.6</ele><name>TP06152</name><time>2020-01-27T13:16:50Z</time></trkpt>
   <trkpt lat="31.190323" lon="35.321923"><ele>148</ele><name>TP06153</name><time>2020-01-27T13:16:51Z</time></trkpt>
   <trkpt lat="31.190336" lon="35.321956"><ele>148.5</ele><name>TP06154</name><time>2020-01-27T13:16:52Z</time></trkpt>
   <trkpt lat="31.190339" lon="35.321966"><ele>148.6</ele><name>TP06155</name><time>2020-01-27T13:16:53Z</time></trkpt>
   <trkpt lat="31.190362" lon="35.32202"><ele>149.5</ele><name>TP06156</name><time>2020-01-27T13:16:55Z</time></trkpt>
   <trkpt lat="31.190369" lon="35.322039"><ele>149.8</ele><name>TP06157</name><time>2020-01-27T13:16:56Z</time></trkpt>
   <trkpt lat="31.190376" lon="35.322058"><ele>150.1</ele><name>TP06158</name><time>2020-01-27T13:16:57Z</time></trkpt>
   <trkpt lat="31.190392" lon="35.322109"><ele>150.8</ele><name>TP06159</name><time>2020-01-27T13:16:59Z</time></trkpt>
   <trkpt lat="31.190399" lon="35.32213"><ele>151.2</ele><name>TP06160</name><time>2020-01-27T13:17:00Z</time></trkpt>
   <trkpt lat="31.190405" lon="35.322151"><ele>151.5</ele><name>TP06161</name><time>2020-01-27T13:17:01Z</time></trkpt>
   <trkpt lat="31.190433" lon="35.322195"><ele>152.2</ele><name>TP06162</name><time>2020-01-27T13:17:03Z</time></trkpt>
   <trkpt lat="31.190438" lon="35.322213"><ele>152.4</ele><name>TP06163</name><time>2020-01-27T13:17:04Z</time></trkpt>
   <trkpt lat="31.190443" lon="35.322231"><ele>152.7</ele><name>TP06164</name><time>2020-01-27T13:17:05Z</time></trkpt>
   <trkpt lat="31.190451" lon="35.322266"><ele>153.1</ele><name>TP06165</name><time>2020-01-27T13:17:07Z</time></trkpt>
   <trkpt lat="31.190453" lon="35.322273"><ele>153.2</ele><name>TP06166</name><time>2020-01-27T13:17:08Z</time></trkpt>
   <trkpt lat="31.190463" lon="35.322303"><ele>153.6</ele><name>TP06167</name><time>2020-01-27T13:17:09Z</time></trkpt>
   <trkpt lat="31.190468" lon="35.322315"><ele>153.8</ele><name>TP06168</name><time>2020-01-27T13:17:10Z</time></trkpt>
   <trkpt lat="31.190479" lon="35.322345"><ele>154.1</ele><name>TP06169</name><time>2020-01-27T13:17:12Z</time></trkpt>
   <trkpt lat="31.190484" lon="35.322365"><ele>154.4</ele><name>TP06170</name><time>2020-01-27T13:17:13Z</time></trkpt>
   <trkpt lat="31.190489" lon="35.322378"><ele>154.5</ele><name>TP06171</name><time>2020-01-27T13:17:14Z</time></trkpt>
   <trkpt lat="31.190498" lon="35.322393"><ele>154.6</ele><name>TP06172</name><time>2020-01-27T13:17:15Z</time></trkpt>
   <trkpt lat="31.190507" lon="35.32241"><ele>154.8</ele><name>TP06173</name><time>2020-01-27T13:17:17Z</time></trkpt>
   <trkpt lat="31.190514" lon="35.322428"><ele>155</ele><name>TP06174</name><time>2020-01-27T13:17:18Z</time></trkpt>
   <trkpt lat="31.190525" lon="35.322444"><ele>155.1</ele><name>TP06175</name><time>2020-01-27T13:17:19Z</time></trkpt>
   <trkpt lat="31.190537" lon="35.322462"><ele>155.3</ele><name>TP06176</name><time>2020-01-27T13:17:21Z</time></trkpt>
   <trkpt lat="31.190541" lon="35.322469"><ele>155.4</ele><name>TP06177</name><time>2020-01-27T13:17:22Z</time></trkpt>
   <trkpt lat="31.190544" lon="35.322484"><ele>155.6</ele><name>TP06178</name><time>2020-01-27T13:17:24Z</time></trkpt>
   <trkpt lat="31.190547" lon="35.322491"><ele>155.6</ele><name>TP06179</name><time>2020-01-27T13:17:25Z</time></trkpt>
   <trkpt lat="31.190551" lon="35.322497"><ele>155.7</ele><name>TP06180</name><time>2020-01-27T13:17:26Z</time></trkpt>
   <trkpt lat="31.190555" lon="35.322503"><ele>155.8</ele><name>TP06181</name><time>2020-01-27T13:17:27Z</time></trkpt>
   <trkpt lat="31.190559" lon="35.322509"><ele>155.9</ele><name>TP06182</name><time>2020-01-27T13:17:29Z</time></trkpt>
   <trkpt lat="31.190563" lon="35.322516"><ele>156</ele><name>TP06183</name><time>2020-01-27T13:17:31Z</time></trkpt>
   <trkpt lat="31.190567" lon="35.322522"><ele>156</ele><name>TP06184</name><time>2020-01-27T13:17:33Z</time></trkpt>
   <trkpt lat="31.190571" lon="35.322528"><ele>156.1</ele><name>TP06185</name><time>2020-01-27T13:17:35Z</time></trkpt>
   <trkpt lat="31.190575" lon="35.322534"><ele>156.2</ele><name>TP06186</name><time>2020-01-27T13:17:36Z</time></trkpt>
   <trkpt lat="31.190579" lon="35.32254"><ele>156.3</ele><name>TP06187</name><time>2020-01-27T13:17:38Z</time></trkpt>
   <trkpt lat="31.190583" lon="35.322546"><ele>156.3</ele><name>TP06188</name><time>2020-01-27T13:17:39Z</time></trkpt>
   <trkpt lat="31.190587" lon="35.322552"><ele>156.4</ele><name>TP06189</name><time>2020-01-27T13:17:41Z</time></trkpt>
   <trkpt lat="31.190591" lon="35.322558"><ele>156.5</ele><name>TP06190</name><time>2020-01-27T13:17:43Z</time></trkpt>
   <trkpt lat="31.190595" lon="35.322564"><ele>156.6</ele><name>TP06191</name><time>2020-01-27T13:17:44Z</time></trkpt>
   <trkpt lat="31.190599" lon="35.322571"><ele>156.7</ele><name>TP06192</name><time>2020-01-27T13:17:45Z</time></trkpt>
   <trkpt lat="31.190603" lon="35.322577"><ele>156.8</ele><name>TP06193</name><time>2020-01-27T13:17:46Z</time></trkpt>
   <trkpt lat="31.190607" lon="35.322583"><ele>156.8</ele><name>TP06194</name><time>2020-01-27T13:17:48Z</time></trkpt>
   <trkpt lat="31.190611" lon="35.322589"><ele>156.9</ele><name>TP06195</name><time>2020-01-27T13:17:50Z</time></trkpt>
   <trkpt lat="31.190615" lon="35.322595"><ele>157</ele><name>TP06196</name><time>2020-01-27T13:17:51Z</time></trkpt>
   <trkpt lat="31.190632" lon="35.322598"><ele>157.3</ele><name>TP06197</name><time>2020-01-27T13:17:52Z</time></trkpt>
   <trkpt lat="31.190645" lon="35.322602"><ele>157.5</ele><name>TP06198</name><time>2020-01-27T13:17:54Z</time></trkpt>
   <trkpt lat="31.190652" lon="35.322608"><ele>157.6</ele><name>TP06199</name><time>2020-01-27T13:17:56Z</time></trkpt>
   <trkpt lat="31.190657" lon="35.322605"><ele>157.7</ele><name>TP06200</name><time>2020-01-27T13:17:58Z</time></trkpt>
   <trkpt lat="31.190662" lon="35.322601"><ele>157.7</ele><name>TP06201</name><time>2020-01-27T13:18:00Z</time></trkpt>
   <trkpt lat="31.190665" lon="35.322597"><ele>157.8</ele><name>TP06202</name><time>2020-01-27T13:18:02Z</time></trkpt>
   <trkpt lat="31.190668" lon="35.322592"><ele>157.9</ele><name>TP06203</name><time>2020-01-27T13:18:04Z</time></trkpt>
   <trkpt lat="31.190632" lon="35.322594"><ele>158.4</ele><name>TP06204</name><time>2020-01-27T13:18:06Z</time></trkpt>
   <trkpt lat="31.190621" lon="35.322597"><ele>158.6</ele><name>TP06205</name><time>2020-01-27T13:18:07Z</time></trkpt>
   <trkpt lat="31.190616" lon="35.322598"><ele>158.7</ele><name>TP06206</name><time>2020-01-27T13:18:08Z</time></trkpt>
   <trkpt lat="31.190611" lon="35.322599"><ele>158.7</ele><name>TP06207</name><time>2020-01-27T13:18:10Z</time></trkpt>
   <trkpt lat="31.190611" lon="35.322599"><ele>158.7</ele><name>TP06208</name><time>2020-01-27T13:18:11Z</time></trkpt>
   <trkpt lat="31.19061" lon="35.3226"><ele>158.8</ele><name>TP06209</name><time>2020-01-27T13:18:13Z</time></trkpt>
   <trkpt lat="31.19061" lon="35.3226"><ele>158.8</ele><name>TP06210</name><time>2020-01-27T13:18:14Z</time></trkpt>
   <trkpt lat="31.19061" lon="35.3226"><ele>158.8</ele><name>TP06211</name><time>2020-01-27T13:18:16Z</time></trkpt>
   <trkpt lat="31.19061" lon="35.3226"><ele>158.8</ele><name>TP06212</name><time>2020-01-27T13:18:18Z</time></trkpt>
   <trkpt lat="31.19061" lon="35.3226"><ele>158.8</ele><name>TP06213</name><time>2020-01-27T13:18:19Z</time></trkpt>
   <trkpt lat="31.190614" lon="35.3226"><ele>158.8</ele><name>TP06214</name><time>2020-01-27T13:18:20Z</time></trkpt>
   <trkpt lat="31.190626" lon="35.322602"><ele>159</ele><name>TP06215</name><time>2020-01-27T13:18:21Z</time></trkpt>
   <trkpt lat="31.190637" lon="35.322606"><ele>159.2</ele><name>TP06216</name><time>2020-01-27T13:18:23Z</time></trkpt>
   <trkpt lat="31.190651" lon="35.322613"><ele>159.5</ele><name>TP06217</name><time>2020-01-27T13:18:25Z</time></trkpt>
   <trkpt lat="31.190651" lon="35.322611"><ele>159.5</ele><name>TP06218</name><time>2020-01-27T13:18:26Z</time></trkpt>
   <trkpt lat="31.19065" lon="35.322612"><ele>159.6</ele><name>TP06219</name><time>2020-01-27T13:18:27Z</time></trkpt>
   <trkpt lat="31.190652" lon="35.322616"><ele>159.7</ele><name>TP06220</name><time>2020-01-27T13:18:28Z</time></trkpt>
   <trkpt lat="31.190656" lon="35.322624"><ele>159.8</ele><name>TP06221</name><time>2020-01-27T13:18:30Z</time></trkpt>
   <trkpt lat="31.19066" lon="35.322627"><ele>159.9</ele><name>TP06222</name><time>2020-01-27T13:18:31Z</time></trkpt>
   <trkpt lat="31.190648" lon="35.322615"><ele>160.3</ele><name>TP06223</name><time>2020-01-27T13:18:33Z</time></trkpt>
   <trkpt lat="31.190653" lon="35.32262"><ele>160.5</ele><name>TP06224</name><time>2020-01-27T13:18:35Z</time></trkpt>
   <trkpt lat="31.190661" lon="35.322626"><ele>160.7</ele><name>TP06225</name><time>2020-01-27T13:18:36Z</time></trkpt>
   <trkpt lat="31.190669" lon="35.322631"><ele>160.9</ele><name>TP06226</name><time>2020-01-27T13:18:37Z</time></trkpt>
   <trkpt lat="31.190677" lon="35.322638"><ele>161.1</ele><name>TP06227</name><time>2020-01-27T13:18:38Z</time></trkpt>
   <trkpt lat="31.19069" lon="35.322648"><ele>161.5</ele><name>TP06228</name><time>2020-01-27T13:18:40Z</time></trkpt>
   <trkpt lat="31.190701" lon="35.322655"><ele>161.8</ele><name>TP06229</name><time>2020-01-27T13:18:42Z</time></trkpt>
   <trkpt lat="31.19071" lon="35.322663"><ele>162.1</ele><name>TP06230</name><time>2020-01-27T13:18:43Z</time></trkpt>
   <trkpt lat="31.190717" lon="35.322669"><ele>162.3</ele><name>TP06231</name><time>2020-01-27T13:18:44Z</time></trkpt>
   <trkpt lat="31.190731" lon="35.322676"><ele>162.7</ele><name>TP06232</name><time>2020-01-27T13:18:46Z</time></trkpt>
   <trkpt lat="31.190735" lon="35.322678"><ele>162.8</ele><name>TP06233</name><time>2020-01-27T13:18:47Z</time></trkpt>
   <trkpt lat="31.190742" lon="35.322686"><ele>163</ele><name>TP06234</name><time>2020-01-27T13:18:49Z</time></trkpt>
   <trkpt lat="31.190747" lon="35.322692"><ele>163.2</ele><name>TP06235</name><time>2020-01-27T13:18:50Z</time></trkpt>
   <trkpt lat="31.19076" lon="35.322701"><ele>163.5</ele><name>TP06236</name><time>2020-01-27T13:18:52Z</time></trkpt>
   <trkpt lat="31.190791" lon="35.322718"><ele>164.1</ele><name>TP06237</name><time>2020-01-27T13:18:53Z</time></trkpt>
   <trkpt lat="31.190803" lon="35.322726"><ele>164.3</ele><name>TP06238</name><time>2020-01-27T13:18:54Z</time></trkpt>
   <trkpt lat="31.190868" lon="35.322764"><ele>165.8</ele><name>TP06239</name><time>2020-01-27T13:18:57Z</time></trkpt>
   <trkpt lat="31.19088" lon="35.322771"><ele>166.1</ele><name>TP06240</name><time>2020-01-27T13:18:58Z</time></trkpt>
   <trkpt lat="31.190891" lon="35.322775"><ele>166.3</ele><name>TP06241</name><time>2020-01-27T13:18:59Z</time></trkpt>
   <trkpt lat="31.1909" lon="35.322776"><ele>166.4</ele><name>TP06242</name><time>2020-01-27T13:19:01Z</time></trkpt>
   <trkpt lat="31.190907" lon="35.322776"><ele>166.5</ele><name>TP06243</name><time>2020-01-27T13:19:03Z</time></trkpt>
   <trkpt lat="31.190909" lon="35.322776"><ele>166.5</ele><name>TP06244</name><time>2020-01-27T13:19:05Z</time></trkpt>
   <trkpt lat="31.190907" lon="35.322776"><ele>166.5</ele><name>TP06245</name><time>2020-01-27T13:19:06Z</time></trkpt>
   <trkpt lat="31.190903" lon="35.322776"><ele>166.6</ele><name>TP06246</name><time>2020-01-27T13:19:07Z</time></trkpt>
   <trkpt lat="31.190896" lon="35.322776"><ele>166.7</ele><name>TP06247</name><time>2020-01-27T13:19:09Z</time></trkpt>
   <trkpt lat="31.190893" lon="35.322776"><ele>166.7</ele><name>TP06248</name><time>2020-01-27T13:19:10Z</time></trkpt>
   <trkpt lat="31.190891" lon="35.322776"><ele>166.7</ele><name>TP06249</name><time>2020-01-27T13:19:11Z</time></trkpt>
   <trkpt lat="31.190889" lon="35.322777"><ele>166.8</ele><name>TP06250</name><time>2020-01-27T13:19:13Z</time></trkpt>
   <trkpt lat="31.190889" lon="35.322776"><ele>166.8</ele><name>TP06251</name><time>2020-01-27T13:19:15Z</time></trkpt>
   <trkpt lat="31.190889" lon="35.322775"><ele>166.8</ele><name>TP06252</name><time>2020-01-27T13:19:17Z</time></trkpt>
   <trkpt lat="31.190889" lon="35.322774"><ele>166.8</ele><name>TP06253</name><time>2020-01-27T13:19:18Z</time></trkpt>
   <trkpt lat="31.190889" lon="35.322774"><ele>166.8</ele><name>TP06254</name><time>2020-01-27T13:19:19Z</time></trkpt>
   <trkpt lat="31.19089" lon="35.322774"><ele>166.8</ele><name>TP06255</name><time>2020-01-27T13:19:20Z</time></trkpt>
   <trkpt lat="31.19089" lon="35.322774"><ele>166.8</ele><name>TP06256</name><time>2020-01-27T13:19:22Z</time></trkpt>
   <trkpt lat="31.190889" lon="35.322774"><ele>166.8</ele><name>TP06257</name><time>2020-01-27T13:19:23Z</time></trkpt>
   <trkpt lat="31.190887" lon="35.322776"><ele>166.9</ele><name>TP06258</name><time>2020-01-27T13:19:25Z</time></trkpt>
   <trkpt lat="31.190885" lon="35.322777"><ele>166.9</ele><name>TP06259</name><time>2020-01-27T13:19:26Z</time></trkpt>
   <trkpt lat="31.190884" lon="35.322777"><ele>166.9</ele><name>TP06260</name><time>2020-01-27T13:19:28Z</time></trkpt>
   <trkpt lat="31.190884" lon="35.322777"><ele>166.9</ele><name>TP06261</name><time>2020-01-27T13:19:29Z</time></trkpt>
   <trkpt lat="31.190884" lon="35.322777"><ele>166.9</ele><name>TP06262</name><time>2020-01-27T13:19:31Z</time></trkpt>
   <trkpt lat="31.190884" lon="35.322777"><ele>166.9</ele><name>TP06263</name><time>2020-01-27T13:19:33Z</time></trkpt>
   <trkpt lat="31.190885" lon="35.322776"><ele>166.9</ele><name>TP06264</name><time>2020-01-27T13:19:34Z</time></trkpt>
   <trkpt lat="31.190898" lon="35.322777"><ele>167</ele><name>TP06265</name><time>2020-01-27T13:19:36Z</time></trkpt>
   <trkpt lat="31.190908" lon="35.322778"><ele>167</ele><name>TP06266</name><time>2020-01-27T13:19:37Z</time></trkpt>
   <trkpt lat="31.190933" lon="35.322781"><ele>167.1</ele><name>TP06267</name><time>2020-01-27T13:19:39Z</time></trkpt>
   <trkpt lat="31.190943" lon="35.32278"><ele>167.1</ele><name>TP06268</name><time>2020-01-27T13:19:40Z</time></trkpt>
   <trkpt lat="31.190966" lon="35.322778"><ele>167.1</ele><name>TP06269</name><time>2020-01-27T13:19:42Z</time></trkpt>
   <trkpt lat="31.190977" lon="35.322776"><ele>167</ele><name>TP06270</name><time>2020-01-27T13:19:43Z</time></trkpt>
   <trkpt lat="31.190993" lon="35.322774"><ele>166.9</ele><name>TP06271</name><time>2020-01-27T13:19:45Z</time></trkpt>
   <trkpt lat="31.191003" lon="35.322772"><ele>166.9</ele><name>TP06272</name><time>2020-01-27T13:19:46Z</time></trkpt>
   <trkpt lat="31.191011" lon="35.322766"><ele>166.8</ele><name>TP06273</name><time>2020-01-27T13:19:48Z</time></trkpt>
   <trkpt lat="31.191018" lon="35.322769"><ele>166.8</ele><name>TP06274</name><time>2020-01-27T13:19:49Z</time></trkpt>
   <trkpt lat="31.191026" lon="35.322774"><ele>166.7</ele><name>TP06275</name><time>2020-01-27T13:19:51Z</time></trkpt>
   <trkpt lat="31.191036" lon="35.322776"><ele>166.6</ele><name>TP06276</name><time>2020-01-27T13:19:52Z</time></trkpt>
   <trkpt lat="31.191055" lon="35.322786"><ele>166.4</ele><name>TP06277</name><time>2020-01-27T13:19:53Z</time></trkpt>
   <trkpt lat="31.191065" lon="35.32279"><ele>166.3</ele><name>TP06278</name><time>2020-01-27T13:19:54Z</time></trkpt>
   <trkpt lat="31.191075" lon="35.322795"><ele>166.1</ele><name>TP06279</name><time>2020-01-27T13:19:55Z</time></trkpt>
   <trkpt lat="31.191097" lon="35.322807"><ele>165.8</ele><name>TP06280</name><time>2020-01-27T13:19:57Z</time></trkpt>
   <trkpt lat="31.191114" lon="35.322817"><ele>165.6</ele><name>TP06281</name><time>2020-01-27T13:19:59Z</time></trkpt>
   <trkpt lat="31.191134" lon="35.322831"><ele>165.2</ele><name>TP06282</name><time>2020-01-27T13:20:01Z</time></trkpt>
   <trkpt lat="31.191147" lon="35.32284"><ele>164.9</ele><name>TP06283</name><time>2020-01-27T13:20:03Z</time></trkpt>
   <trkpt lat="31.191157" lon="35.322852"><ele>164.7</ele><name>TP06284</name><time>2020-01-27T13:20:04Z</time></trkpt>
   <trkpt lat="31.191166" lon="35.322864"><ele>164.4</ele><name>TP06285</name><time>2020-01-27T13:20:05Z</time></trkpt>
   <trkpt lat="31.191176" lon="35.322878"><ele>164.2</ele><name>TP06286</name><time>2020-01-27T13:20:06Z</time></trkpt>
   <trkpt lat="31.191191" lon="35.322895"><ele>163.9</ele><name>TP06287</name><time>2020-01-27T13:20:08Z</time></trkpt>
   <trkpt lat="31.191205" lon="35.322913"><ele>163.7</ele><name>TP06288</name><time>2020-01-27T13:20:09Z</time></trkpt>
   <trkpt lat="31.191214" lon="35.322926"><ele>163.6</ele><name>TP06289</name><time>2020-01-27T13:20:10Z</time></trkpt>
   <trkpt lat="31.191224" lon="35.322943"><ele>163.5</ele><name>TP06290</name><time>2020-01-27T13:20:12Z</time></trkpt>
   <trkpt lat="31.191233" lon="35.32296"><ele>163.4</ele><name>TP06291</name><time>2020-01-27T13:20:13Z</time></trkpt>
   <trkpt lat="31.191245" lon="35.322981"><ele>163.2</ele><name>TP06292</name><time>2020-01-27T13:20:14Z</time></trkpt>
   <trkpt lat="31.191249" lon="35.322988"><ele>163.1</ele><name>TP06293</name><time>2020-01-27T13:20:15Z</time></trkpt>
   <trkpt lat="31.191253" lon="35.322996"><ele>163.1</ele><name>TP06294</name><time>2020-01-27T13:20:16Z</time></trkpt>
   <trkpt lat="31.191257" lon="35.323003"><ele>163</ele><name>TP06295</name><time>2020-01-27T13:20:17Z</time></trkpt>
   <trkpt lat="31.191267" lon="35.323018"><ele>162.9</ele><name>TP06296</name><time>2020-01-27T13:20:19Z</time></trkpt>
   <trkpt lat="31.191271" lon="35.32303"><ele>162.9</ele><name>TP06297</name><time>2020-01-27T13:20:20Z</time></trkpt>
   <trkpt lat="31.191279" lon="35.323043"><ele>162.8</ele><name>TP06298</name><time>2020-01-27T13:20:22Z</time></trkpt>
   <trkpt lat="31.191285" lon="35.32305"><ele>162.8</ele><name>TP06299</name><time>2020-01-27T13:20:23Z</time></trkpt>
   <trkpt lat="31.191294" lon="35.323058"><ele>162.7</ele><name>TP06300</name><time>2020-01-27T13:20:24Z</time></trkpt>
   <trkpt lat="31.1913" lon="35.323062"><ele>162.7</ele><name>TP06301</name><time>2020-01-27T13:20:25Z</time></trkpt>
   <trkpt lat="31.191304" lon="35.323067"><ele>162.6</ele><name>TP06302</name><time>2020-01-27T13:20:27Z</time></trkpt>
   <trkpt lat="31.191304" lon="35.323069"><ele>162.5</ele><name>TP06303</name><time>2020-01-27T13:20:28Z</time></trkpt>
   <trkpt lat="31.191305" lon="35.32307"><ele>162.5</ele><name>TP06304</name><time>2020-01-27T13:20:30Z</time></trkpt>
   <trkpt lat="31.191299" lon="35.323055"><ele>162.2</ele><name>TP06305</name><time>2020-01-27T13:20:32Z</time></trkpt>
   <trkpt lat="31.1913" lon="35.323058"><ele>162.1</ele><name>TP06306</name><time>2020-01-27T13:20:33Z</time></trkpt>
   <trkpt lat="31.191302" lon="35.32306"><ele>162</ele><name>TP06307</name><time>2020-01-27T13:20:34Z</time></trkpt>
   <trkpt lat="31.191305" lon="35.323065"><ele>161.9</ele><name>TP06308</name><time>2020-01-27T13:20:36Z</time></trkpt>
   <trkpt lat="31.191305" lon="35.323065"><ele>161.9</ele><name>TP06309</name><time>2020-01-27T13:20:38Z</time></trkpt>
   <trkpt lat="31.191305" lon="35.323065"><ele>161.9</ele><name>TP06310</name><time>2020-01-27T13:20:40Z</time></trkpt>
   <trkpt lat="31.191304" lon="35.323072"><ele>161.8</ele><name>TP06311</name><time>2020-01-27T13:20:41Z</time></trkpt>
   <trkpt lat="31.191305" lon="35.323074"><ele>161.7</ele><name>TP06312</name><time>2020-01-27T13:20:42Z</time></trkpt>
   <trkpt lat="31.191306" lon="35.323075"><ele>161.7</ele><name>TP06313</name><time>2020-01-27T13:20:44Z</time></trkpt>
   <trkpt lat="31.191305" lon="35.323075"><ele>161.7</ele><name>TP06314</name><time>2020-01-27T13:20:45Z</time></trkpt>
   <trkpt lat="31.191305" lon="35.323075"><ele>161.7</ele><name>TP06315</name><time>2020-01-27T13:20:46Z</time></trkpt>
   <trkpt lat="31.191305" lon="35.323076"><ele>161.7</ele><name>TP06316</name><time>2020-01-27T13:20:47Z</time></trkpt>
   <trkpt lat="31.191305" lon="35.323075"><ele>161.6</ele><name>TP06317</name><time>2020-01-27T13:20:48Z</time></trkpt>
   <trkpt lat="31.191305" lon="35.323075"><ele>161.6</ele><name>TP06318</name><time>2020-01-27T13:20:49Z</time></trkpt>
   <trkpt lat="31.191305" lon="35.323075"><ele>161.6</ele><name>TP06319</name><time>2020-01-27T13:20:51Z</time></trkpt>
   <trkpt lat="31.191305" lon="35.323074"><ele>161.6</ele><name>TP06320</name><time>2020-01-27T13:20:52Z</time></trkpt>
   <trkpt lat="31.191304" lon="35.323075"><ele>161.6</ele><name>TP06321</name><time>2020-01-27T13:20:54Z</time></trkpt>
   <trkpt lat="31.191303" lon="35.323075"><ele>161.6</ele><name>TP06322</name><time>2020-01-27T13:20:56Z</time></trkpt>
   <trkpt lat="31.191302" lon="35.323077"><ele>161.5</ele><name>TP06323</name><time>2020-01-27T13:20:57Z</time></trkpt>
   <trkpt lat="31.191302" lon="35.323076"><ele>161.5</ele><name>TP06324</name><time>2020-01-27T13:20:58Z</time></trkpt>
   <trkpt lat="31.191301" lon="35.323076"><ele>161.5</ele><name>TP06325</name><time>2020-01-27T13:21:00Z</time></trkpt>
   <trkpt lat="31.1913" lon="35.323076"><ele>161.4</ele><name>TP06326</name><time>2020-01-27T13:21:02Z</time></trkpt>
   <trkpt lat="31.191301" lon="35.323076"><ele>161.4</ele><name>TP06327</name><time>2020-01-27T13:21:04Z</time></trkpt>
   <trkpt lat="31.191302" lon="35.323078"><ele>161.4</ele><name>TP06328</name><time>2020-01-27T13:21:06Z</time></trkpt>
   <trkpt lat="31.191302" lon="35.323077"><ele>161.4</ele><name>TP06329</name><time>2020-01-27T13:21:08Z</time></trkpt>
   <trkpt lat="31.191302" lon="35.323076"><ele>161.3</ele><name>TP06330</name><time>2020-01-27T13:21:10Z</time></trkpt>
   <trkpt lat="31.191303" lon="35.323076"><ele>161.3</ele><name>TP06331</name><time>2020-01-27T13:21:11Z</time></trkpt>
   <trkpt lat="31.191304" lon="35.323076"><ele>161.3</ele><name>TP06332</name><time>2020-01-27T13:21:13Z</time></trkpt>
   <trkpt lat="31.191305" lon="35.323076"><ele>161.3</ele><name>TP06333</name><time>2020-01-27T13:21:14Z</time></trkpt>
   <trkpt lat="31.191305" lon="35.323075"><ele>161.2</ele><name>TP06334</name><time>2020-01-27T13:21:16Z</time></trkpt>
   <trkpt lat="31.191306" lon="35.323075"><ele>161.2</ele><name>TP06335</name><time>2020-01-27T13:21:18Z</time></trkpt>
   <trkpt lat="31.191306" lon="35.323075"><ele>161.2</ele><name>TP06336</name><time>2020-01-27T13:21:19Z</time></trkpt>
   <trkpt lat="31.191306" lon="35.323075"><ele>161.2</ele><name>TP06337</name><time>2020-01-27T13:21:21Z</time></trkpt>
   <trkpt lat="31.191305" lon="35.323075"><ele>161.2</ele><name>TP06338</name><time>2020-01-27T13:21:23Z</time></trkpt>
   <trkpt lat="31.191305" lon="35.323075"><ele>161.2</ele><name>TP06339</name><time>2020-01-27T13:21:24Z</time></trkpt>
   <trkpt lat="31.191305" lon="35.323075"><ele>161.2</ele><name>TP06340</name><time>2020-01-27T13:21:26Z</time></trkpt>
   <trkpt lat="31.191305" lon="35.323075"><ele>161.2</ele><name>TP06341</name><time>2020-01-27T13:21:27Z</time></trkpt>
   <trkpt lat="31.191305" lon="35.323075"><ele>161.2</ele><name>TP06342</name><time>2020-01-27T13:21:29Z</time></trkpt>
   <trkpt lat="31.191305" lon="35.323075"><ele>161.2</ele><name>TP06343</name><time>2020-01-27T13:21:31Z</time></trkpt>
   <trkpt lat="31.191305" lon="35.323075"><ele>161.2</ele><name>TP06344</name><time>2020-01-27T13:21:32Z</time></trkpt>
   <trkpt lat="31.191306" lon="35.323076"><ele>161.2</ele><name>TP06345</name><time>2020-01-27T13:21:34Z</time></trkpt>
   <trkpt lat="31.191306" lon="35.323076"><ele>161.2</ele><name>TP06346</name><time>2020-01-27T13:21:35Z</time></trkpt>
   <trkpt lat="31.191306" lon="35.323077"><ele>161.1</ele><name>TP06347</name><time>2020-01-27T13:21:37Z</time></trkpt>
   <trkpt lat="31.191306" lon="35.323077"><ele>161.1</ele><name>TP06348</name><time>2020-01-27T13:21:38Z</time></trkpt>
   <trkpt lat="31.191309" lon="35.323076"><ele>161.1</ele><name>TP06349</name><time>2020-01-27T13:21:40Z</time></trkpt>
   <trkpt lat="31.191311" lon="35.323075"><ele>161</ele><name>TP06350</name><time>2020-01-27T13:21:42Z</time></trkpt>
   <trkpt lat="31.191312" lon="35.323074"><ele>161</ele><name>TP06351</name><time>2020-01-27T13:21:44Z</time></trkpt>
   <trkpt lat="31.191313" lon="35.323074"><ele>161</ele><name>TP06352</name><time>2020-01-27T13:21:46Z</time></trkpt>
   <trkpt lat="31.191313" lon="35.323075"><ele>160.9</ele><name>TP06353</name><time>2020-01-27T13:21:47Z</time></trkpt>
   <trkpt lat="31.191312" lon="35.323076"><ele>160.9</ele><name>TP06354</name><time>2020-01-27T13:21:48Z</time></trkpt>
   <trkpt lat="31.191311" lon="35.323077"><ele>160.9</ele><name>TP06355</name><time>2020-01-27T13:21:49Z</time></trkpt>
   <trkpt lat="31.19131" lon="35.32308"><ele>160.9</ele><name>TP06356</name><time>2020-01-27T13:21:51Z</time></trkpt>
   <trkpt lat="31.191309" lon="35.323081"><ele>160.9</ele><name>TP06357</name><time>2020-01-27T13:21:52Z</time></trkpt>
   <trkpt lat="31.191307" lon="35.323083"><ele>160.9</ele><name>TP06358</name><time>2020-01-27T13:21:54Z</time></trkpt>
   <trkpt lat="31.191306" lon="35.323085"><ele>160.9</ele><name>TP06359</name><time>2020-01-27T13:21:56Z</time></trkpt>
   <trkpt lat="31.191306" lon="35.323085"><ele>160.9</ele><name>TP06360</name><time>2020-01-27T13:21:57Z</time></trkpt>
   <trkpt lat="31.191305" lon="35.323086"><ele>160.9</ele><name>TP06361</name><time>2020-01-27T13:21:59Z</time></trkpt>
   <trkpt lat="31.191305" lon="35.323087"><ele>160.9</ele><name>TP06362</name><time>2020-01-27T13:22:01Z</time></trkpt>
   <trkpt lat="31.191305" lon="35.323088"><ele>160.9</ele><name>TP06363</name><time>2020-01-27T13:22:03Z</time></trkpt>
   <trkpt lat="31.191304" lon="35.323088"><ele>160.9</ele><name>TP06364</name><time>2020-01-27T13:22:04Z</time></trkpt>
   <trkpt lat="31.191304" lon="35.323088"><ele>160.9</ele><name>TP06365</name><time>2020-01-27T13:22:05Z</time></trkpt>
   <trkpt lat="31.191304" lon="35.323088"><ele>160.9</ele><name>TP06366</name><time>2020-01-27T13:22:06Z</time></trkpt>
   <trkpt lat="31.191304" lon="35.323088"><ele>160.9</ele><name>TP06367</name><time>2020-01-27T13:22:07Z</time></trkpt>
   <trkpt lat="31.191304" lon="35.323088"><ele>160.9</ele><name>TP06368</name><time>2020-01-27T13:22:09Z</time></trkpt>
   <trkpt lat="31.191304" lon="35.323088"><ele>160.9</ele><name>TP06369</name><time>2020-01-27T13:22:11Z</time></trkpt>
   <trkpt lat="31.191304" lon="35.323088"><ele>160.9</ele><name>TP06370</name><time>2020-01-27T13:22:13Z</time></trkpt>
   <trkpt lat="31.191304" lon="35.323088"><ele>160.9</ele><name>TP06371</name><time>2020-01-27T13:22:14Z</time></trkpt>
   <trkpt lat="31.191303" lon="35.323088"><ele>160.9</ele><name>TP06372</name><time>2020-01-27T13:22:16Z</time></trkpt>
   <trkpt lat="31.191303" lon="35.323088"><ele>160.9</ele><name>TP06373</name><time>2020-01-27T13:22:18Z</time></trkpt>
   <trkpt lat="31.191303" lon="35.323087"><ele>160.9</ele><name>TP06374</name><time>2020-01-27T13:22:20Z</time></trkpt>
   <trkpt lat="31.191303" lon="35.323087"><ele>160.9</ele><name>TP06375</name><time>2020-01-27T13:22:21Z</time></trkpt>
   <trkpt lat="31.191303" lon="35.323087"><ele>160.9</ele><name>TP06376</name><time>2020-01-27T13:22:22Z</time></trkpt>
   <trkpt lat="31.191302" lon="35.323087"><ele>160.9</ele><name>TP06377</name><time>2020-01-27T13:22:24Z</time></trkpt>
   <trkpt lat="31.191302" lon="35.323088"><ele>160.9</ele><name>TP06378</name><time>2020-01-27T13:22:25Z</time></trkpt>
   <trkpt lat="31.191302" lon="35.323088"><ele>160.9</ele><name>TP06379</name><time>2020-01-27T13:22:26Z</time></trkpt>
   <trkpt lat="31.191301" lon="35.323088"><ele>160.9</ele><name>TP06380</name><time>2020-01-27T13:22:28Z</time></trkpt>
   <trkpt lat="31.191301" lon="35.323088"><ele>160.9</ele><name>TP06381</name><time>2020-01-27T13:22:30Z</time></trkpt>
   <trkpt lat="31.191301" lon="35.323088"><ele>160.9</ele><name>TP06382</name><time>2020-01-27T13:22:32Z</time></trkpt>
   <trkpt lat="31.191301" lon="35.323088"><ele>160.9</ele><name>TP06383</name><time>2020-01-27T13:22:34Z</time></trkpt>
   <trkpt lat="31.1913" lon="35.323088"><ele>160.9</ele><name>TP06384</name><time>2020-01-27T13:22:35Z</time></trkpt>
   <trkpt lat="31.1913" lon="35.323088"><ele>160.9</ele><name>TP06385</name><time>2020-01-27T13:22:37Z</time></trkpt>
   <trkpt lat="31.1913" lon="35.323088"><ele>160.9</ele><name>TP06386</name><time>2020-01-27T13:22:38Z</time></trkpt>
   <trkpt lat="31.191299" lon="35.323088"><ele>160.9</ele><name>TP06387</name><time>2020-01-27T13:22:40Z</time></trkpt>
   <trkpt lat="31.191302" lon="35.323088"><ele>160.9</ele><name>TP06388</name><time>2020-01-27T13:22:42Z</time></trkpt>
   <trkpt lat="31.191304" lon="35.323088"><ele>160.9</ele><name>TP06389</name><time>2020-01-27T13:22:43Z</time></trkpt>
   <trkpt lat="31.191304" lon="35.323086"><ele>160.9</ele><name>TP06390</name><time>2020-01-27T13:22:44Z</time></trkpt>
   <trkpt lat="31.191304" lon="35.323085"><ele>160.9</ele><name>TP06391</name><time>2020-01-27T13:22:45Z</time></trkpt>
   <trkpt lat="31.191304" lon="35.323084"><ele>160.9</ele><name>TP06392</name><time>2020-01-27T13:22:46Z</time></trkpt>
   <trkpt lat="31.191305" lon="35.323082"><ele>160.9</ele><name>TP06393</name><time>2020-01-27T13:22:48Z</time></trkpt>
   <trkpt lat="31.191305" lon="35.32308"><ele>160.9</ele><name>TP06394</name><time>2020-01-27T13:22:50Z</time></trkpt>
   <trkpt lat="31.191305" lon="35.32308"><ele>160.9</ele><name>TP06395</name><time>2020-01-27T13:22:51Z</time></trkpt>
   <trkpt lat="31.191305" lon="35.323079"><ele>160.9</ele><name>TP06396</name><time>2020-01-27T13:22:53Z</time></trkpt>
   <trkpt lat="31.191305" lon="35.323079"><ele>160.9</ele><name>TP06397</name><time>2020-01-27T13:22:54Z</time></trkpt>
   <trkpt lat="31.191304" lon="35.323078"><ele>160.9</ele><name>TP06398</name><time>2020-01-27T13:22:56Z</time></trkpt>
   <trkpt lat="31.191304" lon="35.323078"><ele>160.9</ele><name>TP06399</name><time>2020-01-27T13:22:58Z</time></trkpt>
   <trkpt lat="31.191304" lon="35.323077"><ele>160.9</ele><name>TP06400</name><time>2020-01-27T13:22:59Z</time></trkpt>
   <trkpt lat="31.191303" lon="35.323076"><ele>160.9</ele><name>TP06401</name><time>2020-01-27T13:23:01Z</time></trkpt>
   <trkpt lat="31.191303" lon="35.323076"><ele>160.9</ele><name>TP06402</name><time>2020-01-27T13:23:03Z</time></trkpt>
   <trkpt lat="31.191303" lon="35.323076"><ele>160.9</ele><name>TP06403</name><time>2020-01-27T13:23:04Z</time></trkpt>
   <trkpt lat="31.191303" lon="35.323075"><ele>160.9</ele><name>TP06404</name><time>2020-01-27T13:23:06Z</time></trkpt>
   <trkpt lat="31.191303" lon="35.323075"><ele>160.9</ele><name>TP06405</name><time>2020-01-27T13:23:08Z</time></trkpt>
   <trkpt lat="31.191303" lon="35.323075"><ele>160.9</ele><name>TP06406</name><time>2020-01-27T13:23:10Z</time></trkpt>
   <trkpt lat="31.191303" lon="35.323075"><ele>160.9</ele><name>TP06407</name><time>2020-01-27T13:23:12Z</time></trkpt>
   <trkpt lat="31.191303" lon="35.323074"><ele>160.9</ele><name>TP06408</name><time>2020-01-27T13:23:13Z</time></trkpt>
   <trkpt lat="31.191303" lon="35.323074"><ele>160.9</ele><name>TP06409</name><time>2020-01-27T13:23:15Z</time></trkpt>
   <trkpt lat="31.191302" lon="35.323074"><ele>160.9</ele><name>TP06410</name><time>2020-01-27T13:23:17Z</time></trkpt>
   <trkpt lat="31.191302" lon="35.323073"><ele>160.9</ele><name>TP06411</name><time>2020-01-27T13:23:18Z</time></trkpt>
   <trkpt lat="31.191302" lon="35.323073"><ele>160.9</ele><name>TP06412</name><time>2020-01-27T13:23:20Z</time></trkpt>
   <trkpt lat="31.191302" lon="35.323073"><ele>160.9</ele><name>TP06413</name><time>2020-01-27T13:23:21Z</time></trkpt>
   <trkpt lat="31.191302" lon="35.323073"><ele>160.9</ele><name>TP06414</name><time>2020-01-27T13:23:22Z</time></trkpt>
   <trkpt lat="31.191302" lon="35.323072"><ele>160.9</ele><name>TP06415</name><time>2020-01-27T13:23:23Z</time></trkpt>
   <trkpt lat="31.191302" lon="35.323072"><ele>160.9</ele><name>TP06416</name><time>2020-01-27T13:23:24Z</time></trkpt>
   <trkpt lat="31.191301" lon="35.323072"><ele>160.9</ele><name>TP06417</name><time>2020-01-27T13:23:26Z</time></trkpt>
   <trkpt lat="31.191301" lon="35.323072"><ele>160.9</ele><name>TP06418</name><time>2020-01-27T13:23:27Z</time></trkpt>
   <trkpt lat="31.191301" lon="35.323072"><ele>160.9</ele><name>TP06419</name><time>2020-01-27T13:23:28Z</time></trkpt>
   <trkpt lat="31.1913" lon="35.323072"><ele>160.9</ele><name>TP06420</name><time>2020-01-27T13:23:30Z</time></trkpt>
   <trkpt lat="31.1913" lon="35.323072"><ele>160.9</ele><name>TP06421</name><time>2020-01-27T13:23:31Z</time></trkpt>
   <trkpt lat="31.1913" lon="35.323072"><ele>160.9</ele><name>TP06422</name><time>2020-01-27T13:23:32Z</time></trkpt>
   <trkpt lat="31.191299" lon="35.323072"><ele>160.9</ele><name>TP06423</name><time>2020-01-27T13:23:34Z</time></trkpt>
   <trkpt lat="31.191299" lon="35.323072"><ele>160.9</ele><name>TP06424</name><time>2020-01-27T13:23:36Z</time></trkpt>
   <trkpt lat="31.191298" lon="35.323072"><ele>160.9</ele><name>TP06425</name><time>2020-01-27T13:23:38Z</time></trkpt>
   <trkpt lat="31.191298" lon="35.323073"><ele>160.9</ele><name>TP06426</name><time>2020-01-27T13:23:40Z</time></trkpt>
   <trkpt lat="31.191297" lon="35.323073"><ele>160.9</ele><name>TP06427</name><time>2020-01-27T13:23:42Z</time></trkpt>
   <trkpt lat="31.191297" lon="35.323073"><ele>160.9</ele><name>TP06428</name><time>2020-01-27T13:23:43Z</time></trkpt>
   <trkpt lat="31.191297" lon="35.323072"><ele>160.9</ele><name>TP06429</name><time>2020-01-27T13:23:45Z</time></trkpt>
   <trkpt lat="31.191297" lon="35.323072"><ele>160.9</ele><name>TP06430</name><time>2020-01-27T13:23:47Z</time></trkpt>
   <trkpt lat="31.191297" lon="35.323071"><ele>160.9</ele><name>TP06431</name><time>2020-01-27T13:23:48Z</time></trkpt>
   <trkpt lat="31.191297" lon="35.323071"><ele>160.9</ele><name>TP06432</name><time>2020-01-27T13:23:49Z</time></trkpt>
   <trkpt lat="31.191297" lon="35.32307"><ele>160.9</ele><name>TP06433</name><time>2020-01-27T13:23:51Z</time></trkpt>
   <trkpt lat="31.191297" lon="35.32307"><ele>160.9</ele><name>TP06434</name><time>2020-01-27T13:23:52Z</time></trkpt>
   <trkpt lat="31.191297" lon="35.32307"><ele>160.9</ele><name>TP06435</name><time>2020-01-27T13:23:54Z</time></trkpt>
   <trkpt lat="31.191296" lon="35.323069"><ele>160.9</ele><name>TP06436</name><time>2020-01-27T13:23:56Z</time></trkpt>
   <trkpt lat="31.191296" lon="35.323069"><ele>160.9</ele><name>TP06437</name><time>2020-01-27T13:23:57Z</time></trkpt>
   <trkpt lat="31.191296" lon="35.323069"><ele>160.9</ele><name>TP06438</name><time>2020-01-27T13:23:59Z</time></trkpt>
   <trkpt lat="31.191295" lon="35.323069"><ele>160.9</ele><name>TP06439</name><time>2020-01-27T13:24:00Z</time></trkpt>
   <trkpt lat="31.191295" lon="35.323069"><ele>160.9</ele><name>TP06440</name><time>2020-01-27T13:24:02Z</time></trkpt>
   <trkpt lat="31.191295" lon="35.323069"><ele>160.9</ele><name>TP06441</name><time>2020-01-27T13:24:03Z</time></trkpt>
   <trkpt lat="31.191295" lon="35.323069"><ele>160.9</ele><name>TP06442</name><time>2020-01-27T13:24:05Z</time></trkpt>
   <trkpt lat="31.191295" lon="35.323068"><ele>160.9</ele><name>TP06443</name><time>2020-01-27T13:24:07Z</time></trkpt>
   <trkpt lat="31.191295" lon="35.323068"><ele>160.9</ele><name>TP06444</name><time>2020-01-27T13:24:08Z</time></trkpt>
   <trkpt lat="31.191295" lon="35.323068"><ele>160.9</ele><name>TP06445</name><time>2020-01-27T13:24:10Z</time></trkpt>
   <trkpt lat="31.191295" lon="35.323067"><ele>160.9</ele><name>TP06446</name><time>2020-01-27T13:24:12Z</time></trkpt>
   <trkpt lat="31.191296" lon="35.323068"><ele>160.9</ele><name>TP06447</name><time>2020-01-27T13:24:13Z</time></trkpt>
   <trkpt lat="31.191296" lon="35.323067"><ele>160.9</ele><name>TP06448</name><time>2020-01-27T13:24:15Z</time></trkpt>
   <trkpt lat="31.191297" lon="35.323067"><ele>160.9</ele><name>TP06449</name><time>2020-01-27T13:24:16Z</time></trkpt>
   <trkpt lat="31.191297" lon="35.323067"><ele>160.9</ele><name>TP06450</name><time>2020-01-27T13:24:17Z</time></trkpt>
   <trkpt lat="31.191297" lon="35.323068"><ele>160.9</ele><name>TP06451</name><time>2020-01-27T13:24:19Z</time></trkpt>
   <trkpt lat="31.191298" lon="35.323068"><ele>160.9</ele><name>TP06452</name><time>2020-01-27T13:24:21Z</time></trkpt>
   <trkpt lat="31.191298" lon="35.323068"><ele>160.9</ele><name>TP06453</name><time>2020-01-27T13:24:22Z</time></trkpt>
   <trkpt lat="31.191298" lon="35.323068"><ele>160.9</ele><name>TP06454</name><time>2020-01-27T13:24:23Z</time></trkpt>
   <trkpt lat="31.191297" lon="35.323069"><ele>160.9</ele><name>TP06455</name><time>2020-01-27T13:24:25Z</time></trkpt>
   <trkpt lat="31.191297" lon="35.323069"><ele>160.9</ele><name>TP06456</name><time>2020-01-27T13:24:26Z</time></trkpt>
   <trkpt lat="31.191297" lon="35.323068"><ele>160.9</ele><name>TP06457</name><time>2020-01-27T13:24:28Z</time></trkpt>
   <trkpt lat="31.191297" lon="35.323068"><ele>160.9</ele><name>TP06458</name><time>2020-01-27T13:24:29Z</time></trkpt>
   <trkpt lat="31.191296" lon="35.323068"><ele>160.9</ele><name>TP06459</name><time>2020-01-27T13:24:31Z</time></trkpt>
   <trkpt lat="31.191296" lon="35.323068"><ele>160.9</ele><name>TP06460</name><time>2020-01-27T13:24:32Z</time></trkpt>
   <trkpt lat="31.191296" lon="35.323068"><ele>160.9</ele><name>TP06461</name><time>2020-01-27T13:24:34Z</time></trkpt>
   <trkpt lat="31.191296" lon="35.323068"><ele>160.9</ele><name>TP06462</name><time>2020-01-27T13:24:35Z</time></trkpt>
   <trkpt lat="31.191296" lon="35.323068"><ele>160.9</ele><name>TP06463</name><time>2020-01-27T13:24:36Z</time></trkpt>
   <trkpt lat="31.191296" lon="35.323068"><ele>160.9</ele><name>TP06464</name><time>2020-01-27T13:24:38Z</time></trkpt>
   <trkpt lat="31.191295" lon="35.323069"><ele>160.9</ele><name>TP06465</name><time>2020-01-27T13:24:40Z</time></trkpt>
   <trkpt lat="31.191294" lon="35.323069"><ele>160.9</ele><name>TP06466</name><time>2020-01-27T13:24:41Z</time></trkpt>
   <trkpt lat="31.191294" lon="35.323069"><ele>160.9</ele><name>TP06467</name><time>2020-01-27T13:24:43Z</time></trkpt>
   <trkpt lat="31.191293" lon="35.32307"><ele>160.9</ele><name>TP06468</name><time>2020-01-27T13:24:45Z</time></trkpt>
   <trkpt lat="31.191293" lon="35.32307"><ele>160.9</ele><name>TP06469</name><time>2020-01-27T13:24:46Z</time></trkpt>
   <trkpt lat="31.191293" lon="35.32307"><ele>160.9</ele><name>TP06470</name><time>2020-01-27T13:24:48Z</time></trkpt>
   <trkpt lat="31.191294" lon="35.323069"><ele>160.9</ele><name>TP06471</name><time>2020-01-27T13:24:50Z</time></trkpt>
   <trkpt lat="31.191294" lon="35.323069"><ele>160.9</ele><name>TP06472</name><time>2020-01-27T13:24:51Z</time></trkpt>
   <trkpt lat="31.191294" lon="35.323069"><ele>160.9</ele><name>TP06473</name><time>2020-01-27T13:24:53Z</time></trkpt>
   <trkpt lat="31.191294" lon="35.323069"><ele>160.9</ele><name>TP06474</name><time>2020-01-27T13:24:55Z</time></trkpt>
   <trkpt lat="31.191295" lon="35.323069"><ele>160.9</ele><name>TP06475</name><time>2020-01-27T13:24:57Z</time></trkpt>
   <trkpt lat="31.191295" lon="35.323069"><ele>160.9</ele><name>TP06476</name><time>2020-01-27T13:24:58Z</time></trkpt>
   <trkpt lat="31.191295" lon="35.323069"><ele>160.9</ele><name>TP06477</name><time>2020-01-27T13:24:59Z</time></trkpt>
   <trkpt lat="31.191295" lon="35.323069"><ele>160.9</ele><name>TP06478</name><time>2020-01-27T13:25:00Z</time></trkpt>
   <trkpt lat="31.191295" lon="35.323069"><ele>160.9</ele><name>TP06479</name><time>2020-01-27T13:25:02Z</time></trkpt>
   <trkpt lat="31.191295" lon="35.323069"><ele>160.9</ele><name>TP06480</name><time>2020-01-27T13:25:04Z</time></trkpt>
   <trkpt lat="31.191295" lon="35.323069"><ele>160.9</ele><name>TP06481</name><time>2020-01-27T13:25:06Z</time></trkpt>
   <trkpt lat="31.191295" lon="35.323069"><ele>160.9</ele><name>TP06482</name><time>2020-01-27T13:25:07Z</time></trkpt>
   <trkpt lat="31.191296" lon="35.323069"><ele>160.9</ele><name>TP06483</name><time>2020-01-27T13:25:09Z</time></trkpt>
   <trkpt lat="31.191296" lon="35.323069"><ele>160.9</ele><name>TP06484</name><time>2020-01-27T13:25:10Z</time></trkpt>
   <trkpt lat="31.191296" lon="35.323068"><ele>160.9</ele><name>TP06485</name><time>2020-01-27T13:25:12Z</time></trkpt>
   <trkpt lat="31.191297" lon="35.323068"><ele>160.9</ele><name>TP06486</name><time>2020-01-27T13:25:14Z</time></trkpt>
   <trkpt lat="31.191298" lon="35.323068"><ele>160.9</ele><name>TP06487</name><time>2020-01-27T13:25:15Z</time></trkpt>
   <trkpt lat="31.191298" lon="35.323067"><ele>160.9</ele><name>TP06488</name><time>2020-01-27T13:25:17Z</time></trkpt>
   <trkpt lat="31.191299" lon="35.323067"><ele>160.9</ele><name>TP06489</name><time>2020-01-27T13:25:18Z</time></trkpt>
   <trkpt lat="31.191299" lon="35.323068"><ele>161</ele><name>TP06490</name><time>2020-01-27T13:25:20Z</time></trkpt>
   <trkpt lat="31.191299" lon="35.323068"><ele>161</ele><name>TP06491</name><time>2020-01-27T13:25:22Z</time></trkpt>
   <trkpt lat="31.191299" lon="35.323068"><ele>161</ele><name>TP06492</name><time>2020-01-27T13:25:24Z</time></trkpt>
   <trkpt lat="31.191298" lon="35.323068"><ele>161</ele><name>TP06493</name><time>2020-01-27T13:25:25Z</time></trkpt>
   <trkpt lat="31.191298" lon="35.323068"><ele>161</ele><name>TP06494</name><time>2020-01-27T13:25:27Z</time></trkpt>
   <trkpt lat="31.191297" lon="35.323068"><ele>161</ele><name>TP06495</name><time>2020-01-27T13:25:28Z</time></trkpt>
   <trkpt lat="31.191297" lon="35.323068"><ele>161</ele><name>TP06496</name><time>2020-01-27T13:25:30Z</time></trkpt>
   <trkpt lat="31.191297" lon="35.323068"><ele>161</ele><name>TP06497</name><time>2020-01-27T13:25:32Z</time></trkpt>
   <trkpt lat="31.191297" lon="35.323068"><ele>161</ele><name>TP06498</name><time>2020-01-27T13:25:33Z</time></trkpt>
   <trkpt lat="31.191296" lon="35.323068"><ele>161</ele><name>TP06499</name><time>2020-01-27T13:25:35Z</time></trkpt>
   <trkpt lat="31.191296" lon="35.323068"><ele>161</ele><name>TP06500</name><time>2020-01-27T13:25:36Z</time></trkpt>
   <trkpt lat="31.191296" lon="35.323068"><ele>161</ele><name>TP06501</name><time>2020-01-27T13:25:38Z</time></trkpt>
   <trkpt lat="31.191295" lon="35.323068"><ele>161</ele><name>TP06502</name><time>2020-01-27T13:25:40Z</time></trkpt>
   <trkpt lat="31.191295" lon="35.323068"><ele>161</ele><name>TP06503</name><time>2020-01-27T13:25:41Z</time></trkpt>
   <trkpt lat="31.191294" lon="35.323068"><ele>161</ele><name>TP06504</name><time>2020-01-27T13:25:43Z</time></trkpt>
   <trkpt lat="31.191293" lon="35.323068"><ele>161</ele><name>TP06505</name><time>2020-01-27T13:25:45Z</time></trkpt>
   <trkpt lat="31.191293" lon="35.323068"><ele>161</ele><name>TP06506</name><time>2020-01-27T13:25:47Z</time></trkpt>
   <trkpt lat="31.191293" lon="35.323068"><ele>161</ele><name>TP06507</name><time>2020-01-27T13:25:48Z</time></trkpt>
   <trkpt lat="31.191293" lon="35.323068"><ele>161</ele><name>TP06508</name><time>2020-01-27T13:25:49Z</time></trkpt>
   <trkpt lat="31.191293" lon="35.323067"><ele>161</ele><name>TP06509</name><time>2020-01-27T13:25:51Z</time></trkpt>
   <trkpt lat="31.191294" lon="35.323067"><ele>161</ele><name>TP06510</name><time>2020-01-27T13:25:53Z</time></trkpt>
   <trkpt lat="31.191294" lon="35.323067"><ele>161</ele><name>TP06511</name><time>2020-01-27T13:25:54Z</time></trkpt>
   <trkpt lat="31.191295" lon="35.323067"><ele>161</ele><name>TP06512</name><time>2020-01-27T13:25:56Z</time></trkpt>
   <trkpt lat="31.191295" lon="35.323067"><ele>161</ele><name>TP06513</name><time>2020-01-27T13:25:58Z</time></trkpt>
   <trkpt lat="31.191296" lon="35.323067"><ele>161</ele><name>TP06514</name><time>2020-01-27T13:25:59Z</time></trkpt>
   <trkpt lat="31.191296" lon="35.323067"><ele>161</ele><name>TP06515</name><time>2020-01-27T13:26:01Z</time></trkpt>
   <trkpt lat="31.191296" lon="35.323068"><ele>161</ele><name>TP06516</name><time>2020-01-27T13:26:02Z</time></trkpt>
   <trkpt lat="31.191296" lon="35.323068"><ele>161</ele><name>TP06517</name><time>2020-01-27T13:26:03Z</time></trkpt>
   <trkpt lat="31.191296" lon="35.323068"><ele>161</ele><name>TP06518</name><time>2020-01-27T13:26:05Z</time></trkpt>
   <trkpt lat="31.191297" lon="35.323069"><ele>161</ele><name>TP06519</name><time>2020-01-27T13:26:07Z</time></trkpt>
   <trkpt lat="31.191297" lon="35.323068"><ele>161</ele><name>TP06520</name><time>2020-01-27T13:26:08Z</time></trkpt>
   <trkpt lat="31.191297" lon="35.323068"><ele>161</ele><name>TP06521</name><time>2020-01-27T13:26:10Z</time></trkpt>
   <trkpt lat="31.191298" lon="35.323069"><ele>161</ele><name>TP06522</name><time>2020-01-27T13:26:11Z</time></trkpt>
   <trkpt lat="31.191298" lon="35.323069"><ele>161</ele><name>TP06523</name><time>2020-01-27T13:26:13Z</time></trkpt>
   <trkpt lat="31.191298" lon="35.323069"><ele>161</ele><name>TP06524</name><time>2020-01-27T13:26:14Z</time></trkpt>
   <trkpt lat="31.191299" lon="35.323069"><ele>161</ele><name>TP06525</name><time>2020-01-27T13:26:16Z</time></trkpt>
   <trkpt lat="31.191299" lon="35.323069"><ele>161</ele><name>TP06526</name><time>2020-01-27T13:26:17Z</time></trkpt>
   <trkpt lat="31.191299" lon="35.323069"><ele>161</ele><name>TP06527</name><time>2020-01-27T13:26:18Z</time></trkpt>
   <trkpt lat="31.191299" lon="35.323069"><ele>161</ele><name>TP06528</name><time>2020-01-27T13:26:20Z</time></trkpt>
   <trkpt lat="31.191299" lon="35.323069"><ele>161</ele><name>TP06529</name><time>2020-01-27T13:26:21Z</time></trkpt>
   <trkpt lat="31.191299" lon="35.323069"><ele>161</ele><name>TP06530</name><time>2020-01-27T13:26:22Z</time></trkpt>
   <trkpt lat="31.191298" lon="35.32307"><ele>161</ele><name>TP06531</name><time>2020-01-27T13:26:24Z</time></trkpt>
   <trkpt lat="31.191297" lon="35.32307"><ele>161</ele><name>TP06532</name><time>2020-01-27T13:26:26Z</time></trkpt>
   <trkpt lat="31.191297" lon="35.32307"><ele>161</ele><name>TP06533</name><time>2020-01-27T13:26:28Z</time></trkpt>
   <trkpt lat="31.191296" lon="35.32307"><ele>161</ele><name>TP06534</name><time>2020-01-27T13:26:29Z</time></trkpt>
   <trkpt lat="31.191296" lon="35.32307"><ele>161</ele><name>TP06535</name><time>2020-01-27T13:26:31Z</time></trkpt>
   <trkpt lat="31.191295" lon="35.323069"><ele>161</ele><name>TP06536</name><time>2020-01-27T13:26:33Z</time></trkpt>
   <trkpt lat="31.191295" lon="35.323069"><ele>161</ele><name>TP06537</name><time>2020-01-27T13:26:34Z</time></trkpt>
   <trkpt lat="31.191294" lon="35.323069"><ele>161</ele><name>TP06538</name><time>2020-01-27T13:26:36Z</time></trkpt>
   <trkpt lat="31.191296" lon="35.323071"><ele>161</ele><name>TP06539</name><time>2020-01-27T13:26:38Z</time></trkpt>
   <trkpt lat="31.191296" lon="35.32307"><ele>161</ele><name>TP06540</name><time>2020-01-27T13:26:39Z</time></trkpt>
   <trkpt lat="31.191295" lon="35.32307"><ele>161.1</ele><name>TP06541</name><time>2020-01-27T13:26:41Z</time></trkpt>
   <trkpt lat="31.191295" lon="35.32307"><ele>161.1</ele><name>TP06542</name><time>2020-01-27T13:26:42Z</time></trkpt>
   <trkpt lat="31.191296" lon="35.32307"><ele>161.1</ele><name>TP06543</name><time>2020-01-27T13:26:44Z</time></trkpt>
   <trkpt lat="31.191296" lon="35.323071"><ele>161.1</ele><name>TP06544</name><time>2020-01-27T13:26:46Z</time></trkpt>
   <trkpt lat="31.191297" lon="35.323071"><ele>161.1</ele><name>TP06545</name><time>2020-01-27T13:26:48Z</time></trkpt>
   <trkpt lat="31.191297" lon="35.323071"><ele>161.1</ele><name>TP06546</name><time>2020-01-27T13:26:49Z</time></trkpt>
   <trkpt lat="31.191298" lon="35.323071"><ele>161.1</ele><name>TP06547</name><time>2020-01-27T13:26:51Z</time></trkpt>
   <trkpt lat="31.191298" lon="35.323071"><ele>161.1</ele><name>TP06548</name><time>2020-01-27T13:26:52Z</time></trkpt>
   <trkpt lat="31.191298" lon="35.323071"><ele>161.1</ele><name>TP06549</name><time>2020-01-27T13:26:53Z</time></trkpt>
   <trkpt lat="31.191299" lon="35.323071"><ele>161.1</ele><name>TP06550</name><time>2020-01-27T13:26:55Z</time></trkpt>
   <trkpt lat="31.191299" lon="35.323071"><ele>161.1</ele><name>TP06551</name><time>2020-01-27T13:26:57Z</time></trkpt>
   <trkpt lat="31.191299" lon="35.323071"><ele>161.1</ele><name>TP06552</name><time>2020-01-27T13:26:59Z</time></trkpt>
   <trkpt lat="31.191299" lon="35.323071"><ele>161.1</ele><name>TP06553</name><time>2020-01-27T13:27:00Z</time></trkpt>
   <trkpt lat="31.191299" lon="35.323071"><ele>161.1</ele><name>TP06554</name><time>2020-01-27T13:27:02Z</time></trkpt>
   <trkpt lat="31.191299" lon="35.323071"><ele>161.1</ele><name>TP06555</name><time>2020-01-27T13:27:04Z</time></trkpt>
   <trkpt lat="31.191299" lon="35.323071"><ele>161.1</ele><name>TP06556</name><time>2020-01-27T13:27:05Z</time></trkpt>
   <trkpt lat="31.191299" lon="35.323071"><ele>161.1</ele><name>TP06557</name><time>2020-01-27T13:27:06Z</time></trkpt>
   <trkpt lat="31.1913" lon="35.323071"><ele>161.1</ele><name>TP06558</name><time>2020-01-27T13:27:08Z</time></trkpt>
   <trkpt lat="31.1913" lon="35.32307"><ele>161.1</ele><name>TP06559</name><time>2020-01-27T13:27:09Z</time></trkpt>
   <trkpt lat="31.1913" lon="35.32307"><ele>161.1</ele><name>TP06560</name><time>2020-01-27T13:27:11Z</time></trkpt>
   <trkpt lat="31.191301" lon="35.32307"><ele>161.1</ele><name>TP06561</name><time>2020-01-27T13:27:13Z</time></trkpt>
   <trkpt lat="31.191301" lon="35.32307"><ele>161.1</ele><name>TP06562</name><time>2020-01-27T13:27:15Z</time></trkpt>
   <trkpt lat="31.191301" lon="35.32307"><ele>161.1</ele><name>TP06563</name><time>2020-01-27T13:27:16Z</time></trkpt>
   <trkpt lat="31.191301" lon="35.32307"><ele>161.1</ele><name>TP06564</name><time>2020-01-27T13:27:18Z</time></trkpt>
   <trkpt lat="31.191301" lon="35.32307"><ele>161.1</ele><name>TP06565</name><time>2020-01-27T13:27:19Z</time></trkpt>
   <trkpt lat="31.191302" lon="35.32307"><ele>161.1</ele><name>TP06566</name><time>2020-01-27T13:27:20Z</time></trkpt>
   <trkpt lat="31.191301" lon="35.323071"><ele>161.2</ele><name>TP06567</name><time>2020-01-27T13:27:22Z</time></trkpt>
   <trkpt lat="31.191298" lon="35.323073"><ele>161.2</ele><name>TP06568</name><time>2020-01-27T13:27:23Z</time></trkpt>
   <trkpt lat="31.191292" lon="35.323076"><ele>161.3</ele><name>TP06569</name><time>2020-01-27T13:27:25Z</time></trkpt>
   <trkpt lat="31.191292" lon="35.323076"><ele>161.3</ele><name>TP06570</name><time>2020-01-27T13:27:26Z</time></trkpt>
   <trkpt lat="31.191291" lon="35.323087"><ele>161.4</ele><name>TP06571</name><time>2020-01-27T13:27:28Z</time></trkpt>
   <trkpt lat="31.191294" lon="35.323105"><ele>161.5</ele><name>TP06572</name><time>2020-01-27T13:27:29Z</time></trkpt>
   <trkpt lat="31.191304" lon="35.323173"><ele>162.1</ele><name>TP06573</name><time>2020-01-27T13:27:31Z</time></trkpt>
   <trkpt lat="31.191296" lon="35.32328"><ele>162.5</ele><name>TP06574</name><time>2020-01-27T13:27:33Z</time></trkpt>
   <trkpt lat="31.191307" lon="35.323356"><ele>162.8</ele><name>TP06575</name><time>2020-01-27T13:27:34Z</time></trkpt>
   <trkpt lat="31.191314" lon="35.323519"><ele>160.9</ele><name>TP06576</name><time>2020-01-27T13:27:35Z</time></trkpt>
   <trkpt lat="31.191326" lon="35.323596"><ele>158.7</ele><name>TP06577</name><time>2020-01-27T13:27:37Z</time></trkpt>
   <trkpt lat="31.191315" lon="35.323695"><ele>156.7</ele><name>TP06578</name><time>2020-01-27T13:27:39Z</time></trkpt>
   <trkpt lat="31.19129" lon="35.323796"><ele>155.4</ele><name>TP06579</name><time>2020-01-27T13:27:41Z</time></trkpt>
   <trkpt lat="31.191269" lon="35.323868"><ele>154.4</ele><name>TP06580</name><time>2020-01-27T13:27:43Z</time></trkpt>
   <trkpt lat="31.191243" lon="35.323942"><ele>153.6</ele><name>TP06581</name><time>2020-01-27T13:27:44Z</time></trkpt>
   <trkpt lat="31.191224" lon="35.323993"><ele>153.9</ele><name>TP06582</name><time>2020-01-27T13:27:45Z</time></trkpt>
   <trkpt lat="31.191175" lon="35.324093"><ele>154.7</ele><name>TP06583</name><time>2020-01-27T13:27:47Z</time></trkpt>
   <trkpt lat="31.191142" lon="35.324146"><ele>155.2</ele><name>TP06584</name><time>2020-01-27T13:27:48Z</time></trkpt>
   <trkpt lat="31.191058" lon="35.324277"><ele>156</ele><name>TP06585</name><time>2020-01-27T13:27:50Z</time></trkpt>
   <trkpt lat="31.191013" lon="35.324348"><ele>156.4</ele><name>TP06586</name><time>2020-01-27T13:27:51Z</time></trkpt>
   <trkpt lat="31.190958" lon="35.324417"><ele>156.2</ele><name>TP06587</name><time>2020-01-27T13:27:52Z</time></trkpt>
   <trkpt lat="31.190867" lon="35.324501"><ele>155.6</ele><name>TP06588</name><time>2020-01-27T13:27:54Z</time></trkpt>
   <trkpt lat="31.190832" lon="35.324523"><ele>155.5</ele><name>TP06589</name><time>2020-01-27T13:27:56Z</time></trkpt>
   <trkpt lat="31.190827" lon="35.324524"><ele>155.5</ele><name>TP06590</name><time>2020-01-27T13:27:58Z</time></trkpt>
   <trkpt lat="31.190807" lon="35.324539"><ele>155.6</ele><name>TP06591</name><time>2020-01-27T13:28:00Z</time></trkpt>
   <trkpt lat="31.1908" lon="35.324556"><ele>155.6</ele><name>TP06592</name><time>2020-01-27T13:28:02Z</time></trkpt>
   <trkpt lat="31.190798" lon="35.324558"><ele>155.6</ele><name>TP06593</name><time>2020-01-27T13:28:04Z</time></trkpt>
   <trkpt lat="31.190792" lon="35.324563"><ele>155.6</ele><name>TP06594</name><time>2020-01-27T13:28:05Z</time></trkpt>
   <trkpt lat="31.190788" lon="35.324566"><ele>155.6</ele><name>TP06595</name><time>2020-01-27T13:28:06Z</time></trkpt>
   <trkpt lat="31.190783" lon="35.324569"><ele>155.6</ele><name>TP06596</name><time>2020-01-27T13:28:08Z</time></trkpt>
   <trkpt lat="31.190779" lon="35.324574"><ele>155.7</ele><name>TP06597</name><time>2020-01-27T13:28:09Z</time></trkpt>
   <trkpt lat="31.190774" lon="35.324579"><ele>155.7</ele><name>TP06598</name><time>2020-01-27T13:28:10Z</time></trkpt>
   <trkpt lat="31.190765" lon="35.324587"><ele>155.7</ele><name>TP06599</name><time>2020-01-27T13:28:12Z</time></trkpt>
   <trkpt lat="31.190752" lon="35.3246"><ele>155.8</ele><name>TP06600</name><time>2020-01-27T13:28:13Z</time></trkpt>
   <trkpt lat="31.190743" lon="35.324609"><ele>155.9</ele><name>TP06601</name><time>2020-01-27T13:28:14Z</time></trkpt>
   <trkpt lat="31.190733" lon="35.324621"><ele>155.9</ele><name>TP06602</name><time>2020-01-27T13:28:16Z</time></trkpt>
   <trkpt lat="31.190723" lon="35.324637"><ele>156</ele><name>TP06603</name><time>2020-01-27T13:28:17Z</time></trkpt>
   <trkpt lat="31.190717" lon="35.324648"><ele>156.1</ele><name>TP06604</name><time>2020-01-27T13:28:18Z</time></trkpt>
   <trkpt lat="31.190706" lon="35.324667"><ele>156.3</ele><name>TP06605</name><time>2020-01-27T13:28:20Z</time></trkpt>
   <trkpt lat="31.190702" lon="35.324676"><ele>156.4</ele><name>TP06606</name><time>2020-01-27T13:28:21Z</time></trkpt>
   <trkpt lat="31.190695" lon="35.324689"><ele>156.5</ele><name>TP06607</name><time>2020-01-27T13:28:23Z</time></trkpt>
   <trkpt lat="31.19069" lon="35.324703"><ele>156.6</ele><name>TP06608</name><time>2020-01-27T13:28:24Z</time></trkpt>
   <trkpt lat="31.190685" lon="35.324717"><ele>156.7</ele><name>TP06609</name><time>2020-01-27T13:28:25Z</time></trkpt>
   <trkpt lat="31.190682" lon="35.324727"><ele>156.7</ele><name>TP06610</name><time>2020-01-27T13:28:26Z</time></trkpt>
   <trkpt lat="31.190674" lon="35.324746"><ele>156.8</ele><name>TP06611</name><time>2020-01-27T13:28:28Z</time></trkpt>
   <trkpt lat="31.190663" lon="35.324764"><ele>156.9</ele><name>TP06612</name><time>2020-01-27T13:28:30Z</time></trkpt>
   <trkpt lat="31.190656" lon="35.324774"><ele>156.9</ele><name>TP06613</name><time>2020-01-27T13:28:31Z</time></trkpt>
   <trkpt lat="31.190647" lon="35.324791"><ele>156.9</ele><name>TP06614</name><time>2020-01-27T13:28:32Z</time></trkpt>
   <trkpt lat="31.190638" lon="35.324806"><ele>157</ele><name>TP06615</name><time>2020-01-27T13:28:33Z</time></trkpt>
   <trkpt lat="31.190627" lon="35.32482"><ele>157</ele><name>TP06616</name><time>2020-01-27T13:28:34Z</time></trkpt>
   <trkpt lat="31.190616" lon="35.324831"><ele>157</ele><name>TP06617</name><time>2020-01-27T13:28:36Z</time></trkpt>
   <trkpt lat="31.190605" lon="35.324841"><ele>157.1</ele><name>TP06618</name><time>2020-01-27T13:28:37Z</time></trkpt>
   <trkpt lat="31.190592" lon="35.324853"><ele>157.1</ele><name>TP06619</name><time>2020-01-27T13:28:38Z</time></trkpt>
   <trkpt lat="31.190583" lon="35.324863"><ele>157.1</ele><name>TP06620</name><time>2020-01-27T13:28:39Z</time></trkpt>
   <trkpt lat="31.190574" lon="35.324868"><ele>157.2</ele><name>TP06621</name><time>2020-01-27T13:28:41Z</time></trkpt>
   <trkpt lat="31.190571" lon="35.324867"><ele>157.2</ele><name>TP06622</name><time>2020-01-27T13:28:43Z</time></trkpt>
   <trkpt lat="31.190568" lon="35.324868"><ele>157.2</ele><name>TP06623</name><time>2020-01-27T13:28:44Z</time></trkpt>
   <trkpt lat="31.190566" lon="35.32487"><ele>157.2</ele><name>TP06624</name><time>2020-01-27T13:28:45Z</time></trkpt>
   <trkpt lat="31.190564" lon="35.324872"><ele>157.2</ele><name>TP06625</name><time>2020-01-27T13:28:46Z</time></trkpt>
   <trkpt lat="31.190561" lon="35.324874"><ele>157.2</ele><name>TP06626</name><time>2020-01-27T13:28:48Z</time></trkpt>
   <trkpt lat="31.19056" lon="35.324876"><ele>157.2</ele><name>TP06627</name><time>2020-01-27T13:28:49Z</time></trkpt>
   <trkpt lat="31.190559" lon="35.324877"><ele>157.2</ele><name>TP06628</name><time>2020-01-27T13:28:50Z</time></trkpt>
   <trkpt lat="31.190559" lon="35.324878"><ele>157.2</ele><name>TP06629</name><time>2020-01-27T13:28:52Z</time></trkpt>
   <trkpt lat="31.190553" lon="35.32488"><ele>157.2</ele><name>TP06630</name><time>2020-01-27T13:28:54Z</time></trkpt>
   <trkpt lat="31.190553" lon="35.324878"><ele>157.2</ele><name>TP06631</name><time>2020-01-27T13:28:56Z</time></trkpt>
   <trkpt lat="31.190549" lon="35.324873"><ele>157.3</ele><name>TP06632</name><time>2020-01-27T13:28:57Z</time></trkpt>
   <trkpt lat="31.190542" lon="35.324873"><ele>157.3</ele><name>TP06633</name><time>2020-01-27T13:28:58Z</time></trkpt>
   <trkpt lat="31.190535" lon="35.324876"><ele>157.3</ele><name>TP06634</name><time>2020-01-27T13:28:59Z</time></trkpt>
   <trkpt lat="31.190526" lon="35.324885"><ele>157.3</ele><name>TP06635</name><time>2020-01-27T13:29:01Z</time></trkpt>
   <trkpt lat="31.190526" lon="35.324886"><ele>157.3</ele><name>TP06636</name><time>2020-01-27T13:29:02Z</time></trkpt>
   <trkpt lat="31.190525" lon="35.324886"><ele>157.3</ele><name>TP06637</name><time>2020-01-27T13:29:03Z</time></trkpt>
   <trkpt lat="31.190525" lon="35.324887"><ele>157.3</ele><name>TP06638</name><time>2020-01-27T13:29:05Z</time></trkpt>
   <trkpt lat="31.190524" lon="35.324887"><ele>157.4</ele><name>TP06639</name><time>2020-01-27T13:29:07Z</time></trkpt>
   <trkpt lat="31.190523" lon="35.324888"><ele>157.4</ele><name>TP06640</name><time>2020-01-27T13:29:09Z</time></trkpt>
   <trkpt lat="31.190523" lon="35.324888"><ele>157.4</ele><name>TP06641</name><time>2020-01-27T13:29:10Z</time></trkpt>
   <trkpt lat="31.190522" lon="35.324889"><ele>157.4</ele><name>TP06642</name><time>2020-01-27T13:29:11Z</time></trkpt>
   <trkpt lat="31.190522" lon="35.324889"><ele>157.4</ele><name>TP06643</name><time>2020-01-27T13:29:13Z</time></trkpt>
   <trkpt lat="31.190521" lon="35.32489"><ele>157.4</ele><name>TP06644</name><time>2020-01-27T13:29:14Z</time></trkpt>
   <trkpt lat="31.19052" lon="35.32489"><ele>157.4</ele><name>TP06645</name><time>2020-01-27T13:29:16Z</time></trkpt>
   <trkpt lat="31.19052" lon="35.324891"><ele>157.4</ele><name>TP06646</name><time>2020-01-27T13:29:18Z</time></trkpt>
   <trkpt lat="31.190519" lon="35.324891"><ele>157.4</ele><name>TP06647</name><time>2020-01-27T13:29:20Z</time></trkpt>
   <trkpt lat="31.190519" lon="35.324891"><ele>157.4</ele><name>TP06648</name><time>2020-01-27T13:29:21Z</time></trkpt>
   <trkpt lat="31.190518" lon="35.324892"><ele>157.4</ele><name>TP06649</name><time>2020-01-27T13:29:22Z</time></trkpt>
   <trkpt lat="31.190517" lon="35.324892"><ele>157.4</ele><name>TP06650</name><time>2020-01-27T13:29:24Z</time></trkpt>
   <trkpt lat="31.190517" lon="35.324893"><ele>157.4</ele><name>TP06651</name><time>2020-01-27T13:29:25Z</time></trkpt>
   <trkpt lat="31.190516" lon="35.324893"><ele>157.4</ele><name>TP06652</name><time>2020-01-27T13:29:27Z</time></trkpt>
   <trkpt lat="31.190516" lon="35.324894"><ele>157.4</ele><name>TP06653</name><time>2020-01-27T13:29:29Z</time></trkpt>
   <trkpt lat="31.190515" lon="35.324894"><ele>157.4</ele><name>TP06654</name><time>2020-01-27T13:29:31Z</time></trkpt>
   <trkpt lat="31.190514" lon="35.324895"><ele>157.4</ele><name>TP06655</name><time>2020-01-27T13:29:33Z</time></trkpt>
   <trkpt lat="31.190514" lon="35.324895"><ele>157.4</ele><name>TP06656</name><time>2020-01-27T13:29:35Z</time></trkpt>
   <trkpt lat="31.190513" lon="35.324896"><ele>157.4</ele><name>TP06657</name><time>2020-01-27T13:29:37Z</time></trkpt>
   <trkpt lat="31.190513" lon="35.324896"><ele>157.4</ele><name>TP06658</name><time>2020-01-27T13:29:39Z</time></trkpt>
   <trkpt lat="31.190512" lon="35.324897"><ele>157.4</ele><name>TP06659</name><time>2020-01-27T13:29:41Z</time></trkpt>
   <trkpt lat="31.190511" lon="35.324897"><ele>157.4</ele><name>TP06660</name><time>2020-01-27T13:29:43Z</time></trkpt>
   <trkpt lat="31.190511" lon="35.324898"><ele>157.4</ele><name>TP06661</name><time>2020-01-27T13:29:44Z</time></trkpt>
   <trkpt lat="31.19051" lon="35.324898"><ele>157.4</ele><name>TP06662</name><time>2020-01-27T13:29:46Z</time></trkpt>
   <trkpt lat="31.19051" lon="35.324898"><ele>157.4</ele><name>TP06663</name><time>2020-01-27T13:29:48Z</time></trkpt>
   <trkpt lat="31.190509" lon="35.324899"><ele>157.4</ele><name>TP06664</name><time>2020-01-27T13:29:50Z</time></trkpt>
   <trkpt lat="31.190508" lon="35.324899"><ele>157.4</ele><name>TP06665</name><time>2020-01-27T13:29:51Z</time></trkpt>
   <trkpt lat="31.190508" lon="35.3249"><ele>157.4</ele><name>TP06666</name><time>2020-01-27T13:29:53Z</time></trkpt>
   <trkpt lat="31.190507" lon="35.3249"><ele>157.4</ele><name>TP06667</name><time>2020-01-27T13:29:54Z</time></trkpt>
   <trkpt lat="31.190507" lon="35.324901"><ele>157.4</ele><name>TP06668</name><time>2020-01-27T13:29:56Z</time></trkpt>
   <trkpt lat="31.190506" lon="35.324901"><ele>157.4</ele><name>TP06669</name><time>2020-01-27T13:29:58Z</time></trkpt>
   <trkpt lat="31.190505" lon="35.324902"><ele>157.4</ele><name>TP06670</name><time>2020-01-27T13:29:59Z</time></trkpt>
   <trkpt lat="31.190505" lon="35.324902"><ele>157.4</ele><name>TP06671</name><time>2020-01-27T13:30:00Z</time></trkpt>
   <trkpt lat="31.190504" lon="35.324903"><ele>157.4</ele><name>TP06672</name><time>2020-01-27T13:30:02Z</time></trkpt>
   <trkpt lat="31.190504" lon="35.324903"><ele>157.4</ele><name>TP06673</name><time>2020-01-27T13:30:03Z</time></trkpt>
   <trkpt lat="31.190503" lon="35.324904"><ele>157.4</ele><name>TP06674</name><time>2020-01-27T13:30:05Z</time></trkpt>
   <trkpt lat="31.190503" lon="35.324904"><ele>157.4</ele><name>TP06675</name><time>2020-01-27T13:30:06Z</time></trkpt>
   <trkpt lat="31.190502" lon="35.324904"><ele>157.4</ele><name>TP06676</name><time>2020-01-27T13:30:08Z</time></trkpt>
   <trkpt lat="31.190501" lon="35.324905"><ele>157.4</ele><name>TP06677</name><time>2020-01-27T13:30:10Z</time></trkpt>
   <trkpt lat="31.190501" lon="35.324905"><ele>157.4</ele><name>TP06678</name><time>2020-01-27T13:30:11Z</time></trkpt>
   <trkpt lat="31.1905" lon="35.324906"><ele>157.4</ele><name>TP06679</name><time>2020-01-27T13:30:13Z</time></trkpt>
   <trkpt lat="31.1905" lon="35.324906"><ele>157.4</ele><name>TP06680</name><time>2020-01-27T13:30:14Z</time></trkpt>
   <trkpt lat="31.190499" lon="35.324907"><ele>157.4</ele><name>TP06681</name><time>2020-01-27T13:30:16Z</time></trkpt>
   <trkpt lat="31.190498" lon="35.324907"><ele>157.4</ele><name>TP06682</name><time>2020-01-27T13:30:17Z</time></trkpt>
   <trkpt lat="31.190498" lon="35.324908"><ele>157.4</ele><name>TP06683</name><time>2020-01-27T13:30:18Z</time></trkpt>
   <trkpt lat="31.190497" lon="35.324908"><ele>157.4</ele><name>TP06684</name><time>2020-01-27T13:30:20Z</time></trkpt>
   <trkpt lat="31.190497" lon="35.324909"><ele>157.4</ele><name>TP06685</name><time>2020-01-27T13:30:22Z</time></trkpt>
   <trkpt lat="31.190496" lon="35.324909"><ele>157.4</ele><name>TP06686</name><time>2020-01-27T13:30:24Z</time></trkpt>
   <trkpt lat="31.190495" lon="35.32491"><ele>157.4</ele><name>TP06687</name><time>2020-01-27T13:30:25Z</time></trkpt>
   <trkpt lat="31.190495" lon="35.32491"><ele>157.4</ele><name>TP06688</name><time>2020-01-27T13:30:27Z</time></trkpt>
   <trkpt lat="31.190494" lon="35.32491"><ele>157.4</ele><name>TP06689</name><time>2020-01-27T13:30:28Z</time></trkpt>
   <trkpt lat="31.190494" lon="35.324911"><ele>157.3</ele><name>TP06690</name><time>2020-01-27T13:30:29Z</time></trkpt>
   <trkpt lat="31.190493" lon="35.324911"><ele>157.3</ele><name>TP06691</name><time>2020-01-27T13:30:31Z</time></trkpt>
   <trkpt lat="31.190492" lon="35.324912"><ele>157.3</ele><name>TP06692</name><time>2020-01-27T13:30:33Z</time></trkpt>
   <trkpt lat="31.190492" lon="35.324912"><ele>157.3</ele><name>TP06693</name><time>2020-01-27T13:30:34Z</time></trkpt>
   <trkpt lat="31.190491" lon="35.324913"><ele>157.3</ele><name>TP06694</name><time>2020-01-27T13:30:36Z</time></trkpt>
   <trkpt lat="31.190491" lon="35.324913"><ele>157.3</ele><name>TP06695</name><time>2020-01-27T13:30:37Z</time></trkpt>
   <trkpt lat="31.19049" lon="35.324914"><ele>157.3</ele><name>TP06696</name><time>2020-01-27T13:30:39Z</time></trkpt>
   <trkpt lat="31.190489" lon="35.324914"><ele>157.3</ele><name>TP06697</name><time>2020-01-27T13:30:41Z</time></trkpt>
   <trkpt lat="31.190489" lon="35.324915"><ele>157.3</ele><name>TP06698</name><time>2020-01-27T13:30:43Z</time></trkpt>
   <trkpt lat="31.190488" lon="35.324915"><ele>157.3</ele><name>TP06699</name><time>2020-01-27T13:30:44Z</time></trkpt>
   <trkpt lat="31.190488" lon="35.324916"><ele>157.3</ele><name>TP06700</name><time>2020-01-27T13:30:46Z</time></trkpt>
   <trkpt lat="31.190487" lon="35.324916"><ele>157.3</ele><name>TP06701</name><time>2020-01-27T13:30:47Z</time></trkpt>
   <trkpt lat="31.190486" lon="35.324917"><ele>157.3</ele><name>TP06702</name><time>2020-01-27T13:30:49Z</time></trkpt>
   <trkpt lat="31.190486" lon="35.324917"><ele>157.3</ele><name>TP06703</name><time>2020-01-27T13:30:50Z</time></trkpt>
   <trkpt lat="31.190485" lon="35.324917"><ele>157.3</ele><name>TP06704</name><time>2020-01-27T13:30:52Z</time></trkpt>
   <trkpt lat="31.190485" lon="35.324918"><ele>157.3</ele><name>TP06705</name><time>2020-01-27T13:30:54Z</time></trkpt>
   <trkpt lat="31.190484" lon="35.324918"><ele>157.3</ele><name>TP06706</name><time>2020-01-27T13:30:56Z</time></trkpt>
   <trkpt lat="31.190483" lon="35.324919"><ele>157.2</ele><name>TP06707</name><time>2020-01-27T13:30:57Z</time></trkpt>
   <trkpt lat="31.190483" lon="35.324919"><ele>157.2</ele><name>TP06708</name><time>2020-01-27T13:30:59Z</time></trkpt>
   <trkpt lat="31.190482" lon="35.32492"><ele>157.2</ele><name>TP06709</name><time>2020-01-27T13:31:01Z</time></trkpt>
   <trkpt lat="31.190482" lon="35.32492"><ele>157.2</ele><name>TP06710</name><time>2020-01-27T13:31:02Z</time></trkpt>
   <trkpt lat="31.190481" lon="35.324921"><ele>157.2</ele><name>TP06711</name><time>2020-01-27T13:31:04Z</time></trkpt>
   <trkpt lat="31.19048" lon="35.324921"><ele>157.2</ele><name>TP06712</name><time>2020-01-27T13:31:06Z</time></trkpt>
   <trkpt lat="31.19048" lon="35.324922"><ele>157.2</ele><name>TP06713</name><time>2020-01-27T13:31:07Z</time></trkpt>
   <trkpt lat="31.190479" lon="35.324922"><ele>157.2</ele><name>TP06714</name><time>2020-01-27T13:31:09Z</time></trkpt>
   <trkpt lat="31.190479" lon="35.324923"><ele>157.2</ele><name>TP06715</name><time>2020-01-27T13:31:11Z</time></trkpt>
   <trkpt lat="31.190478" lon="35.324923"><ele>157.2</ele><name>TP06716</name><time>2020-01-27T13:31:12Z</time></trkpt>
   <trkpt lat="31.190456" lon="35.324956"><ele>157</ele><name>TP06717</name><time>2020-01-27T13:31:13Z</time></trkpt>
   <trkpt lat="31.190447" lon="35.324967"><ele>156.9</ele><name>TP06718</name><time>2020-01-27T13:31:14Z</time></trkpt>
   <trkpt lat="31.190423" lon="35.324998"><ele>156.5</ele><name>TP06719</name><time>2020-01-27T13:31:16Z</time></trkpt>
   <trkpt lat="31.190405" lon="35.32502"><ele>156.1</ele><name>TP06720</name><time>2020-01-27T13:31:17Z</time></trkpt>
   <trkpt lat="31.190357" lon="35.325065"><ele>155.2</ele><name>TP06721</name><time>2020-01-27T13:31:19Z</time></trkpt>
   <trkpt lat="31.190327" lon="35.325076"><ele>154.8</ele><name>TP06722</name><time>2020-01-27T13:31:20Z</time></trkpt>
   <trkpt lat="31.190286" lon="35.325081"><ele>154.1</ele><name>TP06723</name><time>2020-01-27T13:31:22Z</time></trkpt>
   <trkpt lat="31.190269" lon="35.325082"><ele>153.6</ele><name>TP06724</name><time>2020-01-27T13:31:23Z</time></trkpt>
   <trkpt lat="31.19023" lon="35.325088"><ele>152.6</ele><name>TP06725</name><time>2020-01-27T13:31:24Z</time></trkpt>
   <trkpt lat="31.190193" lon="35.325085"><ele>151.5</ele><name>TP06726</name><time>2020-01-27T13:31:26Z</time></trkpt>
   <trkpt lat="31.190163" lon="35.325075"><ele>150.6</ele><name>TP06727</name><time>2020-01-27T13:31:27Z</time></trkpt>
   <trkpt lat="31.190126" lon="35.325062"><ele>149.2</ele><name>TP06728</name><time>2020-01-27T13:31:28Z</time></trkpt>
   <trkpt lat="31.190079" lon="35.325045"><ele>147.3</ele><name>TP06729</name><time>2020-01-27T13:31:30Z</time></trkpt>
   <trkpt lat="31.190029" lon="35.325014"><ele>147.4</ele><name>TP06730</name><time>2020-01-27T13:31:31Z</time></trkpt>
   <trkpt lat="31.189959" lon="35.324974"><ele>146.9</ele><name>TP06731</name><time>2020-01-27T13:31:33Z</time></trkpt>
   <trkpt lat="31.189904" lon="35.324952"><ele>145.7</ele><name>TP06732</name><time>2020-01-27T13:31:35Z</time></trkpt>
   <trkpt lat="31.189874" lon="35.324914"><ele>144.9</ele><name>TP06733</name><time>2020-01-27T13:31:36Z</time></trkpt>
   <trkpt lat="31.18984" lon="35.324908"><ele>144.6</ele><name>TP06734</name><time>2020-01-27T13:31:38Z</time></trkpt>
   <trkpt lat="31.189819" lon="35.324903"><ele>144.5</ele><name>TP06735</name><time>2020-01-27T13:31:39Z</time></trkpt>
   <trkpt lat="31.189795" lon="35.324903"><ele>144.3</ele><name>TP06736</name><time>2020-01-27T13:31:41Z</time></trkpt>
   <trkpt lat="31.189759" lon="35.324916"><ele>143.8</ele><name>TP06737</name><time>2020-01-27T13:31:42Z</time></trkpt>
   <trkpt lat="31.189745" lon="35.324921"><ele>143.6</ele><name>TP06738</name><time>2020-01-27T13:31:43Z</time></trkpt>
   <trkpt lat="31.189719" lon="35.32493"><ele>143.2</ele><name>TP06739</name><time>2020-01-27T13:31:44Z</time></trkpt>
   <trkpt lat="31.189691" lon="35.324941"><ele>142.4</ele><name>TP06740</name><time>2020-01-27T13:31:45Z</time></trkpt>
   <trkpt lat="31.189683" lon="35.324941"><ele>142.2</ele><name>TP06741</name><time>2020-01-27T13:31:47Z</time></trkpt>
   <trkpt lat="31.189682" lon="35.324937"><ele>142.1</ele><name>TP06742</name><time>2020-01-27T13:31:48Z</time></trkpt>
   <trkpt lat="31.189679" lon="35.324937"><ele>142.1</ele><name>TP06743</name><time>2020-01-27T13:31:50Z</time></trkpt>
   <trkpt lat="31.189678" lon="35.324939"><ele>142</ele><name>TP06744</name><time>2020-01-27T13:31:51Z</time></trkpt>
   <trkpt lat="31.189677" lon="35.324941"><ele>142</ele><name>TP06745</name><time>2020-01-27T13:31:52Z</time></trkpt>
   <trkpt lat="31.189674" lon="35.324945"><ele>141.8</ele><name>TP06746</name><time>2020-01-27T13:31:54Z</time></trkpt>
   <trkpt lat="31.189673" lon="35.324946"><ele>141.8</ele><name>TP06747</name><time>2020-01-27T13:31:55Z</time></trkpt>
   <trkpt lat="31.18967" lon="35.324948"><ele>141.7</ele><name>TP06748</name><time>2020-01-27T13:31:57Z</time></trkpt>
   <trkpt lat="31.189669" lon="35.324949"><ele>141.7</ele><name>TP06749</name><time>2020-01-27T13:31:59Z</time></trkpt>
   <trkpt lat="31.189686" lon="35.324942"><ele>141.2</ele><name>TP06750</name><time>2020-01-27T13:32:00Z</time></trkpt>
   <trkpt lat="31.189695" lon="35.324939"><ele>141</ele><name>TP06751</name><time>2020-01-27T13:32:02Z</time></trkpt>
   <trkpt lat="31.189697" lon="35.324939"><ele>141</ele><name>TP06752</name><time>2020-01-27T13:32:03Z</time></trkpt>
   <trkpt lat="31.189698" lon="35.324938"><ele>141</ele><name>TP06753</name><time>2020-01-27T13:32:05Z</time></trkpt>
   <trkpt lat="31.189698" lon="35.324938"><ele>141</ele><name>TP06754</name><time>2020-01-27T13:32:06Z</time></trkpt>
   <trkpt lat="31.189698" lon="35.324938"><ele>141</ele><name>TP06755</name><time>2020-01-27T13:32:07Z</time></trkpt>
   <trkpt lat="31.189698" lon="35.324938"><ele>141</ele><name>TP06756</name><time>2020-01-27T13:32:09Z</time></trkpt>
   <trkpt lat="31.189698" lon="35.324938"><ele>141</ele><name>TP06757</name><time>2020-01-27T13:32:10Z</time></trkpt>
   <trkpt lat="31.189698" lon="35.324938"><ele>141</ele><name>TP06758</name><time>2020-01-27T13:32:11Z</time></trkpt>
   <trkpt lat="31.189698" lon="35.324938"><ele>141</ele><name>TP06759</name><time>2020-01-27T13:32:12Z</time></trkpt>
   <trkpt lat="31.189698" lon="35.324938"><ele>141</ele><name>TP06760</name><time>2020-01-27T13:32:14Z</time></trkpt>
   <trkpt lat="31.189698" lon="35.324938"><ele>141</ele><name>TP06761</name><time>2020-01-27T13:32:15Z</time></trkpt>
   <trkpt lat="31.189698" lon="35.324938"><ele>141</ele><name>TP06762</name><time>2020-01-27T13:32:17Z</time></trkpt>
   <trkpt lat="31.189698" lon="35.324938"><ele>141</ele><name>TP06763</name><time>2020-01-27T13:32:18Z</time></trkpt>
   <trkpt lat="31.189694" lon="35.324935"><ele>140.9</ele><name>TP06764</name><time>2020-01-27T13:32:19Z</time></trkpt>
   <trkpt lat="31.18968" lon="35.32493"><ele>140.6</ele><name>TP06765</name><time>2020-01-27T13:32:20Z</time></trkpt>
   <trkpt lat="31.189631" lon="35.324931"><ele>139.7</ele><name>TP06766</name><time>2020-01-27T13:32:22Z</time></trkpt>
   <trkpt lat="31.189588" lon="35.324954"><ele>138.8</ele><name>TP06767</name><time>2020-01-27T13:32:23Z</time></trkpt>
   <trkpt lat="31.189569" lon="35.324968"><ele>138.3</ele><name>TP06768</name><time>2020-01-27T13:32:24Z</time></trkpt>
   <trkpt lat="31.189449" lon="35.325095"><ele>135.6</ele><name>TP06769</name><time>2020-01-27T13:32:26Z</time></trkpt>
   <trkpt lat="31.189301" lon="35.325264"><ele>132.3</ele><name>TP06770</name><time>2020-01-27T13:32:28Z</time></trkpt>
   <trkpt lat="31.189243" lon="35.325301"><ele>131.3</ele><name>TP06771</name><time>2020-01-27T13:32:29Z</time></trkpt>
   <trkpt lat="31.189193" lon="35.32528"><ele>130.4</ele><name>TP06772</name><time>2020-01-27T13:32:31Z</time></trkpt>
   <trkpt lat="31.189202" lon="35.325267"><ele>130.2</ele><name>TP06773</name><time>2020-01-27T13:32:32Z</time></trkpt>
   <trkpt lat="31.189154" lon="35.325236"><ele>129.1</ele><name>TP06774</name><time>2020-01-27T13:32:34Z</time></trkpt>
   <trkpt lat="31.189129" lon="35.325208"><ele>128.3</ele><name>TP06775</name><time>2020-01-27T13:32:35Z</time></trkpt>
   <trkpt lat="31.189068" lon="35.325165"><ele>127.4</ele><name>TP06776</name><time>2020-01-27T13:32:36Z</time></trkpt>
   <trkpt lat="31.189008" lon="35.32512"><ele>126.8</ele><name>TP06777</name><time>2020-01-27T13:32:37Z</time></trkpt>
   <trkpt lat="31.188864" lon="35.325056"><ele>127.1</ele><name>TP06778</name><time>2020-01-27T13:32:39Z</time></trkpt>
   <trkpt lat="31.188825" lon="35.325067"><ele>127.5</ele><name>TP06779</name><time>2020-01-27T13:32:41Z</time></trkpt>
   <trkpt lat="31.188801" lon="35.325041"><ele>127.9</ele><name>TP06780</name><time>2020-01-27T13:32:42Z</time></trkpt>
   <trkpt lat="31.188782" lon="35.324988"><ele>128.4</ele><name>TP06781</name><time>2020-01-27T13:32:43Z</time></trkpt>
   <trkpt lat="31.188767" lon="35.324949"><ele>128.9</ele><name>TP06782</name><time>2020-01-27T13:32:45Z</time></trkpt>
   <trkpt lat="31.188758" lon="35.324932"><ele>129.1</ele><name>TP06783</name><time>2020-01-27T13:32:46Z</time></trkpt>
   <trkpt lat="31.18875" lon="35.324916"><ele>129.2</ele><name>TP06784</name><time>2020-01-27T13:32:48Z</time></trkpt>
   <trkpt lat="31.188752" lon="35.324921"><ele>129.3</ele><name>TP06785</name><time>2020-01-27T13:32:50Z</time></trkpt>
   <trkpt lat="31.188745" lon="35.324917"><ele>129.3</ele><name>TP06786</name><time>2020-01-27T13:32:51Z</time></trkpt>
   <trkpt lat="31.188727" lon="35.324898"><ele>129.3</ele><name>TP06787</name><time>2020-01-27T13:32:52Z</time></trkpt>
   <trkpt lat="31.18871" lon="35.324878"><ele>129.4</ele><name>TP06788</name><time>2020-01-27T13:32:53Z</time></trkpt>
   <trkpt lat="31.188688" lon="35.324831"><ele>129.5</ele><name>TP06789</name><time>2020-01-27T13:32:55Z</time></trkpt>
   <trkpt lat="31.188679" lon="35.324806"><ele>129.5</ele><name>TP06790</name><time>2020-01-27T13:32:56Z</time></trkpt>
   <trkpt lat="31.188669" lon="35.324791"><ele>129.6</ele><name>TP06791</name><time>2020-01-27T13:32:58Z</time></trkpt>
   <trkpt lat="31.188663" lon="35.324789"><ele>129.6</ele><name>TP06792</name><time>2020-01-27T13:33:00Z</time></trkpt>
   <trkpt lat="31.188644" lon="35.324772"><ele>129.4</ele><name>TP06793</name><time>2020-01-27T13:33:01Z</time></trkpt>
   <trkpt lat="31.188618" lon="35.324746"><ele>129.1</ele><name>TP06794</name><time>2020-01-27T13:33:02Z</time></trkpt>
   <trkpt lat="31.188612" lon="35.324741"><ele>129</ele><name>TP06795</name><time>2020-01-27T13:33:03Z</time></trkpt>
   <trkpt lat="31.188605" lon="35.32474"><ele>128.9</ele><name>TP06796</name><time>2020-01-27T13:33:06Z</time></trkpt>
   <trkpt lat="31.188596" lon="35.324735"><ele>128.7</ele><name>TP06797</name><time>2020-01-27T13:33:07Z</time></trkpt>
   <trkpt lat="31.188586" lon="35.324728"><ele>128.5</ele><name>TP06798</name><time>2020-01-27T13:33:08Z</time></trkpt>
   <trkpt lat="31.188569" lon="35.324715"><ele>128.2</ele><name>TP06799</name><time>2020-01-27T13:33:09Z</time></trkpt>
   <trkpt lat="31.188542" lon="35.3247"><ele>127.6</ele><name>TP06800</name><time>2020-01-27T13:33:11Z</time></trkpt>
   <trkpt lat="31.188528" lon="35.324692"><ele>127.4</ele><name>TP06801</name><time>2020-01-27T13:33:12Z</time></trkpt>
   <trkpt lat="31.18852" lon="35.32469"><ele>127.2</ele><name>TP06802</name><time>2020-01-27T13:33:14Z</time></trkpt>
   <trkpt lat="31.188515" lon="35.32469"><ele>127.2</ele><name>TP06803</name><time>2020-01-27T13:33:15Z</time></trkpt>
   <trkpt lat="31.188508" lon="35.324686"><ele>127</ele><name>TP06804</name><time>2020-01-27T13:33:16Z</time></trkpt>
   <trkpt lat="31.188504" lon="35.324682"><ele>126.9</ele><name>TP06805</name><time>2020-01-27T13:33:17Z</time></trkpt>
   <trkpt lat="31.188501" lon="35.324679"><ele>126.9</ele><name>TP06806</name><time>2020-01-27T13:33:19Z</time></trkpt>
   <trkpt lat="31.188498" lon="35.324676"><ele>126.8</ele><name>TP06807</name><time>2020-01-27T13:33:20Z</time></trkpt>
   <trkpt lat="31.188494" lon="35.324673"><ele>126.7</ele><name>TP06808</name><time>2020-01-27T13:33:22Z</time></trkpt>
   <trkpt lat="31.188491" lon="35.324669"><ele>126.7</ele><name>TP06809</name><time>2020-01-27T13:33:24Z</time></trkpt>
   <trkpt lat="31.188487" lon="35.324666"><ele>126.6</ele><name>TP06810</name><time>2020-01-27T13:33:25Z</time></trkpt>
   <trkpt lat="31.188484" lon="35.324663"><ele>126.5</ele><name>TP06811</name><time>2020-01-27T13:33:27Z</time></trkpt>
   <trkpt lat="31.188481" lon="35.32466"><ele>126.4</ele><name>TP06812</name><time>2020-01-27T13:33:28Z</time></trkpt>
   <trkpt lat="31.188477" lon="35.324656"><ele>126.4</ele><name>TP06813</name><time>2020-01-27T13:33:30Z</time></trkpt>
   <trkpt lat="31.188474" lon="35.324653"><ele>126.3</ele><name>TP06814</name><time>2020-01-27T13:33:31Z</time></trkpt>
   <trkpt lat="31.188441" lon="35.324617"><ele>125.4</ele><name>TP06815</name><time>2020-01-27T13:33:32Z</time></trkpt>
   <trkpt lat="31.188387" lon="35.324523"><ele>123.7</ele><name>TP06816</name><time>2020-01-27T13:33:33Z</time></trkpt>
   <trkpt lat="31.188309" lon="35.32439"><ele>121.2</ele><name>TP06817</name><time>2020-01-27T13:33:35Z</time></trkpt>
   <trkpt lat="31.188271" lon="35.324311"><ele>119.1</ele><name>TP06818</name><time>2020-01-27T13:33:36Z</time></trkpt>
   <trkpt lat="31.18823" lon="35.324234"><ele>117.3</ele><name>TP06819</name><time>2020-01-27T13:33:37Z</time></trkpt>
   <trkpt lat="31.188134" lon="35.324096"><ele>115.2</ele><name>TP06820</name><time>2020-01-27T13:33:39Z</time></trkpt>
   <trkpt lat="31.188009" lon="35.324002"><ele>113.5</ele><name>TP06821</name><time>2020-01-27T13:33:41Z</time></trkpt>
   <trkpt lat="31.18789" lon="35.323908"><ele>112.3</ele><name>TP06822</name><time>2020-01-27T13:33:43Z</time></trkpt>
   <trkpt lat="31.187834" lon="35.323855"><ele>111.5</ele><name>TP06823</name><time>2020-01-27T13:33:44Z</time></trkpt>
   <trkpt lat="31.187749" lon="35.323746"><ele>109.9</ele><name>TP06824</name><time>2020-01-27T13:33:46Z</time></trkpt>
   <trkpt lat="31.187703" lon="35.323706"><ele>109</ele><name>TP06825</name><time>2020-01-27T13:33:47Z</time></trkpt>
   <trkpt lat="31.187644" lon="35.323658"><ele>108.1</ele><name>TP06826</name><time>2020-01-27T13:33:48Z</time></trkpt>
   <trkpt lat="31.1875" lon="35.323536"><ele>106.6</ele><name>TP06827</name><time>2020-01-27T13:33:50Z</time></trkpt>
   <trkpt lat="31.187424" lon="35.323472"><ele>105.5</ele><name>TP06828</name><time>2020-01-27T13:33:51Z</time></trkpt>
   <trkpt lat="31.18728" lon="35.323346"><ele>104.3</ele><name>TP06829</name><time>2020-01-27T13:33:53Z</time></trkpt>
   <trkpt lat="31.187214" lon="35.323279"><ele>103.9</ele><name>TP06830</name><time>2020-01-27T13:33:54Z</time></trkpt>
   <trkpt lat="31.187153" lon="35.323206"><ele>103.6</ele><name>TP06831</name><time>2020-01-27T13:33:55Z</time></trkpt>
   <trkpt lat="31.187089" lon="35.323141"><ele>102.9</ele><name>TP06832</name><time>2020-01-27T13:33:56Z</time></trkpt>
   <trkpt lat="31.186954" lon="35.323016"><ele>101</ele><name>TP06833</name><time>2020-01-27T13:33:58Z</time></trkpt>
   <trkpt lat="31.186884" lon="35.322948"><ele>100</ele><name>TP06834</name><time>2020-01-27T13:33:59Z</time></trkpt>
   <trkpt lat="31.186763" lon="35.32288"><ele>99.2</ele><name>TP06835</name><time>2020-01-27T13:34:01Z</time></trkpt>
   <trkpt lat="31.186645" lon="35.322849"><ele>98.4</ele><name>TP06836</name><time>2020-01-27T13:34:03Z</time></trkpt>
   <trkpt lat="31.18659" lon="35.322839"><ele>97.8</ele><name>TP06837</name><time>2020-01-27T13:34:04Z</time></trkpt>
   <trkpt lat="31.186583" lon="35.32284"><ele>97.7</ele><name>TP06838</name><time>2020-01-27T13:34:06Z</time></trkpt>
   <trkpt lat="31.186589" lon="35.322831"><ele>97.6</ele><name>TP06839</name><time>2020-01-27T13:34:08Z</time></trkpt>
   <trkpt lat="31.18659" lon="35.32282"><ele>97.5</ele><name>TP06840</name><time>2020-01-27T13:34:09Z</time></trkpt>
   <trkpt lat="31.18659" lon="35.322818"><ele>97.5</ele><name>TP06841</name><time>2020-01-27T13:34:10Z</time></trkpt>
   <trkpt lat="31.186591" lon="35.322817"><ele>97.5</ele><name>TP06842</name><time>2020-01-27T13:34:12Z</time></trkpt>
   <trkpt lat="31.186591" lon="35.322817"><ele>97.5</ele><name>TP06843</name><time>2020-01-27T13:34:14Z</time></trkpt>
   <trkpt lat="31.186591" lon="35.322816"><ele>97.5</ele><name>TP06844</name><time>2020-01-27T13:34:16Z</time></trkpt>
   <trkpt lat="31.186591" lon="35.322816"><ele>97.5</ele><name>TP06845</name><time>2020-01-27T13:34:18Z</time></trkpt>
   <trkpt lat="31.186591" lon="35.322816"><ele>97.5</ele><name>TP06846</name><time>2020-01-27T13:34:19Z</time></trkpt>
   <trkpt lat="31.186591" lon="35.322816"><ele>97.5</ele><name>TP06847</name><time>2020-01-27T13:34:21Z</time></trkpt>
   <trkpt lat="31.186591" lon="35.322816"><ele>97.5</ele><name>TP06848</name><time>2020-01-27T13:34:22Z</time></trkpt>
   <trkpt lat="31.186591" lon="35.322816"><ele>97.5</ele><name>TP06849</name><time>2020-01-27T13:34:24Z</time></trkpt>
   <trkpt lat="31.186591" lon="35.322816"><ele>97.5</ele><name>TP06850</name><time>2020-01-27T13:34:26Z</time></trkpt>
   <trkpt lat="31.186591" lon="35.322816"><ele>97.5</ele><name>TP06851</name><time>2020-01-27T13:34:28Z</time></trkpt>
   <trkpt lat="31.186591" lon="35.322816"><ele>97.5</ele><name>TP06852</name><time>2020-01-27T13:34:30Z</time></trkpt>
   <trkpt lat="31.186591" lon="35.322816"><ele>97.5</ele><name>TP06853</name><time>2020-01-27T13:34:32Z</time></trkpt>
   <trkpt lat="31.186591" lon="35.322816"><ele>97.5</ele><name>TP06854</name><time>2020-01-27T13:34:34Z</time></trkpt>
   <trkpt lat="31.186591" lon="35.322816"><ele>97.5</ele><name>TP06855</name><time>2020-01-27T13:34:36Z</time></trkpt>
   <trkpt lat="31.186591" lon="35.322816"><ele>97.5</ele><name>TP06856</name><time>2020-01-27T13:34:37Z</time></trkpt>
   <trkpt lat="31.186591" lon="35.322816"><ele>97.5</ele><name>TP06857</name><time>2020-01-27T13:34:39Z</time></trkpt>
   <trkpt lat="31.186591" lon="35.322816"><ele>97.5</ele><name>TP06858</name><time>2020-01-27T13:34:41Z</time></trkpt>
   <trkpt lat="31.186591" lon="35.322816"><ele>97.5</ele><name>TP06859</name><time>2020-01-27T13:34:42Z</time></trkpt>
   <trkpt lat="31.186591" lon="35.322816"><ele>97.5</ele><name>TP06860</name><time>2020-01-27T13:34:44Z</time></trkpt>
   <trkpt lat="31.186591" lon="35.322816"><ele>97.5</ele><name>TP06861</name><time>2020-01-27T13:34:46Z</time></trkpt>
   <trkpt lat="31.186591" lon="35.322816"><ele>97.5</ele><name>TP06862</name><time>2020-01-27T13:34:47Z</time></trkpt>
   <trkpt lat="31.186591" lon="35.322816"><ele>97.5</ele><name>TP06863</name><time>2020-01-27T13:34:49Z</time></trkpt>
   <trkpt lat="31.186591" lon="35.322816"><ele>97.5</ele><name>TP06864</name><time>2020-01-27T13:34:50Z</time></trkpt>
   <trkpt lat="31.186591" lon="35.322816"><ele>97.5</ele><name>TP06865</name><time>2020-01-27T13:34:51Z</time></trkpt>
   <trkpt lat="31.186591" lon="35.322816"><ele>97.5</ele><name>TP06866</name><time>2020-01-27T13:34:53Z</time></trkpt>
   <trkpt lat="31.186591" lon="35.322816"><ele>97.5</ele><name>TP06867</name><time>2020-01-27T13:34:55Z</time></trkpt>
   <trkpt lat="31.186591" lon="35.322816"><ele>97.5</ele><name>TP06868</name><time>2020-01-27T13:34:57Z</time></trkpt>
   <trkpt lat="31.186587" lon="35.322819"><ele>97.4</ele><name>TP06869</name><time>2020-01-27T13:34:58Z</time></trkpt>
   <trkpt lat="31.186587" lon="35.322831"><ele>97.3</ele><name>TP06870</name><time>2020-01-27T13:34:59Z</time></trkpt>
   <trkpt lat="31.186588" lon="35.322876"><ele>96.8</ele><name>TP06871</name><time>2020-01-27T13:35:01Z</time></trkpt>
   <trkpt lat="31.186587" lon="35.322911"><ele>96.4</ele><name>TP06872</name><time>2020-01-27T13:35:03Z</time></trkpt>
   <trkpt lat="31.186564" lon="35.322942"><ele>96.1</ele><name>TP06873</name><time>2020-01-27T13:35:05Z</time></trkpt>
   <trkpt lat="31.186565" lon="35.322938"><ele>96.1</ele><name>TP06874</name><time>2020-01-27T13:35:07Z</time></trkpt>
   <trkpt lat="31.186567" lon="35.32293"><ele>96</ele><name>TP06875</name><time>2020-01-27T13:35:08Z</time></trkpt>
   <trkpt lat="31.186566" lon="35.32293"><ele>96</ele><name>TP06876</name><time>2020-01-27T13:35:09Z</time></trkpt>
   <trkpt lat="31.186569" lon="35.322947"><ele>96</ele><name>TP06877</name><time>2020-01-27T13:35:11Z</time></trkpt>
   <trkpt lat="31.18656" lon="35.322966"><ele>95.9</ele><name>TP06878</name><time>2020-01-27T13:35:13Z</time></trkpt>
   <trkpt lat="31.186548" lon="35.322972"><ele>95.8</ele><name>TP06879</name><time>2020-01-27T13:35:14Z</time></trkpt>
   <trkpt lat="31.186533" lon="35.322973"><ele>95.7</ele><name>TP06880</name><time>2020-01-27T13:35:15Z</time></trkpt>
   <trkpt lat="31.186528" lon="35.322976"><ele>95.7</ele><name>TP06881</name><time>2020-01-27T13:35:16Z</time></trkpt>
   <trkpt lat="31.186521" lon="35.322973"><ele>95.6</ele><name>TP06882</name><time>2020-01-27T13:35:18Z</time></trkpt>
   <trkpt lat="31.186516" lon="35.322972"><ele>95.6</ele><name>TP06883</name><time>2020-01-27T13:35:20Z</time></trkpt>
   <trkpt lat="31.186517" lon="35.322973"><ele>95.6</ele><name>TP06884</name><time>2020-01-27T13:35:22Z</time></trkpt>
   <trkpt lat="31.186515" lon="35.322972"><ele>95.6</ele><name>TP06885</name><time>2020-01-27T13:35:23Z</time></trkpt>
   <trkpt lat="31.186511" lon="35.322971"><ele>95.6</ele><name>TP06886</name><time>2020-01-27T13:35:24Z</time></trkpt>
   <trkpt lat="31.186506" lon="35.32297"><ele>95.6</ele><name>TP06887</name><time>2020-01-27T13:35:26Z</time></trkpt>
   <trkpt lat="31.186504" lon="35.32297"><ele>95.6</ele><name>TP06888</name><time>2020-01-27T13:35:27Z</time></trkpt>
   <trkpt lat="31.186501" lon="35.322971"><ele>95.5</ele><name>TP06889</name><time>2020-01-27T13:35:29Z</time></trkpt>
   <trkpt lat="31.1865" lon="35.322971"><ele>95.5</ele><name>TP06890</name><time>2020-01-27T13:35:30Z</time></trkpt>
   <trkpt lat="31.186498" lon="35.32297"><ele>95.5</ele><name>TP06891</name><time>2020-01-27T13:35:32Z</time></trkpt>
   <trkpt lat="31.186502" lon="35.323002"><ele>95.4</ele><name>TP06892</name><time>2020-01-27T13:35:34Z</time></trkpt>
   <trkpt lat="31.186502" lon="35.323002"><ele>95.4</ele><name>TP06893</name><time>2020-01-27T13:35:35Z</time></trkpt>
   <trkpt lat="31.186502" lon="35.323002"><ele>95.4</ele><name>TP06894</name><time>2020-01-27T13:35:37Z</time></trkpt>
   <trkpt lat="31.186502" lon="35.323002"><ele>95.4</ele><name>TP06895</name><time>2020-01-27T13:35:38Z</time></trkpt>
   <trkpt lat="31.186502" lon="35.323002"><ele>95.4</ele><name>TP06896</name><time>2020-01-27T13:35:39Z</time></trkpt>
   <trkpt lat="31.186502" lon="35.323002"><ele>95.4</ele><name>TP06897</name><time>2020-01-27T13:35:41Z</time></trkpt>
   <trkpt lat="31.186502" lon="35.323002"><ele>95.4</ele><name>TP06898</name><time>2020-01-27T13:35:43Z</time></trkpt>
   <trkpt lat="31.186502" lon="35.323002"><ele>95.4</ele><name>TP06899</name><time>2020-01-27T13:35:44Z</time></trkpt>
   <trkpt lat="31.186502" lon="35.323002"><ele>95.4</ele><name>TP06900</name><time>2020-01-27T13:35:46Z</time></trkpt>
   <trkpt lat="31.186502" lon="35.323002"><ele>95.4</ele><name>TP06901</name><time>2020-01-27T13:35:48Z</time></trkpt>
   <trkpt lat="31.186502" lon="35.323002"><ele>95.4</ele><name>TP06902</name><time>2020-01-27T13:35:50Z</time></trkpt>
   <trkpt lat="31.186502" lon="35.323002"><ele>95.4</ele><name>TP06903</name><time>2020-01-27T13:35:51Z</time></trkpt>
   <trkpt lat="31.186502" lon="35.323002"><ele>95.4</ele><name>TP06904</name><time>2020-01-27T13:35:53Z</time></trkpt>
   <trkpt lat="31.186502" lon="35.323002"><ele>95.4</ele><name>TP06905</name><time>2020-01-27T13:35:54Z</time></trkpt>
   <trkpt lat="31.186502" lon="35.323002"><ele>95.4</ele><name>TP06906</name><time>2020-01-27T13:35:56Z</time></trkpt>
   <trkpt lat="31.186502" lon="35.323002"><ele>95.4</ele><name>TP06907</name><time>2020-01-27T13:35:58Z</time></trkpt>
   <trkpt lat="31.186502" lon="35.323002"><ele>95.4</ele><name>TP06908</name><time>2020-01-27T13:36:00Z</time></trkpt>
   <trkpt lat="31.186502" lon="35.323002"><ele>95.4</ele><name>TP06909</name><time>2020-01-27T13:36:02Z</time></trkpt>
   <trkpt lat="31.186502" lon="35.323002"><ele>95.4</ele><name>TP06910</name><time>2020-01-27T13:36:04Z</time></trkpt>
   <trkpt lat="31.186502" lon="35.323002"><ele>95.4</ele><name>TP06911</name><time>2020-01-27T13:36:05Z</time></trkpt>
   <trkpt lat="31.186503" lon="35.323013"><ele>95.4</ele><name>TP06912</name><time>2020-01-27T13:36:07Z</time></trkpt>
   <trkpt lat="31.186517" lon="35.323034"><ele>95.3</ele><name>TP06913</name><time>2020-01-27T13:36:09Z</time></trkpt>
   <trkpt lat="31.186523" lon="35.323033"><ele>95.3</ele><name>TP06914</name><time>2020-01-27T13:36:11Z</time></trkpt>
   <trkpt lat="31.186529" lon="35.323036"><ele>95.2</ele><name>TP06915</name><time>2020-01-27T13:36:12Z</time></trkpt>
   <trkpt lat="31.18654" lon="35.323045"><ele>95.2</ele><name>TP06916</name><time>2020-01-27T13:36:14Z</time></trkpt>
   <trkpt lat="31.186551" lon="35.323052"><ele>95.1</ele><name>TP06917</name><time>2020-01-27T13:36:16Z</time></trkpt>
   <trkpt lat="31.18656" lon="35.323054"><ele>95</ele><name>TP06918</name><time>2020-01-27T13:36:17Z</time></trkpt>
   <trkpt lat="31.186571" lon="35.323054"><ele>94.9</ele><name>TP06919</name><time>2020-01-27T13:36:19Z</time></trkpt>
   <trkpt lat="31.186581" lon="35.323051"><ele>94.9</ele><name>TP06920</name><time>2020-01-27T13:36:20Z</time></trkpt>
   <trkpt lat="31.186589" lon="35.323046"><ele>94.8</ele><name>TP06921</name><time>2020-01-27T13:36:21Z</time></trkpt>
   <trkpt lat="31.186595" lon="35.323042"><ele>94.8</ele><name>TP06922</name><time>2020-01-27T13:36:22Z</time></trkpt>
   <trkpt lat="31.186594" lon="35.323038"><ele>94.7</ele><name>TP06923</name><time>2020-01-27T13:36:23Z</time></trkpt>
   <trkpt lat="31.186584" lon="35.323034"><ele>94.7</ele><name>TP06924</name><time>2020-01-27T13:36:25Z</time></trkpt>
   <trkpt lat="31.18658" lon="35.32303"><ele>94.6</ele><name>TP06925</name><time>2020-01-27T13:36:26Z</time></trkpt>
   <trkpt lat="31.186578" lon="35.323027"><ele>94.6</ele><name>TP06926</name><time>2020-01-27T13:36:27Z</time></trkpt>
   <trkpt lat="31.186576" lon="35.323024"><ele>94.6</ele><name>TP06927</name><time>2020-01-27T13:36:28Z</time></trkpt>
   <trkpt lat="31.186574" lon="35.323021"><ele>94.6</ele><name>TP06928</name><time>2020-01-27T13:36:30Z</time></trkpt>
   <trkpt lat="31.186574" lon="35.323019"><ele>94.5</ele><name>TP06929</name><time>2020-01-27T13:36:31Z</time></trkpt>
   <trkpt lat="31.186572" lon="35.323017"><ele>94.5</ele><name>TP06930</name><time>2020-01-27T13:36:33Z</time></trkpt>
   <trkpt lat="31.186571" lon="35.323016"><ele>94.5</ele><name>TP06931</name><time>2020-01-27T13:36:35Z</time></trkpt>
   <trkpt lat="31.186571" lon="35.323015"><ele>94.5</ele><name>TP06932</name><time>2020-01-27T13:36:36Z</time></trkpt>
   <trkpt lat="31.186571" lon="35.323013"><ele>94.5</ele><name>TP06933</name><time>2020-01-27T13:36:38Z</time></trkpt>
   <trkpt lat="31.18657" lon="35.323013"><ele>94.5</ele><name>TP06934</name><time>2020-01-27T13:36:39Z</time></trkpt>
   <trkpt lat="31.186603" lon="35.32304"><ele>94.2</ele><name>TP06935</name><time>2020-01-27T13:36:40Z</time></trkpt>
   <trkpt lat="31.186617" lon="35.323052"><ele>94.1</ele><name>TP06936</name><time>2020-01-27T13:36:42Z</time></trkpt>
   <trkpt lat="31.186619" lon="35.323054"><ele>94.1</ele><name>TP06937</name><time>2020-01-27T13:36:43Z</time></trkpt>
   <trkpt lat="31.18662" lon="35.323055"><ele>94.1</ele><name>TP06938</name><time>2020-01-27T13:36:44Z</time></trkpt>
   <trkpt lat="31.186621" lon="35.323056"><ele>94.1</ele><name>TP06939</name><time>2020-01-27T13:36:45Z</time></trkpt>
   <trkpt lat="31.186621" lon="35.323056"><ele>94.1</ele><name>TP06940</name><time>2020-01-27T13:36:47Z</time></trkpt>
   <trkpt lat="31.186622" lon="35.323057"><ele>94.1</ele><name>TP06941</name><time>2020-01-27T13:36:49Z</time></trkpt>
   <trkpt lat="31.186622" lon="35.323057"><ele>94.1</ele><name>TP06942</name><time>2020-01-27T13:36:50Z</time></trkpt>
   <trkpt lat="31.186622" lon="35.323057"><ele>94.1</ele><name>TP06943</name><time>2020-01-27T13:36:52Z</time></trkpt>
   <trkpt lat="31.186622" lon="35.323057"><ele>94.1</ele><name>TP06944</name><time>2020-01-27T13:36:54Z</time></trkpt>
   <trkpt lat="31.186622" lon="35.323057"><ele>94.1</ele><name>TP06945</name><time>2020-01-27T13:36:55Z</time></trkpt>
   <trkpt lat="31.186622" lon="35.323057"><ele>94.1</ele><name>TP06946</name><time>2020-01-27T13:36:56Z</time></trkpt>
   <trkpt lat="31.186622" lon="35.323057"><ele>94.1</ele><name>TP06947</name><time>2020-01-27T13:36:57Z</time></trkpt>
   <trkpt lat="31.186622" lon="35.323057"><ele>94.1</ele><name>TP06948</name><time>2020-01-27T13:36:59Z</time></trkpt>
   <trkpt lat="31.186622" lon="35.323057"><ele>94.1</ele><name>TP06949</name><time>2020-01-27T13:37:00Z</time></trkpt>
   <trkpt lat="31.186622" lon="35.323057"><ele>94.1</ele><name>TP06950</name><time>2020-01-27T13:37:02Z</time></trkpt>
   <trkpt lat="31.186622" lon="35.323057"><ele>94.1</ele><name>TP06951</name><time>2020-01-27T13:37:04Z</time></trkpt>
   <trkpt lat="31.186622" lon="35.323057"><ele>94.1</ele><name>TP06952</name><time>2020-01-27T13:37:06Z</time></trkpt>
   <trkpt lat="31.186622" lon="35.323057"><ele>94.1</ele><name>TP06953</name><time>2020-01-27T13:37:08Z</time></trkpt>
   <trkpt lat="31.186622" lon="35.323057"><ele>94.1</ele><name>TP06954</name><time>2020-01-27T13:37:10Z</time></trkpt>
   <trkpt lat="31.186622" lon="35.323057"><ele>94.1</ele><name>TP06955</name><time>2020-01-27T13:37:11Z</time></trkpt>
   <trkpt lat="31.186622" lon="35.323057"><ele>94.1</ele><name>TP06956</name><time>2020-01-27T13:37:12Z</time></trkpt>
   <trkpt lat="31.186622" lon="35.323057"><ele>94.1</ele><name>TP06957</name><time>2020-01-27T13:37:14Z</time></trkpt>
   <trkpt lat="31.186622" lon="35.323057"><ele>94.1</ele><name>TP06958</name><time>2020-01-27T13:37:16Z</time></trkpt>
   <trkpt lat="31.186622" lon="35.323057"><ele>94.2</ele><name>TP06959</name><time>2020-01-27T13:37:17Z</time></trkpt>
   <trkpt lat="31.186622" lon="35.323057"><ele>94.2</ele><name>TP06960</name><time>2020-01-27T13:37:18Z</time></trkpt>
   <trkpt lat="31.186622" lon="35.323057"><ele>94.2</ele><name>TP06961</name><time>2020-01-27T13:37:20Z</time></trkpt>
   <trkpt lat="31.186622" lon="35.323057"><ele>94.2</ele><name>TP06962</name><time>2020-01-27T13:37:21Z</time></trkpt>
   <trkpt lat="31.186622" lon="35.323057"><ele>94.2</ele><name>TP06963</name><time>2020-01-27T13:37:22Z</time></trkpt>
   <trkpt lat="31.186622" lon="35.323057"><ele>94.2</ele><name>TP06964</name><time>2020-01-27T13:37:24Z</time></trkpt>
   <trkpt lat="31.186622" lon="35.323057"><ele>94.2</ele><name>TP06965</name><time>2020-01-27T13:37:26Z</time></trkpt>
   <trkpt lat="31.186622" lon="35.323057"><ele>94.2</ele><name>TP06966</name><time>2020-01-27T13:37:28Z</time></trkpt>
   <trkpt lat="31.186622" lon="35.323057"><ele>94.3</ele><name>TP06967</name><time>2020-01-27T13:37:30Z</time></trkpt>
   <trkpt lat="31.186622" lon="35.323057"><ele>94.3</ele><name>TP06968</name><time>2020-01-27T13:37:32Z</time></trkpt>
   <trkpt lat="31.186622" lon="35.323057"><ele>94.3</ele><name>TP06969</name><time>2020-01-27T13:37:34Z</time></trkpt>
   <trkpt lat="31.186622" lon="35.323057"><ele>94.3</ele><name>TP06970</name><time>2020-01-27T13:37:36Z</time></trkpt>
   <trkpt lat="31.186622" lon="35.323057"><ele>94.3</ele><name>TP06971</name><time>2020-01-27T13:37:37Z</time></trkpt>
   <trkpt lat="31.186622" lon="35.323057"><ele>94.3</ele><name>TP06972</name><time>2020-01-27T13:37:38Z</time></trkpt>
   <trkpt lat="31.186622" lon="35.323057"><ele>94.3</ele><name>TP06973</name><time>2020-01-27T13:37:39Z</time></trkpt>
   <trkpt lat="31.186622" lon="35.323057"><ele>94.3</ele><name>TP06974</name><time>2020-01-27T13:37:41Z</time></trkpt>
   <trkpt lat="31.186622" lon="35.323057"><ele>94.4</ele><name>TP06975</name><time>2020-01-27T13:37:42Z</time></trkpt>
   <trkpt lat="31.186622" lon="35.323057"><ele>94.4</ele><name>TP06976</name><time>2020-01-27T13:37:44Z</time></trkpt>
   <trkpt lat="31.186622" lon="35.323057"><ele>94.4</ele><name>TP06977</name><time>2020-01-27T13:37:45Z</time></trkpt>
   <trkpt lat="31.186622" lon="35.323057"><ele>94.4</ele><name>TP06978</name><time>2020-01-27T13:37:47Z</time></trkpt>
   <trkpt lat="31.186622" lon="35.323057"><ele>94.4</ele><name>TP06979</name><time>2020-01-27T13:37:49Z</time></trkpt>
   <trkpt lat="31.186622" lon="35.323057"><ele>94.4</ele><name>TP06980</name><time>2020-01-27T13:37:50Z</time></trkpt>
   <trkpt lat="31.186622" lon="35.323057"><ele>94.4</ele><name>TP06981</name><time>2020-01-27T13:37:52Z</time></trkpt>
   <trkpt lat="31.186622" lon="35.323057"><ele>94.5</ele><name>TP06982</name><time>2020-01-27T13:37:54Z</time></trkpt>
   <trkpt lat="31.186622" lon="35.323057"><ele>94.5</ele><name>TP06983</name><time>2020-01-27T13:37:55Z</time></trkpt>
   <trkpt lat="31.186622" lon="35.323057"><ele>94.5</ele><name>TP06984</name><time>2020-01-27T13:37:57Z</time></trkpt>
   <trkpt lat="31.186622" lon="35.323057"><ele>94.5</ele><name>TP06985</name><time>2020-01-27T13:37:59Z</time></trkpt>
   <trkpt lat="31.186622" lon="35.323057"><ele>94.5</ele><name>TP06986</name><time>2020-01-27T13:38:01Z</time></trkpt>
   <trkpt lat="31.186622" lon="35.323057"><ele>94.5</ele><name>TP06987</name><time>2020-01-27T13:38:03Z</time></trkpt>
   <trkpt lat="31.186622" lon="35.323057"><ele>94.5</ele><name>TP06988</name><time>2020-01-27T13:38:04Z</time></trkpt>
   <trkpt lat="31.186622" lon="35.323057"><ele>94.5</ele><name>TP06989</name><time>2020-01-27T13:38:06Z</time></trkpt>
   <trkpt lat="31.186622" lon="35.323057"><ele>94.6</ele><name>TP06990</name><time>2020-01-27T13:38:07Z</time></trkpt>
   <trkpt lat="31.186622" lon="35.323057"><ele>94.6</ele><name>TP06991</name><time>2020-01-27T13:38:09Z</time></trkpt>
   <trkpt lat="31.186622" lon="35.323057"><ele>94.6</ele><name>TP06992</name><time>2020-01-27T13:38:11Z</time></trkpt>
   <trkpt lat="31.186622" lon="35.323057"><ele>94.6</ele><name>TP06993</name><time>2020-01-27T13:38:13Z</time></trkpt>
   <trkpt lat="31.186622" lon="35.323057"><ele>94.6</ele><name>TP06994</name><time>2020-01-27T13:38:14Z</time></trkpt>
   <trkpt lat="31.186622" lon="35.323057"><ele>94.6</ele><name>TP06995</name><time>2020-01-27T13:38:16Z</time></trkpt>
   <trkpt lat="31.186622" lon="35.323057"><ele>94.6</ele><name>TP06996</name><time>2020-01-27T13:38:17Z</time></trkpt>
   <trkpt lat="31.186622" lon="35.323057"><ele>94.6</ele><name>TP06997</name><time>2020-01-27T13:38:19Z</time></trkpt>
   <trkpt lat="31.186622" lon="35.323057"><ele>94.7</ele><name>TP06998</name><time>2020-01-27T13:38:21Z</time></trkpt>
   <trkpt lat="31.186622" lon="35.323057"><ele>94.7</ele><name>TP06999</name><time>2020-01-27T13:38:23Z</time></trkpt>
   <trkpt lat="31.186622" lon="35.323057"><ele>94.7</ele><name>TP07000</name><time>2020-01-27T13:38:25Z</time></trkpt>
   <trkpt lat="31.186622" lon="35.323057"><ele>94.7</ele><name>TP07001</name><time>2020-01-27T13:38:26Z</time></trkpt>
   <trkpt lat="31.186622" lon="35.323057"><ele>94.7</ele><name>TP07002</name><time>2020-01-27T13:38:28Z</time></trkpt>
   <trkpt lat="31.186622" lon="35.323057"><ele>94.7</ele><name>TP07003</name><time>2020-01-27T13:38:29Z</time></trkpt>
   <trkpt lat="31.186622" lon="35.323057"><ele>94.7</ele><name>TP07004</name><time>2020-01-27T13:38:31Z</time></trkpt>
   <trkpt lat="31.186622" lon="35.323057"><ele>94.8</ele><name>TP07005</name><time>2020-01-27T13:38:32Z</time></trkpt>
   <trkpt lat="31.186622" lon="35.323057"><ele>94.8</ele><name>TP07006</name><time>2020-01-27T13:38:33Z</time></trkpt>
   <trkpt lat="31.186622" lon="35.323057"><ele>94.8</ele><name>TP07007</name><time>2020-01-27T13:38:35Z</time></trkpt>
   <trkpt lat="31.186622" lon="35.323057"><ele>94.8</ele><name>TP07008</name><time>2020-01-27T13:38:37Z</time></trkpt>
   <trkpt lat="31.186622" lon="35.323057"><ele>94.8</ele><name>TP07009</name><time>2020-01-27T13:38:38Z</time></trkpt>
   <trkpt lat="31.186622" lon="35.323057"><ele>94.8</ele><name>TP07010</name><time>2020-01-27T13:38:40Z</time></trkpt>
   <trkpt lat="31.186622" lon="35.323057"><ele>94.8</ele><name>TP07011</name><time>2020-01-27T13:38:42Z</time></trkpt>
   <trkpt lat="31.186622" lon="35.323057"><ele>94.8</ele><name>TP07012</name><time>2020-01-27T13:38:44Z</time></trkpt>
   <trkpt lat="31.186622" lon="35.323057"><ele>94.9</ele><name>TP07013</name><time>2020-01-27T13:38:46Z</time></trkpt>
   <trkpt lat="31.186622" lon="35.323057"><ele>94.9</ele><name>TP07014</name><time>2020-01-27T13:38:47Z</time></trkpt>
   <trkpt lat="31.186622" lon="35.323057"><ele>94.9</ele><name>TP07015</name><time>2020-01-27T13:38:48Z</time></trkpt>
   <trkpt lat="31.186622" lon="35.323057"><ele>94.9</ele><name>TP07016</name><time>2020-01-27T13:38:50Z</time></trkpt>
   <trkpt lat="31.186622" lon="35.323057"><ele>94.9</ele><name>TP07017</name><time>2020-01-27T13:38:51Z</time></trkpt>
   <trkpt lat="31.186622" lon="35.323057"><ele>94.9</ele><name>TP07018</name><time>2020-01-27T13:38:53Z</time></trkpt>
   <trkpt lat="31.186622" lon="35.323057"><ele>94.9</ele><name>TP07019</name><time>2020-01-27T13:38:55Z</time></trkpt>
   <trkpt lat="31.186622" lon="35.323057"><ele>94.9</ele><name>TP07020</name><time>2020-01-27T13:38:56Z</time></trkpt>
   <trkpt lat="31.186622" lon="35.323057"><ele>95</ele><name>TP07021</name><time>2020-01-27T13:38:58Z</time></trkpt>
   <trkpt lat="31.186622" lon="35.323057"><ele>95</ele><name>TP07022</name><time>2020-01-27T13:39:00Z</time></trkpt>
   <trkpt lat="31.186622" lon="35.323057"><ele>95</ele><name>TP07023</name><time>2020-01-27T13:39:01Z</time></trkpt>
   <trkpt lat="31.186622" lon="35.323057"><ele>95</ele><name>TP07024</name><time>2020-01-27T13:39:03Z</time></trkpt>
   <trkpt lat="31.186634" lon="35.32305"><ele>94.9</ele><name>TP07025</name><time>2020-01-27T13:39:05Z</time></trkpt>
   <trkpt lat="31.186644" lon="35.323043"><ele>94.9</ele><name>TP07026</name><time>2020-01-27T13:39:07Z</time></trkpt>
   <trkpt lat="31.186647" lon="35.323041"><ele>94.9</ele><name>TP07027</name><time>2020-01-27T13:39:09Z</time></trkpt>
   <trkpt lat="31.186648" lon="35.32304"><ele>94.9</ele><name>TP07028</name><time>2020-01-27T13:39:11Z</time></trkpt>
   <trkpt lat="31.186649" lon="35.32304"><ele>95</ele><name>TP07029</name><time>2020-01-27T13:39:13Z</time></trkpt>
   <trkpt lat="31.186649" lon="35.32304"><ele>95</ele><name>TP07030</name><time>2020-01-27T13:39:14Z</time></trkpt>
   <trkpt lat="31.186649" lon="35.32304"><ele>95</ele><name>TP07031</name><time>2020-01-27T13:39:16Z</time></trkpt>
   <trkpt lat="31.186649" lon="35.323039"><ele>95</ele><name>TP07032</name><time>2020-01-27T13:39:18Z</time></trkpt>
   <trkpt lat="31.186649" lon="35.323039"><ele>95</ele><name>TP07033</name><time>2020-01-27T13:39:20Z</time></trkpt>
   <trkpt lat="31.18665" lon="35.323039"><ele>95</ele><name>TP07034</name><time>2020-01-27T13:39:21Z</time></trkpt>
   <trkpt lat="31.18665" lon="35.323039"><ele>95</ele><name>TP07035</name><time>2020-01-27T13:39:23Z</time></trkpt>
   <trkpt lat="31.18665" lon="35.323039"><ele>95.1</ele><name>TP07036</name><time>2020-01-27T13:39:25Z</time></trkpt>
   <trkpt lat="31.18665" lon="35.323039"><ele>95.1</ele><name>TP07037</name><time>2020-01-27T13:39:26Z</time></trkpt>
   <trkpt lat="31.18665" lon="35.323039"><ele>95.1</ele><name>TP07038</name><time>2020-01-27T13:39:28Z</time></trkpt>
   <trkpt lat="31.18665" lon="35.323039"><ele>95.1</ele><name>TP07039</name><time>2020-01-27T13:39:30Z</time></trkpt>
   <trkpt lat="31.18665" lon="35.323039"><ele>95.1</ele><name>TP07040</name><time>2020-01-27T13:39:31Z</time></trkpt>
   <trkpt lat="31.18665" lon="35.323038"><ele>95.1</ele><name>TP07041</name><time>2020-01-27T13:39:33Z</time></trkpt>
   <trkpt lat="31.186651" lon="35.323038"><ele>95</ele><name>TP07042</name><time>2020-01-27T13:39:35Z</time></trkpt>
   <trkpt lat="31.186651" lon="35.323038"><ele>95.1</ele><name>TP07043</name><time>2020-01-27T13:39:36Z</time></trkpt>
   <trkpt lat="31.186651" lon="35.323038"><ele>95.1</ele><name>TP07044</name><time>2020-01-27T13:39:37Z</time></trkpt>
   <trkpt lat="31.186651" lon="35.323038"><ele>95.1</ele><name>TP07045</name><time>2020-01-27T13:39:38Z</time></trkpt>
   <trkpt lat="31.186651" lon="35.323038"><ele>95.1</ele><name>TP07046</name><time>2020-01-27T13:39:39Z</time></trkpt>
   <trkpt lat="31.186651" lon="35.323039"><ele>95.1</ele><name>TP07047</name><time>2020-01-27T13:39:41Z</time></trkpt>
   <trkpt lat="31.186651" lon="35.323039"><ele>95.1</ele><name>TP07048</name><time>2020-01-27T13:39:43Z</time></trkpt>
   <trkpt lat="31.18665" lon="35.323039"><ele>95.1</ele><name>TP07049</name><time>2020-01-27T13:39:44Z</time></trkpt>
   <trkpt lat="31.186651" lon="35.32304"><ele>95.1</ele><name>TP07050</name><time>2020-01-27T13:39:46Z</time></trkpt>
   <trkpt lat="31.186651" lon="35.32304"><ele>95.2</ele><name>TP07051</name><time>2020-01-27T13:39:48Z</time></trkpt>
   <trkpt lat="31.18665" lon="35.32304"><ele>95.2</ele><name>TP07052</name><time>2020-01-27T13:39:49Z</time></trkpt>
   <trkpt lat="31.18665" lon="35.323041"><ele>95.2</ele><name>TP07053</name><time>2020-01-27T13:39:51Z</time></trkpt>
   <trkpt lat="31.18665" lon="35.323041"><ele>95.2</ele><name>TP07054</name><time>2020-01-27T13:39:53Z</time></trkpt>
   <trkpt lat="31.186649" lon="35.323041"><ele>95.2</ele><name>TP07055</name><time>2020-01-27T13:39:55Z</time></trkpt>
   <trkpt lat="31.186649" lon="35.323041"><ele>95.2</ele><name>TP07056</name><time>2020-01-27T13:39:57Z</time></trkpt>
   <trkpt lat="31.186648" lon="35.323041"><ele>95.2</ele><name>TP07057</name><time>2020-01-27T13:39:59Z</time></trkpt>
   <trkpt lat="31.186648" lon="35.323041"><ele>95.2</ele><name>TP07058</name><time>2020-01-27T13:40:00Z</time></trkpt>
   <trkpt lat="31.186648" lon="35.323042"><ele>95.2</ele><name>TP07059</name><time>2020-01-27T13:40:02Z</time></trkpt>
   <trkpt lat="31.186647" lon="35.323041"><ele>95.2</ele><name>TP07060</name><time>2020-01-27T13:40:03Z</time></trkpt>
   <trkpt lat="31.186647" lon="35.323041"><ele>95.2</ele><name>TP07061</name><time>2020-01-27T13:40:05Z</time></trkpt>
   <trkpt lat="31.186647" lon="35.323041"><ele>95.2</ele><name>TP07062</name><time>2020-01-27T13:40:06Z</time></trkpt>
   <trkpt lat="31.186647" lon="35.323041"><ele>95.2</ele><name>TP07063</name><time>2020-01-27T13:40:07Z</time></trkpt>
   <trkpt lat="31.186647" lon="35.323041"><ele>95.2</ele><name>TP07064</name><time>2020-01-27T13:40:08Z</time></trkpt>
   <trkpt lat="31.186646" lon="35.323041"><ele>95.2</ele><name>TP07065</name><time>2020-01-27T13:40:10Z</time></trkpt>
   <trkpt lat="31.186645" lon="35.323041"><ele>95.2</ele><name>TP07066</name><time>2020-01-27T13:40:12Z</time></trkpt>
   <trkpt lat="31.186645" lon="35.323041"><ele>95.2</ele><name>TP07067</name><time>2020-01-27T13:40:13Z</time></trkpt>
   <trkpt lat="31.186645" lon="35.323041"><ele>95.2</ele><name>TP07068</name><time>2020-01-27T13:40:15Z</time></trkpt>
   <trkpt lat="31.186645" lon="35.323041"><ele>95.2</ele><name>TP07069</name><time>2020-01-27T13:40:17Z</time></trkpt>
   <trkpt lat="31.186644" lon="35.323041"><ele>95.2</ele><name>TP07070</name><time>2020-01-27T13:40:18Z</time></trkpt>
   <trkpt lat="31.186644" lon="35.323041"><ele>95.2</ele><name>TP07071</name><time>2020-01-27T13:40:20Z</time></trkpt>
   <trkpt lat="31.186644" lon="35.323041"><ele>95.2</ele><name>TP07072</name><time>2020-01-27T13:40:21Z</time></trkpt>
   <trkpt lat="31.186644" lon="35.323041"><ele>95.2</ele><name>TP07073</name><time>2020-01-27T13:40:22Z</time></trkpt>
   <trkpt lat="31.186643" lon="35.323041"><ele>95.2</ele><name>TP07074</name><time>2020-01-27T13:40:24Z</time></trkpt>
   <trkpt lat="31.186643" lon="35.32304"><ele>95.2</ele><name>TP07075</name><time>2020-01-27T13:40:26Z</time></trkpt>
   <trkpt lat="31.186643" lon="35.32304"><ele>95.2</ele><name>TP07076</name><time>2020-01-27T13:40:27Z</time></trkpt>
   <trkpt lat="31.186643" lon="35.32304"><ele>95.2</ele><name>TP07077</name><time>2020-01-27T13:40:29Z</time></trkpt>
   <trkpt lat="31.186643" lon="35.32304"><ele>95.2</ele><name>TP07078</name><time>2020-01-27T13:40:31Z</time></trkpt>
   <trkpt lat="31.186642" lon="35.32304"><ele>95.2</ele><name>TP07079</name><time>2020-01-27T13:40:32Z</time></trkpt>
   <trkpt lat="31.186642" lon="35.32304"><ele>95.2</ele><name>TP07080</name><time>2020-01-27T13:40:33Z</time></trkpt>
   <trkpt lat="31.186642" lon="35.323039"><ele>95.2</ele><name>TP07081</name><time>2020-01-27T13:40:35Z</time></trkpt>
   <trkpt lat="31.186642" lon="35.323039"><ele>95.2</ele><name>TP07082</name><time>2020-01-27T13:40:36Z</time></trkpt>
   <trkpt lat="31.186642" lon="35.323039"><ele>95.2</ele><name>TP07083</name><time>2020-01-27T13:40:37Z</time></trkpt>
   <trkpt lat="31.186643" lon="35.323039"><ele>95.2</ele><name>TP07084</name><time>2020-01-27T13:40:39Z</time></trkpt>
   <trkpt lat="31.186643" lon="35.323039"><ele>95.2</ele><name>TP07085</name><time>2020-01-27T13:40:41Z</time></trkpt>
   <trkpt lat="31.186643" lon="35.323039"><ele>95.2</ele><name>TP07086</name><time>2020-01-27T13:40:42Z</time></trkpt>
   <trkpt lat="31.186643" lon="35.323039"><ele>95.2</ele><name>TP07087</name><time>2020-01-27T13:40:44Z</time></trkpt>
   <trkpt lat="31.186642" lon="35.323038"><ele>95.1</ele><name>TP07088</name><time>2020-01-27T13:40:45Z</time></trkpt>
   <trkpt lat="31.186643" lon="35.323038"><ele>95.1</ele><name>TP07089</name><time>2020-01-27T13:40:47Z</time></trkpt>
   <trkpt lat="31.186643" lon="35.323038"><ele>95.1</ele><name>TP07090</name><time>2020-01-27T13:40:48Z</time></trkpt>
   <trkpt lat="31.186643" lon="35.323038"><ele>95.1</ele><name>TP07091</name><time>2020-01-27T13:40:50Z</time></trkpt>
   <trkpt lat="31.186643" lon="35.323038"><ele>95.1</ele><name>TP07092</name><time>2020-01-27T13:40:51Z</time></trkpt>
   <trkpt lat="31.186643" lon="35.323038"><ele>95.1</ele><name>TP07093</name><time>2020-01-27T13:40:53Z</time></trkpt>
   <trkpt lat="31.186643" lon="35.323038"><ele>95.1</ele><name>TP07094</name><time>2020-01-27T13:40:55Z</time></trkpt>
   <trkpt lat="31.186643" lon="35.323038"><ele>95.1</ele><name>TP07095</name><time>2020-01-27T13:40:57Z</time></trkpt>
   <trkpt lat="31.186643" lon="35.323038"><ele>95.1</ele><name>TP07096</name><time>2020-01-27T13:40:58Z</time></trkpt>
   <trkpt lat="31.186643" lon="35.323038"><ele>95.1</ele><name>TP07097</name><time>2020-01-27T13:41:00Z</time></trkpt>
   <trkpt lat="31.186643" lon="35.323037"><ele>95.1</ele><name>TP07098</name><time>2020-01-27T13:41:02Z</time></trkpt>
   <trkpt lat="31.186643" lon="35.323037"><ele>95.1</ele><name>TP07099</name><time>2020-01-27T13:41:04Z</time></trkpt>
   <trkpt lat="31.186643" lon="35.323038"><ele>95.1</ele><name>TP07100</name><time>2020-01-27T13:41:06Z</time></trkpt>
   <trkpt lat="31.186643" lon="35.323038"><ele>95.1</ele><name>TP07101</name><time>2020-01-27T13:41:07Z</time></trkpt>
   <trkpt lat="31.186643" lon="35.323037"><ele>95.1</ele><name>TP07102</name><time>2020-01-27T13:41:09Z</time></trkpt>
   <trkpt lat="31.186643" lon="35.323037"><ele>95.1</ele><name>TP07103</name><time>2020-01-27T13:41:10Z</time></trkpt>
   <trkpt lat="31.186643" lon="35.323037"><ele>95.1</ele><name>TP07104</name><time>2020-01-27T13:41:12Z</time></trkpt>
   <trkpt lat="31.186643" lon="35.323037"><ele>95.1</ele><name>TP07105</name><time>2020-01-27T13:41:13Z</time></trkpt>
   <trkpt lat="31.186643" lon="35.323037"><ele>95.1</ele><name>TP07106</name><time>2020-01-27T13:41:15Z</time></trkpt>
   <trkpt lat="31.186643" lon="35.323037"><ele>95.1</ele><name>TP07107</name><time>2020-01-27T13:41:16Z</time></trkpt>
   <trkpt lat="31.186643" lon="35.323037"><ele>95.1</ele><name>TP07108</name><time>2020-01-27T13:41:18Z</time></trkpt>
   <trkpt lat="31.186643" lon="35.323037"><ele>95.1</ele><name>TP07109</name><time>2020-01-27T13:41:19Z</time></trkpt>
   <trkpt lat="31.186644" lon="35.323037"><ele>95.1</ele><name>TP07110</name><time>2020-01-27T13:41:21Z</time></trkpt>
   <trkpt lat="31.186644" lon="35.323037"><ele>95.1</ele><name>TP07111</name><time>2020-01-27T13:41:22Z</time></trkpt>
   <trkpt lat="31.186645" lon="35.323037"><ele>95.1</ele><name>TP07112</name><time>2020-01-27T13:41:23Z</time></trkpt>
   <trkpt lat="31.186645" lon="35.323036"><ele>95.1</ele><name>TP07113</name><time>2020-01-27T13:41:25Z</time></trkpt>
   <trkpt lat="31.186644" lon="35.323037"><ele>95.1</ele><name>TP07114</name><time>2020-01-27T13:41:27Z</time></trkpt>
   <trkpt lat="31.186643" lon="35.323037"><ele>95.1</ele><name>TP07115</name><time>2020-01-27T13:41:29Z</time></trkpt>
   <trkpt lat="31.186642" lon="35.323038"><ele>95.1</ele><name>TP07116</name><time>2020-01-27T13:41:31Z</time></trkpt>
   <trkpt lat="31.186641" lon="35.323038"><ele>95.1</ele><name>TP07117</name><time>2020-01-27T13:41:32Z</time></trkpt>
   <trkpt lat="31.18664" lon="35.323038"><ele>95.1</ele><name>TP07118</name><time>2020-01-27T13:41:33Z</time></trkpt>
   <trkpt lat="31.18664" lon="35.323038"><ele>95.1</ele><name>TP07119</name><time>2020-01-27T13:41:34Z</time></trkpt>
   <trkpt lat="31.18664" lon="35.323037"><ele>95.1</ele><name>TP07120</name><time>2020-01-27T13:41:35Z</time></trkpt>
   <trkpt lat="31.186639" lon="35.323038"><ele>95.1</ele><name>TP07121</name><time>2020-01-27T13:41:37Z</time></trkpt>
   <trkpt lat="31.186638" lon="35.323039"><ele>95</ele><name>TP07122</name><time>2020-01-27T13:41:39Z</time></trkpt>
   <trkpt lat="31.186637" lon="35.323039"><ele>95</ele><name>TP07123</name><time>2020-01-27T13:41:41Z</time></trkpt>
   <trkpt lat="31.186637" lon="35.323039"><ele>95</ele><name>TP07124</name><time>2020-01-27T13:41:42Z</time></trkpt>
   <trkpt lat="31.186638" lon="35.32304"><ele>95</ele><name>TP07125</name><time>2020-01-27T13:41:44Z</time></trkpt>
   <trkpt lat="31.186638" lon="35.32304"><ele>95</ele><name>TP07126</name><time>2020-01-27T13:41:45Z</time></trkpt>
   <trkpt lat="31.186638" lon="35.323041"><ele>95</ele><name>TP07127</name><time>2020-01-27T13:41:47Z</time></trkpt>
   <trkpt lat="31.186638" lon="35.323041"><ele>95</ele><name>TP07128</name><time>2020-01-27T13:41:49Z</time></trkpt>
   <trkpt lat="31.186638" lon="35.323041"><ele>95</ele><name>TP07129</name><time>2020-01-27T13:41:50Z</time></trkpt>
   <trkpt lat="31.186639" lon="35.323041"><ele>95</ele><name>TP07130</name><time>2020-01-27T13:41:52Z</time></trkpt>
   <trkpt lat="31.186639" lon="35.323041"><ele>95</ele><name>TP07131</name><time>2020-01-27T13:41:53Z</time></trkpt>
   <trkpt lat="31.186639" lon="35.323042"><ele>95</ele><name>TP07132</name><time>2020-01-27T13:41:55Z</time></trkpt>
   <trkpt lat="31.18664" lon="35.323042"><ele>95</ele><name>TP07133</name><time>2020-01-27T13:41:57Z</time></trkpt>
   <trkpt lat="31.186639" lon="35.323042"><ele>95</ele><name>TP07134</name><time>2020-01-27T13:41:58Z</time></trkpt>
   <trkpt lat="31.186639" lon="35.323042"><ele>95</ele><name>TP07135</name><time>2020-01-27T13:42:00Z</time></trkpt>
   <trkpt lat="31.186639" lon="35.323041"><ele>95</ele><name>TP07136</name><time>2020-01-27T13:42:02Z</time></trkpt>
   <trkpt lat="31.186639" lon="35.32304"><ele>95</ele><name>TP07137</name><time>2020-01-27T13:42:04Z</time></trkpt>
   <trkpt lat="31.186638" lon="35.32304"><ele>95</ele><name>TP07138</name><time>2020-01-27T13:42:06Z</time></trkpt>
   <trkpt lat="31.186638" lon="35.32304"><ele>95</ele><name>TP07139</name><time>2020-01-27T13:42:08Z</time></trkpt>
   <trkpt lat="31.186638" lon="35.32304"><ele>95</ele><name>TP07140</name><time>2020-01-27T13:42:09Z</time></trkpt>
   <trkpt lat="31.186638" lon="35.32304"><ele>95</ele><name>TP07141</name><time>2020-01-27T13:42:11Z</time></trkpt>
   <trkpt lat="31.186637" lon="35.32304"><ele>95</ele><name>TP07142</name><time>2020-01-27T13:42:13Z</time></trkpt>
   <trkpt lat="31.186637" lon="35.323039"><ele>95</ele><name>TP07143</name><time>2020-01-27T13:42:15Z</time></trkpt>
   <trkpt lat="31.186636" lon="35.32304"><ele>95</ele><name>TP07144</name><time>2020-01-27T13:42:17Z</time></trkpt>
   <trkpt lat="31.186636" lon="35.32304"><ele>95</ele><name>TP07145</name><time>2020-01-27T13:42:18Z</time></trkpt>
   <trkpt lat="31.186636" lon="35.32304"><ele>95</ele><name>TP07146</name><time>2020-01-27T13:42:20Z</time></trkpt>
   <trkpt lat="31.186636" lon="35.32304"><ele>95</ele><name>TP07147</name><time>2020-01-27T13:42:21Z</time></trkpt>
   <trkpt lat="31.186636" lon="35.32304"><ele>95</ele><name>TP07148</name><time>2020-01-27T13:42:23Z</time></trkpt>
   <trkpt lat="31.186636" lon="35.32304"><ele>95</ele><name>TP07149</name><time>2020-01-27T13:42:25Z</time></trkpt>
   <trkpt lat="31.186636" lon="35.32304"><ele>95</ele><name>TP07150</name><time>2020-01-27T13:42:27Z</time></trkpt>
   <trkpt lat="31.186636" lon="35.32304"><ele>95</ele><name>TP07151</name><time>2020-01-27T13:42:28Z</time></trkpt>
   <trkpt lat="31.186636" lon="35.32304"><ele>95</ele><name>TP07152</name><time>2020-01-27T13:42:29Z</time></trkpt>
   <trkpt lat="31.186635" lon="35.32304"><ele>95</ele><name>TP07153</name><time>2020-01-27T13:42:31Z</time></trkpt>
   <trkpt lat="31.186635" lon="35.323039"><ele>95</ele><name>TP07154</name><time>2020-01-27T13:42:32Z</time></trkpt>
   <trkpt lat="31.186635" lon="35.323039"><ele>95</ele><name>TP07155</name><time>2020-01-27T13:42:34Z</time></trkpt>
   <trkpt lat="31.186635" lon="35.323039"><ele>95</ele><name>TP07156</name><time>2020-01-27T13:42:35Z</time></trkpt>
   <trkpt lat="31.186635" lon="35.32304"><ele>95</ele><name>TP07157</name><time>2020-01-27T13:42:37Z</time></trkpt>
   <trkpt lat="31.186635" lon="35.32304"><ele>95</ele><name>TP07158</name><time>2020-01-27T13:42:39Z</time></trkpt>
   <trkpt lat="31.186635" lon="35.323042"><ele>94.9</ele><name>TP07159</name><time>2020-01-27T13:42:41Z</time></trkpt>
   <trkpt lat="31.186635" lon="35.323043"><ele>94.9</ele><name>TP07160</name><time>2020-01-27T13:42:43Z</time></trkpt>
   <trkpt lat="31.186636" lon="35.323043"><ele>94.9</ele><name>TP07161</name><time>2020-01-27T13:42:44Z</time></trkpt>
   <trkpt lat="31.186636" lon="35.323044"><ele>94.9</ele><name>TP07162</name><time>2020-01-27T13:42:46Z</time></trkpt>
   <trkpt lat="31.186636" lon="35.323044"><ele>94.9</ele><name>TP07163</name><time>2020-01-27T13:42:47Z</time></trkpt>
   <trkpt lat="31.186636" lon="35.323044"><ele>94.9</ele><name>TP07164</name><time>2020-01-27T13:42:48Z</time></trkpt>
   <trkpt lat="31.186636" lon="35.323044"><ele>94.9</ele><name>TP07165</name><time>2020-01-27T13:42:50Z</time></trkpt>
   <trkpt lat="31.186636" lon="35.323045"><ele>94.9</ele><name>TP07166</name><time>2020-01-27T13:42:52Z</time></trkpt>
   <trkpt lat="31.186637" lon="35.323044"><ele>94.9</ele><name>TP07167</name><time>2020-01-27T13:42:54Z</time></trkpt>
   <trkpt lat="31.186637" lon="35.323044"><ele>94.9</ele><name>TP07168</name><time>2020-01-27T13:42:55Z</time></trkpt>
   <trkpt lat="31.186636" lon="35.323043"><ele>94.9</ele><name>TP07169</name><time>2020-01-27T13:42:57Z</time></trkpt>
   <trkpt lat="31.186637" lon="35.323043"><ele>94.9</ele><name>TP07170</name><time>2020-01-27T13:42:59Z</time></trkpt>
   <trkpt lat="31.186637" lon="35.323044"><ele>94.9</ele><name>TP07171</name><time>2020-01-27T13:43:01Z</time></trkpt>
   <trkpt lat="31.186637" lon="35.323044"><ele>94.9</ele><name>TP07172</name><time>2020-01-27T13:43:02Z</time></trkpt>
   <trkpt lat="31.186638" lon="35.323044"><ele>94.9</ele><name>TP07173</name><time>2020-01-27T13:43:04Z</time></trkpt>
   <trkpt lat="31.186638" lon="35.323044"><ele>94.9</ele><name>TP07174</name><time>2020-01-27T13:43:05Z</time></trkpt>
   <trkpt lat="31.186638" lon="35.323044"><ele>94.9</ele><name>TP07175</name><time>2020-01-27T13:43:07Z</time></trkpt>
   <trkpt lat="31.186638" lon="35.323044"><ele>94.9</ele><name>TP07176</name><time>2020-01-27T13:43:09Z</time></trkpt>
   <trkpt lat="31.186638" lon="35.323044"><ele>94.9</ele><name>TP07177</name><time>2020-01-27T13:43:10Z</time></trkpt>
   <trkpt lat="31.186638" lon="35.323044"><ele>94.9</ele><name>TP07178</name><time>2020-01-27T13:43:12Z</time></trkpt>
   <trkpt lat="31.186637" lon="35.323045"><ele>94.9</ele><name>TP07179</name><time>2020-01-27T13:43:14Z</time></trkpt>
   <trkpt lat="31.186637" lon="35.323045"><ele>94.9</ele><name>TP07180</name><time>2020-01-27T13:43:15Z</time></trkpt>
   <trkpt lat="31.186637" lon="35.323045"><ele>94.9</ele><name>TP07181</name><time>2020-01-27T13:43:16Z</time></trkpt>
   <trkpt lat="31.186637" lon="35.323045"><ele>94.9</ele><name>TP07182</name><time>2020-01-27T13:43:18Z</time></trkpt>
   <trkpt lat="31.186637" lon="35.323045"><ele>94.9</ele><name>TP07183</name><time>2020-01-27T13:43:20Z</time></trkpt>
   <trkpt lat="31.186637" lon="35.323045"><ele>94.9</ele><name>TP07184</name><time>2020-01-27T13:43:21Z</time></trkpt>
   <trkpt lat="31.186637" lon="35.323044"><ele>94.9</ele><name>TP07185</name><time>2020-01-27T13:43:23Z</time></trkpt>
   <trkpt lat="31.186637" lon="35.323044"><ele>94.9</ele><name>TP07186</name><time>2020-01-27T13:43:25Z</time></trkpt>
   <trkpt lat="31.186637" lon="35.323044"><ele>94.9</ele><name>TP07187</name><time>2020-01-27T13:43:26Z</time></trkpt>
   <trkpt lat="31.186637" lon="35.323044"><ele>94.9</ele><name>TP07188</name><time>2020-01-27T13:43:27Z</time></trkpt>
   <trkpt lat="31.186637" lon="35.323044"><ele>94.9</ele><name>TP07189</name><time>2020-01-27T13:43:29Z</time></trkpt>
   <trkpt lat="31.186637" lon="35.323044"><ele>94.9</ele><name>TP07190</name><time>2020-01-27T13:43:30Z</time></trkpt>
   <trkpt lat="31.186637" lon="35.323044"><ele>94.9</ele><name>TP07191</name><time>2020-01-27T13:43:32Z</time></trkpt>
   <trkpt lat="31.186637" lon="35.323044"><ele>94.9</ele><name>TP07192</name><time>2020-01-27T13:43:33Z</time></trkpt>
   <trkpt lat="31.186637" lon="35.323044"><ele>94.9</ele><name>TP07193</name><time>2020-01-27T13:43:35Z</time></trkpt>
   <trkpt lat="31.186637" lon="35.323044"><ele>94.9</ele><name>TP07194</name><time>2020-01-27T13:43:36Z</time></trkpt>
   <trkpt lat="31.186637" lon="35.323043"><ele>94.9</ele><name>TP07195</name><time>2020-01-27T13:43:38Z</time></trkpt>
   <trkpt lat="31.186637" lon="35.323043"><ele>94.9</ele><name>TP07196</name><time>2020-01-27T13:43:39Z</time></trkpt>
   <trkpt lat="31.186637" lon="35.323042"><ele>94.9</ele><name>TP07197</name><time>2020-01-27T13:43:40Z</time></trkpt>
   <trkpt lat="31.186637" lon="35.323042"><ele>94.9</ele><name>TP07198</name><time>2020-01-27T13:43:41Z</time></trkpt>
   <trkpt lat="31.186637" lon="35.323042"><ele>94.9</ele><name>TP07199</name><time>2020-01-27T13:43:42Z</time></trkpt>
   <trkpt lat="31.186637" lon="35.323042"><ele>94.9</ele><name>TP07200</name><time>2020-01-27T13:43:44Z</time></trkpt>
   <trkpt lat="31.186637" lon="35.323041"><ele>94.9</ele><name>TP07201</name><time>2020-01-27T13:43:45Z</time></trkpt>
   <trkpt lat="31.186637" lon="35.32304"><ele>94.9</ele><name>TP07202</name><time>2020-01-27T13:43:47Z</time></trkpt>
   <trkpt lat="31.186637" lon="35.32304"><ele>94.9</ele><name>TP07203</name><time>2020-01-27T13:43:48Z</time></trkpt>
   <trkpt lat="31.186637" lon="35.32304"><ele>94.9</ele><name>TP07204</name><time>2020-01-27T13:43:49Z</time></trkpt>
   <trkpt lat="31.186637" lon="35.323039"><ele>94.9</ele><name>TP07205</name><time>2020-01-27T13:43:50Z</time></trkpt>
   <trkpt lat="31.186637" lon="35.323039"><ele>94.9</ele><name>TP07206</name><time>2020-01-27T13:43:52Z</time></trkpt>
   <trkpt lat="31.186638" lon="35.323039"><ele>94.8</ele><name>TP07207</name><time>2020-01-27T13:43:54Z</time></trkpt>
   <trkpt lat="31.186638" lon="35.323039"><ele>94.8</ele><name>TP07208</name><time>2020-01-27T13:43:56Z</time></trkpt>
   <trkpt lat="31.186638" lon="35.323039"><ele>94.8</ele><name>TP07209</name><time>2020-01-27T13:43:58Z</time></trkpt>
   <trkpt lat="31.186638" lon="35.32304"><ele>94.8</ele><name>TP07210</name><time>2020-01-27T13:44:00Z</time></trkpt>
   <trkpt lat="31.186638" lon="35.32304"><ele>94.8</ele><name>TP07211</name><time>2020-01-27T13:44:02Z</time></trkpt>
   <trkpt lat="31.186638" lon="35.32304"><ele>94.8</ele><name>TP07212</name><time>2020-01-27T13:44:04Z</time></trkpt>
   <trkpt lat="31.186638" lon="35.32304"><ele>94.8</ele><name>TP07213</name><time>2020-01-27T13:44:06Z</time></trkpt>
   <trkpt lat="31.186639" lon="35.323038"><ele>94.8</ele><name>TP07214</name><time>2020-01-27T13:44:07Z</time></trkpt>
   <trkpt lat="31.18664" lon="35.323036"><ele>94.8</ele><name>TP07215</name><time>2020-01-27T13:44:08Z</time></trkpt>
   <trkpt lat="31.18664" lon="35.323036"><ele>94.8</ele><name>TP07216</name><time>2020-01-27T13:44:09Z</time></trkpt>
   <trkpt lat="31.18664" lon="35.323034"><ele>94.8</ele><name>TP07217</name><time>2020-01-27T13:44:11Z</time></trkpt>
   <trkpt lat="31.186641" lon="35.323032"><ele>94.8</ele><name>TP07218</name><time>2020-01-27T13:44:12Z</time></trkpt>
   <trkpt lat="31.186641" lon="35.323032"><ele>94.8</ele><name>TP07219</name><time>2020-01-27T13:44:13Z</time></trkpt>
   <trkpt lat="31.18664" lon="35.323035"><ele>94.8</ele><name>TP07220</name><time>2020-01-27T13:44:15Z</time></trkpt>
   <trkpt lat="31.186639" lon="35.323036"><ele>94.8</ele><name>TP07221</name><time>2020-01-27T13:44:17Z</time></trkpt>
   <trkpt lat="31.186638" lon="35.323036"><ele>94.8</ele><name>TP07222</name><time>2020-01-27T13:44:18Z</time></trkpt>
   <trkpt lat="31.186638" lon="35.323037"><ele>94.8</ele><name>TP07223</name><time>2020-01-27T13:44:19Z</time></trkpt>
   <trkpt lat="31.186638" lon="35.323037"><ele>94.8</ele><name>TP07224</name><time>2020-01-27T13:44:20Z</time></trkpt>
   <trkpt lat="31.186637" lon="35.323038"><ele>94.8</ele><name>TP07225</name><time>2020-01-27T13:44:22Z</time></trkpt>
   <trkpt lat="31.186636" lon="35.323039"><ele>94.7</ele><name>TP07226</name><time>2020-01-27T13:44:24Z</time></trkpt>
   <trkpt lat="31.186636" lon="35.323039"><ele>94.7</ele><name>TP07227</name><time>2020-01-27T13:44:26Z</time></trkpt>
   <trkpt lat="31.186637" lon="35.323039"><ele>94.7</ele><name>TP07228</name><time>2020-01-27T13:44:27Z</time></trkpt>
   <trkpt lat="31.186637" lon="35.32304"><ele>94.7</ele><name>TP07229</name><time>2020-01-27T13:44:29Z</time></trkpt>
   <trkpt lat="31.186637" lon="35.323039"><ele>94.7</ele><name>TP07230</name><time>2020-01-27T13:44:30Z</time></trkpt>
   <trkpt lat="31.186637" lon="35.323039"><ele>94.7</ele><name>TP07231</name><time>2020-01-27T13:44:31Z</time></trkpt>
   <trkpt lat="31.186637" lon="35.323039"><ele>94.7</ele><name>TP07232</name><time>2020-01-27T13:44:33Z</time></trkpt>
   <trkpt lat="31.186637" lon="35.323039"><ele>94.7</ele><name>TP07233</name><time>2020-01-27T13:44:34Z</time></trkpt>
   <trkpt lat="31.186637" lon="35.323039"><ele>94.7</ele><name>TP07234</name><time>2020-01-27T13:44:35Z</time></trkpt>
   <trkpt lat="31.186637" lon="35.323039"><ele>94.7</ele><name>TP07235</name><time>2020-01-27T13:44:37Z</time></trkpt>
   <trkpt lat="31.186637" lon="35.323039"><ele>94.7</ele><name>TP07236</name><time>2020-01-27T13:44:39Z</time></trkpt>
   <trkpt lat="31.186637" lon="35.323039"><ele>94.7</ele><name>TP07237</name><time>2020-01-27T13:44:40Z</time></trkpt>
   <trkpt lat="31.186637" lon="35.323039"><ele>94.7</ele><name>TP07238</name><time>2020-01-27T13:44:41Z</time></trkpt>
   <trkpt lat="31.186637" lon="35.323039"><ele>94.7</ele><name>TP07239</name><time>2020-01-27T13:44:43Z</time></trkpt>
   <trkpt lat="31.186636" lon="35.323039"><ele>94.7</ele><name>TP07240</name><time>2020-01-27T13:44:44Z</time></trkpt>
   <trkpt lat="31.186636" lon="35.323039"><ele>94.7</ele><name>TP07241</name><time>2020-01-27T13:44:46Z</time></trkpt>
   <trkpt lat="31.186636" lon="35.323039"><ele>94.7</ele><name>TP07242</name><time>2020-01-27T13:44:47Z</time></trkpt>
   <trkpt lat="31.186636" lon="35.323039"><ele>94.7</ele><name>TP07243</name><time>2020-01-27T13:44:48Z</time></trkpt>
   <trkpt lat="31.186636" lon="35.32304"><ele>94.7</ele><name>TP07244</name><time>2020-01-27T13:44:50Z</time></trkpt>
   <trkpt lat="31.186636" lon="35.32304"><ele>94.7</ele><name>TP07245</name><time>2020-01-27T13:44:51Z</time></trkpt>
   <trkpt lat="31.186636" lon="35.32304"><ele>94.7</ele><name>TP07246</name><time>2020-01-27T13:44:53Z</time></trkpt>
   <trkpt lat="31.186636" lon="35.32304"><ele>94.7</ele><name>TP07247</name><time>2020-01-27T13:44:54Z</time></trkpt>
   <trkpt lat="31.186636" lon="35.32304"><ele>94.7</ele><name>TP07248</name><time>2020-01-27T13:44:56Z</time></trkpt>
   <trkpt lat="31.186636" lon="35.32304"><ele>94.7</ele><name>TP07249</name><time>2020-01-27T13:44:57Z</time></trkpt>
   <trkpt lat="31.186635" lon="35.32304"><ele>94.7</ele><name>TP07250</name><time>2020-01-27T13:44:59Z</time></trkpt>
   <trkpt lat="31.186635" lon="35.32304"><ele>94.7</ele><name>TP07251</name><time>2020-01-27T13:45:00Z</time></trkpt>
   <trkpt lat="31.186635" lon="35.32304"><ele>94.7</ele><name>TP07252</name><time>2020-01-27T13:45:02Z</time></trkpt>
   <trkpt lat="31.186635" lon="35.32304"><ele>94.7</ele><name>TP07253</name><time>2020-01-27T13:45:03Z</time></trkpt>
   <trkpt lat="31.186635" lon="35.32304"><ele>94.7</ele><name>TP07254</name><time>2020-01-27T13:45:04Z</time></trkpt>
   <trkpt lat="31.186635" lon="35.32304"><ele>94.7</ele><name>TP07255</name><time>2020-01-27T13:45:06Z</time></trkpt>
   <trkpt lat="31.186635" lon="35.32304"><ele>94.7</ele><name>TP07256</name><time>2020-01-27T13:45:07Z</time></trkpt>
   <trkpt lat="31.186635" lon="35.32304"><ele>94.7</ele><name>TP07257</name><time>2020-01-27T13:45:09Z</time></trkpt>
   <trkpt lat="31.186635" lon="35.32304"><ele>94.7</ele><name>TP07258</name><time>2020-01-27T13:45:10Z</time></trkpt>
   <trkpt lat="31.186635" lon="35.32304"><ele>94.7</ele><name>TP07259</name><time>2020-01-27T13:45:12Z</time></trkpt>
   <trkpt lat="31.186635" lon="35.32304"><ele>94.7</ele><name>TP07260</name><time>2020-01-27T13:45:14Z</time></trkpt>
   <trkpt lat="31.186635" lon="35.32304"><ele>94.7</ele><name>TP07261</name><time>2020-01-27T13:45:16Z</time></trkpt>
   <trkpt lat="31.186635" lon="35.32304"><ele>94.7</ele><name>TP07262</name><time>2020-01-27T13:45:17Z</time></trkpt>
   <trkpt lat="31.186635" lon="35.32304"><ele>94.7</ele><name>TP07263</name><time>2020-01-27T13:45:18Z</time></trkpt>
   <trkpt lat="31.186635" lon="35.32304"><ele>94.7</ele><name>TP07264</name><time>2020-01-27T13:45:19Z</time></trkpt>
   <trkpt lat="31.186635" lon="35.323039"><ele>94.7</ele><name>TP07265</name><time>2020-01-27T13:45:21Z</time></trkpt>
   <trkpt lat="31.186634" lon="35.323039"><ele>94.7</ele><name>TP07266</name><time>2020-01-27T13:45:23Z</time></trkpt>
   <trkpt lat="31.186634" lon="35.323039"><ele>94.7</ele><name>TP07267</name><time>2020-01-27T13:45:24Z</time></trkpt>
   <trkpt lat="31.186634" lon="35.323039"><ele>94.7</ele><name>TP07268</name><time>2020-01-27T13:45:25Z</time></trkpt>
   <trkpt lat="31.186634" lon="35.323039"><ele>94.7</ele><name>TP07269</name><time>2020-01-27T13:45:27Z</time></trkpt>
   <trkpt lat="31.186634" lon="35.323039"><ele>94.7</ele><name>TP07270</name><time>2020-01-27T13:45:29Z</time></trkpt>
   <trkpt lat="31.186634" lon="35.323039"><ele>94.7</ele><name>TP07271</name><time>2020-01-27T13:45:30Z</time></trkpt>
   <trkpt lat="31.186634" lon="35.323039"><ele>94.7</ele><name>TP07272</name><time>2020-01-27T13:45:32Z</time></trkpt>
   <trkpt lat="31.186634" lon="35.323039"><ele>94.7</ele><name>TP07273</name><time>2020-01-27T13:45:33Z</time></trkpt>
   <trkpt lat="31.186634" lon="35.323039"><ele>94.7</ele><name>TP07274</name><time>2020-01-27T13:45:35Z</time></trkpt>
   <trkpt lat="31.186634" lon="35.32304"><ele>94.7</ele><name>TP07275</name><time>2020-01-27T13:45:37Z</time></trkpt>
   <trkpt lat="31.186635" lon="35.32304"><ele>94.7</ele><name>TP07276</name><time>2020-01-27T13:45:39Z</time></trkpt>
   <trkpt lat="31.186635" lon="35.32304"><ele>94.7</ele><name>TP07277</name><time>2020-01-27T13:45:41Z</time></trkpt>
   <trkpt lat="31.186635" lon="35.323041"><ele>94.7</ele><name>TP07278</name><time>2020-01-27T13:45:43Z</time></trkpt>
   <trkpt lat="31.186635" lon="35.323041"><ele>94.7</ele><name>TP07279</name><time>2020-01-27T13:45:45Z</time></trkpt>
   <trkpt lat="31.186635" lon="35.323041"><ele>94.7</ele><name>TP07280</name><time>2020-01-27T13:45:46Z</time></trkpt>
   <trkpt lat="31.186635" lon="35.323041"><ele>94.7</ele><name>TP07281</name><time>2020-01-27T13:45:48Z</time></trkpt>
   <trkpt lat="31.186634" lon="35.323041"><ele>94.7</ele><name>TP07282</name><time>2020-01-27T13:45:50Z</time></trkpt>
   <trkpt lat="31.186634" lon="35.323041"><ele>94.7</ele><name>TP07283</name><time>2020-01-27T13:45:51Z</time></trkpt>
   <trkpt lat="31.186634" lon="35.323041"><ele>94.7</ele><name>TP07284</name><time>2020-01-27T13:45:52Z</time></trkpt>
   <trkpt lat="31.186634" lon="35.323041"><ele>94.7</ele><name>TP07285</name><time>2020-01-27T13:45:54Z</time></trkpt>
   <trkpt lat="31.186634" lon="35.323041"><ele>94.7</ele><name>TP07286</name><time>2020-01-27T13:45:56Z</time></trkpt>
   <trkpt lat="31.186634" lon="35.323041"><ele>94.7</ele><name>TP07287</name><time>2020-01-27T13:45:57Z</time></trkpt>
   <trkpt lat="31.186634" lon="35.323041"><ele>94.7</ele><name>TP07288</name><time>2020-01-27T13:45:58Z</time></trkpt>
   <trkpt lat="31.186634" lon="35.323041"><ele>94.7</ele><name>TP07289</name><time>2020-01-27T13:45:59Z</time></trkpt>
   <trkpt lat="31.186634" lon="35.323041"><ele>94.7</ele><name>TP07290</name><time>2020-01-27T13:46:01Z</time></trkpt>
   <trkpt lat="31.186634" lon="35.323041"><ele>94.7</ele><name>TP07291</name><time>2020-01-27T13:46:02Z</time></trkpt>
   <trkpt lat="31.186634" lon="35.323041"><ele>94.7</ele><name>TP07292</name><time>2020-01-27T13:46:03Z</time></trkpt>
   <trkpt lat="31.186634" lon="35.323041"><ele>94.7</ele><name>TP07293</name><time>2020-01-27T13:46:05Z</time></trkpt>
   <trkpt lat="31.186633" lon="35.323041"><ele>94.7</ele><name>TP07294</name><time>2020-01-27T13:46:06Z</time></trkpt>
   <trkpt lat="31.186633" lon="35.323041"><ele>94.7</ele><name>TP07295</name><time>2020-01-27T13:46:07Z</time></trkpt>
   <trkpt lat="31.186633" lon="35.323041"><ele>94.7</ele><name>TP07296</name><time>2020-01-27T13:46:09Z</time></trkpt>
   <trkpt lat="31.186633" lon="35.323041"><ele>94.7</ele><name>TP07297</name><time>2020-01-27T13:46:10Z</time></trkpt>
   <trkpt lat="31.186633" lon="35.323041"><ele>94.7</ele><name>TP07298</name><time>2020-01-27T13:46:11Z</time></trkpt>
   <trkpt lat="31.186633" lon="35.323041"><ele>94.7</ele><name>TP07299</name><time>2020-01-27T13:46:13Z</time></trkpt>
   <trkpt lat="31.186633" lon="35.323041"><ele>94.7</ele><name>TP07300</name><time>2020-01-27T13:46:14Z</time></trkpt>
   <trkpt lat="31.186633" lon="35.323041"><ele>94.7</ele><name>TP07301</name><time>2020-01-27T13:46:16Z</time></trkpt>
   <trkpt lat="31.186633" lon="35.323041"><ele>94.7</ele><name>TP07302</name><time>2020-01-27T13:46:17Z</time></trkpt>
   <trkpt lat="31.186633" lon="35.323041"><ele>94.7</ele><name>TP07303</name><time>2020-01-27T13:46:19Z</time></trkpt>
   <trkpt lat="31.186633" lon="35.323041"><ele>94.7</ele><name>TP07304</name><time>2020-01-27T13:46:20Z</time></trkpt>
   <trkpt lat="31.186633" lon="35.323041"><ele>94.7</ele><name>TP07305</name><time>2020-01-27T13:46:21Z</time></trkpt>
   <trkpt lat="31.186633" lon="35.323041"><ele>94.7</ele><name>TP07306</name><time>2020-01-27T13:46:23Z</time></trkpt>
   <trkpt lat="31.186632" lon="35.323041"><ele>94.7</ele><name>TP07307</name><time>2020-01-27T13:46:25Z</time></trkpt>
   <trkpt lat="31.186632" lon="35.32304"><ele>94.7</ele><name>TP07308</name><time>2020-01-27T13:46:27Z</time></trkpt>
   <trkpt lat="31.186632" lon="35.32304"><ele>94.7</ele><name>TP07309</name><time>2020-01-27T13:46:28Z</time></trkpt>
   <trkpt lat="31.186632" lon="35.32304"><ele>94.7</ele><name>TP07310</name><time>2020-01-27T13:46:29Z</time></trkpt>
   <trkpt lat="31.186632" lon="35.32304"><ele>94.7</ele><name>TP07311</name><time>2020-01-27T13:46:30Z</time></trkpt>
   <trkpt lat="31.186632" lon="35.32304"><ele>94.7</ele><name>TP07312</name><time>2020-01-27T13:46:32Z</time></trkpt>
   <trkpt lat="31.186632" lon="35.32304"><ele>94.7</ele><name>TP07313</name><time>2020-01-27T13:46:33Z</time></trkpt>
   <trkpt lat="31.186632" lon="35.32304"><ele>94.7</ele><name>TP07314</name><time>2020-01-27T13:46:35Z</time></trkpt>
   <trkpt lat="31.186633" lon="35.323041"><ele>94.7</ele><name>TP07315</name><time>2020-01-27T13:46:37Z</time></trkpt>
   <trkpt lat="31.186633" lon="35.323041"><ele>94.7</ele><name>TP07316</name><time>2020-01-27T13:46:39Z</time></trkpt>
   <trkpt lat="31.186633" lon="35.323041"><ele>94.7</ele><name>TP07317</name><time>2020-01-27T13:46:40Z</time></trkpt>
   <trkpt lat="31.186633" lon="35.323041"><ele>94.7</ele><name>TP07318</name><time>2020-01-27T13:46:42Z</time></trkpt>
   <trkpt lat="31.186633" lon="35.323041"><ele>94.7</ele><name>TP07319</name><time>2020-01-27T13:46:43Z</time></trkpt>
   <trkpt lat="31.186633" lon="35.323041"><ele>94.7</ele><name>TP07320</name><time>2020-01-27T13:46:44Z</time></trkpt>
   <trkpt lat="31.186633" lon="35.323041"><ele>94.7</ele><name>TP07321</name><time>2020-01-27T13:46:46Z</time></trkpt>
   <trkpt lat="31.186633" lon="35.323041"><ele>94.7</ele><name>TP07322</name><time>2020-01-27T13:46:47Z</time></trkpt>
   <trkpt lat="31.186633" lon="35.323041"><ele>94.7</ele><name>TP07323</name><time>2020-01-27T13:46:48Z</time></trkpt>
   <trkpt lat="31.186633" lon="35.32304"><ele>94.6</ele><name>TP07324</name><time>2020-01-27T13:46:50Z</time></trkpt>
   <trkpt lat="31.186633" lon="35.32304"><ele>94.6</ele><name>TP07325</name><time>2020-01-27T13:46:51Z</time></trkpt>
   <trkpt lat="31.186632" lon="35.32304"><ele>94.6</ele><name>TP07326</name><time>2020-01-27T13:46:53Z</time></trkpt>
   <trkpt lat="31.186632" lon="35.32304"><ele>94.6</ele><name>TP07327</name><time>2020-01-27T13:46:54Z</time></trkpt>
   <trkpt lat="31.186632" lon="35.32304"><ele>94.6</ele><name>TP07328</name><time>2020-01-27T13:46:55Z</time></trkpt>
   <trkpt lat="31.186632" lon="35.32304"><ele>94.6</ele><name>TP07329</name><time>2020-01-27T13:46:57Z</time></trkpt>
   <trkpt lat="31.186632" lon="35.32304"><ele>94.6</ele><name>TP07330</name><time>2020-01-27T13:46:59Z</time></trkpt>
   <trkpt lat="31.186632" lon="35.32304"><ele>94.6</ele><name>TP07331</name><time>2020-01-27T13:47:01Z</time></trkpt>
   <trkpt lat="31.186632" lon="35.32304"><ele>94.6</ele><name>TP07332</name><time>2020-01-27T13:47:02Z</time></trkpt>
   <trkpt lat="31.186632" lon="35.32304"><ele>94.6</ele><name>TP07333</name><time>2020-01-27T13:47:04Z</time></trkpt>
   <trkpt lat="31.186632" lon="35.32304"><ele>94.6</ele><name>TP07334</name><time>2020-01-27T13:47:05Z</time></trkpt>
   <trkpt lat="31.186632" lon="35.32304"><ele>94.6</ele><name>TP07335</name><time>2020-01-27T13:47:07Z</time></trkpt>
   <trkpt lat="31.186632" lon="35.32304"><ele>94.6</ele><name>TP07336</name><time>2020-01-27T13:47:08Z</time></trkpt>
   <trkpt lat="31.186632" lon="35.32304"><ele>94.6</ele><name>TP07337</name><time>2020-01-27T13:47:10Z</time></trkpt>
   <trkpt lat="31.186632" lon="35.32304"><ele>94.6</ele><name>TP07338</name><time>2020-01-27T13:47:11Z</time></trkpt>
   <trkpt lat="31.186632" lon="35.32304"><ele>94.6</ele><name>TP07339</name><time>2020-01-27T13:47:13Z</time></trkpt>
   <trkpt lat="31.186632" lon="35.32304"><ele>94.6</ele><name>TP07340</name><time>2020-01-27T13:47:14Z</time></trkpt>
   <trkpt lat="31.186632" lon="35.32304"><ele>94.6</ele><name>TP07341</name><time>2020-01-27T13:47:15Z</time></trkpt>
   <trkpt lat="31.186632" lon="35.32304"><ele>94.6</ele><name>TP07342</name><time>2020-01-27T13:47:17Z</time></trkpt>
   <trkpt lat="31.186632" lon="35.32304"><ele>94.6</ele><name>TP07343</name><time>2020-01-27T13:47:19Z</time></trkpt>
   <trkpt lat="31.186632" lon="35.323039"><ele>94.6</ele><name>TP07344</name><time>2020-01-27T13:47:21Z</time></trkpt>
   <trkpt lat="31.186632" lon="35.323039"><ele>94.6</ele><name>TP07345</name><time>2020-01-27T13:47:22Z</time></trkpt>
   <trkpt lat="31.186632" lon="35.323039"><ele>94.6</ele><name>TP07346</name><time>2020-01-27T13:47:24Z</time></trkpt>
   <trkpt lat="31.186632" lon="35.323039"><ele>94.6</ele><name>TP07347</name><time>2020-01-27T13:47:25Z</time></trkpt>
   <trkpt lat="31.186632" lon="35.323039"><ele>94.6</ele><name>TP07348</name><time>2020-01-27T13:47:27Z</time></trkpt>
   <trkpt lat="31.186632" lon="35.323039"><ele>94.6</ele><name>TP07349</name><time>2020-01-27T13:47:28Z</time></trkpt>
   <trkpt lat="31.186632" lon="35.323039"><ele>94.6</ele><name>TP07350</name><time>2020-01-27T13:47:29Z</time></trkpt>
   <trkpt lat="31.186632" lon="35.323039"><ele>94.6</ele><name>TP07351</name><time>2020-01-27T13:47:31Z</time></trkpt>
   <trkpt lat="31.186632" lon="35.323039"><ele>94.6</ele><name>TP07352</name><time>2020-01-27T13:47:32Z</time></trkpt>
   <trkpt lat="31.186632" lon="35.323039"><ele>94.6</ele><name>TP07353</name><time>2020-01-27T13:47:33Z</time></trkpt>
   <trkpt lat="31.186632" lon="35.323039"><ele>94.6</ele><name>TP07354</name><time>2020-01-27T13:47:35Z</time></trkpt>
   <trkpt lat="31.186632" lon="35.323039"><ele>94.6</ele><name>TP07355</name><time>2020-01-27T13:47:36Z</time></trkpt>
   <trkpt lat="31.186633" lon="35.32304"><ele>94.6</ele><name>TP07356</name><time>2020-01-27T13:47:38Z</time></trkpt>
   <trkpt lat="31.186633" lon="35.32304"><ele>94.6</ele><name>TP07357</name><time>2020-01-27T13:47:40Z</time></trkpt>
   <trkpt lat="31.186633" lon="35.32304"><ele>94.6</ele><name>TP07358</name><time>2020-01-27T13:47:41Z</time></trkpt>
   <trkpt lat="31.186633" lon="35.32304"><ele>94.6</ele><name>TP07359</name><time>2020-01-27T13:47:42Z</time></trkpt>
   <trkpt lat="31.186632" lon="35.32304"><ele>94.6</ele><name>TP07360</name><time>2020-01-27T13:47:44Z</time></trkpt>
   <trkpt lat="31.186632" lon="35.32304"><ele>94.6</ele><name>TP07361</name><time>2020-01-27T13:47:46Z</time></trkpt>
   <trkpt lat="31.186632" lon="35.32304"><ele>94.6</ele><name>TP07362</name><time>2020-01-27T13:47:47Z</time></trkpt>
   <trkpt lat="31.186632" lon="35.32304"><ele>94.6</ele><name>TP07363</name><time>2020-01-27T13:47:48Z</time></trkpt>
   <trkpt lat="31.186632" lon="35.32304"><ele>94.6</ele><name>TP07364</name><time>2020-01-27T13:47:50Z</time></trkpt>
   <trkpt lat="31.186632" lon="35.32304"><ele>94.6</ele><name>TP07365</name><time>2020-01-27T13:47:52Z</time></trkpt>
   <trkpt lat="31.186632" lon="35.32304"><ele>94.6</ele><name>TP07366</name><time>2020-01-27T13:47:53Z</time></trkpt>
   <trkpt lat="31.186632" lon="35.32304"><ele>94.6</ele><name>TP07367</name><time>2020-01-27T13:47:54Z</time></trkpt>
   <trkpt lat="31.186632" lon="35.32304"><ele>94.6</ele><name>TP07368</name><time>2020-01-27T13:47:56Z</time></trkpt>
   <trkpt lat="31.186632" lon="35.32304"><ele>94.6</ele><name>TP07369</name><time>2020-01-27T13:47:57Z</time></trkpt>
   <trkpt lat="31.186632" lon="35.32304"><ele>94.6</ele><name>TP07370</name><time>2020-01-27T13:47:58Z</time></trkpt>
   <trkpt lat="31.186632" lon="35.32304"><ele>94.6</ele><name>TP07371</name><time>2020-01-27T13:47:59Z</time></trkpt>
   <trkpt lat="31.186632" lon="35.323039"><ele>94.6</ele><name>TP07372</name><time>2020-01-27T13:48:01Z</time></trkpt>
   <trkpt lat="31.186632" lon="35.323039"><ele>94.6</ele><name>TP07373</name><time>2020-01-27T13:48:02Z</time></trkpt>
   <trkpt lat="31.186631" lon="35.323039"><ele>94.6</ele><name>TP07374</name><time>2020-01-27T13:48:04Z</time></trkpt>
   <trkpt lat="31.186631" lon="35.323039"><ele>94.6</ele><name>TP07375</name><time>2020-01-27T13:48:05Z</time></trkpt>
   <trkpt lat="31.186631" lon="35.323039"><ele>94.6</ele><name>TP07376</name><time>2020-01-27T13:48:07Z</time></trkpt>
   <trkpt lat="31.186631" lon="35.323039"><ele>94.6</ele><name>TP07377</name><time>2020-01-27T13:48:09Z</time></trkpt>
   <trkpt lat="31.186631" lon="35.323039"><ele>94.6</ele><name>TP07378</name><time>2020-01-27T13:48:11Z</time></trkpt>
   <trkpt lat="31.186631" lon="35.323039"><ele>94.6</ele><name>TP07379</name><time>2020-01-27T13:48:12Z</time></trkpt>
   <trkpt lat="31.186631" lon="35.323039"><ele>94.6</ele><name>TP07380</name><time>2020-01-27T13:48:13Z</time></trkpt>
   <trkpt lat="31.186631" lon="35.323039"><ele>94.6</ele><name>TP07381</name><time>2020-01-27T13:48:15Z</time></trkpt>
   <trkpt lat="31.186631" lon="35.323039"><ele>94.6</ele><name>TP07382</name><time>2020-01-27T13:48:16Z</time></trkpt>
   <trkpt lat="31.186631" lon="35.323039"><ele>94.6</ele><name>TP07383</name><time>2020-01-27T13:48:18Z</time></trkpt>
   <trkpt lat="31.186631" lon="35.323039"><ele>94.6</ele><name>TP07384</name><time>2020-01-27T13:48:20Z</time></trkpt>
   <trkpt lat="31.186631" lon="35.323039"><ele>94.6</ele><name>TP07385</name><time>2020-01-27T13:48:22Z</time></trkpt>
   <trkpt lat="31.186631" lon="35.323039"><ele>94.6</ele><name>TP07386</name><time>2020-01-27T13:48:23Z</time></trkpt>
   <trkpt lat="31.186631" lon="35.323039"><ele>94.6</ele><name>TP07387</name><time>2020-01-27T13:48:24Z</time></trkpt>
   <trkpt lat="31.186631" lon="35.323039"><ele>94.6</ele><name>TP07388</name><time>2020-01-27T13:48:25Z</time></trkpt>
   <trkpt lat="31.186631" lon="35.323039"><ele>94.6</ele><name>TP07389</name><time>2020-01-27T13:48:26Z</time></trkpt>
   <trkpt lat="31.186631" lon="35.323039"><ele>94.6</ele><name>TP07390</name><time>2020-01-27T13:48:28Z</time></trkpt>
   <trkpt lat="31.186631" lon="35.323039"><ele>94.6</ele><name>TP07391</name><time>2020-01-27T13:48:29Z</time></trkpt>
   <trkpt lat="31.186631" lon="35.323039"><ele>94.6</ele><name>TP07392</name><time>2020-01-27T13:48:31Z</time></trkpt>
   <trkpt lat="31.186631" lon="35.323039"><ele>94.6</ele><name>TP07393</name><time>2020-01-27T13:48:32Z</time></trkpt>
   <trkpt lat="31.186631" lon="35.323039"><ele>94.6</ele><name>TP07394</name><time>2020-01-27T13:48:33Z</time></trkpt>
   <trkpt lat="31.186631" lon="35.323039"><ele>94.6</ele><name>TP07395</name><time>2020-01-27T13:48:35Z</time></trkpt>
   <trkpt lat="31.186631" lon="35.323039"><ele>94.6</ele><name>TP07396</name><time>2020-01-27T13:48:37Z</time></trkpt>
   <trkpt lat="31.186632" lon="35.323039"><ele>94.6</ele><name>TP07397</name><time>2020-01-27T13:48:38Z</time></trkpt>
   <trkpt lat="31.186632" lon="35.32304"><ele>94.6</ele><name>TP07398</name><time>2020-01-27T13:48:40Z</time></trkpt>
   <trkpt lat="31.186632" lon="35.32304"><ele>94.6</ele><name>TP07399</name><time>2020-01-27T13:48:42Z</time></trkpt>
   <trkpt lat="31.186632" lon="35.32304"><ele>94.6</ele><name>TP07400</name><time>2020-01-27T13:48:44Z</time></trkpt>
   <trkpt lat="31.186632" lon="35.32304"><ele>94.6</ele><name>TP07401</name><time>2020-01-27T13:48:46Z</time></trkpt>
   <trkpt lat="31.186632" lon="35.32304"><ele>94.6</ele><name>TP07402</name><time>2020-01-27T13:48:48Z</time></trkpt>
   <trkpt lat="31.186632" lon="35.32304"><ele>94.6</ele><name>TP07403</name><time>2020-01-27T13:48:49Z</time></trkpt>
   <trkpt lat="31.186632" lon="35.32304"><ele>94.6</ele><name>TP07404</name><time>2020-01-27T13:48:51Z</time></trkpt>
   <trkpt lat="31.186631" lon="35.32304"><ele>94.6</ele><name>TP07405</name><time>2020-01-27T13:48:53Z</time></trkpt>
   <trkpt lat="31.186631" lon="35.32304"><ele>94.6</ele><name>TP07406</name><time>2020-01-27T13:48:55Z</time></trkpt>
   <trkpt lat="31.186631" lon="35.32304"><ele>94.6</ele><name>TP07407</name><time>2020-01-27T13:48:56Z</time></trkpt>
   <trkpt lat="31.186631" lon="35.32304"><ele>94.6</ele><name>TP07408</name><time>2020-01-27T13:48:58Z</time></trkpt>
   <trkpt lat="31.186631" lon="35.32304"><ele>94.6</ele><name>TP07409</name><time>2020-01-27T13:49:00Z</time></trkpt>
   <trkpt lat="31.186632" lon="35.32304"><ele>94.6</ele><name>TP07410</name><time>2020-01-27T13:49:02Z</time></trkpt>
   <trkpt lat="31.186632" lon="35.32304"><ele>94.6</ele><name>TP07411</name><time>2020-01-27T13:49:04Z</time></trkpt>
   <trkpt lat="31.186632" lon="35.32304"><ele>94.6</ele><name>TP07412</name><time>2020-01-27T13:49:05Z</time></trkpt>
   <trkpt lat="31.186632" lon="35.323039"><ele>94.6</ele><name>TP07413</name><time>2020-01-27T13:49:07Z</time></trkpt>
   <trkpt lat="31.186632" lon="35.323039"><ele>94.6</ele><name>TP07414</name><time>2020-01-27T13:49:08Z</time></trkpt>
   <trkpt lat="31.186632" lon="35.32304"><ele>94.6</ele><name>TP07415</name><time>2020-01-27T13:49:10Z</time></trkpt>
   <trkpt lat="31.186632" lon="35.32304"><ele>94.6</ele><name>TP07416</name><time>2020-01-27T13:49:12Z</time></trkpt>
   <trkpt lat="31.186632" lon="35.32304"><ele>94.6</ele><name>TP07417</name><time>2020-01-27T13:49:14Z</time></trkpt>
   <trkpt lat="31.186632" lon="35.32304"><ele>94.6</ele><name>TP07418</name><time>2020-01-27T13:49:16Z</time></trkpt>
   <trkpt lat="31.186632" lon="35.32304"><ele>94.6</ele><name>TP07419</name><time>2020-01-27T13:49:18Z</time></trkpt>
   <trkpt lat="31.186632" lon="35.32304"><ele>94.6</ele><name>TP07420</name><time>2020-01-27T13:49:19Z</time></trkpt>
   <trkpt lat="31.186632" lon="35.32304"><ele>94.6</ele><name>TP07421</name><time>2020-01-27T13:49:20Z</time></trkpt>
   <trkpt lat="31.186633" lon="35.32304"><ele>94.6</ele><name>TP07422</name><time>2020-01-27T13:49:22Z</time></trkpt>
   <trkpt lat="31.186632" lon="35.32304"><ele>94.6</ele><name>TP07423</name><time>2020-01-27T13:49:23Z</time></trkpt>
   <trkpt lat="31.186632" lon="35.323039"><ele>94.6</ele><name>TP07424</name><time>2020-01-27T13:49:25Z</time></trkpt>
   <trkpt lat="31.186632" lon="35.323039"><ele>94.6</ele><name>TP07425</name><time>2020-01-27T13:49:27Z</time></trkpt>
   <trkpt lat="31.186632" lon="35.323039"><ele>94.6</ele><name>TP07426</name><time>2020-01-27T13:49:28Z</time></trkpt>
   <trkpt lat="31.186632" lon="35.323039"><ele>94.6</ele><name>TP07427</name><time>2020-01-27T13:49:30Z</time></trkpt>
   <trkpt lat="31.186632" lon="35.323039"><ele>94.6</ele><name>TP07428</name><time>2020-01-27T13:49:31Z</time></trkpt>
   <trkpt lat="31.186631" lon="35.323039"><ele>94.6</ele><name>TP07429</name><time>2020-01-27T13:49:33Z</time></trkpt>
   <trkpt lat="31.186631" lon="35.323039"><ele>94.6</ele><name>TP07430</name><time>2020-01-27T13:49:35Z</time></trkpt>
   <trkpt lat="31.186631" lon="35.323039"><ele>94.6</ele><name>TP07431</name><time>2020-01-27T13:49:36Z</time></trkpt>
   <trkpt lat="31.186633" lon="35.323039"><ele>94.5</ele><name>TP07432</name><time>2020-01-27T13:49:38Z</time></trkpt>
   <trkpt lat="31.186633" lon="35.32304"><ele>94.5</ele><name>TP07433</name><time>2020-01-27T13:49:39Z</time></trkpt>
   <trkpt lat="31.186633" lon="35.323041"><ele>94.5</ele><name>TP07434</name><time>2020-01-27T13:49:41Z</time></trkpt>
   <trkpt lat="31.186633" lon="35.323041"><ele>94.5</ele><name>TP07435</name><time>2020-01-27T13:49:43Z</time></trkpt>
   <trkpt lat="31.186633" lon="35.323041"><ele>94.5</ele><name>TP07436</name><time>2020-01-27T13:49:44Z</time></trkpt>
   <trkpt lat="31.186633" lon="35.323041"><ele>94.5</ele><name>TP07437</name><time>2020-01-27T13:49:45Z</time></trkpt>
   <trkpt lat="31.186633" lon="35.323041"><ele>94.5</ele><name>TP07438</name><time>2020-01-27T13:49:47Z</time></trkpt>
   <trkpt lat="31.186633" lon="35.323041"><ele>94.5</ele><name>TP07439</name><time>2020-01-27T13:49:49Z</time></trkpt>
   <trkpt lat="31.186633" lon="35.323041"><ele>94.5</ele><name>TP07440</name><time>2020-01-27T13:49:51Z</time></trkpt>
   <trkpt lat="31.186633" lon="35.323041"><ele>94.5</ele><name>TP07441</name><time>2020-01-27T13:49:52Z</time></trkpt>
   <trkpt lat="31.186633" lon="35.323041"><ele>94.5</ele><name>TP07442</name><time>2020-01-27T13:49:53Z</time></trkpt>
   <trkpt lat="31.186634" lon="35.323041"><ele>94.5</ele><name>TP07443</name><time>2020-01-27T13:49:55Z</time></trkpt>
   <trkpt lat="31.186634" lon="35.323041"><ele>94.5</ele><name>TP07444</name><time>2020-01-27T13:49:56Z</time></trkpt>
   <trkpt lat="31.186634" lon="35.323041"><ele>94.5</ele><name>TP07445</name><time>2020-01-27T13:49:57Z</time></trkpt>
   <trkpt lat="31.186634" lon="35.323041"><ele>94.5</ele><name>TP07446</name><time>2020-01-27T13:49:58Z</time></trkpt>
   <trkpt lat="31.186634" lon="35.323041"><ele>94.5</ele><name>TP07447</name><time>2020-01-27T13:49:59Z</time></trkpt>
   <trkpt lat="31.186634" lon="35.323041"><ele>94.5</ele><name>TP07448</name><time>2020-01-27T13:50:00Z</time></trkpt>
   <trkpt lat="31.186635" lon="35.323041"><ele>94.5</ele><name>TP07449</name><time>2020-01-27T13:50:02Z</time></trkpt>
   <trkpt lat="31.186635" lon="35.323041"><ele>94.5</ele><name>TP07450</name><time>2020-01-27T13:50:04Z</time></trkpt>
   <trkpt lat="31.186635" lon="35.323041"><ele>94.5</ele><name>TP07451</name><time>2020-01-27T13:50:05Z</time></trkpt>
   <trkpt lat="31.186635" lon="35.323041"><ele>94.5</ele><name>TP07452</name><time>2020-01-27T13:50:06Z</time></trkpt>
   <trkpt lat="31.186635" lon="35.323041"><ele>94.5</ele><name>TP07453</name><time>2020-01-27T13:50:08Z</time></trkpt>
   <trkpt lat="31.186635" lon="35.323041"><ele>94.5</ele><name>TP07454</name><time>2020-01-27T13:50:09Z</time></trkpt>
   <trkpt lat="31.186635" lon="35.323041"><ele>94.5</ele><name>TP07455</name><time>2020-01-27T13:50:11Z</time></trkpt>
   <trkpt lat="31.186635" lon="35.323041"><ele>94.5</ele><name>TP07456</name><time>2020-01-27T13:50:12Z</time></trkpt>
   <trkpt lat="31.186636" lon="35.323041"><ele>94.5</ele><name>TP07457</name><time>2020-01-27T13:50:13Z</time></trkpt>
   <trkpt lat="31.186636" lon="35.323041"><ele>94.5</ele><name>TP07458</name><time>2020-01-27T13:50:14Z</time></trkpt>
   <trkpt lat="31.186636" lon="35.323041"><ele>94.5</ele><name>TP07459</name><time>2020-01-27T13:50:15Z</time></trkpt>
   <trkpt lat="31.186636" lon="35.32304"><ele>94.5</ele><name>TP07460</name><time>2020-01-27T13:50:17Z</time></trkpt>
   <trkpt lat="31.186636" lon="35.32304"><ele>94.5</ele><name>TP07461</name><time>2020-01-27T13:50:18Z</time></trkpt>
   <trkpt lat="31.186636" lon="35.32304"><ele>94.5</ele><name>TP07462</name><time>2020-01-27T13:50:20Z</time></trkpt>
   <trkpt lat="31.186636" lon="35.323041"><ele>94.5</ele><name>TP07463</name><time>2020-01-27T13:50:22Z</time></trkpt>
   <trkpt lat="31.186636" lon="35.323041"><ele>94.5</ele><name>TP07464</name><time>2020-01-27T13:50:23Z</time></trkpt>
   <trkpt lat="31.186635" lon="35.323041"><ele>94.5</ele><name>TP07465</name><time>2020-01-27T13:50:24Z</time></trkpt>
   <trkpt lat="31.186635" lon="35.323041"><ele>94.5</ele><name>TP07466</name><time>2020-01-27T13:50:26Z</time></trkpt>
   <trkpt lat="31.186635" lon="35.323041"><ele>94.5</ele><name>TP07467</name><time>2020-01-27T13:50:27Z</time></trkpt>
   <trkpt lat="31.186635" lon="35.323041"><ele>94.5</ele><name>TP07468</name><time>2020-01-27T13:50:28Z</time></trkpt>
   <trkpt lat="31.186635" lon="35.323041"><ele>94.5</ele><name>TP07469</name><time>2020-01-27T13:50:30Z</time></trkpt>
   <trkpt lat="31.186635" lon="35.323041"><ele>94.5</ele><name>TP07470</name><time>2020-01-27T13:50:31Z</time></trkpt>
   <trkpt lat="31.186635" lon="35.323041"><ele>94.5</ele><name>TP07471</name><time>2020-01-27T13:50:32Z</time></trkpt>
   <trkpt lat="31.186635" lon="35.323041"><ele>94.5</ele><name>TP07472</name><time>2020-01-27T13:50:34Z</time></trkpt>
   <trkpt lat="31.186635" lon="35.323041"><ele>94.5</ele><name>TP07473</name><time>2020-01-27T13:50:35Z</time></trkpt>
   <trkpt lat="31.186635" lon="35.323041"><ele>94.5</ele><name>TP07474</name><time>2020-01-27T13:50:36Z</time></trkpt>
   <trkpt lat="31.186637" lon="35.323041"><ele>94.5</ele><name>TP07475</name><time>2020-01-27T13:50:38Z</time></trkpt>
   <trkpt lat="31.186637" lon="35.323042"><ele>94.5</ele><name>TP07476</name><time>2020-01-27T13:50:39Z</time></trkpt>
   <trkpt lat="31.186637" lon="35.323043"><ele>94.5</ele><name>TP07477</name><time>2020-01-27T13:50:41Z</time></trkpt>
   <trkpt lat="31.186637" lon="35.323043"><ele>94.5</ele><name>TP07478</name><time>2020-01-27T13:50:42Z</time></trkpt>
   <trkpt lat="31.186637" lon="35.323043"><ele>94.5</ele><name>TP07479</name><time>2020-01-27T13:50:43Z</time></trkpt>
   <trkpt lat="31.186637" lon="35.323043"><ele>94.5</ele><name>TP07480</name><time>2020-01-27T13:50:44Z</time></trkpt>
   <trkpt lat="31.186637" lon="35.323043"><ele>94.5</ele><name>TP07481</name><time>2020-01-27T13:50:45Z</time></trkpt>
   <trkpt lat="31.186637" lon="35.323043"><ele>94.5</ele><name>TP07482</name><time>2020-01-27T13:50:47Z</time></trkpt>
   <trkpt lat="31.186637" lon="35.323043"><ele>94.5</ele><name>TP07483</name><time>2020-01-27T13:50:49Z</time></trkpt>
   <trkpt lat="31.186637" lon="35.323043"><ele>94.5</ele><name>TP07484</name><time>2020-01-27T13:50:50Z</time></trkpt>
   <trkpt lat="31.186637" lon="35.323043"><ele>94.5</ele><name>TP07485</name><time>2020-01-27T13:50:51Z</time></trkpt>
   <trkpt lat="31.186637" lon="35.323043"><ele>94.5</ele><name>TP07486</name><time>2020-01-27T13:50:52Z</time></trkpt>
   <trkpt lat="31.186636" lon="35.323042"><ele>94.5</ele><name>TP07487</name><time>2020-01-27T13:50:54Z</time></trkpt>
   <trkpt lat="31.186636" lon="35.323042"><ele>94.5</ele><name>TP07488</name><time>2020-01-27T13:50:55Z</time></trkpt>
   <trkpt lat="31.186636" lon="35.323042"><ele>94.5</ele><name>TP07489</name><time>2020-01-27T13:50:57Z</time></trkpt>
   <trkpt lat="31.186636" lon="35.323042"><ele>94.5</ele><name>TP07490</name><time>2020-01-27T13:50:59Z</time></trkpt>
   <trkpt lat="31.186635" lon="35.323042"><ele>94.5</ele><name>TP07491</name><time>2020-01-27T13:51:01Z</time></trkpt>
   <trkpt lat="31.186635" lon="35.323042"><ele>94.5</ele><name>TP07492</name><time>2020-01-27T13:51:02Z</time></trkpt>
   <trkpt lat="31.186635" lon="35.323042"><ele>94.5</ele><name>TP07493</name><time>2020-01-27T13:51:03Z</time></trkpt>
   <trkpt lat="31.186635" lon="35.323042"><ele>94.5</ele><name>TP07494</name><time>2020-01-27T13:51:05Z</time></trkpt>
   <trkpt lat="31.186635" lon="35.323042"><ele>94.5</ele><name>TP07495</name><time>2020-01-27T13:51:06Z</time></trkpt>
   <trkpt lat="31.186635" lon="35.323042"><ele>94.5</ele><name>TP07496</name><time>2020-01-27T13:51:08Z</time></trkpt>
   <trkpt lat="31.186635" lon="35.323042"><ele>94.5</ele><name>TP07497</name><time>2020-01-27T13:51:10Z</time></trkpt>
   <trkpt lat="31.186635" lon="35.323042"><ele>94.5</ele><name>TP07498</name><time>2020-01-27T13:51:11Z</time></trkpt>
   <trkpt lat="31.186635" lon="35.323042"><ele>94.5</ele><name>TP07499</name><time>2020-01-27T13:51:12Z</time></trkpt>
   <trkpt lat="31.186634" lon="35.323041"><ele>94.4</ele><name>TP07500</name><time>2020-01-27T13:51:14Z</time></trkpt>
   <trkpt lat="31.186634" lon="35.323041"><ele>94.4</ele><name>TP07501</name><time>2020-01-27T13:51:16Z</time></trkpt>
   <trkpt lat="31.186634" lon="35.323041"><ele>94.4</ele><name>TP07502</name><time>2020-01-27T13:51:18Z</time></trkpt>
   <trkpt lat="31.186634" lon="35.323041"><ele>94.4</ele><name>TP07503</name><time>2020-01-27T13:51:20Z</time></trkpt>
   <trkpt lat="31.186634" lon="35.323041"><ele>94.4</ele><name>TP07504</name><time>2020-01-27T13:51:22Z</time></trkpt>
   <trkpt lat="31.186634" lon="35.323041"><ele>94.4</ele><name>TP07505</name><time>2020-01-27T13:51:24Z</time></trkpt>
   <trkpt lat="31.186633" lon="35.323041"><ele>94.4</ele><name>TP07506</name><time>2020-01-27T13:51:25Z</time></trkpt>
   <trkpt lat="31.186633" lon="35.323041"><ele>94.4</ele><name>TP07507</name><time>2020-01-27T13:51:27Z</time></trkpt>
   <trkpt lat="31.186633" lon="35.323041"><ele>94.4</ele><name>TP07508</name><time>2020-01-27T13:51:29Z</time></trkpt>
   <trkpt lat="31.186633" lon="35.323041"><ele>94.4</ele><name>TP07509</name><time>2020-01-27T13:51:31Z</time></trkpt>
   <trkpt lat="31.186633" lon="35.323041"><ele>94.4</ele><name>TP07510</name><time>2020-01-27T13:51:33Z</time></trkpt>
   <trkpt lat="31.186633" lon="35.323041"><ele>94.4</ele><name>TP07511</name><time>2020-01-27T13:51:34Z</time></trkpt>
   <trkpt lat="31.186633" lon="35.323041"><ele>94.4</ele><name>TP07512</name><time>2020-01-27T13:51:36Z</time></trkpt>
   <trkpt lat="31.186634" lon="35.323041"><ele>94.4</ele><name>TP07513</name><time>2020-01-27T13:51:37Z</time></trkpt>
   <trkpt lat="31.186634" lon="35.323041"><ele>94.4</ele><name>TP07514</name><time>2020-01-27T13:51:39Z</time></trkpt>
   <trkpt lat="31.186634" lon="35.323042"><ele>94.4</ele><name>TP07515</name><time>2020-01-27T13:51:41Z</time></trkpt>
   <trkpt lat="31.186634" lon="35.323042"><ele>94.4</ele><name>TP07516</name><time>2020-01-27T13:51:43Z</time></trkpt>
   <trkpt lat="31.186634" lon="35.323042"><ele>94.4</ele><name>TP07517</name><time>2020-01-27T13:51:44Z</time></trkpt>
   <trkpt lat="31.186634" lon="35.323042"><ele>94.4</ele><name>TP07518</name><time>2020-01-27T13:51:46Z</time></trkpt>
   <trkpt lat="31.186634" lon="35.323042"><ele>94.4</ele><name>TP07519</name><time>2020-01-27T13:51:47Z</time></trkpt>
   <trkpt lat="31.186634" lon="35.323042"><ele>94.4</ele><name>TP07520</name><time>2020-01-27T13:51:49Z</time></trkpt>
   <trkpt lat="31.186634" lon="35.323042"><ele>94.4</ele><name>TP07521</name><time>2020-01-27T13:51:51Z</time></trkpt>
   <trkpt lat="31.186634" lon="35.323042"><ele>94.4</ele><name>TP07522</name><time>2020-01-27T13:51:52Z</time></trkpt>
   <trkpt lat="31.186634" lon="35.323041"><ele>94.4</ele><name>TP07523</name><time>2020-01-27T13:51:53Z</time></trkpt>
   <trkpt lat="31.186634" lon="35.323041"><ele>94.4</ele><name>TP07524</name><time>2020-01-27T13:51:55Z</time></trkpt>
   <trkpt lat="31.186634" lon="35.323041"><ele>94.4</ele><name>TP07525</name><time>2020-01-27T13:51:56Z</time></trkpt>
   <trkpt lat="31.186633" lon="35.323041"><ele>94.4</ele><name>TP07526</name><time>2020-01-27T13:51:58Z</time></trkpt>
   <trkpt lat="31.186633" lon="35.323041"><ele>94.4</ele><name>TP07527</name><time>2020-01-27T13:51:59Z</time></trkpt>
   <trkpt lat="31.186633" lon="35.323041"><ele>94.4</ele><name>TP07528</name><time>2020-01-27T13:52:01Z</time></trkpt>
   <trkpt lat="31.186633" lon="35.323041"><ele>94.4</ele><name>TP07529</name><time>2020-01-27T13:52:02Z</time></trkpt>
   <trkpt lat="31.186633" lon="35.323041"><ele>94.4</ele><name>TP07530</name><time>2020-01-27T13:52:04Z</time></trkpt>
   <trkpt lat="31.186633" lon="35.323041"><ele>94.4</ele><name>TP07531</name><time>2020-01-27T13:52:05Z</time></trkpt>
   <trkpt lat="31.186633" lon="35.323041"><ele>94.4</ele><name>TP07532</name><time>2020-01-27T13:52:07Z</time></trkpt>
   <trkpt lat="31.186633" lon="35.323041"><ele>94.4</ele><name>TP07533</name><time>2020-01-27T13:52:08Z</time></trkpt>
   <trkpt lat="31.186633" lon="35.323041"><ele>94.4</ele><name>TP07534</name><time>2020-01-27T13:52:10Z</time></trkpt>
   <trkpt lat="31.186633" lon="35.323041"><ele>94.4</ele><name>TP07535</name><time>2020-01-27T13:52:11Z</time></trkpt>
   <trkpt lat="31.186633" lon="35.323041"><ele>94.4</ele><name>TP07536</name><time>2020-01-27T13:52:12Z</time></trkpt>
   <trkpt lat="31.186633" lon="35.323041"><ele>94.4</ele><name>TP07537</name><time>2020-01-27T13:52:14Z</time></trkpt>
   <trkpt lat="31.186633" lon="35.323041"><ele>94.4</ele><name>TP07538</name><time>2020-01-27T13:52:15Z</time></trkpt>
   <trkpt lat="31.186633" lon="35.323041"><ele>94.4</ele><name>TP07539</name><time>2020-01-27T13:52:16Z</time></trkpt>
   <trkpt lat="31.186633" lon="35.323041"><ele>94.4</ele><name>TP07540</name><time>2020-01-27T13:52:18Z</time></trkpt>
   <trkpt lat="31.186633" lon="35.323041"><ele>94.4</ele><name>TP07541</name><time>2020-01-27T13:52:19Z</time></trkpt>
   <trkpt lat="31.186633" lon="35.323041"><ele>94.4</ele><name>TP07542</name><time>2020-01-27T13:52:20Z</time></trkpt>
   <trkpt lat="31.186632" lon="35.32304"><ele>94.4</ele><name>TP07543</name><time>2020-01-27T13:52:22Z</time></trkpt>
   <trkpt lat="31.186632" lon="35.32304"><ele>94.4</ele><name>TP07544</name><time>2020-01-27T13:52:23Z</time></trkpt>
   <trkpt lat="31.186632" lon="35.32304"><ele>94.4</ele><name>TP07545</name><time>2020-01-27T13:52:24Z</time></trkpt>
   <trkpt lat="31.186632" lon="35.32304"><ele>94.4</ele><name>TP07546</name><time>2020-01-27T13:52:26Z</time></trkpt>
   <trkpt lat="31.186632" lon="35.32304"><ele>94.4</ele><name>TP07547</name><time>2020-01-27T13:52:28Z</time></trkpt>
   <trkpt lat="31.186632" lon="35.32304"><ele>94.4</ele><name>TP07548</name><time>2020-01-27T13:52:29Z</time></trkpt>
   <trkpt lat="31.186632" lon="35.32304"><ele>94.4</ele><name>TP07549</name><time>2020-01-27T13:52:31Z</time></trkpt>
   <trkpt lat="31.186632" lon="35.32304"><ele>94.4</ele><name>TP07550</name><time>2020-01-27T13:52:32Z</time></trkpt>
   <trkpt lat="31.186632" lon="35.32304"><ele>94.4</ele><name>TP07551</name><time>2020-01-27T13:52:33Z</time></trkpt>
   <trkpt lat="31.186632" lon="35.32304"><ele>94.4</ele><name>TP07552</name><time>2020-01-27T13:52:35Z</time></trkpt>
   <trkpt lat="31.186632" lon="35.32304"><ele>94.4</ele><name>TP07553</name><time>2020-01-27T13:52:37Z</time></trkpt>
   <trkpt lat="31.186632" lon="35.323041"><ele>94.4</ele><name>TP07554</name><time>2020-01-27T13:52:38Z</time></trkpt>
   <trkpt lat="31.186631" lon="35.323041"><ele>94.4</ele><name>TP07555</name><time>2020-01-27T13:52:40Z</time></trkpt>
   <trkpt lat="31.186631" lon="35.323042"><ele>94.4</ele><name>TP07556</name><time>2020-01-27T13:52:42Z</time></trkpt>
   <trkpt lat="31.186631" lon="35.323042"><ele>94.4</ele><name>TP07557</name><time>2020-01-27T13:52:44Z</time></trkpt>
   <trkpt lat="31.186631" lon="35.323042"><ele>94.4</ele><name>TP07558</name><time>2020-01-27T13:52:46Z</time></trkpt>
   <trkpt lat="31.186631" lon="35.323042"><ele>94.4</ele><name>TP07559</name><time>2020-01-27T13:52:47Z</time></trkpt>
   <trkpt lat="31.18663" lon="35.323042"><ele>94.4</ele><name>TP07560</name><time>2020-01-27T13:52:49Z</time></trkpt>
   <trkpt lat="31.18663" lon="35.323042"><ele>94.4</ele><name>TP07561</name><time>2020-01-27T13:52:51Z</time></trkpt>
   <trkpt lat="31.18663" lon="35.323042"><ele>94.4</ele><name>TP07562</name><time>2020-01-27T13:52:53Z</time></trkpt>
   <trkpt lat="31.18663" lon="35.323042"><ele>94.4</ele><name>TP07563</name><time>2020-01-27T13:52:54Z</time></trkpt>
   <trkpt lat="31.18663" lon="35.323042"><ele>94.4</ele><name>TP07564</name><time>2020-01-27T13:52:56Z</time></trkpt>
   <trkpt lat="31.18663" lon="35.323042"><ele>94.4</ele><name>TP07565</name><time>2020-01-27T13:52:57Z</time></trkpt>
   <trkpt lat="31.18663" lon="35.323043"><ele>94.4</ele><name>TP07566</name><time>2020-01-27T13:52:58Z</time></trkpt>
   <trkpt lat="31.18663" lon="35.323043"><ele>94.4</ele><name>TP07567</name><time>2020-01-27T13:53:00Z</time></trkpt>
   <trkpt lat="31.18663" lon="35.323043"><ele>94.4</ele><name>TP07568</name><time>2020-01-27T13:53:01Z</time></trkpt>
   <trkpt lat="31.18663" lon="35.323043"><ele>94.4</ele><name>TP07569</name><time>2020-01-27T13:53:03Z</time></trkpt>
   <trkpt lat="31.18663" lon="35.323043"><ele>94.4</ele><name>TP07570</name><time>2020-01-27T13:53:04Z</time></trkpt>
   <trkpt lat="31.18663" lon="35.323042"><ele>94.4</ele><name>TP07571</name><time>2020-01-27T13:53:06Z</time></trkpt>
   <trkpt lat="31.18663" lon="35.323042"><ele>94.4</ele><name>TP07572</name><time>2020-01-27T13:53:07Z</time></trkpt>
   <trkpt lat="31.18663" lon="35.323042"><ele>94.4</ele><name>TP07573</name><time>2020-01-27T13:53:09Z</time></trkpt>
   <trkpt lat="31.18663" lon="35.323041"><ele>94.4</ele><name>TP07574</name><time>2020-01-27T13:53:11Z</time></trkpt>
   <trkpt lat="31.18663" lon="35.323041"><ele>94.4</ele><name>TP07575</name><time>2020-01-27T13:53:13Z</time></trkpt>
   <trkpt lat="31.18663" lon="35.323041"><ele>94.4</ele><name>TP07576</name><time>2020-01-27T13:53:15Z</time></trkpt>
   <trkpt lat="31.186629" lon="35.323041"><ele>94.4</ele><name>TP07577</name><time>2020-01-27T13:53:17Z</time></trkpt>
   <trkpt lat="31.186629" lon="35.323041"><ele>94.4</ele><name>TP07578</name><time>2020-01-27T13:53:19Z</time></trkpt>
   <trkpt lat="31.186629" lon="35.323041"><ele>94.4</ele><name>TP07579</name><time>2020-01-27T13:53:20Z</time></trkpt>
   <trkpt lat="31.186629" lon="35.323041"><ele>94.4</ele><name>TP07580</name><time>2020-01-27T13:53:21Z</time></trkpt>
   <trkpt lat="31.186629" lon="35.323041"><ele>94.4</ele><name>TP07581</name><time>2020-01-27T13:53:23Z</time></trkpt>
   <trkpt lat="31.186629" lon="35.323041"><ele>94.4</ele><name>TP07582</name><time>2020-01-27T13:53:24Z</time></trkpt>
   <trkpt lat="31.186629" lon="35.323041"><ele>94.4</ele><name>TP07583</name><time>2020-01-27T13:53:25Z</time></trkpt>
   <trkpt lat="31.186629" lon="35.323042"><ele>94.4</ele><name>TP07584</name><time>2020-01-27T13:53:27Z</time></trkpt>
   <trkpt lat="31.186629" lon="35.323042"><ele>94.4</ele><name>TP07585</name><time>2020-01-27T13:53:29Z</time></trkpt>
   <trkpt lat="31.186629" lon="35.323042"><ele>94.4</ele><name>TP07586</name><time>2020-01-27T13:53:30Z</time></trkpt>
   <trkpt lat="31.186628" lon="35.323042"><ele>94.4</ele><name>TP07587</name><time>2020-01-27T13:53:32Z</time></trkpt>
   <trkpt lat="31.186628" lon="35.323042"><ele>94.4</ele><name>TP07588</name><time>2020-01-27T13:53:33Z</time></trkpt>
   <trkpt lat="31.186628" lon="35.323042"><ele>94.4</ele><name>TP07589</name><time>2020-01-27T13:53:35Z</time></trkpt>
   <trkpt lat="31.186628" lon="35.323042"><ele>94.4</ele><name>TP07590</name><time>2020-01-27T13:53:36Z</time></trkpt>
   <trkpt lat="31.186628" lon="35.323042"><ele>94.4</ele><name>TP07591</name><time>2020-01-27T13:53:37Z</time></trkpt>
   <trkpt lat="31.186628" lon="35.323043"><ele>94.4</ele><name>TP07592</name><time>2020-01-27T13:53:39Z</time></trkpt>
   <trkpt lat="31.186628" lon="35.323043"><ele>94.4</ele><name>TP07593</name><time>2020-01-27T13:53:40Z</time></trkpt>
   <trkpt lat="31.186628" lon="35.323044"><ele>94.3</ele><name>TP07594</name><time>2020-01-27T13:53:42Z</time></trkpt>
   <trkpt lat="31.186628" lon="35.323045"><ele>94.3</ele><name>TP07595</name><time>2020-01-27T13:53:44Z</time></trkpt>
   <trkpt lat="31.186628" lon="35.323046"><ele>94.3</ele><name>TP07596</name><time>2020-01-27T13:53:45Z</time></trkpt>
   <trkpt lat="31.186628" lon="35.323046"><ele>94.3</ele><name>TP07597</name><time>2020-01-27T13:53:46Z</time></trkpt>
   <trkpt lat="31.186628" lon="35.323046"><ele>94.3</ele><name>TP07598</name><time>2020-01-27T13:53:48Z</time></trkpt>
   <trkpt lat="31.186628" lon="35.323046"><ele>94.3</ele><name>TP07599</name><time>2020-01-27T13:53:49Z</time></trkpt>
   <trkpt lat="31.186628" lon="35.323046"><ele>94.3</ele><name>TP07600</name><time>2020-01-27T13:53:51Z</time></trkpt>
   <trkpt lat="31.186628" lon="35.323046"><ele>94.3</ele><name>TP07601</name><time>2020-01-27T13:53:52Z</time></trkpt>
   <trkpt lat="31.186627" lon="35.323047"><ele>94.3</ele><name>TP07602</name><time>2020-01-27T13:53:54Z</time></trkpt>
   <trkpt lat="31.186627" lon="35.323047"><ele>94.3</ele><name>TP07603</name><time>2020-01-27T13:53:55Z</time></trkpt>
   <trkpt lat="31.186627" lon="35.323047"><ele>94.3</ele><name>TP07604</name><time>2020-01-27T13:53:56Z</time></trkpt>
   <trkpt lat="31.186627" lon="35.323047"><ele>94.3</ele><name>TP07605</name><time>2020-01-27T13:53:58Z</time></trkpt>
   <trkpt lat="31.186627" lon="35.323047"><ele>94.3</ele><name>TP07606</name><time>2020-01-27T13:54:00Z</time></trkpt>
   <trkpt lat="31.186627" lon="35.323048"><ele>94.3</ele><name>TP07607</name><time>2020-01-27T13:54:02Z</time></trkpt>
   <trkpt lat="31.186626" lon="35.323048"><ele>94.3</ele><name>TP07608</name><time>2020-01-27T13:54:04Z</time></trkpt>
   <trkpt lat="31.186627" lon="35.323047"><ele>94.3</ele><name>TP07609</name><time>2020-01-27T13:54:05Z</time></trkpt>
   <trkpt lat="31.186627" lon="35.323047"><ele>94.3</ele><name>TP07610</name><time>2020-01-27T13:54:07Z</time></trkpt>
   <trkpt lat="31.186627" lon="35.323047"><ele>94.3</ele><name>TP07611</name><time>2020-01-27T13:54:09Z</time></trkpt>
   <trkpt lat="31.186626" lon="35.323047"><ele>94.3</ele><name>TP07612</name><time>2020-01-27T13:54:11Z</time></trkpt>
   <trkpt lat="31.186626" lon="35.323047"><ele>94.3</ele><name>TP07613</name><time>2020-01-27T13:54:12Z</time></trkpt>
   <trkpt lat="31.186626" lon="35.323047"><ele>94.3</ele><name>TP07614</name><time>2020-01-27T13:54:14Z</time></trkpt>
   <trkpt lat="31.186626" lon="35.323048"><ele>94.3</ele><name>TP07615</name><time>2020-01-27T13:54:15Z</time></trkpt>
   <trkpt lat="31.186626" lon="35.323048"><ele>94.3</ele><name>TP07616</name><time>2020-01-27T13:54:17Z</time></trkpt>
   <trkpt lat="31.186626" lon="35.323047"><ele>94.3</ele><name>TP07617</name><time>2020-01-27T13:54:18Z</time></trkpt>
   <trkpt lat="31.186625" lon="35.323047"><ele>94.3</ele><name>TP07618</name><time>2020-01-27T13:54:20Z</time></trkpt>
   <trkpt lat="31.186625" lon="35.323047"><ele>94.3</ele><name>TP07619</name><time>2020-01-27T13:54:21Z</time></trkpt>
   <trkpt lat="31.186625" lon="35.323047"><ele>94.3</ele><name>TP07620</name><time>2020-01-27T13:54:22Z</time></trkpt>
   <trkpt lat="31.186625" lon="35.323047"><ele>94.3</ele><name>TP07621</name><time>2020-01-27T13:54:24Z</time></trkpt>
   <trkpt lat="31.186625" lon="35.323048"><ele>94.3</ele><name>TP07622</name><time>2020-01-27T13:54:25Z</time></trkpt>
   <trkpt lat="31.186625" lon="35.323048"><ele>94.3</ele><name>TP07623</name><time>2020-01-27T13:54:27Z</time></trkpt>
   <trkpt lat="31.186625" lon="35.323047"><ele>94.3</ele><name>TP07624</name><time>2020-01-27T13:54:28Z</time></trkpt>
   <trkpt lat="31.186625" lon="35.323047"><ele>94.3</ele><name>TP07625</name><time>2020-01-27T13:54:30Z</time></trkpt>
   <trkpt lat="31.186625" lon="35.323047"><ele>94.3</ele><name>TP07626</name><time>2020-01-27T13:54:32Z</time></trkpt>
   <trkpt lat="31.186625" lon="35.323047"><ele>94.3</ele><name>TP07627</name><time>2020-01-27T13:54:34Z</time></trkpt>
   <trkpt lat="31.186625" lon="35.323047"><ele>94.3</ele><name>TP07628</name><time>2020-01-27T13:54:35Z</time></trkpt>
   <trkpt lat="31.186625" lon="35.323047"><ele>94.3</ele><name>TP07629</name><time>2020-01-27T13:54:37Z</time></trkpt>
   <trkpt lat="31.186626" lon="35.323048"><ele>94.3</ele><name>TP07630</name><time>2020-01-27T13:54:39Z</time></trkpt>
   <trkpt lat="31.186626" lon="35.323048"><ele>94.3</ele><name>TP07631</name><time>2020-01-27T13:54:40Z</time></trkpt>
   <trkpt lat="31.186626" lon="35.323048"><ele>94.3</ele><name>TP07632</name><time>2020-01-27T13:54:42Z</time></trkpt>
   <trkpt lat="31.186626" lon="35.323047"><ele>94.3</ele><name>TP07633</name><time>2020-01-27T13:54:44Z</time></trkpt>
   <trkpt lat="31.186626" lon="35.323047"><ele>94.3</ele><name>TP07634</name><time>2020-01-27T13:54:46Z</time></trkpt>
   <trkpt lat="31.186626" lon="35.323047"><ele>94.3</ele><name>TP07635</name><time>2020-01-27T13:54:47Z</time></trkpt>
   <trkpt lat="31.186626" lon="35.323046"><ele>94.3</ele><name>TP07636</name><time>2020-01-27T13:54:49Z</time></trkpt>
   <trkpt lat="31.186626" lon="35.323046"><ele>94.3</ele><name>TP07637</name><time>2020-01-27T13:54:50Z</time></trkpt>
   <trkpt lat="31.186626" lon="35.323046"><ele>94.3</ele><name>TP07638</name><time>2020-01-27T13:54:52Z</time></trkpt>
   <trkpt lat="31.186626" lon="35.323046"><ele>94.3</ele><name>TP07639</name><time>2020-01-27T13:54:54Z</time></trkpt>
   <trkpt lat="31.186626" lon="35.323046"><ele>94.3</ele><name>TP07640</name><time>2020-01-27T13:54:55Z</time></trkpt>
   <trkpt lat="31.186626" lon="35.323046"><ele>94.3</ele><name>TP07641</name><time>2020-01-27T13:54:57Z</time></trkpt>
   <trkpt lat="31.186626" lon="35.323046"><ele>94.3</ele><name>TP07642</name><time>2020-01-27T13:54:59Z</time></trkpt>
   <trkpt lat="31.186626" lon="35.323046"><ele>94.3</ele><name>TP07643</name><time>2020-01-27T13:55:01Z</time></trkpt>
   <trkpt lat="31.186625" lon="35.323046"><ele>94.3</ele><name>TP07644</name><time>2020-01-27T13:55:03Z</time></trkpt>
   <trkpt lat="31.186625" lon="35.323046"><ele>94.3</ele><name>TP07645</name><time>2020-01-27T13:55:05Z</time></trkpt>
   <trkpt lat="31.186625" lon="35.323046"><ele>94.3</ele><name>TP07646</name><time>2020-01-27T13:55:06Z</time></trkpt>
   <trkpt lat="31.186625" lon="35.323046"><ele>94.3</ele><name>TP07647</name><time>2020-01-27T13:55:08Z</time></trkpt>
   <trkpt lat="31.186625" lon="35.323046"><ele>94.3</ele><name>TP07648</name><time>2020-01-27T13:55:09Z</time></trkpt>
   <trkpt lat="31.186625" lon="35.323046"><ele>94.3</ele><name>TP07649</name><time>2020-01-27T13:55:11Z</time></trkpt>
   <trkpt lat="31.186625" lon="35.323046"><ele>94.3</ele><name>TP07650</name><time>2020-01-27T13:55:13Z</time></trkpt>
   <trkpt lat="31.186625" lon="35.323046"><ele>94.3</ele><name>TP07651</name><time>2020-01-27T13:55:14Z</time></trkpt>
   <trkpt lat="31.186625" lon="35.323046"><ele>94.3</ele><name>TP07652</name><time>2020-01-27T13:55:16Z</time></trkpt>
   <trkpt lat="31.186624" lon="35.323046"><ele>94.2</ele><name>TP07653</name><time>2020-01-27T13:55:18Z</time></trkpt>
   <trkpt lat="31.186624" lon="35.323046"><ele>94.2</ele><name>TP07654</name><time>2020-01-27T13:55:20Z</time></trkpt>
   <trkpt lat="31.186624" lon="35.323046"><ele>94.2</ele><name>TP07655</name><time>2020-01-27T13:55:21Z</time></trkpt>
   <trkpt lat="31.186624" lon="35.323046"><ele>94.2</ele><name>TP07656</name><time>2020-01-27T13:55:23Z</time></trkpt>
   <trkpt lat="31.186624" lon="35.323046"><ele>94.2</ele><name>TP07657</name><time>2020-01-27T13:55:24Z</time></trkpt>
   <trkpt lat="31.186624" lon="35.323046"><ele>94.2</ele><name>TP07658</name><time>2020-01-27T13:55:26Z</time></trkpt>
   <trkpt lat="31.186624" lon="35.323046"><ele>94.2</ele><name>TP07659</name><time>2020-01-27T13:55:27Z</time></trkpt>
   <trkpt lat="31.186624" lon="35.323046"><ele>94.2</ele><name>TP07660</name><time>2020-01-27T13:55:28Z</time></trkpt>
   <trkpt lat="31.186624" lon="35.323046"><ele>94.2</ele><name>TP07661</name><time>2020-01-27T13:55:30Z</time></trkpt>
   <trkpt lat="31.186624" lon="35.323046"><ele>94.2</ele><name>TP07662</name><time>2020-01-27T13:55:31Z</time></trkpt>
   <trkpt lat="31.186624" lon="35.323046"><ele>94.2</ele><name>TP07663</name><time>2020-01-27T13:55:33Z</time></trkpt>
   <trkpt lat="31.186624" lon="35.323046"><ele>94.2</ele><name>TP07664</name><time>2020-01-27T13:55:35Z</time></trkpt>
   <trkpt lat="31.186624" lon="35.323046"><ele>94.2</ele><name>TP07665</name><time>2020-01-27T13:55:36Z</time></trkpt>
   <trkpt lat="31.186625" lon="35.323046"><ele>94.2</ele><name>TP07666</name><time>2020-01-27T13:55:38Z</time></trkpt>
   <trkpt lat="31.186625" lon="35.323047"><ele>94.2</ele><name>TP07667</name><time>2020-01-27T13:55:40Z</time></trkpt>
   <trkpt lat="31.186625" lon="35.323047"><ele>94.2</ele><name>TP07668</name><time>2020-01-27T13:55:41Z</time></trkpt>
   <trkpt lat="31.186625" lon="35.323047"><ele>94.2</ele><name>TP07669</name><time>2020-01-27T13:55:43Z</time></trkpt>
   <trkpt lat="31.186625" lon="35.323047"><ele>94.2</ele><name>TP07670</name><time>2020-01-27T13:55:44Z</time></trkpt>
   <trkpt lat="31.186625" lon="35.323047"><ele>94.2</ele><name>TP07671</name><time>2020-01-27T13:55:46Z</time></trkpt>
   <trkpt lat="31.186625" lon="35.323047"><ele>94.2</ele><name>TP07672</name><time>2020-01-27T13:55:48Z</time></trkpt>
   <trkpt lat="31.186625" lon="35.323047"><ele>94.2</ele><name>TP07673</name><time>2020-01-27T13:55:50Z</time></trkpt>
   <trkpt lat="31.186625" lon="35.323047"><ele>94.2</ele><name>TP07674</name><time>2020-01-27T13:55:51Z</time></trkpt>
   <trkpt lat="31.186625" lon="35.323047"><ele>94.2</ele><name>TP07675</name><time>2020-01-27T13:55:53Z</time></trkpt>
   <trkpt lat="31.186625" lon="35.323047"><ele>94.2</ele><name>TP07676</name><time>2020-01-27T13:55:54Z</time></trkpt>
   <trkpt lat="31.186625" lon="35.323047"><ele>94.2</ele><name>TP07677</name><time>2020-01-27T13:55:56Z</time></trkpt>
   <trkpt lat="31.186625" lon="35.323047"><ele>94.2</ele><name>TP07678</name><time>2020-01-27T13:55:58Z</time></trkpt>
   <trkpt lat="31.186625" lon="35.323047"><ele>94.2</ele><name>TP07679</name><time>2020-01-27T13:55:59Z</time></trkpt>
   <trkpt lat="31.186625" lon="35.323047"><ele>94.2</ele><name>TP07680</name><time>2020-01-27T13:56:01Z</time></trkpt>
   <trkpt lat="31.186625" lon="35.323047"><ele>94.2</ele><name>TP07681</name><time>2020-01-27T13:56:03Z</time></trkpt>
   <trkpt lat="31.186625" lon="35.323047"><ele>94.2</ele><name>TP07682</name><time>2020-01-27T13:56:04Z</time></trkpt>
   <trkpt lat="31.186625" lon="35.323047"><ele>94.2</ele><name>TP07683</name><time>2020-01-27T13:56:06Z</time></trkpt>
   <trkpt lat="31.186624" lon="35.323047"><ele>94.2</ele><name>TP07684</name><time>2020-01-27T13:56:07Z</time></trkpt>
   <trkpt lat="31.186624" lon="35.323046"><ele>94.2</ele><name>TP07685</name><time>2020-01-27T13:56:09Z</time></trkpt>
   <trkpt lat="31.186624" lon="35.323046"><ele>94.2</ele><name>TP07686</name><time>2020-01-27T13:56:11Z</time></trkpt>
   <trkpt lat="31.186624" lon="35.323046"><ele>94.2</ele><name>TP07687</name><time>2020-01-27T13:56:12Z</time></trkpt>
   <trkpt lat="31.186624" lon="35.323046"><ele>94.2</ele><name>TP07688</name><time>2020-01-27T13:56:13Z</time></trkpt>
   <trkpt lat="31.186624" lon="35.323046"><ele>94.2</ele><name>TP07689</name><time>2020-01-27T13:56:14Z</time></trkpt>
   <trkpt lat="31.186624" lon="35.323046"><ele>94.2</ele><name>TP07690</name><time>2020-01-27T13:56:15Z</time></trkpt>
   <trkpt lat="31.186624" lon="35.323046"><ele>94.2</ele><name>TP07691</name><time>2020-01-27T13:56:17Z</time></trkpt>
   <trkpt lat="31.186624" lon="35.323046"><ele>94.2</ele><name>TP07692</name><time>2020-01-27T13:56:19Z</time></trkpt>
   <trkpt lat="31.186624" lon="35.323046"><ele>94.2</ele><name>TP07693</name><time>2020-01-27T13:56:21Z</time></trkpt>
   <trkpt lat="31.186624" lon="35.323046"><ele>94.2</ele><name>TP07694</name><time>2020-01-27T13:56:22Z</time></trkpt>
   <trkpt lat="31.186624" lon="35.323046"><ele>94.2</ele><name>TP07695</name><time>2020-01-27T13:56:23Z</time></trkpt>
   <trkpt lat="31.186624" lon="35.323046"><ele>94.2</ele><name>TP07696</name><time>2020-01-27T13:56:24Z</time></trkpt>
   <trkpt lat="31.186624" lon="35.323046"><ele>94.2</ele><name>TP07697</name><time>2020-01-27T13:56:26Z</time></trkpt>
   <trkpt lat="31.186624" lon="35.323046"><ele>94.2</ele><name>TP07698</name><time>2020-01-27T13:56:28Z</time></trkpt>
   <trkpt lat="31.186623" lon="35.323046"><ele>94.2</ele><name>TP07699</name><time>2020-01-27T13:56:30Z</time></trkpt>
   <trkpt lat="31.186623" lon="35.323046"><ele>94.2</ele><name>TP07700</name><time>2020-01-27T13:56:31Z</time></trkpt>
   <trkpt lat="31.186623" lon="35.323046"><ele>94.2</ele><name>TP07701</name><time>2020-01-27T13:56:33Z</time></trkpt>
   <trkpt lat="31.186623" lon="35.323046"><ele>94.2</ele><name>TP07702</name><time>2020-01-27T13:56:34Z</time></trkpt>
   <trkpt lat="31.186623" lon="35.323046"><ele>94.2</ele><name>TP07703</name><time>2020-01-27T13:56:36Z</time></trkpt>
   <trkpt lat="31.186623" lon="35.323046"><ele>94.2</ele><name>TP07704</name><time>2020-01-27T13:56:38Z</time></trkpt>
   <trkpt lat="31.186623" lon="35.323046"><ele>94.2</ele><name>TP07705</name><time>2020-01-27T13:56:40Z</time></trkpt>
   <trkpt lat="31.186622" lon="35.323046"><ele>94.2</ele><name>TP07706</name><time>2020-01-27T13:56:42Z</time></trkpt>
   <trkpt lat="31.186622" lon="35.323046"><ele>94.2</ele><name>TP07707</name><time>2020-01-27T13:56:43Z</time></trkpt>
   <trkpt lat="31.186623" lon="35.323047"><ele>94.2</ele><name>TP07708</name><time>2020-01-27T13:56:45Z</time></trkpt>
   <trkpt lat="31.186623" lon="35.323047"><ele>94.2</ele><name>TP07709</name><time>2020-01-27T13:56:47Z</time></trkpt>
   <trkpt lat="31.186623" lon="35.323047"><ele>94.2</ele><name>TP07710</name><time>2020-01-27T13:56:48Z</time></trkpt>
   <trkpt lat="31.186623" lon="35.323047"><ele>94.2</ele><name>TP07711</name><time>2020-01-27T13:56:50Z</time></trkpt>
   <trkpt lat="31.186623" lon="35.323048"><ele>94.2</ele><name>TP07712</name><time>2020-01-27T13:56:52Z</time></trkpt>
   <trkpt lat="31.186623" lon="35.323048"><ele>94.2</ele><name>TP07713</name><time>2020-01-27T13:56:53Z</time></trkpt>
   <trkpt lat="31.186623" lon="35.323049"><ele>94.2</ele><name>TP07714</name><time>2020-01-27T13:56:54Z</time></trkpt>
   <trkpt lat="31.186623" lon="35.323049"><ele>94.2</ele><name>TP07715</name><time>2020-01-27T13:56:56Z</time></trkpt>
   <trkpt lat="31.186623" lon="35.323049"><ele>94.2</ele><name>TP07716</name><time>2020-01-27T13:56:58Z</time></trkpt>
   <trkpt lat="31.186623" lon="35.323049"><ele>94.2</ele><name>TP07717</name><time>2020-01-27T13:56:59Z</time></trkpt>
   <trkpt lat="31.186624" lon="35.32305"><ele>94.2</ele><name>TP07718</name><time>2020-01-27T13:57:01Z</time></trkpt>
   <trkpt lat="31.186623" lon="35.32305"><ele>94.2</ele><name>TP07719</name><time>2020-01-27T13:57:02Z</time></trkpt>
   <trkpt lat="31.186624" lon="35.32305"><ele>94.2</ele><name>TP07720</name><time>2020-01-27T13:57:03Z</time></trkpt>
   <trkpt lat="31.186624" lon="35.323049"><ele>94.2</ele><name>TP07721</name><time>2020-01-27T13:57:05Z</time></trkpt>
   <trkpt lat="31.186624" lon="35.323049"><ele>94.2</ele><name>TP07722</name><time>2020-01-27T13:57:07Z</time></trkpt>
   <trkpt lat="31.186624" lon="35.323049"><ele>94.2</ele><name>TP07723</name><time>2020-01-27T13:57:09Z</time></trkpt>
   <trkpt lat="31.186624" lon="35.323049"><ele>94.2</ele><name>TP07724</name><time>2020-01-27T13:57:10Z</time></trkpt>
   <trkpt lat="31.186624" lon="35.323049"><ele>94.2</ele><name>TP07725</name><time>2020-01-27T13:57:12Z</time></trkpt>
   <trkpt lat="31.186624" lon="35.323049"><ele>94.2</ele><name>TP07726</name><time>2020-01-27T13:57:14Z</time></trkpt>
   <trkpt lat="31.186624" lon="35.323049"><ele>94.2</ele><name>TP07727</name><time>2020-01-27T13:57:16Z</time></trkpt>
   <trkpt lat="31.186624" lon="35.32305"><ele>94.2</ele><name>TP07728</name><time>2020-01-27T13:57:18Z</time></trkpt>
   <trkpt lat="31.186624" lon="35.32305"><ele>94.2</ele><name>TP07729</name><time>2020-01-27T13:57:19Z</time></trkpt>
   <trkpt lat="31.186624" lon="35.32305"><ele>94.2</ele><name>TP07730</name><time>2020-01-27T13:57:20Z</time></trkpt>
   <trkpt lat="31.186624" lon="35.32305"><ele>94.2</ele><name>TP07731</name><time>2020-01-27T13:57:21Z</time></trkpt>
   <trkpt lat="31.186623" lon="35.32305"><ele>94.2</ele><name>TP07732</name><time>2020-01-27T13:57:23Z</time></trkpt>
   <trkpt lat="31.186623" lon="35.32305"><ele>94.2</ele><name>TP07733</name><time>2020-01-27T13:57:25Z</time></trkpt>
   <trkpt lat="31.186623" lon="35.32305"><ele>94.2</ele><name>TP07734</name><time>2020-01-27T13:57:27Z</time></trkpt>
   <trkpt lat="31.186623" lon="35.32305"><ele>94.2</ele><name>TP07735</name><time>2020-01-27T13:57:29Z</time></trkpt>
   <trkpt lat="31.186623" lon="35.323051"><ele>94.1</ele><name>TP07736</name><time>2020-01-27T13:57:30Z</time></trkpt>
   <trkpt lat="31.186623" lon="35.32305"><ele>94.1</ele><name>TP07737</name><time>2020-01-27T13:57:32Z</time></trkpt>
   <trkpt lat="31.186623" lon="35.323051"><ele>94.1</ele><name>TP07738</name><time>2020-01-27T13:57:34Z</time></trkpt>
   <trkpt lat="31.186623" lon="35.323051"><ele>94.1</ele><name>TP07739</name><time>2020-01-27T13:57:36Z</time></trkpt>
   <trkpt lat="31.186625" lon="35.323051"><ele>94.1</ele><name>TP07740</name><time>2020-01-27T13:57:38Z</time></trkpt>
   <trkpt lat="31.186624" lon="35.323052"><ele>94.1</ele><name>TP07741</name><time>2020-01-27T13:57:40Z</time></trkpt>
   <trkpt lat="31.186624" lon="35.323052"><ele>94.1</ele><name>TP07742</name><time>2020-01-27T13:57:42Z</time></trkpt>
   <trkpt lat="31.186624" lon="35.323052"><ele>94.1</ele><name>TP07743</name><time>2020-01-27T13:57:43Z</time></trkpt>
   <trkpt lat="31.186624" lon="35.323052"><ele>94.1</ele><name>TP07744</name><time>2020-01-27T13:57:45Z</time></trkpt>
   <trkpt lat="31.186624" lon="35.323052"><ele>94.1</ele><name>TP07745</name><time>2020-01-27T13:57:47Z</time></trkpt>
   <trkpt lat="31.186624" lon="35.323052"><ele>94.1</ele><name>TP07746</name><time>2020-01-27T13:57:49Z</time></trkpt>
   <trkpt lat="31.186624" lon="35.323052"><ele>94.1</ele><name>TP07747</name><time>2020-01-27T13:57:50Z</time></trkpt>
   <trkpt lat="31.186624" lon="35.323052"><ele>94.1</ele><name>TP07748</name><time>2020-01-27T13:57:52Z</time></trkpt>
   <trkpt lat="31.186624" lon="35.323052"><ele>94.1</ele><name>TP07749</name><time>2020-01-27T13:57:53Z</time></trkpt>
   <trkpt lat="31.186624" lon="35.323052"><ele>94.1</ele><name>TP07750</name><time>2020-01-27T13:57:55Z</time></trkpt>
   <trkpt lat="31.186624" lon="35.323052"><ele>94.1</ele><name>TP07751</name><time>2020-01-27T13:57:57Z</time></trkpt>
   <trkpt lat="31.186624" lon="35.323052"><ele>94.1</ele><name>TP07752</name><time>2020-01-27T13:57:59Z</time></trkpt>
   <trkpt lat="31.186624" lon="35.323052"><ele>94.1</ele><name>TP07753</name><time>2020-01-27T13:58:01Z</time></trkpt>
   <trkpt lat="31.186624" lon="35.323052"><ele>94.1</ele><name>TP07754</name><time>2020-01-27T13:58:02Z</time></trkpt>
   <trkpt lat="31.186624" lon="35.323052"><ele>94.1</ele><name>TP07755</name><time>2020-01-27T13:58:04Z</time></trkpt>
   <trkpt lat="31.186624" lon="35.323052"><ele>94.1</ele><name>TP07756</name><time>2020-01-27T13:58:06Z</time></trkpt>
   <trkpt lat="31.186624" lon="35.323052"><ele>94.1</ele><name>TP07757</name><time>2020-01-27T13:58:08Z</time></trkpt>
   <trkpt lat="31.186624" lon="35.323052"><ele>94.1</ele><name>TP07758</name><time>2020-01-27T13:58:10Z</time></trkpt>
   <trkpt lat="31.186624" lon="35.323052"><ele>94.1</ele><name>TP07759</name><time>2020-01-27T13:58:11Z</time></trkpt>
   <trkpt lat="31.186624" lon="35.323052"><ele>94.1</ele><name>TP07760</name><time>2020-01-27T13:58:13Z</time></trkpt>
   <trkpt lat="31.186624" lon="35.323052"><ele>94.1</ele><name>TP07761</name><time>2020-01-27T13:58:14Z</time></trkpt>
   <trkpt lat="31.186624" lon="35.323052"><ele>94.1</ele><name>TP07762</name><time>2020-01-27T13:58:15Z</time></trkpt>
   <trkpt lat="31.186624" lon="35.323052"><ele>94.1</ele><name>TP07763</name><time>2020-01-27T13:58:17Z</time></trkpt>
   <trkpt lat="31.186624" lon="35.323052"><ele>94.1</ele><name>TP07764</name><time>2020-01-27T13:58:18Z</time></trkpt>
   <trkpt lat="31.186624" lon="35.323051"><ele>94.1</ele><name>TP07765</name><time>2020-01-27T13:58:20Z</time></trkpt>
   <trkpt lat="31.186624" lon="35.323052"><ele>94.1</ele><name>TP07766</name><time>2020-01-27T13:58:22Z</time></trkpt>
   <trkpt lat="31.186624" lon="35.323052"><ele>94.1</ele><name>TP07767</name><time>2020-01-27T13:58:24Z</time></trkpt>
   <trkpt lat="31.186623" lon="35.323052"><ele>94.1</ele><name>TP07768</name><time>2020-01-27T13:58:25Z</time></trkpt>
   <trkpt lat="31.186623" lon="35.323052"><ele>94.1</ele><name>TP07769</name><time>2020-01-27T13:58:26Z</time></trkpt>
   <trkpt lat="31.186623" lon="35.323052"><ele>94.1</ele><name>TP07770</name><time>2020-01-27T13:58:28Z</time></trkpt>
   <trkpt lat="31.186623" lon="35.323052"><ele>94.1</ele><name>TP07771</name><time>2020-01-27T13:58:30Z</time></trkpt>
   <trkpt lat="31.186623" lon="35.323052"><ele>94.1</ele><name>TP07772</name><time>2020-01-27T13:58:31Z</time></trkpt>
   <trkpt lat="31.186623" lon="35.323052"><ele>94.1</ele><name>TP07773</name><time>2020-01-27T13:58:32Z</time></trkpt>
   <trkpt lat="31.186623" lon="35.323052"><ele>94.1</ele><name>TP07774</name><time>2020-01-27T13:58:33Z</time></trkpt>
   <trkpt lat="31.186623" lon="35.323052"><ele>94.1</ele><name>TP07775</name><time>2020-01-27T13:58:35Z</time></trkpt>
   <trkpt lat="31.186623" lon="35.323052"><ele>94.1</ele><name>TP07776</name><time>2020-01-27T13:58:37Z</time></trkpt>
   <trkpt lat="31.186623" lon="35.323052"><ele>94.1</ele><name>TP07777</name><time>2020-01-27T13:58:38Z</time></trkpt>
   <trkpt lat="31.186623" lon="35.323052"><ele>94.1</ele><name>TP07778</name><time>2020-01-27T13:58:39Z</time></trkpt>
   <trkpt lat="31.186623" lon="35.323052"><ele>94.1</ele><name>TP07779</name><time>2020-01-27T13:58:41Z</time></trkpt>
   <trkpt lat="31.186623" lon="35.323052"><ele>94.1</ele><name>TP07780</name><time>2020-01-27T13:58:42Z</time></trkpt>
   <trkpt lat="31.186623" lon="35.323052"><ele>94.1</ele><name>TP07781</name><time>2020-01-27T13:58:44Z</time></trkpt>
   <trkpt lat="31.186622" lon="35.323052"><ele>94.1</ele><name>TP07782</name><time>2020-01-27T13:58:46Z</time></trkpt>
   <trkpt lat="31.186623" lon="35.323052"><ele>94.1</ele><name>TP07783</name><time>2020-01-27T13:58:48Z</time></trkpt>
   <trkpt lat="31.186623" lon="35.323051"><ele>94.1</ele><name>TP07784</name><time>2020-01-27T13:58:50Z</time></trkpt>
   <trkpt lat="31.186623" lon="35.323051"><ele>94.1</ele><name>TP07785</name><time>2020-01-27T13:58:52Z</time></trkpt>
   <trkpt lat="31.186623" lon="35.323052"><ele>94.1</ele><name>TP07786</name><time>2020-01-27T13:58:54Z</time></trkpt>
   <trkpt lat="31.186623" lon="35.323052"><ele>94.1</ele><name>TP07787</name><time>2020-01-27T13:58:56Z</time></trkpt>
   <trkpt lat="31.186623" lon="35.323052"><ele>94.1</ele><name>TP07788</name><time>2020-01-27T13:58:57Z</time></trkpt>
   <trkpt lat="31.186623" lon="35.323052"><ele>94.1</ele><name>TP07789</name><time>2020-01-27T13:58:58Z</time></trkpt>
   <trkpt lat="31.186623" lon="35.323052"><ele>94.1</ele><name>TP07790</name><time>2020-01-27T13:59:00Z</time></trkpt>
   <trkpt lat="31.186623" lon="35.323052"><ele>94.1</ele><name>TP07791</name><time>2020-01-27T13:59:02Z</time></trkpt>
   <trkpt lat="31.186623" lon="35.323053"><ele>94.1</ele><name>TP07792</name><time>2020-01-27T13:59:04Z</time></trkpt>
   <trkpt lat="31.186623" lon="35.323053"><ele>94.1</ele><name>TP07793</name><time>2020-01-27T13:59:06Z</time></trkpt>
   <trkpt lat="31.186623" lon="35.323053"><ele>94.1</ele><name>TP07794</name><time>2020-01-27T13:59:07Z</time></trkpt>
   <trkpt lat="31.186622" lon="35.323053"><ele>94.1</ele><name>TP07795</name><time>2020-01-27T13:59:09Z</time></trkpt>
   <trkpt lat="31.186622" lon="35.323053"><ele>94.1</ele><name>TP07796</name><time>2020-01-27T13:59:10Z</time></trkpt>
   <trkpt lat="31.186622" lon="35.323053"><ele>94.1</ele><name>TP07797</name><time>2020-01-27T13:59:12Z</time></trkpt>
   <trkpt lat="31.186622" lon="35.323053"><ele>94.1</ele><name>TP07798</name><time>2020-01-27T13:59:14Z</time></trkpt>
   <trkpt lat="31.186622" lon="35.323053"><ele>94.1</ele><name>TP07799</name><time>2020-01-27T13:59:16Z</time></trkpt>
   <trkpt lat="31.186622" lon="35.323053"><ele>94.1</ele><name>TP07800</name><time>2020-01-27T13:59:17Z</time></trkpt>
   <trkpt lat="31.186622" lon="35.323053"><ele>94.1</ele><name>TP07801</name><time>2020-01-27T13:59:19Z</time></trkpt>
   <trkpt lat="31.186621" lon="35.323053"><ele>94.1</ele><name>TP07802</name><time>2020-01-27T13:59:21Z</time></trkpt>
   <trkpt lat="31.186621" lon="35.323053"><ele>94.1</ele><name>TP07803</name><time>2020-01-27T13:59:22Z</time></trkpt>
   <trkpt lat="31.186621" lon="35.323053"><ele>94.1</ele><name>TP07804</name><time>2020-01-27T13:59:23Z</time></trkpt>
   <trkpt lat="31.186621" lon="35.323053"><ele>94.1</ele><name>TP07805</name><time>2020-01-27T13:59:25Z</time></trkpt>
   <trkpt lat="31.186621" lon="35.323053"><ele>94.1</ele><name>TP07806</name><time>2020-01-27T13:59:26Z</time></trkpt>
   <trkpt lat="31.186621" lon="35.323053"><ele>94.1</ele><name>TP07807</name><time>2020-01-27T13:59:28Z</time></trkpt>
   <trkpt lat="31.186621" lon="35.323053"><ele>94.1</ele><name>TP07808</name><time>2020-01-27T13:59:30Z</time></trkpt>
   <trkpt lat="31.186621" lon="35.323053"><ele>94.1</ele><name>TP07809</name><time>2020-01-27T13:59:31Z</time></trkpt>
   <trkpt lat="31.186621" lon="35.323054"><ele>94.1</ele><name>TP07810</name><time>2020-01-27T13:59:33Z</time></trkpt>
   <trkpt lat="31.186621" lon="35.323054"><ele>94.1</ele><name>TP07811</name><time>2020-01-27T13:59:35Z</time></trkpt>
   <trkpt lat="31.186621" lon="35.323054"><ele>94.1</ele><name>TP07812</name><time>2020-01-27T13:59:37Z</time></trkpt>
   <trkpt lat="31.186621" lon="35.323054"><ele>94.1</ele><name>TP07813</name><time>2020-01-27T13:59:38Z</time></trkpt>
   <trkpt lat="31.186621" lon="35.323054"><ele>94.1</ele><name>TP07814</name><time>2020-01-27T13:59:39Z</time></trkpt>
   <trkpt lat="31.186621" lon="35.323054"><ele>94.1</ele><name>TP07815</name><time>2020-01-27T13:59:41Z</time></trkpt>
   <trkpt lat="31.186621" lon="35.323054"><ele>94.1</ele><name>TP07816</name><time>2020-01-27T13:59:42Z</time></trkpt>
   <trkpt lat="31.186621" lon="35.323054"><ele>94.1</ele><name>TP07817</name><time>2020-01-27T13:59:44Z</time></trkpt>
   <trkpt lat="31.186621" lon="35.323055"><ele>94.1</ele><name>TP07818</name><time>2020-01-27T13:59:46Z</time></trkpt>
   <trkpt lat="31.186621" lon="35.323055"><ele>94.1</ele><name>TP07819</name><time>2020-01-27T13:59:48Z</time></trkpt>
   <trkpt lat="31.18662" lon="35.323055"><ele>94</ele><name>TP07820</name><time>2020-01-27T13:59:49Z</time></trkpt>
   <trkpt lat="31.18662" lon="35.323054"><ele>94</ele><name>TP07821</name><time>2020-01-27T13:59:51Z</time></trkpt>
   <trkpt lat="31.186619" lon="35.323054"><ele>94</ele><name>TP07822</name><time>2020-01-27T13:59:52Z</time></trkpt>
   <trkpt lat="31.186619" lon="35.323054"><ele>94</ele><name>TP07823</name><time>2020-01-27T13:59:53Z</time></trkpt>
   <trkpt lat="31.186619" lon="35.323055"><ele>94</ele><name>TP07824</name><time>2020-01-27T13:59:55Z</time></trkpt>
   <trkpt lat="31.186619" lon="35.323055"><ele>94</ele><name>TP07825</name><time>2020-01-27T13:59:56Z</time></trkpt>
   <trkpt lat="31.186619" lon="35.323055"><ele>94</ele><name>TP07826</name><time>2020-01-27T13:59:57Z</time></trkpt>
   <trkpt lat="31.186618" lon="35.323055"><ele>94</ele><name>TP07827</name><time>2020-01-27T13:59:59Z</time></trkpt>
   <trkpt lat="31.186618" lon="35.323055"><ele>94</ele><name>TP07828</name><time>2020-01-27T14:00:00Z</time></trkpt>
   <trkpt lat="31.186618" lon="35.323055"><ele>94</ele><name>TP07829</name><time>2020-01-27T14:00:02Z</time></trkpt>
   <trkpt lat="31.186618" lon="35.323055"><ele>94</ele><name>TP07830</name><time>2020-01-27T14:00:03Z</time></trkpt>
   <trkpt lat="31.186618" lon="35.323054"><ele>94</ele><name>TP07831</name><time>2020-01-27T14:00:05Z</time></trkpt>
   <trkpt lat="31.186619" lon="35.323053"><ele>94</ele><name>TP07832</name><time>2020-01-27T14:00:07Z</time></trkpt>
   <trkpt lat="31.186618" lon="35.323054"><ele>94</ele><name>TP07833</name><time>2020-01-27T14:00:09Z</time></trkpt>
   <trkpt lat="31.186619" lon="35.323053"><ele>94</ele><name>TP07834</name><time>2020-01-27T14:00:10Z</time></trkpt>
   <trkpt lat="31.186619" lon="35.323053"><ele>94</ele><name>TP07835</name><time>2020-01-27T14:00:11Z</time></trkpt>
   <trkpt lat="31.18662" lon="35.323054"><ele>94</ele><name>TP07836</name><time>2020-01-27T14:00:13Z</time></trkpt>
   <trkpt lat="31.186621" lon="35.323054"><ele>94</ele><name>TP07837</name><time>2020-01-27T14:00:15Z</time></trkpt>
   <trkpt lat="31.186622" lon="35.323054"><ele>94</ele><name>TP07838</name><time>2020-01-27T14:00:17Z</time></trkpt>
   <trkpt lat="31.186624" lon="35.323052"><ele>94</ele><name>TP07839</name><time>2020-01-27T14:00:19Z</time></trkpt>
   <trkpt lat="31.186625" lon="35.323052"><ele>94</ele><name>TP07840</name><time>2020-01-27T14:00:20Z</time></trkpt>
   <trkpt lat="31.186625" lon="35.323051"><ele>94</ele><name>TP07841</name><time>2020-01-27T14:00:21Z</time></trkpt>
   <trkpt lat="31.186625" lon="35.323052"><ele>94</ele><name>TP07842</name><time>2020-01-27T14:00:23Z</time></trkpt>
   <trkpt lat="31.186625" lon="35.323051"><ele>94</ele><name>TP07843</name><time>2020-01-27T14:00:24Z</time></trkpt>
   <trkpt lat="31.186625" lon="35.323052"><ele>94</ele><name>TP07844</name><time>2020-01-27T14:00:25Z</time></trkpt>
   <trkpt lat="31.186625" lon="35.323053"><ele>94</ele><name>TP07845</name><time>2020-01-27T14:00:27Z</time></trkpt>
   <trkpt lat="31.186627" lon="35.323051"><ele>94</ele><name>TP07846</name><time>2020-01-27T14:00:28Z</time></trkpt>
   <trkpt lat="31.186629" lon="35.323049"><ele>94</ele><name>TP07847</name><time>2020-01-27T14:00:30Z</time></trkpt>
   <trkpt lat="31.186629" lon="35.323047"><ele>94</ele><name>TP07848</name><time>2020-01-27T14:00:32Z</time></trkpt>
   <trkpt lat="31.18663" lon="35.32305"><ele>94</ele><name>TP07849</name><time>2020-01-27T14:00:34Z</time></trkpt>
   <trkpt lat="31.18663" lon="35.323051"><ele>94</ele><name>TP07850</name><time>2020-01-27T14:00:35Z</time></trkpt>
   <trkpt lat="31.186632" lon="35.323054"><ele>94</ele><name>TP07851</name><time>2020-01-27T14:00:37Z</time></trkpt>
   <trkpt lat="31.186634" lon="35.323056"><ele>94</ele><name>TP07852</name><time>2020-01-27T14:00:39Z</time></trkpt>
   <trkpt lat="31.186635" lon="35.323057"><ele>94</ele><name>TP07853</name><time>2020-01-27T14:00:40Z</time></trkpt>
   <trkpt lat="31.186636" lon="35.323059"><ele>94</ele><name>TP07854</name><time>2020-01-27T14:00:42Z</time></trkpt>
   <trkpt lat="31.186637" lon="35.32306"><ele>94</ele><name>TP07855</name><time>2020-01-27T14:00:43Z</time></trkpt>
   <trkpt lat="31.186638" lon="35.32306"><ele>94</ele><name>TP07856</name><time>2020-01-27T14:00:45Z</time></trkpt>
   <trkpt lat="31.186639" lon="35.323061"><ele>94</ele><name>TP07857</name><time>2020-01-27T14:00:47Z</time></trkpt>
   <trkpt lat="31.186639" lon="35.32306"><ele>94</ele><name>TP07858</name><time>2020-01-27T14:00:48Z</time></trkpt>
   <trkpt lat="31.186638" lon="35.32306"><ele>94</ele><name>TP07859</name><time>2020-01-27T14:00:50Z</time></trkpt>
   <trkpt lat="31.186637" lon="35.32306"><ele>94</ele><name>TP07860</name><time>2020-01-27T14:00:51Z</time></trkpt>
   <trkpt lat="31.186637" lon="35.323059"><ele>94</ele><name>TP07861</name><time>2020-01-27T14:00:52Z</time></trkpt>
   <trkpt lat="31.186637" lon="35.323058"><ele>94</ele><name>TP07862</name><time>2020-01-27T14:00:53Z</time></trkpt>
   <trkpt lat="31.186636" lon="35.323052"><ele>94</ele><name>TP07863</name><time>2020-01-27T14:00:55Z</time></trkpt>
   <trkpt lat="31.186636" lon="35.323049"><ele>94</ele><name>TP07864</name><time>2020-01-27T14:00:57Z</time></trkpt>
   <trkpt lat="31.186632" lon="35.323043"><ele>94</ele><name>TP07865</name><time>2020-01-27T14:00:59Z</time></trkpt>
   <trkpt lat="31.186632" lon="35.323044"><ele>94</ele><name>TP07866</name><time>2020-01-27T14:01:01Z</time></trkpt>
   <trkpt lat="31.186632" lon="35.323045"><ele>94</ele><name>TP07867</name><time>2020-01-27T14:01:02Z</time></trkpt>
   <trkpt lat="31.186632" lon="35.323044"><ele>94</ele><name>TP07868</name><time>2020-01-27T14:01:03Z</time></trkpt>
   <trkpt lat="31.18663" lon="35.323043"><ele>93.9</ele><name>TP07869</name><time>2020-01-27T14:01:05Z</time></trkpt>
   <trkpt lat="31.18663" lon="35.323044"><ele>93.9</ele><name>TP07870</name><time>2020-01-27T14:01:07Z</time></trkpt>
   <trkpt lat="31.186629" lon="35.323044"><ele>93.9</ele><name>TP07871</name><time>2020-01-27T14:01:08Z</time></trkpt>
   <trkpt lat="31.186628" lon="35.323043"><ele>93.9</ele><name>TP07872</name><time>2020-01-27T14:01:09Z</time></trkpt>
   <trkpt lat="31.186627" lon="35.323042"><ele>93.9</ele><name>TP07873</name><time>2020-01-27T14:01:10Z</time></trkpt>
   <trkpt lat="31.186625" lon="35.323041"><ele>93.9</ele><name>TP07874</name><time>2020-01-27T14:01:12Z</time></trkpt>
   <trkpt lat="31.186626" lon="35.323042"><ele>93.9</ele><name>TP07875</name><time>2020-01-27T14:01:14Z</time></trkpt>
   <trkpt lat="31.186626" lon="35.323042"><ele>93.9</ele><name>TP07876</name><time>2020-01-27T14:01:16Z</time></trkpt>
   <trkpt lat="31.186625" lon="35.323042"><ele>93.9</ele><name>TP07877</name><time>2020-01-27T14:01:17Z</time></trkpt>
   <trkpt lat="31.186624" lon="35.323043"><ele>93.9</ele><name>TP07878</name><time>2020-01-27T14:01:18Z</time></trkpt>
   <trkpt lat="31.186623" lon="35.323043"><ele>93.9</ele><name>TP07879</name><time>2020-01-27T14:01:20Z</time></trkpt>
   <trkpt lat="31.186624" lon="35.32304"><ele>93.9</ele><name>TP07880</name><time>2020-01-27T14:01:22Z</time></trkpt>
   <trkpt lat="31.186625" lon="35.32304"><ele>93.9</ele><name>TP07881</name><time>2020-01-27T14:01:23Z</time></trkpt>
   <trkpt lat="31.186619" lon="35.323034"><ele>93.9</ele><name>TP07882</name><time>2020-01-27T14:01:25Z</time></trkpt>
   <trkpt lat="31.186617" lon="35.323033"><ele>93.9</ele><name>TP07883</name><time>2020-01-27T14:01:27Z</time></trkpt>
   <trkpt lat="31.186616" lon="35.323033"><ele>93.9</ele><name>TP07884</name><time>2020-01-27T14:01:29Z</time></trkpt>
   <trkpt lat="31.186616" lon="35.323033"><ele>93.9</ele><name>TP07885</name><time>2020-01-27T14:01:30Z</time></trkpt>
   <trkpt lat="31.186613" lon="35.323029"><ele>93.9</ele><name>TP07886</name><time>2020-01-27T14:01:32Z</time></trkpt>
   <trkpt lat="31.186612" lon="35.323028"><ele>93.9</ele><name>TP07887</name><time>2020-01-27T14:01:33Z</time></trkpt>
   <trkpt lat="31.186611" lon="35.323027"><ele>93.9</ele><name>TP07888</name><time>2020-01-27T14:01:34Z</time></trkpt>
   <trkpt lat="31.18661" lon="35.323026"><ele>93.9</ele><name>TP07889</name><time>2020-01-27T14:01:36Z</time></trkpt>
   <trkpt lat="31.18661" lon="35.323026"><ele>93.9</ele><name>TP07890</name><time>2020-01-27T14:01:37Z</time></trkpt>
   <trkpt lat="31.186609" lon="35.323026"><ele>93.9</ele><name>TP07891</name><time>2020-01-27T14:01:39Z</time></trkpt>
   <trkpt lat="31.186609" lon="35.323027"><ele>93.9</ele><name>TP07892</name><time>2020-01-27T14:01:41Z</time></trkpt>
   <trkpt lat="31.186608" lon="35.323027"><ele>93.9</ele><name>TP07893</name><time>2020-01-27T14:01:43Z</time></trkpt>
   <trkpt lat="31.186607" lon="35.323027"><ele>93.9</ele><name>TP07894</name><time>2020-01-27T14:01:44Z</time></trkpt>
   <trkpt lat="31.186606" lon="35.323028"><ele>93.9</ele><name>TP07895</name><time>2020-01-27T14:01:46Z</time></trkpt>
   <trkpt lat="31.186605" lon="35.323028"><ele>93.9</ele><name>TP07896</name><time>2020-01-27T14:01:48Z</time></trkpt>
   <trkpt lat="31.186604" lon="35.323028"><ele>93.9</ele><name>TP07897</name><time>2020-01-27T14:01:50Z</time></trkpt>
   <trkpt lat="31.186604" lon="35.323029"><ele>93.9</ele><name>TP07898</name><time>2020-01-27T14:01:52Z</time></trkpt>
   <trkpt lat="31.186604" lon="35.323029"><ele>93.9</ele><name>TP07899</name><time>2020-01-27T14:01:53Z</time></trkpt>
   <trkpt lat="31.186604" lon="35.32303"><ele>93.9</ele><name>TP07900</name><time>2020-01-27T14:01:54Z</time></trkpt>
   <trkpt lat="31.186604" lon="35.323031"><ele>93.9</ele><name>TP07901</name><time>2020-01-27T14:01:55Z</time></trkpt>
   <trkpt lat="31.186604" lon="35.323032"><ele>93.9</ele><name>TP07902</name><time>2020-01-27T14:01:57Z</time></trkpt>
   <trkpt lat="31.186603" lon="35.323032"><ele>93.9</ele><name>TP07903</name><time>2020-01-27T14:01:58Z</time></trkpt>
   <trkpt lat="31.186602" lon="35.323032"><ele>93.9</ele><name>TP07904</name><time>2020-01-27T14:02:00Z</time></trkpt>
   <trkpt lat="31.186602" lon="35.323032"><ele>93.9</ele><name>TP07905</name><time>2020-01-27T14:02:02Z</time></trkpt>
   <trkpt lat="31.186601" lon="35.323031"><ele>93.9</ele><name>TP07906</name><time>2020-01-27T14:02:04Z</time></trkpt>
   <trkpt lat="31.186601" lon="35.323031"><ele>93.9</ele><name>TP07907</name><time>2020-01-27T14:02:06Z</time></trkpt>
   <trkpt lat="31.186602" lon="35.32303"><ele>93.9</ele><name>TP07908</name><time>2020-01-27T14:02:07Z</time></trkpt>
   <trkpt lat="31.186602" lon="35.323031"><ele>93.9</ele><name>TP07909</name><time>2020-01-27T14:02:09Z</time></trkpt>
   <trkpt lat="31.186602" lon="35.323032"><ele>93.9</ele><name>TP07910</name><time>2020-01-27T14:02:10Z</time></trkpt>
   <trkpt lat="31.186602" lon="35.323031"><ele>93.9</ele><name>TP07911</name><time>2020-01-27T14:02:11Z</time></trkpt>
   <trkpt lat="31.186602" lon="35.323029"><ele>93.9</ele><name>TP07912</name><time>2020-01-27T14:02:13Z</time></trkpt>
   <trkpt lat="31.186602" lon="35.323025"><ele>93.9</ele><name>TP07913</name><time>2020-01-27T14:02:15Z</time></trkpt>
   <trkpt lat="31.186602" lon="35.323026"><ele>93.9</ele><name>TP07914</name><time>2020-01-27T14:02:17Z</time></trkpt>
   <trkpt lat="31.186601" lon="35.323027"><ele>93.9</ele><name>TP07915</name><time>2020-01-27T14:02:18Z</time></trkpt>
   <trkpt lat="31.186601" lon="35.323028"><ele>93.9</ele><name>TP07916</name><time>2020-01-27T14:02:20Z</time></trkpt>
   <trkpt lat="31.1866" lon="35.323028"><ele>93.9</ele><name>TP07917</name><time>2020-01-27T14:02:22Z</time></trkpt>
   <trkpt lat="31.1866" lon="35.323028"><ele>93.9</ele><name>TP07918</name><time>2020-01-27T14:02:24Z</time></trkpt>
   <trkpt lat="31.1866" lon="35.323028"><ele>93.9</ele><name>TP07919</name><time>2020-01-27T14:02:25Z</time></trkpt>
   <trkpt lat="31.1866" lon="35.323028"><ele>93.9</ele><name>TP07920</name><time>2020-01-27T14:02:26Z</time></trkpt>
   <trkpt lat="31.186599" lon="35.323028"><ele>93.9</ele><name>TP07921</name><time>2020-01-27T14:02:27Z</time></trkpt>
   <trkpt lat="31.186599" lon="35.323028"><ele>93.9</ele><name>TP07922</name><time>2020-01-27T14:02:29Z</time></trkpt>
   <trkpt lat="31.186599" lon="35.323028"><ele>93.9</ele><name>TP07923</name><time>2020-01-27T14:02:31Z</time></trkpt>
   <trkpt lat="31.186599" lon="35.323028"><ele>93.9</ele><name>TP07924</name><time>2020-01-27T14:02:32Z</time></trkpt>
   <trkpt lat="31.186599" lon="35.323029"><ele>93.9</ele><name>TP07925</name><time>2020-01-27T14:02:34Z</time></trkpt>
   <trkpt lat="31.186599" lon="35.323029"><ele>93.9</ele><name>TP07926</name><time>2020-01-27T14:02:35Z</time></trkpt>
   <trkpt lat="31.186599" lon="35.32303"><ele>93.9</ele><name>TP07927</name><time>2020-01-27T14:02:37Z</time></trkpt>
   <trkpt lat="31.1866" lon="35.32303"><ele>93.9</ele><name>TP07928</name><time>2020-01-27T14:02:38Z</time></trkpt>
   <trkpt lat="31.1866" lon="35.323031"><ele>93.9</ele><name>TP07929</name><time>2020-01-27T14:02:40Z</time></trkpt>
   <trkpt lat="31.186599" lon="35.323031"><ele>93.9</ele><name>TP07930</name><time>2020-01-27T14:02:41Z</time></trkpt>
   <trkpt lat="31.1866" lon="35.323031"><ele>93.9</ele><name>TP07931</name><time>2020-01-27T14:02:42Z</time></trkpt>
   <trkpt lat="31.186598" lon="35.323033"><ele>93.9</ele><name>TP07932</name><time>2020-01-27T14:02:44Z</time></trkpt>
   <trkpt lat="31.186598" lon="35.323033"><ele>93.9</ele><name>TP07933</name><time>2020-01-27T14:02:45Z</time></trkpt>
   <trkpt lat="31.186597" lon="35.323033"><ele>93.9</ele><name>TP07934</name><time>2020-01-27T14:02:47Z</time></trkpt>
   <trkpt lat="31.186597" lon="35.323033"><ele>93.9</ele><name>TP07935</name><time>2020-01-27T14:02:48Z</time></trkpt>
   <trkpt lat="31.186597" lon="35.323033"><ele>93.9</ele><name>TP07936</name><time>2020-01-27T14:02:49Z</time></trkpt>
   <trkpt lat="31.186596" lon="35.323033"><ele>93.9</ele><name>TP07937</name><time>2020-01-27T14:02:51Z</time></trkpt>
   <trkpt lat="31.186596" lon="35.323034"><ele>93.9</ele><name>TP07938</name><time>2020-01-27T14:02:53Z</time></trkpt>
   <trkpt lat="31.186595" lon="35.323034"><ele>93.9</ele><name>TP07939</name><time>2020-01-27T14:02:55Z</time></trkpt>
   <trkpt lat="31.186595" lon="35.323034"><ele>93.9</ele><name>TP07940</name><time>2020-01-27T14:02:56Z</time></trkpt>
   <trkpt lat="31.186595" lon="35.323034"><ele>93.9</ele><name>TP07941</name><time>2020-01-27T14:02:57Z</time></trkpt>
   <trkpt lat="31.186596" lon="35.323034"><ele>93.9</ele><name>TP07942</name><time>2020-01-27T14:02:58Z</time></trkpt>
   <trkpt lat="31.186595" lon="35.323034"><ele>93.9</ele><name>TP07943</name><time>2020-01-27T14:03:00Z</time></trkpt>
   <trkpt lat="31.186595" lon="35.323034"><ele>93.9</ele><name>TP07944</name><time>2020-01-27T14:03:01Z</time></trkpt>
   <trkpt lat="31.186594" lon="35.323034"><ele>93.9</ele><name>TP07945</name><time>2020-01-27T14:03:03Z</time></trkpt>
   <trkpt lat="31.186594" lon="35.323034"><ele>93.9</ele><name>TP07946</name><time>2020-01-27T14:03:04Z</time></trkpt>
   <trkpt lat="31.186593" lon="35.323034"><ele>93.9</ele><name>TP07947</name><time>2020-01-27T14:03:06Z</time></trkpt>
   <trkpt lat="31.186593" lon="35.323034"><ele>93.9</ele><name>TP07948</name><time>2020-01-27T14:03:07Z</time></trkpt>
   <trkpt lat="31.186592" lon="35.323034"><ele>93.9</ele><name>TP07949</name><time>2020-01-27T14:03:09Z</time></trkpt>
   <trkpt lat="31.186592" lon="35.323033"><ele>93.9</ele><name>TP07950</name><time>2020-01-27T14:03:10Z</time></trkpt>
   <trkpt lat="31.186592" lon="35.323033"><ele>93.9</ele><name>TP07951</name><time>2020-01-27T14:03:11Z</time></trkpt>
   <trkpt lat="31.186591" lon="35.323033"><ele>93.9</ele><name>TP07952</name><time>2020-01-27T14:03:13Z</time></trkpt>
   <trkpt lat="31.186591" lon="35.323033"><ele>93.9</ele><name>TP07953</name><time>2020-01-27T14:03:15Z</time></trkpt>
   <trkpt lat="31.186587" lon="35.323031"><ele>93.9</ele><name>TP07954</name><time>2020-01-27T14:03:17Z</time></trkpt>
   <trkpt lat="31.186567" lon="35.323023"><ele>93.9</ele><name>TP07955</name><time>2020-01-27T14:03:19Z</time></trkpt>
   <trkpt lat="31.18655" lon="35.323019"><ele>93.9</ele><name>TP07956</name><time>2020-01-27T14:03:21Z</time></trkpt>
   <trkpt lat="31.186547" lon="35.323019"><ele>93.9</ele><name>TP07957</name><time>2020-01-27T14:03:22Z</time></trkpt>
   <trkpt lat="31.186547" lon="35.323019"><ele>93.9</ele><name>TP07958</name><time>2020-01-27T14:03:24Z</time></trkpt>
   <trkpt lat="31.186549" lon="35.32302"><ele>93.9</ele><name>TP07959</name><time>2020-01-27T14:03:25Z</time></trkpt>
   <trkpt lat="31.18655" lon="35.32302"><ele>93.9</ele><name>TP07960</name><time>2020-01-27T14:03:26Z</time></trkpt>
   <trkpt lat="31.186551" lon="35.323021"><ele>93.9</ele><name>TP07961</name><time>2020-01-27T14:03:28Z</time></trkpt>
   <trkpt lat="31.186551" lon="35.323021"><ele>93.9</ele><name>TP07962</name><time>2020-01-27T14:03:30Z</time></trkpt>
   <trkpt lat="31.186551" lon="35.323021"><ele>93.9</ele><name>TP07963</name><time>2020-01-27T14:03:32Z</time></trkpt>
   <trkpt lat="31.186551" lon="35.323021"><ele>93.9</ele><name>TP07964</name><time>2020-01-27T14:03:34Z</time></trkpt>
   <trkpt lat="31.186551" lon="35.323019"><ele>93.9</ele><name>TP07965</name><time>2020-01-27T14:03:35Z</time></trkpt>
   <trkpt lat="31.186552" lon="35.323019"><ele>93.9</ele><name>TP07966</name><time>2020-01-27T14:03:37Z</time></trkpt>
   <trkpt lat="31.186552" lon="35.323019"><ele>93.9</ele><name>TP07967</name><time>2020-01-27T14:03:39Z</time></trkpt>
   <trkpt lat="31.186551" lon="35.323018"><ele>94</ele><name>TP07968</name><time>2020-01-27T14:03:40Z</time></trkpt>
   <trkpt lat="31.18655" lon="35.323012"><ele>94</ele><name>TP07969</name><time>2020-01-27T14:03:42Z</time></trkpt>
   <trkpt lat="31.186549" lon="35.323007"><ele>94</ele><name>TP07970</name><time>2020-01-27T14:03:43Z</time></trkpt>
   <trkpt lat="31.186549" lon="35.323002"><ele>94</ele><name>TP07971</name><time>2020-01-27T14:03:45Z</time></trkpt>
   <trkpt lat="31.18655" lon="35.323001"><ele>94</ele><name>TP07972</name><time>2020-01-27T14:03:46Z</time></trkpt>
   <trkpt lat="31.186551" lon="35.323001"><ele>94</ele><name>TP07973</name><time>2020-01-27T14:03:47Z</time></trkpt>
   <trkpt lat="31.186552" lon="35.322999"><ele>94</ele><name>TP07974</name><time>2020-01-27T14:03:48Z</time></trkpt>
   <trkpt lat="31.186551" lon="35.322984"><ele>94</ele><name>TP07975</name><time>2020-01-27T14:03:50Z</time></trkpt>
   <trkpt lat="31.186558" lon="35.322934"><ele>93.9</ele><name>TP07976</name><time>2020-01-27T14:03:52Z</time></trkpt>
   <trkpt lat="31.186565" lon="35.322896"><ele>93.9</ele><name>TP07977</name><time>2020-01-27T14:03:54Z</time></trkpt>
   <trkpt lat="31.186562" lon="35.322867"><ele>93.8</ele><name>TP07978</name><time>2020-01-27T14:03:55Z</time></trkpt>
   <trkpt lat="31.186549" lon="35.322792"><ele>93.5</ele><name>TP07979</name><time>2020-01-27T14:03:56Z</time></trkpt>
   <trkpt lat="31.18654" lon="35.322751"><ele>93.2</ele><name>TP07980</name><time>2020-01-27T14:03:57Z</time></trkpt>
   <trkpt lat="31.186522" lon="35.322699"><ele>92.8</ele><name>TP07981</name><time>2020-01-27T14:03:59Z</time></trkpt>
   <trkpt lat="31.186502" lon="35.322646"><ele>92.6</ele><name>TP07982</name><time>2020-01-27T14:04:00Z</time></trkpt>
   <trkpt lat="31.186499" lon="35.32259"><ele>92.4</ele><name>TP07983</name><time>2020-01-27T14:04:01Z</time></trkpt>
   <trkpt lat="31.186504" lon="35.32252"><ele>92.2</ele><name>TP07984</name><time>2020-01-27T14:04:03Z</time></trkpt>
   <trkpt lat="31.186498" lon="35.322429"><ele>92.1</ele><name>TP07985</name><time>2020-01-27T14:04:04Z</time></trkpt>
   <trkpt lat="31.186479" lon="35.322368"><ele>92</ele><name>TP07986</name><time>2020-01-27T14:04:05Z</time></trkpt>
   <trkpt lat="31.186445" lon="35.322277"><ele>91.9</ele><name>TP07987</name><time>2020-01-27T14:04:06Z</time></trkpt>
   <trkpt lat="31.186363" lon="35.322143"><ele>91.8</ele><name>TP07988</name><time>2020-01-27T14:04:08Z</time></trkpt>
   <trkpt lat="31.186353" lon="35.322164"><ele>91.9</ele><name>TP07989</name><time>2020-01-27T14:04:10Z</time></trkpt>
   <trkpt lat="31.186265" lon="35.322079"><ele>93.1</ele><name>TP07990</name><time>2020-01-27T14:04:11Z</time></trkpt>
   <trkpt lat="31.186247" lon="35.32209"><ele>93.2</ele><name>TP07991</name><time>2020-01-27T14:04:13Z</time></trkpt>
   <trkpt lat="31.186278" lon="35.322121"><ele>93.5</ele><name>TP07992</name><time>2020-01-27T14:04:14Z</time></trkpt>
   <trkpt lat="31.186254" lon="35.322099"><ele>93.7</ele><name>TP07993</name><time>2020-01-27T14:04:15Z</time></trkpt>
   <trkpt lat="31.186146" lon="35.321989"><ele>94.5</ele><name>TP07994</name><time>2020-01-27T14:04:17Z</time></trkpt>
   <trkpt lat="31.186087" lon="35.321919"><ele>94.9</ele><name>TP07995</name><time>2020-01-27T14:04:19Z</time></trkpt>
   <trkpt lat="31.186061" lon="35.321891"><ele>95.1</ele><name>TP07996</name><time>2020-01-27T14:04:20Z</time></trkpt>
   <trkpt lat="31.186034" lon="35.32186"><ele>95.3</ele><name>TP07997</name><time>2020-01-27T14:04:21Z</time></trkpt>
   <trkpt lat="31.18602" lon="35.321837"><ele>95.4</ele><name>TP07998</name><time>2020-01-27T14:04:22Z</time></trkpt>
   <trkpt lat="31.186016" lon="35.321828"><ele>95.5</ele><name>TP07999</name><time>2020-01-27T14:04:24Z</time></trkpt>
   <trkpt lat="31.186013" lon="35.321819"><ele>95.5</ele><name>TP08000</name><time>2020-01-27T14:04:25Z</time></trkpt>
   <trkpt lat="31.185994" lon="35.321771"><ele>95.7</ele><name>TP08001</name><time>2020-01-27T14:04:27Z</time></trkpt>
   <trkpt lat="31.185988" lon="35.321757"><ele>95.8</ele><name>TP08002</name><time>2020-01-27T14:04:29Z</time></trkpt>
   <trkpt lat="31.185981" lon="35.321742"><ele>95.8</ele><name>TP08003</name><time>2020-01-27T14:04:30Z</time></trkpt>
   <trkpt lat="31.185966" lon="35.321692"><ele>96</ele><name>TP08004</name><time>2020-01-27T14:04:31Z</time></trkpt>
   <trkpt lat="31.185958" lon="35.321667"><ele>96.2</ele><name>TP08005</name><time>2020-01-27T14:04:32Z</time></trkpt>
   <trkpt lat="31.185881" lon="35.32148"><ele>97.3</ele><name>TP08006</name><time>2020-01-27T14:04:33Z</time></trkpt>
   <trkpt lat="31.18588" lon="35.321454"><ele>97.3</ele><name>TP08007</name><time>2020-01-27T14:04:35Z</time></trkpt>
   <trkpt lat="31.185884" lon="35.321418"><ele>97.4</ele><name>TP08008</name><time>2020-01-27T14:04:36Z</time></trkpt>
   <trkpt lat="31.185885" lon="35.321405"><ele>97.4</ele><name>TP08009</name><time>2020-01-27T14:04:37Z</time></trkpt>
   <trkpt lat="31.185889" lon="35.321381"><ele>97.4</ele><name>TP08010</name><time>2020-01-27T14:04:38Z</time></trkpt>
   <trkpt lat="31.185891" lon="35.321364"><ele>97.4</ele><name>TP08011</name><time>2020-01-27T14:04:39Z</time></trkpt>
   <trkpt lat="31.185891" lon="35.321321"><ele>97.5</ele><name>TP08012</name><time>2020-01-27T14:04:41Z</time></trkpt>
   <trkpt lat="31.185891" lon="35.321304"><ele>97.6</ele><name>TP08013</name><time>2020-01-27T14:04:42Z</time></trkpt>
   <trkpt lat="31.185891" lon="35.321268"><ele>97.7</ele><name>TP08014</name><time>2020-01-27T14:04:44Z</time></trkpt>
   <trkpt lat="31.185889" lon="35.321225"><ele>97.8</ele><name>TP08015</name><time>2020-01-27T14:04:45Z</time></trkpt>
   <trkpt lat="31.185865" lon="35.321106"><ele>98.5</ele><name>TP08016</name><time>2020-01-27T14:04:47Z</time></trkpt>
   <trkpt lat="31.18583" lon="35.321007"><ele>98.9</ele><name>TP08017</name><time>2020-01-27T14:04:49Z</time></trkpt>
   <trkpt lat="31.185812" lon="35.320968"><ele>98.9</ele><name>TP08018</name><time>2020-01-27T14:04:50Z</time></trkpt>
   <trkpt lat="31.185803" lon="35.320941"><ele>98.9</ele><name>TP08019</name><time>2020-01-27T14:04:51Z</time></trkpt>
   <trkpt lat="31.18577" lon="35.320859"><ele>99</ele><name>TP08020</name><time>2020-01-27T14:04:53Z</time></trkpt>
   <trkpt lat="31.18575" lon="35.320816"><ele>99</ele><name>TP08021</name><time>2020-01-27T14:04:54Z</time></trkpt>
   <trkpt lat="31.185723" lon="35.320768"><ele>99.1</ele><name>TP08022</name><time>2020-01-27T14:04:56Z</time></trkpt>
   <trkpt lat="31.185695" lon="35.320721"><ele>99.3</ele><name>TP08023</name><time>2020-01-27T14:04:58Z</time></trkpt>
   <trkpt lat="31.185666" lon="35.320692"><ele>99.3</ele><name>TP08024</name><time>2020-01-27T14:04:59Z</time></trkpt>
   <trkpt lat="31.185651" lon="35.32068"><ele>99.4</ele><name>TP08025</name><time>2020-01-27T14:05:00Z</time></trkpt>
   <trkpt lat="31.185615" lon="35.320669"><ele>99.5</ele><name>TP08026</name><time>2020-01-27T14:05:02Z</time></trkpt>
   <trkpt lat="31.185601" lon="35.320668"><ele>99.5</ele><name>TP08027</name><time>2020-01-27T14:05:03Z</time></trkpt>
   <trkpt lat="31.185536" lon="35.320657"><ele>99.6</ele><name>TP08028</name><time>2020-01-27T14:05:05Z</time></trkpt>
   <trkpt lat="31.185506" lon="35.320651"><ele>99.6</ele><name>TP08029</name><time>2020-01-27T14:05:06Z</time></trkpt>
   <trkpt lat="31.185427" lon="35.320628"><ele>99.6</ele><name>TP08030</name><time>2020-01-27T14:05:07Z</time></trkpt>
   <trkpt lat="31.185399" lon="35.320642"><ele>99.6</ele><name>TP08031</name><time>2020-01-27T14:05:08Z</time></trkpt>
   <trkpt lat="31.185364" lon="35.320655"><ele>99.6</ele><name>TP08032</name><time>2020-01-27T14:05:10Z</time></trkpt>
   <trkpt lat="31.185322" lon="35.320665"><ele>99.6</ele><name>TP08033</name><time>2020-01-27T14:05:11Z</time></trkpt>
   <trkpt lat="31.185292" lon="35.320677"><ele>99.5</ele><name>TP08034</name><time>2020-01-27T14:05:12Z</time></trkpt>
   <trkpt lat="31.18527" lon="35.320687"><ele>99.5</ele><name>TP08035</name><time>2020-01-27T14:05:13Z</time></trkpt>
   <trkpt lat="31.185247" lon="35.320699"><ele>99.5</ele><name>TP08036</name><time>2020-01-27T14:05:15Z</time></trkpt>
   <trkpt lat="31.185199" lon="35.320725"><ele>99.4</ele><name>TP08037</name><time>2020-01-27T14:05:16Z</time></trkpt>
   <trkpt lat="31.185126" lon="35.320767"><ele>99.3</ele><name>TP08038</name><time>2020-01-27T14:05:17Z</time></trkpt>
   <trkpt lat="31.185077" lon="35.320803"><ele>99.2</ele><name>TP08039</name><time>2020-01-27T14:05:18Z</time></trkpt>
   <trkpt lat="31.18498" lon="35.320865"><ele>99</ele><name>TP08040</name><time>2020-01-27T14:05:20Z</time></trkpt>
   <trkpt lat="31.184935" lon="35.320899"><ele>98.9</ele><name>TP08041</name><time>2020-01-27T14:05:21Z</time></trkpt>
   <trkpt lat="31.184881" lon="35.320946"><ele>98.9</ele><name>TP08042</name><time>2020-01-27T14:05:23Z</time></trkpt>
   <trkpt lat="31.184839" lon="35.320982"><ele>98.9</ele><name>TP08043</name><time>2020-01-27T14:05:24Z</time></trkpt>
   <trkpt lat="31.184806" lon="35.321002"><ele>98.9</ele><name>TP08044</name><time>2020-01-27T14:05:25Z</time></trkpt>
   <trkpt lat="31.184773" lon="35.321019"><ele>99</ele><name>TP08045</name><time>2020-01-27T14:05:26Z</time></trkpt>
   <trkpt lat="31.184709" lon="35.32104"><ele>99.1</ele><name>TP08046</name><time>2020-01-27T14:05:28Z</time></trkpt>
   <trkpt lat="31.184641" lon="35.321056"><ele>99.2</ele><name>TP08047</name><time>2020-01-27T14:05:30Z</time></trkpt>
   <trkpt lat="31.184605" lon="35.321067"><ele>99.3</ele><name>TP08048</name><time>2020-01-27T14:05:31Z</time></trkpt>
   <trkpt lat="31.184579" lon="35.321077"><ele>99.3</ele><name>TP08049</name><time>2020-01-27T14:05:32Z</time></trkpt>
   <trkpt lat="31.184537" lon="35.321094"><ele>99.4</ele><name>TP08050</name><time>2020-01-27T14:05:34Z</time></trkpt>
   <trkpt lat="31.184471" lon="35.321116"><ele>99.5</ele><name>TP08051</name><time>2020-01-27T14:05:35Z</time></trkpt>
   <trkpt lat="31.184422" lon="35.321135"><ele>99.5</ele><name>TP08052</name><time>2020-01-27T14:05:36Z</time></trkpt>
   <trkpt lat="31.184364" lon="35.321168"><ele>99.5</ele><name>TP08053</name><time>2020-01-27T14:05:38Z</time></trkpt>
   <trkpt lat="31.184314" lon="35.321179"><ele>99.6</ele><name>TP08054</name><time>2020-01-27T14:05:39Z</time></trkpt>
   <trkpt lat="31.184286" lon="35.321186"><ele>99.6</ele><name>TP08055</name><time>2020-01-27T14:05:40Z</time></trkpt>
   <trkpt lat="31.184214" lon="35.321204"><ele>99.6</ele><name>TP08056</name><time>2020-01-27T14:05:42Z</time></trkpt>
   <trkpt lat="31.184174" lon="35.321216"><ele>99.6</ele><name>TP08057</name><time>2020-01-27T14:05:43Z</time></trkpt>
   <trkpt lat="31.184106" lon="35.321239"><ele>99.6</ele><name>TP08058</name><time>2020-01-27T14:05:45Z</time></trkpt>
   <trkpt lat="31.184064" lon="35.321237"><ele>99.6</ele><name>TP08059</name><time>2020-01-27T14:05:46Z</time></trkpt>
   <trkpt lat="31.183999" lon="35.321278"><ele>99.7</ele><name>TP08060</name><time>2020-01-27T14:05:48Z</time></trkpt>
   <trkpt lat="31.183953" lon="35.321299"><ele>99.7</ele><name>TP08061</name><time>2020-01-27T14:05:49Z</time></trkpt>
   <trkpt lat="31.183895" lon="35.321334"><ele>99.8</ele><name>TP08062</name><time>2020-01-27T14:05:50Z</time></trkpt>
   <trkpt lat="31.183861" lon="35.321358"><ele>99.9</ele><name>TP08063</name><time>2020-01-27T14:05:52Z</time></trkpt>
   <trkpt lat="31.183825" lon="35.32138"><ele>100</ele><name>TP08064</name><time>2020-01-27T14:05:53Z</time></trkpt>
   <trkpt lat="31.183793" lon="35.321403"><ele>100.1</ele><name>TP08065</name><time>2020-01-27T14:05:54Z</time></trkpt>
   <trkpt lat="31.183748" lon="35.321434"><ele>100.2</ele><name>TP08066</name><time>2020-01-27T14:05:55Z</time></trkpt>
   <trkpt lat="31.183705" lon="35.321469"><ele>100.3</ele><name>TP08067</name><time>2020-01-27T14:05:57Z</time></trkpt>
   <trkpt lat="31.183665" lon="35.321498"><ele>100.5</ele><name>TP08068</name><time>2020-01-27T14:05:58Z</time></trkpt>
   <trkpt lat="31.183632" lon="35.321521"><ele>100.6</ele><name>TP08069</name><time>2020-01-27T14:05:59Z</time></trkpt>
   <trkpt lat="31.183614" lon="35.321538"><ele>100.7</ele><name>TP08070</name><time>2020-01-27T14:06:00Z</time></trkpt>
   <trkpt lat="31.18359" lon="35.32156"><ele>100.7</ele><name>TP08071</name><time>2020-01-27T14:06:02Z</time></trkpt>
   <trkpt lat="31.183563" lon="35.321581"><ele>100.8</ele><name>TP08072</name><time>2020-01-27T14:06:03Z</time></trkpt>
   <trkpt lat="31.183553" lon="35.32159"><ele>100.9</ele><name>TP08073</name><time>2020-01-27T14:06:04Z</time></trkpt>
   <trkpt lat="31.183538" lon="35.321599"><ele>101</ele><name>TP08074</name><time>2020-01-27T14:06:05Z</time></trkpt>
   <trkpt lat="31.183503" lon="35.321621"><ele>101.2</ele><name>TP08075</name><time>2020-01-27T14:06:07Z</time></trkpt>
   <trkpt lat="31.183469" lon="35.321644"><ele>101.4</ele><name>TP08076</name><time>2020-01-27T14:06:08Z</time></trkpt>
   <trkpt lat="31.183396" lon="35.321694"><ele>101.7</ele><name>TP08077</name><time>2020-01-27T14:06:10Z</time></trkpt>
   <trkpt lat="31.183344" lon="35.321718"><ele>102</ele><name>TP08078</name><time>2020-01-27T14:06:11Z</time></trkpt>
   <trkpt lat="31.183304" lon="35.321742"><ele>102.4</ele><name>TP08079</name><time>2020-01-27T14:06:13Z</time></trkpt>
   <trkpt lat="31.183258" lon="35.321777"><ele>102.8</ele><name>TP08080</name><time>2020-01-27T14:06:14Z</time></trkpt>
   <trkpt lat="31.183222" lon="35.321784"><ele>103</ele><name>TP08081</name><time>2020-01-27T14:06:15Z</time></trkpt>
   <trkpt lat="31.183197" lon="35.3218"><ele>103.2</ele><name>TP08082</name><time>2020-01-27T14:06:16Z</time></trkpt>
   <trkpt lat="31.183131" lon="35.32184"><ele>103.4</ele><name>TP08083</name><time>2020-01-27T14:06:18Z</time></trkpt>
   <trkpt lat="31.183102" lon="35.321855"><ele>103.4</ele><name>TP08084</name><time>2020-01-27T14:06:19Z</time></trkpt>
   <trkpt lat="31.183078" lon="35.321873"><ele>103.3</ele><name>TP08085</name><time>2020-01-27T14:06:20Z</time></trkpt>
   <trkpt lat="31.183046" lon="35.321895"><ele>103.3</ele><name>TP08086</name><time>2020-01-27T14:06:22Z</time></trkpt>
   <trkpt lat="31.183035" lon="35.321901"><ele>103.2</ele><name>TP08087</name><time>2020-01-27T14:06:23Z</time></trkpt>
   <trkpt lat="31.182997" lon="35.321923"><ele>103.2</ele><name>TP08088</name><time>2020-01-27T14:06:24Z</time></trkpt>
   <trkpt lat="31.18296" lon="35.321944"><ele>103.2</ele><name>TP08089</name><time>2020-01-27T14:06:25Z</time></trkpt>
   <trkpt lat="31.182903" lon="35.321977"><ele>103.2</ele><name>TP08090</name><time>2020-01-27T14:06:27Z</time></trkpt>
   <trkpt lat="31.182881" lon="35.321995"><ele>103.2</ele><name>TP08091</name><time>2020-01-27T14:06:28Z</time></trkpt>
   <trkpt lat="31.182819" lon="35.32201"><ele>103.1</ele><name>TP08092</name><time>2020-01-27T14:06:30Z</time></trkpt>
   <trkpt lat="31.182781" lon="35.322021"><ele>103.1</ele><name>TP08093</name><time>2020-01-27T14:06:31Z</time></trkpt>
   <trkpt lat="31.182747" lon="35.322031"><ele>103.1</ele><name>TP08094</name><time>2020-01-27T14:06:32Z</time></trkpt>
   <trkpt lat="31.182715" lon="35.322041"><ele>103</ele><name>TP08095</name><time>2020-01-27T14:06:34Z</time></trkpt>
   <trkpt lat="31.182681" lon="35.322047"><ele>103</ele><name>TP08096</name><time>2020-01-27T14:06:35Z</time></trkpt>
   <trkpt lat="31.182646" lon="35.322057"><ele>102.9</ele><name>TP08097</name><time>2020-01-27T14:06:36Z</time></trkpt>
   <trkpt lat="31.182589" lon="35.322075"><ele>102.8</ele><name>TP08098</name><time>2020-01-27T14:06:37Z</time></trkpt>
   <trkpt lat="31.182526" lon="35.322097"><ele>102.6</ele><name>TP08099</name><time>2020-01-27T14:06:39Z</time></trkpt>
   <trkpt lat="31.182468" lon="35.32212"><ele>102.4</ele><name>TP08100</name><time>2020-01-27T14:06:40Z</time></trkpt>
   <trkpt lat="31.18244" lon="35.322131"><ele>102.4</ele><name>TP08101</name><time>2020-01-27T14:06:42Z</time></trkpt>
   <trkpt lat="31.182412" lon="35.322142"><ele>102.3</ele><name>TP08102</name><time>2020-01-27T14:06:43Z</time></trkpt>
   <trkpt lat="31.18231" lon="35.32218"><ele>101.9</ele><name>TP08103</name><time>2020-01-27T14:06:45Z</time></trkpt>
   <trkpt lat="31.182222" lon="35.322211"><ele>101.6</ele><name>TP08104</name><time>2020-01-27T14:06:46Z</time></trkpt>
   <trkpt lat="31.182084" lon="35.322258"><ele>100.6</ele><name>TP08105</name><time>2020-01-27T14:06:48Z</time></trkpt>
   <trkpt lat="31.182025" lon="35.32228"><ele>100.6</ele><name>TP08106</name><time>2020-01-27T14:06:49Z</time></trkpt>
   <trkpt lat="31.181991" lon="35.322301"><ele>100.6</ele><name>TP08107</name><time>2020-01-27T14:06:51Z</time></trkpt>
   <trkpt lat="31.181876" lon="35.322345"><ele>100.6</ele><name>TP08108</name><time>2020-01-27T14:06:52Z</time></trkpt>
   <trkpt lat="31.181838" lon="35.32236"><ele>100.7</ele><name>TP08109</name><time>2020-01-27T14:06:54Z</time></trkpt>
   <trkpt lat="31.181797" lon="35.32237"><ele>100.7</ele><name>TP08110</name><time>2020-01-27T14:06:55Z</time></trkpt>
   <trkpt lat="31.181775" lon="35.322368"><ele>100.7</ele><name>TP08111</name><time>2020-01-27T14:06:56Z</time></trkpt>
   <trkpt lat="31.18173" lon="35.322381"><ele>100.7</ele><name>TP08112</name><time>2020-01-27T14:06:58Z</time></trkpt>
   <trkpt lat="31.181673" lon="35.3224"><ele>100.7</ele><name>TP08113</name><time>2020-01-27T14:06:59Z</time></trkpt>
   <trkpt lat="31.181641" lon="35.32241"><ele>100.7</ele><name>TP08114</name><time>2020-01-27T14:07:00Z</time></trkpt>
   <trkpt lat="31.181612" lon="35.322414"><ele>100.7</ele><name>TP08115</name><time>2020-01-27T14:07:01Z</time></trkpt>
   <trkpt lat="31.181536" lon="35.322426"><ele>100.7</ele><name>TP08116</name><time>2020-01-27T14:07:02Z</time></trkpt>
   <trkpt lat="31.181429" lon="35.322437"><ele>100.5</ele><name>TP08117</name><time>2020-01-27T14:07:04Z</time></trkpt>
   <trkpt lat="31.181374" lon="35.32244"><ele>100.4</ele><name>TP08118</name><time>2020-01-27T14:07:05Z</time></trkpt>
   <trkpt lat="31.181271" lon="35.322443"><ele>100.3</ele><name>TP08119</name><time>2020-01-27T14:07:07Z</time></trkpt>
   <trkpt lat="31.181221" lon="35.322438"><ele>100.2</ele><name>TP08120</name><time>2020-01-27T14:07:08Z</time></trkpt>
   <trkpt lat="31.181123" lon="35.322438"><ele>100</ele><name>TP08121</name><time>2020-01-27T14:07:10Z</time></trkpt>
   <trkpt lat="31.181034" lon="35.322436"><ele>99.7</ele><name>TP08122</name><time>2020-01-27T14:07:12Z</time></trkpt>
   <trkpt lat="31.180989" lon="35.322449"><ele>99.5</ele><name>TP08123</name><time>2020-01-27T14:07:13Z</time></trkpt>
   <trkpt lat="31.18097" lon="35.322455"><ele>99.5</ele><name>TP08124</name><time>2020-01-27T14:07:14Z</time></trkpt>
   <trkpt lat="31.180911" lon="35.322458"><ele>99.3</ele><name>TP08125</name><time>2020-01-27T14:07:16Z</time></trkpt>
   <trkpt lat="31.180863" lon="35.322475"><ele>99.1</ele><name>TP08126</name><time>2020-01-27T14:07:17Z</time></trkpt>
   <trkpt lat="31.18078" lon="35.322489"><ele>98.9</ele><name>TP08127</name><time>2020-01-27T14:07:18Z</time></trkpt>
   <trkpt lat="31.18073" lon="35.32249"><ele>98.7</ele><name>TP08128</name><time>2020-01-27T14:07:19Z</time></trkpt>
   <trkpt lat="31.180634" lon="35.322494"><ele>98.5</ele><name>TP08129</name><time>2020-01-27T14:07:21Z</time></trkpt>
   <trkpt lat="31.180529" lon="35.322488"><ele>98.2</ele><name>TP08130</name><time>2020-01-27T14:07:23Z</time></trkpt>
   <trkpt lat="31.180421" lon="35.322465"><ele>97.7</ele><name>TP08131</name><time>2020-01-27T14:07:25Z</time></trkpt>
   <trkpt lat="31.180371" lon="35.322455"><ele>97.5</ele><name>TP08132</name><time>2020-01-27T14:07:26Z</time></trkpt>
   <trkpt lat="31.180323" lon="35.322446"><ele>97.3</ele><name>TP08133</name><time>2020-01-27T14:07:27Z</time></trkpt>
   <trkpt lat="31.180234" lon="35.322439"><ele>97</ele><name>TP08134</name><time>2020-01-27T14:07:29Z</time></trkpt>
   <trkpt lat="31.180141" lon="35.322421"><ele>96.6</ele><name>TP08135</name><time>2020-01-27T14:07:31Z</time></trkpt>
   <trkpt lat="31.180093" lon="35.322403"><ele>96.4</ele><name>TP08136</name><time>2020-01-27T14:07:32Z</time></trkpt>
   <trkpt lat="31.180049" lon="35.322373"><ele>96.2</ele><name>TP08137</name><time>2020-01-27T14:07:33Z</time></trkpt>
   <trkpt lat="31.179973" lon="35.322291"><ele>95.9</ele><name>TP08138</name><time>2020-01-27T14:07:35Z</time></trkpt>
   <trkpt lat="31.17994" lon="35.322242"><ele>95.8</ele><name>TP08139</name><time>2020-01-27T14:07:36Z</time></trkpt>
   <trkpt lat="31.179907" lon="35.322194"><ele>95.7</ele><name>TP08140</name><time>2020-01-27T14:07:37Z</time></trkpt>
   <trkpt lat="31.179828" lon="35.322131"><ele>95.5</ele><name>TP08141</name><time>2020-01-27T14:07:39Z</time></trkpt>
   <trkpt lat="31.179781" lon="35.322109"><ele>95.4</ele><name>TP08142</name><time>2020-01-27T14:07:40Z</time></trkpt>
   <trkpt lat="31.179729" lon="35.3221"><ele>95.2</ele><name>TP08143</name><time>2020-01-27T14:07:41Z</time></trkpt>
   <trkpt lat="31.179624" lon="35.322095"><ele>94.9</ele><name>TP08144</name><time>2020-01-27T14:07:43Z</time></trkpt>
   <trkpt lat="31.17957" lon="35.322094"><ele>94.7</ele><name>TP08145</name><time>2020-01-27T14:07:44Z</time></trkpt>
   <trkpt lat="31.179458" lon="35.322095"><ele>94.5</ele><name>TP08146</name><time>2020-01-27T14:07:46Z</time></trkpt>
   <trkpt lat="31.179347" lon="35.322075"><ele>94.2</ele><name>TP08147</name><time>2020-01-27T14:07:48Z</time></trkpt>
   <trkpt lat="31.179294" lon="35.322063"><ele>94</ele><name>TP08148</name><time>2020-01-27T14:07:49Z</time></trkpt>
   <trkpt lat="31.179244" lon="35.322043"><ele>93.9</ele><name>TP08149</name><time>2020-01-27T14:07:50Z</time></trkpt>
   <trkpt lat="31.179142" lon="35.321994"><ele>93.7</ele><name>TP08150</name><time>2020-01-27T14:07:52Z</time></trkpt>
   <trkpt lat="31.179043" lon="35.321939"><ele>93.4</ele><name>TP08151</name><time>2020-01-27T14:07:54Z</time></trkpt>
   <trkpt lat="31.178994" lon="35.321908"><ele>93.3</ele><name>TP08152</name><time>2020-01-27T14:07:55Z</time></trkpt>
   <trkpt lat="31.178945" lon="35.321879"><ele>93.2</ele><name>TP08153</name><time>2020-01-27T14:07:56Z</time></trkpt>
   <trkpt lat="31.178858" lon="35.32183"><ele>93.1</ele><name>TP08154</name><time>2020-01-27T14:07:58Z</time></trkpt>
   <trkpt lat="31.178779" lon="35.321783"><ele>93.1</ele><name>TP08155</name><time>2020-01-27T14:08:00Z</time></trkpt>
   <trkpt lat="31.178738" lon="35.321759"><ele>93.1</ele><name>TP08156</name><time>2020-01-27T14:08:01Z</time></trkpt>
   <trkpt lat="31.178667" lon="35.321719"><ele>93.2</ele><name>TP08157</name><time>2020-01-27T14:08:03Z</time></trkpt>
   <trkpt lat="31.1786" lon="35.321683"><ele>93.3</ele><name>TP08158</name><time>2020-01-27T14:08:05Z</time></trkpt>
   <trkpt lat="31.178568" lon="35.321661"><ele>93.4</ele><name>TP08159</name><time>2020-01-27T14:08:06Z</time></trkpt>
   <trkpt lat="31.178538" lon="35.32164"><ele>93.5</ele><name>TP08160</name><time>2020-01-27T14:08:07Z</time></trkpt>
   <trkpt lat="31.178499" lon="35.321615"><ele>93.6</ele><name>TP08161</name><time>2020-01-27T14:08:09Z</time></trkpt>
   <trkpt lat="31.178501" lon="35.321655"><ele>93.7</ele><name>TP08162</name><time>2020-01-27T14:08:10Z</time></trkpt>
   <trkpt lat="31.178501" lon="35.321671"><ele>93.8</ele><name>TP08163</name><time>2020-01-27T14:08:11Z</time></trkpt>
   <trkpt lat="31.178492" lon="35.321673"><ele>93.8</ele><name>TP08164</name><time>2020-01-27T14:08:12Z</time></trkpt>
   <trkpt lat="31.178468" lon="35.321645"><ele>93.9</ele><name>TP08165</name><time>2020-01-27T14:08:13Z</time></trkpt>
   <trkpt lat="31.178451" lon="35.321615"><ele>93.9</ele><name>TP08166</name><time>2020-01-27T14:08:14Z</time></trkpt>
   <trkpt lat="31.178427" lon="35.321577"><ele>94.1</ele><name>TP08167</name><time>2020-01-27T14:08:16Z</time></trkpt>
   <trkpt lat="31.178391" lon="35.321534"><ele>94.2</ele><name>TP08168</name><time>2020-01-27T14:08:17Z</time></trkpt>
   <trkpt lat="31.178314" lon="35.321458"><ele>94.5</ele><name>TP08169</name><time>2020-01-27T14:08:19Z</time></trkpt>
   <trkpt lat="31.178255" lon="35.321398"><ele>94.8</ele><name>TP08170</name><time>2020-01-27T14:08:20Z</time></trkpt>
   <trkpt lat="31.178214" lon="35.321359"><ele>94.9</ele><name>TP08171</name><time>2020-01-27T14:08:21Z</time></trkpt>
   <trkpt lat="31.178189" lon="35.321331"><ele>95</ele><name>TP08172</name><time>2020-01-27T14:08:22Z</time></trkpt>
   <trkpt lat="31.178156" lon="35.321292"><ele>95.1</ele><name>TP08173</name><time>2020-01-27T14:08:24Z</time></trkpt>
   <trkpt lat="31.178126" lon="35.321257"><ele>95.2</ele><name>TP08174</name><time>2020-01-27T14:08:25Z</time></trkpt>
   <trkpt lat="31.178072" lon="35.321197"><ele>95.4</ele><name>TP08175</name><time>2020-01-27T14:08:27Z</time></trkpt>
   <trkpt lat="31.178052" lon="35.321173"><ele>95.4</ele><name>TP08176</name><time>2020-01-27T14:08:28Z</time></trkpt>
   <trkpt lat="31.178019" lon="35.32114"><ele>95.5</ele><name>TP08177</name><time>2020-01-27T14:08:30Z</time></trkpt>
   <trkpt lat="31.17801" lon="35.321125"><ele>95.6</ele><name>TP08178</name><time>2020-01-27T14:08:32Z</time></trkpt>
   <trkpt lat="31.177996" lon="35.321113"><ele>95.6</ele><name>TP08179</name><time>2020-01-27T14:08:33Z</time></trkpt>
   <trkpt lat="31.177973" lon="35.321092"><ele>95.7</ele><name>TP08180</name><time>2020-01-27T14:08:34Z</time></trkpt>
   <trkpt lat="31.177966" lon="35.321088"><ele>95.7</ele><name>TP08181</name><time>2020-01-27T14:08:35Z</time></trkpt>
   <trkpt lat="31.177937" lon="35.321068"><ele>95.7</ele><name>TP08182</name><time>2020-01-27T14:08:37Z</time></trkpt>
   <trkpt lat="31.177923" lon="35.321058"><ele>95.8</ele><name>TP08183</name><time>2020-01-27T14:08:38Z</time></trkpt>
   <trkpt lat="31.177875" lon="35.321026"><ele>95.9</ele><name>TP08184</name><time>2020-01-27T14:08:39Z</time></trkpt>
   <trkpt lat="31.177844" lon="35.321001"><ele>96</ele><name>TP08185</name><time>2020-01-27T14:08:40Z</time></trkpt>
   <trkpt lat="31.17777" lon="35.320941"><ele>96.4</ele><name>TP08186</name><time>2020-01-27T14:08:42Z</time></trkpt>
   <trkpt lat="31.177713" lon="35.320903"><ele>96.7</ele><name>TP08187</name><time>2020-01-27T14:08:43Z</time></trkpt>
   <trkpt lat="31.177668" lon="35.320871"><ele>96.9</ele><name>TP08188</name><time>2020-01-27T14:08:44Z</time></trkpt>
   <trkpt lat="31.177618" lon="35.320838"><ele>97.2</ele><name>TP08189</name><time>2020-01-27T14:08:46Z</time></trkpt>
   <trkpt lat="31.1776" lon="35.320825"><ele>97.3</ele><name>TP08190</name><time>2020-01-27T14:08:47Z</time></trkpt>
   <trkpt lat="31.17757" lon="35.3208"><ele>97.5</ele><name>TP08191</name><time>2020-01-27T14:08:49Z</time></trkpt>
   <trkpt lat="31.177547" lon="35.320782"><ele>97.6</ele><name>TP08192</name><time>2020-01-27T14:08:50Z</time></trkpt>
   <trkpt lat="31.177517" lon="35.320733"><ele>97.9</ele><name>TP08193</name><time>2020-01-27T14:08:52Z</time></trkpt>
   <trkpt lat="31.177507" lon="35.320718"><ele>97.9</ele><name>TP08194</name><time>2020-01-27T14:08:53Z</time></trkpt>
   <trkpt lat="31.177497" lon="35.320702"><ele>98</ele><name>TP08195</name><time>2020-01-27T14:08:55Z</time></trkpt>
   <trkpt lat="31.177487" lon="35.320687"><ele>98.1</ele><name>TP08196</name><time>2020-01-27T14:08:56Z</time></trkpt>
   <trkpt lat="31.177477" lon="35.320672"><ele>98.1</ele><name>TP08197</name><time>2020-01-27T14:08:57Z</time></trkpt>
   <trkpt lat="31.177464" lon="35.32064"><ele>98.3</ele><name>TP08198</name><time>2020-01-27T14:08:59Z</time></trkpt>
   <trkpt lat="31.177445" lon="35.320594"><ele>98.4</ele><name>TP08199</name><time>2020-01-27T14:09:00Z</time></trkpt>
   <trkpt lat="31.177323" lon="35.320401"><ele>99</ele><name>TP08200</name><time>2020-01-27T14:09:02Z</time></trkpt>
   <trkpt lat="31.177272" lon="35.320331"><ele>99.1</ele><name>TP08201</name><time>2020-01-27T14:09:04Z</time></trkpt>
   <trkpt lat="31.177435" lon="35.320569"><ele>99</ele><name>TP08202</name><time>2020-01-27T14:09:06Z</time></trkpt>
   <trkpt lat="31.177431" lon="35.320549"><ele>99</ele><name>TP08203</name><time>2020-01-27T14:09:07Z</time></trkpt>
   <trkpt lat="31.177416" lon="35.320522"><ele>99</ele><name>TP08204</name><time>2020-01-27T14:09:08Z</time></trkpt>
   <trkpt lat="31.177386" lon="35.320483"><ele>99</ele><name>TP08205</name><time>2020-01-27T14:09:10Z</time></trkpt>
   <trkpt lat="31.177343" lon="35.320412"><ele>99.2</ele><name>TP08206</name><time>2020-01-27T14:09:11Z</time></trkpt>
   <trkpt lat="31.177231" lon="35.320275"><ele>100</ele><name>TP08207</name><time>2020-01-27T14:09:13Z</time></trkpt>
   <trkpt lat="31.177175" lon="35.320199"><ele>100.4</ele><name>TP08208</name><time>2020-01-27T14:09:15Z</time></trkpt>
   <trkpt lat="31.177125" lon="35.320139"><ele>100.8</ele><name>TP08209</name><time>2020-01-27T14:09:16Z</time></trkpt>
   <trkpt lat="31.177076" lon="35.320082"><ele>101.2</ele><name>TP08210</name><time>2020-01-27T14:09:17Z</time></trkpt>
   <trkpt lat="31.177066" lon="35.320063"><ele>101.3</ele><name>TP08211</name><time>2020-01-27T14:09:18Z</time></trkpt>
   <trkpt lat="31.177052" lon="35.320047"><ele>101.3</ele><name>TP08212</name><time>2020-01-27T14:09:20Z</time></trkpt>
   <trkpt lat="31.177032" lon="35.320015"><ele>101.4</ele><name>TP08213</name><time>2020-01-27T14:09:21Z</time></trkpt>
   <trkpt lat="31.177005" lon="35.31998"><ele>101.5</ele><name>TP08214</name><time>2020-01-27T14:09:22Z</time></trkpt>
   <trkpt lat="31.176995" lon="35.31997"><ele>101.6</ele><name>TP08215</name><time>2020-01-27T14:09:23Z</time></trkpt>
   <trkpt lat="31.176984" lon="35.319957"><ele>101.6</ele><name>TP08216</name><time>2020-01-27T14:09:24Z</time></trkpt>
   <trkpt lat="31.176974" lon="35.319943"><ele>101.6</ele><name>TP08217</name><time>2020-01-27T14:09:25Z</time></trkpt>
   <trkpt lat="31.17694" lon="35.319919"><ele>101.7</ele><name>TP08218</name><time>2020-01-27T14:09:27Z</time></trkpt>
   <trkpt lat="31.176928" lon="35.319913"><ele>101.8</ele><name>TP08219</name><time>2020-01-27T14:09:28Z</time></trkpt>
   <trkpt lat="31.176912" lon="35.319905"><ele>101.8</ele><name>TP08220</name><time>2020-01-27T14:09:29Z</time></trkpt>
   <trkpt lat="31.176894" lon="35.319892"><ele>101.9</ele><name>TP08221</name><time>2020-01-27T14:09:31Z</time></trkpt>
   <trkpt lat="31.176876" lon="35.319882"><ele>101.9</ele><name>TP08222</name><time>2020-01-27T14:09:32Z</time></trkpt>
   <trkpt lat="31.176866" lon="35.319869"><ele>102</ele><name>TP08223</name><time>2020-01-27T14:09:33Z</time></trkpt>
   <trkpt lat="31.176768" lon="35.319836"><ele>102.3</ele><name>TP08224</name><time>2020-01-27T14:09:35Z</time></trkpt>
   <trkpt lat="31.176665" lon="35.319809"><ele>102.6</ele><name>TP08225</name><time>2020-01-27T14:09:37Z</time></trkpt>
   <trkpt lat="31.176627" lon="35.319802"><ele>102.7</ele><name>TP08226</name><time>2020-01-27T14:09:38Z</time></trkpt>
   <trkpt lat="31.176601" lon="35.319793"><ele>102.8</ele><name>TP08227</name><time>2020-01-27T14:09:40Z</time></trkpt>
   <trkpt lat="31.176571" lon="35.319781"><ele>102.9</ele><name>TP08228</name><time>2020-01-27T14:09:41Z</time></trkpt>
   <trkpt lat="31.17652" lon="35.319755"><ele>103.1</ele><name>TP08229</name><time>2020-01-27T14:09:42Z</time></trkpt>
   <trkpt lat="31.17647" lon="35.31973"><ele>103.4</ele><name>TP08230</name><time>2020-01-27T14:09:44Z</time></trkpt>
   <trkpt lat="31.176446" lon="35.319721"><ele>103.4</ele><name>TP08231</name><time>2020-01-27T14:09:45Z</time></trkpt>
   <trkpt lat="31.176413" lon="35.319699"><ele>103.5</ele><name>TP08232</name><time>2020-01-27T14:09:47Z</time></trkpt>
   <trkpt lat="31.176385" lon="35.319685"><ele>103.6</ele><name>TP08233</name><time>2020-01-27T14:09:48Z</time></trkpt>
   <trkpt lat="31.176346" lon="35.319655"><ele>103.7</ele><name>TP08234</name><time>2020-01-27T14:09:50Z</time></trkpt>
   <trkpt lat="31.17633" lon="35.319642"><ele>103.8</ele><name>TP08235</name><time>2020-01-27T14:09:51Z</time></trkpt>
   <trkpt lat="31.1763" lon="35.319617"><ele>103.9</ele><name>TP08236</name><time>2020-01-27T14:09:53Z</time></trkpt>
   <trkpt lat="31.176275" lon="35.319592"><ele>103.9</ele><name>TP08237</name><time>2020-01-27T14:09:54Z</time></trkpt>
   <trkpt lat="31.176247" lon="35.319571"><ele>104</ele><name>TP08238</name><time>2020-01-27T14:09:55Z</time></trkpt>
   <trkpt lat="31.176229" lon="35.319554"><ele>104.1</ele><name>TP08239</name><time>2020-01-27T14:09:56Z</time></trkpt>
   <trkpt lat="31.176195" lon="35.31952"><ele>104.2</ele><name>TP08240</name><time>2020-01-27T14:09:58Z</time></trkpt>
   <trkpt lat="31.176174" lon="35.319498"><ele>104.3</ele><name>TP08241</name><time>2020-01-27T14:09:59Z</time></trkpt>
   <trkpt lat="31.176146" lon="35.319467"><ele>104.5</ele><name>TP08242</name><time>2020-01-27T14:10:01Z</time></trkpt>
   <trkpt lat="31.176124" lon="35.319441"><ele>104.6</ele><name>TP08243</name><time>2020-01-27T14:10:02Z</time></trkpt>
   <trkpt lat="31.176088" lon="35.319408"><ele>104.8</ele><name>TP08244</name><time>2020-01-27T14:10:04Z</time></trkpt>
   <trkpt lat="31.176066" lon="35.319392"><ele>104.9</ele><name>TP08245</name><time>2020-01-27T14:10:05Z</time></trkpt>
   <trkpt lat="31.17604" lon="35.319367"><ele>105</ele><name>TP08246</name><time>2020-01-27T14:10:07Z</time></trkpt>
   <trkpt lat="31.176012" lon="35.319339"><ele>105.2</ele><name>TP08247</name><time>2020-01-27T14:10:08Z</time></trkpt>
   <trkpt lat="31.175983" lon="35.31931"><ele>105.3</ele><name>TP08248</name><time>2020-01-27T14:10:09Z</time></trkpt>
   <trkpt lat="31.175974" lon="35.3193"><ele>105.3</ele><name>TP08249</name><time>2020-01-27T14:10:10Z</time></trkpt>
   <trkpt lat="31.175948" lon="35.319283"><ele>105.4</ele><name>TP08250</name><time>2020-01-27T14:10:12Z</time></trkpt>
   <trkpt lat="31.17592" lon="35.319258"><ele>105.5</ele><name>TP08251</name><time>2020-01-27T14:10:13Z</time></trkpt>
   <trkpt lat="31.175893" lon="35.319237"><ele>105.5</ele><name>TP08252</name><time>2020-01-27T14:10:14Z</time></trkpt>
   <trkpt lat="31.175884" lon="35.31923"><ele>105.6</ele><name>TP08253</name><time>2020-01-27T14:10:15Z</time></trkpt>
   <trkpt lat="31.175857" lon="35.3192"><ele>105.6</ele><name>TP08254</name><time>2020-01-27T14:10:17Z</time></trkpt>
   <trkpt lat="31.175825" lon="35.319173"><ele>105.7</ele><name>TP08255</name><time>2020-01-27T14:10:18Z</time></trkpt>
   <trkpt lat="31.17578" lon="35.319136"><ele>105.7</ele><name>TP08256</name><time>2020-01-27T14:10:20Z</time></trkpt>
   <trkpt lat="31.175755" lon="35.319109"><ele>105.8</ele><name>TP08257</name><time>2020-01-27T14:10:21Z</time></trkpt>
   <trkpt lat="31.175722" lon="35.319079"><ele>105.8</ele><name>TP08258</name><time>2020-01-27T14:10:23Z</time></trkpt>
   <trkpt lat="31.175694" lon="35.319057"><ele>105.9</ele><name>TP08259</name><time>2020-01-27T14:10:24Z</time></trkpt>
   <trkpt lat="31.175667" lon="35.319027"><ele>105.9</ele><name>TP08260</name><time>2020-01-27T14:10:25Z</time></trkpt>
   <trkpt lat="31.175657" lon="35.319017"><ele>105.9</ele><name>TP08261</name><time>2020-01-27T14:10:26Z</time></trkpt>
   <trkpt lat="31.175613" lon="35.318984"><ele>105.9</ele><name>TP08262</name><time>2020-01-27T14:10:28Z</time></trkpt>
   <trkpt lat="31.175582" lon="35.318956"><ele>106</ele><name>TP08263</name><time>2020-01-27T14:10:29Z</time></trkpt>
   <trkpt lat="31.17555" lon="35.31893"><ele>106</ele><name>TP08264</name><time>2020-01-27T14:10:30Z</time></trkpt>
   <trkpt lat="31.175505" lon="35.318894"><ele>106.3</ele><name>TP08265</name><time>2020-01-27T14:10:32Z</time></trkpt>
   <trkpt lat="31.175468" lon="35.318859"><ele>106.5</ele><name>TP08266</name><time>2020-01-27T14:10:33Z</time></trkpt>
   <trkpt lat="31.175442" lon="35.318842"><ele>106.6</ele><name>TP08267</name><time>2020-01-27T14:10:34Z</time></trkpt>
   <trkpt lat="31.175409" lon="35.318819"><ele>106.9</ele><name>TP08268</name><time>2020-01-27T14:10:35Z</time></trkpt>
   <trkpt lat="31.175398" lon="35.318811"><ele>106.9</ele><name>TP08269</name><time>2020-01-27T14:10:36Z</time></trkpt>
   <trkpt lat="31.175357" lon="35.31879"><ele>107.1</ele><name>TP08270</name><time>2020-01-27T14:10:38Z</time></trkpt>
   <trkpt lat="31.175323" lon="35.31877"><ele>107.2</ele><name>TP08271</name><time>2020-01-27T14:10:39Z</time></trkpt>
   <trkpt lat="31.175291" lon="35.318758"><ele>107.3</ele><name>TP08272</name><time>2020-01-27T14:10:40Z</time></trkpt>
   <trkpt lat="31.17525" lon="35.318751"><ele>107.5</ele><name>TP08273</name><time>2020-01-27T14:10:42Z</time></trkpt>
   <trkpt lat="31.175215" lon="35.318751"><ele>107.6</ele><name>TP08274</name><time>2020-01-27T14:10:43Z</time></trkpt>
   <trkpt lat="31.175173" lon="35.318749"><ele>107.7</ele><name>TP08275</name><time>2020-01-27T14:10:45Z</time></trkpt>
   <trkpt lat="31.175133" lon="35.318761"><ele>107.8</ele><name>TP08276</name><time>2020-01-27T14:10:46Z</time></trkpt>
   <trkpt lat="31.175099" lon="35.318768"><ele>107.9</ele><name>TP08277</name><time>2020-01-27T14:10:47Z</time></trkpt>
   <trkpt lat="31.175056" lon="35.318786"><ele>108.1</ele><name>TP08278</name><time>2020-01-27T14:10:48Z</time></trkpt>
   <trkpt lat="31.175025" lon="35.318811"><ele>108.2</ele><name>TP08279</name><time>2020-01-27T14:10:49Z</time></trkpt>
   <trkpt lat="31.174985" lon="35.318847"><ele>108.3</ele><name>TP08280</name><time>2020-01-27T14:10:51Z</time></trkpt>
   <trkpt lat="31.174954" lon="35.318875"><ele>108.4</ele><name>TP08281</name><time>2020-01-27T14:10:52Z</time></trkpt>
   <trkpt lat="31.174929" lon="35.318894"><ele>108.5</ele><name>TP08282</name><time>2020-01-27T14:10:53Z</time></trkpt>
   <trkpt lat="31.174881" lon="35.318941"><ele>108.7</ele><name>TP08283</name><time>2020-01-27T14:10:55Z</time></trkpt>
   <trkpt lat="31.174838" lon="35.318971"><ele>108.9</ele><name>TP08284</name><time>2020-01-27T14:10:57Z</time></trkpt>
   <trkpt lat="31.174803" lon="35.318992"><ele>109</ele><name>TP08285</name><time>2020-01-27T14:10:58Z</time></trkpt>
   <trkpt lat="31.174754" lon="35.319014"><ele>109.2</ele><name>TP08286</name><time>2020-01-27T14:11:00Z</time></trkpt>
   <trkpt lat="31.17471" lon="35.319032"><ele>109.3</ele><name>TP08287</name><time>2020-01-27T14:11:01Z</time></trkpt>
   <trkpt lat="31.174648" lon="35.319056"><ele>109.5</ele><name>TP08288</name><time>2020-01-27T14:11:03Z</time></trkpt>
   <trkpt lat="31.174605" lon="35.319062"><ele>109.5</ele><name>TP08289</name><time>2020-01-27T14:11:05Z</time></trkpt>
   <trkpt lat="31.174571" lon="35.319068"><ele>109.6</ele><name>TP08290</name><time>2020-01-27T14:11:06Z</time></trkpt>
   <trkpt lat="31.174521" lon="35.319082"><ele>109.7</ele><name>TP08291</name><time>2020-01-27T14:11:07Z</time></trkpt>
   <trkpt lat="31.174489" lon="35.319102"><ele>109.8</ele><name>TP08292</name><time>2020-01-27T14:11:08Z</time></trkpt>
   <trkpt lat="31.174448" lon="35.319129"><ele>109.8</ele><name>TP08293</name><time>2020-01-27T14:11:10Z</time></trkpt>
   <trkpt lat="31.174413" lon="35.319153"><ele>109.9</ele><name>TP08294</name><time>2020-01-27T14:11:11Z</time></trkpt>
   <trkpt lat="31.174378" lon="35.319179"><ele>110.2</ele><name>TP08295</name><time>2020-01-27T14:11:12Z</time></trkpt>
   <trkpt lat="31.174348" lon="35.319213"><ele>110.4</ele><name>TP08296</name><time>2020-01-27T14:11:13Z</time></trkpt>
   <trkpt lat="31.174314" lon="35.319255"><ele>110.6</ele><name>TP08297</name><time>2020-01-27T14:11:14Z</time></trkpt>
   <trkpt lat="31.174286" lon="35.319284"><ele>110.9</ele><name>TP08298</name><time>2020-01-27T14:11:15Z</time></trkpt>
   <trkpt lat="31.174239" lon="35.319315"><ele>110.8</ele><name>TP08299</name><time>2020-01-27T14:11:17Z</time></trkpt>
   <trkpt lat="31.174191" lon="35.319352"><ele>110.5</ele><name>TP08300</name><time>2020-01-27T14:11:18Z</time></trkpt>
   <trkpt lat="31.174151" lon="35.319386"><ele>110.2</ele><name>TP08301</name><time>2020-01-27T14:11:19Z</time></trkpt>
   <trkpt lat="31.174108" lon="35.319421"><ele>110</ele><name>TP08302</name><time>2020-01-27T14:11:20Z</time></trkpt>
   <trkpt lat="31.174053" lon="35.31946"><ele>109.8</ele><name>TP08303</name><time>2020-01-27T14:11:22Z</time></trkpt>
   <trkpt lat="31.174004" lon="35.319506"><ele>109.8</ele><name>TP08304</name><time>2020-01-27T14:11:23Z</time></trkpt>
   <trkpt lat="31.173968" lon="35.319545"><ele>110</ele><name>TP08305</name><time>2020-01-27T14:11:25Z</time></trkpt>
   <trkpt lat="31.173924" lon="35.319593"><ele>109.9</ele><name>TP08306</name><time>2020-01-27T14:11:26Z</time></trkpt>
   <trkpt lat="31.173891" lon="35.31963"><ele>109.9</ele><name>TP08307</name><time>2020-01-27T14:11:27Z</time></trkpt>
   <trkpt lat="31.173869" lon="35.319669"><ele>109.8</ele><name>TP08308</name><time>2020-01-27T14:11:28Z</time></trkpt>
   <trkpt lat="31.173833" lon="35.319746"><ele>109.7</ele><name>TP08309</name><time>2020-01-27T14:11:30Z</time></trkpt>
   <trkpt lat="31.173791" lon="35.319814"><ele>109.5</ele><name>TP08310</name><time>2020-01-27T14:11:32Z</time></trkpt>
   <trkpt lat="31.173731" lon="35.3199"><ele>109.3</ele><name>TP08311</name><time>2020-01-27T14:11:33Z</time></trkpt>
   <trkpt lat="31.173696" lon="35.319943"><ele>109.3</ele><name>TP08312</name><time>2020-01-27T14:11:34Z</time></trkpt>
   <trkpt lat="31.173659" lon="35.319982"><ele>109.2</ele><name>TP08313</name><time>2020-01-27T14:11:35Z</time></trkpt>
   <trkpt lat="31.173589" lon="35.320058"><ele>109</ele><name>TP08314</name><time>2020-01-27T14:11:37Z</time></trkpt>
   <trkpt lat="31.17352" lon="35.320131"><ele>108.9</ele><name>TP08315</name><time>2020-01-27T14:11:39Z</time></trkpt>
   <trkpt lat="31.173486" lon="35.320167"><ele>108.8</ele><name>TP08316</name><time>2020-01-27T14:11:40Z</time></trkpt>
   <trkpt lat="31.173417" lon="35.320242"><ele>108.6</ele><name>TP08317</name><time>2020-01-27T14:11:42Z</time></trkpt>
   <trkpt lat="31.173345" lon="35.320315"><ele>108.3</ele><name>TP08318</name><time>2020-01-27T14:11:44Z</time></trkpt>
   <trkpt lat="31.173271" lon="35.320389"><ele>108</ele><name>TP08319</name><time>2020-01-27T14:11:46Z</time></trkpt>
   <trkpt lat="31.1732" lon="35.320462"><ele>107.8</ele><name>TP08320</name><time>2020-01-27T14:11:48Z</time></trkpt>
   <trkpt lat="31.173168" lon="35.320499"><ele>107.8</ele><name>TP08321</name><time>2020-01-27T14:11:49Z</time></trkpt>
   <trkpt lat="31.173097" lon="35.320573"><ele>107.6</ele><name>TP08322</name><time>2020-01-27T14:11:51Z</time></trkpt>
   <trkpt lat="31.173058" lon="35.320611"><ele>107.5</ele><name>TP08323</name><time>2020-01-27T14:11:52Z</time></trkpt>
   <trkpt lat="31.172981" lon="35.320689"><ele>107.3</ele><name>TP08324</name><time>2020-01-27T14:11:54Z</time></trkpt>
   <trkpt lat="31.172941" lon="35.32073"><ele>107.2</ele><name>TP08325</name><time>2020-01-27T14:11:55Z</time></trkpt>
   <trkpt lat="31.172862" lon="35.320811"><ele>107</ele><name>TP08326</name><time>2020-01-27T14:11:57Z</time></trkpt>
   <trkpt lat="31.172779" lon="35.320884"><ele>106.9</ele><name>TP08327</name><time>2020-01-27T14:11:59Z</time></trkpt>
   <trkpt lat="31.172705" lon="35.320963"><ele>106.8</ele><name>TP08328</name><time>2020-01-27T14:12:01Z</time></trkpt>
   <trkpt lat="31.17267" lon="35.321005"><ele>106.8</ele><name>TP08329</name><time>2020-01-27T14:12:02Z</time></trkpt>
   <trkpt lat="31.172633" lon="35.321046"><ele>106.7</ele><name>TP08330</name><time>2020-01-27T14:12:03Z</time></trkpt>
   <trkpt lat="31.17256" lon="35.321122"><ele>106.6</ele><name>TP08331</name><time>2020-01-27T14:12:05Z</time></trkpt>
   <trkpt lat="31.172484" lon="35.321197"><ele>106.6</ele><name>TP08332</name><time>2020-01-27T14:12:07Z</time></trkpt>
   <trkpt lat="31.172446" lon="35.321237"><ele>106.5</ele><name>TP08333</name><time>2020-01-27T14:12:08Z</time></trkpt>
   <trkpt lat="31.172407" lon="35.321279"><ele>106.5</ele><name>TP08334</name><time>2020-01-27T14:12:09Z</time></trkpt>
   <trkpt lat="31.172331" lon="35.321359"><ele>106.3</ele><name>TP08335</name><time>2020-01-27T14:12:11Z</time></trkpt>
   <trkpt lat="31.172252" lon="35.321442"><ele>106.2</ele><name>TP08336</name><time>2020-01-27T14:12:13Z</time></trkpt>
   <trkpt lat="31.172215" lon="35.321486"><ele>106.1</ele><name>TP08337</name><time>2020-01-27T14:12:14Z</time></trkpt>
   <trkpt lat="31.172147" lon="35.32157"><ele>105.9</ele><name>TP08338</name><time>2020-01-27T14:12:16Z</time></trkpt>
   <trkpt lat="31.172113" lon="35.32161"><ele>105.9</ele><name>TP08339</name><time>2020-01-27T14:12:17Z</time></trkpt>
   <trkpt lat="31.172046" lon="35.321688"><ele>105.7</ele><name>TP08340</name><time>2020-01-27T14:12:19Z</time></trkpt>
   <trkpt lat="31.172011" lon="35.321725"><ele>105.7</ele><name>TP08341</name><time>2020-01-27T14:12:20Z</time></trkpt>
   <trkpt lat="31.171937" lon="35.321796"><ele>105.5</ele><name>TP08342</name><time>2020-01-27T14:12:22Z</time></trkpt>
   <trkpt lat="31.171862" lon="35.32187"><ele>105.3</ele><name>TP08343</name><time>2020-01-27T14:12:24Z</time></trkpt>
   <trkpt lat="31.171822" lon="35.321906"><ele>105.1</ele><name>TP08344</name><time>2020-01-27T14:12:25Z</time></trkpt>
   <trkpt lat="31.17174" lon="35.321979"><ele>104.8</ele><name>TP08345</name><time>2020-01-27T14:12:27Z</time></trkpt>
   <trkpt lat="31.171655" lon="35.322056"><ele>104.5</ele><name>TP08346</name><time>2020-01-27T14:12:29Z</time></trkpt>
   <trkpt lat="31.171611" lon="35.3221"><ele>104.4</ele><name>TP08347</name><time>2020-01-27T14:12:30Z</time></trkpt>
   <trkpt lat="31.171524" lon="35.32218"><ele>104.1</ele><name>TP08348</name><time>2020-01-27T14:12:32Z</time></trkpt>
   <trkpt lat="31.171482" lon="35.322218"><ele>103.9</ele><name>TP08349</name><time>2020-01-27T14:12:33Z</time></trkpt>
   <trkpt lat="31.171401" lon="35.322293"><ele>103.7</ele><name>TP08350</name><time>2020-01-27T14:12:35Z</time></trkpt>
   <trkpt lat="31.171316" lon="35.322359"><ele>103.5</ele><name>TP08351</name><time>2020-01-27T14:12:37Z</time></trkpt>
   <trkpt lat="31.171231" lon="35.322422"><ele>103.3</ele><name>TP08352</name><time>2020-01-27T14:12:39Z</time></trkpt>
   <trkpt lat="31.171187" lon="35.322452"><ele>103.2</ele><name>TP08353</name><time>2020-01-27T14:12:40Z</time></trkpt>
   <trkpt lat="31.171143" lon="35.32248"><ele>103.2</ele><name>TP08354</name><time>2020-01-27T14:12:41Z</time></trkpt>
   <trkpt lat="31.171063" lon="35.32253"><ele>103.1</ele><name>TP08355</name><time>2020-01-27T14:12:43Z</time></trkpt>
   <trkpt lat="31.171004" lon="35.322563"><ele>103.1</ele><name>TP08356</name><time>2020-01-27T14:12:45Z</time></trkpt>
   <trkpt lat="31.170961" lon="35.322582"><ele>103.1</ele><name>TP08357</name><time>2020-01-27T14:12:46Z</time></trkpt>
   <trkpt lat="31.17089" lon="35.322625"><ele>103</ele><name>TP08358</name><time>2020-01-27T14:12:48Z</time></trkpt>
   <trkpt lat="31.17082" lon="35.322675"><ele>103.1</ele><name>TP08359</name><time>2020-01-27T14:12:50Z</time></trkpt>
   <trkpt lat="31.170778" lon="35.322713"><ele>103.3</ele><name>TP08360</name><time>2020-01-27T14:12:51Z</time></trkpt>
   <trkpt lat="31.170721" lon="35.32281"><ele>103.9</ele><name>TP08361</name><time>2020-01-27T14:12:53Z</time></trkpt>
   <trkpt lat="31.170706" lon="35.322864"><ele>104.2</ele><name>TP08362</name><time>2020-01-27T14:12:54Z</time></trkpt>
   <trkpt lat="31.170692" lon="35.322915"><ele>104.4</ele><name>TP08363</name><time>2020-01-27T14:12:55Z</time></trkpt>
   <trkpt lat="31.170667" lon="35.322948"><ele>104.6</ele><name>TP08364</name><time>2020-01-27T14:12:57Z</time></trkpt>
   <trkpt lat="31.170682" lon="35.323016"><ele>105</ele><name>TP08365</name><time>2020-01-27T14:12:58Z</time></trkpt>
   <trkpt lat="31.170727" lon="35.323111"><ele>104.5</ele><name>TP08366</name><time>2020-01-27T14:13:00Z</time></trkpt>
   <trkpt lat="31.170749" lon="35.323151"><ele>104.3</ele><name>TP08367</name><time>2020-01-27T14:13:01Z</time></trkpt>
   <trkpt lat="31.170773" lon="35.32319"><ele>104.2</ele><name>TP08368</name><time>2020-01-27T14:13:02Z</time></trkpt>
   <trkpt lat="31.170823" lon="35.323273"><ele>103.9</ele><name>TP08369</name><time>2020-01-27T14:13:04Z</time></trkpt>
   <trkpt lat="31.170866" lon="35.323352"><ele>103.6</ele><name>TP08370</name><time>2020-01-27T14:13:06Z</time></trkpt>
   <trkpt lat="31.170904" lon="35.323407"><ele>103.4</ele><name>TP08371</name><time>2020-01-27T14:13:07Z</time></trkpt>
   <trkpt lat="31.170938" lon="35.323458"><ele>103.1</ele><name>TP08372</name><time>2020-01-27T14:13:08Z</time></trkpt>
   <trkpt lat="31.171006" lon="35.323561"><ele>102.6</ele><name>TP08373</name><time>2020-01-27T14:13:10Z</time></trkpt>
   <trkpt lat="31.171079" lon="35.323668"><ele>101.8</ele><name>TP08374</name><time>2020-01-27T14:13:12Z</time></trkpt>
   <trkpt lat="31.171115" lon="35.323722"><ele>101.5</ele><name>TP08375</name><time>2020-01-27T14:13:13Z</time></trkpt>
   <trkpt lat="31.171187" lon="35.323836"><ele>101</ele><name>TP08376</name><time>2020-01-27T14:13:15Z</time></trkpt>
   <trkpt lat="31.171224" lon="35.323896"><ele>100.7</ele><name>TP08377</name><time>2020-01-27T14:13:16Z</time></trkpt>
   <trkpt lat="31.171257" lon="35.323961"><ele>100.4</ele><name>TP08378</name><time>2020-01-27T14:13:17Z</time></trkpt>
   <trkpt lat="31.171304" lon="35.3241"><ele>99.9</ele><name>TP08379</name><time>2020-01-27T14:13:19Z</time></trkpt>
   <trkpt lat="31.171313" lon="35.324176"><ele>99.7</ele><name>TP08380</name><time>2020-01-27T14:13:20Z</time></trkpt>
   <trkpt lat="31.171313" lon="35.324255"><ele>99.4</ele><name>TP08381</name><time>2020-01-27T14:13:21Z</time></trkpt>
   <trkpt lat="31.171307" lon="35.324334"><ele>99.1</ele><name>TP08382</name><time>2020-01-27T14:13:22Z</time></trkpt>
   <trkpt lat="31.171286" lon="35.324483"><ele>98.8</ele><name>TP08383</name><time>2020-01-27T14:13:24Z</time></trkpt>
   <trkpt lat="31.171261" lon="35.324632"><ele>98.6</ele><name>TP08384</name><time>2020-01-27T14:13:26Z</time></trkpt>
   <trkpt lat="31.17125" lon="35.324709"><ele>98.4</ele><name>TP08385</name><time>2020-01-27T14:13:27Z</time></trkpt>
   <trkpt lat="31.171235" lon="35.324863"><ele>98.2</ele><name>TP08386</name><time>2020-01-27T14:13:29Z</time></trkpt>
   <trkpt lat="31.171218" lon="35.325011"><ele>97.6</ele><name>TP08387</name><time>2020-01-27T14:13:31Z</time></trkpt>
   <trkpt lat="31.171199" lon="35.325163"><ele>97.1</ele><name>TP08388</name><time>2020-01-27T14:13:33Z</time></trkpt>
   <trkpt lat="31.17118" lon="35.325304"><ele>97</ele><name>TP08389</name><time>2020-01-27T14:13:35Z</time></trkpt>
   <trkpt lat="31.17117" lon="35.325373"><ele>97</ele><name>TP08390</name><time>2020-01-27T14:13:36Z</time></trkpt>
   <trkpt lat="31.171157" lon="35.325518"><ele>97</ele><name>TP08391</name><time>2020-01-27T14:13:38Z</time></trkpt>
   <trkpt lat="31.171147" lon="35.325588"><ele>97.1</ele><name>TP08392</name><time>2020-01-27T14:13:39Z</time></trkpt>
   <trkpt lat="31.171129" lon="35.325727"><ele>97.7</ele><name>TP08393</name><time>2020-01-27T14:13:41Z</time></trkpt>
   <trkpt lat="31.171111" lon="35.325873"><ele>97.9</ele><name>TP08394</name><time>2020-01-27T14:13:43Z</time></trkpt>
   <trkpt lat="31.171101" lon="35.326031"><ele>97.7</ele><name>TP08395</name><time>2020-01-27T14:13:45Z</time></trkpt>
   <trkpt lat="31.171095" lon="35.326109"><ele>97.7</ele><name>TP08396</name><time>2020-01-27T14:13:46Z</time></trkpt>
   <trkpt lat="31.171093" lon="35.326186"><ele>98</ele><name>TP08397</name><time>2020-01-27T14:13:47Z</time></trkpt>
   <trkpt lat="31.171092" lon="35.32626"><ele>98.4</ele><name>TP08398</name><time>2020-01-27T14:13:48Z</time></trkpt>
   <trkpt lat="31.171092" lon="35.32638"><ele>98</ele><name>TP08399</name><time>2020-01-27T14:13:50Z</time></trkpt>
   <trkpt lat="31.171091" lon="35.326424"><ele>97.8</ele><name>TP08400</name><time>2020-01-27T14:13:51Z</time></trkpt>
   <trkpt lat="31.171085" lon="35.326503"><ele>97.3</ele><name>TP08401</name><time>2020-01-27T14:13:53Z</time></trkpt>
   <trkpt lat="31.171081" lon="35.32655"><ele>97.1</ele><name>TP08402</name><time>2020-01-27T14:13:54Z</time></trkpt>
   <trkpt lat="31.171072" lon="35.326651"><ele>96.7</ele><name>TP08403</name><time>2020-01-27T14:13:56Z</time></trkpt>
   <trkpt lat="31.17106" lon="35.326782"><ele>96</ele><name>TP08404</name><time>2020-01-27T14:13:58Z</time></trkpt>
   <trkpt lat="31.17105" lon="35.326855"><ele>95.7</ele><name>TP08405</name><time>2020-01-27T14:13:59Z</time></trkpt>
   <trkpt lat="31.171032" lon="35.327003"><ele>95</ele><name>TP08406</name><time>2020-01-27T14:14:01Z</time></trkpt>
   <trkpt lat="31.171011" lon="35.327167"><ele>94.2</ele><name>TP08407</name><time>2020-01-27T14:14:03Z</time></trkpt>
   <trkpt lat="31.170991" lon="35.327352"><ele>93.3</ele><name>TP08408</name><time>2020-01-27T14:14:05Z</time></trkpt>
   <trkpt lat="31.170981" lon="35.327535"><ele>93.2</ele><name>TP08409</name><time>2020-01-27T14:14:07Z</time></trkpt>
   <trkpt lat="31.170973" lon="35.327707"><ele>92.6</ele><name>TP08410</name><time>2020-01-27T14:14:09Z</time></trkpt>
   <trkpt lat="31.170975" lon="35.327868"><ele>91.4</ele><name>TP08411</name><time>2020-01-27T14:14:11Z</time></trkpt>
   <trkpt lat="31.170982" lon="35.327947"><ele>90.5</ele><name>TP08412</name><time>2020-01-27T14:14:12Z</time></trkpt>
   <trkpt lat="31.170988" lon="35.32803"><ele>89.5</ele><name>TP08413</name><time>2020-01-27T14:14:13Z</time></trkpt>
   <trkpt lat="31.170956" lon="35.328211"><ele>87.8</ele><name>TP08414</name><time>2020-01-27T14:14:15Z</time></trkpt>
   <trkpt lat="31.170905" lon="35.328287"><ele>87.3</ele><name>TP08415</name><time>2020-01-27T14:14:16Z</time></trkpt>
   <trkpt lat="31.17076" lon="35.328354"><ele>86.6</ele><name>TP08416</name><time>2020-01-27T14:14:18Z</time></trkpt>
   <trkpt lat="31.170682" lon="35.328356"><ele>86.4</ele><name>TP08417</name><time>2020-01-27T14:14:19Z</time></trkpt>
   <trkpt lat="31.170564" lon="35.32842"><ele>86.4</ele><name>TP08418</name><time>2020-01-27T14:14:21Z</time></trkpt>
   <trkpt lat="31.170528" lon="35.328491"><ele>86.5</ele><name>TP08419</name><time>2020-01-27T14:14:22Z</time></trkpt>
   <trkpt lat="31.1705" lon="35.328668"><ele>85.4</ele><name>TP08420</name><time>2020-01-27T14:14:24Z</time></trkpt>
   <trkpt lat="31.170497" lon="35.32876"><ele>84.1</ele><name>TP08421</name><time>2020-01-27T14:14:25Z</time></trkpt>
   <trkpt lat="31.170499" lon="35.328848"><ele>83.1</ele><name>TP08422</name><time>2020-01-27T14:14:26Z</time></trkpt>
   <trkpt lat="31.170547" lon="35.32901"><ele>81.7</ele><name>TP08423</name><time>2020-01-27T14:14:28Z</time></trkpt>
   <trkpt lat="31.17065" lon="35.32914"><ele>80.5</ele><name>TP08424</name><time>2020-01-27T14:14:30Z</time></trkpt>
   <trkpt lat="31.170689" lon="35.32923"><ele>79.6</ele><name>TP08425</name><time>2020-01-27T14:14:32Z</time></trkpt>
   <trkpt lat="31.17066" lon="35.329282"><ele>79.1</ele><name>TP08426</name><time>2020-01-27T14:14:34Z</time></trkpt>
   <trkpt lat="31.170611" lon="35.329322"><ele>79</ele><name>TP08427</name><time>2020-01-27T14:14:36Z</time></trkpt>
   <trkpt lat="31.170566" lon="35.329332"><ele>78.6</ele><name>TP08428</name><time>2020-01-27T14:14:38Z</time></trkpt>
   <trkpt lat="31.170555" lon="35.329337"><ele>78.6</ele><name>TP08429</name><time>2020-01-27T14:14:39Z</time></trkpt>
   <trkpt lat="31.170544" lon="35.329342"><ele>78.8</ele><name>TP08430</name><time>2020-01-27T14:14:41Z</time></trkpt>
   <trkpt lat="31.170533" lon="35.329347"><ele>78.8</ele><name>TP08431</name><time>2020-01-27T14:14:42Z</time></trkpt>
   <trkpt lat="31.170507" lon="35.329366"><ele>79.1</ele><name>TP08432</name><time>2020-01-27T14:14:43Z</time></trkpt>
   <trkpt lat="31.1705" lon="35.329369"><ele>79</ele><name>TP08433</name><time>2020-01-27T14:14:44Z</time></trkpt>
   <trkpt lat="31.170485" lon="35.329373"><ele>78.7</ele><name>TP08434</name><time>2020-01-27T14:14:45Z</time></trkpt>
   <trkpt lat="31.170476" lon="35.329374"><ele>78.7</ele><name>TP08435</name><time>2020-01-27T14:14:47Z</time></trkpt>
   <trkpt lat="31.170467" lon="35.329375"><ele>78.9</ele><name>TP08436</name><time>2020-01-27T14:14:49Z</time></trkpt>
   <trkpt lat="31.170458" lon="35.329377"><ele>78.9</ele><name>TP08437</name><time>2020-01-27T14:14:51Z</time></trkpt>
   <trkpt lat="31.170449" lon="35.329378"><ele>78.9</ele><name>TP08438</name><time>2020-01-27T14:14:53Z</time></trkpt>
   <trkpt lat="31.17044" lon="35.329379"><ele>78.9</ele><name>TP08439</name><time>2020-01-27T14:14:54Z</time></trkpt>
   <trkpt lat="31.170431" lon="35.32938"><ele>79.1</ele><name>TP08440</name><time>2020-01-27T14:14:55Z</time></trkpt>
   <trkpt lat="31.170397" lon="35.329414"><ele>79</ele><name>TP08441</name><time>2020-01-27T14:14:57Z</time></trkpt>
   <trkpt lat="31.170368" lon="35.329453"><ele>79</ele><name>TP08442</name><time>2020-01-27T14:14:58Z</time></trkpt>
   <trkpt lat="31.170336" lon="35.3295"><ele>78.8</ele><name>TP08443</name><time>2020-01-27T14:15:00Z</time></trkpt>
   <trkpt lat="31.170311" lon="35.329533"><ele>79</ele><name>TP08444</name><time>2020-01-27T14:15:01Z</time></trkpt>
   <trkpt lat="31.17028" lon="35.329579"><ele>79.1</ele><name>TP08445</name><time>2020-01-27T14:15:02Z</time></trkpt>
   <trkpt lat="31.170241" lon="35.329643"><ele>78.7</ele><name>TP08446</name><time>2020-01-27T14:15:04Z</time></trkpt>
   <trkpt lat="31.170219" lon="35.329694"><ele>78.4</ele><name>TP08447</name><time>2020-01-27T14:15:05Z</time></trkpt>
   <trkpt lat="31.170191" lon="35.329758"><ele>77.8</ele><name>TP08448</name><time>2020-01-27T14:15:06Z</time></trkpt>
   <trkpt lat="31.170157" lon="35.32984"><ele>77.5</ele><name>TP08449</name><time>2020-01-27T14:15:08Z</time></trkpt>
   <trkpt lat="31.170125" lon="35.329878"><ele>77.1</ele><name>TP08450</name><time>2020-01-27T14:15:09Z</time></trkpt>
   <trkpt lat="31.170108" lon="35.329959"><ele>76.6</ele><name>TP08451</name><time>2020-01-27T14:15:11Z</time></trkpt>
   <trkpt lat="31.170065" lon="35.330055"><ele>76.6</ele><name>TP08452</name><time>2020-01-27T14:15:12Z</time></trkpt>
   <trkpt lat="31.170038" lon="35.330105"><ele>76.3</ele><name>TP08453</name><time>2020-01-27T14:15:13Z</time></trkpt>
   <trkpt lat="31.170011" lon="35.330209"><ele>76</ele><name>TP08454</name><time>2020-01-27T14:15:15Z</time></trkpt>
   <trkpt lat="31.169982" lon="35.330308"><ele>75.8</ele><name>TP08455</name><time>2020-01-27T14:15:17Z</time></trkpt>
   <trkpt lat="31.169948" lon="35.330408"><ele>75.6</ele><name>TP08456</name><time>2020-01-27T14:15:19Z</time></trkpt>
   <trkpt lat="31.169905" lon="35.330434"><ele>75.3</ele><name>TP08457</name><time>2020-01-27T14:15:21Z</time></trkpt>
   <trkpt lat="31.169903" lon="35.330495"><ele>75.3</ele><name>TP08458</name><time>2020-01-27T14:15:22Z</time></trkpt>
   <trkpt lat="31.169899" lon="35.330591"><ele>74.9</ele><name>TP08459</name><time>2020-01-27T14:15:23Z</time></trkpt>
   <trkpt lat="31.169897" lon="35.330634"><ele>74.5</ele><name>TP08460</name><time>2020-01-27T14:15:24Z</time></trkpt>
   <trkpt lat="31.169895" lon="35.33067"><ele>73.9</ele><name>TP08461</name><time>2020-01-27T14:15:25Z</time></trkpt>
   <trkpt lat="31.169886" lon="35.330708"><ele>73.3</ele><name>TP08462</name><time>2020-01-27T14:15:26Z</time></trkpt>
   <trkpt lat="31.169859" lon="35.330781"><ele>72.7</ele><name>TP08463</name><time>2020-01-27T14:15:28Z</time></trkpt>
   <trkpt lat="31.169842" lon="35.330828"><ele>72.1</ele><name>TP08464</name><time>2020-01-27T14:15:29Z</time></trkpt>
   <trkpt lat="31.169806" lon="35.330899"><ele>70.9</ele><name>TP08465</name><time>2020-01-27T14:15:31Z</time></trkpt>
   <trkpt lat="31.169774" lon="35.330953"><ele>70</ele><name>TP08466</name><time>2020-01-27T14:15:32Z</time></trkpt>
   <trkpt lat="31.169723" lon="35.331013"><ele>68.2</ele><name>TP08467</name><time>2020-01-27T14:15:33Z</time></trkpt>
   <trkpt lat="31.16965" lon="35.33106"><ele>67</ele><name>TP08468</name><time>2020-01-27T14:15:35Z</time></trkpt>
   <trkpt lat="31.169611" lon="35.331078"><ele>66.7</ele><name>TP08469</name><time>2020-01-27T14:15:37Z</time></trkpt>
   <trkpt lat="31.169599" lon="35.331101"><ele>65.9</ele><name>TP08470</name><time>2020-01-27T14:15:38Z</time></trkpt>
   <trkpt lat="31.169577" lon="35.331116"><ele>65.6</ele><name>TP08471</name><time>2020-01-27T14:15:40Z</time></trkpt>
   <trkpt lat="31.169548" lon="35.331131"><ele>64.5</ele><name>TP08472</name><time>2020-01-27T14:15:41Z</time></trkpt>
   <trkpt lat="31.169537" lon="35.331136"><ele>64.5</ele><name>TP08473</name><time>2020-01-27T14:15:42Z</time></trkpt>
   <trkpt lat="31.169508" lon="35.331156"><ele>64.2</ele><name>TP08474</name><time>2020-01-27T14:15:43Z</time></trkpt>
   <trkpt lat="31.169498" lon="35.331165"><ele>64.2</ele><name>TP08475</name><time>2020-01-27T14:15:44Z</time></trkpt>
   <trkpt lat="31.169473" lon="35.33118"><ele>63.3</ele><name>TP08476</name><time>2020-01-27T14:15:46Z</time></trkpt>
   <trkpt lat="31.169445" lon="35.331196"><ele>63.3</ele><name>TP08477</name><time>2020-01-27T14:15:47Z</time></trkpt>
   <trkpt lat="31.169417" lon="35.331213"><ele>63.3</ele><name>TP08478</name><time>2020-01-27T14:15:48Z</time></trkpt>
   <trkpt lat="31.169387" lon="35.331222"><ele>63</ele><name>TP08479</name><time>2020-01-27T14:15:49Z</time></trkpt>
   <trkpt lat="31.16936" lon="35.331224"><ele>63.2</ele><name>TP08480</name><time>2020-01-27T14:15:51Z</time></trkpt>
   <trkpt lat="31.169328" lon="35.331221"><ele>63.5</ele><name>TP08481</name><time>2020-01-27T14:15:52Z</time></trkpt>
   <trkpt lat="31.169292" lon="35.331212"><ele>63.9</ele><name>TP08482</name><time>2020-01-27T14:15:54Z</time></trkpt>
   <trkpt lat="31.169262" lon="35.331206"><ele>63.9</ele><name>TP08483</name><time>2020-01-27T14:15:55Z</time></trkpt>
   <trkpt lat="31.169228" lon="35.331235"><ele>63.8</ele><name>TP08484</name><time>2020-01-27T14:15:56Z</time></trkpt>
   <trkpt lat="31.169197" lon="35.331272"><ele>63.5</ele><name>TP08485</name><time>2020-01-27T14:15:58Z</time></trkpt>
   <trkpt lat="31.169171" lon="35.331305"><ele>63.1</ele><name>TP08486</name><time>2020-01-27T14:15:59Z</time></trkpt>
   <trkpt lat="31.169143" lon="35.331348"><ele>62.9</ele><name>TP08487</name><time>2020-01-27T14:16:00Z</time></trkpt>
   <trkpt lat="31.169116" lon="35.331381"><ele>62.9</ele><name>TP08488</name><time>2020-01-27T14:16:01Z</time></trkpt>
   <trkpt lat="31.169072" lon="35.331446"><ele>62.5</ele><name>TP08489</name><time>2020-01-27T14:16:03Z</time></trkpt>
   <trkpt lat="31.16903" lon="35.331499"><ele>62.1</ele><name>TP08490</name><time>2020-01-27T14:16:04Z</time></trkpt>
   <trkpt lat="31.168989" lon="35.331551"><ele>61.8</ele><name>TP08491</name><time>2020-01-27T14:16:06Z</time></trkpt>
   <trkpt lat="31.168957" lon="35.331611"><ele>61.4</ele><name>TP08492</name><time>2020-01-27T14:16:07Z</time></trkpt>
   <trkpt lat="31.168908" lon="35.33167"><ele>61.3</ele><name>TP08493</name><time>2020-01-27T14:16:08Z</time></trkpt>
   <trkpt lat="31.168876" lon="35.331713"><ele>61.1</ele><name>TP08494</name><time>2020-01-27T14:16:09Z</time></trkpt>
   <trkpt lat="31.168809" lon="35.331802"><ele>60.8</ele><name>TP08495</name><time>2020-01-27T14:16:11Z</time></trkpt>
   <trkpt lat="31.168755" lon="35.331868"><ele>60.5</ele><name>TP08496</name><time>2020-01-27T14:16:13Z</time></trkpt>
   <trkpt lat="31.16873" lon="35.331891"><ele>60.4</ele><name>TP08497</name><time>2020-01-27T14:16:14Z</time></trkpt>
   <trkpt lat="31.16871" lon="35.331927"><ele>60.2</ele><name>TP08498</name><time>2020-01-27T14:16:15Z</time></trkpt>
   <trkpt lat="31.168672" lon="35.331993"><ele>59.9</ele><name>TP08499</name><time>2020-01-27T14:16:17Z</time></trkpt>
   <trkpt lat="31.168635" lon="35.332017"><ele>59.7</ele><name>TP08500</name><time>2020-01-27T14:16:18Z</time></trkpt>
   <trkpt lat="31.168579" lon="35.332041"><ele>59.4</ele><name>TP08501</name><time>2020-01-27T14:16:19Z</time></trkpt>
   <trkpt lat="31.168515" lon="35.332067"><ele>58.9</ele><name>TP08502</name><time>2020-01-27T14:16:20Z</time></trkpt>
   <trkpt lat="31.168468" lon="35.332085"><ele>58.6</ele><name>TP08503</name><time>2020-01-27T14:16:21Z</time></trkpt>
   <trkpt lat="31.168377" lon="35.33213"><ele>58.2</ele><name>TP08504</name><time>2020-01-27T14:16:23Z</time></trkpt>
   <trkpt lat="31.168329" lon="35.332148"><ele>58</ele><name>TP08505</name><time>2020-01-27T14:16:24Z</time></trkpt>
   <trkpt lat="31.168232" lon="35.332183"><ele>57.7</ele><name>TP08506</name><time>2020-01-27T14:16:26Z</time></trkpt>
   <trkpt lat="31.168182" lon="35.332205"><ele>57.5</ele><name>TP08507</name><time>2020-01-27T14:16:27Z</time></trkpt>
   <trkpt lat="31.168078" lon="35.332231"><ele>57.1</ele><name>TP08508</name><time>2020-01-27T14:16:29Z</time></trkpt>
   <trkpt lat="31.167974" lon="35.332231"><ele>56.7</ele><name>TP08509</name><time>2020-01-27T14:16:31Z</time></trkpt>
   <trkpt lat="31.16787" lon="35.332221"><ele>56.2</ele><name>TP08510</name><time>2020-01-27T14:16:33Z</time></trkpt>
   <trkpt lat="31.167815" lon="35.332222"><ele>56</ele><name>TP08511</name><time>2020-01-27T14:16:34Z</time></trkpt>
   <trkpt lat="31.167699" lon="35.332237"><ele>55.4</ele><name>TP08512</name><time>2020-01-27T14:16:36Z</time></trkpt>
   <trkpt lat="31.167573" lon="35.332261"><ele>54.7</ele><name>TP08513</name><time>2020-01-27T14:16:38Z</time></trkpt>
   <trkpt lat="31.167512" lon="35.332273"><ele>54.5</ele><name>TP08514</name><time>2020-01-27T14:16:39Z</time></trkpt>
   <trkpt lat="31.167408" lon="35.332317"><ele>53.9</ele><name>TP08515</name><time>2020-01-27T14:16:41Z</time></trkpt>
   <trkpt lat="31.16732" lon="35.33238"><ele>53.4</ele><name>TP08516</name><time>2020-01-27T14:16:43Z</time></trkpt>
   <trkpt lat="31.167277" lon="35.332412"><ele>53.2</ele><name>TP08517</name><time>2020-01-27T14:16:44Z</time></trkpt>
   <trkpt lat="31.167229" lon="35.332435"><ele>52.9</ele><name>TP08518</name><time>2020-01-27T14:16:45Z</time></trkpt>
   <trkpt lat="31.167178" lon="35.332451"><ele>52.7</ele><name>TP08519</name><time>2020-01-27T14:16:46Z</time></trkpt>
   <trkpt lat="31.167064" lon="35.332484"><ele>52.3</ele><name>TP08520</name><time>2020-01-27T14:16:48Z</time></trkpt>
   <trkpt lat="31.166941" lon="35.332517"><ele>52</ele><name>TP08521</name><time>2020-01-27T14:16:50Z</time></trkpt>
   <trkpt lat="31.166881" lon="35.332533"><ele>51.9</ele><name>TP08522</name><time>2020-01-27T14:16:51Z</time></trkpt>
   <trkpt lat="31.166764" lon="35.332576"><ele>51.7</ele><name>TP08523</name><time>2020-01-27T14:16:53Z</time></trkpt>
   <trkpt lat="31.166658" lon="35.332645"><ele>51.5</ele><name>TP08524</name><time>2020-01-27T14:16:55Z</time></trkpt>
   <trkpt lat="31.166606" lon="35.332673"><ele>51.4</ele><name>TP08525</name><time>2020-01-27T14:16:56Z</time></trkpt>
   <trkpt lat="31.166547" lon="35.332697"><ele>51.3</ele><name>TP08526</name><time>2020-01-27T14:16:57Z</time></trkpt>
   <trkpt lat="31.166487" lon="35.332726"><ele>51.1</ele><name>TP08527</name><time>2020-01-27T14:16:58Z</time></trkpt>
   <trkpt lat="31.166374" lon="35.3328"><ele>50.6</ele><name>TP08528</name><time>2020-01-27T14:17:00Z</time></trkpt>
   <trkpt lat="31.16626" lon="35.332886"><ele>50.2</ele><name>TP08529</name><time>2020-01-27T14:17:02Z</time></trkpt>
   <trkpt lat="31.166202" lon="35.332931"><ele>49.9</ele><name>TP08530</name><time>2020-01-27T14:17:03Z</time></trkpt>
   <trkpt lat="31.166099" lon="35.333044"><ele>49.4</ele><name>TP08531</name><time>2020-01-27T14:17:05Z</time></trkpt>
   <trkpt lat="31.166057" lon="35.333099"><ele>49.1</ele><name>TP08532</name><time>2020-01-27T14:17:06Z</time></trkpt>
   <trkpt lat="31.166009" lon="35.333128"><ele>48.9</ele><name>TP08533</name><time>2020-01-27T14:17:07Z</time></trkpt>
   <trkpt lat="31.165959" lon="35.333134"><ele>48.7</ele><name>TP08534</name><time>2020-01-27T14:17:08Z</time></trkpt>
   <trkpt lat="31.16591" lon="35.33312"><ele>48.5</ele><name>TP08535</name><time>2020-01-27T14:17:09Z</time></trkpt>
   <trkpt lat="31.165795" lon="35.333112"><ele>48.1</ele><name>TP08536</name><time>2020-01-27T14:17:11Z</time></trkpt>
   <trkpt lat="31.165729" lon="35.333106"><ele>47.8</ele><name>TP08537</name><time>2020-01-27T14:17:12Z</time></trkpt>
   <trkpt lat="31.165671" lon="35.333108"><ele>47.5</ele><name>TP08538</name><time>2020-01-27T14:17:13Z</time></trkpt>
   <trkpt lat="31.165625" lon="35.333128"><ele>47.4</ele><name>TP08539</name><time>2020-01-27T14:17:14Z</time></trkpt>
   <trkpt lat="31.165547" lon="35.3332"><ele>47</ele><name>TP08540</name><time>2020-01-27T14:17:16Z</time></trkpt>
   <trkpt lat="31.16545" lon="35.333282"><ele>46.4</ele><name>TP08541</name><time>2020-01-27T14:17:18Z</time></trkpt>
   <trkpt lat="31.165359" lon="35.333372"><ele>45.9</ele><name>TP08542</name><time>2020-01-27T14:17:20Z</time></trkpt>
   <trkpt lat="31.165314" lon="35.3334"><ele>45.7</ele><name>TP08543</name><time>2020-01-27T14:17:21Z</time></trkpt>
   <trkpt lat="31.16527" lon="35.333425"><ele>45.6</ele><name>TP08544</name><time>2020-01-27T14:17:22Z</time></trkpt>
   <trkpt lat="31.165213" lon="35.333486"><ele>45.3</ele><name>TP08545</name><time>2020-01-27T14:17:24Z</time></trkpt>
   <trkpt lat="31.165198" lon="35.333516"><ele>45.1</ele><name>TP08546</name><time>2020-01-27T14:17:25Z</time></trkpt>
   <trkpt lat="31.165171" lon="35.333554"><ele>44.9</ele><name>TP08547</name><time>2020-01-27T14:17:27Z</time></trkpt>
   <trkpt lat="31.165165" lon="35.33356"><ele>44.9</ele><name>TP08548</name><time>2020-01-27T14:17:28Z</time></trkpt>
   <trkpt lat="31.165168" lon="35.333555"><ele>44.9</ele><name>TP08549</name><time>2020-01-27T14:17:30Z</time></trkpt>
   <trkpt lat="31.165177" lon="35.333545"><ele>44.8</ele><name>TP08550</name><time>2020-01-27T14:17:31Z</time></trkpt>
   <trkpt lat="31.16519" lon="35.33353"><ele>44.8</ele><name>TP08551</name><time>2020-01-27T14:17:33Z</time></trkpt>
   <trkpt lat="31.165199" lon="35.333522"><ele>44.7</ele><name>TP08552</name><time>2020-01-27T14:17:35Z</time></trkpt>
   <trkpt lat="31.165202" lon="35.333518"><ele>44.7</ele><name>TP08553</name><time>2020-01-27T14:17:36Z</time></trkpt>
   <trkpt lat="31.165208" lon="35.333516"><ele>44.7</ele><name>TP08554</name><time>2020-01-27T14:17:38Z</time></trkpt>
   <trkpt lat="31.165209" lon="35.333512"><ele>44.7</ele><name>TP08555</name><time>2020-01-27T14:17:39Z</time></trkpt>
   <trkpt lat="31.165208" lon="35.333505"><ele>44.6</ele><name>TP08556</name><time>2020-01-27T14:17:41Z</time></trkpt>
   <trkpt lat="31.165186" lon="35.333531"><ele>44.5</ele><name>TP08557</name><time>2020-01-27T14:17:43Z</time></trkpt>
   <trkpt lat="31.165178" lon="35.333542"><ele>44.5</ele><name>TP08558</name><time>2020-01-27T14:17:44Z</time></trkpt>
   <trkpt lat="31.165175" lon="35.333547"><ele>44.4</ele><name>TP08559</name><time>2020-01-27T14:17:45Z</time></trkpt>
   <trkpt lat="31.165172" lon="35.33355"><ele>44.4</ele><name>TP08560</name><time>2020-01-27T14:17:47Z</time></trkpt>
   <trkpt lat="31.165171" lon="35.333551"><ele>44.4</ele><name>TP08561</name><time>2020-01-27T14:17:48Z</time></trkpt>
   <trkpt lat="31.165171" lon="35.333552"><ele>44.4</ele><name>TP08562</name><time>2020-01-27T14:17:49Z</time></trkpt>
   <trkpt lat="31.165171" lon="35.333552"><ele>44.4</ele><name>TP08563</name><time>2020-01-27T14:17:51Z</time></trkpt>
   <trkpt lat="31.165171" lon="35.333552"><ele>44.4</ele><name>TP08564</name><time>2020-01-27T14:17:52Z</time></trkpt>
   <trkpt lat="31.16517" lon="35.333552"><ele>44.4</ele><name>TP08565</name><time>2020-01-27T14:17:54Z</time></trkpt>
   <trkpt lat="31.16517" lon="35.333552"><ele>44.4</ele><name>TP08566</name><time>2020-01-27T14:17:55Z</time></trkpt>
   <trkpt lat="31.16517" lon="35.333552"><ele>44.4</ele><name>TP08567</name><time>2020-01-27T14:17:57Z</time></trkpt>
   <trkpt lat="31.16517" lon="35.333552"><ele>44.4</ele><name>TP08568</name><time>2020-01-27T14:17:59Z</time></trkpt>
   <trkpt lat="31.16517" lon="35.333552"><ele>44.4</ele><name>TP08569</name><time>2020-01-27T14:18:00Z</time></trkpt>
   <trkpt lat="31.16517" lon="35.333552"><ele>44.4</ele><name>TP08570</name><time>2020-01-27T14:18:02Z</time></trkpt>
   <trkpt lat="31.16517" lon="35.333552"><ele>44.4</ele><name>TP08571</name><time>2020-01-27T14:18:03Z</time></trkpt>
   <trkpt lat="31.16517" lon="35.333552"><ele>44.4</ele><name>TP08572</name><time>2020-01-27T14:18:05Z</time></trkpt>
   <trkpt lat="31.16517" lon="35.333552"><ele>44.4</ele><name>TP08573</name><time>2020-01-27T14:18:06Z</time></trkpt>
   <trkpt lat="31.16517" lon="35.333552"><ele>44.4</ele><name>TP08574</name><time>2020-01-27T14:18:07Z</time></trkpt>
   <trkpt lat="31.165173" lon="35.333557"><ele>44.4</ele><name>TP08575</name><time>2020-01-27T14:18:09Z</time></trkpt>
   <trkpt lat="31.165176" lon="35.333564"><ele>44.3</ele><name>TP08576</name><time>2020-01-27T14:18:10Z</time></trkpt>
   <trkpt lat="31.165175" lon="35.333563"><ele>44.3</ele><name>TP08577</name><time>2020-01-27T14:18:11Z</time></trkpt>
   <trkpt lat="31.165176" lon="35.333566"><ele>44.3</ele><name>TP08578</name><time>2020-01-27T14:18:12Z</time></trkpt>
   <trkpt lat="31.165183" lon="35.333595"><ele>44.2</ele><name>TP08579</name><time>2020-01-27T14:18:14Z</time></trkpt>
   <trkpt lat="31.165196" lon="35.333643"><ele>44.1</ele><name>TP08580</name><time>2020-01-27T14:18:16Z</time></trkpt>
   <trkpt lat="31.165214" lon="35.33367"><ele>44</ele><name>TP08581</name><time>2020-01-27T14:18:18Z</time></trkpt>
   <trkpt lat="31.16523" lon="35.333682"><ele>44</ele><name>TP08582</name><time>2020-01-27T14:18:19Z</time></trkpt>
   <trkpt lat="31.165261" lon="35.333703"><ele>43.9</ele><name>TP08583</name><time>2020-01-27T14:18:20Z</time></trkpt>
   <trkpt lat="31.165293" lon="35.333748"><ele>43.7</ele><name>TP08584</name><time>2020-01-27T14:18:21Z</time></trkpt>
   <trkpt lat="31.165295" lon="35.333804"><ele>43.6</ele><name>TP08585</name><time>2020-01-27T14:18:23Z</time></trkpt>
   <trkpt lat="31.165279" lon="35.333844"><ele>43.5</ele><name>TP08586</name><time>2020-01-27T14:18:24Z</time></trkpt>
   <trkpt lat="31.165235" lon="35.333886"><ele>43.5</ele><name>TP08587</name><time>2020-01-27T14:18:25Z</time></trkpt>
   <trkpt lat="31.165186" lon="35.333934"><ele>43.5</ele><name>TP08588</name><time>2020-01-27T14:18:27Z</time></trkpt>
   <trkpt lat="31.16511" lon="35.334013"><ele>43.6</ele><name>TP08589</name><time>2020-01-27T14:18:28Z</time></trkpt>
   <trkpt lat="31.165009" lon="35.334067"><ele>43.6</ele><name>TP08590</name><time>2020-01-27T14:18:30Z</time></trkpt>
   <trkpt lat="31.164949" lon="35.334074"><ele>43.7</ele><name>TP08591</name><time>2020-01-27T14:18:31Z</time></trkpt>
   <trkpt lat="31.164888" lon="35.33408"><ele>43.7</ele><name>TP08592</name><time>2020-01-27T14:18:32Z</time></trkpt>
   <trkpt lat="31.164825" lon="35.334083"><ele>43.7</ele><name>TP08593</name><time>2020-01-27T14:18:33Z</time></trkpt>
   <trkpt lat="31.164724" lon="35.334101"><ele>43.6</ele><name>TP08594</name><time>2020-01-27T14:18:35Z</time></trkpt>
   <trkpt lat="31.164684" lon="35.334141"><ele>43.6</ele><name>TP08595</name><time>2020-01-27T14:18:36Z</time></trkpt>
   <trkpt lat="31.16459" lon="35.334226"><ele>43.4</ele><name>TP08596</name><time>2020-01-27T14:18:38Z</time></trkpt>
   <trkpt lat="31.164483" lon="35.334309"><ele>43.1</ele><name>TP08597</name><time>2020-01-27T14:18:40Z</time></trkpt>
   <trkpt lat="31.164448" lon="35.334451"><ele>42.5</ele><name>TP08598</name><time>2020-01-27T14:18:42Z</time></trkpt>
   <trkpt lat="31.164425" lon="35.334572"><ele>41.7</ele><name>TP08599</name><time>2020-01-27T14:18:44Z</time></trkpt>
   <trkpt lat="31.164383" lon="35.334626"><ele>41.3</ele><name>TP08600</name><time>2020-01-27T14:18:46Z</time></trkpt>
   <trkpt lat="31.164363" lon="35.334657"><ele>41.1</ele><name>TP08601</name><time>2020-01-27T14:18:47Z</time></trkpt>
   <trkpt lat="31.164314" lon="35.33472"><ele>40.6</ele><name>TP08602</name><time>2020-01-27T14:18:49Z</time></trkpt>
   <trkpt lat="31.164275" lon="35.334738"><ele>40.4</ele><name>TP08603</name><time>2020-01-27T14:18:50Z</time></trkpt>
   <trkpt lat="31.164223" lon="35.334739"><ele>40</ele><name>TP08604</name><time>2020-01-27T14:18:52Z</time></trkpt>
   <trkpt lat="31.164184" lon="35.334699"><ele>39.5</ele><name>TP08605</name><time>2020-01-27T14:18:53Z</time></trkpt>
   <trkpt lat="31.164175" lon="35.334627"><ele>38.9</ele><name>TP08606</name><time>2020-01-27T14:18:54Z</time></trkpt>
   <trkpt lat="31.164204" lon="35.334573"><ele>38.3</ele><name>TP08607</name><time>2020-01-27T14:18:56Z</time></trkpt>
   <trkpt lat="31.164232" lon="35.334529"><ele>37.7</ele><name>TP08608</name><time>2020-01-27T14:18:57Z</time></trkpt>
   <trkpt lat="31.164253" lon="35.334469"><ele>36.9</ele><name>TP08609</name><time>2020-01-27T14:18:58Z</time></trkpt>
   <trkpt lat="31.164266" lon="35.334399"><ele>36</ele><name>TP08610</name><time>2020-01-27T14:18:59Z</time></trkpt>
   <trkpt lat="31.164259" lon="35.334332"><ele>35.3</ele><name>TP08611</name><time>2020-01-27T14:19:00Z</time></trkpt>
   <trkpt lat="31.164235" lon="35.334275"><ele>34.7</ele><name>TP08612</name><time>2020-01-27T14:19:01Z</time></trkpt>
   <trkpt lat="31.164191" lon="35.334206"><ele>33.9</ele><name>TP08613</name><time>2020-01-27T14:19:03Z</time></trkpt>
   <trkpt lat="31.164179" lon="35.334182"><ele>33.7</ele><name>TP08614</name><time>2020-01-27T14:19:04Z</time></trkpt>
   <trkpt lat="31.164207" lon="35.334111"><ele>33</ele><name>TP08615</name><time>2020-01-27T14:19:06Z</time></trkpt>
   <trkpt lat="31.164199" lon="35.334054"><ele>32.5</ele><name>TP08616</name><time>2020-01-27T14:19:08Z</time></trkpt>
   <trkpt lat="31.164178" lon="35.334001"><ele>32.1</ele><name>TP08617</name><time>2020-01-27T14:19:09Z</time></trkpt>
   <trkpt lat="31.164117" lon="35.333976"><ele>31.6</ele><name>TP08618</name><time>2020-01-27T14:19:10Z</time></trkpt>
   <trkpt lat="31.164076" lon="35.333987"><ele>31.2</ele><name>TP08619</name><time>2020-01-27T14:19:11Z</time></trkpt>
   <trkpt lat="31.164023" lon="35.334006"><ele>30.8</ele><name>TP08620</name><time>2020-01-27T14:19:13Z</time></trkpt>
   <trkpt lat="31.163935" lon="35.334073"><ele>30</ele><name>TP08621</name><time>2020-01-27T14:19:14Z</time></trkpt>
   <trkpt lat="31.163878" lon="35.334112"><ele>29.6</ele><name>TP08622</name><time>2020-01-27T14:19:15Z</time></trkpt>
   <trkpt lat="31.163765" lon="35.334184"><ele>29.1</ele><name>TP08623</name><time>2020-01-27T14:19:17Z</time></trkpt>
   <trkpt lat="31.16371" lon="35.334216"><ele>28.8</ele><name>TP08624</name><time>2020-01-27T14:19:18Z</time></trkpt>
   <trkpt lat="31.163652" lon="35.334229"><ele>28.4</ele><name>TP08625</name><time>2020-01-27T14:19:19Z</time></trkpt>
   <trkpt lat="31.163554" lon="35.334285"><ele>27.7</ele><name>TP08626</name><time>2020-01-27T14:19:21Z</time></trkpt>
   <trkpt lat="31.1635" lon="35.334316"><ele>27.3</ele><name>TP08627</name><time>2020-01-27T14:19:22Z</time></trkpt>
   <trkpt lat="31.16339" lon="35.334362"><ele>26.6</ele><name>TP08628</name><time>2020-01-27T14:19:24Z</time></trkpt>
   <trkpt lat="31.163284" lon="35.334384"><ele>25.9</ele><name>TP08629</name><time>2020-01-27T14:19:26Z</time></trkpt>
   <trkpt lat="31.163172" lon="35.334393"><ele>25.2</ele><name>TP08630</name><time>2020-01-27T14:19:28Z</time></trkpt>
   <trkpt lat="31.163116" lon="35.334397"><ele>24.8</ele><name>TP08631</name><time>2020-01-27T14:19:29Z</time></trkpt>
   <trkpt lat="31.162989" lon="35.334445"><ele>24.1</ele><name>TP08632</name><time>2020-01-27T14:19:31Z</time></trkpt>
   <trkpt lat="31.162861" lon="35.334527"><ele>23.6</ele><name>TP08633</name><time>2020-01-27T14:19:33Z</time></trkpt>
   <trkpt lat="31.162796" lon="35.334554"><ele>23.4</ele><name>TP08634</name><time>2020-01-27T14:19:34Z</time></trkpt>
   <trkpt lat="31.162671" lon="35.334582"><ele>23.1</ele><name>TP08635</name><time>2020-01-27T14:19:36Z</time></trkpt>
   <trkpt lat="31.162546" lon="35.334608"><ele>22.6</ele><name>TP08636</name><time>2020-01-27T14:19:38Z</time></trkpt>
   <trkpt lat="31.162421" lon="35.334618"><ele>22.1</ele><name>TP08637</name><time>2020-01-27T14:19:40Z</time></trkpt>
   <trkpt lat="31.162363" lon="35.334667"><ele>21.7</ele><name>TP08638</name><time>2020-01-27T14:19:42Z</time></trkpt>
   <trkpt lat="31.162358" lon="35.334715"><ele>21.5</ele><name>TP08639</name><time>2020-01-27T14:19:43Z</time></trkpt>
   <trkpt lat="31.162358" lon="35.334761"><ele>21.4</ele><name>TP08640</name><time>2020-01-27T14:19:44Z</time></trkpt>
   <trkpt lat="31.162338" lon="35.334878"><ele>21</ele><name>TP08641</name><time>2020-01-27T14:19:46Z</time></trkpt>
   <trkpt lat="31.162308" lon="35.334927"><ele>20.6</ele><name>TP08642</name><time>2020-01-27T14:19:47Z</time></trkpt>
   <trkpt lat="31.162288" lon="35.334969"><ele>20.3</ele><name>TP08643</name><time>2020-01-27T14:19:49Z</time></trkpt>
   <trkpt lat="31.162235" lon="35.334988"><ele>19.9</ele><name>TP08644</name><time>2020-01-27T14:19:50Z</time></trkpt>
   <trkpt lat="31.162206" lon="35.335003"><ele>19.7</ele><name>TP08645</name><time>2020-01-27T14:19:51Z</time></trkpt>
   <trkpt lat="31.162164" lon="35.335031"><ele>19.4</ele><name>TP08646</name><time>2020-01-27T14:19:52Z</time></trkpt>
   <trkpt lat="31.162098" lon="35.335099"><ele>19.1</ele><name>TP08647</name><time>2020-01-27T14:19:54Z</time></trkpt>
   <trkpt lat="31.162037" lon="35.335182"><ele>18.7</ele><name>TP08648</name><time>2020-01-27T14:19:55Z</time></trkpt>
   <trkpt lat="31.161996" lon="35.335237"><ele>18.5</ele><name>TP08649</name><time>2020-01-27T14:19:56Z</time></trkpt>
   <trkpt lat="31.161901" lon="35.335305"><ele>18.2</ele><name>TP08650</name><time>2020-01-27T14:19:58Z</time></trkpt>
   <trkpt lat="31.161797" lon="35.335341"><ele>17.8</ele><name>TP08651</name><time>2020-01-27T14:20:00Z</time></trkpt>
   <trkpt lat="31.16175" lon="35.335374"><ele>17.5</ele><name>TP08652</name><time>2020-01-27T14:20:01Z</time></trkpt>
   <trkpt lat="31.161699" lon="35.335492"><ele>16.5</ele><name>TP08653</name><time>2020-01-27T14:20:03Z</time></trkpt>
   <trkpt lat="31.161689" lon="35.335561"><ele>15.9</ele><name>TP08654</name><time>2020-01-27T14:20:04Z</time></trkpt>
   <trkpt lat="31.161634" lon="35.335681"><ele>14.3</ele><name>TP08655</name><time>2020-01-27T14:20:06Z</time></trkpt>
   <trkpt lat="31.161579" lon="35.33571"><ele>13.7</ele><name>TP08656</name><time>2020-01-27T14:20:07Z</time></trkpt>
   <trkpt lat="31.161482" lon="35.335764"><ele>12.8</ele><name>TP08657</name><time>2020-01-27T14:20:09Z</time></trkpt>
   <trkpt lat="31.161431" lon="35.3358"><ele>12.3</ele><name>TP08658</name><time>2020-01-27T14:20:10Z</time></trkpt>
   <trkpt lat="31.161329" lon="35.335804"><ele>11.4</ele><name>TP08659</name><time>2020-01-27T14:20:12Z</time></trkpt>
   <trkpt lat="31.161306" lon="35.335712"><ele>10.8</ele><name>TP08660</name><time>2020-01-27T14:20:14Z</time></trkpt>
   <trkpt lat="31.161319" lon="35.335661"><ele>11</ele><name>TP08661</name><time>2020-01-27T14:20:15Z</time></trkpt>
   <trkpt lat="31.161346" lon="35.335627"><ele>11.3</ele><name>TP08662</name><time>2020-01-27T14:20:16Z</time></trkpt>
   <trkpt lat="31.161417" lon="35.33559"><ele>11.9</ele><name>TP08663</name><time>2020-01-27T14:20:18Z</time></trkpt>
   <trkpt lat="31.161444" lon="35.335568"><ele>12.1</ele><name>TP08664</name><time>2020-01-27T14:20:19Z</time></trkpt>
   <trkpt lat="31.161493" lon="35.335531"><ele>12.6</ele><name>TP08665</name><time>2020-01-27T14:20:21Z</time></trkpt>
   <trkpt lat="31.161478" lon="35.335457"><ele>13.1</ele><name>TP08666</name><time>2020-01-27T14:20:22Z</time></trkpt>
   <trkpt lat="31.161449" lon="35.335396"><ele>13.6</ele><name>TP08667</name><time>2020-01-27T14:20:23Z</time></trkpt>
   <trkpt lat="31.16143" lon="35.33531"><ele>14.2</ele><name>TP08668</name><time>2020-01-27T14:20:24Z</time></trkpt>
   <trkpt lat="31.161431" lon="35.33525"><ele>14.8</ele><name>TP08669</name><time>2020-01-27T14:20:25Z</time></trkpt>
   <trkpt lat="31.161431" lon="35.335142"><ele>15.9</ele><name>TP08670</name><time>2020-01-27T14:20:27Z</time></trkpt>
   <trkpt lat="31.161419" lon="35.335081"><ele>16.5</ele><name>TP08671</name><time>2020-01-27T14:20:29Z</time></trkpt>
   <trkpt lat="31.161409" lon="35.335054"><ele>16.2</ele><name>TP08672</name><time>2020-01-27T14:20:30Z</time></trkpt>
   <trkpt lat="31.161338" lon="35.334991"><ele>15.1</ele><name>TP08673</name><time>2020-01-27T14:20:31Z</time></trkpt>
   <trkpt lat="31.161285" lon="35.33499"><ele>14.4</ele><name>TP08674</name><time>2020-01-27T14:20:32Z</time></trkpt>
   <trkpt lat="31.161233" lon="35.335016"><ele>13.8</ele><name>TP08675</name><time>2020-01-27T14:20:33Z</time></trkpt>
   <trkpt lat="31.161147" lon="35.335106"><ele>12.7</ele><name>TP08676</name><time>2020-01-27T14:20:35Z</time></trkpt>
   <trkpt lat="31.161052" lon="35.335163"><ele>11.8</ele><name>TP08677</name><time>2020-01-27T14:20:37Z</time></trkpt>
   <trkpt lat="31.161036" lon="35.335305"><ele>10.8</ele><name>TP08678</name><time>2020-01-27T14:20:39Z</time></trkpt>
   <trkpt lat="31.161009" lon="35.335433"><ele>9.8</ele><name>TP08679</name><time>2020-01-27T14:20:41Z</time></trkpt>
   <trkpt lat="31.160972" lon="35.335456"><ele>9.5</ele><name>TP08680</name><time>2020-01-27T14:20:42Z</time></trkpt>
   <trkpt lat="31.160947" lon="35.335458"><ele>9.2</ele><name>TP08681</name><time>2020-01-27T14:20:44Z</time></trkpt>
   <trkpt lat="31.16095" lon="35.335456"><ele>9.2</ele><name>TP08682</name><time>2020-01-27T14:20:45Z</time></trkpt>
   <trkpt lat="31.160954" lon="35.335453"><ele>9.2</ele><name>TP08683</name><time>2020-01-27T14:20:47Z</time></trkpt>
   <trkpt lat="31.160954" lon="35.335453"><ele>9.2</ele><name>TP08684</name><time>2020-01-27T14:20:48Z</time></trkpt>
   <trkpt lat="31.160954" lon="35.335453"><ele>9.2</ele><name>TP08685</name><time>2020-01-27T14:20:49Z</time></trkpt>
   <trkpt lat="31.160954" lon="35.335453"><ele>9.2</ele><name>TP08686</name><time>2020-01-27T14:20:50Z</time></trkpt>
   <trkpt lat="31.160954" lon="35.335453"><ele>9.2</ele><name>TP08687</name><time>2020-01-27T14:20:51Z</time></trkpt>
   <trkpt lat="31.160959" lon="35.33546"><ele>9.1</ele><name>TP08688</name><time>2020-01-27T14:20:53Z</time></trkpt>
   <trkpt lat="31.160964" lon="35.335472"><ele>9</ele><name>TP08689</name><time>2020-01-27T14:20:55Z</time></trkpt>
   <trkpt lat="31.160971" lon="35.335483"><ele>8.9</ele><name>TP08690</name><time>2020-01-27T14:20:56Z</time></trkpt>
   <trkpt lat="31.160977" lon="35.335493"><ele>8.8</ele><name>TP08691</name><time>2020-01-27T14:20:57Z</time></trkpt>
   <trkpt lat="31.160979" lon="35.335497"><ele>8.7</ele><name>TP08692</name><time>2020-01-27T14:20:58Z</time></trkpt>
   <trkpt lat="31.160973" lon="35.335504"><ele>8.6</ele><name>TP08693</name><time>2020-01-27T14:21:00Z</time></trkpt>
   <trkpt lat="31.160972" lon="35.335518"><ele>8.5</ele><name>TP08694</name><time>2020-01-27T14:21:01Z</time></trkpt>
   <trkpt lat="31.160967" lon="35.335529"><ele>8.4</ele><name>TP08695</name><time>2020-01-27T14:21:03Z</time></trkpt>
   <trkpt lat="31.160971" lon="35.335544"><ele>8.3</ele><name>TP08696</name><time>2020-01-27T14:21:05Z</time></trkpt>
   <trkpt lat="31.160971" lon="35.335555"><ele>8.2</ele><name>TP08697</name><time>2020-01-27T14:21:06Z</time></trkpt>
   <trkpt lat="31.160973" lon="35.335562"><ele>8.2</ele><name>TP08698</name><time>2020-01-27T14:21:07Z</time></trkpt>
   <trkpt lat="31.160968" lon="35.335584"><ele>8</ele><name>TP08699</name><time>2020-01-27T14:21:08Z</time></trkpt>
   <trkpt lat="31.160963" lon="35.335595"><ele>7.9</ele><name>TP08700</name><time>2020-01-27T14:21:10Z</time></trkpt>
   <trkpt lat="31.160959" lon="35.335607"><ele>7.8</ele><name>TP08701</name><time>2020-01-27T14:21:11Z</time></trkpt>
   <trkpt lat="31.160953" lon="35.335624"><ele>7.6</ele><name>TP08702</name><time>2020-01-27T14:21:12Z</time></trkpt>
   <trkpt lat="31.160947" lon="35.335633"><ele>7.6</ele><name>TP08703</name><time>2020-01-27T14:21:13Z</time></trkpt>
   <trkpt lat="31.16094" lon="35.335642"><ele>7.5</ele><name>TP08704</name><time>2020-01-27T14:21:14Z</time></trkpt>
   <trkpt lat="31.160932" lon="35.335651"><ele>7.4</ele><name>TP08705</name><time>2020-01-27T14:21:16Z</time></trkpt>
   <trkpt lat="31.160924" lon="35.335653"><ele>7.3</ele><name>TP08706</name><time>2020-01-27T14:21:18Z</time></trkpt>
   <trkpt lat="31.160921" lon="35.335651"><ele>7.2</ele><name>TP08707</name><time>2020-01-27T14:21:19Z</time></trkpt>
   <trkpt lat="31.16092" lon="35.335648"><ele>7.2</ele><name>TP08708</name><time>2020-01-27T14:21:20Z</time></trkpt>
   <trkpt lat="31.160917" lon="35.335642"><ele>7.2</ele><name>TP08709</name><time>2020-01-27T14:21:22Z</time></trkpt>
   <trkpt lat="31.160908" lon="35.335649"><ele>7.1</ele><name>TP08710</name><time>2020-01-27T14:21:24Z</time></trkpt>
   <trkpt lat="31.1609" lon="35.335654"><ele>7</ele><name>TP08711</name><time>2020-01-27T14:21:26Z</time></trkpt>
   <trkpt lat="31.160895" lon="35.335649"><ele>6.9</ele><name>TP08712</name><time>2020-01-27T14:21:28Z</time></trkpt>
   <trkpt lat="31.160888" lon="35.335651"><ele>6.9</ele><name>TP08713</name><time>2020-01-27T14:21:30Z</time></trkpt>
   <trkpt lat="31.160879" lon="35.335669"><ele>6.7</ele><name>TP08714</name><time>2020-01-27T14:21:32Z</time></trkpt>
   <trkpt lat="31.160855" lon="35.335692"><ele>6.5</ele><name>TP08715</name><time>2020-01-27T14:21:33Z</time></trkpt>
   <trkpt lat="31.160824" lon="35.335724"><ele>6.2</ele><name>TP08716</name><time>2020-01-27T14:21:35Z</time></trkpt>
   <trkpt lat="31.160795" lon="35.335743"><ele>5.9</ele><name>TP08717</name><time>2020-01-27T14:21:36Z</time></trkpt>
   <trkpt lat="31.160761" lon="35.335762"><ele>5.7</ele><name>TP08718</name><time>2020-01-27T14:21:37Z</time></trkpt>
   <trkpt lat="31.160717" lon="35.33579"><ele>5.4</ele><name>TP08719</name><time>2020-01-27T14:21:38Z</time></trkpt>
   <trkpt lat="31.160667" lon="35.335826"><ele>5</ele><name>TP08720</name><time>2020-01-27T14:21:40Z</time></trkpt>
   <trkpt lat="31.160625" lon="35.335856"><ele>4.7</ele><name>TP08721</name><time>2020-01-27T14:21:41Z</time></trkpt>
   <trkpt lat="31.160558" lon="35.33589"><ele>4.1</ele><name>TP08722</name><time>2020-01-27T14:21:42Z</time></trkpt>
   <trkpt lat="31.16049" lon="35.335915"><ele>3.5</ele><name>TP08723</name><time>2020-01-27T14:21:44Z</time></trkpt>
   <trkpt lat="31.160442" lon="35.335935"><ele>3.1</ele><name>TP08724</name><time>2020-01-27T14:21:45Z</time></trkpt>
   <trkpt lat="31.160384" lon="35.335963"><ele>2.5</ele><name>TP08725</name><time>2020-01-27T14:21:46Z</time></trkpt>
   <trkpt lat="31.160288" lon="35.336041"><ele>1</ele><name>TP08726</name><time>2020-01-27T14:21:48Z</time></trkpt>
   <trkpt lat="31.160254" lon="35.336091"><ele>0.4</ele><name>TP08727</name><time>2020-01-27T14:21:49Z</time></trkpt>
   <trkpt lat="31.160192" lon="35.33619"><ele>-0.7</ele><name>TP08728</name><time>2020-01-27T14:21:51Z</time></trkpt>
   <trkpt lat="31.160147" lon="35.336288"><ele>-1.4</ele><name>TP08729</name><time>2020-01-27T14:21:53Z</time></trkpt>
   <trkpt lat="31.160122" lon="35.336377"><ele>-2.1</ele><name>TP08730</name><time>2020-01-27T14:21:55Z</time></trkpt>
   <trkpt lat="31.160097" lon="35.336411"><ele>-2.5</ele><name>TP08731</name><time>2020-01-27T14:21:56Z</time></trkpt>
   <trkpt lat="31.159999" lon="35.33646"><ele>-3.5</ele><name>TP08732</name><time>2020-01-27T14:21:58Z</time></trkpt>
   <trkpt lat="31.159876" lon="35.336525"><ele>-4.8</ele><name>TP08733</name><time>2020-01-27T14:22:00Z</time></trkpt>
   <trkpt lat="31.159813" lon="35.336565"><ele>-5.5</ele><name>TP08734</name><time>2020-01-27T14:22:01Z</time></trkpt>
   <trkpt lat="31.159748" lon="35.336607"><ele>-6.3</ele><name>TP08735</name><time>2020-01-27T14:22:02Z</time></trkpt>
   <trkpt lat="31.159688" lon="35.336657"><ele>-6.9</ele><name>TP08736</name><time>2020-01-27T14:22:03Z</time></trkpt>
   <trkpt lat="31.159597" lon="35.336773"><ele>-8</ele><name>TP08737</name><time>2020-01-27T14:22:05Z</time></trkpt>
   <trkpt lat="31.159556" lon="35.33683"><ele>-8.4</ele><name>TP08738</name><time>2020-01-27T14:22:06Z</time></trkpt>
   <trkpt lat="31.159513" lon="35.336888"><ele>-8.9</ele><name>TP08739</name><time>2020-01-27T14:22:07Z</time></trkpt>
   <trkpt lat="31.159412" lon="35.336981"><ele>-9.6</ele><name>TP08740</name><time>2020-01-27T14:22:09Z</time></trkpt>
   <trkpt lat="31.159323" lon="35.337075"><ele>-9.9</ele><name>TP08741</name><time>2020-01-27T14:22:11Z</time></trkpt>
   <trkpt lat="31.159288" lon="35.337119"><ele>-10</ele><name>TP08742</name><time>2020-01-27T14:22:12Z</time></trkpt>
   <trkpt lat="31.159228" lon="35.337152"><ele>-10.1</ele><name>TP08743</name><time>2020-01-27T14:22:14Z</time></trkpt>
   <trkpt lat="31.159166" lon="35.337153"><ele>-10.4</ele><name>TP08744</name><time>2020-01-27T14:22:16Z</time></trkpt>
   <trkpt lat="31.159107" lon="35.337146"><ele>-10.7</ele><name>TP08745</name><time>2020-01-27T14:22:18Z</time></trkpt>
   <trkpt lat="31.159055" lon="35.337124"><ele>-11.2</ele><name>TP08746</name><time>2020-01-27T14:22:20Z</time></trkpt>
   <trkpt lat="31.159024" lon="35.337124"><ele>-11.5</ele><name>TP08747</name><time>2020-01-27T14:22:21Z</time></trkpt>
   <trkpt lat="31.158902" lon="35.337148"><ele>-12.8</ele><name>TP08748</name><time>2020-01-27T14:22:23Z</time></trkpt>
   <trkpt lat="31.158849" lon="35.337148"><ele>-13.4</ele><name>TP08749</name><time>2020-01-27T14:22:24Z</time></trkpt>
   <trkpt lat="31.158786" lon="35.337175"><ele>-14.2</ele><name>TP08750</name><time>2020-01-27T14:22:26Z</time></trkpt>
   <trkpt lat="31.158757" lon="35.33719"><ele>-14.6</ele><name>TP08751</name><time>2020-01-27T14:22:27Z</time></trkpt>
   <trkpt lat="31.158699" lon="35.337222"><ele>-15.3</ele><name>TP08752</name><time>2020-01-27T14:22:28Z</time></trkpt>
   <trkpt lat="31.158644" lon="35.337256"><ele>-16</ele><name>TP08753</name><time>2020-01-27T14:22:29Z</time></trkpt>
   <trkpt lat="31.158533" lon="35.337297"><ele>-17.3</ele><name>TP08754</name><time>2020-01-27T14:22:31Z</time></trkpt>
   <trkpt lat="31.158478" lon="35.337313"><ele>-17.8</ele><name>TP08755</name><time>2020-01-27T14:22:32Z</time></trkpt>
   <trkpt lat="31.158426" lon="35.33733"><ele>-18.2</ele><name>TP08756</name><time>2020-01-27T14:22:33Z</time></trkpt>
   <trkpt lat="31.158373" lon="35.337341"><ele>-18.5</ele><name>TP08757</name><time>2020-01-27T14:22:34Z</time></trkpt>
   <trkpt lat="31.158268" lon="35.33735"><ele>-19.1</ele><name>TP08758</name><time>2020-01-27T14:22:36Z</time></trkpt>
   <trkpt lat="31.158214" lon="35.337359"><ele>-19.3</ele><name>TP08759</name><time>2020-01-27T14:22:37Z</time></trkpt>
   <trkpt lat="31.158095" lon="35.337371"><ele>-19.9</ele><name>TP08760</name><time>2020-01-27T14:22:39Z</time></trkpt>
   <trkpt lat="31.158034" lon="35.33737"><ele>-20.3</ele><name>TP08761</name><time>2020-01-27T14:22:40Z</time></trkpt>
   <trkpt lat="31.157976" lon="35.337366"><ele>-20.6</ele><name>TP08762</name><time>2020-01-27T14:22:41Z</time></trkpt>
   <trkpt lat="31.157859" lon="35.337357"><ele>-21.5</ele><name>TP08763</name><time>2020-01-27T14:22:43Z</time></trkpt>
   <trkpt lat="31.157742" lon="35.337364"><ele>-22.5</ele><name>TP08764</name><time>2020-01-27T14:22:45Z</time></trkpt>
   <trkpt lat="31.1577" lon="35.3374"><ele>-22.9</ele><name>TP08765</name><time>2020-01-27T14:22:46Z</time></trkpt>
   <trkpt lat="31.157609" lon="35.337483"><ele>-24.1</ele><name>TP08766</name><time>2020-01-27T14:22:48Z</time></trkpt>
   <trkpt lat="31.157551" lon="35.337496"><ele>-24.7</ele><name>TP08767</name><time>2020-01-27T14:22:49Z</time></trkpt>
   <trkpt lat="31.15745" lon="35.337453"><ele>-25.9</ele><name>TP08768</name><time>2020-01-27T14:22:51Z</time></trkpt>
   <trkpt lat="31.157376" lon="35.337388"><ele>-26.8</ele><name>TP08769</name><time>2020-01-27T14:22:53Z</time></trkpt>
   <trkpt lat="31.157316" lon="35.337366"><ele>-27.3</ele><name>TP08770</name><time>2020-01-27T14:22:55Z</time></trkpt>
   <trkpt lat="31.157281" lon="35.337352"><ele>-27.6</ele><name>TP08771</name><time>2020-01-27T14:22:56Z</time></trkpt>
   <trkpt lat="31.157209" lon="35.337307"><ele>-28.3</ele><name>TP08772</name><time>2020-01-27T14:22:58Z</time></trkpt>
   <trkpt lat="31.157171" lon="35.337284"><ele>-28.7</ele><name>TP08773</name><time>2020-01-27T14:22:59Z</time></trkpt>
   <trkpt lat="31.157128" lon="35.337264"><ele>-29.1</ele><name>TP08774</name><time>2020-01-27T14:23:00Z</time></trkpt>
   <trkpt lat="31.157073" lon="35.337255"><ele>-29.6</ele><name>TP08775</name><time>2020-01-27T14:23:01Z</time></trkpt>
   <trkpt lat="31.156979" lon="35.337221"><ele>-30.4</ele><name>TP08776</name><time>2020-01-27T14:23:03Z</time></trkpt>
   <trkpt lat="31.156938" lon="35.3372"><ele>-30.8</ele><name>TP08777</name><time>2020-01-27T14:23:05Z</time></trkpt>
   <trkpt lat="31.156902" lon="35.337193"><ele>-31.1</ele><name>TP08778</name><time>2020-01-27T14:23:06Z</time></trkpt>
   <trkpt lat="31.156834" lon="35.337195"><ele>-31.8</ele><name>TP08779</name><time>2020-01-27T14:23:07Z</time></trkpt>
   <trkpt lat="31.156683" lon="35.337148"><ele>-33.3</ele><name>TP08780</name><time>2020-01-27T14:23:09Z</time></trkpt>
   <trkpt lat="31.156631" lon="35.33714"><ele>-33.8</ele><name>TP08781</name><time>2020-01-27T14:23:10Z</time></trkpt>
   <trkpt lat="31.156513" lon="35.337129"><ele>-35</ele><name>TP08782</name><time>2020-01-27T14:23:12Z</time></trkpt>
   <trkpt lat="31.156432" lon="35.337179"><ele>-36.1</ele><name>TP08783</name><time>2020-01-27T14:23:14Z</time></trkpt>
   <trkpt lat="31.156393" lon="35.337211"><ele>-36.6</ele><name>TP08784</name><time>2020-01-27T14:23:15Z</time></trkpt>
   <trkpt lat="31.156351" lon="35.337235"><ele>-37.1</ele><name>TP08785</name><time>2020-01-27T14:23:16Z</time></trkpt>
   <trkpt lat="31.156318" lon="35.337247"><ele>-37.4</ele><name>TP08786</name><time>2020-01-27T14:23:19Z</time></trkpt>
   <trkpt lat="31.15627" lon="35.337251"><ele>-37.8</ele><name>TP08787</name><time>2020-01-27T14:23:20Z</time></trkpt>
   <trkpt lat="31.156161" lon="35.337271"><ele>-38.7</ele><name>TP08788</name><time>2020-01-27T14:23:21Z</time></trkpt>
   <trkpt lat="31.156091" lon="35.337292"><ele>-39.3</ele><name>TP08789</name><time>2020-01-27T14:23:24Z</time></trkpt>
   <trkpt lat="31.156085" lon="35.337304"><ele>-39.4</ele><name>TP08790</name><time>2020-01-27T14:23:25Z</time></trkpt>
   <trkpt lat="31.15608" lon="35.337312"><ele>-39.5</ele><name>TP08791</name><time>2020-01-27T14:23:26Z</time></trkpt>
   <trkpt lat="31.156073" lon="35.337306"><ele>-39.6</ele><name>TP08792</name><time>2020-01-27T14:23:28Z</time></trkpt>
   <trkpt lat="31.156066" lon="35.337301"><ele>-39.7</ele><name>TP08793</name><time>2020-01-27T14:23:30Z</time></trkpt>
   <trkpt lat="31.156058" lon="35.337295"><ele>-39.8</ele><name>TP08794</name><time>2020-01-27T14:23:31Z</time></trkpt>
   <trkpt lat="31.156051" lon="35.33729"><ele>-39.9</ele><name>TP08795</name><time>2020-01-27T14:23:33Z</time></trkpt>
   <trkpt lat="31.156044" lon="35.337284"><ele>-40</ele><name>TP08796</name><time>2020-01-27T14:23:34Z</time></trkpt>
   <trkpt lat="31.156037" lon="35.337279"><ele>-40.1</ele><name>TP08797</name><time>2020-01-27T14:23:35Z</time></trkpt>
   <trkpt lat="31.15603" lon="35.337273"><ele>-40.2</ele><name>TP08798</name><time>2020-01-27T14:23:36Z</time></trkpt>
   <trkpt lat="31.156023" lon="35.337268"><ele>-40.3</ele><name>TP08799</name><time>2020-01-27T14:23:39Z</time></trkpt>
   <trkpt lat="31.156016" lon="35.337262"><ele>-40.4</ele><name>TP08800</name><time>2020-01-27T14:23:42Z</time></trkpt>
   <trkpt lat="31.156009" lon="35.337257"><ele>-40.5</ele><name>TP08801</name><time>2020-01-27T14:23:44Z</time></trkpt>
   <trkpt lat="31.156001" lon="35.337251"><ele>-40.6</ele><name>TP08802</name><time>2020-01-27T14:23:47Z</time></trkpt>
   <trkpt lat="31.155994" lon="35.337246"><ele>-40.7</ele><name>TP08803</name><time>2020-01-27T14:23:50Z</time></trkpt>
   <trkpt lat="31.155987" lon="35.33724"><ele>-40.8</ele><name>TP08804</name><time>2020-01-27T14:23:51Z</time></trkpt>
   <trkpt lat="31.15598" lon="35.337235"><ele>-40.9</ele><name>TP08805</name><time>2020-01-27T14:23:52Z</time></trkpt>
   <trkpt lat="31.155909" lon="35.337258"><ele>-41.8</ele><name>TP08806</name><time>2020-01-27T14:23:54Z</time></trkpt>
   <trkpt lat="31.155835" lon="35.337302"><ele>-42.7</ele><name>TP08807</name><time>2020-01-27T14:23:57Z</time></trkpt>
   <trkpt lat="31.155771" lon="35.337369"><ele>-43.5</ele><name>TP08808</name><time>2020-01-27T14:23:58Z</time></trkpt>
   <trkpt lat="31.155703" lon="35.337406"><ele>-44</ele><name>TP08809</name><time>2020-01-27T14:24:01Z</time></trkpt>
   <trkpt lat="31.155596" lon="35.337451"><ele>-45</ele><name>TP08810</name><time>2020-01-27T14:24:02Z</time></trkpt>
   <trkpt lat="31.155534" lon="35.337453"><ele>-45.8</ele><name>TP08811</name><time>2020-01-27T14:24:03Z</time></trkpt>
   <trkpt lat="31.155468" lon="35.337451"><ele>-46.8</ele><name>TP08812</name><time>2020-01-27T14:24:04Z</time></trkpt>
   <trkpt lat="31.155357" lon="35.337494"><ele>-48.8</ele><name>TP08813</name><time>2020-01-27T14:24:06Z</time></trkpt>
   <trkpt lat="31.155309" lon="35.337518"><ele>-49.7</ele><name>TP08814</name><time>2020-01-27T14:24:07Z</time></trkpt>
   <trkpt lat="31.155261" lon="35.337533"><ele>-50.6</ele><name>TP08815</name><time>2020-01-27T14:24:08Z</time></trkpt>
   <trkpt lat="31.155217" lon="35.337561"><ele>-51.4</ele><name>TP08816</name><time>2020-01-27T14:24:11Z</time></trkpt>
   <trkpt lat="31.155188" lon="35.337575"><ele>-52</ele><name>TP08817</name><time>2020-01-27T14:24:12Z</time></trkpt>
   <trkpt lat="31.155083" lon="35.337604"><ele>-53.8</ele><name>TP08818</name><time>2020-01-27T14:24:14Z</time></trkpt>
   <trkpt lat="31.154994" lon="35.337607"><ele>-55.1</ele><name>TP08819</name><time>2020-01-27T14:24:17Z</time></trkpt>
   <trkpt lat="31.154936" lon="35.337602"><ele>-55.9</ele><name>TP08820</name><time>2020-01-27T14:24:18Z</time></trkpt>
   <trkpt lat="31.154886" lon="35.337607"><ele>-56.6</ele><name>TP08821</name><time>2020-01-27T14:24:21Z</time></trkpt>
   <trkpt lat="31.154834" lon="35.337614"><ele>-57.2</ele><name>TP08822</name><time>2020-01-27T14:24:22Z</time></trkpt>
   <trkpt lat="31.154796" lon="35.337621"><ele>-57.7</ele><name>TP08823</name><time>2020-01-27T14:24:23Z</time></trkpt>
   <trkpt lat="31.154739" lon="35.337604"><ele>-58.4</ele><name>TP08824</name><time>2020-01-27T14:24:24Z</time></trkpt>
   <trkpt lat="31.154694" lon="35.337624"><ele>-58.9</ele><name>TP08825</name><time>2020-01-27T14:24:27Z</time></trkpt>
   <trkpt lat="31.154691" lon="35.33763"><ele>-59</ele><name>TP08826</name><time>2020-01-27T14:24:28Z</time></trkpt>
   <trkpt lat="31.154684" lon="35.337632"><ele>-59.1</ele><name>TP08827</name><time>2020-01-27T14:24:30Z</time></trkpt>
   <trkpt lat="31.154679" lon="35.337631"><ele>-59.1</ele><name>TP08828</name><time>2020-01-27T14:24:32Z</time></trkpt>
   <trkpt lat="31.154677" lon="35.337631"><ele>-59.1</ele><name>TP08829</name><time>2020-01-27T14:24:33Z</time></trkpt>
   <trkpt lat="31.154675" lon="35.337635"><ele>-59.2</ele><name>TP08830</name><time>2020-01-27T14:24:35Z</time></trkpt>
   <trkpt lat="31.154678" lon="35.337636"><ele>-59.2</ele><name>TP08831</name><time>2020-01-27T14:24:38Z</time></trkpt>
   <trkpt lat="31.154671" lon="35.337642"><ele>-59.3</ele><name>TP08832</name><time>2020-01-27T14:24:39Z</time></trkpt>
   <trkpt lat="31.154669" lon="35.337644"><ele>-59.3</ele><name>TP08833</name><time>2020-01-27T14:24:40Z</time></trkpt>
   <trkpt lat="31.154661" lon="35.337649"><ele>-59.5</ele><name>TP08834</name><time>2020-01-27T14:24:42Z</time></trkpt>
   <trkpt lat="31.154656" lon="35.337651"><ele>-59.5</ele><name>TP08835</name><time>2020-01-27T14:24:44Z</time></trkpt>
   <trkpt lat="31.154652" lon="35.337653"><ele>-59.6</ele><name>TP08836</name><time>2020-01-27T14:24:46Z</time></trkpt>
   <trkpt lat="31.154692" lon="35.337631"><ele>-60.1</ele><name>TP08837</name><time>2020-01-27T14:24:48Z</time></trkpt>
   <trkpt lat="31.154703" lon="35.337624"><ele>-60.2</ele><name>TP08838</name><time>2020-01-27T14:24:49Z</time></trkpt>
   <trkpt lat="31.154708" lon="35.337621"><ele>-60.3</ele><name>TP08839</name><time>2020-01-27T14:24:50Z</time></trkpt>
   <trkpt lat="31.154711" lon="35.337619"><ele>-60.3</ele><name>TP08840</name><time>2020-01-27T14:24:51Z</time></trkpt>
   <trkpt lat="31.154713" lon="35.337618"><ele>-60.4</ele><name>TP08841</name><time>2020-01-27T14:24:53Z</time></trkpt>
   <trkpt lat="31.154713" lon="35.337618"><ele>-60.4</ele><name>TP08842</name><time>2020-01-27T14:24:54Z</time></trkpt>
   <trkpt lat="31.154713" lon="35.337618"><ele>-60.4</ele><name>TP08843</name><time>2020-01-27T14:24:56Z</time></trkpt>
   <trkpt lat="31.154713" lon="35.337618"><ele>-60.4</ele><name>TP08844</name><time>2020-01-27T14:24:58Z</time></trkpt>
   <trkpt lat="31.154713" lon="35.337618"><ele>-60.4</ele><name>TP08845</name><time>2020-01-27T14:25:00Z</time></trkpt>
   <trkpt lat="31.154713" lon="35.337618"><ele>-60.4</ele><name>TP08846</name><time>2020-01-27T14:25:02Z</time></trkpt>
   <trkpt lat="31.154713" lon="35.337618"><ele>-60.4</ele><name>TP08847</name><time>2020-01-27T14:25:04Z</time></trkpt>
   <trkpt lat="31.154713" lon="35.337618"><ele>-60.4</ele><name>TP08848</name><time>2020-01-27T14:25:05Z</time></trkpt>
   <trkpt lat="31.154713" lon="35.337618"><ele>-60.4</ele><name>TP08849</name><time>2020-01-27T14:25:07Z</time></trkpt>
   <trkpt lat="31.154713" lon="35.337618"><ele>-60.4</ele><name>TP08850</name><time>2020-01-27T14:25:09Z</time></trkpt>
   <trkpt lat="31.154713" lon="35.337618"><ele>-60.4</ele><name>TP08851</name><time>2020-01-27T14:25:10Z</time></trkpt>
   <trkpt lat="31.154713" lon="35.337618"><ele>-60.4</ele><name>TP08852</name><time>2020-01-27T14:25:11Z</time></trkpt>
   <trkpt lat="31.154713" lon="35.337618"><ele>-60.4</ele><name>TP08853</name><time>2020-01-27T14:25:13Z</time></trkpt>
   <trkpt lat="31.154713" lon="35.337618"><ele>-60.4</ele><name>TP08854</name><time>2020-01-27T14:25:14Z</time></trkpt>
   <trkpt lat="31.154713" lon="35.337618"><ele>-60.4</ele><name>TP08855</name><time>2020-01-27T14:25:16Z</time></trkpt>
   <trkpt lat="31.154713" lon="35.337618"><ele>-60.4</ele><name>TP08856</name><time>2020-01-27T14:25:18Z</time></trkpt>
   <trkpt lat="31.154713" lon="35.337618"><ele>-60.4</ele><name>TP08857</name><time>2020-01-27T14:25:20Z</time></trkpt>
   <trkpt lat="31.154713" lon="35.337618"><ele>-60.4</ele><name>TP08858</name><time>2020-01-27T14:25:21Z</time></trkpt>
   <trkpt lat="31.154713" lon="35.337618"><ele>-60.4</ele><name>TP08859</name><time>2020-01-27T14:25:23Z</time></trkpt>
   <trkpt lat="31.154713" lon="35.337618"><ele>-60.4</ele><name>TP08860</name><time>2020-01-27T14:25:24Z</time></trkpt>
   <trkpt lat="31.154713" lon="35.337618"><ele>-60.4</ele><name>TP08861</name><time>2020-01-27T14:25:26Z</time></trkpt>
   <trkpt lat="31.154713" lon="35.337618"><ele>-60.4</ele><name>TP08862</name><time>2020-01-27T14:25:28Z</time></trkpt>
   <trkpt lat="31.154713" lon="35.337618"><ele>-60.4</ele><name>TP08863</name><time>2020-01-27T14:25:30Z</time></trkpt>
   <trkpt lat="31.154713" lon="35.337618"><ele>-60.4</ele><name>TP08864</name><time>2020-01-27T14:25:31Z</time></trkpt>
   <trkpt lat="31.154713" lon="35.337618"><ele>-60.4</ele><name>TP08865</name><time>2020-01-27T14:25:33Z</time></trkpt>
   <trkpt lat="31.154713" lon="35.337618"><ele>-60.4</ele><name>TP08866</name><time>2020-01-27T14:25:35Z</time></trkpt>
   <trkpt lat="31.154713" lon="35.337618"><ele>-60.4</ele><name>TP08867</name><time>2020-01-27T14:25:36Z</time></trkpt>
   <trkpt lat="31.154713" lon="35.337618"><ele>-60.4</ele><name>TP08868</name><time>2020-01-27T14:25:38Z</time></trkpt>
   <trkpt lat="31.154713" lon="35.337618"><ele>-60.4</ele><name>TP08869</name><time>2020-01-27T14:25:39Z</time></trkpt>
   <trkpt lat="31.154713" lon="35.337618"><ele>-60.4</ele><name>TP08870</name><time>2020-01-27T14:25:40Z</time></trkpt>
   <trkpt lat="31.154713" lon="35.337618"><ele>-60.4</ele><name>TP08871</name><time>2020-01-27T14:25:41Z</time></trkpt>
   <trkpt lat="31.154713" lon="35.337618"><ele>-60.4</ele><name>TP08872</name><time>2020-01-27T14:25:43Z</time></trkpt>
   <trkpt lat="31.154713" lon="35.337618"><ele>-60.4</ele><name>TP08873</name><time>2020-01-27T14:25:45Z</time></trkpt>
   <trkpt lat="31.154713" lon="35.337618"><ele>-60.4</ele><name>TP08874</name><time>2020-01-27T14:25:47Z</time></trkpt>
   <trkpt lat="31.154713" lon="35.337618"><ele>-60.4</ele><name>TP08875</name><time>2020-01-27T14:25:49Z</time></trkpt>
   <trkpt lat="31.154713" lon="35.337618"><ele>-60.4</ele><name>TP08876</name><time>2020-01-27T14:25:51Z</time></trkpt>
   <trkpt lat="31.154713" lon="35.337618"><ele>-60.4</ele><name>TP08877</name><time>2020-01-27T14:25:52Z</time></trkpt>
   <trkpt lat="31.154713" lon="35.337618"><ele>-60.4</ele><name>TP08878</name><time>2020-01-27T14:25:53Z</time></trkpt>
   <trkpt lat="31.154713" lon="35.337618"><ele>-60.4</ele><name>TP08879</name><time>2020-01-27T14:25:55Z</time></trkpt>
   <trkpt lat="31.154713" lon="35.337618"><ele>-60.4</ele><name>TP08880</name><time>2020-01-27T14:25:56Z</time></trkpt>
   <trkpt lat="31.154713" lon="35.337618"><ele>-60.4</ele><name>TP08881</name><time>2020-01-27T14:25:58Z</time></trkpt>
   <trkpt lat="31.154713" lon="35.337618"><ele>-60.4</ele><name>TP08882</name><time>2020-01-27T14:26:00Z</time></trkpt>
   <trkpt lat="31.154713" lon="35.337618"><ele>-60.4</ele><name>TP08883</name><time>2020-01-27T14:26:01Z</time></trkpt>
   <trkpt lat="31.154713" lon="35.337618"><ele>-60.4</ele><name>TP08884</name><time>2020-01-27T14:26:03Z</time></trkpt>
   <trkpt lat="31.154713" lon="35.337618"><ele>-60.4</ele><name>TP08885</name><time>2020-01-27T14:26:04Z</time></trkpt>
   <trkpt lat="31.154713" lon="35.337618"><ele>-60.4</ele><name>TP08886</name><time>2020-01-27T14:26:06Z</time></trkpt>
   <trkpt lat="31.154713" lon="35.337618"><ele>-60.4</ele><name>TP08887</name><time>2020-01-27T14:26:07Z</time></trkpt>
   <trkpt lat="31.154713" lon="35.337618"><ele>-60.4</ele><name>TP08888</name><time>2020-01-27T14:26:09Z</time></trkpt>
   <trkpt lat="31.154713" lon="35.337618"><ele>-60.4</ele><name>TP08889</name><time>2020-01-27T14:26:11Z</time></trkpt>
   <trkpt lat="31.154713" lon="35.337618"><ele>-60.4</ele><name>TP08890</name><time>2020-01-27T14:26:12Z</time></trkpt>
   <trkpt lat="31.154713" lon="35.337618"><ele>-60.4</ele><name>TP08891</name><time>2020-01-27T14:26:13Z</time></trkpt>
   <trkpt lat="31.154713" lon="35.337618"><ele>-60.4</ele><name>TP08892</name><time>2020-01-27T14:26:14Z</time></trkpt>
   <trkpt lat="31.154713" lon="35.337618"><ele>-60.4</ele><name>TP08893</name><time>2020-01-27T14:26:15Z</time></trkpt>
   <trkpt lat="31.154713" lon="35.337618"><ele>-60.4</ele><name>TP08894</name><time>2020-01-27T14:26:17Z</time></trkpt>
   <trkpt lat="31.154713" lon="35.337618"><ele>-60.4</ele><name>TP08895</name><time>2020-01-27T14:26:18Z</time></trkpt>
   <trkpt lat="31.154713" lon="35.337618"><ele>-60.4</ele><name>TP08896</name><time>2020-01-27T14:26:19Z</time></trkpt>
   <trkpt lat="31.154713" lon="35.337618"><ele>-60.4</ele><name>TP08897</name><time>2020-01-27T14:26:21Z</time></trkpt>
   <trkpt lat="31.154711" lon="35.337623"><ele>-60.4</ele><name>TP08898</name><time>2020-01-27T14:26:23Z</time></trkpt>
   <trkpt lat="31.1547" lon="35.337644"><ele>-60.7</ele><name>TP08899</name><time>2020-01-27T14:26:26Z</time></trkpt>
   <trkpt lat="31.154678" lon="35.337658"><ele>-61</ele><name>TP08900</name><time>2020-01-27T14:26:27Z</time></trkpt>
   <trkpt lat="31.154644" lon="35.337673"><ele>-61.4</ele><name>TP08901</name><time>2020-01-27T14:26:28Z</time></trkpt>
   <trkpt lat="31.154616" lon="35.337692"><ele>-61.8</ele><name>TP08902</name><time>2020-01-27T14:26:29Z</time></trkpt>
   <trkpt lat="31.15458" lon="35.337727"><ele>-62.5</ele><name>TP08903</name><time>2020-01-27T14:26:30Z</time></trkpt>
   <trkpt lat="31.154549" lon="35.337757"><ele>-63.1</ele><name>TP08904</name><time>2020-01-27T14:26:32Z</time></trkpt>
   <trkpt lat="31.154467" lon="35.337811"><ele>-64.4</ele><name>TP08905</name><time>2020-01-27T14:26:33Z</time></trkpt>
   <trkpt lat="31.154429" lon="35.33785"><ele>-65.3</ele><name>TP08906</name><time>2020-01-27T14:26:34Z</time></trkpt>
   <trkpt lat="31.154377" lon="35.337877"><ele>-66.3</ele><name>TP08907</name><time>2020-01-27T14:26:37Z</time></trkpt>
   <trkpt lat="31.154334" lon="35.337893"><ele>-67.1</ele><name>TP08908</name><time>2020-01-27T14:26:38Z</time></trkpt>
   <trkpt lat="31.154294" lon="35.33792"><ele>-67.9</ele><name>TP08909</name><time>2020-01-27T14:26:39Z</time></trkpt>
   <trkpt lat="31.154235" lon="35.338053"><ele>-70.3</ele><name>TP08910</name><time>2020-01-27T14:26:40Z</time></trkpt>
   <trkpt lat="31.154192" lon="35.338114"><ele>-71.5</ele><name>TP08911</name><time>2020-01-27T14:26:43Z</time></trkpt>
   <trkpt lat="31.154163" lon="35.33812"><ele>-72.1</ele><name>TP08912</name><time>2020-01-27T14:26:44Z</time></trkpt>
   <trkpt lat="31.154146" lon="35.338132"><ele>-72.5</ele><name>TP08913</name><time>2020-01-27T14:26:45Z</time></trkpt>
   <trkpt lat="31.154127" lon="35.338174"><ele>-73.3</ele><name>TP08914</name><time>2020-01-27T14:26:47Z</time></trkpt>
   <trkpt lat="31.154036" lon="35.338281"><ele>-76.4</ele><name>TP08915</name><time>2020-01-27T14:26:48Z</time></trkpt>
   <trkpt lat="31.15398" lon="35.338326"><ele>-78</ele><name>TP08916</name><time>2020-01-27T14:26:49Z</time></trkpt>
   <trkpt lat="31.153886" lon="35.33841"><ele>-80.7</ele><name>TP08917</name><time>2020-01-27T14:26:52Z</time></trkpt>
   <trkpt lat="31.153863" lon="35.338464"><ele>-81.7</ele><name>TP08918</name><time>2020-01-27T14:26:55Z</time></trkpt>
   <trkpt lat="31.153812" lon="35.338504"><ele>-82.9</ele><name>TP08919</name><time>2020-01-27T14:26:56Z</time></trkpt>
   <trkpt lat="31.153809" lon="35.338505"><ele>-82.9</ele><name>TP08920</name><time>2020-01-27T14:26:57Z</time></trkpt>
   <trkpt lat="31.153807" lon="35.338504"><ele>-83</ele><name>TP08921</name><time>2020-01-27T14:26:58Z</time></trkpt>
   <trkpt lat="31.153804" lon="35.338504"><ele>-83</ele><name>TP08922</name><time>2020-01-27T14:27:00Z</time></trkpt>
   <trkpt lat="31.153802" lon="35.338506"><ele>-83.1</ele><name>TP08923</name><time>2020-01-27T14:27:02Z</time></trkpt>
   <trkpt lat="31.1538" lon="35.338508"><ele>-83.1</ele><name>TP08924</name><time>2020-01-27T14:27:04Z</time></trkpt>
   <trkpt lat="31.1538" lon="35.33851"><ele>-83.1</ele><name>TP08925</name><time>2020-01-27T14:27:06Z</time></trkpt>
   <trkpt lat="31.153799" lon="35.338511"><ele>-83.2</ele><name>TP08926</name><time>2020-01-27T14:27:07Z</time></trkpt>
   <trkpt lat="31.153798" lon="35.338511"><ele>-83.2</ele><name>TP08927</name><time>2020-01-27T14:27:08Z</time></trkpt>
   <trkpt lat="31.153797" lon="35.338513"><ele>-83.2</ele><name>TP08928</name><time>2020-01-27T14:27:10Z</time></trkpt>
   <trkpt lat="31.153823" lon="35.338498"><ele>-83.7</ele><name>TP08929</name><time>2020-01-27T14:27:12Z</time></trkpt>
   <trkpt lat="31.153826" lon="35.338495"><ele>-83.8</ele><name>TP08930</name><time>2020-01-27T14:27:13Z</time></trkpt>
   <trkpt lat="31.153827" lon="35.338494"><ele>-83.8</ele><name>TP08931</name><time>2020-01-27T14:27:14Z</time></trkpt>
   <trkpt lat="31.153829" lon="35.338493"><ele>-83.9</ele><name>TP08932</name><time>2020-01-27T14:27:16Z</time></trkpt>
   <trkpt lat="31.153829" lon="35.338493"><ele>-83.9</ele><name>TP08933</name><time>2020-01-27T14:27:18Z</time></trkpt>
   <trkpt lat="31.153829" lon="35.338493"><ele>-83.9</ele><name>TP08934</name><time>2020-01-27T14:27:20Z</time></trkpt>
   <trkpt lat="31.153829" lon="35.338493"><ele>-83.9</ele><name>TP08935</name><time>2020-01-27T14:27:22Z</time></trkpt>
   <trkpt lat="31.153829" lon="35.338493"><ele>-83.9</ele><name>TP08936</name><time>2020-01-27T14:27:23Z</time></trkpt>
   <trkpt lat="31.153829" lon="35.338493"><ele>-83.9</ele><name>TP08937</name><time>2020-01-27T14:27:24Z</time></trkpt>
   <trkpt lat="31.153829" lon="35.338493"><ele>-83.9</ele><name>TP08938</name><time>2020-01-27T14:27:25Z</time></trkpt>
   <trkpt lat="31.153829" lon="35.338493"><ele>-83.9</ele><name>TP08939</name><time>2020-01-27T14:27:27Z</time></trkpt>
   <trkpt lat="31.153829" lon="35.338493"><ele>-83.9</ele><name>TP08940</name><time>2020-01-27T14:27:28Z</time></trkpt>
   <trkpt lat="31.153829" lon="35.338493"><ele>-83.9</ele><name>TP08941</name><time>2020-01-27T14:27:30Z</time></trkpt>
   <trkpt lat="31.153829" lon="35.338493"><ele>-83.9</ele><name>TP08942</name><time>2020-01-27T14:27:31Z</time></trkpt>
   <trkpt lat="31.153829" lon="35.338493"><ele>-83.9</ele><name>TP08943</name><time>2020-01-27T14:27:33Z</time></trkpt>
   <trkpt lat="31.153829" lon="35.338493"><ele>-83.9</ele><name>TP08944</name><time>2020-01-27T14:27:34Z</time></trkpt>
   <trkpt lat="31.153829" lon="35.338493"><ele>-83.9</ele><name>TP08945</name><time>2020-01-27T14:27:36Z</time></trkpt>
   <trkpt lat="31.153829" lon="35.338493"><ele>-83.9</ele><name>TP08946</name><time>2020-01-27T14:27:37Z</time></trkpt>
   <trkpt lat="31.153829" lon="35.338493"><ele>-83.9</ele><name>TP08947</name><time>2020-01-27T14:27:39Z</time></trkpt>
   <trkpt lat="31.153829" lon="35.338493"><ele>-83.9</ele><name>TP08948</name><time>2020-01-27T14:27:41Z</time></trkpt>
   <trkpt lat="31.153829" lon="35.338493"><ele>-83.9</ele><name>TP08949</name><time>2020-01-27T14:27:43Z</time></trkpt>
   <trkpt lat="31.153829" lon="35.338493"><ele>-83.9</ele><name>TP08950</name><time>2020-01-27T14:27:44Z</time></trkpt>
   <trkpt lat="31.153829" lon="35.338493"><ele>-83.9</ele><name>TP08951</name><time>2020-01-27T14:27:45Z</time></trkpt>
   <trkpt lat="31.153829" lon="35.338493"><ele>-83.9</ele><name>TP08952</name><time>2020-01-27T14:27:47Z</time></trkpt>
   <trkpt lat="31.153829" lon="35.338493"><ele>-83.9</ele><name>TP08953</name><time>2020-01-27T14:27:49Z</time></trkpt>
   <trkpt lat="31.153829" lon="35.338493"><ele>-83.9</ele><name>TP08954</name><time>2020-01-27T14:27:50Z</time></trkpt>
   <trkpt lat="31.153829" lon="35.338493"><ele>-83.9</ele><name>TP08955</name><time>2020-01-27T14:27:51Z</time></trkpt>
   <trkpt lat="31.153829" lon="35.338493"><ele>-83.9</ele><name>TP08956</name><time>2020-01-27T14:27:52Z</time></trkpt>
   <trkpt lat="31.153829" lon="35.338493"><ele>-83.9</ele><name>TP08957</name><time>2020-01-27T14:27:53Z</time></trkpt>
   <trkpt lat="31.153829" lon="35.338493"><ele>-83.9</ele><name>TP08958</name><time>2020-01-27T14:27:55Z</time></trkpt>
   <trkpt lat="31.153829" lon="35.338493"><ele>-83.9</ele><name>TP08959</name><time>2020-01-27T14:27:57Z</time></trkpt>
   <trkpt lat="31.153829" lon="35.338493"><ele>-83.9</ele><name>TP08960</name><time>2020-01-27T14:27:59Z</time></trkpt>
   <trkpt lat="31.153829" lon="35.338493"><ele>-83.9</ele><name>TP08961</name><time>2020-01-27T14:28:00Z</time></trkpt>
   <trkpt lat="31.153829" lon="35.338493"><ele>-83.9</ele><name>TP08962</name><time>2020-01-27T14:28:01Z</time></trkpt>
   <trkpt lat="31.153829" lon="35.338493"><ele>-83.9</ele><name>TP08963</name><time>2020-01-27T14:28:03Z</time></trkpt>
   <trkpt lat="31.153829" lon="35.338493"><ele>-83.9</ele><name>TP08964</name><time>2020-01-27T14:28:04Z</time></trkpt>
   <trkpt lat="31.153829" lon="35.338493"><ele>-83.9</ele><name>TP08965</name><time>2020-01-27T14:28:05Z</time></trkpt>
   <trkpt lat="31.153829" lon="35.338493"><ele>-83.9</ele><name>TP08966</name><time>2020-01-27T14:28:07Z</time></trkpt>
   <trkpt lat="31.153829" lon="35.338493"><ele>-83.9</ele><name>TP08967</name><time>2020-01-27T14:28:08Z</time></trkpt>
   <trkpt lat="31.153829" lon="35.338493"><ele>-83.9</ele><name>TP08968</name><time>2020-01-27T14:28:09Z</time></trkpt>
   <trkpt lat="31.153829" lon="35.338493"><ele>-83.9</ele><name>TP08969</name><time>2020-01-27T14:28:11Z</time></trkpt>
   <trkpt lat="31.153829" lon="35.338493"><ele>-83.9</ele><name>TP08970</name><time>2020-01-27T14:28:13Z</time></trkpt>
   <trkpt lat="31.153829" lon="35.338493"><ele>-83.9</ele><name>TP08971</name><time>2020-01-27T14:28:14Z</time></trkpt>
   <trkpt lat="31.153829" lon="35.338493"><ele>-83.9</ele><name>TP08972</name><time>2020-01-27T14:28:16Z</time></trkpt>
   <trkpt lat="31.153829" lon="35.338493"><ele>-83.9</ele><name>TP08973</name><time>2020-01-27T14:28:18Z</time></trkpt>
   <trkpt lat="31.153829" lon="35.338493"><ele>-83.9</ele><name>TP08974</name><time>2020-01-27T14:28:20Z</time></trkpt>
   <trkpt lat="31.153829" lon="35.338493"><ele>-83.9</ele><name>TP08975</name><time>2020-01-27T14:28:21Z</time></trkpt>
   <trkpt lat="31.153829" lon="35.338493"><ele>-83.9</ele><name>TP08976</name><time>2020-01-27T14:28:22Z</time></trkpt>
   <trkpt lat="31.153829" lon="35.338493"><ele>-83.9</ele><name>TP08977</name><time>2020-01-27T14:28:24Z</time></trkpt>
   <trkpt lat="31.153829" lon="35.338493"><ele>-83.9</ele><name>TP08978</name><time>2020-01-27T14:28:26Z</time></trkpt>
   <trkpt lat="31.153829" lon="35.338493"><ele>-83.9</ele><name>TP08979</name><time>2020-01-27T14:28:27Z</time></trkpt>
   <trkpt lat="31.153829" lon="35.338493"><ele>-83.9</ele><name>TP08980</name><time>2020-01-27T14:28:29Z</time></trkpt>
   <trkpt lat="31.153829" lon="35.338493"><ele>-83.9</ele><name>TP08981</name><time>2020-01-27T14:28:30Z</time></trkpt>
   <trkpt lat="31.153829" lon="35.338493"><ele>-83.9</ele><name>TP08982</name><time>2020-01-27T14:28:32Z</time></trkpt>
   <trkpt lat="31.153829" lon="35.338493"><ele>-83.9</ele><name>TP08983</name><time>2020-01-27T14:28:34Z</time></trkpt>
   <trkpt lat="31.153829" lon="35.338493"><ele>-83.9</ele><name>TP08984</name><time>2020-01-27T14:28:36Z</time></trkpt>
     </trkseg>
 </trk>
</gpx>
